<?xml version='1.0' encoding='UTF-8'?><gpx version="1.1" creator="JPX - https://github.com/jenetics/jpx" xmlns="http://www.topografix.com/GPX/1/1"><trk><trkseg><trkpt lat="43.695985534200524" lon="10.843382121206886"><ele>24.0</ele><time>2026-04-19T07:59:59Z</time></trkpt><trkpt lat="43.69592038597529" lon="10.843438440831449"><ele>24.0</ele><time>2026-04-19T08:00:02Z</time></trkpt><trkpt lat="43.69586545803902" lon="10.84348435316091"><ele>24.0</ele><time>2026-04-19T08:00:25.999Z</time></trkpt><trkpt lat="43.69585516614885" lon="10.843630851441322"><ele>24.0</ele><time>2026-04-19T08:00:27.999Z</time></trkpt><trkpt lat="43.69586970078525" lon="10.843723262839662"><ele>24.0</ele><time>2026-04-19T08:00:28.999Z</time></trkpt><trkpt lat="43.69588653317622" lon="10.843819833121394"><ele>24.0</ele><time>2026-04-19T08:00:29.999Z</time></trkpt><trkpt lat="43.69590658479151" lon="10.843931738221784"><ele>23.799999999999997</ele><time>2026-04-19T08:00:30.999Z</time></trkpt><trkpt lat="43.695924912602294" lon="10.844052314582116"><ele>23.599999999999998</ele><time>2026-04-19T08:00:31.999Z</time></trkpt><trkpt lat="43.69594583232899" lon="10.844185948874198"><ele>23.4</ele><time>2026-04-19T08:00:32.999Z</time></trkpt><trkpt lat="43.695970466383834" lon="10.844322487648073"><ele>23.2</ele><time>2026-04-19T08:00:33.999Z</time></trkpt><trkpt lat="43.695996603793155" lon="10.84446333592343"><ele>23.0</ele><time>2026-04-19T08:00:34.999Z</time></trkpt><trkpt lat="43.69602474346521" lon="10.84461598019892"><ele>23.0</ele><time>2026-04-19T08:00:35.999Z</time></trkpt><trkpt lat="43.69605449318072" lon="10.844780009968668"><ele>23.0</ele><time>2026-04-19T08:00:36.999Z</time></trkpt><trkpt lat="43.69608184409909" lon="10.84494682598019"><ele>23.0</ele><time>2026-04-19T08:00:37.999Z</time></trkpt><trkpt lat="43.69610517488698" lon="10.845115336883477"><ele>23.0</ele><time>2026-04-19T08:00:38.999Z</time></trkpt><trkpt lat="43.69611902163913" lon="10.845291797877094"><ele>22.75</ele><time>2026-04-19T08:00:39.999Z</time></trkpt><trkpt lat="43.69612282313137" lon="10.845473147372765"><ele>22.5</ele><time>2026-04-19T08:00:40.999Z</time></trkpt><trkpt lat="43.69611360828525" lon="10.84565852215521"><ele>22.25</ele><time>2026-04-19T08:00:41.999Z</time></trkpt><trkpt lat="43.69609437554067" lon="10.84584849162046"><ele>22.0</ele><time>2026-04-19T08:00:42.999Z</time></trkpt><trkpt lat="43.69606385522386" lon="10.846045222517029"><ele>22.0</ele><time>2026-04-19T08:00:43.999Z</time></trkpt><trkpt lat="43.69602084190498" lon="10.846242412476109"><ele>22.0</ele><time>2026-04-19T08:00:44.999Z</time></trkpt><trkpt lat="43.695969309157654" lon="10.846438805850921"><ele>22.0</ele><time>2026-04-19T08:00:45.999Z</time></trkpt><trkpt lat="43.69591796938215" lon="10.846631481708615"><ele>22.0</ele><time>2026-04-19T08:00:46.999Z</time></trkpt><trkpt lat="43.69586785053376" lon="10.846830756567355"><ele>22.333333333333332</ele><time>2026-04-19T08:00:47.999Z</time></trkpt><trkpt lat="43.6958192585419" lon="10.84703005510315"><ele>22.666666666666668</ele><time>2026-04-19T08:00:48.999Z</time></trkpt><trkpt lat="43.69576986938173" lon="10.847233445265866"><ele>23.0</ele><time>2026-04-19T08:00:49.999Z</time></trkpt><trkpt lat="43.69572045522843" lon="10.847436819086116"><ele>22.666666666666668</ele><time>2026-04-19T08:00:50.999Z</time></trkpt><trkpt lat="43.695671374609674" lon="10.847642070778985"><ele>22.333333333333332</ele><time>2026-04-19T08:00:51.999Z</time></trkpt><trkpt lat="43.69562268644408" lon="10.847844804173636"><ele>22.0</ele><time>2026-04-19T08:00:52.999Z</time></trkpt><trkpt lat="43.69557236788179" lon="10.848049056684559"><ele>22.0</ele><time>2026-04-19T08:00:53.999Z</time></trkpt><trkpt lat="43.695520262106854" lon="10.848253080906625"><ele>22.0</ele><time>2026-04-19T08:00:54.999Z</time></trkpt><trkpt lat="43.6954688689037" lon="10.848455793537157"><ele>22.0</ele><time>2026-04-19T08:00:55.999Z</time></trkpt><trkpt lat="43.69541723338165" lon="10.848658088073478"><ele>22.25</ele><time>2026-04-19T08:00:56.999Z</time></trkpt><trkpt lat="43.695364701571116" lon="10.84885751870542"><ele>22.5</ele><time>2026-04-19T08:00:57.999Z</time></trkpt><trkpt lat="43.69531483488017" lon="10.849051556213475"><ele>22.75</ele><time>2026-04-19T08:00:58.999Z</time></trkpt><trkpt lat="43.69526639809021" lon="10.84924283861159"><ele>23.0</ele><time>2026-04-19T08:00:59.999Z</time></trkpt><trkpt lat="43.69521862496959" lon="10.849430758811573"><ele>23.0</ele><time>2026-04-19T08:01:00.999Z</time></trkpt><trkpt lat="43.69517153067676" lon="10.84961583527199"><ele>23.0</ele><time>2026-04-19T08:01:01.998Z</time></trkpt><trkpt lat="43.69512668616791" lon="10.849796491211945"><ele>23.0</ele><time>2026-04-19T08:01:02.998Z</time></trkpt><trkpt lat="43.69508257504328" lon="10.849976362440472"><ele>23.0</ele><time>2026-04-19T08:01:03.998Z</time></trkpt><trkpt lat="43.695038868045785" lon="10.850153652369155"><ele>23.0</ele><time>2026-04-19T08:01:04.998Z</time></trkpt><trkpt lat="43.6949962560739" lon="10.850331055084753"><ele>23.0</ele><time>2026-04-19T08:01:05.998Z</time></trkpt><trkpt lat="43.69495281524967" lon="10.850507164350121"><ele>23.0</ele><time>2026-04-19T08:01:06.998Z</time></trkpt><trkpt lat="43.694913419408465" lon="10.850686604889736"><ele>23.0</ele><time>2026-04-19T08:01:07.998Z</time></trkpt><trkpt lat="43.69488235181801" lon="10.850873240875321"><ele>23.0</ele><time>2026-04-19T08:01:08.998Z</time></trkpt><trkpt lat="43.694855538465454" lon="10.851065318236842"><ele>23.0</ele><time>2026-04-19T08:01:09.998Z</time></trkpt><trkpt lat="43.69483365704255" lon="10.851259336667292"><ele>23.0</ele><time>2026-04-19T08:01:10.998Z</time></trkpt><trkpt lat="43.694813373932426" lon="10.851454151222297"><ele>23.0</ele><time>2026-04-19T08:01:11.998Z</time></trkpt><trkpt lat="43.69479369852424" lon="10.851650116570607"><ele>23.0</ele><time>2026-04-19T08:01:12.998Z</time></trkpt><trkpt lat="43.69477261661075" lon="10.851848199211446"><ele>23.0</ele><time>2026-04-19T08:01:13.998Z</time></trkpt><trkpt lat="43.69475160481775" lon="10.852050931811219"><ele>23.0</ele><time>2026-04-19T08:01:14.998Z</time></trkpt><trkpt lat="43.69473103560711" lon="10.852258168163392"><ele>23.0</ele><time>2026-04-19T08:01:15.998Z</time></trkpt><trkpt lat="43.69471048334521" lon="10.852467858671098"><ele>23.0</ele><time>2026-04-19T08:01:16.998Z</time></trkpt><trkpt lat="43.694691101894215" lon="10.852676684576835"><ele>23.0</ele><time>2026-04-19T08:01:17.998Z</time></trkpt><trkpt lat="43.69467207524646" lon="10.852877067990363"><ele>23.0</ele><time>2026-04-19T08:01:18.998Z</time></trkpt><trkpt lat="43.69465227729648" lon="10.853073025127316"><ele>23.0</ele><time>2026-04-19T08:01:19.998Z</time></trkpt><trkpt lat="43.69463362858827" lon="10.853260602720809"><ele>23.0</ele><time>2026-04-19T08:01:20.998Z</time></trkpt><trkpt lat="43.69461634822271" lon="10.853426912155246"><ele>23.0</ele><time>2026-04-19T08:01:21.998Z</time></trkpt><trkpt lat="43.69460211681345" lon="10.853568797481225"><ele>23.0</ele><time>2026-04-19T08:01:22.998Z</time></trkpt><trkpt lat="43.69459054443641" lon="10.853688826819267"><ele>23.0</ele><time>2026-04-19T08:01:23.998Z</time></trkpt><trkpt lat="43.694579092900156" lon="10.853797016981042"><ele>23.0</ele><time>2026-04-19T08:01:24.998Z</time></trkpt><trkpt lat="43.694568894973834" lon="10.853898987873613"><ele>23.0</ele><time>2026-04-19T08:01:25.998Z</time></trkpt><trkpt lat="43.694557550073704" lon="10.854008427062917"><ele>23.0</ele><time>2026-04-19T08:01:26.998Z</time></trkpt><trkpt lat="43.69454587374858" lon="10.85413411725979"><ele>23.0</ele><time>2026-04-19T08:01:27.998Z</time></trkpt><trkpt lat="43.694533076999804" lon="10.854270988370716"><ele>23.0</ele><time>2026-04-19T08:01:28.998Z</time></trkpt><trkpt lat="43.69451829301495" lon="10.854420506890577"><ele>23.0</ele><time>2026-04-19T08:01:29.998Z</time></trkpt><trkpt lat="43.6945033828117" lon="10.854581410018927"><ele>22.75</ele><time>2026-04-19T08:01:30.998Z</time></trkpt><trkpt lat="43.69449029429791" lon="10.854751055265506"><ele>22.5</ele><time>2026-04-19T08:01:31.998Z</time></trkpt><trkpt lat="43.6944774228056" lon="10.854922749095094"><ele>22.25</ele><time>2026-04-19T08:01:32.998Z</time></trkpt><trkpt lat="43.69446350563373" lon="10.855094476514223"><ele>22.0</ele><time>2026-04-19T08:01:33.998Z</time></trkpt><trkpt lat="43.69444666568232" lon="10.855258017506898"><ele>22.5</ele><time>2026-04-19T08:01:34.998Z</time></trkpt><trkpt lat="43.694418880942045" lon="10.855414112429422"><ele>23.0</ele><time>2026-04-19T08:01:35.998Z</time></trkpt><trkpt lat="43.6943658059836" lon="10.855555656223352"><ele>23.5</ele><time>2026-04-19T08:01:36.998Z</time></trkpt><trkpt lat="43.694282794678635" lon="10.855665380706592"><ele>24.0</ele><time>2026-04-19T08:01:37.998Z</time></trkpt><trkpt lat="43.694184173588816" lon="10.855750520488778"><ele>24.0</ele><time>2026-04-19T08:01:38.998Z</time></trkpt><trkpt lat="43.69407074642327" lon="10.855802185530196"><ele>24.0</ele><time>2026-04-19T08:01:39.998Z</time></trkpt><trkpt lat="43.69394921370479" lon="10.855822126407675"><ele>24.0</ele><time>2026-04-19T08:01:40.998Z</time></trkpt><trkpt lat="43.69382422317329" lon="10.855828297517453"><ele>24.0</ele><time>2026-04-19T08:01:41.998Z</time></trkpt><trkpt lat="43.69369689502609" lon="10.855840780702023"><ele>24.25</ele><time>2026-04-19T08:01:42.998Z</time></trkpt><trkpt lat="43.69356871741879" lon="10.855854126228191"><ele>24.5</ele><time>2026-04-19T08:01:43.998Z</time></trkpt><trkpt lat="43.69344002987065" lon="10.85586963610508"><ele>24.75</ele><time>2026-04-19T08:01:44.998Z</time></trkpt><trkpt lat="43.69331003743806" lon="10.85588623926838"><ele>25.0</ele><time>2026-04-19T08:01:45.998Z</time></trkpt><trkpt lat="43.693184517567786" lon="10.855898918392427"><ele>25.000000000000004</ele><time>2026-04-19T08:01:46.998Z</time></trkpt><trkpt lat="43.69307204476957" lon="10.855912380092807"><ele>25.0</ele><time>2026-04-19T08:01:47.998Z</time></trkpt><trkpt lat="43.692971489715326" lon="10.855925832086447"><ele>25.0</ele><time>2026-04-19T08:01:48.998Z</time></trkpt><trkpt lat="43.69288726239659" lon="10.855935353438312"><ele>25.0</ele><time>2026-04-19T08:01:50Z</time></trkpt><trkpt lat="43.69281196486784" lon="10.855965668729734"><ele>25.000000000000004</ele><time>2026-04-19T08:01:51Z</time></trkpt><trkpt lat="43.69274880235782" lon="10.855973116696905"><ele>25.0</ele><time>2026-04-19T08:01:52Z</time></trkpt><trkpt lat="43.69265704765059" lon="10.855981220691563"><ele>25.2</ele><time>2026-04-19T08:01:54Z</time></trkpt><trkpt lat="43.69258424170659" lon="10.85602351463405"><ele>25.4</ele><time>2026-04-19T08:02:00Z</time></trkpt><trkpt lat="43.69254576583904" lon="10.85619860387035"><ele>25.6</ele><time>2026-04-19T08:02:02Z</time></trkpt><trkpt lat="43.692535729231" lon="10.856309019113883"><ele>25.8</ele><time>2026-04-19T08:02:03Z</time></trkpt><trkpt lat="43.692526317408536" lon="10.856438916368193"><ele>26.0</ele><time>2026-04-19T08:02:04Z</time></trkpt><trkpt lat="43.69251715919384" lon="10.856578497398422"><ele>26.0</ele><time>2026-04-19T08:02:05Z</time></trkpt><trkpt lat="43.69250892686755" lon="10.856715273532009"><ele>26.0</ele><time>2026-04-19T08:02:06Z</time></trkpt><trkpt lat="43.69250224825648" lon="10.856861013765469"><ele>26.0</ele><time>2026-04-19T08:02:07Z</time></trkpt><trkpt lat="43.69249415085249" lon="10.857014920844282"><ele>26.0</ele><time>2026-04-19T08:02:08Z</time></trkpt><trkpt lat="43.692486621419775" lon="10.85717909071421"><ele>26.0</ele><time>2026-04-19T08:02:09Z</time></trkpt><trkpt lat="43.69247744492888" lon="10.857356021029759"><ele>26.25</ele><time>2026-04-19T08:02:10Z</time></trkpt><trkpt lat="43.69246602730118" lon="10.857535753775103"><ele>26.5</ele><time>2026-04-19T08:02:11Z</time></trkpt><trkpt lat="43.69245445263912" lon="10.857712653025725"><ele>26.75</ele><time>2026-04-19T08:02:12Z</time></trkpt><trkpt lat="43.69244358945019" lon="10.857892892516238"><ele>27.0</ele><time>2026-04-19T08:02:13Z</time></trkpt><trkpt lat="43.69243222596602" lon="10.858073892657881"><ele>27.25</ele><time>2026-04-19T08:02:14Z</time></trkpt><trkpt lat="43.692421051183985" lon="10.858250014690752"><ele>27.5</ele><time>2026-04-19T08:02:15Z</time></trkpt><trkpt lat="43.69241025577936" lon="10.85842520953894"><ele>27.75</ele><time>2026-04-19T08:02:16Z</time></trkpt><trkpt lat="43.692397884905844" lon="10.858600972000747"><ele>28.0</ele><time>2026-04-19T08:02:17Z</time></trkpt><trkpt lat="43.6923890514402" lon="10.858776239484019"><ele>28.0</ele><time>2026-04-19T08:02:18Z</time></trkpt><trkpt lat="43.69238071980459" lon="10.858957015024455"><ele>28.0</ele><time>2026-04-19T08:02:19Z</time></trkpt><trkpt lat="43.6923717286976" lon="10.859142607779209"><ele>28.0</ele><time>2026-04-19T08:02:20Z</time></trkpt><trkpt lat="43.69235657083778" lon="10.859336300036135"><ele>28.0</ele><time>2026-04-19T08:02:21Z</time></trkpt><trkpt lat="43.692334860190535" lon="10.859533205951557"><ele>28.0</ele><time>2026-04-19T08:02:22Z</time></trkpt><trkpt lat="43.69231840388323" lon="10.85973495844334"><ele>28.0</ele><time>2026-04-19T08:02:23Z</time></trkpt><trkpt lat="43.69230433092112" lon="10.859941909156728"><ele>28.0</ele><time>2026-04-19T08:02:24Z</time></trkpt><trkpt lat="43.69229099214736" lon="10.860145996922615"><ele>28.0</ele><time>2026-04-19T08:02:25Z</time></trkpt><trkpt lat="43.692279236676264" lon="10.860352447063605"><ele>28.0</ele><time>2026-04-19T08:02:26Z</time></trkpt><trkpt lat="43.69226793028807" lon="10.860557650395672"><ele>28.0</ele><time>2026-04-19T08:02:27Z</time></trkpt><trkpt lat="43.6922553935052" lon="10.860762776383229"><ele>28.0</ele><time>2026-04-19T08:02:28Z</time></trkpt><trkpt lat="43.692242198504886" lon="10.860966789307485"><ele>28.0</ele><time>2026-04-19T08:02:29Z</time></trkpt><trkpt lat="43.69222810021051" lon="10.86117070770183"><ele>28.25</ele><time>2026-04-19T08:02:30Z</time></trkpt><trkpt lat="43.69221629405312" lon="10.861374566514378"><ele>28.5</ele><time>2026-04-19T08:02:31Z</time></trkpt><trkpt lat="43.69220453185101" lon="10.8615787863616"><ele>28.75</ele><time>2026-04-19T08:02:31.999Z</time></trkpt><trkpt lat="43.69219331572405" lon="10.861782904075413"><ele>29.0</ele><time>2026-04-19T08:02:32.999Z</time></trkpt><trkpt lat="43.69218050765265" lon="10.861985815611344"><ele>29.25</ele><time>2026-04-19T08:02:33.999Z</time></trkpt><trkpt lat="43.69216919231027" lon="10.862182960342688"><ele>29.5</ele><time>2026-04-19T08:02:34.999Z</time></trkpt><trkpt lat="43.6921570250572" lon="10.862382429065981"><ele>29.75</ele><time>2026-04-19T08:02:35.999Z</time></trkpt><trkpt lat="43.69214310446894" lon="10.862576504874404"><ele>30.0</ele><time>2026-04-19T08:02:36.999Z</time></trkpt><trkpt lat="43.69212666462137" lon="10.862765400218953"><ele>30.0</ele><time>2026-04-19T08:02:37.999Z</time></trkpt><trkpt lat="43.692105493235076" lon="10.862952474700798"><ele>30.0</ele><time>2026-04-19T08:02:38.999Z</time></trkpt><trkpt lat="43.69208433277676" lon="10.86313540923549"><ele>30.0</ele><time>2026-04-19T08:02:39.999Z</time></trkpt><trkpt lat="43.692065552519345" lon="10.863316674125056"><ele>30.0</ele><time>2026-04-19T08:02:40.999Z</time></trkpt><trkpt lat="43.69205002351014" lon="10.86349600974657"><ele>30.0</ele><time>2026-04-19T08:02:41.999Z</time></trkpt><trkpt lat="43.6920369021461" lon="10.8636743463181"><ele>30.0</ele><time>2026-04-19T08:02:42.999Z</time></trkpt><trkpt lat="43.69202397874647" lon="10.863851417234681"><ele>30.0</ele><time>2026-04-19T08:02:43.999Z</time></trkpt><trkpt lat="43.692009922664624" lon="10.86402603922656"><ele>30.0</ele><time>2026-04-19T08:02:44.999Z</time></trkpt><trkpt lat="43.691997719677865" lon="10.864195640235524"><ele>29.6</ele><time>2026-04-19T08:02:45.999Z</time></trkpt><trkpt lat="43.69198643480891" lon="10.864352910607433"><ele>29.2</ele><time>2026-04-19T08:02:46.999Z</time></trkpt><trkpt lat="43.691976809803805" lon="10.864500147247153"><ele>28.799999999999997</ele><time>2026-04-19T08:02:47.999Z</time></trkpt><trkpt lat="43.69196625331176" lon="10.864639916145117"><ele>28.4</ele><time>2026-04-19T08:02:48.999Z</time></trkpt><trkpt lat="43.69195917006364" lon="10.86477164451819"><ele>28.0</ele><time>2026-04-19T08:02:49.999Z</time></trkpt><trkpt lat="43.69195298565594" lon="10.86490106846909"><ele>28.0</ele><time>2026-04-19T08:02:50.999Z</time></trkpt><trkpt lat="43.69194940127279" lon="10.86503703941569"><ele>27.999999999999996</ele><time>2026-04-19T08:02:51.999Z</time></trkpt><trkpt lat="43.69193879370865" lon="10.865181998054073"><ele>27.999999999999996</ele><time>2026-04-19T08:02:52.999Z</time></trkpt><trkpt lat="43.6919299221978" lon="10.865339889332525"><ele>28.0</ele><time>2026-04-19T08:02:53.999Z</time></trkpt><trkpt lat="43.691919084519334" lon="10.865504406440003"><ele>28.0</ele><time>2026-04-19T08:02:54.999Z</time></trkpt><trkpt lat="43.691911409391004" lon="10.86567406504472"><ele>28.25</ele><time>2026-04-19T08:02:55.999Z</time></trkpt><trkpt lat="43.69190208874103" lon="10.865849174711306"><ele>28.5</ele><time>2026-04-19T08:02:56.999Z</time></trkpt><trkpt lat="43.691893286315356" lon="10.866027218283147"><ele>28.75</ele><time>2026-04-19T08:02:57.999Z</time></trkpt><trkpt lat="43.691882409071596" lon="10.866205832465203"><ele>29.0</ele><time>2026-04-19T08:02:58.999Z</time></trkpt><trkpt lat="43.69187309411659" lon="10.866382810386337"><ele>29.25</ele><time>2026-04-19T08:02:59.999Z</time></trkpt><trkpt lat="43.691862778599535" lon="10.86655764475775"><ele>29.5</ele><time>2026-04-19T08:03:00.999Z</time></trkpt><trkpt lat="43.69185183330548" lon="10.86672839855884"><ele>29.75</ele><time>2026-04-19T08:03:01.999Z</time></trkpt><trkpt lat="43.691843148806484" lon="10.86688847812205"><ele>30.0</ele><time>2026-04-19T08:03:02.999Z</time></trkpt><trkpt lat="43.6918370380178" lon="10.867028768997004"><ele>30.0</ele><time>2026-04-19T08:03:03.999Z</time></trkpt><trkpt lat="43.69183054553249" lon="10.867154234082177"><ele>30.0</ele><time>2026-04-19T08:03:04.999Z</time></trkpt><trkpt lat="43.691824645707875" lon="10.867269363749154"><ele>30.0</ele><time>2026-04-19T08:03:05.999Z</time></trkpt><trkpt lat="43.69181661841505" lon="10.867379416932774"><ele>30.0</ele><time>2026-04-19T08:03:06.999Z</time></trkpt><trkpt lat="43.69181123614773" lon="10.867494426212618"><ele>30.0</ele><time>2026-04-19T08:03:07.999Z</time></trkpt><trkpt lat="43.691807978508685" lon="10.867624389170274"><ele>30.0</ele><time>2026-04-19T08:03:08.999Z</time></trkpt><trkpt lat="43.69180440601835" lon="10.86777137573534"><ele>30.25</ele><time>2026-04-19T08:03:09.999Z</time></trkpt><trkpt lat="43.691795682711096" lon="10.867931743459746"><ele>30.5</ele><time>2026-04-19T08:03:10.999Z</time></trkpt><trkpt lat="43.69178364659508" lon="10.868101919592384"><ele>30.75</ele><time>2026-04-19T08:03:11.999Z</time></trkpt><trkpt lat="43.691774710831346" lon="10.868281651637808"><ele>31.0</ele><time>2026-04-19T08:03:12.999Z</time></trkpt><trkpt lat="43.69176598223923" lon="10.868470622381505"><ele>31.0</ele><time>2026-04-19T08:03:13.999Z</time></trkpt><trkpt lat="43.69175489437858" lon="10.86865445490943"><ele>31.0</ele><time>2026-04-19T08:03:14.999Z</time></trkpt><trkpt lat="43.691744383580065" lon="10.868839163165426"><ele>31.0</ele><time>2026-04-19T08:03:15.999Z</time></trkpt><trkpt lat="43.69173605974334" lon="10.86903409377782"><ele>31.0</ele><time>2026-04-19T08:03:16.999Z</time></trkpt><trkpt lat="43.69172759870856" lon="10.869235745935088"><ele>31.0</ele><time>2026-04-19T08:03:17.999Z</time></trkpt><trkpt lat="43.69171843438" lon="10.869438394847675"><ele>31.0</ele><time>2026-04-19T08:03:18.999Z</time></trkpt><trkpt lat="43.69170748744718" lon="10.869640842974372"><ele>31.0</ele><time>2026-04-19T08:03:19.999Z</time></trkpt><trkpt lat="43.6916974877563" lon="10.869845651521363"><ele>31.0</ele><time>2026-04-19T08:03:20.998Z</time></trkpt><trkpt lat="43.6916878585953" lon="10.870049156036648"><ele>30.75</ele><time>2026-04-19T08:03:21.998Z</time></trkpt><trkpt lat="43.691675027873906" lon="10.870246156263002"><ele>30.5</ele><time>2026-04-19T08:03:22.998Z</time></trkpt><trkpt lat="43.691660380786914" lon="10.870429056705044"><ele>30.25</ele><time>2026-04-19T08:03:23.998Z</time></trkpt><trkpt lat="43.69164760707961" lon="10.870597780457171"><ele>30.0</ele><time>2026-04-19T08:03:24.998Z</time></trkpt><trkpt lat="43.69163711901626" lon="10.870757815683683"><ele>30.0</ele><time>2026-04-19T08:03:25.998Z</time></trkpt><trkpt lat="43.691628071691596" lon="10.8709024124463"><ele>30.0</ele><time>2026-04-19T08:03:26.998Z</time></trkpt><trkpt lat="43.69161901198572" lon="10.871035788811744"><ele>30.0</ele><time>2026-04-19T08:03:27.998Z</time></trkpt><trkpt lat="43.691610879919466" lon="10.87115346197899"><ele>30.0</ele><time>2026-04-19T08:03:28.998Z</time></trkpt><trkpt lat="43.69160384378926" lon="10.87126372539028"><ele>30.0</ele><time>2026-04-19T08:03:29.998Z</time></trkpt><trkpt lat="43.69160056635026" lon="10.871384530778572"><ele>30.0</ele><time>2026-04-19T08:03:30.998Z</time></trkpt><trkpt lat="43.69159520865188" lon="10.871521693666516"><ele>30.0</ele><time>2026-04-19T08:03:31.998Z</time></trkpt><trkpt lat="43.69159042297397" lon="10.871676510449943"><ele>30.0</ele><time>2026-04-19T08:03:32.998Z</time></trkpt><trkpt lat="43.69158294498882" lon="10.871847300047127"><ele>30.0</ele><time>2026-04-19T08:03:33.998Z</time></trkpt><trkpt lat="43.691571806372856" lon="10.872023625172988"><ele>30.0</ele><time>2026-04-19T08:03:34.998Z</time></trkpt><trkpt lat="43.69156078133791" lon="10.872195658959246"><ele>30.0</ele><time>2026-04-19T08:03:35.998Z</time></trkpt><trkpt lat="43.69155028787853" lon="10.872382986747457"><ele>30.0</ele><time>2026-04-19T08:03:36.998Z</time></trkpt><trkpt lat="43.69154391717147" lon="10.872576993333556"><ele>30.0</ele><time>2026-04-19T08:03:37.998Z</time></trkpt><trkpt lat="43.69153835469211" lon="10.87277193675284"><ele>30.333333333333336</ele><time>2026-04-19T08:03:38.998Z</time></trkpt><trkpt lat="43.69153077062252" lon="10.87297626961479"><ele>30.666666666666668</ele><time>2026-04-19T08:03:39.998Z</time></trkpt><trkpt lat="43.691512663528904" lon="10.873186634786094"><ele>31.0</ele><time>2026-04-19T08:03:40.998Z</time></trkpt><trkpt lat="43.69148659435807" lon="10.873400171428177"><ele>30.333333333333336</ele><time>2026-04-19T08:03:41.998Z</time></trkpt><trkpt lat="43.691458546926576" lon="10.873621623189086"><ele>29.666666666666664</ele><time>2026-04-19T08:03:42.998Z</time></trkpt><trkpt lat="43.69143485016672" lon="10.873844244070996"><ele>29.0</ele><time>2026-04-19T08:03:43.998Z</time></trkpt><trkpt lat="43.69141643341544" lon="10.874073838014088"><ele>28.666666666666664</ele><time>2026-04-19T08:03:44.998Z</time></trkpt><trkpt lat="43.691404615903295" lon="10.874299870947059"><ele>28.333333333333336</ele><time>2026-04-19T08:03:45.998Z</time></trkpt><trkpt lat="43.69139648220338" lon="10.874525717027987"><ele>28.0</ele><time>2026-04-19T08:03:46.998Z</time></trkpt><trkpt lat="43.69139384922525" lon="10.874749342796155"><ele>28.0</ele><time>2026-04-19T08:03:47.998Z</time></trkpt><trkpt lat="43.69140049188374" lon="10.874961747001215"><ele>28.0</ele><time>2026-04-19T08:03:48.998Z</time></trkpt><trkpt lat="43.69142010571968" lon="10.875166280844565"><ele>28.0</ele><time>2026-04-19T08:03:49.998Z</time></trkpt><trkpt lat="43.69145485230855" lon="10.87536823024474"><ele>28.0</ele><time>2026-04-19T08:03:50.998Z</time></trkpt><trkpt lat="43.691496602532666" lon="10.875571851765324"><ele>28.0</ele><time>2026-04-19T08:03:51.998Z</time></trkpt><trkpt lat="43.69154172501984" lon="10.875779213739866"><ele>28.0</ele><time>2026-04-19T08:03:52.998Z</time></trkpt><trkpt lat="43.69158363815866" lon="10.875990415574412"><ele>28.333333333333336</ele><time>2026-04-19T08:03:53.998Z</time></trkpt><trkpt lat="43.69162323242899" lon="10.876203815572307"><ele>28.666666666666664</ele><time>2026-04-19T08:03:55Z</time></trkpt><trkpt lat="43.691668617683554" lon="10.876417292495567"><ele>29.0</ele><time>2026-04-19T08:03:56Z</time></trkpt><trkpt lat="43.69171990078886" lon="10.876629731483307"><ele>29.666666666666664</ele><time>2026-04-19T08:03:57Z</time></trkpt><trkpt lat="43.69177626023448" lon="10.876840158750422"><ele>30.333333333333336</ele><time>2026-04-19T08:03:58Z</time></trkpt><trkpt lat="43.6918340392895" lon="10.877050666458867"><ele>31.0</ele><time>2026-04-19T08:03:59Z</time></trkpt><trkpt lat="43.6918894641899" lon="10.877247976796648"><ele>30.5</ele><time>2026-04-19T08:04:00Z</time></trkpt><trkpt lat="43.69194190247354" lon="10.877437716999252"><ele>30.0</ele><time>2026-04-19T08:04:01Z</time></trkpt><trkpt lat="43.69199101692471" lon="10.877621004709281"><ele>29.5</ele><time>2026-04-19T08:04:02Z</time></trkpt><trkpt lat="43.69203726560737" lon="10.8778082501556"><ele>29.0</ele><time>2026-04-19T08:04:03Z</time></trkpt><trkpt lat="43.692076547596216" lon="10.877999205254472"><ele>28.666666666666664</ele><time>2026-04-19T08:04:04Z</time></trkpt><trkpt lat="43.692084749672944" lon="10.87820178727105"><ele>28.333333333333336</ele><time>2026-04-19T08:04:05Z</time></trkpt><trkpt lat="43.69206132126689" lon="10.878411837299957"><ele>28.0</ele><time>2026-04-19T08:04:06Z</time></trkpt><trkpt lat="43.69202089013645" lon="10.878625914635121"><ele>28.0</ele><time>2026-04-19T08:04:07Z</time></trkpt><trkpt lat="43.69198415349586" lon="10.878849120700348"><ele>28.0</ele><time>2026-04-19T08:04:08Z</time></trkpt><trkpt lat="43.691953624854726" lon="10.879081907116964"><ele>28.0</ele><time>2026-04-19T08:04:09Z</time></trkpt><trkpt lat="43.69192387151847" lon="10.879319088396995"><ele>29.0</ele><time>2026-04-19T08:04:10Z</time></trkpt><trkpt lat="43.69189431957184" lon="10.879548486870792"><ele>30.0</ele><time>2026-04-19T08:04:11Z</time></trkpt><trkpt lat="43.69186586338835" lon="10.879779480187109"><ele>31.0</ele><time>2026-04-19T08:04:12Z</time></trkpt><trkpt lat="43.69183757760134" lon="10.880012270959494"><ele>30.666666666666668</ele><time>2026-04-19T08:04:13Z</time></trkpt><trkpt lat="43.69180836178903" lon="10.880244157556238"><ele>30.333333333333336</ele><time>2026-04-19T08:04:14Z</time></trkpt><trkpt lat="43.69177920453594" lon="10.880475144235835"><ele>30.0</ele><time>2026-04-19T08:04:15Z</time></trkpt><trkpt lat="43.691748950220706" lon="10.880706825564149"><ele>29.666666666666664</ele><time>2026-04-19T08:04:16Z</time></trkpt><trkpt lat="43.69171675857685" lon="10.88093738261327"><ele>29.333333333333332</ele><time>2026-04-19T08:04:17Z</time></trkpt><trkpt lat="43.69168514799441" lon="10.881168512372783"><ele>29.0</ele><time>2026-04-19T08:04:18Z</time></trkpt><trkpt lat="43.69165741181661" lon="10.881399964842297"><ele>29.0</ele><time>2026-04-19T08:04:19Z</time></trkpt><trkpt lat="43.69162984931373" lon="10.881634550427776"><ele>29.0</ele><time>2026-04-19T08:04:20Z</time></trkpt><trkpt lat="43.69160141981259" lon="10.881869742134402"><ele>29.0</ele><time>2026-04-19T08:04:21Z</time></trkpt><trkpt lat="43.69157288508067" lon="10.882105756253177"><ele>29.666666666666664</ele><time>2026-04-19T08:04:22Z</time></trkpt><trkpt lat="43.69154481288517" lon="10.882340977403464"><ele>30.333333333333336</ele><time>2026-04-19T08:04:23Z</time></trkpt><trkpt lat="43.69151641543535" lon="10.88257784651451"><ele>31.0</ele><time>2026-04-19T08:04:24Z</time></trkpt><trkpt lat="43.69148867202563" lon="10.882819822633728"><ele>31.0</ele><time>2026-04-19T08:04:25Z</time></trkpt><trkpt lat="43.69146257299983" lon="10.883060112512789"><ele>31.0</ele><time>2026-04-19T08:04:26Z</time></trkpt><trkpt lat="43.69143654713598" lon="10.883295338590113"><ele>31.0</ele><time>2026-04-19T08:04:27Z</time></trkpt><trkpt lat="43.691413889953566" lon="10.883533301720975"><ele>30.333333333333336</ele><time>2026-04-19T08:04:28Z</time></trkpt><trkpt lat="43.69139252849354" lon="10.883771282620122"><ele>29.666666666666664</ele><time>2026-04-19T08:04:29Z</time></trkpt><trkpt lat="43.69136843904518" lon="10.88400922618479"><ele>29.0</ele><time>2026-04-19T08:04:30Z</time></trkpt><trkpt lat="43.69134280102804" lon="10.884244341239995"><ele>29.0</ele><time>2026-04-19T08:04:31Z</time></trkpt><trkpt lat="43.69131467747039" lon="10.884477453514187"><ele>29.0</ele><time>2026-04-19T08:04:32Z</time></trkpt><trkpt lat="43.691279872528675" lon="10.884708054950025"><ele>29.0</ele><time>2026-04-19T08:04:33Z</time></trkpt><trkpt lat="43.69122350022288" lon="10.884930612391388"><ele>29.0</ele><time>2026-04-19T08:04:34Z</time></trkpt><trkpt lat="43.69114490686961" lon="10.885139932026988"><ele>29.0</ele><time>2026-04-19T08:04:35Z</time></trkpt><trkpt lat="43.69104729797213" lon="10.885333803934039"><ele>29.0</ele><time>2026-04-19T08:04:36Z</time></trkpt><trkpt lat="43.69094335759412" lon="10.885521403383375"><ele>29.666666666666664</ele><time>2026-04-19T08:04:37Z</time></trkpt><trkpt lat="43.690847670352326" lon="10.8857166447809"><ele>30.333333333333336</ele><time>2026-04-19T08:04:38Z</time></trkpt><trkpt lat="43.69076125135651" lon="10.885925097195242"><ele>31.0</ele><time>2026-04-19T08:04:39Z</time></trkpt><trkpt lat="43.69069382726665" lon="10.886148088336068"><ele>31.0</ele><time>2026-04-19T08:04:40Z</time></trkpt><trkpt lat="43.69064610498928" lon="10.886382807261187"><ele>31.0</ele><time>2026-04-19T08:04:41Z</time></trkpt><trkpt lat="43.6906119063508" lon="10.886622555381619"><ele>31.0</ele><time>2026-04-19T08:04:42Z</time></trkpt><trkpt lat="43.69057927219356" lon="10.886862055586604"><ele>31.0</ele><time>2026-04-19T08:04:42.999Z</time></trkpt><trkpt lat="43.690550741762046" lon="10.887101516173937"><ele>31.0</ele><time>2026-04-19T08:04:43.999Z</time></trkpt><trkpt lat="43.690530991998756" lon="10.887343528130591"><ele>31.0</ele><time>2026-04-19T08:04:44.999Z</time></trkpt><trkpt lat="43.69052806345839" lon="10.887587035407602"><ele>30.666666666666668</ele><time>2026-04-19T08:04:45.999Z</time></trkpt><trkpt lat="43.69054425900791" lon="10.887831241382381"><ele>30.333333333333336</ele><time>2026-04-19T08:04:46.999Z</time></trkpt><trkpt lat="43.690582739445276" lon="10.888073430652845"><ele>30.0</ele><time>2026-04-19T08:04:47.999Z</time></trkpt><trkpt lat="43.6906394953221" lon="10.888312552948662"><ele>30.333333333333336</ele><time>2026-04-19T08:04:48.999Z</time></trkpt><trkpt lat="43.69070941373316" lon="10.888550843972919"><ele>30.666666666666668</ele><time>2026-04-19T08:04:49.999Z</time></trkpt><trkpt lat="43.69077861401663" lon="10.888792703316476"><ele>31.0</ele><time>2026-04-19T08:04:50.999Z</time></trkpt><trkpt lat="43.690842742589986" lon="10.889037979467036"><ele>31.333333333333336</ele><time>2026-04-19T08:04:51.999Z</time></trkpt><trkpt lat="43.690904216141284" lon="10.88928157762612"><ele>31.666666666666664</ele><time>2026-04-19T08:04:52.999Z</time></trkpt><trkpt lat="43.69096503052168" lon="10.889523693590666"><ele>32.0</ele><time>2026-04-19T08:04:53.999Z</time></trkpt><trkpt lat="43.691026942008136" lon="10.889763629572888"><ele>32.0</ele><time>2026-04-19T08:04:54.999Z</time></trkpt><trkpt lat="43.691090159535925" lon="10.890001881892482"><ele>32.0</ele><time>2026-04-19T08:04:55.999Z</time></trkpt><trkpt lat="43.691155110352916" lon="10.890235583575212"><ele>32.0</ele><time>2026-04-19T08:04:56.999Z</time></trkpt><trkpt lat="43.69121853709258" lon="10.890469713294538"><ele>31.333333333333332</ele><time>2026-04-19T08:04:57.999Z</time></trkpt><trkpt lat="43.69128106387421" lon="10.890703547503549"><ele>30.666666666666664</ele><time>2026-04-19T08:04:58.999Z</time></trkpt><trkpt lat="43.69134448565324" lon="10.890935484306592"><ele>30.0</ele><time>2026-04-19T08:04:59.999Z</time></trkpt><trkpt lat="43.6914064666556" lon="10.891167201724166"><ele>30.0</ele><time>2026-04-19T08:05:00.999Z</time></trkpt><trkpt lat="43.691467272096176" lon="10.891398372242737"><ele>30.0</ele><time>2026-04-19T08:05:01.999Z</time></trkpt><trkpt lat="43.69152457847922" lon="10.891626518453446"><ele>30.0</ele><time>2026-04-19T08:05:02.999Z</time></trkpt><trkpt lat="43.69158261259862" lon="10.891851582133473"><ele>30.0</ele><time>2026-04-19T08:05:03.999Z</time></trkpt><trkpt lat="43.69164193736721" lon="10.892077190692856"><ele>30.0</ele><time>2026-04-19T08:05:04.999Z</time></trkpt><trkpt lat="43.69170158905266" lon="10.892300028997028"><ele>30.0</ele><time>2026-04-19T08:05:05.999Z</time></trkpt><trkpt lat="43.69175951770124" lon="10.892522184848342"><ele>30.0</ele><time>2026-04-19T08:05:06.999Z</time></trkpt><trkpt lat="43.69181696410796" lon="10.892740535881348"><ele>30.0</ele><time>2026-04-19T08:05:07.999Z</time></trkpt><trkpt lat="43.691878277399674" lon="10.892959163945036"><ele>30.0</ele><time>2026-04-19T08:05:08.999Z</time></trkpt><trkpt lat="43.69193659799557" lon="10.89317822407164"><ele>29.0</ele><time>2026-04-19T08:05:09.999Z</time></trkpt><trkpt lat="43.69199207084404" lon="10.89339647194606"><ele>28.0</ele><time>2026-04-19T08:05:10.999Z</time></trkpt><trkpt lat="43.69204448691776" lon="10.893615434178479"><ele>27.0</ele><time>2026-04-19T08:05:11.999Z</time></trkpt><trkpt lat="43.69208847551794" lon="10.89383712720856"><ele>26.666666666666664</ele><time>2026-04-19T08:05:12.999Z</time></trkpt><trkpt lat="43.692101215154636" lon="10.894071122222826"><ele>26.333333333333332</ele><time>2026-04-19T08:05:13.999Z</time></trkpt><trkpt lat="43.69208402309003" lon="10.894298925201344"><ele>26.0</ele><time>2026-04-19T08:05:14.999Z</time></trkpt><trkpt lat="43.69204672635776" lon="10.89452369233734"><ele>26.0</ele><time>2026-04-19T08:05:15.999Z</time></trkpt><trkpt lat="43.691993664594285" lon="10.894744072054866"><ele>26.0</ele><time>2026-04-19T08:05:16.999Z</time></trkpt><trkpt lat="43.69191799473402" lon="10.894952333066172"><ele>26.0</ele><time>2026-04-19T08:05:17.999Z</time></trkpt><trkpt lat="43.69183318003111" lon="10.89515324603851"><ele>26.666666666666664</ele><time>2026-04-19T08:05:18.999Z</time></trkpt><trkpt lat="43.691744577998534" lon="10.895353108939311"><ele>27.333333333333336</ele><time>2026-04-19T08:05:19.999Z</time></trkpt><trkpt lat="43.69165579299509" lon="10.895554247882878"><ele>28.0</ele><time>2026-04-19T08:05:20.999Z</time></trkpt><trkpt lat="43.69156910923251" lon="10.89575669300593"><ele>28.666666666666668</ele><time>2026-04-19T08:05:21.999Z</time></trkpt><trkpt lat="43.6914836667271" lon="10.89595777741836"><ele>29.333333333333336</ele><time>2026-04-19T08:05:22.999Z</time></trkpt><trkpt lat="43.69139854700522" lon="10.896156503289099"><ele>30.0</ele><time>2026-04-19T08:05:23.999Z</time></trkpt><trkpt lat="43.691316482876836" lon="10.896349276748758"><ele>30.0</ele><time>2026-04-19T08:05:24.999Z</time></trkpt><trkpt lat="43.69123662912082" lon="10.89653759518132"><ele>30.0</ele><time>2026-04-19T08:05:25.999Z</time></trkpt><trkpt lat="43.69115897323558" lon="10.896720317512427"><ele>30.0</ele><time>2026-04-19T08:05:26.999Z</time></trkpt><trkpt lat="43.69109060224866" lon="10.896900121727608"><ele>30.0</ele><time>2026-04-19T08:05:27.999Z</time></trkpt><trkpt lat="43.691037131629784" lon="10.897081836468677"><ele>30.0</ele><time>2026-04-19T08:05:28.999Z</time></trkpt><trkpt lat="43.69100496690648" lon="10.89727195906797"><ele>30.0</ele><time>2026-04-19T08:05:29.999Z</time></trkpt><trkpt lat="43.69098976920438" lon="10.897470449534195"><ele>30.0</ele><time>2026-04-19T08:05:30.999Z</time></trkpt><trkpt lat="43.69099124913743" lon="10.897671429448387"><ele>30.0</ele><time>2026-04-19T08:05:31.998Z</time></trkpt><trkpt lat="43.691009520475234" lon="10.897871097003462"><ele>30.0</ele><time>2026-04-19T08:05:32.998Z</time></trkpt><trkpt lat="43.691043097684855" lon="10.898070182401046"><ele>30.0</ele><time>2026-04-19T08:05:33.998Z</time></trkpt><trkpt lat="43.6910919728038" lon="10.898247879356328"><ele>30.0</ele><time>2026-04-19T08:05:34.998Z</time></trkpt><trkpt lat="43.69116282283167" lon="10.898405774175158"><ele>30.25</ele><time>2026-04-19T08:05:35.998Z</time></trkpt><trkpt lat="43.69124863168766" lon="10.89855499901402"><ele>30.5</ele><time>2026-04-19T08:05:36.998Z</time></trkpt><trkpt lat="43.691345323326175" lon="10.898691421699532"><ele>30.75</ele><time>2026-04-19T08:05:37.998Z</time></trkpt><trkpt lat="43.69145504306111" lon="10.898812667719735"><ele>31.0</ele><time>2026-04-19T08:05:38.998Z</time></trkpt><trkpt lat="43.691564010400825" lon="10.898928280017676"><ele>31.0</ele><time>2026-04-19T08:05:39.998Z</time></trkpt><trkpt lat="43.69166118673149" lon="10.89903650152622"><ele>31.0</ele><time>2026-04-19T08:05:40.998Z</time></trkpt><trkpt lat="43.691746473233245" lon="10.89912884841807"><ele>31.0</ele><time>2026-04-19T08:05:41.998Z</time></trkpt><trkpt lat="43.69183457884752" lon="10.899215429797495"><ele>31.0</ele><time>2026-04-19T08:05:42.998Z</time></trkpt><trkpt lat="43.69192775544435" lon="10.899302961139753"><ele>31.25</ele><time>2026-04-19T08:05:43.998Z</time></trkpt><trkpt lat="43.69202503182296" lon="10.89940075953179"><ele>31.5</ele><time>2026-04-19T08:05:44.998Z</time></trkpt><trkpt lat="43.692116424468104" lon="10.899492322620487"><ele>31.75</ele><time>2026-04-19T08:05:45.998Z</time></trkpt><trkpt lat="43.692214224375306" lon="10.899580662670457"><ele>32.0</ele><time>2026-04-19T08:05:46.998Z</time></trkpt><trkpt lat="43.69231703652105" lon="10.899674913520073"><ele>32.0</ele><time>2026-04-19T08:05:47.998Z</time></trkpt><trkpt lat="43.69242493672053" lon="10.899775586820297"><ele>32.0</ele><time>2026-04-19T08:05:48.998Z</time></trkpt><trkpt lat="43.692537541102965" lon="10.899877036904904"><ele>32.0</ele><time>2026-04-19T08:05:49.998Z</time></trkpt><trkpt lat="43.69265435361969" lon="10.89997750216245"><ele>32.0</ele><time>2026-04-19T08:05:50.998Z</time></trkpt><trkpt lat="43.692776362400814" lon="10.900083391590886"><ele>31.333333333333332</ele><time>2026-04-19T08:05:51.998Z</time></trkpt><trkpt lat="43.6929055270559" lon="10.90019538621852"><ele>30.666666666666664</ele><time>2026-04-19T08:05:52.998Z</time></trkpt><trkpt lat="43.693036964229414" lon="10.900311115203891"><ele>30.0</ele><time>2026-04-19T08:05:53.998Z</time></trkpt><trkpt lat="43.69316913729523" lon="10.900425092036393"><ele>30.0</ele><time>2026-04-19T08:05:54.998Z</time></trkpt><trkpt lat="43.693300064981656" lon="10.90053734240421"><ele>30.0</ele><time>2026-04-19T08:05:55.998Z</time></trkpt><trkpt lat="43.69343099097798" lon="10.900651538981872"><ele>30.0</ele><time>2026-04-19T08:05:56.998Z</time></trkpt><trkpt lat="43.6935609912303" lon="10.900764971651814"><ele>29.333333333333336</ele><time>2026-04-19T08:05:57.998Z</time></trkpt><trkpt lat="43.69369164888245" lon="10.900877910784109"><ele>28.666666666666668</ele><time>2026-04-19T08:05:58.998Z</time></trkpt><trkpt lat="43.69382178495707" lon="10.900993447249402"><ele>28.0</ele><time>2026-04-19T08:05:59.998Z</time></trkpt><trkpt lat="43.69395315390596" lon="10.90110967868527"><ele>29.333333333333336</ele><time>2026-04-19T08:06:01Z</time></trkpt><trkpt lat="43.694085989870594" lon="10.901224847500401"><ele>30.666666666666664</ele><time>2026-04-19T08:06:02Z</time></trkpt><trkpt lat="43.6942183084772" lon="10.901340111826514"><ele>32.0</ele><time>2026-04-19T08:06:03Z</time></trkpt><trkpt lat="43.69435364421351" lon="10.901455895814218"><ele>31.666666666666664</ele><time>2026-04-19T08:06:04Z</time></trkpt><trkpt lat="43.694488338001584" lon="10.901570106800426"><ele>31.333333333333336</ele><time>2026-04-19T08:06:05Z</time></trkpt><trkpt lat="43.69462527163305" lon="10.901688037049901"><ele>31.0</ele><time>2026-04-19T08:06:06Z</time></trkpt><trkpt lat="43.69476045399766" lon="10.901808691930755"><ele>31.0</ele><time>2026-04-19T08:06:07Z</time></trkpt><trkpt lat="43.69489591680858" lon="10.901927646414077"><ele>31.0</ele><time>2026-04-19T08:06:08Z</time></trkpt><trkpt lat="43.69503071787332" lon="10.902049803357052"><ele>31.0</ele><time>2026-04-19T08:06:09Z</time></trkpt><trkpt lat="43.69516637555393" lon="10.902170664994847"><ele>30.333333333333336</ele><time>2026-04-19T08:06:10Z</time></trkpt><trkpt lat="43.69530627454398" lon="10.902288872832985"><ele>29.666666666666664</ele><time>2026-04-19T08:06:11Z</time></trkpt><trkpt lat="43.69544554721649" lon="10.902408166087504"><ele>29.0</ele><time>2026-04-19T08:06:12Z</time></trkpt><trkpt lat="43.69558726060231" lon="10.902530596767301"><ele>29.333333333333332</ele><time>2026-04-19T08:06:13Z</time></trkpt><trkpt lat="43.695728306152176" lon="10.902649572665311"><ele>29.666666666666664</ele><time>2026-04-19T08:06:14Z</time></trkpt><trkpt lat="43.69586781359914" lon="10.902780877508059"><ele>30.0</ele><time>2026-04-19T08:06:15Z</time></trkpt><trkpt lat="43.696000505717016" lon="10.902913454750479"><ele>29.666666666666664</ele><time>2026-04-19T08:06:16Z</time></trkpt><trkpt lat="43.69614610120213" lon="10.903036691342042"><ele>29.333333333333332</ele><time>2026-04-19T08:06:17Z</time></trkpt><trkpt lat="43.69629194376549" lon="10.903154281688613"><ele>29.0</ele><time>2026-04-19T08:06:18Z</time></trkpt><trkpt lat="43.69643675769384" lon="10.903273765744984"><ele>29.0</ele><time>2026-04-19T08:06:19Z</time></trkpt><trkpt lat="43.69658055580665" lon="10.903390741885318"><ele>29.0</ele><time>2026-04-19T08:06:20Z</time></trkpt><trkpt lat="43.69672669147656" lon="10.903506485131814"><ele>29.0</ele><time>2026-04-19T08:06:21Z</time></trkpt><trkpt lat="43.696871571470986" lon="10.903624031714022"><ele>28.333333333333332</ele><time>2026-04-19T08:06:22Z</time></trkpt><trkpt lat="43.697016840253504" lon="10.903745476620577"><ele>27.666666666666664</ele><time>2026-04-19T08:06:23Z</time></trkpt><trkpt lat="43.69716086067519" lon="10.9038704062342"><ele>27.0</ele><time>2026-04-19T08:06:24Z</time></trkpt><trkpt lat="43.69730335063996" lon="10.903994577768508"><ele>27.0</ele><time>2026-04-19T08:06:25Z</time></trkpt><trkpt lat="43.697446350370086" lon="10.90412058013538"><ele>27.0</ele><time>2026-04-19T08:06:26Z</time></trkpt><trkpt lat="43.697589850858904" lon="10.904246368760074"><ele>27.0</ele><time>2026-04-19T08:06:27Z</time></trkpt><trkpt lat="43.69773137466" lon="10.904371873850854"><ele>27.0</ele><time>2026-04-19T08:06:28Z</time></trkpt><trkpt lat="43.69787520715826" lon="10.90449884670695"><ele>27.0</ele><time>2026-04-19T08:06:29Z</time></trkpt><trkpt lat="43.69801923320787" lon="10.90462448170673"><ele>27.0</ele><time>2026-04-19T08:06:30Z</time></trkpt><trkpt lat="43.69816573393587" lon="10.904749823359616"><ele>27.0</ele><time>2026-04-19T08:06:31Z</time></trkpt><trkpt lat="43.69831129073811" lon="10.904873964038389"><ele>27.0</ele><time>2026-04-19T08:06:32Z</time></trkpt><trkpt lat="43.698458673276136" lon="10.905000335026484"><ele>27.0</ele><time>2026-04-19T08:06:33Z</time></trkpt><trkpt lat="43.69860632923851" lon="10.905122410873432"><ele>26.333333333333336</ele><time>2026-04-19T08:06:34Z</time></trkpt><trkpt lat="43.6987543110393" lon="10.905246953122425"><ele>25.666666666666668</ele><time>2026-04-19T08:06:35Z</time></trkpt><trkpt lat="43.698900467169416" lon="10.905374443802634"><ele>25.0</ele><time>2026-04-19T08:06:36Z</time></trkpt><trkpt lat="43.69904823986226" lon="10.905502466491342"><ele>25.0</ele><time>2026-04-19T08:06:37Z</time></trkpt><trkpt lat="43.69919732106635" lon="10.905626273201523"><ele>25.0</ele><time>2026-04-19T08:06:38Z</time></trkpt><trkpt lat="43.69934591820661" lon="10.905751429217451"><ele>25.0</ele><time>2026-04-19T08:06:39Z</time></trkpt><trkpt lat="43.69949454487581" lon="10.905877488360696"><ele>26.0</ele><time>2026-04-19T08:06:40Z</time></trkpt><trkpt lat="43.69964123750934" lon="10.906007055164192"><ele>27.0</ele><time>2026-04-19T08:06:41Z</time></trkpt><trkpt lat="43.699787846204345" lon="10.906133400957554"><ele>28.0</ele><time>2026-04-19T08:06:42Z</time></trkpt><trkpt lat="43.699934140232656" lon="10.906258143213458"><ele>28.0</ele><time>2026-04-19T08:06:43Z</time></trkpt><trkpt lat="43.7000769097458" lon="10.90638393484344"><ele>28.0</ele><time>2026-04-19T08:06:44Z</time></trkpt><trkpt lat="43.70022075445794" lon="10.906508521191288"><ele>28.0</ele><time>2026-04-19T08:06:45Z</time></trkpt><trkpt lat="43.700364094696056" lon="10.906633327444956"><ele>28.0</ele><time>2026-04-19T08:06:46Z</time></trkpt><trkpt lat="43.70050563996686" lon="10.906755746854621"><ele>28.0</ele><time>2026-04-19T08:06:47Z</time></trkpt><trkpt lat="43.700647506368355" lon="10.906878850855435"><ele>28.0</ele><time>2026-04-19T08:06:48Z</time></trkpt><trkpt lat="43.70079102903319" lon="10.90700485979629"><ele>28.0</ele><time>2026-04-19T08:06:49Z</time></trkpt><trkpt lat="43.70093393293544" lon="10.907130645438272"><ele>28.0</ele><time>2026-04-19T08:06:50Z</time></trkpt><trkpt lat="43.70107731613388" lon="10.907254831128476"><ele>28.0</ele><time>2026-04-19T08:06:51Z</time></trkpt><trkpt lat="43.70122032384874" lon="10.90737959299211"><ele>27.666666666666668</ele><time>2026-04-19T08:06:52Z</time></trkpt><trkpt lat="43.701361783963996" lon="10.907501534282694"><ele>27.333333333333336</ele><time>2026-04-19T08:06:53Z</time></trkpt><trkpt lat="43.701501423230546" lon="10.907625901037347"><ele>27.0</ele><time>2026-04-19T08:06:54Z</time></trkpt><trkpt lat="43.70164085530918" lon="10.90774855594863"><ele>27.0</ele><time>2026-04-19T08:06:55Z</time></trkpt><trkpt lat="43.70178107207275" lon="10.907870370297474"><ele>27.0</ele><time>2026-04-19T08:06:55.999Z</time></trkpt><trkpt lat="43.70192409075144" lon="10.907991625704689"><ele>27.0</ele><time>2026-04-19T08:06:56.999Z</time></trkpt><trkpt lat="43.70206638033287" lon="10.908111389053522"><ele>26.666666666666664</ele><time>2026-04-19T08:06:57.999Z</time></trkpt><trkpt lat="43.702205876798025" lon="10.908232476662008"><ele>26.333333333333332</ele><time>2026-04-19T08:06:58.999Z</time></trkpt><trkpt lat="43.70234644539017" lon="10.908355009038335"><ele>26.0</ele><time>2026-04-19T08:06:59.999Z</time></trkpt><trkpt lat="43.702489150800176" lon="10.908480196283517"><ele>25.333333333333332</ele><time>2026-04-19T08:07:00.999Z</time></trkpt><trkpt lat="43.70262943575891" lon="10.908603600100296"><ele>24.666666666666664</ele><time>2026-04-19T08:07:01.999Z</time></trkpt><trkpt lat="43.702770281695535" lon="10.908731409530903"><ele>24.0</ele><time>2026-04-19T08:07:02.999Z</time></trkpt><trkpt lat="43.70290885928563" lon="10.908865701669678"><ele>24.0</ele><time>2026-04-19T08:07:03.999Z</time></trkpt><trkpt lat="43.70304527215193" lon="10.909003354915287"><ele>24.0</ele><time>2026-04-19T08:07:04.999Z</time></trkpt><trkpt lat="43.70318292941365" lon="10.90914205158145"><ele>24.0</ele><time>2026-04-19T08:07:05.999Z</time></trkpt><trkpt lat="43.7033183396973" lon="10.909277488352908"><ele>24.333333333333336</ele><time>2026-04-19T08:07:06.999Z</time></trkpt><trkpt lat="43.70345229250973" lon="10.909414384590153"><ele>24.666666666666668</ele><time>2026-04-19T08:07:07.999Z</time></trkpt><trkpt lat="43.703583451234564" lon="10.909547193968512"><ele>25.0</ele><time>2026-04-19T08:07:08.999Z</time></trkpt><trkpt lat="43.70371611164591" lon="10.909678404184445"><ele>25.0</ele><time>2026-04-19T08:07:09.999Z</time></trkpt><trkpt lat="43.70384928059132" lon="10.909811302208766"><ele>25.0</ele><time>2026-04-19T08:07:10.999Z</time></trkpt><trkpt lat="43.703981160832576" lon="10.909942834245818"><ele>25.0</ele><time>2026-04-19T08:07:11.999Z</time></trkpt><trkpt lat="43.70411104065122" lon="10.91007280974698"><ele>25.0</ele><time>2026-04-19T08:07:12.999Z</time></trkpt><trkpt lat="43.704238086392344" lon="10.91020144356052"><ele>25.0</ele><time>2026-04-19T08:07:13.999Z</time></trkpt><trkpt lat="43.704364796882025" lon="10.910331125694073"><ele>25.0</ele><time>2026-04-19T08:07:14.999Z</time></trkpt><trkpt lat="43.70449216552071" lon="10.910458117590919"><ele>25.333333333333336</ele><time>2026-04-19T08:07:15.999Z</time></trkpt><trkpt lat="43.70462133683672" lon="10.910584048846781"><ele>25.666666666666664</ele><time>2026-04-19T08:07:16.999Z</time></trkpt><trkpt lat="43.70475122302937" lon="10.910709823713521"><ele>26.0</ele><time>2026-04-19T08:07:17.999Z</time></trkpt><trkpt lat="43.704883193727" lon="10.910842166157522"><ele>26.333333333333332</ele><time>2026-04-19T08:07:18.999Z</time></trkpt><trkpt lat="43.70501310187865" lon="10.910975409451183"><ele>26.666666666666664</ele><time>2026-04-19T08:07:19.999Z</time></trkpt><trkpt lat="43.70514087620222" lon="10.911103929501289"><ele>27.0</ele><time>2026-04-19T08:07:20.999Z</time></trkpt><trkpt lat="43.705267364993176" lon="10.911231546830734"><ele>26.0</ele><time>2026-04-19T08:07:21.999Z</time></trkpt><trkpt lat="43.70539291837298" lon="10.911358495719492"><ele>25.0</ele><time>2026-04-19T08:07:22.999Z</time></trkpt><trkpt lat="43.7055169712088" lon="10.911481905159356"><ele>24.0</ele><time>2026-04-19T08:07:23.999Z</time></trkpt><trkpt lat="43.7056319835609" lon="10.911595269927416"><ele>24.0</ele><time>2026-04-19T08:07:24.999Z</time></trkpt><trkpt lat="43.70574438296514" lon="10.911709561392612"><ele>24.0</ele><time>2026-04-19T08:07:25.999Z</time></trkpt><trkpt lat="43.705854672068455" lon="10.911816778600285"><ele>24.0</ele><time>2026-04-19T08:07:26.999Z</time></trkpt><trkpt lat="43.70596170095046" lon="10.911914790723559"><ele>24.0</ele><time>2026-04-19T08:07:27.999Z</time></trkpt><trkpt lat="43.706061714514505" lon="10.912007269853904"><ele>24.0</ele><time>2026-04-19T08:07:28.999Z</time></trkpt><trkpt lat="43.70615537055847" lon="10.912099267311858"><ele>24.0</ele><time>2026-04-19T08:07:29.999Z</time></trkpt><trkpt lat="43.7062424717455" lon="10.91218116839012"><ele>24.0</ele><time>2026-04-19T08:07:30.999Z</time></trkpt><trkpt lat="43.7063210784902" lon="10.912251115262581"><ele>24.0</ele><time>2026-04-19T08:07:31.999Z</time></trkpt><trkpt lat="43.70639134779175" lon="10.912312619749997"><ele>24.0</ele><time>2026-04-19T08:07:32.999Z</time></trkpt><trkpt lat="43.706456361313144" lon="10.912369934751121"><ele>24.0</ele><time>2026-04-19T08:07:33.999Z</time></trkpt><trkpt lat="43.70651904233691" lon="10.9124329547758"><ele>24.0</ele><time>2026-04-19T08:07:34.999Z</time></trkpt><trkpt lat="43.70656436150334" lon="10.912522958098561"><ele>24.0</ele><time>2026-04-19T08:07:35.999Z</time></trkpt><trkpt lat="43.70660062262236" lon="10.912625404038707"><ele>24.0</ele><time>2026-04-19T08:07:36.999Z</time></trkpt><trkpt lat="43.70664994679544" lon="10.912725978717033"><ele>24.0</ele><time>2026-04-19T08:07:37.999Z</time></trkpt><trkpt lat="43.70672158722985" lon="10.912807869053061"><ele>24.0</ele><time>2026-04-19T08:07:38.999Z</time></trkpt><trkpt lat="43.70680625324222" lon="10.912876341747364"><ele>24.0</ele><time>2026-04-19T08:07:39.999Z</time></trkpt><trkpt lat="43.70689571141302" lon="10.912920244577123"><ele>24.0</ele><time>2026-04-19T08:07:40.999Z</time></trkpt><trkpt lat="43.70698612307884" lon="10.91295428050806"><ele>24.0</ele><time>2026-04-19T08:07:41.999Z</time></trkpt><trkpt lat="43.707069567972695" lon="10.912999829458169"><ele>24.0</ele><time>2026-04-19T08:07:42.999Z</time></trkpt><trkpt lat="43.70714001242044" lon="10.913070689083375"><ele>24.0</ele><time>2026-04-19T08:07:43.999Z</time></trkpt><trkpt lat="43.707202782667295" lon="10.91315153714455"><ele>24.0</ele><time>2026-04-19T08:07:44.998Z</time></trkpt><trkpt lat="43.7072725735484" lon="10.91323364330388"><ele>24.0</ele><time>2026-04-19T08:07:45.998Z</time></trkpt><trkpt lat="43.70734640505796" lon="10.913314882649882"><ele>24.0</ele><time>2026-04-19T08:07:46.998Z</time></trkpt><trkpt lat="43.7074221375699" lon="10.913390327946844"><ele>24.0</ele><time>2026-04-19T08:07:47.998Z</time></trkpt><trkpt lat="43.70749849335668" lon="10.913465695622211"><ele>24.0</ele><time>2026-04-19T08:07:48.998Z</time></trkpt><trkpt lat="43.70757130070399" lon="10.913534440476761"><ele>24.0</ele><time>2026-04-19T08:07:49.998Z</time></trkpt><trkpt lat="43.70764359751679" lon="10.913607812165516"><ele>24.0</ele><time>2026-04-19T08:07:50.998Z</time></trkpt><trkpt lat="43.70771840378658" lon="10.91368372469361"><ele>24.0</ele><time>2026-04-19T08:07:51.998Z</time></trkpt><trkpt lat="43.70779661212462" lon="10.913762238150573"><ele>24.0</ele><time>2026-04-19T08:07:52.997Z</time></trkpt><trkpt lat="43.70787832624263" lon="10.91384180231103"><ele>24.0</ele><time>2026-04-19T08:07:53.997Z</time></trkpt><trkpt lat="43.707965647142615" lon="10.913929249945623"><ele>24.25</ele><time>2026-04-19T08:07:54.997Z</time></trkpt><trkpt lat="43.708063253571126" lon="10.914029833794459"><ele>24.5</ele><time>2026-04-19T08:07:55.997Z</time></trkpt><trkpt lat="43.70816022595293" lon="10.914131308944716"><ele>24.75</ele><time>2026-04-19T08:07:56.997Z</time></trkpt><trkpt lat="43.70825856084203" lon="10.914230538207358"><ele>25.0</ele><time>2026-04-19T08:07:57.997Z</time></trkpt><trkpt lat="43.708360232379924" lon="10.914334209444352"><ele>25.0</ele><time>2026-04-19T08:07:58.997Z</time></trkpt><trkpt lat="43.70845889975836" lon="10.91443615397923"><ele>25.0</ele><time>2026-04-19T08:07:59.997Z</time></trkpt><trkpt lat="43.70855686475348" lon="10.914535105264553"><ele>25.0</ele><time>2026-04-19T08:08:00.997Z</time></trkpt><trkpt lat="43.70865800254305" lon="10.914637240541373"><ele>25.0</ele><time>2026-04-19T08:08:01.997Z</time></trkpt><trkpt lat="43.70875980696659" lon="10.914738540728079"><ele>25.0</ele><time>2026-04-19T08:08:02.997Z</time></trkpt><trkpt lat="43.70886022861791" lon="10.914837810059998"><ele>25.0</ele><time>2026-04-19T08:08:03.997Z</time></trkpt><trkpt lat="43.70895907518804" lon="10.914936008615147"><ele>25.0</ele><time>2026-04-19T08:08:04.997Z</time></trkpt><trkpt lat="43.709055807707784" lon="10.915033687327325"><ele>25.0</ele><time>2026-04-19T08:08:05.997Z</time></trkpt><trkpt lat="43.70915074884331" lon="10.915130055139757"><ele>25.0</ele><time>2026-04-19T08:08:06.999Z</time></trkpt><trkpt lat="43.70924270804773" lon="10.91522098373261"><ele>25.0</ele><time>2026-04-19T08:08:07.999Z</time></trkpt><trkpt lat="43.709335718879714" lon="10.915311116391115"><ele>25.0</ele><time>2026-04-19T08:08:08.999Z</time></trkpt><trkpt lat="43.70943002560254" lon="10.915404787146032"><ele>25.0</ele><time>2026-04-19T08:08:09.999Z</time></trkpt><trkpt lat="43.70952070623185" lon="10.915497024652051"><ele>24.5</ele><time>2026-04-19T08:08:10.999Z</time></trkpt><trkpt lat="43.70961380372227" lon="10.915591771794782"><ele>24.0</ele><time>2026-04-19T08:08:11.999Z</time></trkpt><trkpt lat="43.709711245474885" lon="10.915690041605842"><ele>23.5</ele><time>2026-04-19T08:08:12.999Z</time></trkpt><trkpt lat="43.709815544610805" lon="10.915789408459196"><ele>23.0</ele><time>2026-04-19T08:08:14Z</time></trkpt><trkpt lat="43.709926595229426" lon="10.915883965226529"><ele>23.0</ele><time>2026-04-19T08:08:14.999Z</time></trkpt><trkpt lat="43.710040941725715" lon="10.915966851782331"><ele>23.0</ele><time>2026-04-19T08:08:15.999Z</time></trkpt><trkpt lat="43.710158531836335" lon="10.916033380506681"><ele>23.0</ele><time>2026-04-19T08:08:17Z</time></trkpt><trkpt lat="43.71027132773841" lon="10.916090470911719"><ele>23.0</ele><time>2026-04-19T08:08:17.999Z</time></trkpt><trkpt lat="43.71037708573254" lon="10.916131966885164"><ele>23.0</ele><time>2026-04-19T08:08:19Z</time></trkpt><trkpt lat="43.71048769223571" lon="10.91616925315097"><ele>23.0</ele><time>2026-04-19T08:08:20Z</time></trkpt><trkpt lat="43.71060390399051" lon="10.916195321545434"><ele>23.0</ele><time>2026-04-19T08:08:20.999Z</time></trkpt><trkpt lat="43.710721310892644" lon="10.916207583839194"><ele>23.0</ele><time>2026-04-19T08:08:21.999Z</time></trkpt><trkpt lat="43.71083971561954" lon="10.916207797468614"><ele>23.0</ele><time>2026-04-19T08:08:22.999Z</time></trkpt><trkpt lat="43.71096226405133" lon="10.916194009882666"><ele>23.0</ele><time>2026-04-19T08:08:23.999Z</time></trkpt><trkpt lat="43.71108766985931" lon="10.91616277875955"><ele>23.0</ele><time>2026-04-19T08:08:24.999Z</time></trkpt><trkpt lat="43.71121861162073" lon="10.916139730434761"><ele>23.0</ele><time>2026-04-19T08:08:25.999Z</time></trkpt><trkpt lat="43.711340744753166" lon="10.916066090089307"><ele>22.75</ele><time>2026-04-19T08:08:26.999Z</time></trkpt><trkpt lat="43.71146662291632" lon="10.916011590379117"><ele>22.5</ele><time>2026-04-19T08:08:27.999Z</time></trkpt><trkpt lat="43.71159844731056" lon="10.915950324345152"><ele>22.25</ele><time>2026-04-19T08:08:28.999Z</time></trkpt><trkpt lat="43.71173214296092" lon="10.915889425216633"><ele>22.0</ele><time>2026-04-19T08:08:29.999Z</time></trkpt><trkpt lat="43.71186889885304" lon="10.915830708000177"><ele>22.5</ele><time>2026-04-19T08:08:30.999Z</time></trkpt><trkpt lat="43.712008215499864" lon="10.915787316786611"><ele>23.0</ele><time>2026-04-19T08:08:31.999Z</time></trkpt><trkpt lat="43.712155206154335" lon="10.915754106474663"><ele>23.5</ele><time>2026-04-19T08:08:32.999Z</time></trkpt><trkpt lat="43.71228193766408" lon="10.915729750281944"><ele>24.0</ele><time>2026-04-19T08:08:33.999Z</time></trkpt><trkpt lat="43.712415939620676" lon="10.915733730535841"><ele>24.0</ele><time>2026-04-19T08:08:34.999Z</time></trkpt><trkpt lat="43.712544425662784" lon="10.91575338783742"><ele>24.0</ele><time>2026-04-19T08:08:35.999Z</time></trkpt><trkpt lat="43.71267093813205" lon="10.915790395283569"><ele>24.0</ele><time>2026-04-19T08:08:36.999Z</time></trkpt><trkpt lat="43.71279791077629" lon="10.915843176908927"><ele>24.0</ele><time>2026-04-19T08:08:37.999Z</time></trkpt><trkpt lat="43.712919137434604" lon="10.915908242779825"><ele>23.75</ele><time>2026-04-19T08:08:38.999Z</time></trkpt><trkpt lat="43.71304044651386" lon="10.915992558527963"><ele>23.5</ele><time>2026-04-19T08:08:39.999Z</time></trkpt><trkpt lat="43.71316516499251" lon="10.916091863289207"><ele>23.25</ele><time>2026-04-19T08:08:40.999Z</time></trkpt><trkpt lat="43.71330392251431" lon="10.916207654881434"><ele>23.0</ele><time>2026-04-19T08:08:41.999Z</time></trkpt><trkpt lat="43.713442730430046" lon="10.91636096758792"><ele>23.0</ele><time>2026-04-19T08:08:42.999Z</time></trkpt><trkpt lat="43.71360106838276" lon="10.91651946320924"><ele>23.0</ele><time>2026-04-19T08:08:43.999Z</time></trkpt><trkpt lat="43.713771606274086" lon="10.91667116945291"><ele>23.0</ele><time>2026-04-19T08:08:44.999Z</time></trkpt><trkpt lat="43.71392936257943" lon="10.91684303496919"><ele>23.0</ele><time>2026-04-19T08:08:45.999Z</time></trkpt><trkpt lat="43.71408655255253" lon="10.917009981984853"><ele>23.0</ele><time>2026-04-19T08:08:46.999Z</time></trkpt><trkpt lat="43.71423555115839" lon="10.917155676640917"><ele>23.0</ele><time>2026-04-19T08:08:47.999Z</time></trkpt><trkpt lat="43.71437615753376" lon="10.917295270623452"><ele>23.0</ele><time>2026-04-19T08:08:48.999Z</time></trkpt><trkpt lat="43.714506401888244" lon="10.917436425125066"><ele>23.0</ele><time>2026-04-19T08:08:49.999Z</time></trkpt><trkpt lat="43.71463057213172" lon="10.917588413014153"><ele>23.0</ele><time>2026-04-19T08:08:50.999Z</time></trkpt><trkpt lat="43.71474423445663" lon="10.91775507548885"><ele>23.0</ele><time>2026-04-19T08:08:51.999Z</time></trkpt><trkpt lat="43.71484351476119" lon="10.91793338035721"><ele>23.0</ele><time>2026-04-19T08:08:52.999Z</time></trkpt><trkpt lat="43.71492671932904" lon="10.918124363087358"><ele>23.0</ele><time>2026-04-19T08:08:53.999Z</time></trkpt><trkpt lat="43.714991449516226" lon="10.918329377322253"><ele>22.666666666666668</ele><time>2026-04-19T08:08:54.999Z</time></trkpt><trkpt lat="43.71503778122779" lon="10.918539840406154"><ele>22.333333333333332</ele><time>2026-04-19T08:08:55.999Z</time></trkpt><trkpt lat="43.715065207990804" lon="10.918758214105118"><ele>22.0</ele><time>2026-04-19T08:08:56.999Z</time></trkpt><trkpt lat="43.71507591515895" lon="10.918975081851249"><ele>22.0</ele><time>2026-04-19T08:08:57.999Z</time></trkpt><trkpt lat="43.71506822032952" lon="10.919186389399524"><ele>22.0</ele><time>2026-04-19T08:08:58.999Z</time></trkpt><trkpt lat="43.71504587286689" lon="10.919392059486741"><ele>22.0</ele><time>2026-04-19T08:08:59.999Z</time></trkpt><trkpt lat="43.71500463059704" lon="10.919574683264356"><ele>22.0</ele><time>2026-04-19T08:09:00.999Z</time></trkpt><trkpt lat="43.71495709780924" lon="10.919735458859115"><ele>22.200000000000003</ele><time>2026-04-19T08:09:01.999Z</time></trkpt><trkpt lat="43.7149064760252" lon="10.919876408054733"><ele>22.4</ele><time>2026-04-19T08:09:02.999Z</time></trkpt><trkpt lat="43.71485428960309" lon="10.919992637771553"><ele>22.6</ele><time>2026-04-19T08:09:03.999Z</time></trkpt><trkpt lat="43.71480617806896" lon="10.920090203965135"><ele>22.799999999999997</ele><time>2026-04-19T08:09:04.999Z</time></trkpt><trkpt lat="43.714765791800836" lon="10.920164356540512"><ele>23.0</ele><time>2026-04-19T08:09:05.999Z</time></trkpt><trkpt lat="43.71470854601039" lon="10.920256426894058"><ele>23.2</ele><time>2026-04-19T08:09:07.999Z</time></trkpt><trkpt lat="43.714648934898214" lon="10.920315712853926"><ele>23.4</ele><time>2026-04-19T08:09:09.999Z</time></trkpt><trkpt lat="43.71453151242887" lon="10.920376542710327"><ele>23.599999999999998</ele><time>2026-04-19T08:09:11.998Z</time></trkpt><trkpt lat="43.71441089936278" lon="10.920431044253444"><ele>23.799999999999997</ele><time>2026-04-19T08:09:13.998Z</time></trkpt><trkpt lat="43.71435031694691" lon="10.920486377950485"><ele>24.0</ele><time>2026-04-19T08:09:14.998Z</time></trkpt><trkpt lat="43.7143012006884" lon="10.920566970913796"><ele>24.0</ele><time>2026-04-19T08:09:15.998Z</time></trkpt><trkpt lat="43.7142703701551" lon="10.920671286371057"><ele>24.0</ele><time>2026-04-19T08:09:16.998Z</time></trkpt><trkpt lat="43.71426486950069" lon="10.920775298284175"><ele>24.0</ele><time>2026-04-19T08:09:17.998Z</time></trkpt><trkpt lat="43.714286676025" lon="10.920878548008154"><ele>24.0</ele><time>2026-04-19T08:09:18.998Z</time></trkpt><trkpt lat="43.71432908621889" lon="10.920975083314318"><ele>24.0</ele><time>2026-04-19T08:09:19.998Z</time></trkpt><trkpt lat="43.714406072035466" lon="10.92104582692123"><ele>24.0</ele><time>2026-04-19T08:09:20.998Z</time></trkpt><trkpt lat="43.71449767333877" lon="10.921077579451357"><ele>24.0</ele><time>2026-04-19T08:09:21.998Z</time></trkpt><trkpt lat="43.71460111215511" lon="10.921066816138776"><ele>24.0</ele><time>2026-04-19T08:09:22.998Z</time></trkpt><trkpt lat="43.71471124669032" lon="10.921026844654179"><ele>24.0</ele><time>2026-04-19T08:09:23.998Z</time></trkpt><trkpt lat="43.71482212563235" lon="10.921000927699138"><ele>24.0</ele><time>2026-04-19T08:09:24.998Z</time></trkpt><trkpt lat="43.71492979864588" lon="10.921017121595515"><ele>24.0</ele><time>2026-04-19T08:09:25.998Z</time></trkpt><trkpt lat="43.71503186109614" lon="10.921062273445072"><ele>24.0</ele><time>2026-04-19T08:09:26.998Z</time></trkpt><trkpt lat="43.71513425207505" lon="10.921135120898372"><ele>24.0</ele><time>2026-04-19T08:09:27.998Z</time></trkpt><trkpt lat="43.715222223692024" lon="10.921222978891604"><ele>24.0</ele><time>2026-04-19T08:09:28.998Z</time></trkpt><trkpt lat="43.71530267194816" lon="10.921311120195837"><ele>24.0</ele><time>2026-04-19T08:09:29.998Z</time></trkpt><trkpt lat="43.71537995015115" lon="10.9213962033564"><ele>24.0</ele><time>2026-04-19T08:09:30.998Z</time></trkpt><trkpt lat="43.71545718688188" lon="10.921474852533287"><ele>24.0</ele><time>2026-04-19T08:09:31.998Z</time></trkpt><trkpt lat="43.71553309607367" lon="10.921549285498246"><ele>24.0</ele><time>2026-04-19T08:09:32.998Z</time></trkpt><trkpt lat="43.715605372522504" lon="10.921623068806076"><ele>24.0</ele><time>2026-04-19T08:09:33.998Z</time></trkpt><trkpt lat="43.715674649336634" lon="10.921683538985471"><ele>24.0</ele><time>2026-04-19T08:09:34.998Z</time></trkpt><trkpt lat="43.715735580295906" lon="10.921740561439726"><ele>24.0</ele><time>2026-04-19T08:09:35.998Z</time></trkpt><trkpt lat="43.71578308451186" lon="10.921807845553358"><ele>24.0</ele><time>2026-04-19T08:09:36.998Z</time></trkpt><trkpt lat="43.71582699189059" lon="10.921898964012517"><ele>24.0</ele><time>2026-04-19T08:09:37.998Z</time></trkpt><trkpt lat="43.71587486093678" lon="10.92199633903767"><ele>24.0</ele><time>2026-04-19T08:09:38.998Z</time></trkpt><trkpt lat="43.71594334962989" lon="10.922076930596257"><ele>24.0</ele><time>2026-04-19T08:09:39.998Z</time></trkpt><trkpt lat="43.71602868106576" lon="10.922135737403238"><ele>24.0</ele><time>2026-04-19T08:09:40.998Z</time></trkpt><trkpt lat="43.71612938839687" lon="10.922172175334282"><ele>24.0</ele><time>2026-04-19T08:09:41.998Z</time></trkpt><trkpt lat="43.716224818990305" lon="10.922227709869688"><ele>23.799999999999997</ele><time>2026-04-19T08:09:42.998Z</time></trkpt><trkpt lat="43.71631075131459" lon="10.922315123052353"><ele>23.599999999999998</ele><time>2026-04-19T08:09:43.998Z</time></trkpt><trkpt lat="43.7163954525129" lon="10.922399558139931"><ele>23.4</ele><time>2026-04-19T08:09:44.998Z</time></trkpt><trkpt lat="43.71647685735393" lon="10.922471367314204"><ele>23.2</ele><time>2026-04-19T08:09:45.998Z</time></trkpt><trkpt lat="43.71655953317828" lon="10.92253534798918"><ele>23.0</ele><time>2026-04-19T08:09:46.998Z</time></trkpt><trkpt lat="43.71664369314182" lon="10.92259488491466"><ele>23.0</ele><time>2026-04-19T08:09:47.998Z</time></trkpt><trkpt lat="43.71673062412061" lon="10.922654467826822"><ele>23.0</ele><time>2026-04-19T08:09:48.998Z</time></trkpt><trkpt lat="43.716819346680325" lon="10.922713087767766"><ele>23.0</ele><time>2026-04-19T08:09:49.998Z</time></trkpt><trkpt lat="43.71690401008114" lon="10.922765813836461"><ele>23.0</ele><time>2026-04-19T08:09:50.998Z</time></trkpt><trkpt lat="43.71698118933736" lon="10.922806963630144"><ele>23.0</ele><time>2026-04-19T08:09:51.998Z</time></trkpt><trkpt lat="43.717051140215204" lon="10.922846181417277"><ele>23.0</ele><time>2026-04-19T08:09:52.998Z</time></trkpt><trkpt lat="43.71711543185995" lon="10.922882572654403"><ele>23.166666666666668</ele><time>2026-04-19T08:09:53.998Z</time></trkpt><trkpt lat="43.71717485335604" lon="10.922919612403145"><ele>23.333333333333336</ele><time>2026-04-19T08:09:54.998Z</time></trkpt><trkpt lat="43.71724650995584" lon="10.92297159381847"><ele>23.5</ele><time>2026-04-19T08:09:55.998Z</time></trkpt><trkpt lat="43.71731954096731" lon="10.923045914208382"><ele>23.666666666666668</ele><time>2026-04-19T08:09:56.998Z</time></trkpt><trkpt lat="43.71738618583198" lon="10.923137490081752"><ele>23.833333333333332</ele><time>2026-04-19T08:09:57.998Z</time></trkpt><trkpt lat="43.71745011634921" lon="10.923239525551063"><ele>24.0</ele><time>2026-04-19T08:09:58.998Z</time></trkpt><trkpt lat="43.717504540555076" lon="10.92335362198805"><ele>24.25</ele><time>2026-04-19T08:09:59.997Z</time></trkpt><trkpt lat="43.71754767327215" lon="10.923480501275261"><ele>24.5</ele><time>2026-04-19T08:10:00.997Z</time></trkpt><trkpt lat="43.71758508418443" lon="10.923620627492042"><ele>24.75</ele><time>2026-04-19T08:10:01.997Z</time></trkpt><trkpt lat="43.717627222928165" lon="10.923775925122504"><ele>25.0</ele><time>2026-04-19T08:10:02.997Z</time></trkpt><trkpt lat="43.71767426500071" lon="10.923935410196817"><ele>25.0</ele><time>2026-04-19T08:10:03.997Z</time></trkpt><trkpt lat="43.717723197288684" lon="10.924099621307002"><ele>25.0</ele><time>2026-04-19T08:10:04.997Z</time></trkpt><trkpt lat="43.71777502979782" lon="10.924270328540556"><ele>25.0</ele><time>2026-04-19T08:10:05.997Z</time></trkpt><trkpt lat="43.71783394590328" lon="10.924442322197605"><ele>25.0</ele><time>2026-04-19T08:10:06.997Z</time></trkpt><trkpt lat="43.71790788735411" lon="10.924608496873363"><ele>25.0</ele><time>2026-04-19T08:10:07.997Z</time></trkpt><trkpt lat="43.71798533788052" lon="10.924765105199702"><ele>25.0</ele><time>2026-04-19T08:10:08.997Z</time></trkpt><trkpt lat="43.718049009245924" lon="10.924929661771184"><ele>25.0</ele><time>2026-04-19T08:10:09.997Z</time></trkpt><trkpt lat="43.71809862664664" lon="10.92510102036958"><ele>25.0</ele><time>2026-04-19T08:10:10.997Z</time></trkpt><trkpt lat="43.718145767545636" lon="10.925272822149589"><ele>25.0</ele><time>2026-04-19T08:10:11.997Z</time></trkpt><trkpt lat="43.718190505583635" lon="10.9254351995881"><ele>25.0</ele><time>2026-04-19T08:10:13Z</time></trkpt><trkpt lat="43.718234388173" lon="10.925580725488123"><ele>25.0</ele><time>2026-04-19T08:10:14Z</time></trkpt><trkpt lat="43.71827262425136" lon="10.925700863628018"><ele>25.0</ele><time>2026-04-19T08:10:15Z</time></trkpt><trkpt lat="43.718305795433444" lon="10.925801640101442"><ele>25.0</ele><time>2026-04-19T08:10:16Z</time></trkpt><trkpt lat="43.71833782736849" lon="10.925903994391339"><ele>25.0</ele><time>2026-04-19T08:10:17Z</time></trkpt><trkpt lat="43.718376414528976" lon="10.926016300965957"><ele>25.0</ele><time>2026-04-19T08:10:18Z</time></trkpt><trkpt lat="43.71842102890176" lon="10.926143047652596"><ele>25.0</ele><time>2026-04-19T08:10:19Z</time></trkpt><trkpt lat="43.71847334641149" lon="10.926289321911627"><ele>25.0</ele><time>2026-04-19T08:10:20Z</time></trkpt><trkpt lat="43.718529619633706" lon="10.926438385081955"><ele>25.0</ele><time>2026-04-19T08:10:21Z</time></trkpt><trkpt lat="43.71857877956997" lon="10.92659401574641"><ele>25.0</ele><time>2026-04-19T08:10:22Z</time></trkpt><trkpt lat="43.71863065213285" lon="10.92674640389756"><ele>25.0</ele><time>2026-04-19T08:10:23Z</time></trkpt><trkpt lat="43.71868605705471" lon="10.926896371363148"><ele>25.0</ele><time>2026-04-19T08:10:24Z</time></trkpt><trkpt lat="43.71874565784718" lon="10.927041830669049"><ele>25.0</ele><time>2026-04-19T08:10:25Z</time></trkpt><trkpt lat="43.718803987870935" lon="10.927185294372837"><ele>25.0</ele><time>2026-04-19T08:10:26Z</time></trkpt><trkpt lat="43.71885834398044" lon="10.927329009068833"><ele>25.0</ele><time>2026-04-19T08:10:27Z</time></trkpt><trkpt lat="43.71891244844611" lon="10.92747078436418"><ele>25.0</ele><time>2026-04-19T08:10:28Z</time></trkpt><trkpt lat="43.718966659965425" lon="10.927610205621574"><ele>25.0</ele><time>2026-04-19T08:10:29Z</time></trkpt><trkpt lat="43.719018345847466" lon="10.927747325135254"><ele>25.0</ele><time>2026-04-19T08:10:30Z</time></trkpt><trkpt lat="43.71906771522925" lon="10.927883702096711"><ele>25.0</ele><time>2026-04-19T08:10:31Z</time></trkpt><trkpt lat="43.719116245829426" lon="10.928015919884574"><ele>25.0</ele><time>2026-04-19T08:10:32Z</time></trkpt><trkpt lat="43.719162742329225" lon="10.928142700880308"><ele>25.0</ele><time>2026-04-19T08:10:33Z</time></trkpt><trkpt lat="43.71920975662232" lon="10.92826598408138"><ele>25.0</ele><time>2026-04-19T08:10:34Z</time></trkpt><trkpt lat="43.719257592806116" lon="10.92838456230991"><ele>25.0</ele><time>2026-04-19T08:10:35Z</time></trkpt><trkpt lat="43.71930453849238" lon="10.928499798543942"><ele>25.0</ele><time>2026-04-19T08:10:35.999Z</time></trkpt><trkpt lat="43.719344245168244" lon="10.928613380342819"><ele>25.0</ele><time>2026-04-19T08:10:36.999Z</time></trkpt><trkpt lat="43.719382235805135" lon="10.928722415496908"><ele>25.0</ele><time>2026-04-19T08:10:37.999Z</time></trkpt><trkpt lat="43.719425873536764" lon="10.928826912820576"><ele>25.0</ele><time>2026-04-19T08:10:38.999Z</time></trkpt><trkpt lat="43.71946999651415" lon="10.9289329395758"><ele>24.833333333333336</ele><time>2026-04-19T08:10:39.999Z</time></trkpt><trkpt lat="43.71951498426495" lon="10.92904236994655"><ele>24.666666666666668</ele><time>2026-04-19T08:10:40.999Z</time></trkpt><trkpt lat="43.71955748681082" lon="10.929154383998515"><ele>24.5</ele><time>2026-04-19T08:10:41.999Z</time></trkpt><trkpt lat="43.71959788905177" lon="10.929259014745547"><ele>24.333333333333336</ele><time>2026-04-19T08:10:42.999Z</time></trkpt><trkpt lat="43.71963849439128" lon="10.929357182822125"><ele>24.166666666666668</ele><time>2026-04-19T08:10:43.999Z</time></trkpt><trkpt lat="43.71968257052215" lon="10.929456292917838"><ele>24.0</ele><time>2026-04-19T08:10:44.999Z</time></trkpt><trkpt lat="43.719723597818984" lon="10.929557379271227"><ele>24.0</ele><time>2026-04-19T08:10:45.999Z</time></trkpt><trkpt lat="43.71975801158015" lon="10.929666259613022"><ele>24.0</ele><time>2026-04-19T08:10:46.999Z</time></trkpt><trkpt lat="43.71979339893757" lon="10.92977728055258"><ele>24.0</ele><time>2026-04-19T08:10:47.999Z</time></trkpt><trkpt lat="43.719829467539526" lon="10.929885442530367"><ele>24.0</ele><time>2026-04-19T08:10:48.999Z</time></trkpt><trkpt lat="43.71986304449382" lon="10.929990694063642"><ele>24.0</ele><time>2026-04-19T08:10:49.999Z</time></trkpt><trkpt lat="43.7198944918692" lon="10.930086240609173"><ele>24.0</ele><time>2026-04-19T08:10:50.999Z</time></trkpt><trkpt lat="43.71992496612546" lon="10.93017871001366"><ele>24.166666666666668</ele><time>2026-04-19T08:10:51.999Z</time></trkpt><trkpt lat="43.71995458458666" lon="10.930278681853546"><ele>24.333333333333336</ele><time>2026-04-19T08:10:52.999Z</time></trkpt><trkpt lat="43.71998410333923" lon="10.930392942853281"><ele>24.5</ele><time>2026-04-19T08:10:53.999Z</time></trkpt><trkpt lat="43.7200094531647" lon="10.930514277347086"><ele>24.666666666666668</ele><time>2026-04-19T08:10:54.999Z</time></trkpt><trkpt lat="43.72002969689567" lon="10.930639489361386"><ele>24.833333333333336</ele><time>2026-04-19T08:10:55.999Z</time></trkpt><trkpt lat="43.7200462511154" lon="10.930751777087062"><ele>25.0</ele><time>2026-04-19T08:10:56.999Z</time></trkpt><trkpt lat="43.720064534316876" lon="10.930871887436021"><ele>25.0</ele><time>2026-04-19T08:10:57.999Z</time></trkpt><trkpt lat="43.72008195764653" lon="10.930994576109507"><ele>25.0</ele><time>2026-04-19T08:10:58.999Z</time></trkpt><trkpt lat="43.72009507694736" lon="10.931120486182477"><ele>25.0</ele><time>2026-04-19T08:10:59.999Z</time></trkpt><trkpt lat="43.720102207282785" lon="10.931248647591742"><ele>25.0</ele><time>2026-04-19T08:11:00.999Z</time></trkpt><trkpt lat="43.720103768602286" lon="10.931374630509021"><ele>25.0</ele><time>2026-04-19T08:11:01.999Z</time></trkpt><trkpt lat="43.72010384344296" lon="10.931495261580897"><ele>25.000000000000004</ele><time>2026-04-19T08:11:02.999Z</time></trkpt><trkpt lat="43.72010286103578" lon="10.931610423896084"><ele>25.0</ele><time>2026-04-19T08:11:03.999Z</time></trkpt><trkpt lat="43.72009896547258" lon="10.931722381635648"><ele>25.0</ele><time>2026-04-19T08:11:04.999Z</time></trkpt><trkpt lat="43.72009326054977" lon="10.931831193833428"><ele>25.0</ele><time>2026-04-19T08:11:05.999Z</time></trkpt><trkpt lat="43.720087747730524" lon="10.931939527324783"><ele>25.000000000000004</ele><time>2026-04-19T08:11:06.999Z</time></trkpt><trkpt lat="43.72008439747411" lon="10.932047512280782"><ele>25.0</ele><time>2026-04-19T08:11:07.999Z</time></trkpt><trkpt lat="43.72008097395697" lon="10.93215702214862"><ele>25.166666666666668</ele><time>2026-04-19T08:11:08.999Z</time></trkpt><trkpt lat="43.720075691356705" lon="10.932265382102498"><ele>25.333333333333336</ele><time>2026-04-19T08:11:09.999Z</time></trkpt><trkpt lat="43.72007082981342" lon="10.93238085339566"><ele>25.5</ele><time>2026-04-19T08:11:10.999Z</time></trkpt><trkpt lat="43.720065611678855" lon="10.9325003286701"><ele>25.666666666666664</ele><time>2026-04-19T08:11:11.999Z</time></trkpt><trkpt lat="43.720061757521464" lon="10.932624767814517"><ele>25.833333333333332</ele><time>2026-04-19T08:11:12.999Z</time></trkpt><trkpt lat="43.720059929459694" lon="10.93275486665697"><ele>26.0</ele><time>2026-04-19T08:11:13.999Z</time></trkpt><trkpt lat="43.720055161045295" lon="10.932887018152954"><ele>26.200000000000003</ele><time>2026-04-19T08:11:14.999Z</time></trkpt><trkpt lat="43.72004950928484" lon="10.933015018498367"><ele>26.400000000000002</ele><time>2026-04-19T08:11:15.999Z</time></trkpt><trkpt lat="43.72004415700939" lon="10.933145097937885"><ele>26.6</ele><time>2026-04-19T08:11:16.999Z</time></trkpt><trkpt lat="43.72003847025535" lon="10.933271776979598"><ele>26.8</ele><time>2026-04-19T08:11:17.999Z</time></trkpt><trkpt lat="43.72003269061614" lon="10.933397697143766"><ele>27.0</ele><time>2026-04-19T08:11:18.999Z</time></trkpt><trkpt lat="43.720027053573155" lon="10.933523921531085"><ele>27.0</ele><time>2026-04-19T08:11:19.999Z</time></trkpt><trkpt lat="43.720022919781826" lon="10.933647878371783"><ele>27.0</ele><time>2026-04-19T08:11:20.999Z</time></trkpt><trkpt lat="43.72001854988426" lon="10.933768815542424"><ele>27.0</ele><time>2026-04-19T08:11:21.999Z</time></trkpt><trkpt lat="43.720015713437455" lon="10.933888548020214"><ele>27.0</ele><time>2026-04-19T08:11:22.999Z</time></trkpt><trkpt lat="43.72001192862842" lon="10.934010753426938"><ele>27.0</ele><time>2026-04-19T08:11:23.999Z</time></trkpt><trkpt lat="43.72000733934298" lon="10.934137805494256"><ele>27.0</ele><time>2026-04-19T08:11:24.999Z</time></trkpt><trkpt lat="43.72000174349389" lon="10.93427116941299"><ele>26.833333333333332</ele><time>2026-04-19T08:11:25.999Z</time></trkpt><trkpt lat="43.71999700708385" lon="10.934406870874577"><ele>26.666666666666664</ele><time>2026-04-19T08:11:26.998Z</time></trkpt><trkpt lat="43.71998987813839" lon="10.934539730268769"><ele>26.5</ele><time>2026-04-19T08:11:27.998Z</time></trkpt><trkpt lat="43.719985290026685" lon="10.934662939120487"><ele>26.333333333333332</ele><time>2026-04-19T08:11:28.998Z</time></trkpt><trkpt lat="43.71998099384025" lon="10.934773680667872"><ele>26.166666666666664</ele><time>2026-04-19T08:11:29.998Z</time></trkpt><trkpt lat="43.71997826221177" lon="10.934871874611593"><ele>26.0</ele><time>2026-04-19T08:11:30.998Z</time></trkpt><trkpt lat="43.71997585616485" lon="10.934960875989088"><ele>26.0</ele><time>2026-04-19T08:11:31.998Z</time></trkpt><trkpt lat="43.71997217252223" lon="10.935115225331668"><ele>26.0</ele><time>2026-04-19T08:11:33.998Z</time></trkpt><trkpt lat="43.71996636074746" lon="10.93523115600741"><ele>26.0</ele><time>2026-04-19T08:11:35.998Z</time></trkpt><trkpt lat="43.71997078334482" lon="10.9353250229113"><ele>26.0</ele><time>2026-04-19T08:12:17.997Z</time></trkpt><trkpt lat="43.71996575012065" lon="10.935434582979957"><ele>26.0</ele><time>2026-04-19T08:12:20Z</time></trkpt><trkpt lat="43.719946290438585" lon="10.93560894432417"><ele>25.999999999999996</ele><time>2026-04-19T08:12:22Z</time></trkpt><trkpt lat="43.719941894019364" lon="10.935711386583352"><ele>26.0</ele><time>2026-04-19T08:12:23Z</time></trkpt><trkpt lat="43.71993708086401" lon="10.935823539003179"><ele>26.0</ele><time>2026-04-19T08:12:24Z</time></trkpt><trkpt lat="43.719987765372196" lon="10.935954552464867"><ele>26.0</ele><time>2026-04-19T08:12:25Z</time></trkpt><trkpt lat="43.72003324447442" lon="10.936056303130805"><ele>25.999999999999996</ele><time>2026-04-19T08:12:26Z</time></trkpt><trkpt lat="43.720065508575125" lon="10.936169173188132"><ele>26.0</ele><time>2026-04-19T08:12:27Z</time></trkpt><trkpt lat="43.72010561906941" lon="10.93628415243635"><ele>26.0</ele><time>2026-04-19T08:12:28Z</time></trkpt><trkpt lat="43.72016353993722" lon="10.936395083795546"><ele>26.0</ele><time>2026-04-19T08:12:29Z</time></trkpt><trkpt lat="43.720216143131324" lon="10.936496721813384"><ele>26.0</ele><time>2026-04-19T08:12:30Z</time></trkpt><trkpt lat="43.72027460031527" lon="10.93660254986397"><ele>26.0</ele><time>2026-04-19T08:12:31Z</time></trkpt><trkpt lat="43.720340365016796" lon="10.936696660867444"><ele>26.0</ele><time>2026-04-19T08:12:32Z</time></trkpt><trkpt lat="43.720415037654064" lon="10.936780887493306"><ele>26.4</ele><time>2026-04-19T08:12:33Z</time></trkpt><trkpt lat="43.7204953622066" lon="10.93685047816635"><ele>26.8</ele><time>2026-04-19T08:12:34Z</time></trkpt><trkpt lat="43.72058251174743" lon="10.936911256513543"><ele>27.199999999999996</ele><time>2026-04-19T08:12:35Z</time></trkpt><trkpt lat="43.72066732738722" lon="10.936960134976538"><ele>27.599999999999998</ele><time>2026-04-19T08:12:36Z</time></trkpt><trkpt lat="43.72075631608658" lon="10.936992368550028"><ele>28.0</ele><time>2026-04-19T08:12:37Z</time></trkpt><trkpt lat="43.7208440516046" lon="10.937020646792456"><ele>28.0</ele><time>2026-04-19T08:12:38Z</time></trkpt><trkpt lat="43.720932503117815" lon="10.937043735723542"><ele>27.999999999999996</ele><time>2026-04-19T08:12:39Z</time></trkpt><trkpt lat="43.72101818894653" lon="10.937065781265067"><ele>27.999999999999996</ele><time>2026-04-19T08:12:40Z</time></trkpt><trkpt lat="43.72110868184478" lon="10.93708729983006"><ele>28.0</ele><time>2026-04-19T08:12:41Z</time></trkpt><trkpt lat="43.72119624611399" lon="10.937114168073489"><ele>28.0</ele><time>2026-04-19T08:12:42Z</time></trkpt><trkpt lat="43.721285357465675" lon="10.93714118189221"><ele>27.799999999999997</ele><time>2026-04-19T08:12:43Z</time></trkpt><trkpt lat="43.72137196736103" lon="10.937172484018799"><ele>27.599999999999998</ele><time>2026-04-19T08:12:44Z</time></trkpt><trkpt lat="43.7214603770798" lon="10.93724832190159"><ele>27.400000000000002</ele><time>2026-04-19T08:12:45Z</time></trkpt><trkpt lat="43.72154574427508" lon="10.937295778278628"><ele>27.200000000000003</ele><time>2026-04-19T08:12:46Z</time></trkpt><trkpt lat="43.72162408688746" lon="10.937384160105807"><ele>27.0</ele><time>2026-04-19T08:12:47Z</time></trkpt><trkpt lat="43.72168818848558" lon="10.937467707561597"><ele>26.8</ele><time>2026-04-19T08:12:48Z</time></trkpt><trkpt lat="43.72175119911459" lon="10.937557674586813"><ele>26.6</ele><time>2026-04-19T08:12:49Z</time></trkpt><trkpt lat="43.721803279666496" lon="10.93764883135352"><ele>26.400000000000002</ele><time>2026-04-19T08:12:49.999Z</time></trkpt><trkpt lat="43.721849481228546" lon="10.937747802731694"><ele>26.200000000000003</ele><time>2026-04-19T08:12:50.999Z</time></trkpt><trkpt lat="43.72189349332712" lon="10.937866460562443"><ele>26.0</ele><time>2026-04-19T08:12:51.999Z</time></trkpt><trkpt lat="43.72192885626228" lon="10.937989757426688"><ele>25.4</ele><time>2026-04-19T08:12:52.999Z</time></trkpt><trkpt lat="43.721952475569985" lon="10.93811858563297"><ele>24.8</ele><time>2026-04-19T08:12:53.999Z</time></trkpt><trkpt lat="43.72196453342738" lon="10.93826048582943"><ele>24.2</ele><time>2026-04-19T08:12:54.999Z</time></trkpt><trkpt lat="43.721958427710085" lon="10.938397475387486"><ele>23.599999999999998</ele><time>2026-04-19T08:12:55.999Z</time></trkpt><trkpt lat="43.72193964595427" lon="10.93853635922109"><ele>23.0</ele><time>2026-04-19T08:12:56.999Z</time></trkpt><trkpt lat="43.72192004859377" lon="10.938671183673918"><ele>23.4</ele><time>2026-04-19T08:12:57.999Z</time></trkpt><trkpt lat="43.72189879891253" lon="10.938805117093906"><ele>23.799999999999997</ele><time>2026-04-19T08:12:58.999Z</time></trkpt><trkpt lat="43.72187386475928" lon="10.93893972281185"><ele>24.2</ele><time>2026-04-19T08:12:59.999Z</time></trkpt><trkpt lat="43.72185188720715" lon="10.939073668760791"><ele>24.6</ele><time>2026-04-19T08:13:00.999Z</time></trkpt><trkpt lat="43.72183423321682" lon="10.939205287359636"><ele>25.0</ele><time>2026-04-19T08:13:01.999Z</time></trkpt><trkpt lat="43.7218191954208" lon="10.939345987166716"><ele>25.0</ele><time>2026-04-19T08:13:02.999Z</time></trkpt><trkpt lat="43.72178768748124" lon="10.939483974496728"><ele>25.0</ele><time>2026-04-19T08:13:03.999Z</time></trkpt><trkpt lat="43.721751872891595" lon="10.939628601704598"><ele>25.0</ele><time>2026-04-19T08:13:04.999Z</time></trkpt><trkpt lat="43.72171346709748" lon="10.939763197443815"><ele>25.0</ele><time>2026-04-19T08:13:05.999Z</time></trkpt><trkpt lat="43.72167214616098" lon="10.939898501114344"><ele>25.0</ele><time>2026-04-19T08:13:06.999Z</time></trkpt><trkpt lat="43.72163471508064" lon="10.940042956432903"><ele>24.75</ele><time>2026-04-19T08:13:07.999Z</time></trkpt><trkpt lat="43.72160448920081" lon="10.940190505843136"><ele>24.5</ele><time>2026-04-19T08:13:08.999Z</time></trkpt><trkpt lat="43.72159038396451" lon="10.940338648539234"><ele>24.25</ele><time>2026-04-19T08:13:09.999Z</time></trkpt><trkpt lat="43.721596928423644" lon="10.940504011072214"><ele>24.0</ele><time>2026-04-19T08:13:10.999Z</time></trkpt><trkpt lat="43.72161664668497" lon="10.940655375220867"><ele>24.0</ele><time>2026-04-19T08:13:11.999Z</time></trkpt><trkpt lat="43.72164891925715" lon="10.940809129487011"><ele>24.0</ele><time>2026-04-19T08:13:12.999Z</time></trkpt><trkpt lat="43.721688325158524" lon="10.940959971008816"><ele>24.0</ele><time>2026-04-19T08:13:13.999Z</time></trkpt><trkpt lat="43.7217188736401" lon="10.941112543975501"><ele>24.0</ele><time>2026-04-19T08:13:14.999Z</time></trkpt><trkpt lat="43.721748091108374" lon="10.941282097283548"><ele>24.5</ele><time>2026-04-19T08:13:15.999Z</time></trkpt><trkpt lat="43.72178622648451" lon="10.941447891120722"><ele>25.0</ele><time>2026-04-19T08:13:16.999Z</time></trkpt><trkpt lat="43.72181492057647" lon="10.94160442138086"><ele>25.5</ele><time>2026-04-19T08:13:17.999Z</time></trkpt><trkpt lat="43.72184621330048" lon="10.94176719239812"><ele>26.0</ele><time>2026-04-19T08:13:18.999Z</time></trkpt><trkpt lat="43.72187602662957" lon="10.941926611876161"><ele>25.75</ele><time>2026-04-19T08:13:19.999Z</time></trkpt><trkpt lat="43.72191903371104" lon="10.942086573606082"><ele>25.5</ele><time>2026-04-19T08:13:20.999Z</time></trkpt><trkpt lat="43.721959503158594" lon="10.942255078128403"><ele>25.25</ele><time>2026-04-19T08:13:21.999Z</time></trkpt><trkpt lat="43.721997915678664" lon="10.942425034821605"><ele>25.0</ele><time>2026-04-19T08:13:22.999Z</time></trkpt><trkpt lat="43.72203847322994" lon="10.942592720356377"><ele>25.0</ele><time>2026-04-19T08:13:23.999Z</time></trkpt><trkpt lat="43.722084327697765" lon="10.942756222858698"><ele>25.0</ele><time>2026-04-19T08:13:24.999Z</time></trkpt><trkpt lat="43.722129890437564" lon="10.942918971322497"><ele>25.0</ele><time>2026-04-19T08:13:25.999Z</time></trkpt><trkpt lat="43.72217706044929" lon="10.94308300606575"><ele>25.0</ele><time>2026-04-19T08:13:26.999Z</time></trkpt><trkpt lat="43.722223083263316" lon="10.943244173388736"><ele>26.0</ele><time>2026-04-19T08:13:27.999Z</time></trkpt><trkpt lat="43.72227218805063" lon="10.943404958556291"><ele>27.0</ele><time>2026-04-19T08:13:28.999Z</time></trkpt><trkpt lat="43.722319600991504" lon="10.943565967256742"><ele>28.0</ele><time>2026-04-19T08:13:29.999Z</time></trkpt><trkpt lat="43.72236128582373" lon="10.943728508216124"><ele>29.0</ele><time>2026-04-19T08:13:30.999Z</time></trkpt><trkpt lat="43.722408360662484" lon="10.943885686644899"><ele>29.0</ele><time>2026-04-19T08:13:31.999Z</time></trkpt><trkpt lat="43.72245782826019" lon="10.944033916176437"><ele>29.0</ele><time>2026-04-19T08:13:32.999Z</time></trkpt><trkpt lat="43.72251148787427" lon="10.944185392203762"><ele>29.0</ele><time>2026-04-19T08:13:33.999Z</time></trkpt><trkpt lat="43.722567211232004" lon="10.944331106726583"><ele>29.0</ele><time>2026-04-19T08:13:34.999Z</time></trkpt><trkpt lat="43.72262849628489" lon="10.944470856712801"><ele>29.75</ele><time>2026-04-19T08:13:35.999Z</time></trkpt><trkpt lat="43.722693022625855" lon="10.944606557073657"><ele>30.5</ele><time>2026-04-19T08:13:36.999Z</time></trkpt><trkpt lat="43.72276439076108" lon="10.944735793664663"><ele>31.25</ele><time>2026-04-19T08:13:37.999Z</time></trkpt><trkpt lat="43.72283841406384" lon="10.94486498251616"><ele>32.0</ele><time>2026-04-19T08:13:38.998Z</time></trkpt><trkpt lat="43.72291095030434" lon="10.94499462533699"><ele>31.400000000000002</ele><time>2026-04-19T08:13:39.998Z</time></trkpt><trkpt lat="43.72298209189864" lon="10.945121331536528"><ele>30.800000000000004</ele><time>2026-04-19T08:13:40.998Z</time></trkpt><trkpt lat="43.7230517321106" lon="10.945245274324574"><ele>30.2</ele><time>2026-04-19T08:13:41.998Z</time></trkpt><trkpt lat="43.7231153577555" lon="10.945368833924507"><ele>29.6</ele><time>2026-04-19T08:13:42.998Z</time></trkpt><trkpt lat="43.72317799810163" lon="10.945491561143495"><ele>29.0</ele><time>2026-04-19T08:13:43.998Z</time></trkpt><trkpt lat="43.723240585655454" lon="10.945607519666307"><ele>28.999999999999996</ele><time>2026-04-19T08:13:44.998Z</time></trkpt><trkpt lat="43.723300761249305" lon="10.945715744380834"><ele>29.0</ele><time>2026-04-19T08:13:45.998Z</time></trkpt><trkpt lat="43.72335701762883" lon="10.945819909490485"><ele>29.0</ele><time>2026-04-19T08:13:46.998Z</time></trkpt><trkpt lat="43.72340588619037" lon="10.945914044103036"><ele>29.0</ele><time>2026-04-19T08:13:47.998Z</time></trkpt><trkpt lat="43.72344697184412" lon="10.945991002738161"><ele>28.999999999999996</ele><time>2026-04-19T08:13:48.998Z</time></trkpt><trkpt lat="43.72350022044815" lon="10.94609986229657"><ele>29.0</ele><time>2026-04-19T08:13:50.998Z</time></trkpt><trkpt lat="43.72354223582723" lon="10.946180812103494"><ele>29.4</ele><time>2026-04-19T08:13:54.998Z</time></trkpt><trkpt lat="43.72357618145907" lon="10.946259250305262"><ele>29.799999999999997</ele><time>2026-04-19T08:13:58.998Z</time></trkpt><trkpt lat="43.72358322367424" lon="10.946361470378738"><ele>30.200000000000003</ele><time>2026-04-19T08:14:02.998Z</time></trkpt><trkpt lat="43.723544514108326" lon="10.946509443737543"><ele>30.6</ele><time>2026-04-19T08:14:05.998Z</time></trkpt><trkpt lat="43.72353383543937" lon="10.94665258199713"><ele>31.0</ele><time>2026-04-19T08:14:07.998Z</time></trkpt><trkpt lat="43.72359009113395" lon="10.946777545717492"><ele>30.166666666666668</ele><time>2026-04-19T08:14:09.998Z</time></trkpt><trkpt lat="43.723695577639994" lon="10.946845718125642"><ele>29.333333333333336</ele><time>2026-04-19T08:14:11.998Z</time></trkpt><trkpt lat="43.72376592873509" lon="10.946870885024069"><ele>28.5</ele><time>2026-04-19T08:14:12.998Z</time></trkpt><trkpt lat="43.72382582499772" lon="10.946914949592271"><ele>27.666666666666664</ele><time>2026-04-19T08:14:13.998Z</time></trkpt><trkpt lat="43.72388452215385" lon="10.946974339884916"><ele>26.833333333333332</ele><time>2026-04-19T08:14:14.998Z</time></trkpt><trkpt lat="43.723947203845306" lon="10.947041582832933"><ele>26.0</ele><time>2026-04-19T08:14:15.998Z</time></trkpt><trkpt lat="43.72400664549794" lon="10.947123745702903"><ele>26.0</ele><time>2026-04-19T08:14:16.998Z</time></trkpt><trkpt lat="43.724061692688146" lon="10.947217481557818"><ele>26.0</ele><time>2026-04-19T08:14:17.998Z</time></trkpt><trkpt lat="43.724114639623465" lon="10.94732729186654"><ele>26.0</ele><time>2026-04-19T08:14:18.998Z</time></trkpt><trkpt lat="43.72416788096797" lon="10.947446927533486"><ele>26.0</ele><time>2026-04-19T08:14:19.998Z</time></trkpt><trkpt lat="43.7242239088946" lon="10.947568305192803"><ele>26.0</ele><time>2026-04-19T08:14:20.998Z</time></trkpt><trkpt lat="43.72427970312701" lon="10.947686035680569"><ele>26.0</ele><time>2026-04-19T08:14:21.998Z</time></trkpt><trkpt lat="43.72433805371827" lon="10.947809198033946"><ele>26.0</ele><time>2026-04-19T08:14:22.998Z</time></trkpt><trkpt lat="43.72439891862491" lon="10.947931504504739"><ele>26.0</ele><time>2026-04-19T08:14:23.998Z</time></trkpt><trkpt lat="43.72446041524339" lon="10.948059102775977"><ele>26.0</ele><time>2026-04-19T08:14:25Z</time></trkpt><trkpt lat="43.72452113934623" lon="10.94819359818132"><ele>26.0</ele><time>2026-04-19T08:14:26Z</time></trkpt><trkpt lat="43.72457484501391" lon="10.948337720514187"><ele>26.25</ele><time>2026-04-19T08:14:27Z</time></trkpt><trkpt lat="43.72461743981927" lon="10.948492256502789"><ele>26.5</ele><time>2026-04-19T08:14:28Z</time></trkpt><trkpt lat="43.72464509424242" lon="10.948655024823172"><ele>26.75</ele><time>2026-04-19T08:14:29Z</time></trkpt><trkpt lat="43.72465989456505" lon="10.948822076305785"><ele>27.0</ele><time>2026-04-19T08:14:30Z</time></trkpt><trkpt lat="43.72466155739386" lon="10.948989609960671"><ele>27.0</ele><time>2026-04-19T08:14:31Z</time></trkpt><trkpt lat="43.724648114641184" lon="10.949156217917306"><ele>27.000000000000004</ele><time>2026-04-19T08:14:32Z</time></trkpt><trkpt lat="43.72462423424271" lon="10.949309767227899"><ele>27.000000000000004</ele><time>2026-04-19T08:14:33Z</time></trkpt><trkpt lat="43.72459601768925" lon="10.949447784709392"><ele>27.0</ele><time>2026-04-19T08:14:34Z</time></trkpt><trkpt lat="43.72456383554905" lon="10.94957729191053"><ele>27.0</ele><time>2026-04-19T08:14:35Z</time></trkpt><trkpt lat="43.72452952414059" lon="10.94969821543113"><ele>27.200000000000003</ele><time>2026-04-19T08:14:36Z</time></trkpt><trkpt lat="43.72449440795398" lon="10.949826760074263"><ele>27.400000000000002</ele><time>2026-04-19T08:14:37Z</time></trkpt><trkpt lat="43.724462116185734" lon="10.949963226758447"><ele>27.599999999999998</ele><time>2026-04-19T08:14:38Z</time></trkpt><trkpt lat="43.724427005029085" lon="10.95010147313054"><ele>27.799999999999997</ele><time>2026-04-19T08:14:39Z</time></trkpt><trkpt lat="43.72439095808663" lon="10.950242157448018"><ele>28.0</ele><time>2026-04-19T08:14:40Z</time></trkpt><trkpt lat="43.72435618202239" lon="10.950383667313053"><ele>28.000000000000004</ele><time>2026-04-19T08:14:41Z</time></trkpt><trkpt lat="43.72431822435299" lon="10.950519633929119"><ele>28.0</ele><time>2026-04-19T08:14:42Z</time></trkpt><trkpt lat="43.724281752312486" lon="10.950645778447667"><ele>28.0</ele><time>2026-04-19T08:14:43Z</time></trkpt><trkpt lat="43.724248166101916" lon="10.950762611155346"><ele>28.0</ele><time>2026-04-19T08:14:44Z</time></trkpt><trkpt lat="43.724221107523796" lon="10.950862075778902"><ele>28.000000000000004</ele><time>2026-04-19T08:14:45Z</time></trkpt><trkpt lat="43.724197852943725" lon="10.950946590936715"><ele>28.0</ele><time>2026-04-19T08:14:46Z</time></trkpt><trkpt lat="43.72416034282417" lon="10.951060387129955"><ele>27.799999999999997</ele><time>2026-04-19T08:14:48Z</time></trkpt><trkpt lat="43.72411719272464" lon="10.951149533879025"><ele>27.599999999999998</ele><time>2026-04-19T08:14:52Z</time></trkpt><trkpt lat="43.724025745421095" lon="10.951243805326774"><ele>27.400000000000002</ele><time>2026-04-19T08:14:54Z</time></trkpt><trkpt lat="43.7239702199179" lon="10.951370064122454"><ele>27.200000000000003</ele><time>2026-04-19T08:14:56Z</time></trkpt><trkpt lat="43.724017847760116" lon="10.951495102282035"><ele>27.0</ele><time>2026-04-19T08:14:58Z</time></trkpt><trkpt lat="43.72413883319852" lon="10.951525370780915"><ele>27.0</ele><time>2026-04-19T08:15:00Z</time></trkpt><trkpt lat="43.72421077465062" lon="10.951521736130607"><ele>27.0</ele><time>2026-04-19T08:15:01Z</time></trkpt><trkpt lat="43.72429305960547" lon="10.95153101419972"><ele>27.0</ele><time>2026-04-19T08:15:02Z</time></trkpt><trkpt lat="43.72437734772636" lon="10.951534602913597"><ele>27.0</ele><time>2026-04-19T08:15:03Z</time></trkpt><trkpt lat="43.7244588994695" lon="10.951644979710418"><ele>27.0</ele><time>2026-04-19T08:15:03.999Z</time></trkpt><trkpt lat="43.72453681659947" lon="10.95171722953269"><ele>27.0</ele><time>2026-04-19T08:15:04.999Z</time></trkpt><trkpt lat="43.7246185359586" lon="10.951790948661648"><ele>27.0</ele><time>2026-04-19T08:15:05.999Z</time></trkpt><trkpt lat="43.72470277853918" lon="10.951863604140623"><ele>27.000000000000004</ele><time>2026-04-19T08:15:06.999Z</time></trkpt><trkpt lat="43.724788063417265" lon="10.951941076617937"><ele>27.000000000000004</ele><time>2026-04-19T08:15:07.999Z</time></trkpt><trkpt lat="43.7248692399607" lon="10.95201674363288"><ele>27.0</ele><time>2026-04-19T08:15:08.999Z</time></trkpt><trkpt lat="43.724941831976174" lon="10.952089337388458"><ele>27.0</ele><time>2026-04-19T08:15:09.999Z</time></trkpt><trkpt lat="43.72498984803086" lon="10.952175705232708"><ele>27.0</ele><time>2026-04-19T08:15:10.999Z</time></trkpt><trkpt lat="43.725013098760876" lon="10.952266063112454"><ele>27.0</ele><time>2026-04-19T08:15:11.999Z</time></trkpt><trkpt lat="43.72502655631176" lon="10.952368451159728"><ele>27.0</ele><time>2026-04-19T08:15:12.999Z</time></trkpt><trkpt lat="43.72503867256289" lon="10.952467796836137"><ele>27.0</ele><time>2026-04-19T08:15:13.999Z</time></trkpt><trkpt lat="43.72505086136055" lon="10.952572084104286"><ele>27.0</ele><time>2026-04-19T08:15:14.999Z</time></trkpt><trkpt lat="43.72506652944236" lon="10.95267820235761"><ele>27.0</ele><time>2026-04-19T08:15:15.999Z</time></trkpt><trkpt lat="43.72508253811486" lon="10.95279835667569"><ele>27.200000000000003</ele><time>2026-04-19T08:15:16.999Z</time></trkpt><trkpt lat="43.72510267721291" lon="10.952936761143125"><ele>27.400000000000002</ele><time>2026-04-19T08:15:17.999Z</time></trkpt><trkpt lat="43.725125179246994" lon="10.953087046816297"><ele>27.599999999999998</ele><time>2026-04-19T08:15:18.999Z</time></trkpt><trkpt lat="43.72514646196498" lon="10.953239832815667"><ele>27.799999999999997</ele><time>2026-04-19T08:15:19.999Z</time></trkpt><trkpt lat="43.72516818914816" lon="10.95338593715222"><ele>28.0</ele><time>2026-04-19T08:15:20.999Z</time></trkpt><trkpt lat="43.72519020076161" lon="10.953524187198749"><ele>28.0</ele><time>2026-04-19T08:15:21.999Z</time></trkpt><trkpt lat="43.72521068845575" lon="10.953663554474756"><ele>27.999999999999996</ele><time>2026-04-19T08:15:22.999Z</time></trkpt><trkpt lat="43.72523115407415" lon="10.953800905332383"><ele>27.999999999999996</ele><time>2026-04-19T08:15:23.999Z</time></trkpt><trkpt lat="43.72525110769769" lon="10.953933619134087"><ele>28.0</ele><time>2026-04-19T08:15:24.999Z</time></trkpt><trkpt lat="43.72527080991951" lon="10.954066024687885"><ele>28.0</ele><time>2026-04-19T08:15:25.999Z</time></trkpt><trkpt lat="43.725290216045074" lon="10.954193123631963"><ele>27.2</ele><time>2026-04-19T08:15:26.999Z</time></trkpt><trkpt lat="43.72530985974346" lon="10.954318388595842"><ele>26.4</ele><time>2026-04-19T08:15:27.999Z</time></trkpt><trkpt lat="43.72532849523587" lon="10.954444721522714"><ele>25.599999999999998</ele><time>2026-04-19T08:15:28.999Z</time></trkpt><trkpt lat="43.72534686046833" lon="10.954578410127889"><ele>24.799999999999997</ele><time>2026-04-19T08:15:29.999Z</time></trkpt><trkpt lat="43.725367958736626" lon="10.954715368674101"><ele>24.0</ele><time>2026-04-19T08:15:30.999Z</time></trkpt><trkpt lat="43.72538981170124" lon="10.954855456434096"><ele>24.0</ele><time>2026-04-19T08:15:31.999Z</time></trkpt><trkpt lat="43.725409915881826" lon="10.954998841683663"><ele>24.0</ele><time>2026-04-19T08:15:32.999Z</time></trkpt><trkpt lat="43.72543073312279" lon="10.955141009177513"><ele>24.0</ele><time>2026-04-19T08:15:33.999Z</time></trkpt><trkpt lat="43.72545771091679" lon="10.95528119342287"><ele>24.0</ele><time>2026-04-19T08:15:34.999Z</time></trkpt><trkpt lat="43.72549660720723" lon="10.955411567019773"><ele>24.0</ele><time>2026-04-19T08:15:35.999Z</time></trkpt><trkpt lat="43.72555272360007" lon="10.95553249426215"><ele>24.2</ele><time>2026-04-19T08:15:36.999Z</time></trkpt><trkpt lat="43.72561553014144" lon="10.955635335197766"><ele>24.4</ele><time>2026-04-19T08:15:37.999Z</time></trkpt><trkpt lat="43.7256834662168" lon="10.955724282344592"><ele>24.6</ele><time>2026-04-19T08:15:38.999Z</time></trkpt><trkpt lat="43.725761945911735" lon="10.955806810655568"><ele>24.8</ele><time>2026-04-19T08:15:39.999Z</time></trkpt><trkpt lat="43.72584087495307" lon="10.955880581604259"><ele>25.0</ele><time>2026-04-19T08:15:40.999Z</time></trkpt><trkpt lat="43.72591688064803" lon="10.955952341073658"><ele>25.6</ele><time>2026-04-19T08:15:41.999Z</time></trkpt><trkpt lat="43.72599298972079" lon="10.956022651148569"><ele>26.2</ele><time>2026-04-19T08:15:42.999Z</time></trkpt><trkpt lat="43.72607037224824" lon="10.956092231255715"><ele>26.799999999999997</ele><time>2026-04-19T08:15:43.999Z</time></trkpt><trkpt lat="43.72614476174897" lon="10.956161520852078"><ele>27.4</ele><time>2026-04-19T08:15:44.999Z</time></trkpt><trkpt lat="43.72621991370876" lon="10.956231840964179"><ele>28.0</ele><time>2026-04-19T08:15:45.999Z</time></trkpt><trkpt lat="43.72629213747994" lon="10.956298547737864"><ele>28.000000000000004</ele><time>2026-04-19T08:15:46.999Z</time></trkpt><trkpt lat="43.72635471009549" lon="10.956354045163549"><ele>28.0</ele><time>2026-04-19T08:15:47.999Z</time></trkpt><trkpt lat="43.72641283061328" lon="10.956407173225411"><ele>28.0</ele><time>2026-04-19T08:15:48.999Z</time></trkpt><trkpt lat="43.726473457109584" lon="10.956464194014526"><ele>28.0</ele><time>2026-04-19T08:15:49.999Z</time></trkpt><trkpt lat="43.726545708516305" lon="10.956533927967994"><ele>28.000000000000004</ele><time>2026-04-19T08:15:50.999Z</time></trkpt><trkpt lat="43.726631357536036" lon="10.95661663088417"><ele>28.0</ele><time>2026-04-19T08:15:51.999Z</time></trkpt><trkpt lat="43.726724121468116" lon="10.956708322441306"><ele>28.0</ele><time>2026-04-19T08:15:52.999Z</time></trkpt><trkpt lat="43.72682523107354" lon="10.956808393509924"><ele>28.0</ele><time>2026-04-19T08:15:53.998Z</time></trkpt><trkpt lat="43.726931293966686" lon="10.956909731728995"><ele>28.0</ele><time>2026-04-19T08:15:54.998Z</time></trkpt><trkpt lat="43.72703372575095" lon="10.95701087800845"><ele>28.0</ele><time>2026-04-19T08:15:55.998Z</time></trkpt><trkpt lat="43.72712535717963" lon="10.957100263307634"><ele>27.799999999999997</ele><time>2026-04-19T08:15:56.998Z</time></trkpt><trkpt lat="43.72721032797255" lon="10.957182245217009"><ele>27.599999999999998</ele><time>2026-04-19T08:15:57.998Z</time></trkpt><trkpt lat="43.727290248734974" lon="10.957261133757383"><ele>27.400000000000002</ele><time>2026-04-19T08:15:58.998Z</time></trkpt><trkpt lat="43.72736078049343" lon="10.95733201201095"><ele>27.200000000000003</ele><time>2026-04-19T08:15:59.998Z</time></trkpt><trkpt lat="43.72742289676741" lon="10.957392044477757"><ele>27.0</ele><time>2026-04-19T08:16:00.998Z</time></trkpt><trkpt lat="43.72750590676652" lon="10.957497062301426"><ele>26.8</ele><time>2026-04-19T08:16:02.998Z</time></trkpt><trkpt lat="43.727478841054634" lon="10.957655696957701"><ele>26.6</ele><time>2026-04-19T08:16:04.998Z</time></trkpt><trkpt lat="43.727413242066916" lon="10.957752230839617"><ele>26.400000000000002</ele><time>2026-04-19T08:16:05.998Z</time></trkpt><trkpt lat="43.72735329131179" lon="10.957872923218307"><ele>26.200000000000003</ele><time>2026-04-19T08:16:06.998Z</time></trkpt><trkpt lat="43.727304140534976" lon="10.958025842611042"><ele>26.0</ele><time>2026-04-19T08:16:07.998Z</time></trkpt><trkpt lat="43.72726838897355" lon="10.958202212845396"><ele>25.5</ele><time>2026-04-19T08:16:08.998Z</time></trkpt><trkpt lat="43.72724476984236" lon="10.958396018132351"><ele>25.0</ele><time>2026-04-19T08:16:09.998Z</time></trkpt><trkpt lat="43.727227101443056" lon="10.958592440037714"><ele>24.5</ele><time>2026-04-19T08:16:10.998Z</time></trkpt><trkpt lat="43.72720728753323" lon="10.958794423139308"><ele>24.0</ele><time>2026-04-19T08:16:11.998Z</time></trkpt><trkpt lat="43.72718765275867" lon="10.959001356583236"><ele>24.0</ele><time>2026-04-19T08:16:12.998Z</time></trkpt><trkpt lat="43.72716891987757" lon="10.959199341510676"><ele>24.0</ele><time>2026-04-19T08:16:13.998Z</time></trkpt><trkpt lat="43.72714969571452" lon="10.959392251394169"><ele>24.0</ele><time>2026-04-19T08:16:14.998Z</time></trkpt><trkpt lat="43.72713367880436" lon="10.959582798481804"><ele>24.0</ele><time>2026-04-19T08:16:15.998Z</time></trkpt><trkpt lat="43.7271153509411" lon="10.959769231287044"><ele>24.25</ele><time>2026-04-19T08:16:16.998Z</time></trkpt><trkpt lat="43.72710052755182" lon="10.95994687539667"><ele>24.5</ele><time>2026-04-19T08:16:17.998Z</time></trkpt><trkpt lat="43.72708554219027" lon="10.960112141464776"><ele>24.75</ele><time>2026-04-19T08:16:18.998Z</time></trkpt><trkpt lat="43.72707007671678" lon="10.960268011611815"><ele>25.0</ele><time>2026-04-19T08:16:19.998Z</time></trkpt><trkpt lat="43.727055308147925" lon="10.960401241071294"><ele>25.000000000000004</ele><time>2026-04-19T08:16:20.998Z</time></trkpt><trkpt lat="43.72704174322447" lon="10.96051974417969"><ele>25.0</ele><time>2026-04-19T08:16:21.998Z</time></trkpt><trkpt lat="43.72702372964293" lon="10.960620205853619"><ele>25.0</ele><time>2026-04-19T08:16:22.998Z</time></trkpt><trkpt lat="43.7270000401384" lon="10.960714387366336"><ele>25.0</ele><time>2026-04-19T08:16:23.998Z</time></trkpt><trkpt lat="43.72696699995353" lon="10.960804673037545"><ele>25.000000000000004</ele><time>2026-04-19T08:16:24.998Z</time></trkpt><trkpt lat="43.726920832767554" lon="10.960886849389569"><ele>25.0</ele><time>2026-04-19T08:16:25.998Z</time></trkpt><trkpt lat="43.72689266555944" lon="10.960975638420706"><ele>25.0</ele><time>2026-04-19T08:16:26.998Z</time></trkpt><trkpt lat="43.7268885985176" lon="10.96107331472576"><ele>25.0</ele><time>2026-04-19T08:16:27.998Z</time></trkpt><trkpt lat="43.72690872089411" lon="10.961185992941237"><ele>25.0</ele><time>2026-04-19T08:16:28.998Z</time></trkpt><trkpt lat="43.72692006173672" lon="10.961313695127963"><ele>25.0</ele><time>2026-04-19T08:16:29.998Z</time></trkpt><trkpt lat="43.72691021975461" lon="10.961459198160627"><ele>25.0</ele><time>2026-04-19T08:16:31Z</time></trkpt><trkpt lat="43.726891633330936" lon="10.961627043909601"><ele>25.5</ele><time>2026-04-19T08:16:32Z</time></trkpt><trkpt lat="43.7268709714852" lon="10.961805813640286"><ele>26.0</ele><time>2026-04-19T08:16:33Z</time></trkpt><trkpt lat="43.726843475632954" lon="10.961979983784229"><ele>26.5</ele><time>2026-04-19T08:16:34Z</time></trkpt><trkpt lat="43.72680331775542" lon="10.96215526606259"><ele>27.0</ele><time>2026-04-19T08:16:35Z</time></trkpt><trkpt lat="43.72674866953222" lon="10.962324975155639"><ele>27.0</ele><time>2026-04-19T08:16:36Z</time></trkpt><trkpt lat="43.72667956596079" lon="10.962487520770505"><ele>27.0</ele><time>2026-04-19T08:16:37Z</time></trkpt><trkpt lat="43.72660154456382" lon="10.962645379311287"><ele>27.0</ele><time>2026-04-19T08:16:38Z</time></trkpt><trkpt lat="43.72652191564343" lon="10.962807447190983"><ele>27.0</ele><time>2026-04-19T08:16:39Z</time></trkpt><trkpt lat="43.72644307607202" lon="10.962974172008126"><ele>26.666666666666664</ele><time>2026-04-19T08:16:40Z</time></trkpt><trkpt lat="43.72635693169575" lon="10.963143816622079"><ele>26.333333333333332</ele><time>2026-04-19T08:16:41Z</time></trkpt><trkpt lat="43.72626232463396" lon="10.963309415779234"><ele>26.0</ele><time>2026-04-19T08:16:42Z</time></trkpt><trkpt lat="43.726154462890186" lon="10.963465881719769"><ele>25.666666666666664</ele><time>2026-04-19T08:16:43Z</time></trkpt><trkpt lat="43.72603767500679" lon="10.963612710122717"><ele>25.333333333333336</ele><time>2026-04-19T08:16:44Z</time></trkpt><trkpt lat="43.725923377418674" lon="10.963752695869553"><ele>25.0</ele><time>2026-04-19T08:16:45Z</time></trkpt><trkpt lat="43.72581248473577" lon="10.96388886792514"><ele>25.0</ele><time>2026-04-19T08:16:46Z</time></trkpt><trkpt lat="43.72570401903069" lon="10.964028524109885"><ele>25.0</ele><time>2026-04-19T08:16:47Z</time></trkpt><trkpt lat="43.72559826041085" lon="10.964177021765732"><ele>25.0</ele><time>2026-04-19T08:16:48Z</time></trkpt><trkpt lat="43.72550039373087" lon="10.964335344208136"><ele>25.0</ele><time>2026-04-19T08:16:49Z</time></trkpt><trkpt lat="43.72541656765429" lon="10.96451073961613"><ele>25.0</ele><time>2026-04-19T08:16:50Z</time></trkpt><trkpt lat="43.725342177407896" lon="10.964695511530309"><ele>25.0</ele><time>2026-04-19T08:16:51Z</time></trkpt><trkpt lat="43.725275975613464" lon="10.964896565168681"><ele>25.0</ele><time>2026-04-19T08:16:52Z</time></trkpt><trkpt lat="43.725218152665384" lon="10.965108314023697"><ele>25.0</ele><time>2026-04-19T08:16:53Z</time></trkpt><trkpt lat="43.72517125498381" lon="10.965327238648172"><ele>25.0</ele><time>2026-04-19T08:16:54Z</time></trkpt><trkpt lat="43.725131307413875" lon="10.965551222852712"><ele>25.0</ele><time>2026-04-19T08:16:55Z</time></trkpt><trkpt lat="43.725090812389105" lon="10.965769642689331"><ele>24.75</ele><time>2026-04-19T08:16:56Z</time></trkpt><trkpt lat="43.72504968581271" lon="10.965977092538143"><ele>24.5</ele><time>2026-04-19T08:16:57Z</time></trkpt><trkpt lat="43.72500428506608" lon="10.966172210181446"><ele>24.25</ele><time>2026-04-19T08:16:58Z</time></trkpt><trkpt lat="43.72495562363469" lon="10.966352844585536"><ele>24.0</ele><time>2026-04-19T08:16:59Z</time></trkpt><trkpt lat="43.72489895244008" lon="10.966509610935175"><ele>24.0</ele><time>2026-04-19T08:17:00Z</time></trkpt><trkpt lat="43.72483849560567" lon="10.966654885066323"><ele>24.0</ele><time>2026-04-19T08:17:01Z</time></trkpt><trkpt lat="43.72477652530148" lon="10.966780535572417"><ele>24.0</ele><time>2026-04-19T08:17:02Z</time></trkpt><trkpt lat="43.72471305559686" lon="10.966893596445916"><ele>24.0</ele><time>2026-04-19T08:17:03Z</time></trkpt><trkpt lat="43.72464814915347" lon="10.966993380358062"><ele>24.0</ele><time>2026-04-19T08:17:04Z</time></trkpt><trkpt lat="43.724592257455136" lon="10.967105498494991"><ele>24.25</ele><time>2026-04-19T08:17:05Z</time></trkpt><trkpt lat="43.72452155809007" lon="10.967207584964866"><ele>24.5</ele><time>2026-04-19T08:17:06Z</time></trkpt><trkpt lat="43.7244092072143" lon="10.967262777831683"><ele>24.75</ele><time>2026-04-19T08:17:07Z</time></trkpt><trkpt lat="43.72431645213289" lon="10.96735609929456"><ele>25.0</ele><time>2026-04-19T08:17:08Z</time></trkpt><trkpt lat="43.72421856431997" lon="10.967447509122241"><ele>25.0</ele><time>2026-04-19T08:17:09Z</time></trkpt><trkpt lat="43.72411598591301" lon="10.967520139022676"><ele>25.0</ele><time>2026-04-19T08:17:10Z</time></trkpt><trkpt lat="43.72401248582229" lon="10.967582169473207"><ele>25.0</ele><time>2026-04-19T08:17:11Z</time></trkpt><trkpt lat="43.72391144383404" lon="10.967641749119927"><ele>25.0</ele><time>2026-04-19T08:17:12Z</time></trkpt><trkpt lat="43.72381897017042" lon="10.96769802588596"><ele>25.0</ele><time>2026-04-19T08:17:13Z</time></trkpt><trkpt lat="43.72373468354814" lon="10.967750585126492"><ele>25.000000000000004</ele><time>2026-04-19T08:17:14Z</time></trkpt><trkpt lat="43.7236568515592" lon="10.96780025886655"><ele>25.0</ele><time>2026-04-19T08:17:15Z</time></trkpt><trkpt lat="43.72359000902181" lon="10.967847743254726"><ele>25.0</ele><time>2026-04-19T08:17:15.999Z</time></trkpt><trkpt lat="43.72353257833461" lon="10.967890380641686"><ele>25.0</ele><time>2026-04-19T08:17:16.999Z</time></trkpt><trkpt lat="43.72344147330661" lon="10.967958050917803"><ele>25.000000000000004</ele><time>2026-04-19T08:17:18.999Z</time></trkpt><trkpt lat="43.723365345785574" lon="10.968021548223339"><ele>25.0</ele><time>2026-04-19T08:17:21.999Z</time></trkpt><trkpt lat="43.72330403569114" lon="10.96807740470797"><ele>25.000000000000004</ele><time>2026-04-19T08:17:23.999Z</time></trkpt><trkpt lat="43.72320189577304" lon="10.968179015790293"><ele>25.0</ele><time>2026-04-19T08:17:25.999Z</time></trkpt><trkpt lat="43.723152160708395" lon="10.968238809238104"><ele>25.0</ele><time>2026-04-19T08:17:26.999Z</time></trkpt><trkpt lat="43.72309706323745" lon="10.968308827098967"><ele>25.0</ele><time>2026-04-19T08:17:27.999Z</time></trkpt><trkpt lat="43.72303739909766" lon="10.968393688277686"><ele>25.000000000000004</ele><time>2026-04-19T08:17:28.999Z</time></trkpt><trkpt lat="43.72297275856186" lon="10.96849058175236"><ele>25.0</ele><time>2026-04-19T08:17:29.999Z</time></trkpt><trkpt lat="43.72290991580132" lon="10.968589783928937"><ele>25.0</ele><time>2026-04-19T08:17:30.999Z</time></trkpt><trkpt lat="43.7228537126007" lon="10.968689457800508"><ele>25.0</ele><time>2026-04-19T08:17:31.999Z</time></trkpt><trkpt lat="43.7228005338481" lon="10.968799541184595"><ele>25.0</ele><time>2026-04-19T08:17:32.999Z</time></trkpt><trkpt lat="43.72275126555458" lon="10.968919356051993"><ele>25.0</ele><time>2026-04-19T08:17:33.999Z</time></trkpt><trkpt lat="43.72270609320542" lon="10.969044955241147"><ele>25.0</ele><time>2026-04-19T08:17:34.999Z</time></trkpt><trkpt lat="43.72266537269956" lon="10.969179635252575"><ele>25.0</ele><time>2026-04-19T08:17:35.999Z</time></trkpt><trkpt lat="43.72262819738795" lon="10.969326259530064"><ele>25.0</ele><time>2026-04-19T08:17:36.999Z</time></trkpt><trkpt lat="43.722592321438775" lon="10.969479616704211"><ele>25.0</ele><time>2026-04-19T08:17:37.999Z</time></trkpt><trkpt lat="43.722562003363265" lon="10.96963930539581"><ele>25.0</ele><time>2026-04-19T08:17:38.999Z</time></trkpt><trkpt lat="43.722525510064365" lon="10.969801881755913"><ele>25.0</ele><time>2026-04-19T08:17:39.999Z</time></trkpt><trkpt lat="43.72248503754648" lon="10.969963303057517"><ele>25.0</ele><time>2026-04-19T08:17:40.999Z</time></trkpt><trkpt lat="43.72243886379139" lon="10.970118460324278"><ele>25.0</ele><time>2026-04-19T08:17:41.999Z</time></trkpt><trkpt lat="43.72238129533816" lon="10.970264692176844"><ele>25.0</ele><time>2026-04-19T08:17:42.999Z</time></trkpt><trkpt lat="43.722312028231315" lon="10.970392698695635"><ele>25.000000000000004</ele><time>2026-04-19T08:17:43.999Z</time></trkpt><trkpt lat="43.72224296316309" lon="10.970502607009466"><ele>25.0</ele><time>2026-04-19T08:17:44.999Z</time></trkpt><trkpt lat="43.72217893073629" lon="10.97059083039484"><ele>25.0</ele><time>2026-04-19T08:17:45.999Z</time></trkpt><trkpt lat="43.72212159071128" lon="10.970663175148937"><ele>25.0</ele><time>2026-04-19T08:17:46.999Z</time></trkpt><trkpt lat="43.722070548899566" lon="10.970717479618408"><ele>25.000000000000004</ele><time>2026-04-19T08:17:47.999Z</time></trkpt><trkpt lat="43.72197781344551" lon="10.97079144667"><ele>25.0</ele><time>2026-04-19T08:17:49.999Z</time></trkpt><trkpt lat="43.72186885535379" lon="10.970839042749589"><ele>25.0</ele><time>2026-04-19T08:17:51.999Z</time></trkpt><trkpt lat="43.721740696386725" lon="10.970860012124358"><ele>25.0</ele><time>2026-04-19T08:17:53.999Z</time></trkpt><trkpt lat="43.721672051574686" lon="10.970845621643274"><ele>25.0</ele><time>2026-04-19T08:17:54.999Z</time></trkpt><trkpt lat="43.721608733224755" lon="10.970850973400317"><ele>25.0</ele><time>2026-04-19T08:17:55.999Z</time></trkpt><trkpt lat="43.72149721435059" lon="10.970934723006527"><ele>25.0</ele><time>2026-04-19T08:17:57.999Z</time></trkpt><trkpt lat="43.7214679829423" lon="10.971027082042545"><ele>25.000000000000004</ele><time>2026-04-19T08:17:58.999Z</time></trkpt><trkpt lat="43.72146944635225" lon="10.971116155463738"><ele>25.0</ele><time>2026-04-19T08:17:59.999Z</time></trkpt><trkpt lat="43.72149623884205" lon="10.971210636046422"><ele>25.0</ele><time>2026-04-19T08:18:00.999Z</time></trkpt><trkpt lat="43.721548067516856" lon="10.971306097732572"><ele>25.0</ele><time>2026-04-19T08:18:01.999Z</time></trkpt><trkpt lat="43.721593276902695" lon="10.971418510449737"><ele>25.000000000000004</ele><time>2026-04-19T08:18:02.999Z</time></trkpt><trkpt lat="43.72162427952336" lon="10.971542430561978"><ele>25.0</ele><time>2026-04-19T08:18:03.999Z</time></trkpt><trkpt lat="43.72164301449305" lon="10.971669202991826"><ele>25.0</ele><time>2026-04-19T08:18:04.998Z</time></trkpt><trkpt lat="43.721659002097034" lon="10.971799405601963"><ele>25.0</ele><time>2026-04-19T08:18:05.998Z</time></trkpt><trkpt lat="43.7216738334827" lon="10.971934486469"><ele>25.0</ele><time>2026-04-19T08:18:06.998Z</time></trkpt><trkpt lat="43.721684781604694" lon="10.972076227885028"><ele>25.0</ele><time>2026-04-19T08:18:07.998Z</time></trkpt><trkpt lat="43.721695863913226" lon="10.972221934106404"><ele>25.0</ele><time>2026-04-19T08:18:08.998Z</time></trkpt><trkpt lat="43.721714797674636" lon="10.972369531134435"><ele>25.0</ele><time>2026-04-19T08:18:09.998Z</time></trkpt><trkpt lat="43.72173145833292" lon="10.972521118927753"><ele>25.0</ele><time>2026-04-19T08:18:10.998Z</time></trkpt><trkpt lat="43.72174649070661" lon="10.972672105569712"><ele>25.0</ele><time>2026-04-19T08:18:11.998Z</time></trkpt><trkpt lat="43.721760664282876" lon="10.97282350511467"><ele>25.0</ele><time>2026-04-19T08:18:12.998Z</time></trkpt><trkpt lat="43.72177206241159" lon="10.972977650398715"><ele>25.0</ele><time>2026-04-19T08:18:13.998Z</time></trkpt><trkpt lat="43.72178015691439" lon="10.973129323492813"><ele>25.0</ele><time>2026-04-19T08:18:14.998Z</time></trkpt><trkpt lat="43.721782119725134" lon="10.973276850850167"><ele>25.0</ele><time>2026-04-19T08:18:15.998Z</time></trkpt><trkpt lat="43.7217725928893" lon="10.973419462576203"><ele>25.0</ele><time>2026-04-19T08:18:16.998Z</time></trkpt><trkpt lat="43.721759569914525" lon="10.973548514424168"><ele>25.0</ele><time>2026-04-19T08:18:17.998Z</time></trkpt><trkpt lat="43.72174257813765" lon="10.97366913710452"><ele>25.0</ele><time>2026-04-19T08:18:18.998Z</time></trkpt><trkpt lat="43.72172496004262" lon="10.973781829716122"><ele>25.166666666666668</ele><time>2026-04-19T08:18:19.998Z</time></trkpt><trkpt lat="43.72170041328347" lon="10.973889096530403"><ele>25.333333333333336</ele><time>2026-04-19T08:18:20.998Z</time></trkpt><trkpt lat="43.72166167241539" lon="10.973991660576718"><ele>25.5</ele><time>2026-04-19T08:18:21.998Z</time></trkpt><trkpt lat="43.72161292807914" lon="10.974091297433384"><ele>25.666666666666664</ele><time>2026-04-19T08:18:22.998Z</time></trkpt><trkpt lat="43.72155239279262" lon="10.974182479116246"><ele>25.833333333333332</ele><time>2026-04-19T08:18:23.998Z</time></trkpt><trkpt lat="43.72148789378522" lon="10.97427525043408"><ele>26.0</ele><time>2026-04-19T08:18:24.998Z</time></trkpt><trkpt lat="43.721446668407296" lon="10.974393089207206"><ele>26.0</ele><time>2026-04-19T08:18:25.998Z</time></trkpt><trkpt lat="43.721427174569286" lon="10.974521234728003"><ele>26.0</ele><time>2026-04-19T08:18:26.998Z</time></trkpt><trkpt lat="43.72143059074401" lon="10.974660024643295"><ele>26.0</ele><time>2026-04-19T08:18:27.998Z</time></trkpt><trkpt lat="43.721433413248775" lon="10.974792714409366"><ele>26.0</ele><time>2026-04-19T08:18:28.998Z</time></trkpt><trkpt lat="43.72142648296271" lon="10.974921334547705"><ele>26.0</ele><time>2026-04-19T08:18:29.998Z</time></trkpt><trkpt lat="43.72141111026627" lon="10.975034204754932"><ele>26.142857142857142</ele><time>2026-04-19T08:18:30.998Z</time></trkpt><trkpt lat="43.72139515958195" lon="10.975133196960515"><ele>26.28571428571429</ele><time>2026-04-19T08:18:31.998Z</time></trkpt><trkpt lat="43.72137910444272" lon="10.975227033344273"><ele>26.42857142857143</ele><time>2026-04-19T08:18:32.998Z</time></trkpt><trkpt lat="43.72136236430121" lon="10.975316348280604"><ele>26.57142857142857</ele><time>2026-04-19T08:18:33.998Z</time></trkpt><trkpt lat="43.721342858923016" lon="10.975411604048633"><ele>26.714285714285715</ele><time>2026-04-19T08:18:34.998Z</time></trkpt><trkpt lat="43.7213242327831" lon="10.975501123427062"><ele>26.857142857142858</ele><time>2026-04-19T08:18:35.998Z</time></trkpt><trkpt lat="43.72130429224094" lon="10.975590547116454"><ele>27.0</ele><time>2026-04-19T08:18:37Z</time></trkpt><trkpt lat="43.72128316789388" lon="10.975674058972384"><ele>27.0</ele><time>2026-04-19T08:18:38Z</time></trkpt><trkpt lat="43.721242421981025" lon="10.975837979073487"><ele>27.0</ele><time>2026-04-19T08:18:40Z</time></trkpt><trkpt lat="43.72122090447801" lon="10.975927722873147"><ele>27.0</ele><time>2026-04-19T08:18:41Z</time></trkpt><trkpt lat="43.72119401016088" lon="10.976018943912102"><ele>27.0</ele><time>2026-04-19T08:18:42Z</time></trkpt><trkpt lat="43.72116705149722" lon="10.976106933683056"><ele>27.0</ele><time>2026-04-19T08:18:43Z</time></trkpt><trkpt lat="43.721137682675185" lon="10.976200588836948"><ele>27.0</ele><time>2026-04-19T08:18:44Z</time></trkpt><trkpt lat="43.72110586132353" lon="10.976306965979003"><ele>26.8</ele><time>2026-04-19T08:18:45Z</time></trkpt><trkpt lat="43.72107321661948" lon="10.976421631687645"><ele>26.6</ele><time>2026-04-19T08:18:46Z</time></trkpt><trkpt lat="43.721039694317355" lon="10.976546152395922"><ele>26.400000000000002</ele><time>2026-04-19T08:18:47Z</time></trkpt><trkpt lat="43.72100249779755" lon="10.97667848475045"><ele>26.200000000000003</ele><time>2026-04-19T08:18:48Z</time></trkpt><trkpt lat="43.720964167921686" lon="10.97680949736119"><ele>26.0</ele><time>2026-04-19T08:18:49Z</time></trkpt><trkpt lat="43.720924589450036" lon="10.97694582080448"><ele>26.0</ele><time>2026-04-19T08:18:50Z</time></trkpt><trkpt lat="43.72088346388753" lon="10.977089820946375"><ele>26.0</ele><time>2026-04-19T08:18:51Z</time></trkpt><trkpt lat="43.720842391478826" lon="10.977234747442807"><ele>26.0</ele><time>2026-04-19T08:18:52Z</time></trkpt><trkpt lat="43.720804885153065" lon="10.977386211954334"><ele>26.0</ele><time>2026-04-19T08:18:53Z</time></trkpt><trkpt lat="43.720771366840786" lon="10.977544817733751"><ele>26.25</ele><time>2026-04-19T08:18:54Z</time></trkpt><trkpt lat="43.72073820796693" lon="10.977705978010565"><ele>26.5</ele><time>2026-04-19T08:18:55Z</time></trkpt><trkpt lat="43.720708450978336" lon="10.977872949967322"><ele>26.75</ele><time>2026-04-19T08:18:56Z</time></trkpt><trkpt lat="43.72068397294649" lon="10.97804092539898"><ele>27.0</ele><time>2026-04-19T08:18:57Z</time></trkpt><trkpt lat="43.72066370185308" lon="10.9782076379245"><ele>27.0</ele><time>2026-04-19T08:18:58Z</time></trkpt><trkpt lat="43.720645592210424" lon="10.978371672615548"><ele>27.0</ele><time>2026-04-19T08:18:59Z</time></trkpt><trkpt lat="43.72063176433089" lon="10.978535471379537"><ele>27.0</ele><time>2026-04-19T08:19:00Z</time></trkpt><trkpt lat="43.72062014093518" lon="10.978698881016689"><ele>27.0</ele><time>2026-04-19T08:19:01Z</time></trkpt><trkpt lat="43.72060872917233" lon="10.978859208530748"><ele>27.0</ele><time>2026-04-19T08:19:02Z</time></trkpt><trkpt lat="43.720595479675175" lon="10.979020868850593"><ele>27.0</ele><time>2026-04-19T08:19:03Z</time></trkpt><trkpt lat="43.72058631021945" lon="10.979182600734685"><ele>27.0</ele><time>2026-04-19T08:19:04Z</time></trkpt><trkpt lat="43.72058076977383" lon="10.97934292038658"><ele>27.0</ele><time>2026-04-19T08:19:05Z</time></trkpt><trkpt lat="43.720578489909926" lon="10.979501482152275"><ele>27.0</ele><time>2026-04-19T08:19:06Z</time></trkpt><trkpt lat="43.72058044789997" lon="10.979658562945307"><ele>27.0</ele><time>2026-04-19T08:19:07Z</time></trkpt><trkpt lat="43.72058763809924" lon="10.979819976431827"><ele>27.0</ele><time>2026-04-19T08:19:08Z</time></trkpt><trkpt lat="43.72060049410336" lon="10.979982602209212"><ele>27.0</ele><time>2026-04-19T08:19:09Z</time></trkpt><trkpt lat="43.720618140681346" lon="10.98014843792494"><ele>27.25</ele><time>2026-04-19T08:19:10Z</time></trkpt><trkpt lat="43.720645658989305" lon="10.980317135473157"><ele>27.5</ele><time>2026-04-19T08:19:11Z</time></trkpt><trkpt lat="43.72068256272144" lon="10.980486286018946"><ele>27.75</ele><time>2026-04-19T08:19:12Z</time></trkpt><trkpt lat="43.72072248033648" lon="10.98065783919771"><ele>28.0</ele><time>2026-04-19T08:19:13Z</time></trkpt><trkpt lat="43.720767552433045" lon="10.980827562571424"><ele>27.75</ele><time>2026-04-19T08:19:14Z</time></trkpt><trkpt lat="43.72082004666714" lon="10.980990929767188"><ele>27.5</ele><time>2026-04-19T08:19:15Z</time></trkpt><trkpt lat="43.72088359627719" lon="10.98114782355136"><ele>27.25</ele><time>2026-04-19T08:19:16Z</time></trkpt><trkpt lat="43.72094501246678" lon="10.981289254673591"><ele>27.0</ele><time>2026-04-19T08:19:17Z</time></trkpt><trkpt lat="43.721003396761375" lon="10.981414408038257"><ele>27.0</ele><time>2026-04-19T08:19:18Z</time></trkpt><trkpt lat="43.72105996148095" lon="10.981528888044148"><ele>27.0</ele><time>2026-04-19T08:19:19Z</time></trkpt><trkpt lat="43.721111486817044" lon="10.981629999156086"><ele>27.0</ele><time>2026-04-19T08:19:20Z</time></trkpt><trkpt lat="43.72115874462747" lon="10.981728348619491"><ele>27.0</ele><time>2026-04-19T08:19:21Z</time></trkpt><trkpt lat="43.72120006168883" lon="10.981824863879053"><ele>27.0</ele><time>2026-04-19T08:19:22Z</time></trkpt><trkpt lat="43.721232300621026" lon="10.98192139642036"><ele>27.0</ele><time>2026-04-19T08:19:23Z</time></trkpt><trkpt lat="43.72125075710263" lon="10.982017632570082"><ele>26.833333333333332</ele><time>2026-04-19T08:19:24Z</time></trkpt><trkpt lat="43.72125374186105" lon="10.982108100221097"><ele>26.666666666666664</ele><time>2026-04-19T08:19:25Z</time></trkpt><trkpt lat="43.72123862751841" lon="10.982267976720447"><ele>26.5</ele><time>2026-04-19T08:19:27Z</time></trkpt><trkpt lat="43.72120267582584" lon="10.98235761142074"><ele>26.333333333333332</ele><time>2026-04-19T08:19:28Z</time></trkpt><trkpt lat="43.7211551488668" lon="10.982455207724922"><ele>26.166666666666664</ele><time>2026-04-19T08:19:28.999Z</time></trkpt><trkpt lat="43.721109108833026" lon="10.982564277537518"><ele>26.0</ele><time>2026-04-19T08:19:29.999Z</time></trkpt><trkpt lat="43.721089945754876" lon="10.98267271998129"><ele>25.999999999999996</ele><time>2026-04-19T08:19:30.999Z</time></trkpt><trkpt lat="43.72109360276006" lon="10.982780571438077"><ele>26.0</ele><time>2026-04-19T08:19:31.999Z</time></trkpt><trkpt lat="43.72112087538082" lon="10.982891689795693"><ele>26.0</ele><time>2026-04-19T08:19:32.999Z</time></trkpt><trkpt lat="43.721172266183345" lon="10.982979742436674"><ele>26.0</ele><time>2026-04-19T08:19:33.999Z</time></trkpt><trkpt lat="43.72124283240696" lon="10.983037166542399"><ele>25.999999999999996</ele><time>2026-04-19T08:19:34.999Z</time></trkpt><trkpt lat="43.72132453509998" lon="10.983066636174605"><ele>26.0</ele><time>2026-04-19T08:19:35.999Z</time></trkpt><trkpt lat="43.72142103705424" lon="10.983051848172382"><ele>26.0</ele><time>2026-04-19T08:19:36.999Z</time></trkpt><trkpt lat="43.72152414277037" lon="10.983008480120654"><ele>26.0</ele><time>2026-04-19T08:19:37.999Z</time></trkpt><trkpt lat="43.72162853712134" lon="10.982968118284669"><ele>26.0</ele><time>2026-04-19T08:19:38.999Z</time></trkpt><trkpt lat="43.721721786966675" lon="10.982957783329606"><ele>26.0</ele><time>2026-04-19T08:19:39.999Z</time></trkpt><trkpt lat="43.72182295717211" lon="10.982970122110931"><ele>26.0</ele><time>2026-04-19T08:19:40.999Z</time></trkpt><trkpt lat="43.721929344748276" lon="10.983006115933446"><ele>26.0</ele><time>2026-04-19T08:19:41.999Z</time></trkpt><trkpt lat="43.72203602660495" lon="10.983137800542151"><ele>26.0</ele><time>2026-04-19T08:19:42.999Z</time></trkpt><trkpt lat="43.7221357451274" lon="10.983265084751922"><ele>26.0</ele><time>2026-04-19T08:19:43.999Z</time></trkpt><trkpt lat="43.722238520135384" lon="10.98339948751649"><ele>26.0</ele><time>2026-04-19T08:19:44.999Z</time></trkpt><trkpt lat="43.722353232007784" lon="10.983550806129523"><ele>26.0</ele><time>2026-04-19T08:19:45.999Z</time></trkpt><trkpt lat="43.722476747721394" lon="10.983710283229774"><ele>26.0</ele><time>2026-04-19T08:19:46.999Z</time></trkpt><trkpt lat="43.72259615767453" lon="10.983861030627112"><ele>26.0</ele><time>2026-04-19T08:19:47.999Z</time></trkpt><trkpt lat="43.722717011337515" lon="10.984018752946119"><ele>26.0</ele><time>2026-04-19T08:19:48.999Z</time></trkpt><trkpt lat="43.72283669159577" lon="10.984179904495797"><ele>26.0</ele><time>2026-04-19T08:19:49.999Z</time></trkpt><trkpt lat="43.72295694460083" lon="10.984338948139236"><ele>26.0</ele><time>2026-04-19T08:19:50.999Z</time></trkpt><trkpt lat="43.723076157519515" lon="10.98449676173045"><ele>26.0</ele><time>2026-04-19T08:19:51.999Z</time></trkpt><trkpt lat="43.7231900791817" lon="10.984655475083093"><ele>26.0</ele><time>2026-04-19T08:19:52.999Z</time></trkpt><trkpt lat="43.723305562716305" lon="10.984814433096892"><ele>26.0</ele><time>2026-04-19T08:19:53.999Z</time></trkpt><trkpt lat="43.723414214471475" lon="10.984978903323162"><ele>25.666666666666664</ele><time>2026-04-19T08:19:54.999Z</time></trkpt><trkpt lat="43.72350507892467" lon="10.985161650652023"><ele>25.333333333333336</ele><time>2026-04-19T08:19:55.999Z</time></trkpt><trkpt lat="43.72357292654411" lon="10.985355125144224"><ele>25.0</ele><time>2026-04-19T08:19:56.999Z</time></trkpt><trkpt lat="43.723625195159165" lon="10.985552868227296"><ele>25.0</ele><time>2026-04-19T08:19:57.999Z</time></trkpt><trkpt lat="43.72366502938865" lon="10.985743226922779"><ele>25.0</ele><time>2026-04-19T08:19:58.999Z</time></trkpt><trkpt lat="43.72370373697251" lon="10.985921473561355"><ele>25.0</ele><time>2026-04-19T08:19:59.999Z</time></trkpt><trkpt lat="43.72375029450418" lon="10.98608584574228"><ele>25.0</ele><time>2026-04-19T08:20:00.999Z</time></trkpt><trkpt lat="43.72380723459506" lon="10.986230985924777"><ele>25.0</ele><time>2026-04-19T08:20:01.999Z</time></trkpt><trkpt lat="43.72387034097628" lon="10.98636694598366"><ele>25.0</ele><time>2026-04-19T08:20:02.999Z</time></trkpt><trkpt lat="43.723945159416495" lon="10.986497757417599"><ele>25.0</ele><time>2026-04-19T08:20:03.999Z</time></trkpt><trkpt lat="43.724030865936875" lon="10.986613941062116"><ele>25.0</ele><time>2026-04-19T08:20:04.999Z</time></trkpt><trkpt lat="43.72412086736821" lon="10.98671780895254"><ele>25.0</ele><time>2026-04-19T08:20:05.999Z</time></trkpt><trkpt lat="43.724216139387366" lon="10.986808080952319"><ele>25.0</ele><time>2026-04-19T08:20:06.999Z</time></trkpt><trkpt lat="43.72431077306275" lon="10.98689379353017"><ele>25.0</ele><time>2026-04-19T08:20:07.999Z</time></trkpt><trkpt lat="43.72440381828577" lon="10.986980747216952"><ele>25.0</ele><time>2026-04-19T08:20:08.999Z</time></trkpt><trkpt lat="43.724499763942845" lon="10.987071548945982"><ele>25.75</ele><time>2026-04-19T08:20:09.999Z</time></trkpt><trkpt lat="43.724600376404965" lon="10.987162909517885"><ele>26.5</ele><time>2026-04-19T08:20:10.999Z</time></trkpt><trkpt lat="43.724701175887425" lon="10.98725677213298"><ele>27.25</ele><time>2026-04-19T08:20:11.999Z</time></trkpt><trkpt lat="43.72479637691339" lon="10.987363057934648"><ele>28.0</ele><time>2026-04-19T08:20:12.999Z</time></trkpt><trkpt lat="43.72488951731791" lon="10.987473371099805"><ele>27.75</ele><time>2026-04-19T08:20:13.999Z</time></trkpt><trkpt lat="43.72498223115387" lon="10.987587849722074"><ele>27.5</ele><time>2026-04-19T08:20:14.999Z</time></trkpt><trkpt lat="43.72507424551523" lon="10.987705676732507"><ele>27.25</ele><time>2026-04-19T08:20:15.999Z</time></trkpt><trkpt lat="43.7251635311692" lon="10.987823426539338"><ele>27.0</ele><time>2026-04-19T08:20:16.999Z</time></trkpt><trkpt lat="43.72525083177259" lon="10.987937879181713"><ele>27.0</ele><time>2026-04-19T08:20:17.999Z</time></trkpt><trkpt lat="43.72533761061608" lon="10.98805271750036"><ele>27.0</ele><time>2026-04-19T08:20:18.999Z</time></trkpt><trkpt lat="43.72542260791381" lon="10.98816726930167"><ele>27.0</ele><time>2026-04-19T08:20:19.998Z</time></trkpt><trkpt lat="43.72550704669199" lon="10.988280140651565"><ele>27.0</ele><time>2026-04-19T08:20:20.998Z</time></trkpt><trkpt lat="43.72559423843856" lon="10.988396506244426"><ele>27.0</ele><time>2026-04-19T08:20:21.998Z</time></trkpt><trkpt lat="43.72568323301838" lon="10.988509669998601"><ele>27.0</ele><time>2026-04-19T08:20:22.998Z</time></trkpt><trkpt lat="43.72577469763632" lon="10.988621072927137"><ele>27.0</ele><time>2026-04-19T08:20:23.998Z</time></trkpt><trkpt lat="43.72586745416772" lon="10.98873306657656"><ele>27.0</ele><time>2026-04-19T08:20:24.998Z</time></trkpt><trkpt lat="43.72595923517786" lon="10.988844152615396"><ele>27.0</ele><time>2026-04-19T08:20:25.998Z</time></trkpt><trkpt lat="43.726047489732515" lon="10.98895545723798"><ele>27.0</ele><time>2026-04-19T08:20:26.998Z</time></trkpt><trkpt lat="43.726133811717716" lon="10.989067839053266"><ele>27.0</ele><time>2026-04-19T08:20:27.998Z</time></trkpt><trkpt lat="43.72621652338902" lon="10.98917823309193"><ele>27.0</ele><time>2026-04-19T08:20:28.998Z</time></trkpt><trkpt lat="43.726298314146895" lon="10.989285400144542"><ele>26.8</ele><time>2026-04-19T08:20:29.998Z</time></trkpt><trkpt lat="43.72637727305445" lon="10.98939003845596"><ele>26.6</ele><time>2026-04-19T08:20:30.998Z</time></trkpt><trkpt lat="43.72645099797337" lon="10.989492021796401"><ele>26.400000000000002</ele><time>2026-04-19T08:20:31.998Z</time></trkpt><trkpt lat="43.72652396787739" lon="10.98959699523508"><ele>26.200000000000003</ele><time>2026-04-19T08:20:32.998Z</time></trkpt><trkpt lat="43.726601342106626" lon="10.989700888064798"><ele>26.0</ele><time>2026-04-19T08:20:33.998Z</time></trkpt><trkpt lat="43.726676526437" lon="10.98980170639302"><ele>25.999999999999996</ele><time>2026-04-19T08:20:34.998Z</time></trkpt><trkpt lat="43.72674346661244" lon="10.98989927901756"><ele>26.0</ele><time>2026-04-19T08:20:35.998Z</time></trkpt><trkpt lat="43.726804269963026" lon="10.989992983079917"><ele>26.0</ele><time>2026-04-19T08:20:36.998Z</time></trkpt><trkpt lat="43.726859848728644" lon="10.990084013936588"><ele>26.0</ele><time>2026-04-19T08:20:37.998Z</time></trkpt><trkpt lat="43.72691299308358" lon="10.990174524868912"><ele>25.999999999999996</ele><time>2026-04-19T08:20:38.998Z</time></trkpt><trkpt lat="43.72695643762543" lon="10.990281071002688"><ele>26.0</ele><time>2026-04-19T08:20:39.998Z</time></trkpt><trkpt lat="43.7269806893584" lon="10.990401893580446"><ele>25.6</ele><time>2026-04-19T08:20:40.998Z</time></trkpt><trkpt lat="43.7269934302297" lon="10.990525384485665"><ele>25.200000000000003</ele><time>2026-04-19T08:20:41.998Z</time></trkpt><trkpt lat="43.727001842157584" lon="10.990664652819682"><ele>24.799999999999997</ele><time>2026-04-19T08:20:43Z</time></trkpt><trkpt lat="43.72700537141828" lon="10.990811129007419"><ele>24.4</ele><time>2026-04-19T08:20:44Z</time></trkpt><trkpt lat="43.727007752665315" lon="10.990956678634094"><ele>24.0</ele><time>2026-04-19T08:20:45Z</time></trkpt><trkpt lat="43.72700757241218" lon="10.991091899924646"><ele>23.75</ele><time>2026-04-19T08:20:46Z</time></trkpt><trkpt lat="43.72701126848842" lon="10.991222462449157"><ele>23.5</ele><time>2026-04-19T08:20:47Z</time></trkpt><trkpt lat="43.7270303653602" lon="10.991366072244883"><ele>23.25</ele><time>2026-04-19T08:20:48Z</time></trkpt><trkpt lat="43.727062567364214" lon="10.99152664951107"><ele>23.0</ele><time>2026-04-19T08:20:49Z</time></trkpt><trkpt lat="43.72707991904815" lon="10.991721576883279"><ele>23.5</ele><time>2026-04-19T08:20:50Z</time></trkpt><trkpt lat="43.72711900134716" lon="10.991890721758717"><ele>24.0</ele><time>2026-04-19T08:20:51Z</time></trkpt><trkpt lat="43.72714026475072" lon="10.992048873297506"><ele>24.5</ele><time>2026-04-19T08:20:52Z</time></trkpt><trkpt lat="43.72716588657252" lon="10.992197761136659"><ele>25.0</ele><time>2026-04-19T08:20:53Z</time></trkpt><trkpt lat="43.72718904156518" lon="10.992336896247949"><ele>25.0</ele><time>2026-04-19T08:20:54Z</time></trkpt><trkpt lat="43.72720917279877" lon="10.992468111056372"><ele>25.0</ele><time>2026-04-19T08:20:55Z</time></trkpt><trkpt lat="43.72723008167243" lon="10.992602361511091"><ele>25.0</ele><time>2026-04-19T08:20:56Z</time></trkpt><trkpt lat="43.7272529165887" lon="10.992734797541564"><ele>25.0</ele><time>2026-04-19T08:20:57Z</time></trkpt><trkpt lat="43.727276100549105" lon="10.992862734905678"><ele>25.0</ele><time>2026-04-19T08:20:58Z</time></trkpt><trkpt lat="43.72729465742322" lon="10.992973458813804"><ele>24.833333333333336</ele><time>2026-04-19T08:20:59Z</time></trkpt><trkpt lat="43.72731073344614" lon="10.993067258268013"><ele>24.666666666666668</ele><time>2026-04-19T08:21:00Z</time></trkpt><trkpt lat="43.72733267071255" lon="10.993217502802525"><ele>24.5</ele><time>2026-04-19T08:21:02Z</time></trkpt><trkpt lat="43.727351030924645" lon="10.993344993610839"><ele>24.333333333333336</ele><time>2026-04-19T08:21:04Z</time></trkpt><trkpt lat="43.72735450336801" lon="10.993440607692467"><ele>24.166666666666668</ele><time>2026-04-19T08:21:05Z</time></trkpt><trkpt lat="43.7273629433157" lon="10.993547429181918"><ele>24.0</ele><time>2026-04-19T08:21:06Z</time></trkpt><trkpt lat="43.7273906754575" lon="10.99366998666482"><ele>24.4</ele><time>2026-04-19T08:21:07Z</time></trkpt><trkpt lat="43.727423262702615" lon="10.993789499029951"><ele>24.799999999999997</ele><time>2026-04-19T08:21:08Z</time></trkpt><trkpt lat="43.72745734951559" lon="10.993925634320414"><ele>25.200000000000003</ele><time>2026-04-19T08:21:09Z</time></trkpt><trkpt lat="43.7274827728599" lon="10.994087425576707"><ele>25.6</ele><time>2026-04-19T08:21:10Z</time></trkpt><trkpt lat="43.72750755399807" lon="10.994253741519683"><ele>26.0</ele><time>2026-04-19T08:21:11Z</time></trkpt><trkpt lat="43.72753379663603" lon="10.994417656011555"><ele>26.25</ele><time>2026-04-19T08:21:12Z</time></trkpt><trkpt lat="43.727562846796545" lon="10.99458819876785"><ele>26.5</ele><time>2026-04-19T08:21:13Z</time></trkpt><trkpt lat="43.72759334163861" lon="10.994756835717311"><ele>26.75</ele><time>2026-04-19T08:21:14Z</time></trkpt><trkpt lat="43.72761950609512" lon="10.994921130820241"><ele>27.0</ele><time>2026-04-19T08:21:15Z</time></trkpt><trkpt lat="43.72764556503258" lon="10.99508068727683"><ele>27.25</ele><time>2026-04-19T08:21:16Z</time></trkpt><trkpt lat="43.727673172498484" lon="10.995238231698503"><ele>27.5</ele><time>2026-04-19T08:21:17Z</time></trkpt><trkpt lat="43.72770232179595" lon="10.995395199882445"><ele>27.75</ele><time>2026-04-19T08:21:18Z</time></trkpt><trkpt lat="43.72773088947756" lon="10.995557421557821"><ele>28.0</ele><time>2026-04-19T08:21:19Z</time></trkpt><trkpt lat="43.72775889426716" lon="10.995722258494604"><ele>28.0</ele><time>2026-04-19T08:21:20Z</time></trkpt><trkpt lat="43.72779217422912" lon="10.99590875528872"><ele>28.0</ele><time>2026-04-19T08:21:21Z</time></trkpt><trkpt lat="43.72783699829355" lon="10.996122343979009"><ele>28.0</ele><time>2026-04-19T08:21:22Z</time></trkpt><trkpt lat="43.72788190804901" lon="10.996368011961914"><ele>28.0</ele><time>2026-04-19T08:21:23Z</time></trkpt><trkpt lat="43.72791896891064" lon="10.996624724912927"><ele>28.0</ele><time>2026-04-19T08:21:24Z</time></trkpt><trkpt lat="43.7279554087409" lon="10.996886549210084"><ele>28.0</ele><time>2026-04-19T08:21:25Z</time></trkpt><trkpt lat="43.727996572182754" lon="10.99712637913059"><ele>28.0</ele><time>2026-04-19T08:21:26Z</time></trkpt><trkpt lat="43.72803559669662" lon="10.997348961041187"><ele>28.0</ele><time>2026-04-19T08:21:27Z</time></trkpt><trkpt lat="43.72807056165056" lon="10.997559363686534"><ele>28.0</ele><time>2026-04-19T08:21:28Z</time></trkpt><trkpt lat="43.728101871233065" lon="10.997756229830774"><ele>28.0</ele><time>2026-04-19T08:21:29Z</time></trkpt><trkpt lat="43.728130103391045" lon="10.997944396143916"><ele>28.0</ele><time>2026-04-19T08:21:30Z</time></trkpt><trkpt lat="43.72816143718601" lon="10.998135549909703"><ele>28.0</ele><time>2026-04-19T08:21:30.999Z</time></trkpt><trkpt lat="43.72819725145923" lon="10.998328696975744"><ele>28.0</ele><time>2026-04-19T08:21:31.999Z</time></trkpt><trkpt lat="43.72823330554084" lon="10.99851990410028"><ele>28.0</ele><time>2026-04-19T08:21:32.999Z</time></trkpt><trkpt lat="43.728264711583876" lon="10.99871174951326"><ele>28.0</ele><time>2026-04-19T08:21:33.999Z</time></trkpt><trkpt lat="43.72829274360113" lon="10.99890069644517"><ele>28.0</ele><time>2026-04-19T08:21:34.999Z</time></trkpt><trkpt lat="43.72832111250766" lon="10.999090610083474"><ele>28.0</ele><time>2026-04-19T08:21:35.999Z</time></trkpt><trkpt lat="43.72835420083865" lon="10.999283673162616"><ele>28.0</ele><time>2026-04-19T08:21:36.999Z</time></trkpt><trkpt lat="43.728388313187835" lon="10.999464687366533"><ele>28.0</ele><time>2026-04-19T08:21:37.999Z</time></trkpt><trkpt lat="43.72841806699791" lon="10.99963214288962"><ele>28.0</ele><time>2026-04-19T08:21:38.999Z</time></trkpt><trkpt lat="43.728444312799795" lon="10.999788510213637"><ele>28.0</ele><time>2026-04-19T08:21:39.999Z</time></trkpt><trkpt lat="43.72846881286813" lon="10.999933159669778"><ele>28.000000000000004</ele><time>2026-04-19T08:21:40.999Z</time></trkpt><trkpt lat="43.72849270123287" lon="11.000067431849619"><ele>28.0</ele><time>2026-04-19T08:21:41.999Z</time></trkpt><trkpt lat="43.72851490527264" lon="11.000191056678112"><ele>28.0</ele><time>2026-04-19T08:21:42.999Z</time></trkpt><trkpt lat="43.72853182016888" lon="11.00030729729622"><ele>28.0</ele><time>2026-04-19T08:21:43.999Z</time></trkpt><trkpt lat="43.72854823307109" lon="11.000413661339834"><ele>28.000000000000004</ele><time>2026-04-19T08:21:44.999Z</time></trkpt><trkpt lat="43.72856111449069" lon="11.000501674601997"><ele>28.0</ele><time>2026-04-19T08:21:45.998Z</time></trkpt><trkpt lat="43.72857434606319" lon="11.000623695704116"><ele>28.0</ele><time>2026-04-19T08:21:47.998Z</time></trkpt><trkpt lat="43.72857201740271" lon="11.000745794886775"><ele>27.999999999999996</ele><time>2026-04-19T08:21:54.998Z</time></trkpt><trkpt lat="43.728554332562744" lon="11.000919226252389"><ele>27.999999999999996</ele><time>2026-04-19T08:21:56.998Z</time></trkpt><trkpt lat="43.72852147243803" lon="11.001026735049322"><ele>28.0</ele><time>2026-04-19T08:21:57.998Z</time></trkpt><trkpt lat="43.72849625485977" lon="11.001170986422876"><ele>28.0</ele><time>2026-04-19T08:21:58.998Z</time></trkpt><trkpt lat="43.728477392401935" lon="11.001345519758042"><ele>28.0</ele><time>2026-04-19T08:21:59.998Z</time></trkpt><trkpt lat="43.72844366948248" lon="11.001527533780497"><ele>28.0</ele><time>2026-04-19T08:22:00.998Z</time></trkpt><trkpt lat="43.728379692156565" lon="11.001706269661085"><ele>28.0</ele><time>2026-04-19T08:22:01.998Z</time></trkpt><trkpt lat="43.728326229199155" lon="11.0019053202256"><ele>28.0</ele><time>2026-04-19T08:22:02.998Z</time></trkpt><trkpt lat="43.72829271492644" lon="11.00213984448487"><ele>28.0</ele><time>2026-04-19T08:22:03.998Z</time></trkpt><trkpt lat="43.728262112088764" lon="11.00240058160301"><ele>28.0</ele><time>2026-04-19T08:22:04.998Z</time></trkpt><trkpt lat="43.72822732058189" lon="11.00268397834746"><ele>28.0</ele><time>2026-04-19T08:22:05.998Z</time></trkpt><trkpt lat="43.7281870675027" lon="11.002960064227736"><ele>28.333333333333336</ele><time>2026-04-19T08:22:06.998Z</time></trkpt><trkpt lat="43.72814470199749" lon="11.00324986950405"><ele>28.666666666666664</ele><time>2026-04-19T08:22:07.998Z</time></trkpt><trkpt lat="43.728106562745246" lon="11.003514706718706"><ele>29.0</ele><time>2026-04-19T08:22:08.998Z</time></trkpt><trkpt lat="43.728073396779415" lon="11.00376205650764"><ele>30.333333333333332</ele><time>2026-04-19T08:22:09.998Z</time></trkpt><trkpt lat="43.728041981905236" lon="11.003994062581278"><ele>31.666666666666664</ele><time>2026-04-19T08:22:10.998Z</time></trkpt><trkpt lat="43.72801274286062" lon="11.004212190787683"><ele>33.0</ele><time>2026-04-19T08:22:11.998Z</time></trkpt><trkpt lat="43.727984997992884" lon="11.00441744011518"><ele>33.25</ele><time>2026-04-19T08:22:12.998Z</time></trkpt><trkpt lat="43.72795394036887" lon="11.004613986556532"><ele>33.5</ele><time>2026-04-19T08:22:13.998Z</time></trkpt><trkpt lat="43.72791909804956" lon="11.004808924545236"><ele>33.75</ele><time>2026-04-19T08:22:14.998Z</time></trkpt><trkpt lat="43.72788902013081" lon="11.005000995074147"><ele>34.0</ele><time>2026-04-19T08:22:15.998Z</time></trkpt><trkpt lat="43.72786493425689" lon="11.005185483820336"><ele>34.0</ele><time>2026-04-19T08:22:16.998Z</time></trkpt><trkpt lat="43.7278420310491" lon="11.005364140160365"><ele>34.0</ele><time>2026-04-19T08:22:17.998Z</time></trkpt><trkpt lat="43.72782148744932" lon="11.005541520123309"><ele>34.0</ele><time>2026-04-19T08:22:18.998Z</time></trkpt><trkpt lat="43.72779968262542" lon="11.00572069505045"><ele>34.0</ele><time>2026-04-19T08:22:19.998Z</time></trkpt><trkpt lat="43.72777659426436" lon="11.005893185079335"><ele>34.5</ele><time>2026-04-19T08:22:20.998Z</time></trkpt><trkpt lat="43.727753480429556" lon="11.006066684522652"><ele>35.0</ele><time>2026-04-19T08:22:21.998Z</time></trkpt><trkpt lat="43.72773186636637" lon="11.006241945828693"><ele>35.5</ele><time>2026-04-19T08:22:22.998Z</time></trkpt><trkpt lat="43.7277118493817" lon="11.006424209969316"><ele>36.0</ele><time>2026-04-19T08:22:23.998Z</time></trkpt><trkpt lat="43.727692894694" lon="11.006608841177062"><ele>36.0</ele><time>2026-04-19T08:22:24.998Z</time></trkpt><trkpt lat="43.7276768797747" lon="11.006807125214742"><ele>36.0</ele><time>2026-04-19T08:22:25.998Z</time></trkpt><trkpt lat="43.72763691426225" lon="11.007014975504811"><ele>36.0</ele><time>2026-04-19T08:22:26.998Z</time></trkpt><trkpt lat="43.72760678579821" lon="11.007238435455422"><ele>36.0</ele><time>2026-04-19T08:22:27.998Z</time></trkpt><trkpt lat="43.72758585138764" lon="11.007463625188853"><ele>36.0</ele><time>2026-04-19T08:22:28.998Z</time></trkpt><trkpt lat="43.72754307478775" lon="11.007684331018162"><ele>36.0</ele><time>2026-04-19T08:22:29.998Z</time></trkpt><trkpt lat="43.727507079132806" lon="11.007906795299757"><ele>36.25</ele><time>2026-04-19T08:22:30.998Z</time></trkpt><trkpt lat="43.72747496614051" lon="11.008123936753368"><ele>36.5</ele><time>2026-04-19T08:22:31.998Z</time></trkpt><trkpt lat="43.72744072272852" lon="11.008324753668349"><ele>36.75</ele><time>2026-04-19T08:22:32.998Z</time></trkpt><trkpt lat="43.72740474318726" lon="11.008510860771397"><ele>37.0</ele><time>2026-04-19T08:22:33.998Z</time></trkpt><trkpt lat="43.727365854961455" lon="11.008682800879058"><ele>37.5</ele><time>2026-04-19T08:22:34.998Z</time></trkpt><trkpt lat="43.727327401383555" lon="11.008846427206882"><ele>38.0</ele><time>2026-04-19T08:22:35.997Z</time></trkpt><trkpt lat="43.72728952268418" lon="11.008996528771249"><ele>38.5</ele><time>2026-04-19T08:22:36.997Z</time></trkpt><trkpt lat="43.72725119005373" lon="11.009137843713418"><ele>39.0</ele><time>2026-04-19T08:22:37.997Z</time></trkpt><trkpt lat="43.72721237747554" lon="11.009268074829727"><ele>39.2</ele><time>2026-04-19T08:22:38.997Z</time></trkpt><trkpt lat="43.727171672877375" lon="11.009389748921718"><ele>39.4</ele><time>2026-04-19T08:22:39.997Z</time></trkpt><trkpt lat="43.72713266999906" lon="11.009498730127863"><ele>39.6</ele><time>2026-04-19T08:22:40.997Z</time></trkpt><trkpt lat="43.72709703082054" lon="11.009585063187368"><ele>39.8</ele><time>2026-04-19T08:22:41.997Z</time></trkpt><trkpt lat="43.72702405496757" lon="11.009703100203298"><ele>40.0</ele><time>2026-04-19T08:22:43.997Z</time></trkpt><trkpt lat="43.72692373049811" lon="11.009782433838401"><ele>40.0</ele><time>2026-04-19T08:22:45.997Z</time></trkpt><trkpt lat="43.72685146314166" lon="11.009910462403901"><ele>40.0</ele><time>2026-04-19T08:22:47.997Z</time></trkpt><trkpt lat="43.72683735164793" lon="11.010006822865503"><ele>40.0</ele><time>2026-04-19T08:22:49Z</time></trkpt><trkpt lat="43.72684284968637" lon="11.010121938131073"><ele>40.0</ele><time>2026-04-19T08:22:50Z</time></trkpt><trkpt lat="43.72686021084561" lon="11.010249936264447"><ele>40.0</ele><time>2026-04-19T08:22:51Z</time></trkpt><trkpt lat="43.726867436150535" lon="11.010384907128708"><ele>40.0</ele><time>2026-04-19T08:22:52Z</time></trkpt><trkpt lat="43.726857576906504" lon="11.010515471394143"><ele>40.0</ele><time>2026-04-19T08:22:53Z</time></trkpt><trkpt lat="43.72683760923631" lon="11.010651141506434"><ele>40.0</ele><time>2026-04-19T08:22:54Z</time></trkpt><trkpt lat="43.726811358114844" lon="11.010793468492581"><ele>40.0</ele><time>2026-04-19T08:22:55Z</time></trkpt><trkpt lat="43.72677782797732" lon="11.01093862141498"><ele>40.0</ele><time>2026-04-19T08:22:56Z</time></trkpt><trkpt lat="43.72673873615607" lon="11.01108550605497"><ele>40.0</ele><time>2026-04-19T08:22:57Z</time></trkpt><trkpt lat="43.72669466814934" lon="11.011236341810003"><ele>40.0</ele><time>2026-04-19T08:22:58Z</time></trkpt><trkpt lat="43.72665252154484" lon="11.011388088857075"><ele>40.0</ele><time>2026-04-19T08:22:59Z</time></trkpt><trkpt lat="43.72661393305829" lon="11.011534040539763"><ele>40.0</ele><time>2026-04-19T08:23:00Z</time></trkpt><trkpt lat="43.726575309329945" lon="11.011674888792212"><ele>40.2</ele><time>2026-04-19T08:23:01Z</time></trkpt><trkpt lat="43.7265355393936" lon="11.011813601050214"><ele>40.4</ele><time>2026-04-19T08:23:02Z</time></trkpt><trkpt lat="43.72649808016478" lon="11.011949544194213"><ele>40.599999999999994</ele><time>2026-04-19T08:23:03Z</time></trkpt><trkpt lat="43.726465358274176" lon="11.012085422456053"><ele>40.8</ele><time>2026-04-19T08:23:04Z</time></trkpt><trkpt lat="43.72643232067125" lon="11.012216254532142"><ele>41.0</ele><time>2026-04-19T08:23:05Z</time></trkpt><trkpt lat="43.72640194011927" lon="11.012333853594708"><ele>41.0</ele><time>2026-04-19T08:23:06Z</time></trkpt><trkpt lat="43.72637468718144" lon="11.012434358672369"><ele>41.0</ele><time>2026-04-19T08:23:06.999Z</time></trkpt><trkpt lat="43.726350490459424" lon="11.012524049259623"><ele>41.0</ele><time>2026-04-19T08:23:07.999Z</time></trkpt><trkpt lat="43.7263264795254" lon="11.012612828398153"><ele>41.0</ele><time>2026-04-19T08:23:08.999Z</time></trkpt><trkpt lat="43.726303940902085" lon="11.012697291561643"><ele>41.0</ele><time>2026-04-19T08:23:09.999Z</time></trkpt><trkpt lat="43.726253818694396" lon="11.01285605645415"><ele>41.0</ele><time>2026-04-19T08:23:11.999Z</time></trkpt><trkpt lat="43.726228378181894" lon="11.012943458285124"><ele>41.0</ele><time>2026-04-19T08:23:12.999Z</time></trkpt><trkpt lat="43.72620476612684" lon="11.013034129388313"><ele>41.0</ele><time>2026-04-19T08:23:13.999Z</time></trkpt><trkpt lat="43.726179204927384" lon="11.013132689426985"><ele>41.0</ele><time>2026-04-19T08:23:14.999Z</time></trkpt><trkpt lat="43.726149713997245" lon="11.013238211980877"><ele>41.0</ele><time>2026-04-19T08:23:15.999Z</time></trkpt><trkpt lat="43.72611579294416" lon="11.01334406701576"><ele>41.0</ele><time>2026-04-19T08:23:16.999Z</time></trkpt><trkpt lat="43.72607556587335" lon="11.013437789591052"><ele>41.0</ele><time>2026-04-19T08:23:17.999Z</time></trkpt><trkpt lat="43.7260303016277" lon="11.013526879868385"><ele>42.5</ele><time>2026-04-19T08:23:18.999Z</time></trkpt><trkpt lat="43.7259807230294" lon="11.013605831591233"><ele>44.0</ele><time>2026-04-19T08:23:19.999Z</time></trkpt><trkpt lat="43.72592483562873" lon="11.013674145097808"><ele>45.5</ele><time>2026-04-19T08:23:20.999Z</time></trkpt><trkpt lat="43.72585907960208" lon="11.013723551798769"><ele>47.0</ele><time>2026-04-19T08:23:21.999Z</time></trkpt><trkpt lat="43.72579638849028" lon="11.01376142849256"><ele>48.50000000000001</ele><time>2026-04-19T08:23:22.999Z</time></trkpt><trkpt lat="43.72571602522683" lon="11.01388503859872"><ele>50.0</ele><time>2026-04-19T08:23:24.999Z</time></trkpt><trkpt lat="43.72570481034147" lon="11.013971885255467"><ele>50.00000000000001</ele><time>2026-04-19T08:23:25.999Z</time></trkpt><trkpt lat="43.72572242870753" lon="11.014073241371475"><ele>50.0</ele><time>2026-04-19T08:23:26.999Z</time></trkpt><trkpt lat="43.72576470072943" lon="11.014175004762368"><ele>50.0</ele><time>2026-04-19T08:23:27.999Z</time></trkpt><trkpt lat="43.72581743595388" lon="11.0142791721766"><ele>50.0</ele><time>2026-04-19T08:23:28.999Z</time></trkpt><trkpt lat="43.725860117460066" lon="11.014394291768612"><ele>50.00000000000001</ele><time>2026-04-19T08:23:29.999Z</time></trkpt><trkpt lat="43.72589318998686" lon="11.014524258133736"><ele>50.0</ele><time>2026-04-19T08:23:30.999Z</time></trkpt><trkpt lat="43.725918734575956" lon="11.014662614714933"><ele>50.25</ele><time>2026-04-19T08:23:31.999Z</time></trkpt><trkpt lat="43.72592950096543" lon="11.014809745488808"><ele>50.5</ele><time>2026-04-19T08:23:32.999Z</time></trkpt><trkpt lat="43.72593386300458" lon="11.014962529933934"><ele>50.75</ele><time>2026-04-19T08:23:33.999Z</time></trkpt><trkpt lat="43.7259364675556" lon="11.015129371469127"><ele>51.0</ele><time>2026-04-19T08:23:34.999Z</time></trkpt><trkpt lat="43.725946736018805" lon="11.015298629981727"><ele>51.25</ele><time>2026-04-19T08:23:35.999Z</time></trkpt><trkpt lat="43.725964660875476" lon="11.015467281087973"><ele>51.5</ele><time>2026-04-19T08:23:36.999Z</time></trkpt><trkpt lat="43.7259866654654" lon="11.015632972188236"><ele>51.75</ele><time>2026-04-19T08:23:37.999Z</time></trkpt><trkpt lat="43.72601617404057" lon="11.015796828096102"><ele>52.0</ele><time>2026-04-19T08:23:38.999Z</time></trkpt><trkpt lat="43.72605332379065" lon="11.015964274438979"><ele>51.0</ele><time>2026-04-19T08:23:39.999Z</time></trkpt><trkpt lat="43.72609779371019" lon="11.016133768290354"><ele>50.0</ele><time>2026-04-19T08:23:40.999Z</time></trkpt><trkpt lat="43.726148637631404" lon="11.016304474928239"><ele>49.0</ele><time>2026-04-19T08:23:41.999Z</time></trkpt><trkpt lat="43.726204132223124" lon="11.01646872060829"><ele>48.0</ele><time>2026-04-19T08:23:42.999Z</time></trkpt><trkpt lat="43.72626218157024" lon="11.016627066582272"><ele>48.0</ele><time>2026-04-19T08:23:43.999Z</time></trkpt><trkpt lat="43.72632442950137" lon="11.016781727257442"><ele>48.0</ele><time>2026-04-19T08:23:44.999Z</time></trkpt><trkpt lat="43.72639037418464" lon="11.016935281886916"><ele>48.0</ele><time>2026-04-19T08:23:45.999Z</time></trkpt><trkpt lat="43.72645387171922" lon="11.01707687915562"><ele>48.0</ele><time>2026-04-19T08:23:46.999Z</time></trkpt><trkpt lat="43.72651154699776" lon="11.01721494129522"><ele>48.0</ele><time>2026-04-19T08:23:47.999Z</time></trkpt><trkpt lat="43.72656758960716" lon="11.017345276329165"><ele>48.0</ele><time>2026-04-19T08:23:48.999Z</time></trkpt><trkpt lat="43.72662047573973" lon="11.017469172902864"><ele>48.0</ele><time>2026-04-19T08:23:49.999Z</time></trkpt><trkpt lat="43.72666427366787" lon="11.017576941697557"><ele>48.0</ele><time>2026-04-19T08:23:50.999Z</time></trkpt><trkpt lat="43.72670528096363" lon="11.017674178716323"><ele>48.0</ele><time>2026-04-19T08:23:51.999Z</time></trkpt><trkpt lat="43.72674028726395" lon="11.01776850854112"><ele>48.0</ele><time>2026-04-19T08:23:52.999Z</time></trkpt><trkpt lat="43.726770041414284" lon="11.017864823689823"><ele>48.0</ele><time>2026-04-19T08:23:53.999Z</time></trkpt><trkpt lat="43.72678576630067" lon="11.01796608570966"><ele>48.0</ele><time>2026-04-19T08:23:54.999Z</time></trkpt><trkpt lat="43.72677905563495" lon="11.01805931058483"><ele>48.0</ele><time>2026-04-19T08:23:55.999Z</time></trkpt><trkpt lat="43.726767042530426" lon="11.018145043489762"><ele>48.0</ele><time>2026-04-19T08:23:56.998Z</time></trkpt><trkpt lat="43.7268190706237" lon="11.018313392128253"><ele>48.0</ele><time>2026-04-19T08:23:58.998Z</time></trkpt><trkpt lat="43.726891287404875" lon="11.018384619903935"><ele>46.0</ele><time>2026-04-19T08:23:59.998Z</time></trkpt><trkpt lat="43.726976941592504" lon="11.018450225627893"><ele>44.0</ele><time>2026-04-19T08:24:00.998Z</time></trkpt><trkpt lat="43.727055508831256" lon="11.018542252451963"><ele>42.0</ele><time>2026-04-19T08:24:01.998Z</time></trkpt><trkpt lat="43.72711997573484" lon="11.01866031607815"><ele>40.0</ele><time>2026-04-19T08:24:02.998Z</time></trkpt><trkpt lat="43.72718496172778" lon="11.01879664157624"><ele>38.0</ele><time>2026-04-19T08:24:03.998Z</time></trkpt><trkpt lat="43.72725567065631" lon="11.018948088005157"><ele>38.0</ele><time>2026-04-19T08:24:04.998Z</time></trkpt><trkpt lat="43.727324468472226" lon="11.019107290568964"><ele>38.0</ele><time>2026-04-19T08:24:05.998Z</time></trkpt><trkpt lat="43.727391537077295" lon="11.01926924240475"><ele>38.0</ele><time>2026-04-19T08:24:06.998Z</time></trkpt><trkpt lat="43.72746120628545" lon="11.019435346122384"><ele>38.0</ele><time>2026-04-19T08:24:07.998Z</time></trkpt><trkpt lat="43.72753117634129" lon="11.019603114301145"><ele>36.5</ele><time>2026-04-19T08:24:08.998Z</time></trkpt><trkpt lat="43.72760198946208" lon="11.019773625502603"><ele>35.0</ele><time>2026-04-19T08:24:09.998Z</time></trkpt><trkpt lat="43.72767494644757" lon="11.019945700169965"><ele>33.5</ele><time>2026-04-19T08:24:10.998Z</time></trkpt><trkpt lat="43.72774576283601" lon="11.020117814716714"><ele>32.0</ele><time>2026-04-19T08:24:11.998Z</time></trkpt><trkpt lat="43.72781566592418" lon="11.02029228752814"><ele>31.5</ele><time>2026-04-19T08:24:12.998Z</time></trkpt><trkpt lat="43.72788809641922" lon="11.020460232994859"><ele>31.0</ele><time>2026-04-19T08:24:13.998Z</time></trkpt><trkpt lat="43.7279610838945" lon="11.020629788719942"><ele>30.5</ele><time>2026-04-19T08:24:14.998Z</time></trkpt><trkpt lat="43.72803162621853" lon="11.020796168679938"><ele>30.0</ele><time>2026-04-19T08:24:15.998Z</time></trkpt><trkpt lat="43.72809860190816" lon="11.020955236368762"><ele>30.0</ele><time>2026-04-19T08:24:16.998Z</time></trkpt><trkpt lat="43.72816222215796" lon="11.021107550788045"><ele>30.0</ele><time>2026-04-19T08:24:17.998Z</time></trkpt><trkpt lat="43.72822363288717" lon="11.021251853257194"><ele>30.0</ele><time>2026-04-19T08:24:18.998Z</time></trkpt><trkpt lat="43.72828034147437" lon="11.02138652569582"><ele>30.0</ele><time>2026-04-19T08:24:19.998Z</time></trkpt><trkpt lat="43.72833301149831" lon="11.021512215301101"><ele>30.0</ele><time>2026-04-19T08:24:20.998Z</time></trkpt><trkpt lat="43.72838055806986" lon="11.021626041337884"><ele>30.0</ele><time>2026-04-19T08:24:21.998Z</time></trkpt><trkpt lat="43.728422278170044" lon="11.021735783284806"><ele>30.0</ele><time>2026-04-19T08:24:22.998Z</time></trkpt><trkpt lat="43.72845343022813" lon="11.021838598515204"><ele>30.0</ele><time>2026-04-19T08:24:23.998Z</time></trkpt><trkpt lat="43.72846448144587" lon="11.02194400968805"><ele>30.0</ele><time>2026-04-19T08:24:24.998Z</time></trkpt><trkpt lat="43.72845625473646" lon="11.022065993887704"><ele>30.0</ele><time>2026-04-19T08:24:25.998Z</time></trkpt><trkpt lat="43.72842346380754" lon="11.0221871539278"><ele>30.0</ele><time>2026-04-19T08:24:26.998Z</time></trkpt><trkpt lat="43.72836012568515" lon="11.022293964840536"><ele>30.0</ele><time>2026-04-19T08:24:27.998Z</time></trkpt><trkpt lat="43.72827439436557" lon="11.022392219820402"><ele>30.0</ele><time>2026-04-19T08:24:28.998Z</time></trkpt><trkpt lat="43.728170362053405" lon="11.022488633308459"><ele>30.0</ele><time>2026-04-19T08:24:29.998Z</time></trkpt><trkpt lat="43.72807082490501" lon="11.022588397385784"><ele>30.0</ele><time>2026-04-19T08:24:30.998Z</time></trkpt><trkpt lat="43.72797025737624" lon="11.022707064429603"><ele>30.0</ele><time>2026-04-19T08:24:31.998Z</time></trkpt><trkpt lat="43.72785893997373" lon="11.022839355462402"><ele>30.0</ele><time>2026-04-19T08:24:32.998Z</time></trkpt><trkpt lat="43.727747394584476" lon="11.02296268724808"><ele>30.0</ele><time>2026-04-19T08:24:33.998Z</time></trkpt><trkpt lat="43.727645462395124" lon="11.023075690358096"><ele>30.25</ele><time>2026-04-19T08:24:34.998Z</time></trkpt><trkpt lat="43.72755347509907" lon="11.023182467113203"><ele>30.5</ele><time>2026-04-19T08:24:35.998Z</time></trkpt><trkpt lat="43.72746379012555" lon="11.02328405247219"><ele>30.75</ele><time>2026-04-19T08:24:36.998Z</time></trkpt><trkpt lat="43.72737632316956" lon="11.023389405661316"><ele>31.0</ele><time>2026-04-19T08:24:37.998Z</time></trkpt><trkpt lat="43.727302257284045" lon="11.023506917248357"><ele>31.0</ele><time>2026-04-19T08:24:38.998Z</time></trkpt><trkpt lat="43.72723841301301" lon="11.02365223624762"><ele>31.0</ele><time>2026-04-19T08:24:39.998Z</time></trkpt><trkpt lat="43.72717271766233" lon="11.023810042462463"><ele>31.0</ele><time>2026-04-19T08:24:40.998Z</time></trkpt><trkpt lat="43.72711529538125" lon="11.023980111111328"><ele>31.0</ele><time>2026-04-19T08:24:41.998Z</time></trkpt><trkpt lat="43.727079848182576" lon="11.024173292705745"><ele>31.0</ele><time>2026-04-19T08:24:42.998Z</time></trkpt><trkpt lat="43.72706990429409" lon="11.02438751108827"><ele>31.0</ele><time>2026-04-19T08:24:43.998Z</time></trkpt><trkpt lat="43.72708554762452" lon="11.024616447460339"><ele>31.0</ele><time>2026-04-19T08:24:44.998Z</time></trkpt><trkpt lat="43.72711771123033" lon="11.024852214400736"><ele>30.666666666666668</ele><time>2026-04-19T08:24:45.998Z</time></trkpt><trkpt lat="43.7271554704934" lon="11.025088398771642"><ele>30.333333333333336</ele><time>2026-04-19T08:24:46.998Z</time></trkpt><trkpt lat="43.727195420139545" lon="11.025321437824832"><ele>30.0</ele><time>2026-04-19T08:24:47.997Z</time></trkpt><trkpt lat="43.72722715325412" lon="11.025535444240544"><ele>30.0</ele><time>2026-04-19T08:24:48.997Z</time></trkpt><trkpt lat="43.72725496578113" lon="11.02573703873849"><ele>30.0</ele><time>2026-04-19T08:24:49.997Z</time></trkpt><trkpt lat="43.72728190980469" lon="11.025925406047547"><ele>30.0</ele><time>2026-04-19T08:24:50.997Z</time></trkpt><trkpt lat="43.72731248337842" lon="11.026105431666863"><ele>30.0</ele><time>2026-04-19T08:24:51.997Z</time></trkpt><trkpt lat="43.72735911709347" lon="11.026288295190982"><ele>30.5</ele><time>2026-04-19T08:24:52.997Z</time></trkpt><trkpt lat="43.727427863358145" lon="11.026468116501716"><ele>31.0</ele><time>2026-04-19T08:24:54Z</time></trkpt><trkpt lat="43.72751055180613" lon="11.026618068091048"><ele>31.5</ele><time>2026-04-19T08:24:55Z</time></trkpt><trkpt lat="43.72758948887672" lon="11.026742602429294"><ele>32.0</ele><time>2026-04-19T08:24:56Z</time></trkpt><trkpt lat="43.727659266671" lon="11.026849155341413"><ele>32.5</ele><time>2026-04-19T08:24:57Z</time></trkpt><trkpt lat="43.72771873609732" lon="11.02694366174607"><ele>33.0</ele><time>2026-04-19T08:24:58Z</time></trkpt><trkpt lat="43.727762254478996" lon="11.02704051787305"><ele>33.5</ele><time>2026-04-19T08:24:59Z</time></trkpt><trkpt lat="43.72778392184035" lon="11.027146985584505"><ele>34.0</ele><time>2026-04-19T08:25:00Z</time></trkpt><trkpt lat="43.72778588235363" lon="11.027275686156944"><ele>34.5</ele><time>2026-04-19T08:25:01Z</time></trkpt><trkpt lat="43.72778360953407" lon="11.027414515872417"><ele>35.0</ele><time>2026-04-19T08:25:02Z</time></trkpt><trkpt lat="43.72779285618842" lon="11.027559867476672"><ele>35.2</ele><time>2026-04-19T08:25:03Z</time></trkpt><trkpt lat="43.72778605220581" lon="11.027700057018315"><ele>35.4</ele><time>2026-04-19T08:25:04Z</time></trkpt><trkpt lat="43.7277865383921" lon="11.027829279699501"><ele>35.6</ele><time>2026-04-19T08:25:05Z</time></trkpt><trkpt lat="43.72769204300754" lon="11.027962740495019"><ele>35.8</ele><time>2026-04-19T08:25:06Z</time></trkpt><trkpt lat="43.727611609252406" lon="11.028083860507893"><ele>36.0</ele><time>2026-04-19T08:25:07Z</time></trkpt><trkpt lat="43.72752745314577" lon="11.028196575809085"><ele>36.25</ele><time>2026-04-19T08:25:08Z</time></trkpt><trkpt lat="43.7274463087143" lon="11.02832364611789"><ele>36.5</ele><time>2026-04-19T08:25:09Z</time></trkpt><trkpt lat="43.72735714493818" lon="11.028457803438444"><ele>36.75</ele><time>2026-04-19T08:25:10Z</time></trkpt><trkpt lat="43.72725403000147" lon="11.028591893475609"><ele>37.0</ele><time>2026-04-19T08:25:11Z</time></trkpt><trkpt lat="43.72715370409893" lon="11.028738849272322"><ele>37.0</ele><time>2026-04-19T08:25:12Z</time></trkpt><trkpt lat="43.72705003320709" lon="11.028891777655"><ele>37.0</ele><time>2026-04-19T08:25:13Z</time></trkpt><trkpt lat="43.726942431010805" lon="11.029048364425767"><ele>37.0</ele><time>2026-04-19T08:25:14Z</time></trkpt><trkpt lat="43.726830981271604" lon="11.029216688366624"><ele>37.0</ele><time>2026-04-19T08:25:15Z</time></trkpt><trkpt lat="43.72672086439862" lon="11.029405263562415"><ele>37.0</ele><time>2026-04-19T08:25:16Z</time></trkpt><trkpt lat="43.726619593744196" lon="11.029599725772762"><ele>37.0</ele><time>2026-04-19T08:25:17Z</time></trkpt><trkpt lat="43.72652936270405" lon="11.029790662623544"><ele>38.333333333333336</ele><time>2026-04-19T08:25:18Z</time></trkpt><trkpt lat="43.72644848375808" lon="11.029975685764027"><ele>39.666666666666664</ele><time>2026-04-19T08:25:19Z</time></trkpt><trkpt lat="43.726374251562504" lon="11.030158694660075"><ele>41.0</ele><time>2026-04-19T08:25:19.999Z</time></trkpt><trkpt lat="43.72630481078872" lon="11.03033366470245"><ele>41.0</ele><time>2026-04-19T08:25:20.999Z</time></trkpt><trkpt lat="43.72623735776178" lon="11.03049486576114"><ele>41.0</ele><time>2026-04-19T08:25:21.999Z</time></trkpt><trkpt lat="43.726167692113904" lon="11.030634182411093"><ele>41.0</ele><time>2026-04-19T08:25:22.999Z</time></trkpt><trkpt lat="43.72608160874123" lon="11.030753871604484"><ele>41.0</ele><time>2026-04-19T08:25:23.999Z</time></trkpt><trkpt lat="43.72596787398948" lon="11.030859032489216"><ele>41.0</ele><time>2026-04-19T08:25:24.999Z</time></trkpt><trkpt lat="43.72583303365222" lon="11.030957146261223"><ele>41.0</ele><time>2026-04-19T08:25:25.999Z</time></trkpt><trkpt lat="43.72569282017205" lon="11.031049993759941"><ele>41.0</ele><time>2026-04-19T08:25:26.999Z</time></trkpt><trkpt lat="43.72555333209894" lon="11.03116167403102"><ele>41.0</ele><time>2026-04-19T08:25:27.999Z</time></trkpt><trkpt lat="43.72541211710719" lon="11.031293443782719"><ele>41.0</ele><time>2026-04-19T08:25:28.999Z</time></trkpt><trkpt lat="43.72527347444153" lon="11.03144549687074"><ele>41.0</ele><time>2026-04-19T08:25:29.999Z</time></trkpt><trkpt lat="43.725135635326616" lon="11.031612814050279"><ele>41.0</ele><time>2026-04-19T08:25:30.999Z</time></trkpt><trkpt lat="43.72499588471325" lon="11.031783778825082"><ele>41.0</ele><time>2026-04-19T08:25:31.999Z</time></trkpt><trkpt lat="43.72485807677127" lon="11.031955819963251"><ele>41.0</ele><time>2026-04-19T08:25:32.999Z</time></trkpt><trkpt lat="43.724728423111486" lon="11.032137999139744"><ele>41.0</ele><time>2026-04-19T08:25:33.999Z</time></trkpt><trkpt lat="43.72461436093354" lon="11.032337166713164"><ele>41.0</ele><time>2026-04-19T08:25:34.999Z</time></trkpt><trkpt lat="43.72451633311986" lon="11.032534126997007"><ele>41.0</ele><time>2026-04-19T08:25:35.999Z</time></trkpt><trkpt lat="43.724422695670555" lon="11.032719832193141"><ele>40.5</ele><time>2026-04-19T08:25:36.999Z</time></trkpt><trkpt lat="43.72433396130774" lon="11.032894898115504"><ele>40.0</ele><time>2026-04-19T08:25:37.999Z</time></trkpt><trkpt lat="43.72424586035133" lon="11.033062074765633"><ele>39.5</ele><time>2026-04-19T08:25:38.999Z</time></trkpt><trkpt lat="43.72416072234773" lon="11.033219424105129"><ele>39.0</ele><time>2026-04-19T08:25:39.999Z</time></trkpt><trkpt lat="43.72407540032992" lon="11.033384368651475"><ele>40.333333333333336</ele><time>2026-04-19T08:25:40.999Z</time></trkpt><trkpt lat="43.72399108002045" lon="11.033560558301247"><ele>41.66666666666667</ele><time>2026-04-19T08:25:41.999Z</time></trkpt><trkpt lat="43.72391236132714" lon="11.033751600527385"><ele>43.0</ele><time>2026-04-19T08:25:42.999Z</time></trkpt><trkpt lat="43.72383800194613" lon="11.03396990730007"><ele>40.66666666666667</ele><time>2026-04-19T08:25:43.999Z</time></trkpt><trkpt lat="43.72373838554824" lon="11.034197310406167"><ele>38.333333333333336</ele><time>2026-04-19T08:25:44.999Z</time></trkpt><trkpt lat="43.72365574837302" lon="11.034446171289689"><ele>36.0</ele><time>2026-04-19T08:25:45.999Z</time></trkpt><trkpt lat="43.72355692389783" lon="11.03468303607925"><ele>36.0</ele><time>2026-04-19T08:25:46.999Z</time></trkpt><trkpt lat="43.72347015138553" lon="11.034919415758074"><ele>36.0</ele><time>2026-04-19T08:25:47.999Z</time></trkpt><trkpt lat="43.723388680323524" lon="11.035155009479551"><ele>36.0</ele><time>2026-04-19T08:25:48.999Z</time></trkpt><trkpt lat="43.72330713478864" lon="11.035375342987233"><ele>38.0</ele><time>2026-04-19T08:25:49.999Z</time></trkpt><trkpt lat="43.72322861502096" lon="11.035594545734051"><ele>40.0</ele><time>2026-04-19T08:25:50.999Z</time></trkpt><trkpt lat="43.723155099558745" lon="11.035817661805288"><ele>42.0</ele><time>2026-04-19T08:25:51.999Z</time></trkpt><trkpt lat="43.72307645113463" lon="11.036037666308237"><ele>43.333333333333336</ele><time>2026-04-19T08:25:52.999Z</time></trkpt><trkpt lat="43.722993503409064" lon="11.036251470740051"><ele>44.66666666666667</ele><time>2026-04-19T08:25:53.999Z</time></trkpt><trkpt lat="43.72290277171818" lon="11.036460395543061"><ele>46.0</ele><time>2026-04-19T08:25:54.999Z</time></trkpt><trkpt lat="43.72279894452623" lon="11.036657902486862"><ele>43.333333333333336</ele><time>2026-04-19T08:25:55.999Z</time></trkpt><trkpt lat="43.722687034037605" lon="11.036845001632225"><ele>40.666666666666664</ele><time>2026-04-19T08:25:56.999Z</time></trkpt><trkpt lat="43.7225744227382" lon="11.03702415311321"><ele>38.0</ele><time>2026-04-19T08:25:57.999Z</time></trkpt><trkpt lat="43.72247181265592" lon="11.037201896971018"><ele>38.0</ele><time>2026-04-19T08:25:58.999Z</time></trkpt><trkpt lat="43.72237640917753" lon="11.037373900716274"><ele>38.0</ele><time>2026-04-19T08:25:59.999Z</time></trkpt><trkpt lat="43.722280639489874" lon="11.037533587588888"><ele>38.0</ele><time>2026-04-19T08:26:00.999Z</time></trkpt><trkpt lat="43.72217838056143" lon="11.037690760035893"><ele>37.5</ele><time>2026-04-19T08:26:01.999Z</time></trkpt><trkpt lat="43.722070146706756" lon="11.037834062513015"><ele>37.0</ele><time>2026-04-19T08:26:02.999Z</time></trkpt><trkpt lat="43.72195345070163" lon="11.037961759360934"><ele>36.5</ele><time>2026-04-19T08:26:03.999Z</time></trkpt><trkpt lat="43.7218310824769" lon="11.038081727825382"><ele>36.0</ele><time>2026-04-19T08:26:04.999Z</time></trkpt><trkpt lat="43.72170980016206" lon="11.038187797030796"><ele>36.0</ele><time>2026-04-19T08:26:05.999Z</time></trkpt><trkpt lat="43.721592670554315" lon="11.038276699501703"><ele>36.0</ele><time>2026-04-19T08:26:06.999Z</time></trkpt><trkpt lat="43.72147549049491" lon="11.038351480511519"><ele>36.0</ele><time>2026-04-19T08:26:07.999Z</time></trkpt><trkpt lat="43.72135647399195" lon="11.038426854237049"><ele>36.0</ele><time>2026-04-19T08:26:08.999Z</time></trkpt><trkpt lat="43.721238357254435" lon="11.038502550002029"><ele>36.25</ele><time>2026-04-19T08:26:09.999Z</time></trkpt><trkpt lat="43.7211190486474" lon="11.038575668616954"><ele>36.5</ele><time>2026-04-19T08:26:10.998Z</time></trkpt><trkpt lat="43.72100125375193" lon="11.03864840161511"><ele>36.75</ele><time>2026-04-19T08:26:11.998Z</time></trkpt><trkpt lat="43.720882837764485" lon="11.038722206286625"><ele>37.0</ele><time>2026-04-19T08:26:12.998Z</time></trkpt><trkpt lat="43.72076549587826" lon="11.03879461874046"><ele>37.0</ele><time>2026-04-19T08:26:13.998Z</time></trkpt><trkpt lat="43.72064645674205" lon="11.038867117216274"><ele>37.0</ele><time>2026-04-19T08:26:14.998Z</time></trkpt><trkpt lat="43.720529700107484" lon="11.038941740708122"><ele>37.0</ele><time>2026-04-19T08:26:15.998Z</time></trkpt><trkpt lat="43.72041521728464" lon="11.03901645831175"><ele>37.0</ele><time>2026-04-19T08:26:16.998Z</time></trkpt><trkpt lat="43.72030815980041" lon="11.0390993682017"><ele>37.0</ele><time>2026-04-19T08:26:17.998Z</time></trkpt><trkpt lat="43.72021239352185" lon="11.03920252871834"><ele>37.0</ele><time>2026-04-19T08:26:18.998Z</time></trkpt><trkpt lat="43.72012974401208" lon="11.039332667794174"><ele>37.0</ele><time>2026-04-19T08:26:19.998Z</time></trkpt><trkpt lat="43.72005989839475" lon="11.039483622381605"><ele>37.0</ele><time>2026-04-19T08:26:20.998Z</time></trkpt><trkpt lat="43.719999447137894" lon="11.039658972056333"><ele>37.0</ele><time>2026-04-19T08:26:21.998Z</time></trkpt><trkpt lat="43.719942012534474" lon="11.03985733242634"><ele>37.0</ele><time>2026-04-19T08:26:22.998Z</time></trkpt><trkpt lat="43.71988468180302" lon="11.040075407791063"><ele>37.0</ele><time>2026-04-19T08:26:23.998Z</time></trkpt><trkpt lat="43.71982071289259" lon="11.040303233574333"><ele>37.66666666666667</ele><time>2026-04-19T08:26:24.998Z</time></trkpt><trkpt lat="43.719753695688745" lon="11.040532900079029"><ele>38.333333333333336</ele><time>2026-04-19T08:26:25.998Z</time></trkpt><trkpt lat="43.71969230167157" lon="11.040778219668042"><ele>39.0</ele><time>2026-04-19T08:26:26.998Z</time></trkpt><trkpt lat="43.71960406346499" lon="11.041042354806741"><ele>40.0</ele><time>2026-04-19T08:26:27.998Z</time></trkpt><trkpt lat="43.719525902803944" lon="11.041314720391881"><ele>41.0</ele><time>2026-04-19T08:26:28.998Z</time></trkpt><trkpt lat="43.7194585864768" lon="11.041586162899923"><ele>42.0</ele><time>2026-04-19T08:26:29.998Z</time></trkpt><trkpt lat="43.71937686901575" lon="11.041844119665878"><ele>42.0</ele><time>2026-04-19T08:26:30.998Z</time></trkpt><trkpt lat="43.71930442759618" lon="11.04210439703998"><ele>42.0</ele><time>2026-04-19T08:26:31.998Z</time></trkpt><trkpt lat="43.719230684109824" lon="11.042360171705615"><ele>42.0</ele><time>2026-04-19T08:26:32.998Z</time></trkpt><trkpt lat="43.71915650622203" lon="11.04261499119398"><ele>41.666666666666664</ele><time>2026-04-19T08:26:33.998Z</time></trkpt><trkpt lat="43.71908429990874" lon="11.042871590914997"><ele>41.33333333333333</ele><time>2026-04-19T08:26:34.998Z</time></trkpt><trkpt lat="43.71901404968214" lon="11.043129688435315"><ele>41.0</ele><time>2026-04-19T08:26:35.998Z</time></trkpt><trkpt lat="43.718940632141106" lon="11.043384448966792"><ele>41.666666666666664</ele><time>2026-04-19T08:26:36.998Z</time></trkpt><trkpt lat="43.7188696695139" lon="11.04363669631555"><ele>42.333333333333336</ele><time>2026-04-19T08:26:37.998Z</time></trkpt><trkpt lat="43.71880156062937" lon="11.043888890063505"><ele>43.0</ele><time>2026-04-19T08:26:38.998Z</time></trkpt><trkpt lat="43.71873192646311" lon="11.044140156771336"><ele>41.66666666666667</ele><time>2026-04-19T08:26:39.998Z</time></trkpt><trkpt lat="43.71865353060928" lon="11.044386056082764"><ele>40.333333333333336</ele><time>2026-04-19T08:26:40.998Z</time></trkpt><trkpt lat="43.718559440586745" lon="11.044621700007752"><ele>39.0</ele><time>2026-04-19T08:26:41.998Z</time></trkpt><trkpt lat="43.71843864394313" lon="11.04484257789883"><ele>41.0</ele><time>2026-04-19T08:26:42.998Z</time></trkpt><trkpt lat="43.71830107699367" lon="11.04504948759725"><ele>43.0</ele><time>2026-04-19T08:26:43.998Z</time></trkpt><trkpt lat="43.71816181098432" lon="11.045257134543675"><ele>45.0</ele><time>2026-04-19T08:26:44.998Z</time></trkpt><trkpt lat="43.718023739072315" lon="11.045469431805953"><ele>45.0</ele><time>2026-04-19T08:26:45.998Z</time></trkpt><trkpt lat="43.71788731790478" lon="11.045687361710723"><ele>45.0</ele><time>2026-04-19T08:26:46.998Z</time></trkpt><trkpt lat="43.717751522024805" lon="11.045912135483697"><ele>45.0</ele><time>2026-04-19T08:26:47.998Z</time></trkpt><trkpt lat="43.71761918610676" lon="11.046139917234685"><ele>44.666666666666664</ele><time>2026-04-19T08:26:48.998Z</time></trkpt><trkpt lat="43.71748950632527" lon="11.046371893676834"><ele>44.33333333333333</ele><time>2026-04-19T08:26:49.998Z</time></trkpt><trkpt lat="43.71736488265597" lon="11.046607424726185"><ele>44.0</ele><time>2026-04-19T08:26:50.998Z</time></trkpt><trkpt lat="43.71724543965472" lon="11.046847434209997"><ele>47.33333333333333</ele><time>2026-04-19T08:26:51.998Z</time></trkpt><trkpt lat="43.71713029003152" lon="11.047091432853362"><ele>50.666666666666664</ele><time>2026-04-19T08:26:52.998Z</time></trkpt><trkpt lat="43.71702030744492" lon="11.04733488098767"><ele>54.0</ele><time>2026-04-19T08:26:53.998Z</time></trkpt><trkpt lat="43.716918331553025" lon="11.047582125955026"><ele>50.666666666666664</ele><time>2026-04-19T08:26:54.998Z</time></trkpt><trkpt lat="43.71682370942564" lon="11.047833999470276"><ele>47.33333333333333</ele><time>2026-04-19T08:26:55.998Z</time></trkpt><trkpt lat="43.71674074592488" lon="11.04809261516577"><ele>44.0</ele><time>2026-04-19T08:26:56.998Z</time></trkpt><trkpt lat="43.71666280758464" lon="11.048349675445651"><ele>44.0</ele><time>2026-04-19T08:26:57.998Z</time></trkpt><trkpt lat="43.716594350479696" lon="11.048606370760622"><ele>44.0</ele><time>2026-04-19T08:26:59Z</time></trkpt><trkpt lat="43.71653243081847" lon="11.048858609488839"><ele>44.0</ele><time>2026-04-19T08:27:00Z</time></trkpt><trkpt lat="43.71645373930451" lon="11.049098722409111"><ele>45.666666666666664</ele><time>2026-04-19T08:27:01Z</time></trkpt><trkpt lat="43.71638576691175" lon="11.049348720201191"><ele>47.33333333333333</ele><time>2026-04-19T08:27:02Z</time></trkpt><trkpt lat="43.716329310241775" lon="11.049606835098487"><ele>49.0</ele><time>2026-04-19T08:27:03Z</time></trkpt><trkpt lat="43.71624521011894" lon="11.049851639357154"><ele>47.0</ele><time>2026-04-19T08:27:04Z</time></trkpt><trkpt lat="43.71616210407437" lon="11.05009453695281"><ele>45.0</ele><time>2026-04-19T08:27:05Z</time></trkpt><trkpt lat="43.7160815256471" lon="11.050340048473728"><ele>43.0</ele><time>2026-04-19T08:27:06Z</time></trkpt><trkpt lat="43.71600137815245" lon="11.050586423864493"><ele>44.66666666666667</ele><time>2026-04-19T08:27:07Z</time></trkpt><trkpt lat="43.715919915996274" lon="11.050831508832726"><ele>46.333333333333336</ele><time>2026-04-19T08:27:08Z</time></trkpt><trkpt lat="43.71583755582795" lon="11.051075359157851"><ele>48.0</ele><time>2026-04-19T08:27:09Z</time></trkpt><trkpt lat="43.715758464655174" lon="11.05131950266088"><ele>48.0</ele><time>2026-04-19T08:27:10Z</time></trkpt><trkpt lat="43.715679065235015" lon="11.051560386876039"><ele>48.0</ele><time>2026-04-19T08:27:11Z</time></trkpt><trkpt lat="43.71559891458788" lon="11.05179410094927"><ele>48.0</ele><time>2026-04-19T08:27:12Z</time></trkpt><trkpt lat="43.715521577615526" lon="11.052014928578778"><ele>50.33333333333333</ele><time>2026-04-19T08:27:13Z</time></trkpt><trkpt lat="43.715442399552586" lon="11.052228549669154"><ele>52.666666666666664</ele><time>2026-04-19T08:27:14Z</time></trkpt><trkpt lat="43.715358702665156" lon="11.052436233823295"><ele>55.0</ele><time>2026-04-19T08:27:15Z</time></trkpt><trkpt lat="43.715273162485374" lon="11.05264488025703"><ele>53.33333333333333</ele><time>2026-04-19T08:27:16Z</time></trkpt><trkpt lat="43.71518609325573" lon="11.052853423165418"><ele>51.66666666666667</ele><time>2026-04-19T08:27:17Z</time></trkpt><trkpt lat="43.715097423305934" lon="11.053064893271518"><ele>50.0</ele><time>2026-04-19T08:27:18Z</time></trkpt><trkpt lat="43.71501004869047" lon="11.053286623810218"><ele>52.0</ele><time>2026-04-19T08:27:19Z</time></trkpt><trkpt lat="43.714918119223114" lon="11.053513951504646"><ele>54.0</ele><time>2026-04-19T08:27:20Z</time></trkpt><trkpt lat="43.71481909612275" lon="11.053750726100587"><ele>56.0</ele><time>2026-04-19T08:27:21Z</time></trkpt><trkpt lat="43.71471803917437" lon="11.053990269384492"><ele>58.66666666666667</ele><time>2026-04-19T08:27:22Z</time></trkpt><trkpt lat="43.71461759775773" lon="11.054231697150671"><ele>61.33333333333333</ele><time>2026-04-19T08:27:23Z</time></trkpt><trkpt lat="43.71451926586842" lon="11.054476497930247"><ele>64.0</ele><time>2026-04-19T08:27:24Z</time></trkpt><trkpt lat="43.71442597175251" lon="11.054722404807036"><ele>62.33333333333333</ele><time>2026-04-19T08:27:25Z</time></trkpt><trkpt lat="43.71433055617454" lon="11.05496580692396"><ele>60.66666666666667</ele><time>2026-04-19T08:27:26Z</time></trkpt><trkpt lat="43.71423363399209" lon="11.055202402311389"><ele>59.0</ele><time>2026-04-19T08:27:27Z</time></trkpt><trkpt lat="43.7141355538635" lon="11.055434581820906"><ele>59.0</ele><time>2026-04-19T08:27:28Z</time></trkpt><trkpt lat="43.71404052551721" lon="11.05566475796942"><ele>59.0</ele><time>2026-04-19T08:27:29Z</time></trkpt><trkpt lat="43.71394898951971" lon="11.055892279454964"><ele>59.0</ele><time>2026-04-19T08:27:30Z</time></trkpt><trkpt lat="43.71385626946642" lon="11.05611733082118"><ele>59.333333333333336</ele><time>2026-04-19T08:27:31Z</time></trkpt><trkpt lat="43.71376633893203" lon="11.056337202817048"><ele>59.66666666666667</ele><time>2026-04-19T08:27:32Z</time></trkpt><trkpt lat="43.71367920283852" lon="11.056557872879843"><ele>60.0</ele><time>2026-04-19T08:27:32.999Z</time></trkpt><trkpt lat="43.713593475570505" lon="11.056779785696136"><ele>56.33333333333333</ele><time>2026-04-19T08:27:33.999Z</time></trkpt><trkpt lat="43.71350581434228" lon="11.056996734948196"><ele>52.666666666666664</ele><time>2026-04-19T08:27:34.999Z</time></trkpt><trkpt lat="43.71341896410534" lon="11.057205935430709"><ele>49.0</ele><time>2026-04-19T08:27:35.999Z</time></trkpt><trkpt lat="43.713334939056715" lon="11.057412160005576"><ele>50.666666666666664</ele><time>2026-04-19T08:27:36.999Z</time></trkpt><trkpt lat="43.71326086201535" lon="11.057620652877517"><ele>52.33333333333333</ele><time>2026-04-19T08:27:37.999Z</time></trkpt><trkpt lat="43.71320687810085" lon="11.057839979448032"><ele>54.0</ele><time>2026-04-19T08:27:38.999Z</time></trkpt><trkpt lat="43.713169318279654" lon="11.058073145109805"><ele>56.0</ele><time>2026-04-19T08:27:39.999Z</time></trkpt><trkpt lat="43.71313904734061" lon="11.05830947425059"><ele>58.0</ele><time>2026-04-19T08:27:40.999Z</time></trkpt><trkpt lat="43.713102699637616" lon="11.058543571948887"><ele>60.0</ele><time>2026-04-19T08:27:41.999Z</time></trkpt><trkpt lat="43.713048394804865" lon="11.058776691965857"><ele>60.0</ele><time>2026-04-19T08:27:42.999Z</time></trkpt><trkpt lat="43.71298507477642" lon="11.059009301877143"><ele>60.0</ele><time>2026-04-19T08:27:43.999Z</time></trkpt><trkpt lat="43.712915110222454" lon="11.059237048835355"><ele>60.0</ele><time>2026-04-19T08:27:44.999Z</time></trkpt><trkpt lat="43.71284640070805" lon="11.059465024659733"><ele>61.33333333333333</ele><time>2026-04-19T08:27:45.999Z</time></trkpt><trkpt lat="43.71277450824174" lon="11.059691012097336"><ele>62.666666666666664</ele><time>2026-04-19T08:27:46.999Z</time></trkpt><trkpt lat="43.712700547683895" lon="11.059915683731242"><ele>64.0</ele><time>2026-04-19T08:27:47.999Z</time></trkpt><trkpt lat="43.71262349446557" lon="11.060142125470753"><ele>59.666666666666664</ele><time>2026-04-19T08:27:48.999Z</time></trkpt><trkpt lat="43.71253181776531" lon="11.060365574194034"><ele>55.33333333333333</ele><time>2026-04-19T08:27:49.999Z</time></trkpt><trkpt lat="43.71242167365405" lon="11.060588702051035"><ele>51.0</ele><time>2026-04-19T08:27:50.999Z</time></trkpt><trkpt lat="43.712303088663575" lon="11.060802389252316"><ele>51.0</ele><time>2026-04-19T08:27:51.999Z</time></trkpt><trkpt lat="43.71218168681525" lon="11.061003479890887"><ele>51.0</ele><time>2026-04-19T08:27:52.999Z</time></trkpt><trkpt lat="43.71207090730626" lon="11.061192319010331"><ele>51.0</ele><time>2026-04-19T08:27:53.999Z</time></trkpt><trkpt lat="43.711966695300084" lon="11.061360625540209"><ele>50.25</ele><time>2026-04-19T08:27:54.999Z</time></trkpt><trkpt lat="43.71187394970199" lon="11.061503491720908"><ele>49.5</ele><time>2026-04-19T08:27:55.999Z</time></trkpt><trkpt lat="43.71178888125415" lon="11.061626829412155"><ele>48.75</ele><time>2026-04-19T08:27:56.999Z</time></trkpt><trkpt lat="43.71170765116839" lon="11.061740354915973"><ele>48.0</ele><time>2026-04-19T08:27:57.999Z</time></trkpt><trkpt lat="43.711636704991065" lon="11.061825988661177"><ele>48.0</ele><time>2026-04-19T08:27:58.999Z</time></trkpt><trkpt lat="43.71157027076012" lon="11.061890517588225"><ele>48.0</ele><time>2026-04-19T08:27:59.999Z</time></trkpt><trkpt lat="43.71150281138178" lon="11.061938127737886"><ele>48.0</ele><time>2026-04-19T08:28:00.999Z</time></trkpt><trkpt lat="43.71144103932732" lon="11.061967813790703"><ele>48.0</ele><time>2026-04-19T08:28:01.999Z</time></trkpt><trkpt lat="43.711352328432675" lon="11.061988928438009"><ele>48.0</ele><time>2026-04-19T08:28:03.999Z</time></trkpt><trkpt lat="43.711281656272845" lon="11.06197969584238"><ele>48.0</ele><time>2026-04-19T08:28:06.999Z</time></trkpt><trkpt lat="43.711154055579826" lon="11.061909918466885"><ele>47.599999999999994</ele><time>2026-04-19T08:28:08.999Z</time></trkpt><trkpt lat="43.71107263461591" lon="11.06188765922335"><ele>47.199999999999996</ele><time>2026-04-19T08:28:09.999Z</time></trkpt><trkpt lat="43.71097997294538" lon="11.061899743948123"><ele>46.8</ele><time>2026-04-19T08:28:10.999Z</time></trkpt><trkpt lat="43.71089013162402" lon="11.061947672317713"><ele>46.4</ele><time>2026-04-19T08:28:11.999Z</time></trkpt><trkpt lat="43.71081726275761" lon="11.06203133300525"><ele>46.0</ele><time>2026-04-19T08:28:12.999Z</time></trkpt><trkpt lat="43.71077096198911" lon="11.06214051960362"><ele>46.0</ele><time>2026-04-19T08:28:13.999Z</time></trkpt><trkpt lat="43.710748486050285" lon="11.062267993233084"><ele>46.0</ele><time>2026-04-19T08:28:14.999Z</time></trkpt><trkpt lat="43.71073516666291" lon="11.062399785968296"><ele>46.0</ele><time>2026-04-19T08:28:15.999Z</time></trkpt><trkpt lat="43.71070136566889" lon="11.062527683255142"><ele>46.0</ele><time>2026-04-19T08:28:16.999Z</time></trkpt><trkpt lat="43.710640251785925" lon="11.062644787163288"><ele>46.0</ele><time>2026-04-19T08:28:17.999Z</time></trkpt><trkpt lat="43.71055258607833" lon="11.062746539144989"><ele>46.25</ele><time>2026-04-19T08:28:18.999Z</time></trkpt><trkpt lat="43.710447990358915" lon="11.062843442137119"><ele>46.5</ele><time>2026-04-19T08:28:19.999Z</time></trkpt><trkpt lat="43.71034364920232" lon="11.06294662938323"><ele>46.75</ele><time>2026-04-19T08:28:20.999Z</time></trkpt><trkpt lat="43.71023329003099" lon="11.063070439788268"><ele>47.0</ele><time>2026-04-19T08:28:21.999Z</time></trkpt><trkpt lat="43.7101164597201" lon="11.063203073083956"><ele>47.33333333333333</ele><time>2026-04-19T08:28:22.998Z</time></trkpt><trkpt lat="43.70999680420202" lon="11.063344725434437"><ele>47.666666666666664</ele><time>2026-04-19T08:28:23.998Z</time></trkpt><trkpt lat="43.70988318254512" lon="11.063499181286879"><ele>48.0</ele><time>2026-04-19T08:28:24.998Z</time></trkpt><trkpt lat="43.70978064469268" lon="11.063663887856126"><ele>48.0</ele><time>2026-04-19T08:28:25.998Z</time></trkpt><trkpt lat="43.70968470485634" lon="11.063847900482497"><ele>48.0</ele><time>2026-04-19T08:28:26.998Z</time></trkpt><trkpt lat="43.70958883132903" lon="11.06404843918044"><ele>48.0</ele><time>2026-04-19T08:28:27.998Z</time></trkpt><trkpt lat="43.709493505110515" lon="11.064267549869943"><ele>48.0</ele><time>2026-04-19T08:28:28.998Z</time></trkpt><trkpt lat="43.709404595627596" lon="11.064501795177941"><ele>48.0</ele><time>2026-04-19T08:28:29.998Z</time></trkpt><trkpt lat="43.70933478739025" lon="11.064740986042477"><ele>48.0</ele><time>2026-04-19T08:28:30.998Z</time></trkpt><trkpt lat="43.709283050353086" lon="11.064992947654028"><ele>48.0</ele><time>2026-04-19T08:28:31.998Z</time></trkpt><trkpt lat="43.70924203265372" lon="11.065253520835256"><ele>48.0</ele><time>2026-04-19T08:28:32.998Z</time></trkpt><trkpt lat="43.70920453519765" lon="11.065523513184923"><ele>48.0</ele><time>2026-04-19T08:28:33.998Z</time></trkpt><trkpt lat="43.70916764864705" lon="11.065800627938327"><ele>47.666666666666664</ele><time>2026-04-19T08:28:34.998Z</time></trkpt><trkpt lat="43.70913573418375" lon="11.066085102262537"><ele>47.33333333333333</ele><time>2026-04-19T08:28:35.998Z</time></trkpt><trkpt lat="43.70910543175176" lon="11.06636754532831"><ele>47.0</ele><time>2026-04-19T08:28:36.998Z</time></trkpt><trkpt lat="43.70907624258599" lon="11.066646572999892"><ele>47.0</ele><time>2026-04-19T08:28:37.998Z</time></trkpt><trkpt lat="43.70904706460403" lon="11.066923402097562"><ele>47.0</ele><time>2026-04-19T08:28:38.998Z</time></trkpt><trkpt lat="43.709019215713575" lon="11.067197611928531"><ele>47.0</ele><time>2026-04-19T08:28:39.998Z</time></trkpt><trkpt lat="43.70899100249674" lon="11.06747116077567"><ele>47.33333333333333</ele><time>2026-04-19T08:28:40.998Z</time></trkpt><trkpt lat="43.70896171960895" lon="11.067747173316574"><ele>47.666666666666664</ele><time>2026-04-19T08:28:41.998Z</time></trkpt><trkpt lat="43.70893250561278" lon="11.068022646220413"><ele>48.0</ele><time>2026-04-19T08:28:42.998Z</time></trkpt><trkpt lat="43.708901717275914" lon="11.068297879734253"><ele>48.0</ele><time>2026-04-19T08:28:43.998Z</time></trkpt><trkpt lat="43.708861264546776" lon="11.068570673148724"><ele>48.0</ele><time>2026-04-19T08:28:44.998Z</time></trkpt><trkpt lat="43.708802684344825" lon="11.06883529697364"><ele>48.0</ele><time>2026-04-19T08:28:45.998Z</time></trkpt><trkpt lat="43.70872835029777" lon="11.069092966333194"><ele>47.666666666666664</ele><time>2026-04-19T08:28:46.998Z</time></trkpt><trkpt lat="43.70864492864282" lon="11.069346069453607"><ele>47.33333333333333</ele><time>2026-04-19T08:28:47.998Z</time></trkpt><trkpt lat="43.708552941541136" lon="11.069578018975937"><ele>47.0</ele><time>2026-04-19T08:28:48.998Z</time></trkpt><trkpt lat="43.7084521616621" lon="11.069790645157378"><ele>47.666666666666664</ele><time>2026-04-19T08:28:49.998Z</time></trkpt><trkpt lat="43.70834651803514" lon="11.069983113747396"><ele>48.33333333333333</ele><time>2026-04-19T08:28:50.998Z</time></trkpt><trkpt lat="43.708242732880905" lon="11.070162534124877"><ele>49.0</ele><time>2026-04-19T08:28:51.998Z</time></trkpt><trkpt lat="43.70814170643607" lon="11.070328145889098"><ele>49.0</ele><time>2026-04-19T08:28:52.998Z</time></trkpt><trkpt lat="43.708049622673926" lon="11.070476975077227"><ele>49.0</ele><time>2026-04-19T08:28:53.998Z</time></trkpt><trkpt lat="43.707966909843805" lon="11.070611215963918"><ele>49.0</ele><time>2026-04-19T08:28:54.998Z</time></trkpt><trkpt lat="43.70789188499572" lon="11.070734641294454"><ele>49.0</ele><time>2026-04-19T08:28:55.998Z</time></trkpt><trkpt lat="43.707826029484266" lon="11.070845796003946"><ele>49.166666666666664</ele><time>2026-04-19T08:28:56.998Z</time></trkpt><trkpt lat="43.707766521916746" lon="11.070935714201601"><ele>49.33333333333333</ele><time>2026-04-19T08:28:57.998Z</time></trkpt><trkpt lat="43.707713659225455" lon="11.070996578903474"><ele>49.5</ele><time>2026-04-19T08:28:58.998Z</time></trkpt><trkpt lat="43.70764836230954" lon="11.071029025306538"><ele>49.66666666666667</ele><time>2026-04-19T08:29:00.998Z</time></trkpt><trkpt lat="43.707556523189446" lon="11.071041109439527"><ele>49.833333333333336</ele><time>2026-04-19T08:29:02.998Z</time></trkpt><trkpt lat="43.70748045496906" lon="11.071064134674723"><ele>50.0</ele><time>2026-04-19T08:29:03.998Z</time></trkpt><trkpt lat="43.707410375658775" lon="11.071115927417281"><ele>50.0</ele><time>2026-04-19T08:29:05Z</time></trkpt><trkpt lat="43.707349284226254" lon="11.07120262975734"><ele>50.0</ele><time>2026-04-19T08:29:06Z</time></trkpt><trkpt lat="43.70730750630011" lon="11.07133610069862"><ele>50.0</ele><time>2026-04-19T08:29:07Z</time></trkpt><trkpt lat="43.70728996009485" lon="11.07148018633277"><ele>50.0</ele><time>2026-04-19T08:29:08Z</time></trkpt><trkpt lat="43.70728810899502" lon="11.071628094138356"><ele>50.0</ele><time>2026-04-19T08:29:09Z</time></trkpt><trkpt lat="43.70726733462621" lon="11.071766227794496"><ele>50.25</ele><time>2026-04-19T08:29:10Z</time></trkpt><trkpt lat="43.70721755077705" lon="11.071900699749515"><ele>50.5</ele><time>2026-04-19T08:29:11Z</time></trkpt><trkpt lat="43.70714161407472" lon="11.07201863788071"><ele>50.75</ele><time>2026-04-19T08:29:12Z</time></trkpt><trkpt lat="43.70705652389944" lon="11.072144986744991"><ele>51.0</ele><time>2026-04-19T08:29:13Z</time></trkpt><trkpt lat="43.70696709425891" lon="11.072292701795384"><ele>51.0</ele><time>2026-04-19T08:29:14Z</time></trkpt><trkpt lat="43.70687540623901" lon="11.0724482003022"><ele>51.0</ele><time>2026-04-19T08:29:15Z</time></trkpt><trkpt lat="43.70678439278428" lon="11.072598521717966"><ele>51.0</ele><time>2026-04-19T08:29:16Z</time></trkpt><trkpt lat="43.706692355267435" lon="11.07274951730464"><ele>51.0</ele><time>2026-04-19T08:29:17Z</time></trkpt><trkpt lat="43.7065997790055" lon="11.072908321863025"><ele>51.0</ele><time>2026-04-19T08:29:18Z</time></trkpt><trkpt lat="43.706504952071825" lon="11.07307939154274"><ele>51.0</ele><time>2026-04-19T08:29:19Z</time></trkpt><trkpt lat="43.706408137085" lon="11.07326373733882"><ele>51.0</ele><time>2026-04-19T08:29:20Z</time></trkpt><trkpt lat="43.70631466701781" lon="11.073463420798324"><ele>51.0</ele><time>2026-04-19T08:29:21Z</time></trkpt><trkpt lat="43.706227121463" lon="11.073675067502085"><ele>51.0</ele><time>2026-04-19T08:29:22Z</time></trkpt><trkpt lat="43.70614199499954" lon="11.07390061381735"><ele>51.0</ele><time>2026-04-19T08:29:23Z</time></trkpt><trkpt lat="43.70606105708262" lon="11.074140749914257"><ele>51.33333333333333</ele><time>2026-04-19T08:29:24Z</time></trkpt><trkpt lat="43.70599176748857" lon="11.074377405118701"><ele>51.666666666666664</ele><time>2026-04-19T08:29:25Z</time></trkpt><trkpt lat="43.705931254487524" lon="11.074621734951835"><ele>52.0</ele><time>2026-04-19T08:29:26Z</time></trkpt><trkpt lat="43.70587808798803" lon="11.074872119653573"><ele>51.666666666666664</ele><time>2026-04-19T08:29:27Z</time></trkpt><trkpt lat="43.70582903040133" lon="11.075127167999925"><ele>51.33333333333333</ele><time>2026-04-19T08:29:28Z</time></trkpt><trkpt lat="43.70578714614087" lon="11.07538740556895"><ele>51.0</ele><time>2026-04-19T08:29:29Z</time></trkpt><trkpt lat="43.70575647627122" lon="11.075655735832463"><ele>50.66666666666667</ele><time>2026-04-19T08:29:30Z</time></trkpt><trkpt lat="43.70573577446645" lon="11.075930678870884"><ele>50.333333333333336</ele><time>2026-04-19T08:29:31Z</time></trkpt><trkpt lat="43.705717553243936" lon="11.07621122426729"><ele>50.0</ele><time>2026-04-19T08:29:32Z</time></trkpt><trkpt lat="43.70569382129061" lon="11.076487178889375"><ele>50.0</ele><time>2026-04-19T08:29:33Z</time></trkpt><trkpt lat="43.70566771807793" lon="11.076758836086633"><ele>50.0</ele><time>2026-04-19T08:29:34Z</time></trkpt><trkpt lat="43.70564639373831" lon="11.077032000985547"><ele>50.0</ele><time>2026-04-19T08:29:35Z</time></trkpt><trkpt lat="43.705628336022365" lon="11.077308173596988"><ele>50.333333333333336</ele><time>2026-04-19T08:29:36Z</time></trkpt><trkpt lat="43.705607354753404" lon="11.077584706882467"><ele>50.66666666666667</ele><time>2026-04-19T08:29:37Z</time></trkpt><trkpt lat="43.705583729370986" lon="11.077863126300183"><ele>51.0</ele><time>2026-04-19T08:29:38Z</time></trkpt><trkpt lat="43.705560333089046" lon="11.07814463196024"><ele>51.66666666666667</ele><time>2026-04-19T08:29:39Z</time></trkpt><trkpt lat="43.705540569501046" lon="11.078429290845884"><ele>52.333333333333336</ele><time>2026-04-19T08:29:40Z</time></trkpt><trkpt lat="43.70552079941537" lon="11.07871707118539"><ele>53.0</ele><time>2026-04-19T08:29:41Z</time></trkpt><trkpt lat="43.70549723337914" lon="11.079006518918288"><ele>53.0</ele><time>2026-04-19T08:29:42Z</time></trkpt><trkpt lat="43.70547049762106" lon="11.079295753924532"><ele>53.0</ele><time>2026-04-19T08:29:43Z</time></trkpt><trkpt lat="43.7054414639746" lon="11.079584378710061"><ele>53.0</ele><time>2026-04-19T08:29:44Z</time></trkpt><trkpt lat="43.70540749624072" lon="11.079871518523802"><ele>53.0</ele><time>2026-04-19T08:29:45Z</time></trkpt><trkpt lat="43.705369754457266" lon="11.080160555339866"><ele>53.0</ele><time>2026-04-19T08:29:46Z</time></trkpt><trkpt lat="43.70533081813892" lon="11.080450512610694"><ele>53.0</ele><time>2026-04-19T08:29:46.999Z</time></trkpt><trkpt lat="43.70528792367772" lon="11.080740906750947"><ele>53.0</ele><time>2026-04-19T08:29:47.999Z</time></trkpt><trkpt lat="43.705239616010495" lon="11.081030632039443"><ele>53.0</ele><time>2026-04-19T08:29:48.999Z</time></trkpt><trkpt lat="43.70518576917506" lon="11.081319065291137"><ele>53.0</ele><time>2026-04-19T08:29:49.999Z</time></trkpt><trkpt lat="43.705126094498404" lon="11.081604149820645"><ele>53.0</ele><time>2026-04-19T08:29:50.999Z</time></trkpt><trkpt lat="43.70506153409403" lon="11.081888377888772"><ele>53.0</ele><time>2026-04-19T08:29:51.999Z</time></trkpt><trkpt lat="43.70499446986797" lon="11.082171119405087"><ele>53.0</ele><time>2026-04-19T08:29:52.999Z</time></trkpt><trkpt lat="43.70492375946617" lon="11.08245230033837"><ele>53.0</ele><time>2026-04-19T08:29:53.999Z</time></trkpt><trkpt lat="43.704848667664464" lon="11.082729649869481"><ele>53.0</ele><time>2026-04-19T08:29:54.999Z</time></trkpt><trkpt lat="43.70477037988303" lon="11.08300576065958"><ele>53.0</ele><time>2026-04-19T08:29:55.999Z</time></trkpt><trkpt lat="43.70468994075409" lon="11.083279536682161"><ele>53.333333333333336</ele><time>2026-04-19T08:29:56.999Z</time></trkpt><trkpt lat="43.70460838178283" lon="11.083553084420322"><ele>53.66666666666667</ele><time>2026-04-19T08:29:57.999Z</time></trkpt><trkpt lat="43.704533676766445" lon="11.083828845038992"><ele>54.0</ele><time>2026-04-19T08:29:58.999Z</time></trkpt><trkpt lat="43.704471859882126" lon="11.08410915001012"><ele>54.33333333333333</ele><time>2026-04-19T08:29:59.999Z</time></trkpt><trkpt lat="43.70442651294847" lon="11.084394106276852"><ele>54.666666666666664</ele><time>2026-04-19T08:30:00.999Z</time></trkpt><trkpt lat="43.7043981010152" lon="11.084681467150228"><ele>55.0</ele><time>2026-04-19T08:30:01.999Z</time></trkpt><trkpt lat="43.70439184584201" lon="11.084969868268608"><ele>54.666666666666664</ele><time>2026-04-19T08:30:02.999Z</time></trkpt><trkpt lat="43.70440918711417" lon="11.085257676116395"><ele>54.33333333333333</ele><time>2026-04-19T08:30:03.999Z</time></trkpt><trkpt lat="43.70444307482798" lon="11.085525854094755"><ele>54.0</ele><time>2026-04-19T08:30:04.999Z</time></trkpt><trkpt lat="43.70448842426095" lon="11.085776903203323"><ele>54.0</ele><time>2026-04-19T08:30:05.999Z</time></trkpt><trkpt lat="43.70453926479152" lon="11.086001115390081"><ele>54.0</ele><time>2026-04-19T08:30:06.999Z</time></trkpt><trkpt lat="43.70458580886582" lon="11.086207430003922"><ele>54.0</ele><time>2026-04-19T08:30:07.999Z</time></trkpt><trkpt lat="43.7046244233864" lon="11.08640489618108"><ele>54.0</ele><time>2026-04-19T08:30:08.999Z</time></trkpt><trkpt lat="43.70464963740273" lon="11.08658846670236"><ele>54.0</ele><time>2026-04-19T08:30:09.999Z</time></trkpt><trkpt lat="43.704661931709026" lon="11.086757967893497"><ele>54.0</ele><time>2026-04-19T08:30:10.999Z</time></trkpt><trkpt lat="43.70465971488186" lon="11.08691178563453"><ele>54.0</ele><time>2026-04-19T08:30:11.999Z</time></trkpt><trkpt lat="43.70463852090131" lon="11.08705090008923"><ele>54.0</ele><time>2026-04-19T08:30:12.999Z</time></trkpt><trkpt lat="43.70459246130829" lon="11.087189960270512"><ele>54.00000000000001</ele><time>2026-04-19T08:30:13.999Z</time></trkpt><trkpt lat="43.70452708668016" lon="11.087321372037959"><ele>54.00000000000001</ele><time>2026-04-19T08:30:14.999Z</time></trkpt><trkpt lat="43.70445614901861" lon="11.087429543425804"><ele>54.0</ele><time>2026-04-19T08:30:15.999Z</time></trkpt><trkpt lat="43.70441862318014" lon="11.087542961021297"><ele>54.0</ele><time>2026-04-19T08:30:16.999Z</time></trkpt><trkpt lat="43.70425330698575" lon="11.087534009392082"><ele>54.25</ele><time>2026-04-19T08:30:17.999Z</time></trkpt><trkpt lat="43.70412480844822" lon="11.087529098878793"><ele>54.5</ele><time>2026-04-19T08:30:18.999Z</time></trkpt><trkpt lat="43.70398087987825" lon="11.087517288458415"><ele>54.75</ele><time>2026-04-19T08:30:19.999Z</time></trkpt><trkpt lat="43.70381838136025" lon="11.087525525338377"><ele>55.0</ele><time>2026-04-19T08:30:20.999Z</time></trkpt><trkpt lat="43.703638255346824" lon="11.08754705595688"><ele>54.33333333333333</ele><time>2026-04-19T08:30:21.999Z</time></trkpt><trkpt lat="43.70346234347546" lon="11.08757920554624"><ele>53.66666666666667</ele><time>2026-04-19T08:30:22.999Z</time></trkpt><trkpt lat="43.7032884297504" lon="11.08762866800261"><ele>53.0</ele><time>2026-04-19T08:30:23.999Z</time></trkpt><trkpt lat="43.70311672017759" lon="11.087695596657465"><ele>53.0</ele><time>2026-04-19T08:30:24.999Z</time></trkpt><trkpt lat="43.70294520982775" lon="11.087774329655009"><ele>53.0</ele><time>2026-04-19T08:30:25.999Z</time></trkpt><trkpt lat="43.70277346177218" lon="11.087862525536544"><ele>53.0</ele><time>2026-04-19T08:30:26.999Z</time></trkpt><trkpt lat="43.70260332645138" lon="11.087971239238248"><ele>53.333333333333336</ele><time>2026-04-19T08:30:27.999Z</time></trkpt><trkpt lat="43.7024392936305" lon="11.088098928306549"><ele>53.66666666666667</ele><time>2026-04-19T08:30:28.999Z</time></trkpt><trkpt lat="43.702281069395724" lon="11.088234727847558"><ele>54.0</ele><time>2026-04-19T08:30:29.999Z</time></trkpt><trkpt lat="43.702130223876026" lon="11.088382772965472"><ele>54.0</ele><time>2026-04-19T08:30:30.999Z</time></trkpt><trkpt lat="43.70198710098537" lon="11.088544032504492"><ele>54.0</ele><time>2026-04-19T08:30:31.999Z</time></trkpt><trkpt lat="43.70185105283155" lon="11.088722684109173"><ele>54.0</ele><time>2026-04-19T08:30:32.999Z</time></trkpt><trkpt lat="43.701721082285815" lon="11.088919778243136"><ele>54.0</ele><time>2026-04-19T08:30:33.999Z</time></trkpt><trkpt lat="43.70158871083675" lon="11.089122612947085"><ele>54.0</ele><time>2026-04-19T08:30:34.999Z</time></trkpt><trkpt lat="43.701462958836515" lon="11.08932621328944"><ele>54.0</ele><time>2026-04-19T08:30:35.999Z</time></trkpt><trkpt lat="43.70134739152087" lon="11.089539270650967"><ele>54.0</ele><time>2026-04-19T08:30:36.998Z</time></trkpt><trkpt lat="43.7012365083391" lon="11.089757851196467"><ele>54.0</ele><time>2026-04-19T08:30:37.998Z</time></trkpt><trkpt lat="43.70112358235584" lon="11.089976707240815"><ele>54.0</ele><time>2026-04-19T08:30:38.998Z</time></trkpt><trkpt lat="43.701010613964094" lon="11.090194273586231"><ele>54.33333333333333</ele><time>2026-04-19T08:30:39.998Z</time></trkpt><trkpt lat="43.70090427985701" lon="11.090421583109764"><ele>54.666666666666664</ele><time>2026-04-19T08:30:40.998Z</time></trkpt><trkpt lat="43.700801613738435" lon="11.090652077887523"><ele>55.0</ele><time>2026-04-19T08:30:41.998Z</time></trkpt><trkpt lat="43.700693460249276" lon="11.090874338582077"><ele>55.666666666666664</ele><time>2026-04-19T08:30:42.998Z</time></trkpt><trkpt lat="43.70057837098751" lon="11.091093428578201"><ele>56.33333333333333</ele><time>2026-04-19T08:30:43.998Z</time></trkpt><trkpt lat="43.70045813112265" lon="11.091309919687925"><ele>57.0</ele><time>2026-04-19T08:30:44.998Z</time></trkpt><trkpt lat="43.700331253108864" lon="11.091519922128311"><ele>57.0</ele><time>2026-04-19T08:30:45.998Z</time></trkpt><trkpt lat="43.7001992577864" lon="11.09173338301192"><ele>57.0</ele><time>2026-04-19T08:30:46.998Z</time></trkpt><trkpt lat="43.70005964218691" lon="11.091943881690181"><ele>57.0</ele><time>2026-04-19T08:30:47.998Z</time></trkpt><trkpt lat="43.69991303112162" lon="11.092146707591187"><ele>57.0</ele><time>2026-04-19T08:30:48.998Z</time></trkpt><trkpt lat="43.69976381928139" lon="11.092348477720014"><ele>57.0</ele><time>2026-04-19T08:30:49.998Z</time></trkpt><trkpt lat="43.6996121354281" lon="11.09254647795764"><ele>57.0</ele><time>2026-04-19T08:30:50.998Z</time></trkpt><trkpt lat="43.69945844484081" lon="11.09273976642592"><ele>57.0</ele><time>2026-04-19T08:30:51.998Z</time></trkpt><trkpt lat="43.6993060804348" lon="11.09292851035772"><ele>57.0</ele><time>2026-04-19T08:30:52.998Z</time></trkpt><trkpt lat="43.69915686920497" lon="11.093117659791007"><ele>57.0</ele><time>2026-04-19T08:30:53.998Z</time></trkpt><trkpt lat="43.69901027366194" lon="11.09331771625945"><ele>57.0</ele><time>2026-04-19T08:30:54.998Z</time></trkpt><trkpt lat="43.69886490803066" lon="11.09352548071162"><ele>57.0</ele><time>2026-04-19T08:30:55.998Z</time></trkpt><trkpt lat="43.69872172301469" lon="11.093739956105212"><ele>57.0</ele><time>2026-04-19T08:30:56.998Z</time></trkpt><trkpt lat="43.69858418017294" lon="11.093963023173265"><ele>56.66666666666667</ele><time>2026-04-19T08:30:57.998Z</time></trkpt><trkpt lat="43.69845615060798" lon="11.094194911271233"><ele>56.333333333333336</ele><time>2026-04-19T08:30:58.998Z</time></trkpt><trkpt lat="43.69833894000258" lon="11.094435901974908"><ele>56.0</ele><time>2026-04-19T08:30:59.998Z</time></trkpt><trkpt lat="43.69823359937405" lon="11.094685694369362"><ele>56.333333333333336</ele><time>2026-04-19T08:31:00.998Z</time></trkpt><trkpt lat="43.698142395351816" lon="11.094946493459219"><ele>56.66666666666667</ele><time>2026-04-19T08:31:01.998Z</time></trkpt><trkpt lat="43.69806526293978" lon="11.095219714280677"><ele>57.0</ele><time>2026-04-19T08:31:02.998Z</time></trkpt><trkpt lat="43.69799987541159" lon="11.095501446369365"><ele>57.33333333333333</ele><time>2026-04-19T08:31:03.998Z</time></trkpt><trkpt lat="43.69794638374854" lon="11.095790297818176"><ele>57.666666666666664</ele><time>2026-04-19T08:31:04.998Z</time></trkpt><trkpt lat="43.69790756816211" lon="11.096080068950076"><ele>58.0</ele><time>2026-04-19T08:31:05.998Z</time></trkpt><trkpt lat="43.69788228707493" lon="11.096370332982287"><ele>58.0</ele><time>2026-04-19T08:31:06.998Z</time></trkpt><trkpt lat="43.69787012431527" lon="11.096656266588028"><ele>58.0</ele><time>2026-04-19T08:31:07.998Z</time></trkpt><trkpt lat="43.69786440001439" lon="11.09694128310144"><ele>58.0</ele><time>2026-04-19T08:31:08.998Z</time></trkpt><trkpt lat="43.69785876654051" lon="11.097220155407351"><ele>58.666666666666664</ele><time>2026-04-19T08:31:09.998Z</time></trkpt><trkpt lat="43.69784743362548" lon="11.097482118405699"><ele>59.33333333333333</ele><time>2026-04-19T08:31:11Z</time></trkpt><trkpt lat="43.69783003949275" lon="11.097731268110925"><ele>60.0</ele><time>2026-04-19T08:31:12Z</time></trkpt><trkpt lat="43.697805917655785" lon="11.097976324265524"><ele>60.0</ele><time>2026-04-19T08:31:13Z</time></trkpt><trkpt lat="43.69777469026244" lon="11.09821221566924"><ele>60.0</ele><time>2026-04-19T08:31:14Z</time></trkpt><trkpt lat="43.69773503555487" lon="11.098431871332378"><ele>60.0</ele><time>2026-04-19T08:31:15Z</time></trkpt><trkpt lat="43.69768713376081" lon="11.098633319853624"><ele>60.0</ele><time>2026-04-19T08:31:16Z</time></trkpt><trkpt lat="43.69763100501287" lon="11.098815801220683"><ele>60.0</ele><time>2026-04-19T08:31:17Z</time></trkpt><trkpt lat="43.697567177802306" lon="11.098983201342273"><ele>60.0</ele><time>2026-04-19T08:31:18Z</time></trkpt><trkpt lat="43.69750055439046" lon="11.099130969065152"><ele>60.0</ele><time>2026-04-19T08:31:19Z</time></trkpt><trkpt lat="43.697432813203655" lon="11.099262810775606"><ele>60.2</ele><time>2026-04-19T08:31:20Z</time></trkpt><trkpt lat="43.69736440144608" lon="11.099376242071026"><ele>60.4</ele><time>2026-04-19T08:31:21Z</time></trkpt><trkpt lat="43.69729789887269" lon="11.099469365498807"><ele>60.599999999999994</ele><time>2026-04-19T08:31:22Z</time></trkpt><trkpt lat="43.697239437588244" lon="11.099550034683169"><ele>60.8</ele><time>2026-04-19T08:31:23Z</time></trkpt><trkpt lat="43.697187783062" lon="11.099616742330474"><ele>61.0</ele><time>2026-04-19T08:31:24Z</time></trkpt><trkpt lat="43.69710909307886" lon="11.099717968706832"><ele>60.99999999999999</ele><time>2026-04-19T08:31:26Z</time></trkpt><trkpt lat="43.69701515281065" lon="11.099686884452797"><ele>61.0</ele><time>2026-04-19T08:31:27Z</time></trkpt><trkpt lat="43.69694048528224" lon="11.099695513108273"><ele>61.0</ele><time>2026-04-19T08:31:28Z</time></trkpt><trkpt lat="43.69686972177972" lon="11.09973251320209"><ele>61.0</ele><time>2026-04-19T08:31:29Z</time></trkpt><trkpt lat="43.69681538001612" lon="11.099797708285973"><ele>60.99999999999999</ele><time>2026-04-19T08:31:30Z</time></trkpt><trkpt lat="43.696784771069716" lon="11.099887334496541"><ele>61.0</ele><time>2026-04-19T08:31:31Z</time></trkpt><trkpt lat="43.69677477566524" lon="11.099999184605402"><ele>61.0</ele><time>2026-04-19T08:31:32Z</time></trkpt><trkpt lat="43.69678853682906" lon="11.100118431900803"><ele>60.99999999999999</ele><time>2026-04-19T08:31:33Z</time></trkpt><trkpt lat="43.69680850909289" lon="11.100248292186219"><ele>60.99999999999999</ele><time>2026-04-19T08:31:34Z</time></trkpt><trkpt lat="43.69680689275043" lon="11.100395569232331"><ele>61.0</ele><time>2026-04-19T08:31:35Z</time></trkpt><trkpt lat="43.69678349425499" lon="11.100543790717865"><ele>61.0</ele><time>2026-04-19T08:31:36Z</time></trkpt><trkpt lat="43.696739130643856" lon="11.100691598001418"><ele>61.5</ele><time>2026-04-19T08:31:37Z</time></trkpt><trkpt lat="43.696681405473385" lon="11.10084141689527"><ele>62.0</ele><time>2026-04-19T08:31:38Z</time></trkpt><trkpt lat="43.69660561579096" lon="11.100990174057785"><ele>62.5</ele><time>2026-04-19T08:31:39Z</time></trkpt><trkpt lat="43.696516606635775" lon="11.101135261851965"><ele>63.0</ele><time>2026-04-19T08:31:40Z</time></trkpt><trkpt lat="43.69642576306198" lon="11.101291262334819"><ele>63.0</ele><time>2026-04-19T08:31:41Z</time></trkpt><trkpt lat="43.69633933929677" lon="11.101449666736531"><ele>63.0</ele><time>2026-04-19T08:31:42Z</time></trkpt><trkpt lat="43.69624736177121" lon="11.101608329091581"><ele>63.0</ele><time>2026-04-19T08:31:43Z</time></trkpt><trkpt lat="43.69614971624541" lon="11.101771322061463"><ele>63.0</ele><time>2026-04-19T08:31:44Z</time></trkpt><trkpt lat="43.69604891643651" lon="11.101940820416786"><ele>63.33333333333333</ele><time>2026-04-19T08:31:45Z</time></trkpt><trkpt lat="43.69594652072687" lon="11.102106485779373"><ele>63.666666666666664</ele><time>2026-04-19T08:31:46Z</time></trkpt><trkpt lat="43.695844158631346" lon="11.102273390157734"><ele>64.0</ele><time>2026-04-19T08:31:47Z</time></trkpt><trkpt lat="43.69574835722592" lon="11.10245506818847"><ele>64.33333333333333</ele><time>2026-04-19T08:31:48Z</time></trkpt><trkpt lat="43.695664636243876" lon="11.102657755424913"><ele>64.66666666666667</ele><time>2026-04-19T08:31:49Z</time></trkpt><trkpt lat="43.69559781602527" lon="11.102882742340084"><ele>65.0</ele><time>2026-04-19T08:31:50Z</time></trkpt><trkpt lat="43.69555076833599" lon="11.103110299029115"><ele>65.25</ele><time>2026-04-19T08:31:51Z</time></trkpt><trkpt lat="43.69551269661452" lon="11.103315438134835"><ele>65.5</ele><time>2026-04-19T08:31:52Z</time></trkpt><trkpt lat="43.69547206893948" lon="11.103501555806378"><ele>65.75</ele><time>2026-04-19T08:31:53Z</time></trkpt><trkpt lat="43.695432100625226" lon="11.103676920583691"><ele>66.0</ele><time>2026-04-19T08:31:54Z</time></trkpt><trkpt lat="43.69539996134765" lon="11.103838193705117"><ele>66.0</ele><time>2026-04-19T08:31:55Z</time></trkpt><trkpt lat="43.69537041014274" lon="11.10399027899768"><ele>66.0</ele><time>2026-04-19T08:31:56Z</time></trkpt><trkpt lat="43.69533850556988" lon="11.104121937223319"><ele>66.0</ele><time>2026-04-19T08:31:57Z</time></trkpt><trkpt lat="43.695299975955336" lon="11.104243406663631"><ele>66.0</ele><time>2026-04-19T08:31:58Z</time></trkpt><trkpt lat="43.69524595614407" lon="11.10434161261323"><ele>66.0</ele><time>2026-04-19T08:31:59Z</time></trkpt><trkpt lat="43.69518974568515" lon="11.104413213499026"><ele>66.0</ele><time>2026-04-19T08:32:00Z</time></trkpt><trkpt lat="43.695150225639765" lon="11.104509642702274"><ele>66.0</ele><time>2026-04-19T08:32:01Z</time></trkpt><trkpt lat="43.69513622735196" lon="11.104636342480953"><ele>66.0</ele><time>2026-04-19T08:32:02Z</time></trkpt><trkpt lat="43.69514841100799" lon="11.104773332955059"><ele>66.0</ele><time>2026-04-19T08:32:02.999Z</time></trkpt><trkpt lat="43.69516791261142" lon="11.104928630775705"><ele>66.0</ele><time>2026-04-19T08:32:03.999Z</time></trkpt><trkpt lat="43.69516172561801" lon="11.105096685380792"><ele>66.0</ele><time>2026-04-19T08:32:04.999Z</time></trkpt><trkpt lat="43.69513774915986" lon="11.10526788509081"><ele>66.0</ele><time>2026-04-19T08:32:05.999Z</time></trkpt><trkpt lat="43.69510818214351" lon="11.10545353698076"><ele>66.0</ele><time>2026-04-19T08:32:06.999Z</time></trkpt><trkpt lat="43.69507696310768" lon="11.105650366206309"><ele>66.0</ele><time>2026-04-19T08:32:07.999Z</time></trkpt><trkpt lat="43.69504326320032" lon="11.10585985955573"><ele>66.33333333333333</ele><time>2026-04-19T08:32:08.999Z</time></trkpt><trkpt lat="43.69500852771785" lon="11.106084662426737"><ele>66.66666666666666</ele><time>2026-04-19T08:32:09.999Z</time></trkpt><trkpt lat="43.69496943174879" lon="11.106308780037708"><ele>67.0</ele><time>2026-04-19T08:32:10.999Z</time></trkpt><trkpt lat="43.69492648882944" lon="11.106519856603715"><ele>67.33333333333333</ele><time>2026-04-19T08:32:11.999Z</time></trkpt><trkpt lat="43.69488035443901" lon="11.106736509599397"><ele>67.66666666666667</ele><time>2026-04-19T08:32:12.999Z</time></trkpt><trkpt lat="43.6948294190103" lon="11.106953822607386"><ele>68.0</ele><time>2026-04-19T08:32:13.999Z</time></trkpt><trkpt lat="43.69477520475204" lon="11.107168754501627"><ele>68.0</ele><time>2026-04-19T08:32:14.999Z</time></trkpt><trkpt lat="43.69472565052706" lon="11.107383211731182"><ele>68.0</ele><time>2026-04-19T08:32:15.999Z</time></trkpt><trkpt lat="43.694684728212714" lon="11.107600218714662"><ele>68.0</ele><time>2026-04-19T08:32:16.999Z</time></trkpt><trkpt lat="43.69464839137722" lon="11.107812840456937"><ele>68.0</ele><time>2026-04-19T08:32:17.999Z</time></trkpt><trkpt lat="43.69461483072828" lon="11.10800616955473"><ele>68.0</ele><time>2026-04-19T08:32:18.999Z</time></trkpt><trkpt lat="43.694587626636235" lon="11.108172734066516"><ele>68.0</ele><time>2026-04-19T08:32:19.999Z</time></trkpt><trkpt lat="43.69455901062996" lon="11.108326885042484"><ele>68.0</ele><time>2026-04-19T08:32:20.999Z</time></trkpt><trkpt lat="43.69452779395773" lon="11.10847318153036"><ele>68.0</ele><time>2026-04-19T08:32:21.999Z</time></trkpt><trkpt lat="43.69449058813311" lon="11.108626390451501"><ele>68.0</ele><time>2026-04-19T08:32:22.999Z</time></trkpt><trkpt lat="43.69443999753432" lon="11.108785684638681"><ele>68.0</ele><time>2026-04-19T08:32:23.999Z</time></trkpt><trkpt lat="43.694371562272146" lon="11.108941401989822"><ele>68.0</ele><time>2026-04-19T08:32:24.999Z</time></trkpt><trkpt lat="43.69429614672656" lon="11.109104133192234"><ele>69.0</ele><time>2026-04-19T08:32:25.999Z</time></trkpt><trkpt lat="43.69422030669046" lon="11.109281980609955"><ele>70.0</ele><time>2026-04-19T08:32:26.999Z</time></trkpt><trkpt lat="43.69414160301765" lon="11.109473796027357"><ele>71.0</ele><time>2026-04-19T08:32:27.999Z</time></trkpt><trkpt lat="43.6940590468256" lon="11.10966244123402"><ele>71.0</ele><time>2026-04-19T08:32:28.999Z</time></trkpt><trkpt lat="43.6939797651075" lon="11.10985343710037"><ele>71.0</ele><time>2026-04-19T08:32:29.999Z</time></trkpt><trkpt lat="43.69390537371051" lon="11.11005211918321"><ele>71.0</ele><time>2026-04-19T08:32:30.999Z</time></trkpt><trkpt lat="43.69383718134189" lon="11.110259374274095"><ele>71.66666666666667</ele><time>2026-04-19T08:32:31.999Z</time></trkpt><trkpt lat="43.693784681794874" lon="11.110473524536584"><ele>72.33333333333333</ele><time>2026-04-19T08:32:32.999Z</time></trkpt><trkpt lat="43.69374867762357" lon="11.110691851655055"><ele>73.0</ele><time>2026-04-19T08:32:33.999Z</time></trkpt><trkpt lat="43.69372513090053" lon="11.110908504370029"><ele>73.5</ele><time>2026-04-19T08:32:34.999Z</time></trkpt><trkpt lat="43.693703867931376" lon="11.111097704560061"><ele>74.0</ele><time>2026-04-19T08:32:35.999Z</time></trkpt><trkpt lat="43.6936838911561" lon="11.111272424108344"><ele>74.5</ele><time>2026-04-19T08:32:36.999Z</time></trkpt><trkpt lat="43.69366014059249" lon="11.111443047089395"><ele>75.0</ele><time>2026-04-19T08:32:37.999Z</time></trkpt><trkpt lat="43.69361675946239" lon="11.111618188815848"><ele>74.0</ele><time>2026-04-19T08:32:38.999Z</time></trkpt><trkpt lat="43.69355309161387" lon="11.111797110975482"><ele>73.0</ele><time>2026-04-19T08:32:39.999Z</time></trkpt><trkpt lat="43.69345103611597" lon="11.111975031401753"><ele>72.0</ele><time>2026-04-19T08:32:40.999Z</time></trkpt><trkpt lat="43.69333461908247" lon="11.11214664082681"><ele>72.0</ele><time>2026-04-19T08:32:41.999Z</time></trkpt><trkpt lat="43.693229403239165" lon="11.112332471297954"><ele>72.0</ele><time>2026-04-19T08:32:42.999Z</time></trkpt><trkpt lat="43.6931278447996" lon="11.112528938560073"><ele>72.0</ele><time>2026-04-19T08:32:43.999Z</time></trkpt><trkpt lat="43.693024997211005" lon="11.112713062057308"><ele>71.66666666666667</ele><time>2026-04-19T08:32:44.999Z</time></trkpt><trkpt lat="43.69291934196571" lon="11.112891808674508"><ele>71.33333333333334</ele><time>2026-04-19T08:32:45.999Z</time></trkpt><trkpt lat="43.69281249280609" lon="11.113067807582398"><ele>71.0</ele><time>2026-04-19T08:32:46.999Z</time></trkpt><trkpt lat="43.69269032259155" lon="11.113227386483668"><ele>71.66666666666667</ele><time>2026-04-19T08:32:47.999Z</time></trkpt><trkpt lat="43.69255926128073" lon="11.113373022998298"><ele>72.33333333333333</ele><time>2026-04-19T08:32:48.999Z</time></trkpt><trkpt lat="43.69243370557192" lon="11.113531947763986"><ele>73.0</ele><time>2026-04-19T08:32:49.999Z</time></trkpt><trkpt lat="43.6923153572858" lon="11.11370492404817"><ele>73.0</ele><time>2026-04-19T08:32:50.999Z</time></trkpt><trkpt lat="43.69219989628812" lon="11.11387706892883"><ele>73.0</ele><time>2026-04-19T08:32:51.999Z</time></trkpt><trkpt lat="43.692083679403616" lon="11.114042032505795"><ele>73.0</ele><time>2026-04-19T08:32:52.998Z</time></trkpt><trkpt lat="43.69197138430112" lon="11.114207752613135"><ele>71.66666666666666</ele><time>2026-04-19T08:32:53.998Z</time></trkpt><trkpt lat="43.69185950205015" lon="11.114384396718474"><ele>70.33333333333333</ele><time>2026-04-19T08:32:54.998Z</time></trkpt><trkpt lat="43.691750862069604" lon="11.114568032127957"><ele>69.0</ele><time>2026-04-19T08:32:55.998Z</time></trkpt><trkpt lat="43.69164568819369" lon="11.11476196992646"><ele>69.66666666666667</ele><time>2026-04-19T08:32:56.998Z</time></trkpt><trkpt lat="43.691544924705816" lon="11.114966385486962"><ele>70.33333333333334</ele><time>2026-04-19T08:32:57.998Z</time></trkpt><trkpt lat="43.691447934570064" lon="11.115174336040472"><ele>71.0</ele><time>2026-04-19T08:32:58.998Z</time></trkpt><trkpt lat="43.69135030772311" lon="11.115381162800965"><ele>71.0</ele><time>2026-04-19T08:32:59.998Z</time></trkpt><trkpt lat="43.691256203809715" lon="11.11559367485406"><ele>71.0</ele><time>2026-04-19T08:33:00.998Z</time></trkpt><trkpt lat="43.69117100969004" lon="11.115807014117218"><ele>71.0</ele><time>2026-04-19T08:33:01.998Z</time></trkpt><trkpt lat="43.69108540886058" lon="11.116017367929953"><ele>71.0</ele><time>2026-04-19T08:33:02.998Z</time></trkpt><trkpt lat="43.691002754663614" lon="11.116225220488365"><ele>71.0</ele><time>2026-04-19T08:33:03.998Z</time></trkpt><trkpt lat="43.69093422225507" lon="11.116438534746575"><ele>71.0</ele><time>2026-04-19T08:33:04.998Z</time></trkpt><trkpt lat="43.690878497931315" lon="11.116658379890962"><ele>71.0</ele><time>2026-04-19T08:33:05.998Z</time></trkpt><trkpt lat="43.69082712908546" lon="11.116870082509285"><ele>71.0</ele><time>2026-04-19T08:33:06.998Z</time></trkpt><trkpt lat="43.690764555539666" lon="11.117072120382995"><ele>71.0</ele><time>2026-04-19T08:33:07.998Z</time></trkpt><trkpt lat="43.69069061216489" lon="11.117269085286239"><ele>71.0</ele><time>2026-04-19T08:33:08.998Z</time></trkpt><trkpt lat="43.69060434941454" lon="11.117461143315285"><ele>71.0</ele><time>2026-04-19T08:33:09.998Z</time></trkpt><trkpt lat="43.69050886924287" lon="11.117643918662303"><ele>71.0</ele><time>2026-04-19T08:33:10.998Z</time></trkpt><trkpt lat="43.690410013904305" lon="11.117818050934266"><ele>71.0</ele><time>2026-04-19T08:33:11.998Z</time></trkpt><trkpt lat="43.690309179778914" lon="11.11799214221102"><ele>71.0</ele><time>2026-04-19T08:33:12.998Z</time></trkpt><trkpt lat="43.69020602045113" lon="11.118158199269818"><ele>71.0</ele><time>2026-04-19T08:33:13.998Z</time></trkpt><trkpt lat="43.69009019613736" lon="11.118305424297436"><ele>71.25</ele><time>2026-04-19T08:33:14.998Z</time></trkpt><trkpt lat="43.689963080366454" lon="11.11842992148216"><ele>71.5</ele><time>2026-04-19T08:33:15.998Z</time></trkpt><trkpt lat="43.68983696002822" lon="11.118538757069562"><ele>71.75</ele><time>2026-04-19T08:33:17Z</time></trkpt><trkpt lat="43.689718470042706" lon="11.118634986713847"><ele>72.0</ele><time>2026-04-19T08:33:18Z</time></trkpt><trkpt lat="43.68960706879146" lon="11.118728116616074"><ele>72.0</ele><time>2026-04-19T08:33:19Z</time></trkpt><trkpt lat="43.68950276788012" lon="11.118826132171813"><ele>72.0</ele><time>2026-04-19T08:33:20Z</time></trkpt><trkpt lat="43.68941398515224" lon="11.118953599306964"><ele>72.0</ele><time>2026-04-19T08:33:21Z</time></trkpt><trkpt lat="43.68935551081452" lon="11.119118972619596"><ele>72.0</ele><time>2026-04-19T08:33:22Z</time></trkpt><trkpt lat="43.68932108532096" lon="11.119299004503175"><ele>72.0</ele><time>2026-04-19T08:33:23Z</time></trkpt><trkpt lat="43.689312299589865" lon="11.119496799481173"><ele>72.0</ele><time>2026-04-19T08:33:24Z</time></trkpt><trkpt lat="43.68933006757284" lon="11.119704655994623"><ele>72.0</ele><time>2026-04-19T08:33:25Z</time></trkpt><trkpt lat="43.68934988923476" lon="11.119919641119946"><ele>72.0</ele><time>2026-04-19T08:33:26Z</time></trkpt><trkpt lat="43.68936133083964" lon="11.120122377474404"><ele>72.0</ele><time>2026-04-19T08:33:27Z</time></trkpt><trkpt lat="43.68936240900878" lon="11.120310868649426"><ele>72.0</ele><time>2026-04-19T08:33:28Z</time></trkpt><trkpt lat="43.68934429977528" lon="11.120501607878673"><ele>72.0</ele><time>2026-04-19T08:33:29Z</time></trkpt><trkpt lat="43.689307545129374" lon="11.120691162522384"><ele>72.25</ele><time>2026-04-19T08:33:30Z</time></trkpt><trkpt lat="43.68926270228884" lon="11.120872396196457"><ele>72.5</ele><time>2026-04-19T08:33:31Z</time></trkpt><trkpt lat="43.6892185038609" lon="11.121058858033926"><ele>72.75</ele><time>2026-04-19T08:33:32Z</time></trkpt><trkpt lat="43.689177707560184" lon="11.121240914572555"><ele>73.0</ele><time>2026-04-19T08:33:33Z</time></trkpt><trkpt lat="43.68913718117215" lon="11.121408792171174"><ele>73.25</ele><time>2026-04-19T08:33:34Z</time></trkpt><trkpt lat="43.68910290145958" lon="11.121578716069877"><ele>73.5</ele><time>2026-04-19T08:33:35Z</time></trkpt><trkpt lat="43.689066407087985" lon="11.121744483720702"><ele>73.75</ele><time>2026-04-19T08:33:36Z</time></trkpt><trkpt lat="43.68900866978361" lon="11.12190687876326"><ele>74.0</ele><time>2026-04-19T08:33:37Z</time></trkpt><trkpt lat="43.68892659591367" lon="11.122053721057776"><ele>74.0</ele><time>2026-04-19T08:33:38Z</time></trkpt><trkpt lat="43.68882534838907" lon="11.122174241508453"><ele>74.0</ele><time>2026-04-19T08:33:39Z</time></trkpt><trkpt lat="43.688715277481776" lon="11.12228680369827"><ele>74.0</ele><time>2026-04-19T08:33:40Z</time></trkpt><trkpt lat="43.688604620273594" lon="11.122399635025989"><ele>74.0</ele><time>2026-04-19T08:33:41Z</time></trkpt><trkpt lat="43.68849696476324" lon="11.122514667507948"><ele>74.25</ele><time>2026-04-19T08:33:42Z</time></trkpt><trkpt lat="43.68839377375444" lon="11.12262480174977"><ele>74.5</ele><time>2026-04-19T08:33:43Z</time></trkpt><trkpt lat="43.68829582941645" lon="11.122735121810148"><ele>74.75</ele><time>2026-04-19T08:33:44Z</time></trkpt><trkpt lat="43.68821727690221" lon="11.12286873351891"><ele>75.0</ele><time>2026-04-19T08:33:45Z</time></trkpt><trkpt lat="43.6881551335621" lon="11.123000075466988"><ele>75.0</ele><time>2026-04-19T08:33:46Z</time></trkpt><trkpt lat="43.688087625106" lon="11.123129225769166"><ele>75.0</ele><time>2026-04-19T08:33:47Z</time></trkpt><trkpt lat="43.68800295344613" lon="11.123258152990088"><ele>75.0</ele><time>2026-04-19T08:33:48Z</time></trkpt><trkpt lat="43.68790516783155" lon="11.123391093533941"><ele>75.0</ele><time>2026-04-19T08:33:49Z</time></trkpt><trkpt lat="43.687802415560036" lon="11.123528976961955"><ele>74.75</ele><time>2026-04-19T08:33:50Z</time></trkpt><trkpt lat="43.687697972454465" lon="11.123667503805798"><ele>74.5</ele><time>2026-04-19T08:33:51Z</time></trkpt><trkpt lat="43.68758752034813" lon="11.12380134872248"><ele>74.25</ele><time>2026-04-19T08:33:52Z</time></trkpt><trkpt lat="43.68747885559759" lon="11.123936778034848"><ele>74.0</ele><time>2026-04-19T08:33:53Z</time></trkpt><trkpt lat="43.68737403903192" lon="11.124070196225105"><ele>75.0</ele><time>2026-04-19T08:33:54Z</time></trkpt><trkpt lat="43.687270608890685" lon="11.124203396810389"><ele>76.0</ele><time>2026-04-19T08:33:55Z</time></trkpt><trkpt lat="43.687172059445274" lon="11.124331838983563"><ele>77.0</ele><time>2026-04-19T08:33:56Z</time></trkpt><trkpt lat="43.68706884761513" lon="11.124465995780644"><ele>78.0</ele><time>2026-04-19T08:33:57Z</time></trkpt><trkpt lat="43.68697289260676" lon="11.124593786473296"><ele>77.75</ele><time>2026-04-19T08:33:58Z</time></trkpt><trkpt lat="43.68688262049162" lon="11.124710759421676"><ele>77.5</ele><time>2026-04-19T08:33:59Z</time></trkpt><trkpt lat="43.68679731310592" lon="11.124817038291352"><ele>77.25</ele><time>2026-04-19T08:34:00Z</time></trkpt><trkpt lat="43.686712449332674" lon="11.12492121756578"><ele>77.0</ele><time>2026-04-19T08:34:01Z</time></trkpt><trkpt lat="43.686625836736745" lon="11.125026576359172"><ele>77.0</ele><time>2026-04-19T08:34:02Z</time></trkpt><trkpt lat="43.68654358865773" lon="11.125137203895171"><ele>77.0</ele><time>2026-04-19T08:34:03Z</time></trkpt><trkpt lat="43.68646090696534" lon="11.12524894174116"><ele>77.0</ele><time>2026-04-19T08:34:04Z</time></trkpt><trkpt lat="43.68637666068151" lon="11.125360556971376"><ele>77.0</ele><time>2026-04-19T08:34:05Z</time></trkpt><trkpt lat="43.68629560647151" lon="11.125467602899127"><ele>77.0</ele><time>2026-04-19T08:34:06Z</time></trkpt><trkpt lat="43.68621204611956" lon="11.125573946539767"><ele>77.0</ele><time>2026-04-19T08:34:07Z</time></trkpt><trkpt lat="43.686123859152964" lon="11.125665627771978"><ele>77.0</ele><time>2026-04-19T08:34:08Z</time></trkpt><trkpt lat="43.68603850878296" lon="11.12574213973981"><ele>77.0</ele><time>2026-04-19T08:34:09Z</time></trkpt><trkpt lat="43.685955873423694" lon="11.125817809741422"><ele>77.0</ele><time>2026-04-19T08:34:10Z</time></trkpt><trkpt lat="43.68586949860784" lon="11.125899249424473"><ele>77.25</ele><time>2026-04-19T08:34:11Z</time></trkpt><trkpt lat="43.68577713818556" lon="11.125995615700777"><ele>77.5</ele><time>2026-04-19T08:34:12Z</time></trkpt><trkpt lat="43.68568392527495" lon="11.126092767599431"><ele>77.75</ele><time>2026-04-19T08:34:13Z</time></trkpt><trkpt lat="43.68558081494642" lon="11.126160947705163"><ele>78.0</ele><time>2026-04-19T08:34:14Z</time></trkpt><trkpt lat="43.68548998106465" lon="11.126260176008966"><ele>78.0</ele><time>2026-04-19T08:34:15Z</time></trkpt><trkpt lat="43.68539001326692" lon="11.126337086380547"><ele>78.0</ele><time>2026-04-19T08:34:15.999Z</time></trkpt><trkpt lat="43.68529507991912" lon="11.1264250043135"><ele>78.0</ele><time>2026-04-19T08:34:16.999Z</time></trkpt><trkpt lat="43.68520566859777" lon="11.126516151030122"><ele>78.0</ele><time>2026-04-19T08:34:17.999Z</time></trkpt><trkpt lat="43.68511484509657" lon="11.126604157421413"><ele>78.4</ele><time>2026-04-19T08:34:18.999Z</time></trkpt><trkpt lat="43.68502713746696" lon="11.126692738982314"><ele>78.8</ele><time>2026-04-19T08:34:19.999Z</time></trkpt><trkpt lat="43.68494151830334" lon="11.12679027642359"><ele>79.2</ele><time>2026-04-19T08:34:20.999Z</time></trkpt><trkpt lat="43.68486062393931" lon="11.126895936595766"><ele>79.6</ele><time>2026-04-19T08:34:21.999Z</time></trkpt><trkpt lat="43.68478295827529" lon="11.12700075599723"><ele>80.0</ele><time>2026-04-19T08:34:22.999Z</time></trkpt><trkpt lat="43.68471169398398" lon="11.127105622026546"><ele>80.0</ele><time>2026-04-19T08:34:23.999Z</time></trkpt><trkpt lat="43.684645604291894" lon="11.127209896417108"><ele>80.0</ele><time>2026-04-19T08:34:24.999Z</time></trkpt><trkpt lat="43.68458272473987" lon="11.127303806679569"><ele>80.0</ele><time>2026-04-19T08:34:25.999Z</time></trkpt><trkpt lat="43.68453021228238" lon="11.127383323590216"><ele>80.0</ele><time>2026-04-19T08:34:26.999Z</time></trkpt><trkpt lat="43.684485700822265" lon="11.12745367534638"><ele>80.0</ele><time>2026-04-19T08:34:27.999Z</time></trkpt><trkpt lat="43.684412976219846" lon="11.127567506062743"><ele>80.0</ele><time>2026-04-19T08:34:29.999Z</time></trkpt><trkpt lat="43.68436350434521" lon="11.127658949426445"><ele>80.33333333333334</ele><time>2026-04-19T08:34:32.999Z</time></trkpt><trkpt lat="43.68432785981457" lon="11.127742318373144"><ele>80.66666666666667</ele><time>2026-04-19T08:34:35.999Z</time></trkpt><trkpt lat="43.68430691453785" lon="11.127825180541494"><ele>81.0</ele><time>2026-04-19T08:34:39.999Z</time></trkpt><trkpt lat="43.68438060317032" lon="11.128036878019254"><ele>81.33333333333333</ele><time>2026-04-19T08:34:46.999Z</time></trkpt><trkpt lat="43.68439794663368" lon="11.12812193110378"><ele>81.66666666666666</ele><time>2026-04-19T08:34:47.999Z</time></trkpt><trkpt lat="43.68442470215189" lon="11.128203734838586"><ele>82.0</ele><time>2026-04-19T08:34:48.999Z</time></trkpt><trkpt lat="43.68447188658613" lon="11.128284198316745"><ele>82.39999999999999</ele><time>2026-04-19T08:34:49.999Z</time></trkpt><trkpt lat="43.68452678880183" lon="11.128366383265968"><ele>82.8</ele><time>2026-04-19T08:34:50.999Z</time></trkpt><trkpt lat="43.68458508778884" lon="11.128460541682017"><ele>83.2</ele><time>2026-04-19T08:34:51.999Z</time></trkpt><trkpt lat="43.684624513220086" lon="11.128578678824356"><ele>83.6</ele><time>2026-04-19T08:34:52.999Z</time></trkpt><trkpt lat="43.684663153196944" lon="11.128703688567162"><ele>84.0</ele><time>2026-04-19T08:34:53.999Z</time></trkpt><trkpt lat="43.68470074475301" lon="11.128840415039038"><ele>84.0</ele><time>2026-04-19T08:34:54.999Z</time></trkpt><trkpt lat="43.684744900847676" lon="11.128981933626267"><ele>84.0</ele><time>2026-04-19T08:34:55.999Z</time></trkpt><trkpt lat="43.68479058276679" lon="11.129131251492726"><ele>84.0</ele><time>2026-04-19T08:34:56.999Z</time></trkpt><trkpt lat="43.68484114665884" lon="11.129283128019784"><ele>84.0</ele><time>2026-04-19T08:34:57.999Z</time></trkpt><trkpt lat="43.68489547689258" lon="11.12943437503799"><ele>84.0</ele><time>2026-04-19T08:34:58.999Z</time></trkpt><trkpt lat="43.68496675764769" lon="11.129574047139515"><ele>84.0</ele><time>2026-04-19T08:34:59.999Z</time></trkpt><trkpt lat="43.68504549224698" lon="11.1297022179363"><ele>84.0</ele><time>2026-04-19T08:35:00.999Z</time></trkpt><trkpt lat="43.68514605747272" lon="11.129813759722591"><ele>84.0</ele><time>2026-04-19T08:35:01.999Z</time></trkpt><trkpt lat="43.68525839797139" lon="11.129929693191167"><ele>85.2</ele><time>2026-04-19T08:35:02.999Z</time></trkpt><trkpt lat="43.68536250159879" lon="11.130042221423498"><ele>86.4</ele><time>2026-04-19T08:35:03.999Z</time></trkpt><trkpt lat="43.68545042109194" lon="11.130132235576928"><ele>87.6</ele><time>2026-04-19T08:35:04.999Z</time></trkpt><trkpt lat="43.68552666224652" lon="11.130211851237119"><ele>88.8</ele><time>2026-04-19T08:35:05.999Z</time></trkpt><trkpt lat="43.68559659512041" lon="11.130286752219384"><ele>90.0</ele><time>2026-04-19T08:35:06.998Z</time></trkpt><trkpt lat="43.685670467821" lon="11.130364004775304"><ele>90.0</ele><time>2026-04-19T08:35:07.998Z</time></trkpt><trkpt lat="43.68574447099779" lon="11.13044230816244"><ele>90.0</ele><time>2026-04-19T08:35:08.997Z</time></trkpt><trkpt lat="43.68582463715875" lon="11.130523017064052"><ele>90.0</ele><time>2026-04-19T08:35:09.997Z</time></trkpt><trkpt lat="43.68590621512982" lon="11.130605439894925"><ele>90.0</ele><time>2026-04-19T08:35:10.997Z</time></trkpt><trkpt lat="43.68599181193888" lon="11.130692260620075"><ele>90.0</ele><time>2026-04-19T08:35:11.997Z</time></trkpt><trkpt lat="43.68608235877631" lon="11.130780005990186"><ele>91.0</ele><time>2026-04-19T08:35:12.997Z</time></trkpt><trkpt lat="43.68617009269157" lon="11.130898491110196"><ele>92.0</ele><time>2026-04-19T08:35:13.997Z</time></trkpt><trkpt lat="43.68627445025918" lon="11.131007571242012"><ele>93.0</ele><time>2026-04-19T08:35:14.997Z</time></trkpt><trkpt lat="43.686371201848225" lon="11.131108586996879"><ele>94.0</ele><time>2026-04-19T08:35:15.997Z</time></trkpt><trkpt lat="43.6864603880174" lon="11.131178391948932"><ele>94.0</ele><time>2026-04-19T08:35:16.997Z</time></trkpt><trkpt lat="43.68652056681144" lon="11.131247128425624"><ele>94.0</ele><time>2026-04-19T08:35:17.997Z</time></trkpt><trkpt lat="43.68660088253608" lon="11.13134003797887"><ele>94.0</ele><time>2026-04-19T08:35:19.997Z</time></trkpt><trkpt lat="43.68667477707221" lon="11.131438367285359"><ele>94.0</ele><time>2026-04-19T08:35:23Z</time></trkpt><trkpt lat="43.686723744662515" lon="11.13150126528666"><ele>94.0</ele><time>2026-04-19T08:35:24Z</time></trkpt><trkpt lat="43.686769144674756" lon="11.13158817547881"><ele>94.0</ele><time>2026-04-19T08:35:25Z</time></trkpt><trkpt lat="43.686818277206456" lon="11.131682898467883"><ele>93.80000000000001</ele><time>2026-04-19T08:35:26Z</time></trkpt><trkpt lat="43.68687231517159" lon="11.131784494461474"><ele>93.60000000000001</ele><time>2026-04-19T08:35:27Z</time></trkpt><trkpt lat="43.686938651491225" lon="11.131896676013556"><ele>93.4</ele><time>2026-04-19T08:35:28Z</time></trkpt><trkpt lat="43.68701220534172" lon="11.132013621765322"><ele>93.2</ele><time>2026-04-19T08:35:29Z</time></trkpt><trkpt lat="43.687088101607856" lon="11.132130992852735"><ele>93.0</ele><time>2026-04-19T08:35:30Z</time></trkpt><trkpt lat="43.687163980967924" lon="11.132256941580557"><ele>94.0</ele><time>2026-04-19T08:35:31Z</time></trkpt><trkpt lat="43.68724130906483" lon="11.13238593599148"><ele>95.0</ele><time>2026-04-19T08:35:32Z</time></trkpt><trkpt lat="43.68731821684026" lon="11.132516054220996"><ele>96.0</ele><time>2026-04-19T08:35:33Z</time></trkpt><trkpt lat="43.687380773138464" lon="11.132656764573497"><ele>97.0</ele><time>2026-04-19T08:35:34Z</time></trkpt><trkpt lat="43.68742117897187" lon="11.132789546829926"><ele>97.6</ele><time>2026-04-19T08:35:35Z</time></trkpt><trkpt lat="43.68744699332277" lon="11.13292439593118"><ele>98.19999999999999</ele><time>2026-04-19T08:35:36Z</time></trkpt><trkpt lat="43.687466745190605" lon="11.133067044896848"><ele>98.8</ele><time>2026-04-19T08:35:37Z</time></trkpt><trkpt lat="43.68748221385015" lon="11.13322239400445"><ele>99.4</ele><time>2026-04-19T08:35:37.999Z</time></trkpt><trkpt lat="43.687496256595985" lon="11.133391169659765"><ele>100.0</ele><time>2026-04-19T08:35:38.999Z</time></trkpt><trkpt lat="43.6875140823703" lon="11.133570080886908"><ele>100.0</ele><time>2026-04-19T08:35:39.999Z</time></trkpt><trkpt lat="43.687544168061905" lon="11.133761743858633"><ele>100.0</ele><time>2026-04-19T08:35:40.999Z</time></trkpt><trkpt lat="43.68758761041181" lon="11.13395678742906"><ele>100.0</ele><time>2026-04-19T08:35:41.999Z</time></trkpt><trkpt lat="43.68763740611266" lon="11.134156199290315"><ele>100.0</ele><time>2026-04-19T08:35:42.999Z</time></trkpt><trkpt lat="43.687688299071056" lon="11.134353829199778"><ele>100.0</ele><time>2026-04-19T08:35:43.999Z</time></trkpt><trkpt lat="43.68773830774756" lon="11.134553115279196"><ele>100.0</ele><time>2026-04-19T08:35:44.999Z</time></trkpt><trkpt lat="43.6877773652976" lon="11.134751714785741"><ele>100.0</ele><time>2026-04-19T08:35:45.999Z</time></trkpt><trkpt lat="43.68780036456272" lon="11.134959141165643"><ele>98.66666666666667</ele><time>2026-04-19T08:35:46.999Z</time></trkpt><trkpt lat="43.687803050535464" lon="11.135175640758245"><ele>97.33333333333334</ele><time>2026-04-19T08:35:47.999Z</time></trkpt><trkpt lat="43.68778795356848" lon="11.13539706112928"><ele>96.0</ele><time>2026-04-19T08:35:48.999Z</time></trkpt><trkpt lat="43.68775988707441" lon="11.135618980679265"><ele>96.33333333333334</ele><time>2026-04-19T08:35:49.999Z</time></trkpt><trkpt lat="43.68773239763059" lon="11.135846410119717"><ele>96.66666666666667</ele><time>2026-04-19T08:35:50.999Z</time></trkpt><trkpt lat="43.687701768725624" lon="11.136083590846296"><ele>97.0</ele><time>2026-04-19T08:35:51.999Z</time></trkpt><trkpt lat="43.68767040810361" lon="11.136316356455128"><ele>97.0</ele><time>2026-04-19T08:35:52.999Z</time></trkpt><trkpt lat="43.6876363584018" lon="11.1365448059738"><ele>97.0</ele><time>2026-04-19T08:35:53.999Z</time></trkpt><trkpt lat="43.687607201252085" lon="11.136779440608077"><ele>97.0</ele><time>2026-04-19T08:35:54.999Z</time></trkpt><trkpt lat="43.687582174980044" lon="11.137020078836583"><ele>97.33333333333334</ele><time>2026-04-19T08:35:55.999Z</time></trkpt><trkpt lat="43.6875543370425" lon="11.137260720122457"><ele>97.66666666666666</ele><time>2026-04-19T08:35:56.999Z</time></trkpt><trkpt lat="43.68752497483211" lon="11.137487864828179"><ele>98.0</ele><time>2026-04-19T08:35:57.999Z</time></trkpt><trkpt lat="43.687498687770876" lon="11.137701631908488"><ele>98.0</ele><time>2026-04-19T08:35:58.999Z</time></trkpt><trkpt lat="43.68749037079871" lon="11.137928382137611"><ele>98.0</ele><time>2026-04-19T08:35:59.999Z</time></trkpt><trkpt lat="43.68750630158478" lon="11.138168997835386"><ele>98.0</ele><time>2026-04-19T08:36:00.999Z</time></trkpt><trkpt lat="43.68753432433525" lon="11.13842056631033"><ele>98.33333333333333</ele><time>2026-04-19T08:36:01.999Z</time></trkpt><trkpt lat="43.68755766605803" lon="11.138678403437929"><ele>98.66666666666666</ele><time>2026-04-19T08:36:02.999Z</time></trkpt><trkpt lat="43.687578278203645" lon="11.138936698951092"><ele>99.0</ele><time>2026-04-19T08:36:03.999Z</time></trkpt><trkpt lat="43.68760413005184" lon="11.139193168385829"><ele>99.0</ele><time>2026-04-19T08:36:04.999Z</time></trkpt><trkpt lat="43.68763493297169" lon="11.13945200896457"><ele>99.0</ele><time>2026-04-19T08:36:05.999Z</time></trkpt><trkpt lat="43.68767414942251" lon="11.139709267344815"><ele>99.0</ele><time>2026-04-19T08:36:06.999Z</time></trkpt><trkpt lat="43.68771685971554" lon="11.13996407054353"><ele>102.0</ele><time>2026-04-19T08:36:07.999Z</time></trkpt><trkpt lat="43.68776123501342" lon="11.140214521167557"><ele>105.0</ele><time>2026-04-19T08:36:08.999Z</time></trkpt><trkpt lat="43.68781335372191" lon="11.140460385189538"><ele>108.0</ele><time>2026-04-19T08:36:09.999Z</time></trkpt><trkpt lat="43.68786982822536" lon="11.140695909721451"><ele>108.33333333333334</ele><time>2026-04-19T08:36:10.999Z</time></trkpt><trkpt lat="43.68792044242453" lon="11.140912915172237"><ele>108.66666666666667</ele><time>2026-04-19T08:36:11.999Z</time></trkpt><trkpt lat="43.687961919418726" lon="11.14111725988744"><ele>109.0</ele><time>2026-04-19T08:36:12.999Z</time></trkpt><trkpt lat="43.68798816541575" lon="11.141319785366308"><ele>109.0</ele><time>2026-04-19T08:36:13.999Z</time></trkpt><trkpt lat="43.687984334457305" lon="11.141535373403183"><ele>109.0</ele><time>2026-04-19T08:36:14.999Z</time></trkpt><trkpt lat="43.68794267745252" lon="11.141748433572785"><ele>109.0</ele><time>2026-04-19T08:36:15.999Z</time></trkpt><trkpt lat="43.68787448356557" lon="11.141958828005237"><ele>108.66666666666667</ele><time>2026-04-19T08:36:16.999Z</time></trkpt><trkpt lat="43.687789748640675" lon="11.142164264801252"><ele>108.33333333333334</ele><time>2026-04-19T08:36:17.999Z</time></trkpt><trkpt lat="43.68769937182696" lon="11.142368363937235"><ele>108.0</ele><time>2026-04-19T08:36:18.999Z</time></trkpt><trkpt lat="43.68761316837738" lon="11.142571545012157"><ele>106.66666666666666</ele><time>2026-04-19T08:36:19.999Z</time></trkpt><trkpt lat="43.687539434930784" lon="11.142769895933675"><ele>105.33333333333333</ele><time>2026-04-19T08:36:20.999Z</time></trkpt><trkpt lat="43.687477543544" lon="11.142959557584847"><ele>104.0</ele><time>2026-04-19T08:36:21.999Z</time></trkpt><trkpt lat="43.68743965294595" lon="11.143161696995962"><ele>104.0</ele><time>2026-04-19T08:36:22.999Z</time></trkpt><trkpt lat="43.68742313408429" lon="11.143385845562625"><ele>104.0</ele><time>2026-04-19T08:36:23.999Z</time></trkpt><trkpt lat="43.68742740294198" lon="11.143620605660136"><ele>104.0</ele><time>2026-04-19T08:36:24.999Z</time></trkpt><trkpt lat="43.6874500658615" lon="11.14385038660834"><ele>104.0</ele><time>2026-04-19T08:36:25.999Z</time></trkpt><trkpt lat="43.68747816182188" lon="11.144056208047234"><ele>104.0</ele><time>2026-04-19T08:36:26.998Z</time></trkpt><trkpt lat="43.687517440896634" lon="11.14424828226192"><ele>104.0</ele><time>2026-04-19T08:36:27.998Z</time></trkpt><trkpt lat="43.687579734134495" lon="11.144431114178483"><ele>104.0</ele><time>2026-04-19T08:36:28.998Z</time></trkpt><trkpt lat="43.687669915743264" lon="11.144605767668201"><ele>106.25</ele><time>2026-04-19T08:36:29.998Z</time></trkpt><trkpt lat="43.68776466545144" lon="11.144768059666358"><ele>108.5</ele><time>2026-04-19T08:36:30.998Z</time></trkpt><trkpt lat="43.68784889578319" lon="11.144929132719291"><ele>110.75</ele><time>2026-04-19T08:36:31.998Z</time></trkpt><trkpt lat="43.687913250410624" lon="11.145112534119777"><ele>113.0</ele><time>2026-04-19T08:36:32.998Z</time></trkpt><trkpt lat="43.68794460968831" lon="11.145319439991795"><ele>113.66666666666666</ele><time>2026-04-19T08:36:33.998Z</time></trkpt><trkpt lat="43.6879436657679" lon="11.145536737898132"><ele>114.33333333333334</ele><time>2026-04-19T08:36:34.998Z</time></trkpt><trkpt lat="43.68790840045391" lon="11.145751179679522"><ele>115.0</ele><time>2026-04-19T08:36:35.998Z</time></trkpt><trkpt lat="43.68784408830652" lon="11.145968362298026"><ele>115.0</ele><time>2026-04-19T08:36:36.998Z</time></trkpt><trkpt lat="43.68776149368505" lon="11.146189776933149"><ele>115.0</ele><time>2026-04-19T08:36:37.998Z</time></trkpt><trkpt lat="43.68767340191972" lon="11.146411489083878"><ele>115.0</ele><time>2026-04-19T08:36:38.998Z</time></trkpt><trkpt lat="43.68758865444143" lon="11.146632459160683"><ele>112.33333333333334</ele><time>2026-04-19T08:36:39.998Z</time></trkpt><trkpt lat="43.687515534935365" lon="11.146840133196829"><ele>109.66666666666666</ele><time>2026-04-19T08:36:40.998Z</time></trkpt><trkpt lat="43.68745644756304" lon="11.147047613588532"><ele>107.0</ele><time>2026-04-19T08:36:41.998Z</time></trkpt><trkpt lat="43.68741564734661" lon="11.147257048323524"><ele>108.66666666666666</ele><time>2026-04-19T08:36:42.998Z</time></trkpt><trkpt lat="43.68741044495583" lon="11.14746392027482"><ele>110.33333333333334</ele><time>2026-04-19T08:36:43.998Z</time></trkpt><trkpt lat="43.68743284350215" lon="11.14766416011479"><ele>112.0</ele><time>2026-04-19T08:36:44.998Z</time></trkpt><trkpt lat="43.68749617371417" lon="11.147868889477166"><ele>112.0</ele><time>2026-04-19T08:36:45.998Z</time></trkpt><trkpt lat="43.68757317786963" lon="11.148082528174735"><ele>112.0</ele><time>2026-04-19T08:36:46.998Z</time></trkpt><trkpt lat="43.68765061134692" lon="11.148292659571513"><ele>112.0</ele><time>2026-04-19T08:36:47.998Z</time></trkpt><trkpt lat="43.6877210447632" lon="11.148500875386294"><ele>116.33333333333334</ele><time>2026-04-19T08:36:48.998Z</time></trkpt><trkpt lat="43.68776963809845" lon="11.148730690961136"><ele>120.66666666666666</ele><time>2026-04-19T08:36:49.998Z</time></trkpt><trkpt lat="43.68778896443101" lon="11.148984776223648"><ele>125.0</ele><time>2026-04-19T08:36:50.998Z</time></trkpt><trkpt lat="43.687764469184806" lon="11.149240016795053"><ele>120.66666666666666</ele><time>2026-04-19T08:36:51.998Z</time></trkpt><trkpt lat="43.6877580742925" lon="11.149500387944274"><ele>116.33333333333334</ele><time>2026-04-19T08:36:52.998Z</time></trkpt><trkpt lat="43.68772850987253" lon="11.14975881805675"><ele>112.0</ele><time>2026-04-19T08:36:53.998Z</time></trkpt><trkpt lat="43.68770526157879" lon="11.150014751394549"><ele>111.66666666666667</ele><time>2026-04-19T08:36:54.998Z</time></trkpt><trkpt lat="43.68768322587387" lon="11.150267480566216"><ele>111.33333333333334</ele><time>2026-04-19T08:36:55.998Z</time></trkpt><trkpt lat="43.687666272717415" lon="11.150516091164292"><ele>111.0</ele><time>2026-04-19T08:36:56.998Z</time></trkpt><trkpt lat="43.68765368274194" lon="11.1507664131695"><ele>111.0</ele><time>2026-04-19T08:36:57.998Z</time></trkpt><trkpt lat="43.68765357530184" lon="11.151022308851381"><ele>111.0</ele><time>2026-04-19T08:36:58.998Z</time></trkpt><trkpt lat="43.687671852997354" lon="11.151284795253197"><ele>111.0</ele><time>2026-04-19T08:36:59.998Z</time></trkpt><trkpt lat="43.68771113673237" lon="11.151557294407477"><ele>112.0</ele><time>2026-04-19T08:37:00.998Z</time></trkpt><trkpt lat="43.687755096777856" lon="11.151811350682017"><ele>113.0</ele><time>2026-04-19T08:37:01.998Z</time></trkpt><trkpt lat="43.68779129870599" lon="11.152035544758501"><ele>114.0</ele><time>2026-04-19T08:37:02.998Z</time></trkpt><trkpt lat="43.68781937213739" lon="11.152233798293343"><ele>116.0</ele><time>2026-04-19T08:37:03.998Z</time></trkpt><trkpt lat="43.687858816981816" lon="11.15242694056293"><ele>118.0</ele><time>2026-04-19T08:37:04.998Z</time></trkpt><trkpt lat="43.68789497276633" lon="11.152638800934014"><ele>120.0</ele><time>2026-04-19T08:37:05.998Z</time></trkpt><trkpt lat="43.687974385601244" lon="11.15284008549128"><ele>120.0</ele><time>2026-04-19T08:37:06.998Z</time></trkpt><trkpt lat="43.6880557483191" lon="11.153061858108835"><ele>120.0</ele><time>2026-04-19T08:37:07.998Z</time></trkpt><trkpt lat="43.68814097827173" lon="11.153287022662198"><ele>120.0</ele><time>2026-04-19T08:37:08.998Z</time></trkpt><trkpt lat="43.68821719136531" lon="11.153524593986086"><ele>119.33333333333334</ele><time>2026-04-19T08:37:09.998Z</time></trkpt><trkpt lat="43.68827665341284" lon="11.153766967108668"><ele>118.66666666666667</ele><time>2026-04-19T08:37:10.998Z</time></trkpt><trkpt lat="43.68833647963213" lon="11.153993381322115"><ele>118.0</ele><time>2026-04-19T08:37:11.998Z</time></trkpt><trkpt lat="43.68841427230134" lon="11.154211184134228"><ele>117.66666666666667</ele><time>2026-04-19T08:37:12.998Z</time></trkpt><trkpt lat="43.68851844623217" lon="11.154417163977108"><ele>117.33333333333334</ele><time>2026-04-19T08:37:13.998Z</time></trkpt><trkpt lat="43.688630020026494" lon="11.154591497710582"><ele>117.0</ele><time>2026-04-19T08:37:14.998Z</time></trkpt><trkpt lat="43.688724693664504" lon="11.154747064969186"><ele>118.75</ele><time>2026-04-19T08:37:15.998Z</time></trkpt><trkpt lat="43.68877927375044" lon="11.154900270703846"><ele>120.5</ele><time>2026-04-19T08:37:16.998Z</time></trkpt><trkpt lat="43.688794764757276" lon="11.155079998411166"><ele>122.25</ele><time>2026-04-19T08:37:17.997Z</time></trkpt><trkpt lat="43.68875356184659" lon="11.155272567258269"><ele>124.0</ele><time>2026-04-19T08:37:18.997Z</time></trkpt><trkpt lat="43.688713156039114" lon="11.155479662431146"><ele>124.0</ele><time>2026-04-19T08:37:19.997Z</time></trkpt><trkpt lat="43.688656592027286" lon="11.155672263667206"><ele>124.0</ele><time>2026-04-19T08:37:20.997Z</time></trkpt><trkpt lat="43.688622960723414" lon="11.155837335811283"><ele>124.0</ele><time>2026-04-19T08:37:21.997Z</time></trkpt><trkpt lat="43.688629973477646" lon="11.155987268022235"><ele>124.0</ele><time>2026-04-19T08:37:22.997Z</time></trkpt><trkpt lat="43.688672611806815" lon="11.156142709599662"><ele>124.25</ele><time>2026-04-19T08:37:23.997Z</time></trkpt><trkpt lat="43.688757154799866" lon="11.156294985156427"><ele>124.5</ele><time>2026-04-19T08:37:24.997Z</time></trkpt><trkpt lat="43.688848507145764" lon="11.156447322310798"><ele>124.75</ele><time>2026-04-19T08:37:25.997Z</time></trkpt><trkpt lat="43.68892521811042" lon="11.156610900641901"><ele>125.0</ele><time>2026-04-19T08:37:26.997Z</time></trkpt><trkpt lat="43.688978767638645" lon="11.15679980126176"><ele>125.0</ele><time>2026-04-19T08:37:27.997Z</time></trkpt><trkpt lat="43.68899303658765" lon="11.157006848962002"><ele>125.0</ele><time>2026-04-19T08:37:29Z</time></trkpt><trkpt lat="43.68897303289341" lon="11.157216723734015"><ele>125.0</ele><time>2026-04-19T08:37:30Z</time></trkpt><trkpt lat="43.688948005796284" lon="11.157415004280875"><ele>125.0</ele><time>2026-04-19T08:37:31Z</time></trkpt><trkpt lat="43.68896048045938" lon="11.15760380069827"><ele>125.25</ele><time>2026-04-19T08:37:32Z</time></trkpt><trkpt lat="43.68900239948449" lon="11.157782726064482"><ele>125.5</ele><time>2026-04-19T08:37:33Z</time></trkpt><trkpt lat="43.68906707769125" lon="11.157950718566013"><ele>125.75</ele><time>2026-04-19T08:37:34Z</time></trkpt><trkpt lat="43.689159729600384" lon="11.158107757435094"><ele>126.0</ele><time>2026-04-19T08:37:35Z</time></trkpt><trkpt lat="43.6892715576561" lon="11.158248497721562"><ele>125.5</ele><time>2026-04-19T08:37:36Z</time></trkpt><trkpt lat="43.68937405520466" lon="11.158368042516223"><ele>125.0</ele><time>2026-04-19T08:37:37Z</time></trkpt><trkpt lat="43.6894482825614" lon="11.15849821354486"><ele>124.5</ele><time>2026-04-19T08:37:38Z</time></trkpt><trkpt lat="43.68949417737413" lon="11.158654529402021"><ele>124.0</ele><time>2026-04-19T08:37:39Z</time></trkpt><trkpt lat="43.6894885066367" lon="11.158840097525623"><ele>124.5</ele><time>2026-04-19T08:37:40Z</time></trkpt><trkpt lat="43.68948373196769" lon="11.159041109540516"><ele>125.0</ele><time>2026-04-19T08:37:41Z</time></trkpt><trkpt lat="43.689490194817324" lon="11.15924708552501"><ele>125.5</ele><time>2026-04-19T08:37:42Z</time></trkpt><trkpt lat="43.6894817964813" lon="11.159448581722067"><ele>126.0</ele><time>2026-04-19T08:37:43Z</time></trkpt><trkpt lat="43.68948026471082" lon="11.159650113097163"><ele>126.0</ele><time>2026-04-19T08:37:44Z</time></trkpt><trkpt lat="43.689485980029474" lon="11.159860774748756"><ele>126.0</ele><time>2026-04-19T08:37:45Z</time></trkpt><trkpt lat="43.68949812631472" lon="11.160076189568876"><ele>126.0</ele><time>2026-04-19T08:37:46Z</time></trkpt><trkpt lat="43.68952626747525" lon="11.160305808275377"><ele>125.66666666666666</ele><time>2026-04-19T08:37:47Z</time></trkpt><trkpt lat="43.68956026878104" lon="11.160539437906072"><ele>125.33333333333333</ele><time>2026-04-19T08:37:48Z</time></trkpt><trkpt lat="43.689591013718015" lon="11.16077414864935"><ele>125.0</ele><time>2026-04-19T08:37:49Z</time></trkpt><trkpt lat="43.689622894531965" lon="11.161010642663632"><ele>125.0</ele><time>2026-04-19T08:37:50Z</time></trkpt><trkpt lat="43.68965417332436" lon="11.161248176510796"><ele>125.0</ele><time>2026-04-19T08:37:50.999Z</time></trkpt><trkpt lat="43.68968305751792" lon="11.161486152736828"><ele>125.0</ele><time>2026-04-19T08:37:51.999Z</time></trkpt><trkpt lat="43.68972231164638" lon="11.161721327107612"><ele>125.33333333333333</ele><time>2026-04-19T08:37:52.999Z</time></trkpt><trkpt lat="43.689789375525855" lon="11.161948387938503"><ele>125.66666666666666</ele><time>2026-04-19T08:37:53.999Z</time></trkpt><trkpt lat="43.68987842454283" lon="11.162174745759842"><ele>126.0</ele><time>2026-04-19T08:37:54.999Z</time></trkpt><trkpt lat="43.68997797583241" lon="11.162400747690043"><ele>126.66666666666666</ele><time>2026-04-19T08:37:55.999Z</time></trkpt><trkpt lat="43.690079868808624" lon="11.162620388251979"><ele>127.33333333333333</ele><time>2026-04-19T08:37:56.999Z</time></trkpt><trkpt lat="43.69018544059956" lon="11.16283542484812"><ele>128.0</ele><time>2026-04-19T08:37:57.999Z</time></trkpt><trkpt lat="43.69029759505745" lon="11.163043798929655"><ele>128.33333333333331</ele><time>2026-04-19T08:37:58.999Z</time></trkpt><trkpt lat="43.69041573361764" lon="11.163245026660631"><ele>128.66666666666666</ele><time>2026-04-19T08:37:59.999Z</time></trkpt><trkpt lat="43.690532967023124" lon="11.163442733206846"><ele>129.0</ele><time>2026-04-19T08:38:00.999Z</time></trkpt><trkpt lat="43.6906425678278" lon="11.163630906079662"><ele>129.0</ele><time>2026-04-19T08:38:01.999Z</time></trkpt><trkpt lat="43.69074805556201" lon="11.163807381930388"><ele>129.0</ele><time>2026-04-19T08:38:02.999Z</time></trkpt><trkpt lat="43.69085369502654" lon="11.163982819805023"><ele>129.0</ele><time>2026-04-19T08:38:03.999Z</time></trkpt><trkpt lat="43.690959618108145" lon="11.164154924961364"><ele>130.0</ele><time>2026-04-19T08:38:04.999Z</time></trkpt><trkpt lat="43.691065811144064" lon="11.164319791572618"><ele>131.0</ele><time>2026-04-19T08:38:05.999Z</time></trkpt><trkpt lat="43.691164582522475" lon="11.164476049683772"><ele>132.0</ele><time>2026-04-19T08:38:06.999Z</time></trkpt><trkpt lat="43.691255867067646" lon="11.164628375003081"><ele>132.5</ele><time>2026-04-19T08:38:07.999Z</time></trkpt><trkpt lat="43.691348039375946" lon="11.164782826435683"><ele>133.0</ele><time>2026-04-19T08:38:08.999Z</time></trkpt><trkpt lat="43.691439794194714" lon="11.164932320493465"><ele>133.5</ele><time>2026-04-19T08:38:09.999Z</time></trkpt><trkpt lat="43.691525015192056" lon="11.165068376666316"><ele>134.0</ele><time>2026-04-19T08:38:10.999Z</time></trkpt><trkpt lat="43.69160095403932" lon="11.165196946205405"><ele>134.2</ele><time>2026-04-19T08:38:11.999Z</time></trkpt><trkpt lat="43.69167448589236" lon="11.165316106609774"><ele>134.4</ele><time>2026-04-19T08:38:12.999Z</time></trkpt><trkpt lat="43.69174498823724" lon="11.165436129423577"><ele>134.6</ele><time>2026-04-19T08:38:13.999Z</time></trkpt><trkpt lat="43.691801346099126" lon="11.165553234860129"><ele>134.8</ele><time>2026-04-19T08:38:14.999Z</time></trkpt><trkpt lat="43.69184735549175" lon="11.165676430802034"><ele>135.0</ele><time>2026-04-19T08:38:15.999Z</time></trkpt><trkpt lat="43.691887594969366" lon="11.16580945307203"><ele>135.2</ele><time>2026-04-19T08:38:16.999Z</time></trkpt><trkpt lat="43.69191925445418" lon="11.165947103539994"><ele>135.4</ele><time>2026-04-19T08:38:17.999Z</time></trkpt><trkpt lat="43.69195711743706" lon="11.166086663649686"><ele>135.6</ele><time>2026-04-19T08:38:18.999Z</time></trkpt><trkpt lat="43.691999684632" lon="11.166223823244385"><ele>135.8</ele><time>2026-04-19T08:38:19.999Z</time></trkpt><trkpt lat="43.69204854761791" lon="11.166363477231398"><ele>136.0</ele><time>2026-04-19T08:38:20.999Z</time></trkpt><trkpt lat="43.6921064998716" lon="11.166502212518228"><ele>137.75</ele><time>2026-04-19T08:38:21.999Z</time></trkpt><trkpt lat="43.692171473598506" lon="11.166637533781268"><ele>139.5</ele><time>2026-04-19T08:38:22.999Z</time></trkpt><trkpt lat="43.692244726768045" lon="11.166764850342874"><ele>141.25</ele><time>2026-04-19T08:38:23.999Z</time></trkpt><trkpt lat="43.692329808771255" lon="11.166878259422601"><ele>143.0</ele><time>2026-04-19T08:38:24.999Z</time></trkpt><trkpt lat="43.69242540081791" lon="11.166975002575825"><ele>143.0</ele><time>2026-04-19T08:38:25.999Z</time></trkpt><trkpt lat="43.69252520593636" lon="11.167066328502735"><ele>143.0</ele><time>2026-04-19T08:38:26.999Z</time></trkpt><trkpt lat="43.69262844464703" lon="11.167157201599153"><ele>143.0</ele><time>2026-04-19T08:38:27.999Z</time></trkpt><trkpt lat="43.692735693843254" lon="11.167248977158435"><ele>143.0</ele><time>2026-04-19T08:38:28.999Z</time></trkpt><trkpt lat="43.69284676612092" lon="11.167334298771223"><ele>144.75</ele><time>2026-04-19T08:38:29.999Z</time></trkpt><trkpt lat="43.69295784010291" lon="11.167415915711882"><ele>146.5</ele><time>2026-04-19T08:38:30.999Z</time></trkpt><trkpt lat="43.693069835596376" lon="11.16749828577651"><ele>148.25</ele><time>2026-04-19T08:38:31.999Z</time></trkpt><trkpt lat="43.6931748867362" lon="11.16757761857895"><ele>150.0</ele><time>2026-04-19T08:38:32.999Z</time></trkpt><trkpt lat="43.693272776132666" lon="11.167654415766984"><ele>150.0</ele><time>2026-04-19T08:38:33.999Z</time></trkpt><trkpt lat="43.693354790002125" lon="11.167716349770945"><ele>150.0</ele><time>2026-04-19T08:38:34.999Z</time></trkpt><trkpt lat="43.693427127334424" lon="11.167764209859675"><ele>150.0</ele><time>2026-04-19T08:38:35.999Z</time></trkpt><trkpt lat="43.6934990401735" lon="11.167800157926214"><ele>150.0</ele><time>2026-04-19T08:38:36.999Z</time></trkpt><trkpt lat="43.69357831585543" lon="11.167817957239121"><ele>150.0</ele><time>2026-04-19T08:38:37.999Z</time></trkpt><trkpt lat="43.693668212973336" lon="11.167809658587464"><ele>150.0</ele><time>2026-04-19T08:38:38.999Z</time></trkpt><trkpt lat="43.69377093555954" lon="11.1677994721402"><ele>151.2</ele><time>2026-04-19T08:38:39.999Z</time></trkpt><trkpt lat="43.69387590033858" lon="11.167757981950839"><ele>152.4</ele><time>2026-04-19T08:38:40.999Z</time></trkpt><trkpt lat="43.69398310403592" lon="11.167712889195215"><ele>153.6</ele><time>2026-04-19T08:38:41.998Z</time></trkpt><trkpt lat="43.69407261329975" lon="11.16767721154472"><ele>154.8</ele><time>2026-04-19T08:38:42.998Z</time></trkpt><trkpt lat="43.69414799879764" lon="11.167630889382645"><ele>156.0</ele><time>2026-04-19T08:38:43.998Z</time></trkpt><trkpt lat="43.69422778531061" lon="11.16763138245831"><ele>156.0</ele><time>2026-04-19T08:38:44.998Z</time></trkpt><trkpt lat="43.69431135626932" lon="11.167672333701415"><ele>156.0</ele><time>2026-04-19T08:38:45.998Z</time></trkpt><trkpt lat="43.694377867787416" lon="11.167757069724034"><ele>156.0</ele><time>2026-04-19T08:38:46.998Z</time></trkpt><trkpt lat="43.694416820810225" lon="11.16788639115602"><ele>156.0</ele><time>2026-04-19T08:38:47.998Z</time></trkpt><trkpt lat="43.69443136603924" lon="11.168039676557017"><ele>156.0</ele><time>2026-04-19T08:38:48.998Z</time></trkpt><trkpt lat="43.694417041222735" lon="11.16821061551273"><ele>155.25</ele><time>2026-04-19T08:38:49.998Z</time></trkpt><trkpt lat="43.69437812463812" lon="11.168373155662747"><ele>154.5</ele><time>2026-04-19T08:38:50.998Z</time></trkpt><trkpt lat="43.69433777942315" lon="11.168531347540263"><ele>153.75</ele><time>2026-04-19T08:38:51.998Z</time></trkpt><trkpt lat="43.694310722369636" lon="11.16869697920137"><ele>153.0</ele><time>2026-04-19T08:38:52.998Z</time></trkpt><trkpt lat="43.69428314088552" lon="11.168869691381106"><ele>154.0</ele><time>2026-04-19T08:38:53.998Z</time></trkpt><trkpt lat="43.69426513769096" lon="11.169044728529036"><ele>155.0</ele><time>2026-04-19T08:38:54.998Z</time></trkpt><trkpt lat="43.69426557834751" lon="11.169220322022737"><ele>156.0</ele><time>2026-04-19T08:38:55.998Z</time></trkpt><trkpt lat="43.69428333987887" lon="11.16940198703935"><ele>157.0</ele><time>2026-04-19T08:38:56.998Z</time></trkpt><trkpt lat="43.69432711327818" lon="11.169584155186271"><ele>157.0</ele><time>2026-04-19T08:38:57.998Z</time></trkpt><trkpt lat="43.69439254011228" lon="11.169755778122674"><ele>157.0</ele><time>2026-04-19T08:38:58.998Z</time></trkpt><trkpt lat="43.69446947324458" lon="11.169911927689126"><ele>157.0</ele><time>2026-04-19T08:38:59.998Z</time></trkpt><trkpt lat="43.694539428913714" lon="11.170050926582656"><ele>157.0</ele><time>2026-04-19T08:39:00.998Z</time></trkpt><trkpt lat="43.694595699460415" lon="11.170168864582147"><ele>160.0</ele><time>2026-04-19T08:39:01.998Z</time></trkpt><trkpt lat="43.694648174148995" lon="11.170276641535944"><ele>163.0</ele><time>2026-04-19T08:39:02.998Z</time></trkpt><trkpt lat="43.694692319130034" lon="11.170366042799632"><ele>166.0</ele><time>2026-04-19T08:39:03.998Z</time></trkpt><trkpt lat="43.694727140446666" lon="11.170446617076095"><ele>169.0</ele><time>2026-04-19T08:39:04.998Z</time></trkpt><trkpt lat="43.694757875914235" lon="11.17053689911792"><ele>172.0</ele><time>2026-04-19T08:39:05.998Z</time></trkpt><trkpt lat="43.694766658868694" lon="11.170642485928038"><ele>175.0</ele><time>2026-04-19T08:39:06.998Z</time></trkpt><trkpt lat="43.694739996415976" lon="11.17074820255121"><ele>175.0</ele><time>2026-04-19T08:39:07.998Z</time></trkpt><trkpt lat="43.69470429375264" lon="11.170848664246893"><ele>175.0</ele><time>2026-04-19T08:39:08.998Z</time></trkpt><trkpt lat="43.6947001113966" lon="11.170968543930927"><ele>175.0</ele><time>2026-04-19T08:39:09.998Z</time></trkpt><trkpt lat="43.69473730884556" lon="11.17109361768114"><ele>175.0</ele><time>2026-04-19T08:39:10.998Z</time></trkpt><trkpt lat="43.69479649958105" lon="11.171227705879378"><ele>175.0</ele><time>2026-04-19T08:39:11.998Z</time></trkpt><trkpt lat="43.694873170396846" lon="11.171372901473815"><ele>175.0</ele><time>2026-04-19T08:39:12.998Z</time></trkpt><trkpt lat="43.69495753655108" lon="11.17151202036659"><ele>175.0</ele><time>2026-04-19T08:39:13.998Z</time></trkpt><trkpt lat="43.69505396460234" lon="11.171639271245532"><ele>175.0</ele><time>2026-04-19T08:39:14.998Z</time></trkpt><trkpt lat="43.6951665097025" lon="11.171747395032321"><ele>175.0</ele><time>2026-04-19T08:39:15.998Z</time></trkpt><trkpt lat="43.695288686046716" lon="11.171835290609765"><ele>177.0</ele><time>2026-04-19T08:39:16.998Z</time></trkpt><trkpt lat="43.695415264055484" lon="11.171914820533903"><ele>179.0</ele><time>2026-04-19T08:39:17.998Z</time></trkpt><trkpt lat="43.69554340629715" lon="11.171994456580622"><ele>181.0</ele><time>2026-04-19T08:39:18.998Z</time></trkpt><trkpt lat="43.69566205715935" lon="11.172101827453575"><ele>183.0</ele><time>2026-04-19T08:39:19.998Z</time></trkpt><trkpt lat="43.69579396279048" lon="11.172158741847637"><ele>183.0</ele><time>2026-04-19T08:39:20.998Z</time></trkpt><trkpt lat="43.69591624492633" lon="11.172243350036428"><ele>183.0</ele><time>2026-04-19T08:39:21.998Z</time></trkpt><trkpt lat="43.69603507196491" lon="11.17233840459339"><ele>183.0</ele><time>2026-04-19T08:39:22.998Z</time></trkpt><trkpt lat="43.69615198141576" lon="11.172450985484444"><ele>183.0</ele><time>2026-04-19T08:39:23.998Z</time></trkpt><trkpt lat="43.69626044671831" lon="11.17258317136071"><ele>182.66666666666666</ele><time>2026-04-19T08:39:24.998Z</time></trkpt><trkpt lat="43.69635709001661" lon="11.172739140277246"><ele>182.33333333333331</ele><time>2026-04-19T08:39:25.998Z</time></trkpt><trkpt lat="43.69644707619683" lon="11.172913245692724"><ele>182.0</ele><time>2026-04-19T08:39:26.998Z</time></trkpt><trkpt lat="43.696535726331625" lon="11.17309259741391"><ele>182.0</ele><time>2026-04-19T08:39:27.998Z</time></trkpt><trkpt lat="43.69662968238633" lon="11.173261547102907"><ele>182.0</ele><time>2026-04-19T08:39:28.998Z</time></trkpt><trkpt lat="43.69672171084782" lon="11.173431058132454"><ele>182.0</ele><time>2026-04-19T08:39:29.998Z</time></trkpt><trkpt lat="43.69681269721807" lon="11.173604814026866"><ele>182.0</ele><time>2026-04-19T08:39:30.998Z</time></trkpt><trkpt lat="43.69690481317643" lon="11.173778786279735"><ele>182.0</ele><time>2026-04-19T08:39:31.998Z</time></trkpt><trkpt lat="43.69700409915154" lon="11.173949640733857"><ele>182.0</ele><time>2026-04-19T08:39:32.998Z</time></trkpt><trkpt lat="43.6971068260232" lon="11.174113193233724"><ele>179.33333333333331</ele><time>2026-04-19T08:39:33.997Z</time></trkpt><trkpt lat="43.69721215343741" lon="11.174271985748566"><ele>176.66666666666666</ele><time>2026-04-19T08:39:35Z</time></trkpt><trkpt lat="43.69731870885967" lon="11.17442582638132"><ele>174.0</ele><time>2026-04-19T08:39:36Z</time></trkpt><trkpt lat="43.697420357823134" lon="11.174592031092471"><ele>174.0</ele><time>2026-04-19T08:39:37Z</time></trkpt><trkpt lat="43.69751406024672" lon="11.174779310636959"><ele>174.0</ele><time>2026-04-19T08:39:38Z</time></trkpt><trkpt lat="43.69759989678048" lon="11.174982852611839"><ele>174.0</ele><time>2026-04-19T08:39:39Z</time></trkpt><trkpt lat="43.6976788539159" lon="11.17520736140626"><ele>175.33333333333334</ele><time>2026-04-19T08:39:40Z</time></trkpt><trkpt lat="43.69775342457763" lon="11.175430538970042"><ele>176.66666666666669</ele><time>2026-04-19T08:39:41Z</time></trkpt><trkpt lat="43.69784333530837" lon="11.175639928921145"><ele>178.0</ele><time>2026-04-19T08:39:42Z</time></trkpt><trkpt lat="43.69794968683871" lon="11.175840455894821"><ele>178.0</ele><time>2026-04-19T08:39:43Z</time></trkpt><trkpt lat="43.698053750443805" lon="11.176045702375033"><ele>178.0</ele><time>2026-04-19T08:39:44Z</time></trkpt><trkpt lat="43.698149625296054" lon="11.176258057804423"><ele>178.0</ele><time>2026-04-19T08:39:45Z</time></trkpt><trkpt lat="43.69822948301237" lon="11.176484528922124"><ele>179.66666666666669</ele><time>2026-04-19T08:39:46Z</time></trkpt><trkpt lat="43.69828680725496" lon="11.176696183780683"><ele>181.33333333333334</ele><time>2026-04-19T08:39:47Z</time></trkpt><trkpt lat="43.69832997836591" lon="11.176895262813717"><ele>183.0</ele><time>2026-04-19T08:39:48Z</time></trkpt><trkpt lat="43.69837995562502" lon="11.17708282960247"><ele>183.0</ele><time>2026-04-19T08:39:49Z</time></trkpt><trkpt lat="43.698450357539095" lon="11.177233638192556"><ele>183.0</ele><time>2026-04-19T08:39:50Z</time></trkpt><trkpt lat="43.698551935705375" lon="11.177366897362456"><ele>183.0</ele><time>2026-04-19T08:39:51Z</time></trkpt><trkpt lat="43.69868037575241" lon="11.177475374841423"><ele>183.0</ele><time>2026-04-19T08:39:52Z</time></trkpt><trkpt lat="43.69881710685267" lon="11.17758320160568"><ele>182.33333333333334</ele><time>2026-04-19T08:39:53Z</time></trkpt><trkpt lat="43.698955589523166" lon="11.177693126294448"><ele>181.66666666666669</ele><time>2026-04-19T08:39:54Z</time></trkpt><trkpt lat="43.699091748905985" lon="11.177803087848257"><ele>181.0</ele><time>2026-04-19T08:39:55Z</time></trkpt><trkpt lat="43.69922097922523" lon="11.177928761825013"><ele>181.0</ele><time>2026-04-19T08:39:56Z</time></trkpt><trkpt lat="43.69933630791206" lon="11.178082231679955"><ele>181.0</ele><time>2026-04-19T08:39:57Z</time></trkpt><trkpt lat="43.69943545502051" lon="11.178268316238608"><ele>181.0</ele><time>2026-04-19T08:39:58Z</time></trkpt><trkpt lat="43.69952302761265" lon="11.17846412243432"><ele>182.66666666666669</ele><time>2026-04-19T08:39:59Z</time></trkpt><trkpt lat="43.69961709152312" lon="11.178653327899063"><ele>184.33333333333334</ele><time>2026-04-19T08:40:00Z</time></trkpt><trkpt lat="43.69971075441844" lon="11.17881909066274"><ele>186.0</ele><time>2026-04-19T08:40:01Z</time></trkpt><trkpt lat="43.69979211250404" lon="11.178962445042"><ele>187.20000000000002</ele><time>2026-04-19T08:40:02Z</time></trkpt><trkpt lat="43.699861783036745" lon="11.179084299426378"><ele>188.4</ele><time>2026-04-19T08:40:03Z</time></trkpt><trkpt lat="43.699939137515415" lon="11.179174973199773"><ele>189.6</ele><time>2026-04-19T08:40:04Z</time></trkpt><trkpt lat="43.70003303566635" lon="11.179223487816952"><ele>190.8</ele><time>2026-04-19T08:40:04.999Z</time></trkpt><trkpt lat="43.70015521473313" lon="11.179234861888778"><ele>192.0</ele><time>2026-04-19T08:40:05.999Z</time></trkpt><trkpt lat="43.700292655780935" lon="11.17921620557514"><ele>192.0</ele><time>2026-04-19T08:40:06.999Z</time></trkpt><trkpt lat="43.700435291956495" lon="11.179176160249742"><ele>192.0</ele><time>2026-04-19T08:40:07.999Z</time></trkpt><trkpt lat="43.70057531727976" lon="11.179141789081521"><ele>192.0</ele><time>2026-04-19T08:40:08.999Z</time></trkpt><trkpt lat="43.70072713077711" lon="11.179110952894138"><ele>192.0</ele><time>2026-04-19T08:40:09.999Z</time></trkpt><trkpt lat="43.700889556921446" lon="11.179073268743087"><ele>192.0</ele><time>2026-04-19T08:40:10.999Z</time></trkpt><trkpt lat="43.70104700236126" lon="11.17903137778596"><ele>192.0</ele><time>2026-04-19T08:40:11.999Z</time></trkpt><trkpt lat="43.701204617509234" lon="11.178976725127926"><ele>192.0</ele><time>2026-04-19T08:40:12.999Z</time></trkpt><trkpt lat="43.70134822064216" lon="11.17890507950503"><ele>195.6</ele><time>2026-04-19T08:40:13.999Z</time></trkpt><trkpt lat="43.70147485875405" lon="11.178831055645693"><ele>199.2</ele><time>2026-04-19T08:40:14.999Z</time></trkpt><trkpt lat="43.70157593725493" lon="11.178772201458496"><ele>202.8</ele><time>2026-04-19T08:40:15.999Z</time></trkpt><trkpt lat="43.70167236704455" lon="11.17872934217094"><ele>206.4</ele><time>2026-04-19T08:40:16.999Z</time></trkpt><trkpt lat="43.70176279597593" lon="11.178723906332195"><ele>210.0</ele><time>2026-04-19T08:40:17.999Z</time></trkpt><trkpt lat="43.70184723588656" lon="11.178767583238413"><ele>210.0</ele><time>2026-04-19T08:40:18.999Z</time></trkpt><trkpt lat="43.70190513376818" lon="11.178865015390492"><ele>210.0</ele><time>2026-04-19T08:40:19.999Z</time></trkpt><trkpt lat="43.7019360672335" lon="11.17899553814351"><ele>210.0</ele><time>2026-04-19T08:40:20.999Z</time></trkpt><trkpt lat="43.70193264175199" lon="11.179151691087451"><ele>210.0</ele><time>2026-04-19T08:40:21.999Z</time></trkpt><trkpt lat="43.7019136927971" lon="11.179312235673247"><ele>210.0</ele><time>2026-04-19T08:40:22.999Z</time></trkpt><trkpt lat="43.70190921114327" lon="11.179466551619662"><ele>210.5</ele><time>2026-04-19T08:40:23.999Z</time></trkpt><trkpt lat="43.70193709350882" lon="11.179609366225858"><ele>211.0</ele><time>2026-04-19T08:40:24.999Z</time></trkpt><trkpt lat="43.70199816591308" lon="11.179730465842518"><ele>211.5</ele><time>2026-04-19T08:40:25.999Z</time></trkpt><trkpt lat="43.70208951155443" lon="11.179827803568706"><ele>212.0</ele><time>2026-04-19T08:40:26.999Z</time></trkpt><trkpt lat="43.70220516914424" lon="11.179905780153"><ele>212.0</ele><time>2026-04-19T08:40:27.999Z</time></trkpt><trkpt lat="43.70233877230843" lon="11.179991965585588"><ele>212.0</ele><time>2026-04-19T08:40:28.999Z</time></trkpt><trkpt lat="43.70246680656296" lon="11.180097137122768"><ele>212.0</ele><time>2026-04-19T08:40:29.999Z</time></trkpt><trkpt lat="43.702591194336634" lon="11.180195962072057"><ele>212.0</ele><time>2026-04-19T08:40:30.999Z</time></trkpt><trkpt lat="43.70271596247973" lon="11.180278407160529"><ele>214.25</ele><time>2026-04-19T08:40:31.999Z</time></trkpt><trkpt lat="43.70283562163328" lon="11.18036261445834"><ele>216.5</ele><time>2026-04-19T08:40:32.999Z</time></trkpt><trkpt lat="43.70294411155681" lon="11.180472388572756"><ele>218.75</ele><time>2026-04-19T08:40:33.999Z</time></trkpt><trkpt lat="43.70303093477863" lon="11.180639486954075"><ele>221.0</ele><time>2026-04-19T08:40:34.999Z</time></trkpt><trkpt lat="43.703087579194566" lon="11.180838016841257"><ele>221.0</ele><time>2026-04-19T08:40:35.999Z</time></trkpt><trkpt lat="43.70313135176473" lon="11.181043199589265"><ele>221.0</ele><time>2026-04-19T08:40:36.999Z</time></trkpt><trkpt lat="43.703218598082174" lon="11.181261135683823"><ele>221.0</ele><time>2026-04-19T08:40:37.999Z</time></trkpt><trkpt lat="43.703322487948185" lon="11.18146899555993"><ele>219.75</ele><time>2026-04-19T08:40:38.999Z</time></trkpt><trkpt lat="43.703414697445226" lon="11.181646800663787"><ele>218.5</ele><time>2026-04-19T08:40:39.999Z</time></trkpt><trkpt lat="43.70348192477297" lon="11.18178910097382"><ele>217.25</ele><time>2026-04-19T08:40:40.999Z</time></trkpt><trkpt lat="43.70354334211842" lon="11.181930042756637"><ele>216.0</ele><time>2026-04-19T08:40:41.999Z</time></trkpt><trkpt lat="43.70360991884326" lon="11.182079614541763"><ele>219.8</ele><time>2026-04-19T08:40:42.999Z</time></trkpt><trkpt lat="43.70367560839494" lon="11.18223063324328"><ele>223.60000000000002</ele><time>2026-04-19T08:40:43.999Z</time></trkpt><trkpt lat="43.703731453167755" lon="11.182363456425561"><ele>227.4</ele><time>2026-04-19T08:40:44.999Z</time></trkpt><trkpt lat="43.703777649961985" lon="11.18248720450314"><ele>231.2</ele><time>2026-04-19T08:40:45.999Z</time></trkpt><trkpt lat="43.70381404562109" lon="11.182625056986776"><ele>235.0</ele><time>2026-04-19T08:40:46.999Z</time></trkpt><trkpt lat="43.703832997134384" lon="11.182779306552977"><ele>235.0</ele><time>2026-04-19T08:40:47.999Z</time></trkpt><trkpt lat="43.7038558652945" lon="11.182928161902165"><ele>235.0</ele><time>2026-04-19T08:40:48.999Z</time></trkpt><trkpt lat="43.703897099699056" lon="11.18305736110543"><ele>235.0</ele><time>2026-04-19T08:40:49.999Z</time></trkpt><trkpt lat="43.703959110418644" lon="11.183178349502134"><ele>235.0</ele><time>2026-04-19T08:40:50.999Z</time></trkpt><trkpt lat="43.70403282958165" lon="11.183288458844725"><ele>235.0</ele><time>2026-04-19T08:40:51.999Z</time></trkpt><trkpt lat="43.704103461334824" lon="11.183394167674466"><ele>233.49999999999997</ele><time>2026-04-19T08:40:52.999Z</time></trkpt><trkpt lat="43.70415595446912" lon="11.18349453091317"><ele>232.0</ele><time>2026-04-19T08:40:53.999Z</time></trkpt><trkpt lat="43.7041977955722" lon="11.183583912743371"><ele>230.5</ele><time>2026-04-19T08:40:54.999Z</time></trkpt><trkpt lat="43.70423137025275" lon="11.183664342289768"><ele>229.0</ele><time>2026-04-19T08:40:55.999Z</time></trkpt><trkpt lat="43.70426990960856" lon="11.18377811698145"><ele>227.49999999999997</ele><time>2026-04-19T08:40:57.998Z</time></trkpt><trkpt lat="43.70432346104424" lon="11.183896780302808"><ele>226.0</ele><time>2026-04-19T08:40:59.998Z</time></trkpt><trkpt lat="43.70435175691362" lon="11.184006790281886"><ele>225.8</ele><time>2026-04-19T08:41:00.998Z</time></trkpt><trkpt lat="43.70438200256377" lon="11.184114922510746"><ele>225.60000000000002</ele><time>2026-04-19T08:41:01.998Z</time></trkpt><trkpt lat="43.70441977667994" lon="11.184238069797034"><ele>225.4</ele><time>2026-04-19T08:41:02.998Z</time></trkpt><trkpt lat="43.704461106944855" lon="11.184368009602183"><ele>225.2</ele><time>2026-04-19T08:41:03.998Z</time></trkpt><trkpt lat="43.70450466963999" lon="11.184516859031719"><ele>225.0</ele><time>2026-04-19T08:41:04.998Z</time></trkpt><trkpt lat="43.70454325767782" lon="11.18466833278464"><ele>226.75</ele><time>2026-04-19T08:41:05.998Z</time></trkpt><trkpt lat="43.70458344952884" lon="11.184819751266144"><ele>228.5</ele><time>2026-04-19T08:41:06.998Z</time></trkpt><trkpt lat="43.70462723383405" lon="11.184971076758695"><ele>230.25</ele><time>2026-04-19T08:41:07.998Z</time></trkpt><trkpt lat="43.704671617950424" lon="11.18512212060082"><ele>232.0</ele><time>2026-04-19T08:41:08.998Z</time></trkpt><trkpt lat="43.70471214243892" lon="11.185274655801633"><ele>232.0</ele><time>2026-04-19T08:41:09.998Z</time></trkpt><trkpt lat="43.704752166997594" lon="11.185418363136915"><ele>232.0</ele><time>2026-04-19T08:41:10.998Z</time></trkpt><trkpt lat="43.70479540535566" lon="11.185559746751833"><ele>232.0</ele><time>2026-04-19T08:41:11.998Z</time></trkpt><trkpt lat="43.704845889529636" lon="11.185693500007352"><ele>232.0</ele><time>2026-04-19T08:41:12.998Z</time></trkpt><trkpt lat="43.70490523489486" lon="11.185823472872508"><ele>232.0</ele><time>2026-04-19T08:41:13.998Z</time></trkpt><trkpt lat="43.70498589465076" lon="11.185932879158203"><ele>232.0</ele><time>2026-04-19T08:41:14.998Z</time></trkpt><trkpt lat="43.705084214658974" lon="11.186024907784478"><ele>232.0</ele><time>2026-04-19T08:41:15.998Z</time></trkpt><trkpt lat="43.705200715013554" lon="11.186100685460016"><ele>232.0</ele><time>2026-04-19T08:41:16.998Z</time></trkpt><trkpt lat="43.70532840521352" lon="11.18616551585129"><ele>232.0</ele><time>2026-04-19T08:41:17.998Z</time></trkpt><trkpt lat="43.70547039461119" lon="11.186220369807907"><ele>232.5</ele><time>2026-04-19T08:41:18.998Z</time></trkpt><trkpt lat="43.705608180508534" lon="11.186264352329147"><ele>233.0</ele><time>2026-04-19T08:41:19.998Z</time></trkpt><trkpt lat="43.70573803938279" lon="11.18630086694554"><ele>233.5</ele><time>2026-04-19T08:41:20.998Z</time></trkpt><trkpt lat="43.70586118392793" lon="11.18632603718804"><ele>234.0</ele><time>2026-04-19T08:41:21.998Z</time></trkpt><trkpt lat="43.70598135295261" lon="11.186345362828941"><ele>233.25</ele><time>2026-04-19T08:41:22.998Z</time></trkpt><trkpt lat="43.70609353778943" lon="11.186364207643344"><ele>232.5</ele><time>2026-04-19T08:41:23.998Z</time></trkpt><trkpt lat="43.70620697874732" lon="11.186373396495949"><ele>231.75</ele><time>2026-04-19T08:41:24.998Z</time></trkpt><trkpt lat="43.70631730236373" lon="11.186384217354378"><ele>231.0</ele><time>2026-04-19T08:41:25.998Z</time></trkpt><trkpt lat="43.70643220126085" lon="11.186421386046044"><ele>231.0</ele><time>2026-04-19T08:41:26.998Z</time></trkpt><trkpt lat="43.70655118493692" lon="11.186488429732782"><ele>231.0</ele><time>2026-04-19T08:41:27.998Z</time></trkpt><trkpt lat="43.7066737328415" lon="11.186581571961444"><ele>231.0</ele><time>2026-04-19T08:41:28.998Z</time></trkpt><trkpt lat="43.70678993575815" lon="11.186682690540648"><ele>231.0</ele><time>2026-04-19T08:41:29.998Z</time></trkpt><trkpt lat="43.706918780628534" lon="11.18676967955752"><ele>228.33333333333331</ele><time>2026-04-19T08:41:30.998Z</time></trkpt><trkpt lat="43.707068579840026" lon="11.186835937255806"><ele>225.66666666666666</ele><time>2026-04-19T08:41:31.998Z</time></trkpt><trkpt lat="43.707237153726815" lon="11.186871945515332"><ele>223.0</ele><time>2026-04-19T08:41:32.998Z</time></trkpt><trkpt lat="43.707407248894825" lon="11.186906180008226"><ele>223.0</ele><time>2026-04-19T08:41:33.998Z</time></trkpt><trkpt lat="43.70757434032693" lon="11.186950541975412"><ele>223.0</ele><time>2026-04-19T08:41:34.998Z</time></trkpt><trkpt lat="43.707729132513975" lon="11.186988837271157"><ele>223.0</ele><time>2026-04-19T08:41:35.998Z</time></trkpt><trkpt lat="43.707881104056106" lon="11.18701971433899"><ele>221.0</ele><time>2026-04-19T08:41:36.998Z</time></trkpt><trkpt lat="43.708031183736765" lon="11.187057848687834"><ele>219.0</ele><time>2026-04-19T08:41:37.998Z</time></trkpt><trkpt lat="43.708185817168776" lon="11.187101647948552"><ele>217.0</ele><time>2026-04-19T08:41:38.998Z</time></trkpt><trkpt lat="43.70834223740743" lon="11.187154392328583"><ele>217.0</ele><time>2026-04-19T08:41:39.998Z</time></trkpt><trkpt lat="43.70847869876165" lon="11.18724921391485"><ele>217.0</ele><time>2026-04-19T08:41:41Z</time></trkpt><trkpt lat="43.708608670840235" lon="11.187377995487148"><ele>217.0</ele><time>2026-04-19T08:41:42Z</time></trkpt><trkpt lat="43.70874362252363" lon="11.187518981965814"><ele>215.66666666666666</ele><time>2026-04-19T08:41:43Z</time></trkpt><trkpt lat="43.70888618096075" lon="11.187648709740825"><ele>214.33333333333331</ele><time>2026-04-19T08:41:44Z</time></trkpt><trkpt lat="43.70902805881704" lon="11.187781828040011"><ele>213.0</ele><time>2026-04-19T08:41:45Z</time></trkpt><trkpt lat="43.70916390449534" lon="11.1879176176658"><ele>213.0</ele><time>2026-04-19T08:41:46Z</time></trkpt><trkpt lat="43.70929931280594" lon="11.188050879136979"><ele>213.0</ele><time>2026-04-19T08:41:47Z</time></trkpt><trkpt lat="43.709439164310695" lon="11.188173346597003"><ele>213.0</ele><time>2026-04-19T08:41:48Z</time></trkpt><trkpt lat="43.709580599333165" lon="11.18829090279278"><ele>213.0</ele><time>2026-04-19T08:41:49Z</time></trkpt><trkpt lat="43.709721449103384" lon="11.188408884159745"><ele>213.0</ele><time>2026-04-19T08:41:50Z</time></trkpt><trkpt lat="43.7098616368539" lon="11.188526341249602"><ele>213.0</ele><time>2026-04-19T08:41:51Z</time></trkpt><trkpt lat="43.7100039461479" lon="11.188640660431776"><ele>213.0</ele><time>2026-04-19T08:41:52Z</time></trkpt><trkpt lat="43.71014879982051" lon="11.188751131229452"><ele>213.0</ele><time>2026-04-19T08:41:53Z</time></trkpt><trkpt lat="43.71030080886436" lon="11.188857034238321"><ele>213.0</ele><time>2026-04-19T08:41:54Z</time></trkpt><trkpt lat="43.71046542796863" lon="11.188943652170021"><ele>213.33333333333331</ele><time>2026-04-19T08:41:55Z</time></trkpt><trkpt lat="43.71064069039417" lon="11.189001498979376"><ele>213.66666666666666</ele><time>2026-04-19T08:41:56Z</time></trkpt><trkpt lat="43.7108139431866" lon="11.189053718596078"><ele>214.0</ele><time>2026-04-19T08:41:57Z</time></trkpt><trkpt lat="43.71097245510472" lon="11.189105521083787"><ele>214.66666666666666</ele><time>2026-04-19T08:41:58Z</time></trkpt><trkpt lat="43.71112419557245" lon="11.189152905655005"><ele>215.33333333333331</ele><time>2026-04-19T08:41:59Z</time></trkpt><trkpt lat="43.711272780458046" lon="11.1891872986249"><ele>216.0</ele><time>2026-04-19T08:42:00Z</time></trkpt><trkpt lat="43.71142367006954" lon="11.189200653743791"><ele>216.0</ele><time>2026-04-19T08:42:01Z</time></trkpt><trkpt lat="43.71158257880798" lon="11.189191265637483"><ele>216.0</ele><time>2026-04-19T08:42:02Z</time></trkpt><trkpt lat="43.711727680785145" lon="11.189177348875196"><ele>216.0</ele><time>2026-04-19T08:42:03Z</time></trkpt><trkpt lat="43.71186339852898" lon="11.189163494357336"><ele>216.0</ele><time>2026-04-19T08:42:04Z</time></trkpt><trkpt lat="43.71199161891853" lon="11.189151548978106"><ele>216.5</ele><time>2026-04-19T08:42:05Z</time></trkpt><trkpt lat="43.712114563705896" lon="11.189138465757827"><ele>217.0</ele><time>2026-04-19T08:42:06Z</time></trkpt><trkpt lat="43.712238229408904" lon="11.189096450118253"><ele>217.5</ele><time>2026-04-19T08:42:07Z</time></trkpt><trkpt lat="43.71235866225476" lon="11.189006804558097"><ele>218.0</ele><time>2026-04-19T08:42:08Z</time></trkpt><trkpt lat="43.712463128363986" lon="11.18887724293418"><ele>217.0</ele><time>2026-04-19T08:42:09Z</time></trkpt><trkpt lat="43.712549360029556" lon="11.18871159081419"><ele>216.0</ele><time>2026-04-19T08:42:10Z</time></trkpt><trkpt lat="43.7126241411186" lon="11.188525651497141"><ele>215.0</ele><time>2026-04-19T08:42:11Z</time></trkpt><trkpt lat="43.7126591391838" lon="11.188333309347826"><ele>214.0</ele><time>2026-04-19T08:42:12Z</time></trkpt><trkpt lat="43.71270153122125" lon="11.18816568358073"><ele>213.75</ele><time>2026-04-19T08:42:13Z</time></trkpt><trkpt lat="43.71276046006478" lon="11.188005284128662"><ele>213.5</ele><time>2026-04-19T08:42:14Z</time></trkpt><trkpt lat="43.71283584473498" lon="11.18783367990934"><ele>213.25</ele><time>2026-04-19T08:42:15Z</time></trkpt><trkpt lat="43.71294458561055" lon="11.18769392694893"><ele>213.0</ele><time>2026-04-19T08:42:16Z</time></trkpt><trkpt lat="43.7130715543448" lon="11.187587400197204"><ele>213.0</ele><time>2026-04-19T08:42:17Z</time></trkpt><trkpt lat="43.71322172153075" lon="11.187509839307829"><ele>213.0</ele><time>2026-04-19T08:42:18Z</time></trkpt><trkpt lat="43.71338944802273" lon="11.187457756982685"><ele>213.0</ele><time>2026-04-19T08:42:19Z</time></trkpt><trkpt lat="43.71355886299088" lon="11.187417847891787"><ele>211.66666666666669</ele><time>2026-04-19T08:42:19.999Z</time></trkpt><trkpt lat="43.713731816699976" lon="11.18738768788288"><ele>210.33333333333334</ele><time>2026-04-19T08:42:20.999Z</time></trkpt><trkpt lat="43.71390740902477" lon="11.18737054477633"><ele>209.0</ele><time>2026-04-19T08:42:21.999Z</time></trkpt><trkpt lat="43.71407300216277" lon="11.18736617497641"><ele>209.0</ele><time>2026-04-19T08:42:22.999Z</time></trkpt><trkpt lat="43.71423080519331" lon="11.187371642263457"><ele>209.0</ele><time>2026-04-19T08:42:23.999Z</time></trkpt><trkpt lat="43.714379319310815" lon="11.187399540080905"><ele>209.0</ele><time>2026-04-19T08:42:24.999Z</time></trkpt><trkpt lat="43.71452062476348" lon="11.187461566209144"><ele>204.0</ele><time>2026-04-19T08:42:25.999Z</time></trkpt><trkpt lat="43.714662560209945" lon="11.187567292104829"><ele>199.0</ele><time>2026-04-19T08:42:26.999Z</time></trkpt><trkpt lat="43.71480477005726" lon="11.187699148078302"><ele>194.0</ele><time>2026-04-19T08:42:27.999Z</time></trkpt><trkpt lat="43.714958377748935" lon="11.187828072166093"><ele>194.0</ele><time>2026-04-19T08:42:28.999Z</time></trkpt><trkpt lat="43.7151221157945" lon="11.18795780491707"><ele>194.0</ele><time>2026-04-19T08:42:29.999Z</time></trkpt><trkpt lat="43.71528100225891" lon="11.188095530272307"><ele>194.0</ele><time>2026-04-19T08:42:30.999Z</time></trkpt><trkpt lat="43.71543411364343" lon="11.188220714365961"><ele>193.0</ele><time>2026-04-19T08:42:31.999Z</time></trkpt><trkpt lat="43.71557800513674" lon="11.18833894869498"><ele>192.0</ele><time>2026-04-19T08:42:32.999Z</time></trkpt><trkpt lat="43.71571598018028" lon="11.188468101613342"><ele>191.0</ele><time>2026-04-19T08:42:33.999Z</time></trkpt><trkpt lat="43.71583909160734" lon="11.188627765922844"><ele>191.0</ele><time>2026-04-19T08:42:34.999Z</time></trkpt><trkpt lat="43.715933524288054" lon="11.188806628969166"><ele>191.0</ele><time>2026-04-19T08:42:35.999Z</time></trkpt><trkpt lat="43.716019904870095" lon="11.188971133094954"><ele>191.0</ele><time>2026-04-19T08:42:36.999Z</time></trkpt><trkpt lat="43.71612666155364" lon="11.189094883718937"><ele>191.0</ele><time>2026-04-19T08:42:37.999Z</time></trkpt><trkpt lat="43.716228345741605" lon="11.189191363878114"><ele>188.0</ele><time>2026-04-19T08:42:38.999Z</time></trkpt><trkpt lat="43.71631475883125" lon="11.189291939067838"><ele>185.0</ele><time>2026-04-19T08:42:39.999Z</time></trkpt><trkpt lat="43.71638029752271" lon="11.189426264057223"><ele>182.0</ele><time>2026-04-19T08:42:40.999Z</time></trkpt><trkpt lat="43.71642764237943" lon="11.189618655373962"><ele>179.0</ele><time>2026-04-19T08:42:41.999Z</time></trkpt><trkpt lat="43.71645361547001" lon="11.189835195498782"><ele>179.0</ele><time>2026-04-19T08:42:42.999Z</time></trkpt><trkpt lat="43.71646701022256" lon="11.190056487064812"><ele>179.0</ele><time>2026-04-19T08:42:43.999Z</time></trkpt><trkpt lat="43.71648148895788" lon="11.190271271727108"><ele>179.0</ele><time>2026-04-19T08:42:44.999Z</time></trkpt><trkpt lat="43.71648058524016" lon="11.190482789309348"><ele>179.0</ele><time>2026-04-19T08:42:45.999Z</time></trkpt><trkpt lat="43.71645694868642" lon="11.190687697700763"><ele>179.0</ele><time>2026-04-19T08:42:46.999Z</time></trkpt><trkpt lat="43.716406033315714" lon="11.190890013416878"><ele>179.0</ele><time>2026-04-19T08:42:47.999Z</time></trkpt><trkpt lat="43.71634052285019" lon="11.191063396122315"><ele>179.0</ele><time>2026-04-19T08:42:48.999Z</time></trkpt><trkpt lat="43.71627740130688" lon="11.191219309243813"><ele>179.0</ele><time>2026-04-19T08:42:49.999Z</time></trkpt><trkpt lat="43.71622072321764" lon="11.191365289875431"><ele>179.0</ele><time>2026-04-19T08:42:50.999Z</time></trkpt><trkpt lat="43.716191349489314" lon="11.191519533416097"><ele>179.0</ele><time>2026-04-19T08:42:51.999Z</time></trkpt><trkpt lat="43.716192717710626" lon="11.191680561757405"><ele>179.0</ele><time>2026-04-19T08:42:52.999Z</time></trkpt><trkpt lat="43.71622892887923" lon="11.19185294793679"><ele>179.0</ele><time>2026-04-19T08:42:53.999Z</time></trkpt><trkpt lat="43.71629868540617" lon="11.192024668464484"><ele>179.0</ele><time>2026-04-19T08:42:54.999Z</time></trkpt><trkpt lat="43.71639740104752" lon="11.192204644248374"><ele>179.0</ele><time>2026-04-19T08:42:55.999Z</time></trkpt><trkpt lat="43.716511861979896" lon="11.192386926299992"><ele>178.0</ele><time>2026-04-19T08:42:56.999Z</time></trkpt><trkpt lat="43.716623126981936" lon="11.192572445402678"><ele>177.0</ele><time>2026-04-19T08:42:57.999Z</time></trkpt><trkpt lat="43.71673303331725" lon="11.192743524985762"><ele>176.0</ele><time>2026-04-19T08:42:58.999Z</time></trkpt><trkpt lat="43.71685822767861" lon="11.192900380529915"><ele>177.33333333333331</ele><time>2026-04-19T08:42:59.999Z</time></trkpt><trkpt lat="43.7169855762396" lon="11.193054451023542"><ele>178.66666666666666</ele><time>2026-04-19T08:43:00.999Z</time></trkpt><trkpt lat="43.71711285363644" lon="11.193209562356625"><ele>180.0</ele><time>2026-04-19T08:43:01.999Z</time></trkpt><trkpt lat="43.71725257881977" lon="11.193350485276177"><ele>180.0</ele><time>2026-04-19T08:43:02.999Z</time></trkpt><trkpt lat="43.717410940519876" lon="11.19347365859756"><ele>180.0</ele><time>2026-04-19T08:43:03.999Z</time></trkpt><trkpt lat="43.7175643975982" lon="11.193579996826223"><ele>180.0</ele><time>2026-04-19T08:43:04.999Z</time></trkpt><trkpt lat="43.71770289254722" lon="11.193683007415006"><ele>180.25</ele><time>2026-04-19T08:43:05.999Z</time></trkpt><trkpt lat="43.71783253843232" lon="11.193775821519809"><ele>180.5</ele><time>2026-04-19T08:43:06.999Z</time></trkpt><trkpt lat="43.71795561612118" lon="11.193858831423833"><ele>180.75</ele><time>2026-04-19T08:43:07.999Z</time></trkpt><trkpt lat="43.718069214768754" lon="11.193938905639486"><ele>181.0</ele><time>2026-04-19T08:43:08.999Z</time></trkpt><trkpt lat="43.718172801943545" lon="11.194011073468479"><ele>181.0</ele><time>2026-04-19T08:43:09.999Z</time></trkpt><trkpt lat="43.718263237901674" lon="11.194070254926528"><ele>181.0</ele><time>2026-04-19T08:43:10.999Z</time></trkpt><trkpt lat="43.71833961922954" lon="11.194117853127791"><ele>181.0</ele><time>2026-04-19T08:43:11.998Z</time></trkpt><trkpt lat="43.71840318413901" lon="11.194153877231791"><ele>181.0</ele><time>2026-04-19T08:43:12.998Z</time></trkpt><trkpt lat="43.71849433266791" lon="11.194199689603783"><ele>181.0</ele><time>2026-04-19T08:43:14.998Z</time></trkpt><trkpt lat="43.71856287529488" lon="11.194321213114346"><ele>183.20000000000002</ele><time>2026-04-19T08:43:16.998Z</time></trkpt><trkpt lat="43.718585308920176" lon="11.194424973006686"><ele>185.4</ele><time>2026-04-19T08:43:17.998Z</time></trkpt><trkpt lat="43.71861090230009" lon="11.19454762398832"><ele>187.6</ele><time>2026-04-19T08:43:18.998Z</time></trkpt><trkpt lat="43.71862741373589" lon="11.194691931575653"><ele>189.8</ele><time>2026-04-19T08:43:19.998Z</time></trkpt><trkpt lat="43.71863616245857" lon="11.194846880578481"><ele>192.0</ele><time>2026-04-19T08:43:20.998Z</time></trkpt><trkpt lat="43.71864229606463" lon="11.194998852394239"><ele>193.5</ele><time>2026-04-19T08:43:21.998Z</time></trkpt><trkpt lat="43.71865005220212" lon="11.195166423454902"><ele>195.0</ele><time>2026-04-19T08:43:22.998Z</time></trkpt><trkpt lat="43.71865639302672" lon="11.195330863575176"><ele>196.5</ele><time>2026-04-19T08:43:23.998Z</time></trkpt><trkpt lat="43.718662337721746" lon="11.195497334310142"><ele>198.0</ele><time>2026-04-19T08:43:24.998Z</time></trkpt><trkpt lat="43.71867319499597" lon="11.195660112988424"><ele>198.60000000000002</ele><time>2026-04-19T08:43:25.998Z</time></trkpt><trkpt lat="43.7186819251742" lon="11.195820848976277"><ele>199.20000000000002</ele><time>2026-04-19T08:43:26.998Z</time></trkpt><trkpt lat="43.71869303524879" lon="11.195973359891266"><ele>199.8</ele><time>2026-04-19T08:43:27.998Z</time></trkpt><trkpt lat="43.71870150039679" lon="11.19611773190117"><ele>200.4</ele><time>2026-04-19T08:43:28.998Z</time></trkpt><trkpt lat="43.71870849226193" lon="11.196249535200934"><ele>201.0</ele><time>2026-04-19T08:43:29.998Z</time></trkpt><trkpt lat="43.71871620998578" lon="11.196371967250842"><ele>201.0</ele><time>2026-04-19T08:43:30.998Z</time></trkpt><trkpt lat="43.71872318856141" lon="11.196482983987373"><ele>201.0</ele><time>2026-04-19T08:43:31.998Z</time></trkpt><trkpt lat="43.71873366987239" lon="11.196575158759977"><ele>201.0</ele><time>2026-04-19T08:43:32.998Z</time></trkpt><trkpt lat="43.71875482891202" lon="11.196662074597612"><ele>201.0</ele><time>2026-04-19T08:43:33.998Z</time></trkpt><trkpt lat="43.71880465283483" lon="11.196792724638833"><ele>201.0</ele><time>2026-04-19T08:43:35.998Z</time></trkpt><trkpt lat="43.718811942408216" lon="11.196905950441609"><ele>201.0</ele><time>2026-04-19T08:43:37.998Z</time></trkpt><trkpt lat="43.71874900919656" lon="11.196978839299966"><ele>200.66666666666666</ele><time>2026-04-19T08:43:38.998Z</time></trkpt><trkpt lat="43.718700380585496" lon="11.197041450060519"><ele>200.33333333333331</ele><time>2026-04-19T08:43:39.998Z</time></trkpt><trkpt lat="43.718649221836145" lon="11.197116278760967"><ele>200.0</ele><time>2026-04-19T08:43:40.998Z</time></trkpt><trkpt lat="43.718592050504135" lon="11.197204050118998"><ele>199.66666666666666</ele><time>2026-04-19T08:43:41.998Z</time></trkpt><trkpt lat="43.71852331143947" lon="11.19727016208392"><ele>199.33333333333331</ele><time>2026-04-19T08:43:42.998Z</time></trkpt><trkpt lat="43.718482637147275" lon="11.197356344690549"><ele>199.0</ele><time>2026-04-19T08:43:43.998Z</time></trkpt><trkpt lat="43.718440049305734" lon="11.197432523451303"><ele>199.0</ele><time>2026-04-19T08:43:44.998Z</time></trkpt><trkpt lat="43.71841656474694" lon="11.197531711972653"><ele>199.0</ele><time>2026-04-19T08:43:45.998Z</time></trkpt><trkpt lat="43.71840289096852" lon="11.197650659920345"><ele>199.0</ele><time>2026-04-19T08:43:47Z</time></trkpt><trkpt lat="43.71838763180896" lon="11.197783999889186"><ele>199.0</ele><time>2026-04-19T08:43:48Z</time></trkpt><trkpt lat="43.71836920530831" lon="11.197917591889711"><ele>199.0</ele><time>2026-04-19T08:43:49Z</time></trkpt><trkpt lat="43.71835669158488" lon="11.19805738773156"><ele>198.39999999999998</ele><time>2026-04-19T08:43:50Z</time></trkpt><trkpt lat="43.71835726060477" lon="11.198207448221183"><ele>197.8</ele><time>2026-04-19T08:43:51Z</time></trkpt><trkpt lat="43.71836215422381" lon="11.198362829355656"><ele>197.2</ele><time>2026-04-19T08:43:52Z</time></trkpt><trkpt lat="43.71836564835363" lon="11.198519140226646"><ele>196.60000000000002</ele><time>2026-04-19T08:43:53Z</time></trkpt><trkpt lat="43.71837396182485" lon="11.198676936378694"><ele>196.0</ele><time>2026-04-19T08:43:54Z</time></trkpt><trkpt lat="43.71837933436409" lon="11.198837158418453"><ele>196.0</ele><time>2026-04-19T08:43:55Z</time></trkpt><trkpt lat="43.71838292249814" lon="11.198997199460399"><ele>196.0</ele><time>2026-04-19T08:43:56Z</time></trkpt><trkpt lat="43.71838680128626" lon="11.199157143244735"><ele>196.0</ele><time>2026-04-19T08:43:57Z</time></trkpt><trkpt lat="43.71839371029115" lon="11.199317791202485"><ele>196.0</ele><time>2026-04-19T08:43:58Z</time></trkpt><trkpt lat="43.718400947162586" lon="11.19947659183612"><ele>195.0</ele><time>2026-04-19T08:43:59Z</time></trkpt><trkpt lat="43.718406434520446" lon="11.199632638561896"><ele>194.0</ele><time>2026-04-19T08:44:00Z</time></trkpt><trkpt lat="43.71841000942436" lon="11.199788871320633"><ele>193.0</ele><time>2026-04-19T08:44:01Z</time></trkpt><trkpt lat="43.71839719535167" lon="11.19994022199272"><ele>192.0</ele><time>2026-04-19T08:44:02Z</time></trkpt><trkpt lat="43.71836439827821" lon="11.200084366463736"><ele>191.0</ele><time>2026-04-19T08:44:03Z</time></trkpt><trkpt lat="43.718323999393746" lon="11.200222297859648"><ele>190.5</ele><time>2026-04-19T08:44:04Z</time></trkpt><trkpt lat="43.718283147044545" lon="11.200355585607523"><ele>190.0</ele><time>2026-04-19T08:44:05Z</time></trkpt><trkpt lat="43.71824893997856" lon="11.200482185312534"><ele>189.5</ele><time>2026-04-19T08:44:06Z</time></trkpt><trkpt lat="43.71822275784184" lon="11.200597309639097"><ele>189.0</ele><time>2026-04-19T08:44:07Z</time></trkpt><trkpt lat="43.718204795352676" lon="11.200699995960953"><ele>188.5</ele><time>2026-04-19T08:44:08Z</time></trkpt><trkpt lat="43.71819392225085" lon="11.200787142480104"><ele>188.0</ele><time>2026-04-19T08:44:09Z</time></trkpt><trkpt lat="43.718196032986235" lon="11.200902675153916"><ele>187.8</ele><time>2026-04-19T08:44:11Z</time></trkpt><trkpt lat="43.71823171801473" lon="11.201021617732277"><ele>187.60000000000002</ele><time>2026-04-19T08:44:14Z</time></trkpt><trkpt lat="43.71833935149624" lon="11.201137850893844"><ele>187.39999999999998</ele><time>2026-04-19T08:44:16Z</time></trkpt><trkpt lat="43.718377819961454" lon="11.201241341645607"><ele>187.2</ele><time>2026-04-19T08:44:17Z</time></trkpt><trkpt lat="43.71842771205415" lon="11.201353092217065"><ele>187.0</ele><time>2026-04-19T08:44:18Z</time></trkpt><trkpt lat="43.71848482415661" lon="11.201467461100492"><ele>186.6</ele><time>2026-04-19T08:44:19Z</time></trkpt><trkpt lat="43.718543140295274" lon="11.201578393004013"><ele>186.2</ele><time>2026-04-19T08:44:20Z</time></trkpt><trkpt lat="43.71861219494176" lon="11.201687697702713"><ele>185.8</ele><time>2026-04-19T08:44:21Z</time></trkpt><trkpt lat="43.71868446675325" lon="11.201797399398014"><ele>185.4</ele><time>2026-04-19T08:44:22Z</time></trkpt><trkpt lat="43.7187574852308" lon="11.20191214758319"><ele>185.0</ele><time>2026-04-19T08:44:23Z</time></trkpt><trkpt lat="43.71882974040806" lon="11.202026817144313"><ele>184.4</ele><time>2026-04-19T08:44:24Z</time></trkpt><trkpt lat="43.71890488937409" lon="11.202134866678879"><ele>183.8</ele><time>2026-04-19T08:44:25Z</time></trkpt><trkpt lat="43.718979544753815" lon="11.202241679258165"><ele>183.2</ele><time>2026-04-19T08:44:26Z</time></trkpt><trkpt lat="43.71904400525647" lon="11.202359191891263"><ele>182.6</ele><time>2026-04-19T08:44:27Z</time></trkpt><trkpt lat="43.719095127565886" lon="11.202491003468543"><ele>182.0</ele><time>2026-04-19T08:44:28Z</time></trkpt><trkpt lat="43.7191411353761" lon="11.202631738772773"><ele>181.6</ele><time>2026-04-19T08:44:29Z</time></trkpt><trkpt lat="43.71917992392279" lon="11.20277606698631"><ele>181.2</ele><time>2026-04-19T08:44:30Z</time></trkpt><trkpt lat="43.719215350507476" lon="11.202917667327766"><ele>180.8</ele><time>2026-04-19T08:44:31Z</time></trkpt><trkpt lat="43.71924746052289" lon="11.203059341666712"><ele>180.4</ele><time>2026-04-19T08:44:32Z</time></trkpt><trkpt lat="43.7192707921748" lon="11.203203282722633"><ele>180.0</ele><time>2026-04-19T08:44:32.999Z</time></trkpt><trkpt lat="43.71928312823314" lon="11.203348334583755"><ele>180.0</ele><time>2026-04-19T08:44:33.999Z</time></trkpt><trkpt lat="43.71929046134184" lon="11.203491679848494"><ele>180.0</ele><time>2026-04-19T08:44:34.999Z</time></trkpt><trkpt lat="43.71930379260112" lon="11.203631202530952"><ele>180.0</ele><time>2026-04-19T08:44:35.999Z</time></trkpt><trkpt lat="43.719322641826146" lon="11.203774313799542"><ele>180.0</ele><time>2026-04-19T08:44:36.999Z</time></trkpt><trkpt lat="43.71935065897125" lon="11.203915257537302"><ele>180.0</ele><time>2026-04-19T08:44:37.999Z</time></trkpt><trkpt lat="43.71938713191635" lon="11.204042874585978"><ele>179.0</ele><time>2026-04-19T08:44:38.999Z</time></trkpt><trkpt lat="43.71942836186225" lon="11.204154236819992"><ele>178.0</ele><time>2026-04-19T08:44:39.999Z</time></trkpt><trkpt lat="43.719478073394605" lon="11.20424937029421"><ele>177.0</ele><time>2026-04-19T08:44:40.999Z</time></trkpt><trkpt lat="43.719542471532435" lon="11.204339526429195"><ele>176.0</ele><time>2026-04-19T08:44:41.999Z</time></trkpt><trkpt lat="43.71961624030556" lon="11.2044264477756"><ele>175.0</ele><time>2026-04-19T08:44:42.999Z</time></trkpt><trkpt lat="43.719696445885134" lon="11.204512997816671"><ele>175.0</ele><time>2026-04-19T08:44:43.999Z</time></trkpt><trkpt lat="43.71977530299175" lon="11.204607468032863"><ele>175.0</ele><time>2026-04-19T08:44:44.999Z</time></trkpt><trkpt lat="43.71985233685971" lon="11.204702042361992"><ele>175.0</ele><time>2026-04-19T08:44:45.999Z</time></trkpt><trkpt lat="43.7199305108147" lon="11.204795434617356"><ele>175.0</ele><time>2026-04-19T08:44:46.999Z</time></trkpt><trkpt lat="43.72001125834481" lon="11.20488610986593"><ele>175.0</ele><time>2026-04-19T08:44:47.999Z</time></trkpt><trkpt lat="43.72009129743124" lon="11.204977569608987"><ele>175.6</ele><time>2026-04-19T08:44:48.999Z</time></trkpt><trkpt lat="43.7201634161851" lon="11.205067830692158"><ele>176.2</ele><time>2026-04-19T08:44:49.999Z</time></trkpt><trkpt lat="43.720228723280975" lon="11.205150138233"><ele>176.8</ele><time>2026-04-19T08:44:50.999Z</time></trkpt><trkpt lat="43.72028431265825" lon="11.205227987858656"><ele>177.4</ele><time>2026-04-19T08:44:51.999Z</time></trkpt><trkpt lat="43.72032230736391" lon="11.205303774549717"><ele>178.0</ele><time>2026-04-19T08:44:52.999Z</time></trkpt><trkpt lat="43.720423720428" lon="11.20541299179061"><ele>178.0</ele><time>2026-04-19T08:44:54.999Z</time></trkpt><trkpt lat="43.720486345676754" lon="11.2054544385547"><ele>178.0</ele><time>2026-04-19T08:44:55.999Z</time></trkpt><trkpt lat="43.72055588748511" lon="11.205491414031933"><ele>178.0</ele><time>2026-04-19T08:44:56.999Z</time></trkpt><trkpt lat="43.72063725270042" lon="11.205508313959301"><ele>178.0</ele><time>2026-04-19T08:44:57.999Z</time></trkpt><trkpt lat="43.72072653567342" lon="11.20552374048677"><ele>178.0</ele><time>2026-04-19T08:44:58.999Z</time></trkpt><trkpt lat="43.720822174270374" lon="11.20554031549588"><ele>178.0</ele><time>2026-04-19T08:44:59.999Z</time></trkpt><trkpt lat="43.72091636504266" lon="11.205564207002665"><ele>178.0</ele><time>2026-04-19T08:45:00.999Z</time></trkpt><trkpt lat="43.721007624257865" lon="11.205598873305865"><ele>178.0</ele><time>2026-04-19T08:45:01.999Z</time></trkpt><trkpt lat="43.721095284592145" lon="11.205639995066493"><ele>178.0</ele><time>2026-04-19T08:45:02.999Z</time></trkpt><trkpt lat="43.72118064737237" lon="11.205680674532616"><ele>178.0</ele><time>2026-04-19T08:45:03.999Z</time></trkpt><trkpt lat="43.721263340066336" lon="11.205720441338414"><ele>178.0</ele><time>2026-04-19T08:45:04.999Z</time></trkpt><trkpt lat="43.72134357247497" lon="11.205754462730825"><ele>178.0</ele><time>2026-04-19T08:45:05.999Z</time></trkpt><trkpt lat="43.72142643263055" lon="11.205770722960382"><ele>178.5</ele><time>2026-04-19T08:45:06.999Z</time></trkpt><trkpt lat="43.72151198729255" lon="11.205816801685735"><ele>179.0</ele><time>2026-04-19T08:45:07.999Z</time></trkpt><trkpt lat="43.72160085169488" lon="11.205840607297448"><ele>179.5</ele><time>2026-04-19T08:45:08.999Z</time></trkpt><trkpt lat="43.72167849154021" lon="11.20586581742635"><ele>180.0</ele><time>2026-04-19T08:45:09.999Z</time></trkpt><trkpt lat="43.72174859355453" lon="11.205922391924375"><ele>180.5</ele><time>2026-04-19T08:45:10.999Z</time></trkpt><trkpt lat="43.72181372799764" lon="11.206011436146488"><ele>181.0</ele><time>2026-04-19T08:45:11.999Z</time></trkpt><trkpt lat="43.72187677174894" lon="11.206106285133705"><ele>181.60000000000002</ele><time>2026-04-19T08:45:12.999Z</time></trkpt><trkpt lat="43.72194582412169" lon="11.206192667352212"><ele>182.2</ele><time>2026-04-19T08:45:13.999Z</time></trkpt><trkpt lat="43.72201629521255" lon="11.20628027247578"><ele>182.8</ele><time>2026-04-19T08:45:14.999Z</time></trkpt><trkpt lat="43.722084086753874" lon="11.206366057145932"><ele>183.39999999999998</ele><time>2026-04-19T08:45:15.999Z</time></trkpt><trkpt lat="43.72215484288167" lon="11.20645004264321"><ele>184.0</ele><time>2026-04-19T08:45:16.999Z</time></trkpt><trkpt lat="43.72221803831738" lon="11.206531131186527"><ele>184.0</ele><time>2026-04-19T08:45:17.999Z</time></trkpt><trkpt lat="43.722280375659295" lon="11.20661035412718"><ele>184.0</ele><time>2026-04-19T08:45:18.999Z</time></trkpt><trkpt lat="43.72233991622993" lon="11.206692498966374"><ele>184.0</ele><time>2026-04-19T08:45:19.999Z</time></trkpt><trkpt lat="43.72240075827958" lon="11.206777126904916"><ele>184.0</ele><time>2026-04-19T08:45:20.999Z</time></trkpt><trkpt lat="43.72245933227889" lon="11.206854751055376"><ele>184.0</ele><time>2026-04-19T08:45:21.999Z</time></trkpt><trkpt lat="43.72251649657049" lon="11.20692405724157"><ele>184.0</ele><time>2026-04-19T08:45:22.999Z</time></trkpt><trkpt lat="43.72257189965409" lon="11.206999953005694"><ele>184.0</ele><time>2026-04-19T08:45:23.998Z</time></trkpt><trkpt lat="43.72262257182033" lon="11.207069513597222"><ele>184.0</ele><time>2026-04-19T08:45:24.998Z</time></trkpt><trkpt lat="43.72270785255498" lon="11.207188718659129"><ele>184.0</ele><time>2026-04-19T08:45:26.998Z</time></trkpt><trkpt lat="43.722760581421745" lon="11.207246401434782"><ele>184.0</ele><time>2026-04-19T08:45:27.998Z</time></trkpt><trkpt lat="43.72280608627539" lon="11.207321999506766"><ele>184.0</ele><time>2026-04-19T08:45:28.998Z</time></trkpt><trkpt lat="43.72286403248789" lon="11.207387331506807"><ele>184.0</ele><time>2026-04-19T08:45:29.998Z</time></trkpt><trkpt lat="43.72292312155724" lon="11.20744790552637"><ele>184.0</ele><time>2026-04-19T08:45:30.998Z</time></trkpt><trkpt lat="43.7229731152042" lon="11.207519785984909"><ele>184.0</ele><time>2026-04-19T08:45:31.998Z</time></trkpt><trkpt lat="43.723040397685836" lon="11.207587018769118"><ele>184.0</ele><time>2026-04-19T08:45:32.998Z</time></trkpt><trkpt lat="43.72311815257698" lon="11.207657354961023"><ele>184.0</ele><time>2026-04-19T08:45:33.998Z</time></trkpt><trkpt lat="43.72320067331661" lon="11.207728497326109"><ele>184.0</ele><time>2026-04-19T08:45:34.998Z</time></trkpt><trkpt lat="43.72328434112048" lon="11.207819523018571"><ele>184.0</ele><time>2026-04-19T08:45:35.998Z</time></trkpt><trkpt lat="43.723367974334714" lon="11.20791788396292"><ele>184.0</ele><time>2026-04-19T08:45:36.998Z</time></trkpt><trkpt lat="43.7234486109512" lon="11.208015412160316"><ele>184.0</ele><time>2026-04-19T08:45:37.998Z</time></trkpt><trkpt lat="43.72352805315648" lon="11.208110631683269"><ele>184.0</ele><time>2026-04-19T08:45:38.998Z</time></trkpt><trkpt lat="43.72360500275378" lon="11.208210515292363"><ele>184.0</ele><time>2026-04-19T08:45:39.998Z</time></trkpt><trkpt lat="43.723675102289434" lon="11.208316339108155"><ele>181.2</ele><time>2026-04-19T08:45:40.998Z</time></trkpt><trkpt lat="43.72374560718494" lon="11.20841697792895"><ele>178.39999999999998</ele><time>2026-04-19T08:45:41.998Z</time></trkpt><trkpt lat="43.723817071298434" lon="11.20851187954843"><ele>175.6</ele><time>2026-04-19T08:45:42.998Z</time></trkpt><trkpt lat="43.72387834587931" lon="11.208607950366387"><ele>172.8</ele><time>2026-04-19T08:45:43.998Z</time></trkpt><trkpt lat="43.72393433026563" lon="11.208705104600424"><ele>170.0</ele><time>2026-04-19T08:45:44.998Z</time></trkpt><trkpt lat="43.72397565205575" lon="11.208816118875225"><ele>170.0</ele><time>2026-04-19T08:45:45.998Z</time></trkpt><trkpt lat="43.72400942101355" lon="11.208942615874017"><ele>170.0</ele><time>2026-04-19T08:45:46.998Z</time></trkpt><trkpt lat="43.72403369891677" lon="11.209089923167962"><ele>170.0</ele><time>2026-04-19T08:45:47.998Z</time></trkpt><trkpt lat="43.724055096358384" lon="11.2092396312326"><ele>170.0</ele><time>2026-04-19T08:45:48.998Z</time></trkpt><trkpt lat="43.724071657033164" lon="11.209393621531502"><ele>170.0</ele><time>2026-04-19T08:45:49.998Z</time></trkpt><trkpt lat="43.72408245054114" lon="11.20954368321695"><ele>168.66666666666666</ele><time>2026-04-19T08:45:50.998Z</time></trkpt><trkpt lat="43.72408569716717" lon="11.209683544193117"><ele>167.33333333333331</ele><time>2026-04-19T08:45:51.998Z</time></trkpt><trkpt lat="43.7240778372178" lon="11.209810799435623"><ele>166.0</ele><time>2026-04-19T08:45:53Z</time></trkpt><trkpt lat="43.7240601078502" lon="11.209919369092258"><ele>164.66666666666666</ele><time>2026-04-19T08:45:54Z</time></trkpt><trkpt lat="43.7240348643518" lon="11.210016389318408"><ele>163.33333333333334</ele><time>2026-04-19T08:45:55Z</time></trkpt><trkpt lat="43.72399831189912" lon="11.210103987760064"><ele>162.0</ele><time>2026-04-19T08:45:56Z</time></trkpt><trkpt lat="43.723950700044675" lon="11.210176680701302"><ele>161.28571428571428</ele><time>2026-04-19T08:45:57Z</time></trkpt><trkpt lat="43.723904608946874" lon="11.210239882017074"><ele>160.57142857142856</ele><time>2026-04-19T08:45:58Z</time></trkpt><trkpt lat="43.72386835947859" lon="11.21036290971833"><ele>159.85714285714283</ele><time>2026-04-19T08:46:00Z</time></trkpt><trkpt lat="43.723891534354316" lon="11.210449895245402"><ele>159.14285714285714</ele><time>2026-04-19T08:46:01Z</time></trkpt><trkpt lat="43.72392053377299" lon="11.21053906340618"><ele>158.42857142857142</ele><time>2026-04-19T08:46:02Z</time></trkpt><trkpt lat="43.72393983010986" lon="11.210630859081101"><ele>157.7142857142857</ele><time>2026-04-19T08:46:03Z</time></trkpt><trkpt lat="43.72395318018388" lon="11.210729590514418"><ele>157.0</ele><time>2026-04-19T08:46:04Z</time></trkpt><trkpt lat="43.72395671672382" lon="11.210836067504884"><ele>155.66666666666669</ele><time>2026-04-19T08:46:05Z</time></trkpt><trkpt lat="43.723943951944534" lon="11.210946914243323"><ele>154.33333333333334</ele><time>2026-04-19T08:46:06Z</time></trkpt><trkpt lat="43.72392524852098" lon="11.211057005458654"><ele>153.0</ele><time>2026-04-19T08:46:07Z</time></trkpt><trkpt lat="43.72390722086713" lon="11.21116814327696"><ele>151.66666666666666</ele><time>2026-04-19T08:46:08Z</time></trkpt><trkpt lat="43.72389236499473" lon="11.211280289784737"><ele>150.33333333333331</ele><time>2026-04-19T08:46:09Z</time></trkpt><trkpt lat="43.72388171026202" lon="11.211387739105282"><ele>149.0</ele><time>2026-04-19T08:46:10Z</time></trkpt><trkpt lat="43.72386826781928" lon="11.211490706818394"><ele>147.66666666666666</ele><time>2026-04-19T08:46:11Z</time></trkpt><trkpt lat="43.723858804285626" lon="11.21158816976853"><ele>146.33333333333331</ele><time>2026-04-19T08:46:12Z</time></trkpt><trkpt lat="43.72386082644245" lon="11.211682732167507"><ele>145.0</ele><time>2026-04-19T08:46:13Z</time></trkpt><trkpt lat="43.72387698766825" lon="11.21180146862815"><ele>143.66666666666666</ele><time>2026-04-19T08:46:14Z</time></trkpt><trkpt lat="43.723902450092005" lon="11.21191454040986"><ele>142.33333333333334</ele><time>2026-04-19T08:46:15Z</time></trkpt><trkpt lat="43.723932819443775" lon="11.21201835388745"><ele>141.0</ele><time>2026-04-19T08:46:16Z</time></trkpt><trkpt lat="43.72395413073156" lon="11.21211029179309"><ele>141.0</ele><time>2026-04-19T08:46:17Z</time></trkpt><trkpt lat="43.72396685069321" lon="11.212198741987777"><ele>141.0</ele><time>2026-04-19T08:46:18Z</time></trkpt><trkpt lat="43.72397388962029" lon="11.212286220402884"><ele>141.0</ele><time>2026-04-19T08:46:19Z</time></trkpt><trkpt lat="43.7239695624067" lon="11.212392977542395"><ele>141.0</ele><time>2026-04-19T08:46:20Z</time></trkpt><trkpt lat="43.72396133196029" lon="11.212516358298496"><ele>141.0</ele><time>2026-04-19T08:46:21Z</time></trkpt><trkpt lat="43.7239571995385" lon="11.212643612609968"><ele>141.0</ele><time>2026-04-19T08:46:22Z</time></trkpt><trkpt lat="43.723948379110865" lon="11.212773708264915"><ele>141.33333333333334</ele><time>2026-04-19T08:46:23Z</time></trkpt><trkpt lat="43.72393996909704" lon="11.212895400005522"><ele>141.66666666666666</ele><time>2026-04-19T08:46:24Z</time></trkpt><trkpt lat="43.72393229766964" lon="11.21301189637562"><ele>142.0</ele><time>2026-04-19T08:46:25Z</time></trkpt><trkpt lat="43.723931400256504" lon="11.213121985591554"><ele>142.33333333333331</ele><time>2026-04-19T08:46:26Z</time></trkpt><trkpt lat="43.72392725300459" lon="11.213246516803181"><ele>142.66666666666666</ele><time>2026-04-19T08:46:27Z</time></trkpt><trkpt lat="43.72390699137609" lon="11.213375006284677"><ele>143.0</ele><time>2026-04-19T08:46:28Z</time></trkpt><trkpt lat="43.723911597024724" lon="11.213510625339943"><ele>143.0</ele><time>2026-04-19T08:46:29Z</time></trkpt><trkpt lat="43.72389668622912" lon="11.213633352865232"><ele>143.0</ele><time>2026-04-19T08:46:30Z</time></trkpt><trkpt lat="43.723883815039876" lon="11.213740232336626"><ele>143.0</ele><time>2026-04-19T08:46:31Z</time></trkpt><trkpt lat="43.723879781441354" lon="11.213841007841584"><ele>143.0</ele><time>2026-04-19T08:46:32Z</time></trkpt><trkpt lat="43.72387384696719" lon="11.21393516731766"><ele>143.0</ele><time>2026-04-19T08:46:33Z</time></trkpt><trkpt lat="43.72389299743327" lon="11.214042903407595"><ele>143.0</ele><time>2026-04-19T08:46:34Z</time></trkpt><trkpt lat="43.72393077951314" lon="11.214151984952776"><ele>142.4</ele><time>2026-04-19T08:46:35Z</time></trkpt><trkpt lat="43.723974184779486" lon="11.214259887658427"><ele>141.8</ele><time>2026-04-19T08:46:36Z</time></trkpt><trkpt lat="43.72402303931748" lon="11.214364020814488"><ele>141.2</ele><time>2026-04-19T08:46:37Z</time></trkpt><trkpt lat="43.724076196162805" lon="11.214467800047535"><ele>140.6</ele><time>2026-04-19T08:46:38Z</time></trkpt><trkpt lat="43.724128254745494" lon="11.214576540287766"><ele>140.0</ele><time>2026-04-19T08:46:39Z</time></trkpt><trkpt lat="43.72417785974867" lon="11.214683697009786"><ele>140.0</ele><time>2026-04-19T08:46:40Z</time></trkpt><trkpt lat="43.72422842857833" lon="11.214789373446802"><ele>140.0</ele><time>2026-04-19T08:46:41Z</time></trkpt><trkpt lat="43.724280754327076" lon="11.214887912498217"><ele>140.0</ele><time>2026-04-19T08:46:42Z</time></trkpt><trkpt lat="43.7243308590345" lon="11.21498002425922"><ele>140.0</ele><time>2026-04-19T08:46:43Z</time></trkpt><trkpt lat="43.72438031373455" lon="11.215070941083063"><ele>140.0</ele><time>2026-04-19T08:46:44Z</time></trkpt><trkpt lat="43.724426821743236" lon="11.215157795144734"><ele>140.0</ele><time>2026-04-19T08:46:45Z</time></trkpt><trkpt lat="43.72448330088005" lon="11.21525708289092"><ele>137.83333333333331</ele><time>2026-04-19T08:46:46Z</time></trkpt><trkpt lat="43.72454064352783" lon="11.215347776749905"><ele>135.66666666666666</ele><time>2026-04-19T08:46:47Z</time></trkpt><trkpt lat="43.72459596895097" lon="11.215423593219693"><ele>133.5</ele><time>2026-04-19T08:46:48Z</time></trkpt><trkpt lat="43.72464885672635" lon="11.21550332454253"><ele>131.33333333333334</ele><time>2026-04-19T08:46:48.999Z</time></trkpt><trkpt lat="43.72470462616688" lon="11.215603315770466"><ele>129.16666666666669</ele><time>2026-04-19T08:46:49.999Z</time></trkpt><trkpt lat="43.724750264532354" lon="11.215709835096256"><ele>127.0</ele><time>2026-04-19T08:46:50.999Z</time></trkpt><trkpt lat="43.72479689466773" lon="11.215817837744837"><ele>125.0</ele><time>2026-04-19T08:46:51.999Z</time></trkpt><trkpt lat="43.72484189190429" lon="11.215924681857596"><ele>122.99999999999999</ele><time>2026-04-19T08:46:52.999Z</time></trkpt><trkpt lat="43.72488698411808" lon="11.216033043987698"><ele>120.99999999999999</ele><time>2026-04-19T08:46:53.999Z</time></trkpt><trkpt lat="43.72493280775768" lon="11.216147585137243"><ele>119.0</ele><time>2026-04-19T08:46:54.999Z</time></trkpt><trkpt lat="43.72497736223346" lon="11.216262449645196"><ele>117.0</ele><time>2026-04-19T08:46:55.999Z</time></trkpt><trkpt lat="43.72502582875999" lon="11.21637576809042"><ele>115.39999999999999</ele><time>2026-04-19T08:46:56.999Z</time></trkpt><trkpt lat="43.72507527644358" lon="11.216486923075076"><ele>113.79999999999998</ele><time>2026-04-19T08:46:57.999Z</time></trkpt><trkpt lat="43.725126441603734" lon="11.216595721208936"><ele>112.2</ele><time>2026-04-19T08:46:58.999Z</time></trkpt><trkpt lat="43.725178280395475" lon="11.216704861638043"><ele>110.6</ele><time>2026-04-19T08:46:59.999Z</time></trkpt><trkpt lat="43.72522919108622" lon="11.216816094005793"><ele>109.0</ele><time>2026-04-19T08:47:00.999Z</time></trkpt><trkpt lat="43.725279557627594" lon="11.216926235806094"><ele>106.6</ele><time>2026-04-19T08:47:01.999Z</time></trkpt><trkpt lat="43.72534286154411" lon="11.217022349885594"><ele>104.2</ele><time>2026-04-19T08:47:02.999Z</time></trkpt><trkpt lat="43.725391261125196" lon="11.217136330376421"><ele>101.8</ele><time>2026-04-19T08:47:03.999Z</time></trkpt><trkpt lat="43.72544694826993" lon="11.217250746646167"><ele>99.39999999999999</ele><time>2026-04-19T08:47:04.999Z</time></trkpt><trkpt lat="43.725506639469224" lon="11.217364938053432"><ele>97.0</ele><time>2026-04-19T08:47:05.999Z</time></trkpt><trkpt lat="43.72556687542507" lon="11.217475327873844"><ele>96.0</ele><time>2026-04-19T08:47:06.999Z</time></trkpt><trkpt lat="43.725636711597474" lon="11.217592327198679"><ele>95.0</ele><time>2026-04-19T08:47:07.999Z</time></trkpt><trkpt lat="43.72570294682872" lon="11.21772541613692"><ele>94.0</ele><time>2026-04-19T08:47:08.999Z</time></trkpt><trkpt lat="43.72579326529028" lon="11.217839011302187"><ele>93.0</ele><time>2026-04-19T08:47:09.999Z</time></trkpt><trkpt lat="43.72586829517707" lon="11.2179685453106"><ele>93.0</ele><time>2026-04-19T08:47:10.999Z</time></trkpt><trkpt lat="43.72594062171687" lon="11.21808883703136"><ele>93.0</ele><time>2026-04-19T08:47:11.999Z</time></trkpt><trkpt lat="43.72600275110909" lon="11.218196417887608"><ele>93.0</ele><time>2026-04-19T08:47:12.999Z</time></trkpt><trkpt lat="43.726046166994436" lon="11.218304664821947"><ele>93.0</ele><time>2026-04-19T08:47:13.999Z</time></trkpt><trkpt lat="43.72607099073004" lon="11.218417571334587"><ele>93.0</ele><time>2026-04-19T08:47:14.999Z</time></trkpt><trkpt lat="43.72606470162752" lon="11.218550307656937"><ele>92.0</ele><time>2026-04-19T08:47:15.999Z</time></trkpt><trkpt lat="43.72604439719699" lon="11.218690846737392"><ele>91.0</ele><time>2026-04-19T08:47:16.999Z</time></trkpt><trkpt lat="43.72600947799021" lon="11.218833621009978"><ele>90.0</ele><time>2026-04-19T08:47:17.999Z</time></trkpt><trkpt lat="43.725968391310396" lon="11.218970034701835"><ele>89.0</ele><time>2026-04-19T08:47:18.999Z</time></trkpt><trkpt lat="43.725925038351534" lon="11.219101713742113"><ele>88.0</ele><time>2026-04-19T08:47:19.999Z</time></trkpt><trkpt lat="43.72587898774674" lon="11.21922848888776"><ele>87.0</ele><time>2026-04-19T08:47:20.999Z</time></trkpt><trkpt lat="43.725828289530625" lon="11.219337028173209"><ele>86.0</ele><time>2026-04-19T08:47:21.999Z</time></trkpt><trkpt lat="43.72577093971431" lon="11.219432717369655"><ele>85.0</ele><time>2026-04-19T08:47:22.999Z</time></trkpt><trkpt lat="43.7257140957455" lon="11.219522167656407"><ele>84.0</ele><time>2026-04-19T08:47:23.999Z</time></trkpt><trkpt lat="43.72566248389315" lon="11.219598343300298"><ele>83.0</ele><time>2026-04-19T08:47:24.999Z</time></trkpt><trkpt lat="43.72559149523629" lon="11.219724173514296"><ele>81.2</ele><time>2026-04-19T08:47:26.999Z</time></trkpt><trkpt lat="43.72560406777579" lon="11.219909744427426"><ele>79.4</ele><time>2026-04-19T08:47:28.999Z</time></trkpt><trkpt lat="43.72562961012681" lon="11.220024285980227"><ele>77.60000000000001</ele><time>2026-04-19T08:47:29.999Z</time></trkpt><trkpt lat="43.725662214443005" lon="11.220145935010155"><ele>75.80000000000001</ele><time>2026-04-19T08:47:30.999Z</time></trkpt><trkpt lat="43.72570957954665" lon="11.220258645972729"><ele>74.0</ele><time>2026-04-19T08:47:31.999Z</time></trkpt><trkpt lat="43.72575889103636" lon="11.220366077580241"><ele>74.0</ele><time>2026-04-19T08:47:32.999Z</time></trkpt><trkpt lat="43.72580445984959" lon="11.220463101714053"><ele>74.0</ele><time>2026-04-19T08:47:33.999Z</time></trkpt><trkpt lat="43.72585639726941" lon="11.220546433501525"><ele>74.0</ele><time>2026-04-19T08:47:34.999Z</time></trkpt><trkpt lat="43.72591571107849" lon="11.220613151097842"><ele>74.0</ele><time>2026-04-19T08:47:35.999Z</time></trkpt><trkpt lat="43.72597949183143" lon="11.22066171437451"><ele>74.0</ele><time>2026-04-19T08:47:36.999Z</time></trkpt><trkpt lat="43.72605811681717" lon="11.220766120560503"><ele>74.0</ele><time>2026-04-19T08:47:38.999Z</time></trkpt><trkpt lat="43.72612726562589" lon="11.220837242788287"><ele>72.16666666666667</ele><time>2026-04-19T08:47:46.998Z</time></trkpt><trkpt lat="43.7261871602491" lon="11.22090978107862"><ele>70.33333333333334</ele><time>2026-04-19T08:47:48.998Z</time></trkpt><trkpt lat="43.72626028783019" lon="11.220990587183376"><ele>68.5</ele><time>2026-04-19T08:47:50.998Z</time></trkpt><trkpt lat="43.72627352414383" lon="11.221095202782905"><ele>66.66666666666667</ele><time>2026-04-19T08:47:51.998Z</time></trkpt><trkpt lat="43.7263191994188" lon="11.221169121987801"><ele>64.83333333333333</ele><time>2026-04-19T08:47:52.998Z</time></trkpt><trkpt lat="43.726348346982554" lon="11.221253042855434"><ele>63.0</ele><time>2026-04-19T08:47:53.998Z</time></trkpt><trkpt lat="43.72637874009137" lon="11.221331007294593"><ele>62.599999999999994</ele><time>2026-04-19T08:47:54.998Z</time></trkpt><trkpt lat="43.72642597746162" lon="11.2214901822603"><ele>62.199999999999996</ele><time>2026-04-19T08:47:56.998Z</time></trkpt><trkpt lat="43.72647174665203" lon="11.22155171277887"><ele>61.8</ele><time>2026-04-19T08:47:57.998Z</time></trkpt><trkpt lat="43.72650950736373" lon="11.221631973805035"><ele>61.4</ele><time>2026-04-19T08:47:59Z</time></trkpt><trkpt lat="43.72659841452518" lon="11.221654123197693"><ele>61.0</ele><time>2026-04-19T08:48:00Z</time></trkpt><trkpt lat="43.726716794364464" lon="11.221679694600137"><ele>60.99999999999999</ele><time>2026-04-19T08:48:02Z</time></trkpt><trkpt lat="43.72677691890989" lon="11.221705783519466"><ele>61.0</ele><time>2026-04-19T08:48:03Z</time></trkpt><trkpt lat="43.72683602844007" lon="11.221740883773727"><ele>60.99999999999999</ele><time>2026-04-19T08:48:04Z</time></trkpt><trkpt lat="43.7268964980941" lon="11.221780606556239"><ele>60.99999999999999</ele><time>2026-04-19T08:48:05Z</time></trkpt><trkpt lat="43.72695022247243" lon="11.22184725748542"><ele>61.0</ele><time>2026-04-19T08:48:06Z</time></trkpt><trkpt lat="43.726992859183184" lon="11.22194357651085"><ele>60.99999999999999</ele><time>2026-04-19T08:48:07Z</time></trkpt><trkpt lat="43.727019875003656" lon="11.222067805723668"><ele>60.99999999999999</ele><time>2026-04-19T08:48:08Z</time></trkpt><trkpt lat="43.727042572792506" lon="11.222192666327143"><ele>61.199999999999996</ele><time>2026-04-19T08:48:09Z</time></trkpt><trkpt lat="43.72705749655264" lon="11.22232008088406"><ele>61.39999999999999</ele><time>2026-04-19T08:48:10Z</time></trkpt><trkpt lat="43.72707923823674" lon="11.222449423820978"><ele>61.6</ele><time>2026-04-19T08:48:11Z</time></trkpt><trkpt lat="43.727102938026135" lon="11.222582293653097"><ele>61.8</ele><time>2026-04-19T08:48:12Z</time></trkpt><trkpt lat="43.727126490819074" lon="11.22271574849964"><ele>62.0</ele><time>2026-04-19T08:48:13Z</time></trkpt><trkpt lat="43.72714876862449" lon="11.222851812270385"><ele>62.0</ele><time>2026-04-19T08:48:14Z</time></trkpt><trkpt lat="43.72717373121112" lon="11.222987968662277"><ele>62.0</ele><time>2026-04-19T08:48:15Z</time></trkpt><trkpt lat="43.727194858508426" lon="11.223126317172307"><ele>62.0</ele><time>2026-04-19T08:48:16Z</time></trkpt><trkpt lat="43.72721888443988" lon="11.22325967265071"><ele>62.0</ele><time>2026-04-19T08:48:17Z</time></trkpt><trkpt lat="43.72724408193839" lon="11.22338590502074"><ele>62.0</ele><time>2026-04-19T08:48:18Z</time></trkpt><trkpt lat="43.727267001181" lon="11.223507438660823"><ele>62.16666666666667</ele><time>2026-04-19T08:48:19Z</time></trkpt><trkpt lat="43.72728544979687" lon="11.223621692323897"><ele>62.333333333333336</ele><time>2026-04-19T08:48:20Z</time></trkpt><trkpt lat="43.72729882024407" lon="11.22373577892293"><ele>62.5</ele><time>2026-04-19T08:48:21Z</time></trkpt><trkpt lat="43.727319607484226" lon="11.223841546794334"><ele>62.66666666666667</ele><time>2026-04-19T08:48:22Z</time></trkpt><trkpt lat="43.7273406156846" lon="11.223930472878843"><ele>62.833333333333336</ele><time>2026-04-19T08:48:23Z</time></trkpt><trkpt lat="43.7273679466164" lon="11.224060895795345"><ele>63.0</ele><time>2026-04-19T08:48:25Z</time></trkpt><trkpt lat="43.72738781522435" lon="11.22414474230864"><ele>63.599999999999994</ele><time>2026-04-19T08:48:28Z</time></trkpt><trkpt lat="43.72752412166847" lon="11.22417837158773"><ele>64.19999999999999</ele><time>2026-04-19T08:48:43Z</time></trkpt><trkpt lat="43.727593357987125" lon="11.224144566840964"><ele>64.8</ele><time>2026-04-19T08:48:44Z</time></trkpt><trkpt lat="43.727666983429586" lon="11.224095883814497"><ele>65.39999999999999</ele><time>2026-04-19T08:48:45Z</time></trkpt><trkpt lat="43.72773913620697" lon="11.224051402079736"><ele>66.0</ele><time>2026-04-19T08:48:45.999Z</time></trkpt><trkpt lat="43.72782676989517" lon="11.223998145977724"><ele>67.0</ele><time>2026-04-19T08:48:46.999Z</time></trkpt><trkpt lat="43.72792202142318" lon="11.22394487198366"><ele>68.0</ele><time>2026-04-19T08:48:47.999Z</time></trkpt><trkpt lat="43.72802315369238" lon="11.223887735644647"><ele>69.0</ele><time>2026-04-19T08:48:48.999Z</time></trkpt><trkpt lat="43.72811851331453" lon="11.223836409691279"><ele>70.0</ele><time>2026-04-19T08:48:49.999Z</time></trkpt><trkpt lat="43.72821799989572" lon="11.223772183322112"><ele>71.0</ele><time>2026-04-19T08:48:50.999Z</time></trkpt><trkpt lat="43.72831769468432" lon="11.22371233543006"><ele>71.0</ele><time>2026-04-19T08:48:51.999Z</time></trkpt><trkpt lat="43.72841839096902" lon="11.223659072900183"><ele>71.0</ele><time>2026-04-19T08:48:52.999Z</time></trkpt><trkpt lat="43.72851714620158" lon="11.223597310645546"><ele>71.0</ele><time>2026-04-19T08:48:53.999Z</time></trkpt><trkpt lat="43.72861699511594" lon="11.22353724746699"><ele>71.0</ele><time>2026-04-19T08:48:54.999Z</time></trkpt><trkpt lat="43.72871997435333" lon="11.22348726302251"><ele>71.0</ele><time>2026-04-19T08:48:55.999Z</time></trkpt><trkpt lat="43.72882346915427" lon="11.223434835244742"><ele>71.8</ele><time>2026-04-19T08:48:56.999Z</time></trkpt><trkpt lat="43.72892785228494" lon="11.223383643994422"><ele>72.6</ele><time>2026-04-19T08:48:57.999Z</time></trkpt><trkpt lat="43.72903575984274" lon="11.223343396944106"><ele>73.4</ele><time>2026-04-19T08:48:58.999Z</time></trkpt><trkpt lat="43.72914081162123" lon="11.223309092067861"><ele>74.2</ele><time>2026-04-19T08:48:59.999Z</time></trkpt><trkpt lat="43.729243589919186" lon="11.223281083283258"><ele>75.0</ele><time>2026-04-19T08:49:00.999Z</time></trkpt><trkpt lat="43.729343803618804" lon="11.223262047698798"><ele>76.0</ele><time>2026-04-19T08:49:01.999Z</time></trkpt><trkpt lat="43.729434592788756" lon="11.223255962247832"><ele>77.0</ele><time>2026-04-19T08:49:02.999Z</time></trkpt><trkpt lat="43.72951640690976" lon="11.22325395728388"><ele>78.0</ele><time>2026-04-19T08:49:03.998Z</time></trkpt><trkpt lat="43.7295900145502" lon="11.223257715072211"><ele>79.0</ele><time>2026-04-19T08:49:04.998Z</time></trkpt><trkpt lat="43.729668087119045" lon="11.223265823198892"><ele>80.0</ele><time>2026-04-19T08:49:05.998Z</time></trkpt><trkpt lat="43.72975304844875" lon="11.223275106116391"><ele>81.0</ele><time>2026-04-19T08:49:06.998Z</time></trkpt><trkpt lat="43.729839125499446" lon="11.223296299170164"><ele>81.0</ele><time>2026-04-19T08:49:07.998Z</time></trkpt><trkpt lat="43.729928426205966" lon="11.223320537903875"><ele>81.0</ele><time>2026-04-19T08:49:08.998Z</time></trkpt><trkpt lat="43.7300228711409" lon="11.22333948572438"><ele>81.0</ele><time>2026-04-19T08:49:09.998Z</time></trkpt><trkpt lat="43.730122167838914" lon="11.223360148770333"><ele>81.0</ele><time>2026-04-19T08:49:10.998Z</time></trkpt><trkpt lat="43.7302267635799" lon="11.223387055993046"><ele>81.0</ele><time>2026-04-19T08:49:11.998Z</time></trkpt><trkpt lat="43.73032894822535" lon="11.22341243074923"><ele>81.0</ele><time>2026-04-19T08:49:12.998Z</time></trkpt><trkpt lat="43.73043782326996" lon="11.223437024829796"><ele>81.0</ele><time>2026-04-19T08:49:13.998Z</time></trkpt><trkpt lat="43.730548549093946" lon="11.223459849647952"><ele>81.0</ele><time>2026-04-19T08:49:14.998Z</time></trkpt><trkpt lat="43.73066214954285" lon="11.223483556942272"><ele>81.0</ele><time>2026-04-19T08:49:15.998Z</time></trkpt><trkpt lat="43.73077886163662" lon="11.223507711285137"><ele>81.0</ele><time>2026-04-19T08:49:16.998Z</time></trkpt><trkpt lat="43.73089673288523" lon="11.22353565481202"><ele>81.0</ele><time>2026-04-19T08:49:17.998Z</time></trkpt><trkpt lat="43.731017383119905" lon="11.223562428960465"><ele>81.0</ele><time>2026-04-19T08:49:18.998Z</time></trkpt><trkpt lat="43.73113764582401" lon="11.223593252417825"><ele>81.0</ele><time>2026-04-19T08:49:19.998Z</time></trkpt><trkpt lat="43.73125768813799" lon="11.223632022698604"><ele>79.75</ele><time>2026-04-19T08:49:20.998Z</time></trkpt><trkpt lat="43.731377141192354" lon="11.223677864472466"><ele>78.5</ele><time>2026-04-19T08:49:21.998Z</time></trkpt><trkpt lat="43.73149311642053" lon="11.223736736091633"><ele>77.25</ele><time>2026-04-19T08:49:22.998Z</time></trkpt><trkpt lat="43.73160469246164" lon="11.223815333538328"><ele>76.0</ele><time>2026-04-19T08:49:23.998Z</time></trkpt><trkpt lat="43.73170723588828" lon="11.223905290134992"><ele>76.75</ele><time>2026-04-19T08:49:24.998Z</time></trkpt><trkpt lat="43.73180078640868" lon="11.224002456589096"><ele>77.5</ele><time>2026-04-19T08:49:25.998Z</time></trkpt><trkpt lat="43.73188784607749" lon="11.22409914867517"><ele>78.25</ele><time>2026-04-19T08:49:26.998Z</time></trkpt><trkpt lat="43.73197526146116" lon="11.224207553069487"><ele>79.0</ele><time>2026-04-19T08:49:27.998Z</time></trkpt><trkpt lat="43.732058842091604" lon="11.224319815917186"><ele>75.75</ele><time>2026-04-19T08:49:28.998Z</time></trkpt><trkpt lat="43.732143583341795" lon="11.22443049986973"><ele>72.5</ele><time>2026-04-19T08:49:29.998Z</time></trkpt><trkpt lat="43.732230132021684" lon="11.224539906209445"><ele>69.25</ele><time>2026-04-19T08:49:30.998Z</time></trkpt><trkpt lat="43.73231589197462" lon="11.224647268806304"><ele>66.0</ele><time>2026-04-19T08:49:31.998Z</time></trkpt><trkpt lat="43.732408116342924" lon="11.224761486302222"><ele>66.5</ele><time>2026-04-19T08:49:32.998Z</time></trkpt><trkpt lat="43.73250907944541" lon="11.224870066519351"><ele>67.0</ele><time>2026-04-19T08:49:33.998Z</time></trkpt><trkpt lat="43.73262227021503" lon="11.224967664459392"><ele>67.5</ele><time>2026-04-19T08:49:34.998Z</time></trkpt><trkpt lat="43.732743511529925" lon="11.225046809379696"><ele>68.0</ele><time>2026-04-19T08:49:35.998Z</time></trkpt><trkpt lat="43.73286964831017" lon="11.225106337467968"><ele>66.0</ele><time>2026-04-19T08:49:36.998Z</time></trkpt><trkpt lat="43.73300285895349" lon="11.225145659526444"><ele>64.0</ele><time>2026-04-19T08:49:37.998Z</time></trkpt><trkpt lat="43.73313738354011" lon="11.225159755873463"><ele>62.0</ele><time>2026-04-19T08:49:38.998Z</time></trkpt><trkpt lat="43.7332696382713" lon="11.225152705997107"><ele>60.0</ele><time>2026-04-19T08:49:39.998Z</time></trkpt><trkpt lat="43.73339342634144" lon="11.2251317803405"><ele>60.0</ele><time>2026-04-19T08:49:40.998Z</time></trkpt><trkpt lat="43.73351092722161" lon="11.225100875622589"><ele>60.0</ele><time>2026-04-19T08:49:41.998Z</time></trkpt><trkpt lat="43.73362488050145" lon="11.22506857639133"><ele>60.0</ele><time>2026-04-19T08:49:42.998Z</time></trkpt><trkpt lat="43.73373137405323" lon="11.225027279400766"><ele>60.0</ele><time>2026-04-19T08:49:43.998Z</time></trkpt><trkpt lat="43.73383177760323" lon="11.224984985332137"><ele>59.8</ele><time>2026-04-19T08:49:44.998Z</time></trkpt><trkpt lat="43.73393550321904" lon="11.224942749264455"><ele>59.6</ele><time>2026-04-19T08:49:45.998Z</time></trkpt><trkpt lat="43.73403837103977" lon="11.224894961507449"><ele>59.400000000000006</ele><time>2026-04-19T08:49:46.998Z</time></trkpt><trkpt lat="43.73414101167568" lon="11.22485077085625"><ele>59.2</ele><time>2026-04-19T08:49:47.998Z</time></trkpt><trkpt lat="43.73424444850992" lon="11.22481237622644"><ele>59.0</ele><time>2026-04-19T08:49:48.998Z</time></trkpt><trkpt lat="43.73434701929688" lon="11.22477951045443"><ele>58.800000000000004</ele><time>2026-04-19T08:49:49.998Z</time></trkpt><trkpt lat="43.73444726949285" lon="11.224748517684466"><ele>58.60000000000001</ele><time>2026-04-19T08:49:50.998Z</time></trkpt><trkpt lat="43.734545654380675" lon="11.224730934986717"><ele>58.4</ele><time>2026-04-19T08:49:51.998Z</time></trkpt><trkpt lat="43.73464513977667" lon="11.224732812502097"><ele>58.2</ele><time>2026-04-19T08:49:52.998Z</time></trkpt><trkpt lat="43.73474617665394" lon="11.224737777502712"><ele>58.0</ele><time>2026-04-19T08:49:53.998Z</time></trkpt><trkpt lat="43.734846208999606" lon="11.224737415990711"><ele>57.99999999999999</ele><time>2026-04-19T08:49:54.998Z</time></trkpt><trkpt lat="43.734938054173234" lon="11.224738429207607"><ele>58.0</ele><time>2026-04-19T08:49:55.997Z</time></trkpt><trkpt lat="43.73502230888217" lon="11.224737099203148"><ele>58.0</ele><time>2026-04-19T08:49:56.997Z</time></trkpt><trkpt lat="43.73509947034851" lon="11.224737729816345"><ele>58.0</ele><time>2026-04-19T08:49:57.997Z</time></trkpt><trkpt lat="43.73516623963382" lon="11.224736693473329"><ele>57.99999999999999</ele><time>2026-04-19T08:49:58.997Z</time></trkpt><trkpt lat="43.73528065888035" lon="11.22473644230561"><ele>58.0</ele><time>2026-04-19T08:50:00.997Z</time></trkpt><trkpt lat="43.735382578352414" lon="11.224733518542203"><ele>58.4</ele><time>2026-04-19T08:50:02.997Z</time></trkpt><trkpt lat="43.73548154792108" lon="11.22471783403385"><ele>58.8</ele><time>2026-04-19T08:50:05Z</time></trkpt><trkpt lat="43.735584773440245" lon="11.224715233311722"><ele>59.2</ele><time>2026-04-19T08:50:07Z</time></trkpt><trkpt lat="43.735702575598026" lon="11.224710039273525"><ele>59.6</ele><time>2026-04-19T08:50:09Z</time></trkpt><trkpt lat="43.735769046422845" lon="11.224707899921977"><ele>60.0</ele><time>2026-04-19T08:50:10Z</time></trkpt><trkpt lat="43.735841895926654" lon="11.224706994258469"><ele>60.0</ele><time>2026-04-19T08:50:11Z</time></trkpt><trkpt lat="43.735915788909345" lon="11.224708252837583"><ele>60.0</ele><time>2026-04-19T08:50:12Z</time></trkpt><trkpt lat="43.735980354066776" lon="11.224711487894117"><ele>60.0</ele><time>2026-04-19T08:50:13Z</time></trkpt><trkpt lat="43.73607334051123" lon="11.224719135930796"><ele>60.0</ele><time>2026-04-19T08:50:15Z</time></trkpt><trkpt lat="43.736131712998535" lon="11.224751932115213"><ele>60.0</ele><time>2026-04-19T08:51:18.998Z</time></trkpt><trkpt lat="43.736216934974664" lon="11.22475012784162"><ele>60.0</ele><time>2026-04-19T08:51:21.998Z</time></trkpt><trkpt lat="43.73629308149312" lon="11.224755163505854"><ele>60.0</ele><time>2026-04-19T08:51:23.998Z</time></trkpt><trkpt lat="43.736390858359165" lon="11.224752597537536"><ele>60.0</ele><time>2026-04-19T08:51:25.998Z</time></trkpt><trkpt lat="43.73648628945747" lon="11.22476674699266"><ele>60.0</ele><time>2026-04-19T08:51:27.998Z</time></trkpt><trkpt lat="43.73653922741562" lon="11.224859446354273"><ele>60.0</ele><time>2026-04-19T08:51:29.998Z</time></trkpt><trkpt lat="43.73653561730311" lon="11.224990159339164"><ele>60.0</ele><time>2026-04-19T08:51:31.998Z</time></trkpt><trkpt lat="43.73653514698924" lon="11.225135914087495"><ele>60.0</ele><time>2026-04-19T08:51:33.998Z</time></trkpt><trkpt lat="43.73653419133263" lon="11.225301639393262"><ele>60.0</ele><time>2026-04-19T08:51:35.998Z</time></trkpt><trkpt lat="43.736532625867014" lon="11.225391909491023"><ele>60.0</ele><time>2026-04-19T08:51:36.998Z</time></trkpt><trkpt lat="43.73653232448821" lon="11.22548468097327"><ele>60.0</ele><time>2026-04-19T08:51:37.998Z</time></trkpt><trkpt lat="43.73653339760943" lon="11.225579026934229"><ele>60.0</ele><time>2026-04-19T08:51:38.998Z</time></trkpt><trkpt lat="43.73653436199476" lon="11.225678177625161"><ele>60.0</ele><time>2026-04-19T08:51:39.998Z</time></trkpt><trkpt lat="43.73653468408861" lon="11.22577456728228"><ele>60.0</ele><time>2026-04-19T08:51:40.998Z</time></trkpt><trkpt lat="43.73653554160684" lon="11.225868784841595"><ele>60.0</ele><time>2026-04-19T08:51:41.998Z</time></trkpt><trkpt lat="43.73654269572006" lon="11.225972190414243"><ele>60.0</ele><time>2026-04-19T08:51:42.998Z</time></trkpt><trkpt lat="43.73655617097462" lon="11.22608335421755"><ele>60.0</ele><time>2026-04-19T08:51:43.998Z</time></trkpt><trkpt lat="43.73657567332522" lon="11.226184917724398"><ele>60.0</ele><time>2026-04-19T08:51:44.998Z</time></trkpt><trkpt lat="43.73659704248042" lon="11.226285653212493"><ele>60.0</ele><time>2026-04-19T08:51:45.998Z</time></trkpt><trkpt lat="43.736617770936334" lon="11.226389527686836"><ele>59.833333333333336</ele><time>2026-04-19T08:51:46.998Z</time></trkpt><trkpt lat="43.736639470786024" lon="11.226482526971958"><ele>59.66666666666667</ele><time>2026-04-19T08:51:47.998Z</time></trkpt><trkpt lat="43.73666048852308" lon="11.22656768179584"><ele>59.5</ele><time>2026-04-19T08:51:48.998Z</time></trkpt><trkpt lat="43.73669476972734" lon="11.22672048192882"><ele>59.333333333333336</ele><time>2026-04-19T08:51:50.998Z</time></trkpt><trkpt lat="43.73672494068611" lon="11.226877745177593"><ele>59.16666666666667</ele><time>2026-04-19T08:51:52.998Z</time></trkpt><trkpt lat="43.736744035127515" lon="11.226968676712533"><ele>59.0</ele><time>2026-04-19T08:51:53.998Z</time></trkpt><trkpt lat="43.73676533001885" lon="11.227070425842674"><ele>59.00000000000001</ele><time>2026-04-19T08:51:54.998Z</time></trkpt><trkpt lat="43.73678551209315" lon="11.22717952844278"><ele>59.0</ele><time>2026-04-19T08:51:55.998Z</time></trkpt><trkpt lat="43.736808137118736" lon="11.227288940214896"><ele>59.0</ele><time>2026-04-19T08:51:56.998Z</time></trkpt><trkpt lat="43.73683165255704" lon="11.227398778079642"><ele>59.0</ele><time>2026-04-19T08:51:57.998Z</time></trkpt><trkpt lat="43.73685435666616" lon="11.22751276756563"><ele>59.00000000000001</ele><time>2026-04-19T08:51:58.998Z</time></trkpt><trkpt lat="43.73687812330342" lon="11.227629041654875"><ele>59.0</ele><time>2026-04-19T08:51:59.998Z</time></trkpt><trkpt lat="43.73690444499658" lon="11.227752386396324"><ele>59.2</ele><time>2026-04-19T08:52:00.998Z</time></trkpt><trkpt lat="43.736929500313565" lon="11.227876498752702"><ele>59.400000000000006</ele><time>2026-04-19T08:52:01.998Z</time></trkpt><trkpt lat="43.73695216503932" lon="11.227999143802199"><ele>59.6</ele><time>2026-04-19T08:52:02.998Z</time></trkpt><trkpt lat="43.73697453164869" lon="11.22812207382637"><ele>59.8</ele><time>2026-04-19T08:52:03.998Z</time></trkpt><trkpt lat="43.73700243147616" lon="11.228244505955631"><ele>60.0</ele><time>2026-04-19T08:52:04.997Z</time></trkpt><trkpt lat="43.73703431556659" lon="11.228371393997751"><ele>60.0</ele><time>2026-04-19T08:52:05.997Z</time></trkpt><trkpt lat="43.73706165182676" lon="11.228502241051048"><ele>60.0</ele><time>2026-04-19T08:52:06.997Z</time></trkpt><trkpt lat="43.737088330393306" lon="11.228632267291186"><ele>60.0</ele><time>2026-04-19T08:52:07.997Z</time></trkpt><trkpt lat="43.73711394166227" lon="11.228762896648954"><ele>60.0</ele><time>2026-04-19T08:52:08.997Z</time></trkpt><trkpt lat="43.73714231080949" lon="11.228889415560689"><ele>60.0</ele><time>2026-04-19T08:52:09.997Z</time></trkpt><trkpt lat="43.73716805137096" lon="11.229016107735804"><ele>60.0</ele><time>2026-04-19T08:52:11Z</time></trkpt><trkpt lat="43.73719424864759" lon="11.229143600611636"><ele>60.0</ele><time>2026-04-19T08:52:12Z</time></trkpt><trkpt lat="43.73722128715077" lon="11.229267578172964"><ele>60.0</ele><time>2026-04-19T08:52:13Z</time></trkpt><trkpt lat="43.73724766706144" lon="11.229391947032079"><ele>60.0</ele><time>2026-04-19T08:52:14Z</time></trkpt><trkpt lat="43.73727073746828" lon="11.22951429726703"><ele>60.0</ele><time>2026-04-19T08:52:15Z</time></trkpt><trkpt lat="43.73729691682602" lon="11.229634376314573"><ele>60.0</ele><time>2026-04-19T08:52:16Z</time></trkpt><trkpt lat="43.73732275122925" lon="11.229759731388897"><ele>60.0</ele><time>2026-04-19T08:52:17Z</time></trkpt><trkpt lat="43.73735155011966" lon="11.229891682492841"><ele>60.0</ele><time>2026-04-19T08:52:18Z</time></trkpt><trkpt lat="43.73737862590881" lon="11.230025482666036"><ele>60.0</ele><time>2026-04-19T08:52:19Z</time></trkpt><trkpt lat="43.737410447729296" lon="11.230163926839877"><ele>60.0</ele><time>2026-04-19T08:52:20Z</time></trkpt><trkpt lat="43.73744222078935" lon="11.230305093063075"><ele>60.0</ele><time>2026-04-19T08:52:21Z</time></trkpt><trkpt lat="43.73746891132286" lon="11.230451332826966"><ele>60.0</ele><time>2026-04-19T08:52:22Z</time></trkpt><trkpt lat="43.73749857028638" lon="11.230599344033509"><ele>60.0</ele><time>2026-04-19T08:52:23Z</time></trkpt><trkpt lat="43.737530342805805" lon="11.230748012563515"><ele>60.0</ele><time>2026-04-19T08:52:24Z</time></trkpt><trkpt lat="43.73756227736074" lon="11.230900262997164"><ele>60.0</ele><time>2026-04-19T08:52:25Z</time></trkpt><trkpt lat="43.73759184128663" lon="11.231047248204197"><ele>60.2</ele><time>2026-04-19T08:52:26Z</time></trkpt><trkpt lat="43.737618689850734" lon="11.231195704053375"><ele>60.4</ele><time>2026-04-19T08:52:27Z</time></trkpt><trkpt lat="43.737647744362185" lon="11.231344975469407"><ele>60.599999999999994</ele><time>2026-04-19T08:52:28Z</time></trkpt><trkpt lat="43.73768221450659" lon="11.231494610819777"><ele>60.8</ele><time>2026-04-19T08:52:29Z</time></trkpt><trkpt lat="43.737712236188266" lon="11.231643072620567"><ele>61.0</ele><time>2026-04-19T08:52:30Z</time></trkpt><trkpt lat="43.737746318601125" lon="11.231791164604834"><ele>61.0</ele><time>2026-04-19T08:52:31Z</time></trkpt><trkpt lat="43.73777782049821" lon="11.231945011282312"><ele>61.0</ele><time>2026-04-19T08:52:32Z</time></trkpt><trkpt lat="43.737810330579414" lon="11.232096344292849"><ele>61.0</ele><time>2026-04-19T08:52:33Z</time></trkpt><trkpt lat="43.73783919837123" lon="11.232243934846789"><ele>61.0</ele><time>2026-04-19T08:52:34Z</time></trkpt><trkpt lat="43.73786773873106" lon="11.232390485017465"><ele>61.0</ele><time>2026-04-19T08:52:35Z</time></trkpt><trkpt lat="43.7378994346653" lon="11.23253475397993"><ele>60.99999999999999</ele><time>2026-04-19T08:52:36Z</time></trkpt><trkpt lat="43.73792845176437" lon="11.23267189673998"><ele>60.99999999999999</ele><time>2026-04-19T08:52:37Z</time></trkpt><trkpt lat="43.73795541946998" lon="11.232804080078775"><ele>61.0</ele><time>2026-04-19T08:52:37.999Z</time></trkpt><trkpt lat="43.737978840476615" lon="11.232941809133266"><ele>61.0</ele><time>2026-04-19T08:52:38.999Z</time></trkpt><trkpt lat="43.73800723090331" lon="11.233083489025308"><ele>61.0</ele><time>2026-04-19T08:52:39.999Z</time></trkpt><trkpt lat="43.738038571103" lon="11.233230112007378"><ele>60.99999999999999</ele><time>2026-04-19T08:52:40.999Z</time></trkpt><trkpt lat="43.73807170253944" lon="11.233376999446515"><ele>60.99999999999999</ele><time>2026-04-19T08:52:41.999Z</time></trkpt><trkpt lat="43.73809964732843" lon="11.23352146195843"><ele>61.0</ele><time>2026-04-19T08:52:42.999Z</time></trkpt><trkpt lat="43.73812589189177" lon="11.233655575172909"><ele>61.0</ele><time>2026-04-19T08:52:43.999Z</time></trkpt><trkpt lat="43.738151543001884" lon="11.233785428889446"><ele>61.0</ele><time>2026-04-19T08:52:44.999Z</time></trkpt><trkpt lat="43.73817807263993" lon="11.233908491368423"><ele>60.99999999999999</ele><time>2026-04-19T08:52:45.999Z</time></trkpt><trkpt lat="43.73819915180452" lon="11.234042059602114"><ele>60.99999999999999</ele><time>2026-04-19T08:52:46.999Z</time></trkpt><trkpt lat="43.73822165423783" lon="11.234168489133259"><ele>61.0</ele><time>2026-04-19T08:52:47.999Z</time></trkpt><trkpt lat="43.7382487491638" lon="11.234300894953934"><ele>61.0</ele><time>2026-04-19T08:52:48.999Z</time></trkpt><trkpt lat="43.738282001966546" lon="11.234436050019177"><ele>61.0</ele><time>2026-04-19T08:52:49.999Z</time></trkpt><trkpt lat="43.73831394185752" lon="11.23458138490534"><ele>60.99999999999999</ele><time>2026-04-19T08:52:50.999Z</time></trkpt><trkpt lat="43.738345666472874" lon="11.234726307707097"><ele>60.99999999999999</ele><time>2026-04-19T08:52:51.999Z</time></trkpt><trkpt lat="43.738375415130136" lon="11.2348715247951"><ele>61.0</ele><time>2026-04-19T08:52:52.999Z</time></trkpt><trkpt lat="43.73840497596271" lon="11.235019192016942"><ele>61.0</ele><time>2026-04-19T08:52:53.999Z</time></trkpt><trkpt lat="43.73843465043206" lon="11.235158964546995"><ele>60.99999999999999</ele><time>2026-04-19T08:52:54.999Z</time></trkpt><trkpt lat="43.73846169146259" lon="11.235287227828673"><ele>61.0</ele><time>2026-04-19T08:52:55.999Z</time></trkpt><trkpt lat="43.73848758242688" lon="11.235403903871399"><ele>61.0</ele><time>2026-04-19T08:52:56.999Z</time></trkpt><trkpt lat="43.738511055192994" lon="11.235520076435398"><ele>61.0</ele><time>2026-04-19T08:52:57.999Z</time></trkpt><trkpt lat="43.738533635382126" lon="11.235630617938801"><ele>60.99999999999999</ele><time>2026-04-19T08:52:58.999Z</time></trkpt><trkpt lat="43.73855626925288" lon="11.235741786282505"><ele>61.0</ele><time>2026-04-19T08:52:59.999Z</time></trkpt><trkpt lat="43.738580061478494" lon="11.235852653712469"><ele>61.166666666666664</ele><time>2026-04-19T08:53:00.999Z</time></trkpt><trkpt lat="43.7386028708562" lon="11.235963365164032"><ele>61.33333333333333</ele><time>2026-04-19T08:53:01.999Z</time></trkpt><trkpt lat="43.73862500983667" lon="11.2360741881843"><ele>61.5</ele><time>2026-04-19T08:53:02.999Z</time></trkpt><trkpt lat="43.738649133666144" lon="11.236189249640596"><ele>61.66666666666667</ele><time>2026-04-19T08:53:03.999Z</time></trkpt><trkpt lat="43.73867417227547" lon="11.2363064502786"><ele>61.833333333333336</ele><time>2026-04-19T08:53:04.999Z</time></trkpt><trkpt lat="43.73869886960149" lon="11.236426418474027"><ele>62.0</ele><time>2026-04-19T08:53:05.999Z</time></trkpt><trkpt lat="43.73872413967635" lon="11.236546752426925"><ele>62.2</ele><time>2026-04-19T08:53:06.999Z</time></trkpt><trkpt lat="43.73875227392914" lon="11.236667941318126"><ele>62.400000000000006</ele><time>2026-04-19T08:53:07.999Z</time></trkpt><trkpt lat="43.73877856694311" lon="11.236790884866123"><ele>62.599999999999994</ele><time>2026-04-19T08:53:08.999Z</time></trkpt><trkpt lat="43.73880056023807" lon="11.236915332771087"><ele>62.8</ele><time>2026-04-19T08:53:09.999Z</time></trkpt><trkpt lat="43.73882366521477" lon="11.23703730075624"><ele>63.0</ele><time>2026-04-19T08:53:10.999Z</time></trkpt><trkpt lat="43.73884582017008" lon="11.23715081992306"><ele>63.0</ele><time>2026-04-19T08:53:11.999Z</time></trkpt><trkpt lat="43.73887112820033" lon="11.237258491186537"><ele>63.0</ele><time>2026-04-19T08:53:12.999Z</time></trkpt><trkpt lat="43.73889549618442" lon="11.237373700609616"><ele>63.0</ele><time>2026-04-19T08:53:13.999Z</time></trkpt><trkpt lat="43.738921957791085" lon="11.23749410805164"><ele>63.0</ele><time>2026-04-19T08:53:14.999Z</time></trkpt><trkpt lat="43.73894787022221" lon="11.237620537446865"><ele>63.0</ele><time>2026-04-19T08:53:15.999Z</time></trkpt><trkpt lat="43.7389730075736" lon="11.23775065416376"><ele>63.333333333333336</ele><time>2026-04-19T08:53:16.999Z</time></trkpt><trkpt lat="43.738998361950564" lon="11.237873511482288"><ele>63.66666666666667</ele><time>2026-04-19T08:53:17.999Z</time></trkpt><trkpt lat="43.73901855858987" lon="11.23798201216568"><ele>64.0</ele><time>2026-04-19T08:53:18.999Z</time></trkpt><trkpt lat="43.73903541445601" lon="11.238078797806802"><ele>64.33333333333334</ele><time>2026-04-19T08:53:19.999Z</time></trkpt><trkpt lat="43.739051318160385" lon="11.238167152672629"><ele>64.66666666666667</ele><time>2026-04-19T08:53:20.999Z</time></trkpt><trkpt lat="43.739070354007396" lon="11.238265550391045"><ele>65.0</ele><time>2026-04-19T08:53:21.999Z</time></trkpt><trkpt lat="43.73908483925399" lon="11.238375871205976"><ele>65.16666666666667</ele><time>2026-04-19T08:53:22.999Z</time></trkpt><trkpt lat="43.73911103927276" lon="11.238495011436545"><ele>65.33333333333334</ele><time>2026-04-19T08:53:23.999Z</time></trkpt><trkpt lat="43.73913592841373" lon="11.238624016438285"><ele>65.5</ele><time>2026-04-19T08:53:24.999Z</time></trkpt><trkpt lat="43.73915458045259" lon="11.238749390212925"><ele>65.66666666666667</ele><time>2026-04-19T08:53:25.999Z</time></trkpt><trkpt lat="43.73917586306108" lon="11.238867932740694"><ele>65.83333333333333</ele><time>2026-04-19T08:53:26.999Z</time></trkpt><trkpt lat="43.739192412944846" lon="11.238969402583717"><ele>66.0</ele><time>2026-04-19T08:53:27.999Z</time></trkpt><trkpt lat="43.73920762679925" lon="11.239059585200046"><ele>66.16666666666667</ele><time>2026-04-19T08:53:28.998Z</time></trkpt><trkpt lat="43.73922450647817" lon="11.239155262620736"><ele>66.33333333333333</ele><time>2026-04-19T08:53:29.998Z</time></trkpt><trkpt lat="43.739241925289036" lon="11.239246716412445"><ele>66.5</ele><time>2026-04-19T08:53:30.998Z</time></trkpt><trkpt lat="43.73926117985481" lon="11.239363105419754"><ele>66.66666666666666</ele><time>2026-04-19T08:53:32.998Z</time></trkpt><trkpt lat="43.739273702366674" lon="11.23952330957606"><ele>66.83333333333333</ele><time>2026-04-19T08:53:34.998Z</time></trkpt><trkpt lat="43.73927168386822" lon="11.239633221858478"><ele>67.0</ele><time>2026-04-19T08:53:35.998Z</time></trkpt><trkpt lat="43.73925513491671" lon="11.239755062656794"><ele>66.8</ele><time>2026-04-19T08:53:36.998Z</time></trkpt><trkpt lat="43.739224698975676" lon="11.239889859116868"><ele>66.6</ele><time>2026-04-19T08:53:37.998Z</time></trkpt><trkpt lat="43.73920314334643" lon="11.240037537750187"><ele>66.39999999999999</ele><time>2026-04-19T08:53:38.998Z</time></trkpt><trkpt lat="43.73918535331924" lon="11.24018573455777"><ele>66.2</ele><time>2026-04-19T08:53:39.998Z</time></trkpt><trkpt lat="43.73917387223188" lon="11.240347605215616"><ele>66.0</ele><time>2026-04-19T08:53:40.998Z</time></trkpt><trkpt lat="43.739172216009514" lon="11.240504822095755"><ele>65.6</ele><time>2026-04-19T08:53:41.998Z</time></trkpt><trkpt lat="43.739167331553794" lon="11.240659715063577"><ele>65.19999999999999</ele><time>2026-04-19T08:53:42.998Z</time></trkpt><trkpt lat="43.739167235388564" lon="11.240814259385008"><ele>64.80000000000001</ele><time>2026-04-19T08:53:43.998Z</time></trkpt><trkpt lat="43.73917290486897" lon="11.240969631451845"><ele>64.4</ele><time>2026-04-19T08:53:44.998Z</time></trkpt><trkpt lat="43.73918099664897" lon="11.241123539096284"><ele>64.0</ele><time>2026-04-19T08:53:45.998Z</time></trkpt><trkpt lat="43.7391952910071" lon="11.241277845688689"><ele>64.0</ele><time>2026-04-19T08:53:46.998Z</time></trkpt><trkpt lat="43.739208700225824" lon="11.241432118096592"><ele>64.0</ele><time>2026-04-19T08:53:47.998Z</time></trkpt><trkpt lat="43.73922022917278" lon="11.241583012257568"><ele>64.0</ele><time>2026-04-19T08:53:48.998Z</time></trkpt><trkpt lat="43.73923364316353" lon="11.24174087742646"><ele>64.0</ele><time>2026-04-19T08:53:49.998Z</time></trkpt><trkpt lat="43.739246534199246" lon="11.241897664474719"><ele>64.25</ele><time>2026-04-19T08:53:50.998Z</time></trkpt><trkpt lat="43.739256231812895" lon="11.24205796915258"><ele>64.5</ele><time>2026-04-19T08:53:51.998Z</time></trkpt><trkpt lat="43.739269477400555" lon="11.242219896359416"><ele>64.75</ele><time>2026-04-19T08:53:52.998Z</time></trkpt><trkpt lat="43.73927679886224" lon="11.2423849293319"><ele>65.0</ele><time>2026-04-19T08:53:53.998Z</time></trkpt><trkpt lat="43.73929451040373" lon="11.24254955582255"><ele>65.5</ele><time>2026-04-19T08:53:54.998Z</time></trkpt><trkpt lat="43.739325819733004" lon="11.242710572782885"><ele>66.0</ele><time>2026-04-19T08:53:55.998Z</time></trkpt><trkpt lat="43.73936167015879" lon="11.242877255142554"><ele>66.5</ele><time>2026-04-19T08:53:56.998Z</time></trkpt><trkpt lat="43.739396242534575" lon="11.243050546487497"><ele>67.0</ele><time>2026-04-19T08:53:57.998Z</time></trkpt><trkpt lat="43.73942821227546" lon="11.243216354483613"><ele>69.8</ele><time>2026-04-19T08:53:58.998Z</time></trkpt><trkpt lat="43.73945852351929" lon="11.243362155357037"><ele>72.6</ele><time>2026-04-19T08:53:59.998Z</time></trkpt><trkpt lat="43.73948580698185" lon="11.243488358306102"><ele>75.39999999999999</ele><time>2026-04-19T08:54:00.998Z</time></trkpt><trkpt lat="43.73950751864988" lon="11.243600624050972"><ele>78.2</ele><time>2026-04-19T08:54:01.998Z</time></trkpt><trkpt lat="43.739522457781824" lon="11.243713299051203"><ele>81.0</ele><time>2026-04-19T08:54:02.998Z</time></trkpt><trkpt lat="43.7395086171937" lon="11.243828306496594"><ele>81.0</ele><time>2026-04-19T08:54:03.998Z</time></trkpt><trkpt lat="43.739460974260375" lon="11.243934909159954"><ele>81.0</ele><time>2026-04-19T08:54:04.998Z</time></trkpt><trkpt lat="43.73937948705285" lon="11.244000601055344"><ele>81.0</ele><time>2026-04-19T08:54:05.998Z</time></trkpt><trkpt lat="43.7392788304863" lon="11.244043006127947"><ele>81.0</ele><time>2026-04-19T08:54:06.998Z</time></trkpt><trkpt lat="43.73916688921108" lon="11.244073728188848"><ele>81.0</ele><time>2026-04-19T08:54:07.998Z</time></trkpt><trkpt lat="43.739052137756616" lon="11.244118158249554"><ele>77.6</ele><time>2026-04-19T08:54:08.998Z</time></trkpt><trkpt lat="43.73893522337195" lon="11.244167751841534"><ele>74.19999999999999</ele><time>2026-04-19T08:54:09.998Z</time></trkpt><trkpt lat="43.73882688110874" lon="11.244203100746327"><ele>70.80000000000001</ele><time>2026-04-19T08:54:10.998Z</time></trkpt><trkpt lat="43.73872732363006" lon="11.244244464681852"><ele>67.4</ele><time>2026-04-19T08:54:11.998Z</time></trkpt><trkpt lat="43.7386297346151" lon="11.244292003992038"><ele>64.0</ele><time>2026-04-19T08:54:12.998Z</time></trkpt><trkpt lat="43.73852954956012" lon="11.244330760301127"><ele>63.666666666666664</ele><time>2026-04-19T08:54:13.998Z</time></trkpt><trkpt lat="43.738436406530745" lon="11.244360648899832"><ele>63.33333333333333</ele><time>2026-04-19T08:54:14.998Z</time></trkpt><trkpt lat="43.73835441023505" lon="11.244393434720443"><ele>63.0</ele><time>2026-04-19T08:54:15.998Z</time></trkpt><trkpt lat="43.73828297438953" lon="11.244427404069564"><ele>62.66666666666667</ele><time>2026-04-19T08:54:17Z</time></trkpt><trkpt lat="43.73822238135846" lon="11.244458058452"><ele>62.333333333333336</ele><time>2026-04-19T08:54:18Z</time></trkpt><trkpt lat="43.738127175819635" lon="11.244491963408562"><ele>62.0</ele><time>2026-04-19T08:54:20Z</time></trkpt><trkpt lat="43.738125551572665" lon="11.244738978496379"><ele>62.2</ele><time>2026-04-19T08:54:23Z</time></trkpt><trkpt lat="43.73815790249504" lon="11.244855023694386"><ele>62.400000000000006</ele><time>2026-04-19T08:54:24Z</time></trkpt><trkpt lat="43.738165159438275" lon="11.244983975716226"><ele>62.599999999999994</ele><time>2026-04-19T08:54:25Z</time></trkpt><trkpt lat="43.73817227335031" lon="11.24512173768747"><ele>62.8</ele><time>2026-04-19T08:54:26Z</time></trkpt><trkpt lat="43.73818546308146" lon="11.245253006057093"><ele>63.0</ele><time>2026-04-19T08:54:27Z</time></trkpt><trkpt lat="43.73820156228358" lon="11.24538726830777"><ele>63.0</ele><time>2026-04-19T08:54:28Z</time></trkpt><trkpt lat="43.73822101657314" lon="11.245539715718262"><ele>63.0</ele><time>2026-04-19T08:54:29Z</time></trkpt><trkpt lat="43.73823534573291" lon="11.24570074518947"><ele>63.0</ele><time>2026-04-19T08:54:30Z</time></trkpt><trkpt lat="43.73823948723507" lon="11.24586490914784"><ele>63.0</ele><time>2026-04-19T08:54:31Z</time></trkpt><trkpt lat="43.73824074220981" lon="11.24602920560808"><ele>63.0</ele><time>2026-04-19T08:54:32Z</time></trkpt><trkpt lat="43.738247649926784" lon="11.24618515496395"><ele>63.0</ele><time>2026-04-19T08:54:33Z</time></trkpt><trkpt lat="43.738259526457114" lon="11.246347913420973"><ele>63.0</ele><time>2026-04-19T08:54:34Z</time></trkpt><trkpt lat="43.73827394182466" lon="11.246512822321318"><ele>63.0</ele><time>2026-04-19T08:54:35Z</time></trkpt><trkpt lat="43.738300635688056" lon="11.246676793696734"><ele>63.0</ele><time>2026-04-19T08:54:36Z</time></trkpt><trkpt lat="43.73833968420246" lon="11.246840335592013"><ele>63.0</ele><time>2026-04-19T08:54:37Z</time></trkpt><trkpt lat="43.738398834816735" lon="11.247000584730277"><ele>63.0</ele><time>2026-04-19T08:54:38Z</time></trkpt><trkpt lat="43.7384629028434" lon="11.247164049889557"><ele>63.0</ele><time>2026-04-19T08:54:39Z</time></trkpt><trkpt lat="43.738531437655666" lon="11.247323838219932"><ele>63.25</ele><time>2026-04-19T08:54:40Z</time></trkpt><trkpt lat="43.73860140793097" lon="11.247486197388799"><ele>63.5</ele><time>2026-04-19T08:54:41Z</time></trkpt><trkpt lat="43.7386747642083" lon="11.247647929640152"><ele>63.75</ele><time>2026-04-19T08:54:42Z</time></trkpt><trkpt lat="43.73874233536063" lon="11.247804285147618"><ele>64.0</ele><time>2026-04-19T08:54:43Z</time></trkpt><trkpt lat="43.738805363673144" lon="11.24794897643435"><ele>64.0</ele><time>2026-04-19T08:54:44Z</time></trkpt><trkpt lat="43.73886399996922" lon="11.248088416949821"><ele>64.0</ele><time>2026-04-19T08:54:45Z</time></trkpt><trkpt lat="43.73893268428845" lon="11.24822996272752"><ele>64.0</ele><time>2026-04-19T08:54:46Z</time></trkpt><trkpt lat="43.73901551689365" lon="11.248354684043695"><ele>64.0</ele><time>2026-04-19T08:54:47Z</time></trkpt><trkpt lat="43.73910476649872" lon="11.248476019094031"><ele>64.25</ele><time>2026-04-19T08:54:48Z</time></trkpt><trkpt lat="43.73918990208506" lon="11.248609089937942"><ele>64.5</ele><time>2026-04-19T08:54:49Z</time></trkpt><trkpt lat="43.73926441111941" lon="11.248749934779918"><ele>64.75</ele><time>2026-04-19T08:54:50Z</time></trkpt><trkpt lat="43.73933451164393" lon="11.248898708229898"><ele>65.0</ele><time>2026-04-19T08:54:50.999Z</time></trkpt><trkpt lat="43.73939564285417" lon="11.249043312047158"><ele>66.75</ele><time>2026-04-19T08:54:51.999Z</time></trkpt><trkpt lat="43.73944656011417" lon="11.24919654102487"><ele>68.5</ele><time>2026-04-19T08:54:52.999Z</time></trkpt><trkpt lat="43.7394869222963" lon="11.249354514420164"><ele>70.25</ele><time>2026-04-19T08:54:53.999Z</time></trkpt><trkpt lat="43.73951676817455" lon="11.249508645379679"><ele>72.0</ele><time>2026-04-19T08:54:54.999Z</time></trkpt><trkpt lat="43.73953475981493" lon="11.249658754620304"><ele>71.75</ele><time>2026-04-19T08:54:55.999Z</time></trkpt><trkpt lat="43.73952798940194" lon="11.249815833704837"><ele>71.5</ele><time>2026-04-19T08:54:56.999Z</time></trkpt><trkpt lat="43.739500300670706" lon="11.249974296272194"><ele>71.25</ele><time>2026-04-19T08:54:57.999Z</time></trkpt><trkpt lat="43.73945421781975" lon="11.250130426993072"><ele>71.0</ele><time>2026-04-19T08:54:58.999Z</time></trkpt><trkpt lat="43.73939390958162" lon="11.250283862419836"><ele>69.75</ele><time>2026-04-19T08:54:59.999Z</time></trkpt><trkpt lat="43.73933146107777" lon="11.250441082035717"><ele>68.5</ele><time>2026-04-19T08:55:00.999Z</time></trkpt><trkpt lat="43.73926739233844" lon="11.25060131083656"><ele>67.25</ele><time>2026-04-19T08:55:01.999Z</time></trkpt><trkpt lat="43.73919914021616" lon="11.25075734567597"><ele>66.0</ele><time>2026-04-19T08:55:02.999Z</time></trkpt><trkpt lat="43.739135757977095" lon="11.250913872157138"><ele>66.0</ele><time>2026-04-19T08:55:03.999Z</time></trkpt><trkpt lat="43.73907515625375" lon="11.251070265827257"><ele>66.0</ele><time>2026-04-19T08:55:04.999Z</time></trkpt><trkpt lat="43.73901410805301" lon="11.251218869737306"><ele>66.0</ele><time>2026-04-19T08:55:05.999Z</time></trkpt><trkpt lat="43.73895952723209" lon="11.251356502603958"><ele>66.0</ele><time>2026-04-19T08:55:06.999Z</time></trkpt><trkpt lat="43.738904678951" lon="11.251484439153666"><ele>66.39999999999999</ele><time>2026-04-19T08:55:07.999Z</time></trkpt><trkpt lat="43.7388427134728" lon="11.251608525056369"><ele>66.8</ele><time>2026-04-19T08:55:08.999Z</time></trkpt><trkpt lat="43.738776654446774" lon="11.251728237265112"><ele>67.19999999999999</ele><time>2026-04-19T08:55:09.999Z</time></trkpt><trkpt lat="43.7387094267912" lon="11.251839468656918"><ele>67.6</ele><time>2026-04-19T08:55:10.999Z</time></trkpt><trkpt lat="43.73864247017127" lon="11.25194625080798"><ele>68.0</ele><time>2026-04-19T08:55:11.999Z</time></trkpt><trkpt lat="43.73857724567009" lon="11.252049548185568"><ele>67.6</ele><time>2026-04-19T08:55:12.999Z</time></trkpt><trkpt lat="43.738515147727945" lon="11.25214388010082"><ele>67.19999999999999</ele><time>2026-04-19T08:55:13.999Z</time></trkpt><trkpt lat="43.738446081919484" lon="11.252224073216544"><ele>66.8</ele><time>2026-04-19T08:55:14.999Z</time></trkpt><trkpt lat="43.73836536000875" lon="11.252285952961603"><ele>66.39999999999999</ele><time>2026-04-19T08:55:15.999Z</time></trkpt><trkpt lat="43.73828022338759" lon="11.252338648697911"><ele>66.0</ele><time>2026-04-19T08:55:16.999Z</time></trkpt><trkpt lat="43.738191314350175" lon="11.252390275540817"><ele>65.83333333333333</ele><time>2026-04-19T08:55:17.999Z</time></trkpt><trkpt lat="43.738103989536384" lon="11.252435959345018"><ele>65.66666666666667</ele><time>2026-04-19T08:55:18.999Z</time></trkpt><trkpt lat="43.7380253902642" lon="11.252483669416586"><ele>65.5</ele><time>2026-04-19T08:55:19.999Z</time></trkpt><trkpt lat="43.7379553798199" lon="11.252535927686845"><ele>65.33333333333334</ele><time>2026-04-19T08:55:20.999Z</time></trkpt><trkpt lat="43.737895633626906" lon="11.252591121751038"><ele>65.16666666666667</ele><time>2026-04-19T08:55:21.999Z</time></trkpt><trkpt lat="43.73784530526379" lon="11.252653717862035"><ele>65.0</ele><time>2026-04-19T08:55:22.999Z</time></trkpt><trkpt lat="43.73779150321142" lon="11.25271433682099"><ele>65.6</ele><time>2026-04-19T08:55:23.999Z</time></trkpt><trkpt lat="43.73771732919661" lon="11.252721781445839"><ele>66.2</ele><time>2026-04-19T08:55:24.999Z</time></trkpt><trkpt lat="43.73765937564774" lon="11.252761857505837"><ele>66.8</ele><time>2026-04-19T08:55:25.999Z</time></trkpt><trkpt lat="43.737570933718544" lon="11.25286941128537"><ele>67.4</ele><time>2026-04-19T08:55:27.999Z</time></trkpt><trkpt lat="43.737557341972156" lon="11.253037078689761"><ele>68.0</ele><time>2026-04-19T08:55:29.999Z</time></trkpt><trkpt lat="43.737572892158646" lon="11.253168697795601"><ele>68.0</ele><time>2026-04-19T08:55:31.999Z</time></trkpt><trkpt lat="43.737478726185614" lon="11.253242795792183"><ele>68.0</ele><time>2026-04-19T08:55:32.999Z</time></trkpt><trkpt lat="43.737412083468854" lon="11.253277419158337"><ele>68.0</ele><time>2026-04-19T08:55:33.999Z</time></trkpt><trkpt lat="43.737332586724975" lon="11.253294079286272"><ele>68.0</ele><time>2026-04-19T08:55:34.999Z</time></trkpt><trkpt lat="43.737253185738226" lon="11.253332229271953"><ele>68.0</ele><time>2026-04-19T08:55:35.999Z</time></trkpt><trkpt lat="43.73718302085465" lon="11.253398134462236"><ele>68.0</ele><time>2026-04-19T08:55:36.999Z</time></trkpt><trkpt lat="43.73713545422258" lon="11.253484070095178"><ele>68.0</ele><time>2026-04-19T08:55:37.999Z</time></trkpt><trkpt lat="43.73710682212876" lon="11.253592542655465"><ele>68.0</ele><time>2026-04-19T08:55:38.999Z</time></trkpt><trkpt lat="43.73710080498146" lon="11.253713144493904"><ele>68.0</ele><time>2026-04-19T08:55:39.999Z</time></trkpt><trkpt lat="43.73710219538975" lon="11.25384203997126"><ele>68.0</ele><time>2026-04-19T08:55:40.999Z</time></trkpt><trkpt lat="43.737102395372474" lon="11.25397584514153"><ele>68.0</ele><time>2026-04-19T08:55:41.999Z</time></trkpt><trkpt lat="43.737108159380696" lon="11.25411236644487"><ele>69.0</ele><time>2026-04-19T08:55:42.999Z</time></trkpt><trkpt lat="43.737115035547276" lon="11.254246667976682"><ele>70.0</ele><time>2026-04-19T08:55:43.998Z</time></trkpt><trkpt lat="43.737111616685304" lon="11.25437980630051"><ele>71.0</ele><time>2026-04-19T08:55:44.998Z</time></trkpt><trkpt lat="43.73710714880846" lon="11.25451085201862"><ele>72.0</ele><time>2026-04-19T08:55:45.998Z</time></trkpt><trkpt lat="43.737101978958876" lon="11.254640818114655"><ele>73.0</ele><time>2026-04-19T08:55:46.998Z</time></trkpt><trkpt lat="43.73708170549359" lon="11.254767015598238"><ele>74.2</ele><time>2026-04-19T08:55:47.998Z</time></trkpt><trkpt lat="43.73704881480404" lon="11.254887523603275"><ele>75.4</ele><time>2026-04-19T08:55:48.998Z</time></trkpt><trkpt lat="43.73700934316312" lon="11.255006702753978"><ele>76.60000000000001</ele><time>2026-04-19T08:55:49.998Z</time></trkpt><trkpt lat="43.736964606616525" lon="11.255125129954928"><ele>77.8</ele><time>2026-04-19T08:55:50.998Z</time></trkpt><trkpt lat="43.73691986283395" lon="11.255238862085019"><ele>79.0</ele><time>2026-04-19T08:55:51.998Z</time></trkpt><trkpt lat="43.73688210026225" lon="11.255359139471448"><ele>77.2</ele><time>2026-04-19T08:55:52.998Z</time></trkpt><trkpt lat="43.736858440944275" lon="11.255483235350566"><ele>75.4</ele><time>2026-04-19T08:55:53.998Z</time></trkpt><trkpt lat="43.736845479397324" lon="11.255606449468724"><ele>73.6</ele><time>2026-04-19T08:55:54.998Z</time></trkpt><trkpt lat="43.736838218732835" lon="11.25573088324407"><ele>71.8</ele><time>2026-04-19T08:55:55.998Z</time></trkpt><trkpt lat="43.73683999430406" lon="11.255869452063067"><ele>70.0</ele><time>2026-04-19T08:55:56.998Z</time></trkpt><trkpt lat="43.73685954924882" lon="11.25601003411593"><ele>71.66666666666666</ele><time>2026-04-19T08:55:57.998Z</time></trkpt><trkpt lat="43.736890699813436" lon="11.25614593981207"><ele>73.33333333333333</ele><time>2026-04-19T08:55:58.998Z</time></trkpt><trkpt lat="43.73692784726151" lon="11.256257376710433"><ele>75.0</ele><time>2026-04-19T08:55:59.998Z</time></trkpt><trkpt lat="43.73697401311099" lon="11.256339842704353"><ele>76.66666666666667</ele><time>2026-04-19T08:56:00.998Z</time></trkpt><trkpt lat="43.73702158847379" lon="11.256427596293154"><ele>78.33333333333334</ele><time>2026-04-19T08:56:01.998Z</time></trkpt><trkpt lat="43.737069907143535" lon="11.256520990981564"><ele>80.0</ele><time>2026-04-19T08:56:02.998Z</time></trkpt><trkpt lat="43.73711666834294" lon="11.256617697221003"><ele>80.0</ele><time>2026-04-19T08:56:03.998Z</time></trkpt><trkpt lat="43.737156225838504" lon="11.25672204831281"><ele>80.0</ele><time>2026-04-19T08:56:04.998Z</time></trkpt><trkpt lat="43.73718831496285" lon="11.256832309106168"><ele>80.0</ele><time>2026-04-19T08:56:05.998Z</time></trkpt><trkpt lat="43.73721151883963" lon="11.256950983906448"><ele>80.0</ele><time>2026-04-19T08:56:06.998Z</time></trkpt><trkpt lat="43.73722334075649" lon="11.257073419836807"><ele>80.0</ele><time>2026-04-19T08:56:07.998Z</time></trkpt><trkpt lat="43.737221853534166" lon="11.257192755897767"><ele>80.0</ele><time>2026-04-19T08:56:08.998Z</time></trkpt><trkpt lat="43.73721547627812" lon="11.257308669656245"><ele>80.4</ele><time>2026-04-19T08:56:09.998Z</time></trkpt><trkpt lat="43.73720748149505" lon="11.257426163121597"><ele>80.8</ele><time>2026-04-19T08:56:10.998Z</time></trkpt><trkpt lat="43.73719797261164" lon="11.257547493243754"><ele>81.19999999999999</ele><time>2026-04-19T08:56:11.998Z</time></trkpt><trkpt lat="43.737190728340785" lon="11.257673783411638"><ele>81.6</ele><time>2026-04-19T08:56:12.998Z</time></trkpt><trkpt lat="43.737188989681385" lon="11.25780297448523"><ele>82.0</ele><time>2026-04-19T08:56:13.998Z</time></trkpt><trkpt lat="43.73719958355348" lon="11.257932490913849"><ele>82.0</ele><time>2026-04-19T08:56:14.998Z</time></trkpt><trkpt lat="43.73722009057753" lon="11.258059659359908"><ele>82.0</ele><time>2026-04-19T08:56:15.998Z</time></trkpt><trkpt lat="43.73725056163966" lon="11.25818354590509"><ele>82.0</ele><time>2026-04-19T08:56:16.998Z</time></trkpt><trkpt lat="43.73729329667037" lon="11.258298929976332"><ele>82.0</ele><time>2026-04-19T08:56:17.998Z</time></trkpt><trkpt lat="43.73734801250005" lon="11.258404966574258"><ele>82.0</ele><time>2026-04-19T08:56:18.998Z</time></trkpt><trkpt lat="43.737411465057015" lon="11.258496687111206"><ele>81.39999999999999</ele><time>2026-04-19T08:56:19.998Z</time></trkpt><trkpt lat="43.737478463546175" lon="11.258577740151457"><ele>80.8</ele><time>2026-04-19T08:56:20.998Z</time></trkpt><trkpt lat="43.73754831631362" lon="11.258655050030685"><ele>80.2</ele><time>2026-04-19T08:56:22Z</time></trkpt><trkpt lat="43.737621667243324" lon="11.25873067803212"><ele>79.6</ele><time>2026-04-19T08:56:23Z</time></trkpt><trkpt lat="43.737697090241674" lon="11.258802684038569"><ele>79.0</ele><time>2026-04-19T08:56:24Z</time></trkpt><trkpt lat="43.737775034733694" lon="11.25887348302671"><ele>79.0</ele><time>2026-04-19T08:56:25Z</time></trkpt><trkpt lat="43.737853603963075" lon="11.258945775997292"><ele>79.0</ele><time>2026-04-19T08:56:26Z</time></trkpt><trkpt lat="43.73793157289022" lon="11.259024437933714"><ele>79.0</ele><time>2026-04-19T08:56:27Z</time></trkpt><trkpt lat="43.73800607635191" lon="11.259097484941192"><ele>79.0</ele><time>2026-04-19T08:56:28Z</time></trkpt><trkpt lat="43.73807162259174" lon="11.259159996863321"><ele>79.0</ele><time>2026-04-19T08:56:29Z</time></trkpt><trkpt lat="43.73812892018784" lon="11.259214453616448"><ele>79.0</ele><time>2026-04-19T08:56:30Z</time></trkpt><trkpt lat="43.73822798512135" lon="11.259312891005184"><ele>79.0</ele><time>2026-04-19T08:56:32Z</time></trkpt><trkpt lat="43.738285749089236" lon="11.259375566698424"><ele>79.0</ele><time>2026-04-19T08:56:33Z</time></trkpt><trkpt lat="43.73835117426712" lon="11.259442377525751"><ele>79.0</ele><time>2026-04-19T08:56:34Z</time></trkpt><trkpt lat="43.73842222681134" lon="11.25951261013531"><ele>79.0</ele><time>2026-04-19T08:56:35Z</time></trkpt><trkpt lat="43.73849308446219" lon="11.259591142479728"><ele>79.0</ele><time>2026-04-19T08:56:36Z</time></trkpt><trkpt lat="43.73856594180785" lon="11.259675077534595"><ele>79.0</ele><time>2026-04-19T08:56:37Z</time></trkpt><trkpt lat="43.738639309462066" lon="11.259764774405387"><ele>79.4</ele><time>2026-04-19T08:56:38Z</time></trkpt><trkpt lat="43.73871137435316" lon="11.259859525200937"><ele>79.80000000000001</ele><time>2026-04-19T08:56:39Z</time></trkpt><trkpt lat="43.73878310754162" lon="11.259950647461253"><ele>80.19999999999999</ele><time>2026-04-19T08:56:40Z</time></trkpt><trkpt lat="43.738852681141815" lon="11.260035769010875"><ele>80.6</ele><time>2026-04-19T08:56:41Z</time></trkpt><trkpt lat="43.738929097989484" lon="11.26010989299379"><ele>81.0</ele><time>2026-04-19T08:56:42Z</time></trkpt><trkpt lat="43.7390166519287" lon="11.260161551164972"><ele>81.0</ele><time>2026-04-19T08:56:43Z</time></trkpt><trkpt lat="43.7390991328049" lon="11.26020494374134"><ele>81.0</ele><time>2026-04-19T08:56:44Z</time></trkpt><trkpt lat="43.73917561092322" lon="11.260246874242965"><ele>81.0</ele><time>2026-04-19T08:56:45Z</time></trkpt><trkpt lat="43.73924474643613" lon="11.26030018565579"><ele>81.0</ele><time>2026-04-19T08:56:46Z</time></trkpt><trkpt lat="43.73929298042888" lon="11.26036847222396"><ele>81.0</ele><time>2026-04-19T08:56:47Z</time></trkpt><trkpt lat="43.73932199844463" lon="11.260447383657972"><ele>81.0</ele><time>2026-04-19T08:56:48Z</time></trkpt><trkpt lat="43.739335693604446" lon="11.260546053011282"><ele>80.83333333333333</ele><time>2026-04-19T08:56:49Z</time></trkpt><trkpt lat="43.73933652718219" lon="11.260658483824209"><ele>80.66666666666667</ele><time>2026-04-19T08:56:50Z</time></trkpt><trkpt lat="43.739343608539556" lon="11.260779868019464"><ele>80.5</ele><time>2026-04-19T08:56:51Z</time></trkpt><trkpt lat="43.73935138565158" lon="11.260903802788434"><ele>80.33333333333334</ele><time>2026-04-19T08:56:52Z</time></trkpt><trkpt lat="43.739357771068924" lon="11.261030394010977"><ele>80.16666666666667</ele><time>2026-04-19T08:56:53Z</time></trkpt><trkpt lat="43.73936887838525" lon="11.261160796159233"><ele>80.0</ele><time>2026-04-19T08:56:54Z</time></trkpt><trkpt lat="43.73938132000373" lon="11.261297565990795"><ele>83.0</ele><time>2026-04-19T08:56:55Z</time></trkpt><trkpt lat="43.73938729281645" lon="11.261432300995056"><ele>86.0</ele><time>2026-04-19T08:56:56Z</time></trkpt><trkpt lat="43.739394846118664" lon="11.261562064463032"><ele>89.0</ele><time>2026-04-19T08:56:57Z</time></trkpt><trkpt lat="43.739404068928295" lon="11.261689855175371"><ele>92.0</ele><time>2026-04-19T08:56:58Z</time></trkpt><trkpt lat="43.73941156031424" lon="11.261818106984142"><ele>95.0</ele><time>2026-04-19T08:56:59Z</time></trkpt><trkpt lat="43.739420224499725" lon="11.261948576750013"><ele>94.4</ele><time>2026-04-19T08:57:00Z</time></trkpt><trkpt lat="43.73942800910598" lon="11.262083423029393"><ele>93.8</ele><time>2026-04-19T08:57:01Z</time></trkpt><trkpt lat="43.739437833466084" lon="11.262221489488033"><ele>93.19999999999999</ele><time>2026-04-19T08:57:02Z</time></trkpt><trkpt lat="43.73944761502734" lon="11.26235871287378"><ele>92.6</ele><time>2026-04-19T08:57:03Z</time></trkpt><trkpt lat="43.73944552596705" lon="11.262489499547225"><ele>92.0</ele><time>2026-04-19T08:57:03.999Z</time></trkpt><trkpt lat="43.73945429095183" lon="11.262613365508543"><ele>92.0</ele><time>2026-04-19T08:57:04.999Z</time></trkpt><trkpt lat="43.7394639562453" lon="11.262739007449506"><ele>92.0</ele><time>2026-04-19T08:57:05.999Z</time></trkpt><trkpt lat="43.73947020966513" lon="11.262866606299607"><ele>92.0</ele><time>2026-04-19T08:57:06.999Z</time></trkpt><trkpt lat="43.739483794836055" lon="11.262994186538574"><ele>92.0</ele><time>2026-04-19T08:57:07.999Z</time></trkpt><trkpt lat="43.73950645151779" lon="11.263124323292256"><ele>92.0</ele><time>2026-04-19T08:57:08.999Z</time></trkpt><trkpt lat="43.73953058277088" lon="11.263255846175232"><ele>90.83333333333334</ele><time>2026-04-19T08:57:09.999Z</time></trkpt><trkpt lat="43.73955227239453" lon="11.26338321518872"><ele>89.66666666666667</ele><time>2026-04-19T08:57:10.999Z</time></trkpt><trkpt lat="43.739569851467934" lon="11.263506548873009"><ele>88.5</ele><time>2026-04-19T08:57:11.999Z</time></trkpt><trkpt lat="43.739585032333615" lon="11.263626778914416"><ele>87.33333333333333</ele><time>2026-04-19T08:57:12.999Z</time></trkpt><trkpt lat="43.739597400468206" lon="11.263739128363568"><ele>86.16666666666666</ele><time>2026-04-19T08:57:13.999Z</time></trkpt><trkpt lat="43.739607142901605" lon="11.263852302156177"><ele>85.0</ele><time>2026-04-19T08:57:14.999Z</time></trkpt><trkpt lat="43.73961018408615" lon="11.263964771746888"><ele>83.8</ele><time>2026-04-19T08:57:15.999Z</time></trkpt><trkpt lat="43.73961430885702" lon="11.264082059008315"><ele>82.6</ele><time>2026-04-19T08:57:16.999Z</time></trkpt><trkpt lat="43.73962776401151" lon="11.264205633859758"><ele>81.4</ele><time>2026-04-19T08:57:17.999Z</time></trkpt><trkpt lat="43.739644932642875" lon="11.264335377468834"><ele>80.2</ele><time>2026-04-19T08:57:18.999Z</time></trkpt><trkpt lat="43.73967323398612" lon="11.264470091656442"><ele>79.0</ele><time>2026-04-19T08:57:19.999Z</time></trkpt><trkpt lat="43.739713294232864" lon="11.264600038293194"><ele>79.0</ele><time>2026-04-19T08:57:20.999Z</time></trkpt><trkpt lat="43.739768660137024" lon="11.264714484649385"><ele>79.0</ele><time>2026-04-19T08:57:21.999Z</time></trkpt><trkpt lat="43.73983849364467" lon="11.264799949412454"><ele>79.0</ele><time>2026-04-19T08:57:22.999Z</time></trkpt><trkpt lat="43.73990666175224" lon="11.264872206317458"><ele>79.0</ele><time>2026-04-19T08:57:23.999Z</time></trkpt><trkpt lat="43.73997073572924" lon="11.264936492441382"><ele>79.0</ele><time>2026-04-19T08:57:24.999Z</time></trkpt><trkpt lat="43.74003959547994" lon="11.264989673157338"><ele>79.0</ele><time>2026-04-19T08:57:25.999Z</time></trkpt><trkpt lat="43.74011543648697" lon="11.265034660666823"><ele>78.0</ele><time>2026-04-19T08:57:26.999Z</time></trkpt><trkpt lat="43.74019440844792" lon="11.265070395962235"><ele>77.0</ele><time>2026-04-19T08:57:27.999Z</time></trkpt><trkpt lat="43.74027385679215" lon="11.265101208567414"><ele>76.0</ele><time>2026-04-19T08:57:28.999Z</time></trkpt><trkpt lat="43.74034318257872" lon="11.26513163124783"><ele>75.0</ele><time>2026-04-19T08:57:29.999Z</time></trkpt><trkpt lat="43.74045342168656" lon="11.26520155380915"><ele>74.0</ele><time>2026-04-19T08:57:31.999Z</time></trkpt><trkpt lat="43.74052654826379" lon="11.265340097793175"><ele>75.33333333333334</ele><time>2026-04-19T08:57:33.999Z</time></trkpt><trkpt lat="43.74056041453911" lon="11.265436084156352"><ele>76.66666666666667</ele><time>2026-04-19T08:57:34.999Z</time></trkpt><trkpt lat="43.74059744796095" lon="11.26553720615041"><ele>78.0</ele><time>2026-04-19T08:57:35.999Z</time></trkpt><trkpt lat="43.74063751167165" lon="11.265636167181363"><ele>79.33333333333333</ele><time>2026-04-19T08:57:36.999Z</time></trkpt><trkpt lat="43.740676313292454" lon="11.265742961549783"><ele>80.66666666666666</ele><time>2026-04-19T08:57:37.999Z</time></trkpt><trkpt lat="43.7407181310479" lon="11.265856064371263"><ele>82.0</ele><time>2026-04-19T08:57:38.999Z</time></trkpt><trkpt lat="43.7407566484577" lon="11.265969464008247"><ele>82.0</ele><time>2026-04-19T08:57:39.999Z</time></trkpt><trkpt lat="43.740793307376684" lon="11.26608128564563"><ele>82.0</ele><time>2026-04-19T08:57:40.999Z</time></trkpt><trkpt lat="43.74082795584664" lon="11.266197528973361"><ele>82.0</ele><time>2026-04-19T08:57:41.999Z</time></trkpt><trkpt lat="43.74086064169705" lon="11.266314684045714"><ele>82.0</ele><time>2026-04-19T08:57:42.999Z</time></trkpt><trkpt lat="43.7408927764691" lon="11.266432271194505"><ele>82.0</ele><time>2026-04-19T08:57:43.999Z</time></trkpt><trkpt lat="43.740927346138456" lon="11.266553610941019"><ele>80.8</ele><time>2026-04-19T08:57:44.999Z</time></trkpt><trkpt lat="43.74095707054575" lon="11.266680862310583"><ele>79.6</ele><time>2026-04-19T08:57:45.999Z</time></trkpt><trkpt lat="43.740992550970724" lon="11.266810700087316"><ele>78.39999999999999</ele><time>2026-04-19T08:57:46.999Z</time></trkpt><trkpt lat="43.74102445249233" lon="11.26694289791789"><ele>77.19999999999999</ele><time>2026-04-19T08:57:47.999Z</time></trkpt><trkpt lat="43.741063090250016" lon="11.267073679385087"><ele>76.0</ele><time>2026-04-19T08:57:48.999Z</time></trkpt><trkpt lat="43.74109944866711" lon="11.267201664808898"><ele>77.8</ele><time>2026-04-19T08:57:49.999Z</time></trkpt><trkpt lat="43.741135264649415" lon="11.267326475370682"><ele>79.6</ele><time>2026-04-19T08:57:50.999Z</time></trkpt><trkpt lat="43.74116697272292" lon="11.267453743253254"><ele>81.4</ele><time>2026-04-19T08:57:51.999Z</time></trkpt><trkpt lat="43.74119593550104" lon="11.267577038872473"><ele>83.2</ele><time>2026-04-19T08:57:52.999Z</time></trkpt><trkpt lat="43.74123179417629" lon="11.267700001407524"><ele>85.0</ele><time>2026-04-19T08:57:53.999Z</time></trkpt><trkpt lat="43.74125993734074" lon="11.267824966551329"><ele>85.0</ele><time>2026-04-19T08:57:54.999Z</time></trkpt><trkpt lat="43.74128038684072" lon="11.267946072710318"><ele>85.0</ele><time>2026-04-19T08:57:55.998Z</time></trkpt><trkpt lat="43.741296988226686" lon="11.268063063459495"><ele>85.0</ele><time>2026-04-19T08:57:56.998Z</time></trkpt><trkpt lat="43.7413044998534" lon="11.268167573531901"><ele>85.0</ele><time>2026-04-19T08:57:57.998Z</time></trkpt><trkpt lat="43.741312949998736" lon="11.26826393039389"><ele>85.0</ele><time>2026-04-19T08:57:58.998Z</time></trkpt><trkpt lat="43.74132826098756" lon="11.268357286392078"><ele>85.0</ele><time>2026-04-19T08:57:59.998Z</time></trkpt><trkpt lat="43.74135181163314" lon="11.268455039455214"><ele>84.83333333333333</ele><time>2026-04-19T08:58:00.998Z</time></trkpt><trkpt lat="43.74138287241263" lon="11.268548171250789"><ele>84.66666666666666</ele><time>2026-04-19T08:58:01.998Z</time></trkpt><trkpt lat="43.74142250572738" lon="11.268644661559128"><ele>84.5</ele><time>2026-04-19T08:58:02.998Z</time></trkpt><trkpt lat="43.741466770021326" lon="11.268747125082468"><ele>84.33333333333333</ele><time>2026-04-19T08:58:03.998Z</time></trkpt><trkpt lat="43.741515891906936" lon="11.268856309377032"><ele>84.16666666666667</ele><time>2026-04-19T08:58:04.998Z</time></trkpt><trkpt lat="43.74156681430844" lon="11.268967110219862"><ele>84.0</ele><time>2026-04-19T08:58:05.998Z</time></trkpt><trkpt lat="43.74161717086976" lon="11.26906694514104"><ele>82.83333333333333</ele><time>2026-04-19T08:58:06.998Z</time></trkpt><trkpt lat="43.741665148615226" lon="11.269158007138833"><ele>81.66666666666667</ele><time>2026-04-19T08:58:07.998Z</time></trkpt><trkpt lat="43.74170897843764" lon="11.269244287204566"><ele>80.5</ele><time>2026-04-19T08:58:08.998Z</time></trkpt><trkpt lat="43.741758108297475" lon="11.269335376743184"><ele>79.33333333333334</ele><time>2026-04-19T08:58:09.998Z</time></trkpt><trkpt lat="43.7418078856375" lon="11.269431035245113"><ele>78.16666666666667</ele><time>2026-04-19T08:58:10.998Z</time></trkpt><trkpt lat="43.741860854743166" lon="11.269533958783104"><ele>77.0</ele><time>2026-04-19T08:58:11.998Z</time></trkpt><trkpt lat="43.74190911479827" lon="11.269652598365115"><ele>79.0</ele><time>2026-04-19T08:58:12.998Z</time></trkpt><trkpt lat="43.74194789165642" lon="11.269776496505784"><ele>81.0</ele><time>2026-04-19T08:58:13.998Z</time></trkpt><trkpt lat="43.74197571228163" lon="11.269895669830177"><ele>83.0</ele><time>2026-04-19T08:58:14.998Z</time></trkpt><trkpt lat="43.74199490140908" lon="11.270017364127366"><ele>85.0</ele><time>2026-04-19T08:58:15.998Z</time></trkpt><trkpt lat="43.74200192491237" lon="11.270139133789858"><ele>87.0</ele><time>2026-04-19T08:58:16.998Z</time></trkpt><trkpt lat="43.74199505563705" lon="11.270261000211466"><ele>87.0</ele><time>2026-04-19T08:58:17.998Z</time></trkpt><trkpt lat="43.74197840986722" lon="11.270381549781906"><ele>87.0</ele><time>2026-04-19T08:58:18.998Z</time></trkpt><trkpt lat="43.741950840120325" lon="11.270494122806053"><ele>87.0</ele><time>2026-04-19T08:58:19.998Z</time></trkpt><trkpt lat="43.741923434404654" lon="11.270607079826364"><ele>87.0</ele><time>2026-04-19T08:58:20.998Z</time></trkpt><trkpt lat="43.74190997960713" lon="11.270727941717135"><ele>87.0</ele><time>2026-04-19T08:58:21.998Z</time></trkpt><trkpt lat="43.74192085134209" lon="11.270853033543577"><ele>87.0</ele><time>2026-04-19T08:58:22.998Z</time></trkpt><trkpt lat="43.74195160316444" lon="11.270985429766558"><ele>85.19999999999999</ele><time>2026-04-19T08:58:23.998Z</time></trkpt><trkpt lat="43.741989675934036" lon="11.271115787227297"><ele>83.39999999999999</ele><time>2026-04-19T08:58:24.998Z</time></trkpt><trkpt lat="43.74203126022984" lon="11.27124142677113"><ele>81.6</ele><time>2026-04-19T08:58:25.998Z</time></trkpt><trkpt lat="43.742068786945985" lon="11.271362111379824"><ele>79.8</ele><time>2026-04-19T08:58:26.998Z</time></trkpt><trkpt lat="43.74209672355966" lon="11.271467825483578"><ele>78.0</ele><time>2026-04-19T08:58:28Z</time></trkpt><trkpt lat="43.742118688217886" lon="11.27156271850461"><ele>77.66666666666667</ele><time>2026-04-19T08:58:29Z</time></trkpt><trkpt lat="43.74214005980951" lon="11.271654199899288"><ele>77.33333333333333</ele><time>2026-04-19T08:58:30Z</time></trkpt><trkpt lat="43.74216426223791" lon="11.271751191320295"><ele>77.0</ele><time>2026-04-19T08:58:31Z</time></trkpt><trkpt lat="43.742189274067776" lon="11.271853026352327"><ele>76.66666666666666</ele><time>2026-04-19T08:58:32Z</time></trkpt><trkpt lat="43.742215326118654" lon="11.271960178557048"><ele>76.33333333333333</ele><time>2026-04-19T08:58:33Z</time></trkpt><trkpt lat="43.74224095550644" lon="11.272065829635588"><ele>76.0</ele><time>2026-04-19T08:58:34Z</time></trkpt><trkpt lat="43.742263078208836" lon="11.272161871068498"><ele>76.0</ele><time>2026-04-19T08:58:35Z</time></trkpt><trkpt lat="43.74228229609617" lon="11.272246014996497"><ele>76.0</ele><time>2026-04-19T08:58:36Z</time></trkpt><trkpt lat="43.742300938211194" lon="11.272329641922434"><ele>76.0</ele><time>2026-04-19T08:58:37Z</time></trkpt><trkpt lat="43.742336147887706" lon="11.272475334668464"><ele>76.0</ele><time>2026-04-19T08:58:39Z</time></trkpt><trkpt lat="43.74235704951313" lon="11.272579415013984"><ele>76.0</ele><time>2026-04-19T08:58:41Z</time></trkpt><trkpt lat="43.742364210435454" lon="11.272679932505413"><ele>76.0</ele><time>2026-04-19T08:58:44Z</time></trkpt><trkpt lat="43.74238803997884" lon="11.272761245052648"><ele>75.83333333333333</ele><time>2026-04-19T08:59:04Z</time></trkpt><trkpt lat="43.74243418906266" lon="11.272856908940986"><ele>75.66666666666666</ele><time>2026-04-19T08:59:07Z</time></trkpt><trkpt lat="43.742439907904306" lon="11.272949201084634"><ele>75.5</ele><time>2026-04-19T08:59:09Z</time></trkpt><trkpt lat="43.74246271284803" lon="11.273041489238476"><ele>75.33333333333333</ele><time>2026-04-19T09:00:49Z</time></trkpt><trkpt lat="43.7425114273213" lon="11.273155635881666"><ele>75.16666666666667</ele><time>2026-04-19T09:06:33.998Z</time></trkpt><trkpt lat="43.742544376485" lon="11.273308405986269"><ele>75.0</ele><time>2026-04-19T09:06:35.998Z</time></trkpt><trkpt lat="43.7425670704567" lon="11.273400268821089"><ele>74.66666666666667</ele><time>2026-04-19T09:06:36.998Z</time></trkpt><trkpt lat="43.74259026059371" lon="11.273494738747832"><ele>74.33333333333333</ele><time>2026-04-19T09:06:37.998Z</time></trkpt><trkpt lat="43.74261427123989" lon="11.273599890329695"><ele>74.0</ele><time>2026-04-19T09:06:38.998Z</time></trkpt><trkpt lat="43.74264173190288" lon="11.2737153672706"><ele>73.66666666666666</ele><time>2026-04-19T09:06:39.998Z</time></trkpt><trkpt lat="43.7426681652596" lon="11.273836611260865"><ele>73.33333333333333</ele><time>2026-04-19T09:06:40.998Z</time></trkpt><trkpt lat="43.74269580076583" lon="11.273960392714615"><ele>73.0</ele><time>2026-04-19T09:06:41.998Z</time></trkpt><trkpt lat="43.742726577789234" lon="11.274083422878377"><ele>72.8</ele><time>2026-04-19T09:06:42.998Z</time></trkpt><trkpt lat="43.74276036868785" lon="11.274203100566103"><ele>72.6</ele><time>2026-04-19T09:06:43.998Z</time></trkpt><trkpt lat="43.74279882661064" lon="11.274320764974773"><ele>72.4</ele><time>2026-04-19T09:06:44.998Z</time></trkpt><trkpt lat="43.742840042878115" lon="11.274437754568577"><ele>72.2</ele><time>2026-04-19T09:06:45.998Z</time></trkpt><trkpt lat="43.74288910178838" lon="11.27455170854463"><ele>72.0</ele><time>2026-04-19T09:06:46.998Z</time></trkpt><trkpt lat="43.7429517797387" lon="11.27466120092788"><ele>72.0</ele><time>2026-04-19T09:06:47.998Z</time></trkpt><trkpt lat="43.74302592744648" lon="11.274766888568093"><ele>72.0</ele><time>2026-04-19T09:06:48.998Z</time></trkpt><trkpt lat="43.74310453009036" lon="11.274874194336231"><ele>72.0</ele><time>2026-04-19T09:06:50Z</time></trkpt><trkpt lat="43.74318286015363" lon="11.274995376336978"><ele>72.0</ele><time>2026-04-19T09:06:51Z</time></trkpt><trkpt lat="43.7432656033529" lon="11.275116091173798"><ele>72.25</ele><time>2026-04-19T09:06:52Z</time></trkpt><trkpt lat="43.74334846806644" lon="11.275241070294475"><ele>72.5</ele><time>2026-04-19T09:06:53Z</time></trkpt><trkpt lat="43.74343205423721" lon="11.275383749572995"><ele>72.75</ele><time>2026-04-19T09:06:54Z</time></trkpt><trkpt lat="43.743509578330716" lon="11.275536005684335"><ele>73.0</ele><time>2026-04-19T09:06:55Z</time></trkpt><trkpt lat="43.74358925436183" lon="11.275701127149315"><ele>73.5</ele><time>2026-04-19T09:06:56Z</time></trkpt><trkpt lat="43.74366337140863" lon="11.275863291909898"><ele>74.0</ele><time>2026-04-19T09:06:57Z</time></trkpt><trkpt lat="43.74373981543743" lon="11.276030487184718"><ele>74.5</ele><time>2026-04-19T09:06:58Z</time></trkpt><trkpt lat="43.7438182626067" lon="11.27619311831145"><ele>75.0</ele><time>2026-04-19T09:06:59Z</time></trkpt><trkpt lat="43.74389921981322" lon="11.276357883613978"><ele>74.75</ele><time>2026-04-19T09:07:00Z</time></trkpt><trkpt lat="43.74397822939767" lon="11.27652198672776"><ele>74.5</ele><time>2026-04-19T09:07:01Z</time></trkpt><trkpt lat="43.74405801918427" lon="11.276692155906078"><ele>74.25</ele><time>2026-04-19T09:07:02Z</time></trkpt><trkpt lat="43.744136252558654" lon="11.276858017330504"><ele>74.0</ele><time>2026-04-19T09:07:03Z</time></trkpt><trkpt lat="43.7442144932598" lon="11.2770226422193"><ele>74.0</ele><time>2026-04-19T09:07:04Z</time></trkpt><trkpt lat="43.744293781753555" lon="11.277184937912226"><ele>74.0</ele><time>2026-04-19T09:07:05Z</time></trkpt><trkpt lat="43.744371971615294" lon="11.277347991485252"><ele>74.0</ele><time>2026-04-19T09:07:06Z</time></trkpt><trkpt lat="43.74444534566704" lon="11.277505376850334"><ele>74.0</ele><time>2026-04-19T09:07:07Z</time></trkpt><trkpt lat="43.744522333120635" lon="11.277669237641515"><ele>74.5</ele><time>2026-04-19T09:07:08Z</time></trkpt><trkpt lat="43.74460316923397" lon="11.277828754201103"><ele>75.0</ele><time>2026-04-19T09:07:09Z</time></trkpt><trkpt lat="43.74469378133166" lon="11.277987051687742"><ele>75.5</ele><time>2026-04-19T09:07:10Z</time></trkpt><trkpt lat="43.74478675552665" lon="11.278143299865423"><ele>76.0</ele><time>2026-04-19T09:07:11Z</time></trkpt><trkpt lat="43.744888966082954" lon="11.278292760275333"><ele>76.0</ele><time>2026-04-19T09:07:12Z</time></trkpt><trkpt lat="43.74499332336002" lon="11.27843547407838"><ele>76.0</ele><time>2026-04-19T09:07:13Z</time></trkpt><trkpt lat="43.74509007174842" lon="11.278580298852633"><ele>76.0</ele><time>2026-04-19T09:07:14Z</time></trkpt><trkpt lat="43.745178039696036" lon="11.27873816065911"><ele>76.0</ele><time>2026-04-19T09:07:15Z</time></trkpt><trkpt lat="43.74525629343352" lon="11.27889468304248"><ele>76.39999999999999</ele><time>2026-04-19T09:07:16Z</time></trkpt><trkpt lat="43.74532505426745" lon="11.279039080792307"><ele>76.8</ele><time>2026-04-19T09:07:17Z</time></trkpt><trkpt lat="43.74538566859535" lon="11.279168307310963"><ele>77.19999999999999</ele><time>2026-04-19T09:07:18Z</time></trkpt><trkpt lat="43.74544018950545" lon="11.279287331881697"><ele>77.6</ele><time>2026-04-19T09:07:19Z</time></trkpt><trkpt lat="43.74548995091889" lon="11.279398206625306"><ele>78.0</ele><time>2026-04-19T09:07:20Z</time></trkpt><trkpt lat="43.745533907497204" lon="11.279500012762389"><ele>78.0</ele><time>2026-04-19T09:07:21Z</time></trkpt><trkpt lat="43.74557103580626" lon="11.279592756411056"><ele>78.0</ele><time>2026-04-19T09:07:21.999Z</time></trkpt><trkpt lat="43.745607454498014" lon="11.279676518234691"><ele>78.0</ele><time>2026-04-19T09:07:22.999Z</time></trkpt><trkpt lat="43.745665771651176" lon="11.279802257875922"><ele>78.0</ele><time>2026-04-19T09:07:24.999Z</time></trkpt><trkpt lat="43.74571448865836" lon="11.279904578104313"><ele>78.0</ele><time>2026-04-19T09:07:26.999Z</time></trkpt><trkpt lat="43.745760646311446" lon="11.280001005827847"><ele>78.0</ele><time>2026-04-19T09:07:28.999Z</time></trkpt><trkpt lat="43.74581168918201" lon="11.280107652576216"><ele>78.0</ele><time>2026-04-19T09:07:30.999Z</time></trkpt><trkpt lat="43.745906327933454" lon="11.280164250321935"><ele>78.0</ele><time>2026-04-19T09:07:32.999Z</time></trkpt><trkpt lat="43.745977581090585" lon="11.280149414068653"><ele>78.0</ele><time>2026-04-19T09:07:33.999Z</time></trkpt><trkpt lat="43.74605611644499" lon="11.280123899740572"><ele>78.0</ele><time>2026-04-19T09:07:34.999Z</time></trkpt><trkpt lat="43.74613495642051" lon="11.280102477437644"><ele>78.0</ele><time>2026-04-19T09:07:35.999Z</time></trkpt><trkpt lat="43.74621840959193" lon="11.280077414020425"><ele>78.0</ele><time>2026-04-19T09:07:36.999Z</time></trkpt><trkpt lat="43.74630637204258" lon="11.280052797317975"><ele>78.4</ele><time>2026-04-19T09:07:37.999Z</time></trkpt><trkpt lat="43.746399133844996" lon="11.280049420724659"><ele>78.8</ele><time>2026-04-19T09:07:38.999Z</time></trkpt><trkpt lat="43.74649800527779" lon="11.28006482572368"><ele>79.2</ele><time>2026-04-19T09:07:39.999Z</time></trkpt><trkpt lat="43.746604067946585" lon="11.280087334398926"><ele>79.6</ele><time>2026-04-19T09:07:40.999Z</time></trkpt><trkpt lat="43.74670886810182" lon="11.280078598050839"><ele>80.0</ele><time>2026-04-19T09:07:41.999Z</time></trkpt><trkpt lat="43.74680630686257" lon="11.280087901880911"><ele>81.75</ele><time>2026-04-19T09:07:42.999Z</time></trkpt><trkpt lat="43.74691457532755" lon="11.280107918666406"><ele>83.5</ele><time>2026-04-19T09:07:43.999Z</time></trkpt><trkpt lat="43.74702816315558" lon="11.280106344931498"><ele>85.25</ele><time>2026-04-19T09:07:44.999Z</time></trkpt><trkpt lat="43.74714492795124" lon="11.280095428373453"><ele>87.0</ele><time>2026-04-19T09:07:45.999Z</time></trkpt><trkpt lat="43.74726326030958" lon="11.280076636998519"><ele>87.0</ele><time>2026-04-19T09:07:46.999Z</time></trkpt><trkpt lat="43.74738403964101" lon="11.28004997000602"><ele>87.0</ele><time>2026-04-19T09:07:47.999Z</time></trkpt><trkpt lat="43.747511870042636" lon="11.280021529698637"><ele>87.0</ele><time>2026-04-19T09:07:48.999Z</time></trkpt><trkpt lat="43.74764034704669" lon="11.279994141579182"><ele>87.0</ele><time>2026-04-19T09:07:49.999Z</time></trkpt><trkpt lat="43.7477683910195" lon="11.279965162988994"><ele>88.75</ele><time>2026-04-19T09:07:50.999Z</time></trkpt><trkpt lat="43.74789558585693" lon="11.27994136277747"><ele>90.5</ele><time>2026-04-19T09:07:51.999Z</time></trkpt><trkpt lat="43.74802679502955" lon="11.279938885843665"><ele>92.25</ele><time>2026-04-19T09:07:52.999Z</time></trkpt><trkpt lat="43.74815817152942" lon="11.27996306069587"><ele>94.0</ele><time>2026-04-19T09:07:53.999Z</time></trkpt><trkpt lat="43.748286829451025" lon="11.280001402054449"><ele>94.0</ele><time>2026-04-19T09:07:54.999Z</time></trkpt><trkpt lat="43.74842203106682" lon="11.280044595419886"><ele>94.0</ele><time>2026-04-19T09:07:55.999Z</time></trkpt><trkpt lat="43.748567746897166" lon="11.28006545783399"><ele>94.0</ele><time>2026-04-19T09:07:56.999Z</time></trkpt><trkpt lat="43.74871574165204" lon="11.280071991125013"><ele>94.0</ele><time>2026-04-19T09:07:57.999Z</time></trkpt><trkpt lat="43.74886387735995" lon="11.280070275876653"><ele>95.25</ele><time>2026-04-19T09:07:58.999Z</time></trkpt><trkpt lat="43.74899984733347" lon="11.280077189266876"><ele>96.5</ele><time>2026-04-19T09:07:59.999Z</time></trkpt><trkpt lat="43.749121186757655" lon="11.28008578533563"><ele>97.75</ele><time>2026-04-19T09:08:00.999Z</time></trkpt><trkpt lat="43.74923825314811" lon="11.280074617010037"><ele>99.0</ele><time>2026-04-19T09:08:01.999Z</time></trkpt><trkpt lat="43.74935715653737" lon="11.280066735790495"><ele>98.2</ele><time>2026-04-19T09:08:02.999Z</time></trkpt><trkpt lat="43.74946613912397" lon="11.280082043517686"><ele>97.4</ele><time>2026-04-19T09:08:03.999Z</time></trkpt><trkpt lat="43.749565399853914" lon="11.280122272556724"><ele>96.6</ele><time>2026-04-19T09:08:04.999Z</time></trkpt><trkpt lat="43.74965570418687" lon="11.280194023277062"><ele>95.8</ele><time>2026-04-19T09:08:05.999Z</time></trkpt><trkpt lat="43.74973719016366" lon="11.28026759958612"><ele>95.0</ele><time>2026-04-19T09:08:06.999Z</time></trkpt><trkpt lat="43.74982283926503" lon="11.280310327773572"><ele>95.0</ele><time>2026-04-19T09:08:07.999Z</time></trkpt><trkpt lat="43.74990779704635" lon="11.280315445065655"><ele>95.0</ele><time>2026-04-19T09:08:08.999Z</time></trkpt><trkpt lat="43.74999429905867" lon="11.280287243893657"><ele>95.0</ele><time>2026-04-19T09:08:09.999Z</time></trkpt><trkpt lat="43.75007724908142" lon="11.280212177415365"><ele>95.0</ele><time>2026-04-19T09:08:10.999Z</time></trkpt><trkpt lat="43.75014708999559" lon="11.280114617330472"><ele>95.0</ele><time>2026-04-19T09:08:11.999Z</time></trkpt><trkpt lat="43.750210075257286" lon="11.280023850621527"><ele>95.4</ele><time>2026-04-19T09:08:12.999Z</time></trkpt><trkpt lat="43.750286808943635" lon="11.279970939900025"><ele>95.8</ele><time>2026-04-19T09:08:13.999Z</time></trkpt><trkpt lat="43.750374873878116" lon="11.279927652888391"><ele>96.19999999999999</ele><time>2026-04-19T09:08:14.999Z</time></trkpt><trkpt lat="43.75045887847918" lon="11.279853969246817"><ele>96.6</ele><time>2026-04-19T09:08:15.998Z</time></trkpt><trkpt lat="43.75053080133279" lon="11.279760049803016"><ele>97.0</ele><time>2026-04-19T09:08:16.998Z</time></trkpt><trkpt lat="43.75060333945709" lon="11.279678674734402"><ele>96.00000000000001</ele><time>2026-04-19T09:08:17.998Z</time></trkpt><trkpt lat="43.75067085069841" lon="11.279616800530995"><ele>95.0</ele><time>2026-04-19T09:08:18.998Z</time></trkpt><trkpt lat="43.750749083196276" lon="11.279585863985313"><ele>94.0</ele><time>2026-04-19T09:08:19.998Z</time></trkpt><trkpt lat="43.75084186254269" lon="11.279570714902654"><ele>93.0</ele><time>2026-04-19T09:08:20.998Z</time></trkpt><trkpt lat="43.75093625117682" lon="11.279559968480502"><ele>92.0</ele><time>2026-04-19T09:08:21.998Z</time></trkpt><trkpt lat="43.75103393027276" lon="11.279568626653546"><ele>91.0</ele><time>2026-04-19T09:08:22.998Z</time></trkpt><trkpt lat="43.75113705867943" lon="11.279599399817196"><ele>88.5</ele><time>2026-04-19T09:08:23.998Z</time></trkpt><trkpt lat="43.75124910338602" lon="11.27964147618752"><ele>86.0</ele><time>2026-04-19T09:08:24.998Z</time></trkpt><trkpt lat="43.751362306288556" lon="11.279699010986084"><ele>83.5</ele><time>2026-04-19T09:08:25.998Z</time></trkpt><trkpt lat="43.751473187440425" lon="11.279764427367644"><ele>81.0</ele><time>2026-04-19T09:08:26.998Z</time></trkpt><trkpt lat="43.75158512345191" lon="11.27982545392016"><ele>81.0</ele><time>2026-04-19T09:08:27.998Z</time></trkpt><trkpt lat="43.75169586592045" lon="11.27989057212793"><ele>81.0</ele><time>2026-04-19T09:08:28.998Z</time></trkpt><trkpt lat="43.751804928509486" lon="11.279961126618222"><ele>81.0</ele><time>2026-04-19T09:08:29.998Z</time></trkpt><trkpt lat="43.751911422390805" lon="11.280036217760244"><ele>81.0</ele><time>2026-04-19T09:08:30.998Z</time></trkpt><trkpt lat="43.75200974622932" lon="11.28012112077199"><ele>77.25</ele><time>2026-04-19T09:08:31.998Z</time></trkpt><trkpt lat="43.752101524213664" lon="11.280217860628067"><ele>73.5</ele><time>2026-04-19T09:08:32.998Z</time></trkpt><trkpt lat="43.75219092265701" lon="11.28031714423836"><ele>69.75</ele><time>2026-04-19T09:08:33.998Z</time></trkpt><trkpt lat="43.75227662102373" lon="11.280419591661268"><ele>66.0</ele><time>2026-04-19T09:08:34.998Z</time></trkpt><trkpt lat="43.75235242246934" lon="11.280530997643003"><ele>65.6</ele><time>2026-04-19T09:08:35.998Z</time></trkpt><trkpt lat="43.75241967955539" lon="11.280642900246676"><ele>65.19999999999999</ele><time>2026-04-19T09:08:36.998Z</time></trkpt><trkpt lat="43.75248239221248" lon="11.280747415381024"><ele>64.80000000000001</ele><time>2026-04-19T09:08:37.998Z</time></trkpt><trkpt lat="43.75253943777735" lon="11.280839756356864"><ele>64.4</ele><time>2026-04-19T09:08:38.998Z</time></trkpt><trkpt lat="43.75259182939653" lon="11.280923317689613"><ele>64.0</ele><time>2026-04-19T09:08:39.998Z</time></trkpt><trkpt lat="43.75265934265632" lon="11.281029525111194"><ele>63.99999999999999</ele><time>2026-04-19T09:08:41.998Z</time></trkpt><trkpt lat="43.75269683086523" lon="11.281101259712305"><ele>64.0</ele><time>2026-04-19T09:08:44.998Z</time></trkpt><trkpt lat="43.752662955770894" lon="11.281281944748446"><ele>64.0</ele><time>2026-04-19T09:08:50.998Z</time></trkpt><trkpt lat="43.75262444501986" lon="11.28135930486078"><ele>64.0</ele><time>2026-04-19T09:08:51.998Z</time></trkpt><trkpt lat="43.75258930416577" lon="11.28144913461485"><ele>63.99999999999999</ele><time>2026-04-19T09:08:52.998Z</time></trkpt><trkpt lat="43.75256001955402" lon="11.281543139340695"><ele>64.0</ele><time>2026-04-19T09:08:53.998Z</time></trkpt><trkpt lat="43.752523751613936" lon="11.28164833938185"><ele>64.0</ele><time>2026-04-19T09:08:54.998Z</time></trkpt><trkpt lat="43.75248169358577" lon="11.281757531261036"><ele>64.0</ele><time>2026-04-19T09:08:56Z</time></trkpt><trkpt lat="43.752431443674304" lon="11.281863242889944"><ele>64.0</ele><time>2026-04-19T09:08:57Z</time></trkpt><trkpt lat="43.75237757394218" lon="11.281966321584601"><ele>64.0</ele><time>2026-04-19T09:08:58Z</time></trkpt><trkpt lat="43.752317926211965" lon="11.282074070414282"><ele>64.0</ele><time>2026-04-19T09:08:59Z</time></trkpt><trkpt lat="43.75225384624453" lon="11.282177996489377"><ele>63.400000000000006</ele><time>2026-04-19T09:09:00Z</time></trkpt><trkpt lat="43.75217871213732" lon="11.282272639640317"><ele>62.800000000000004</ele><time>2026-04-19T09:09:01Z</time></trkpt><trkpt lat="43.75209864502538" lon="11.282362267527182"><ele>62.199999999999996</ele><time>2026-04-19T09:09:02Z</time></trkpt><trkpt lat="43.752019252249205" lon="11.282451013063108"><ele>61.599999999999994</ele><time>2026-04-19T09:09:03Z</time></trkpt><trkpt lat="43.75193579972731" lon="11.282520217817325"><ele>61.0</ele><time>2026-04-19T09:09:04Z</time></trkpt><trkpt lat="43.75185326485795" lon="11.282593591556148"><ele>63.8</ele><time>2026-04-19T09:09:05Z</time></trkpt><trkpt lat="43.751782125578345" lon="11.28267422044176"><ele>66.6</ele><time>2026-04-19T09:09:06Z</time></trkpt><trkpt lat="43.7517190556178" lon="11.282760317841104"><ele>69.4</ele><time>2026-04-19T09:09:07Z</time></trkpt><trkpt lat="43.75165683273814" lon="11.282854417319289"><ele>72.2</ele><time>2026-04-19T09:09:08Z</time></trkpt><trkpt lat="43.75159679419383" lon="11.282955104137514"><ele>75.0</ele><time>2026-04-19T09:09:09Z</time></trkpt><trkpt lat="43.751540415390494" lon="11.283064223102832"><ele>74.0</ele><time>2026-04-19T09:09:10Z</time></trkpt><trkpt lat="43.75147545616768" lon="11.283172564566472"><ele>73.0</ele><time>2026-04-19T09:09:11Z</time></trkpt><trkpt lat="43.75140744290676" lon="11.283281112864879"><ele>72.0</ele><time>2026-04-19T09:09:12Z</time></trkpt><trkpt lat="43.7513372677212" lon="11.283398609501969"><ele>71.0</ele><time>2026-04-19T09:09:13Z</time></trkpt><trkpt lat="43.75127142288776" lon="11.283503193392972"><ele>70.0</ele><time>2026-04-19T09:09:14Z</time></trkpt><trkpt lat="43.75121206816519" lon="11.283592448849646"><ele>70.0</ele><time>2026-04-19T09:09:15Z</time></trkpt><trkpt lat="43.75114867719858" lon="11.283667638461312"><ele>70.0</ele><time>2026-04-19T09:09:16Z</time></trkpt><trkpt lat="43.751068410390964" lon="11.283737408588182"><ele>70.0</ele><time>2026-04-19T09:09:17Z</time></trkpt><trkpt lat="43.75097591827618" lon="11.283794402591933"><ele>70.0</ele><time>2026-04-19T09:09:18Z</time></trkpt><trkpt lat="43.75087887664554" lon="11.283859868808072"><ele>70.0</ele><time>2026-04-19T09:09:19Z</time></trkpt><trkpt lat="43.75078347155845" lon="11.283936835642132"><ele>71.8</ele><time>2026-04-19T09:09:20Z</time></trkpt><trkpt lat="43.75069164318548" lon="11.284022906967174"><ele>73.6</ele><time>2026-04-19T09:09:21Z</time></trkpt><trkpt lat="43.75060157970935" lon="11.284110248108021"><ele>75.4</ele><time>2026-04-19T09:09:22Z</time></trkpt><trkpt lat="43.75051151692186" lon="11.284192910866027"><ele>77.2</ele><time>2026-04-19T09:09:23Z</time></trkpt><trkpt lat="43.750421427782776" lon="11.284282163584578"><ele>79.0</ele><time>2026-04-19T09:09:24Z</time></trkpt><trkpt lat="43.75034159538785" lon="11.28437140306005"><ele>79.0</ele><time>2026-04-19T09:09:25Z</time></trkpt><trkpt lat="43.75026610420938" lon="11.284457992972133"><ele>79.0</ele><time>2026-04-19T09:09:26Z</time></trkpt><trkpt lat="43.75020297288889" lon="11.284550309312369"><ele>79.0</ele><time>2026-04-19T09:09:27Z</time></trkpt><trkpt lat="43.750141174352926" lon="11.284630933830744"><ele>79.0</ele><time>2026-04-19T09:09:28Z</time></trkpt><trkpt lat="43.75009321899456" lon="11.284692193852294"><ele>79.0</ele><time>2026-04-19T09:09:29Z</time></trkpt><trkpt lat="43.75002789662764" lon="11.284774564715887"><ele>79.0</ele><time>2026-04-19T09:09:31Z</time></trkpt><trkpt lat="43.749949313687225" lon="11.284879316373605"><ele>80.6</ele><time>2026-04-19T09:09:33.999Z</time></trkpt><trkpt lat="43.74986375870095" lon="11.28500147764892"><ele>82.2</ele><time>2026-04-19T09:09:35.999Z</time></trkpt><trkpt lat="43.74977049430574" lon="11.28509944786593"><ele>83.8</ele><time>2026-04-19T09:09:37.999Z</time></trkpt><trkpt lat="43.74971079730684" lon="11.285127666773425"><ele>85.39999999999999</ele><time>2026-04-19T09:09:38.999Z</time></trkpt><trkpt lat="43.74959367263586" lon="11.285120328701701"><ele>87.0</ele><time>2026-04-19T09:09:40.999Z</time></trkpt><trkpt lat="43.749529581969476" lon="11.28507458440129"><ele>87.0</ele><time>2026-04-19T09:09:41.999Z</time></trkpt><trkpt lat="43.749462135816835" lon="11.285014299293783"><ele>87.0</ele><time>2026-04-19T09:09:42.999Z</time></trkpt><trkpt lat="43.74939254556238" lon="11.284946449328972"><ele>87.0</ele><time>2026-04-19T09:09:43.999Z</time></trkpt><trkpt lat="43.7493306471819" lon="11.284874589039639"><ele>87.0</ele><time>2026-04-19T09:09:44.999Z</time></trkpt><trkpt lat="43.74926017416306" lon="11.284797872494392"><ele>87.0</ele><time>2026-04-19T09:09:45.999Z</time></trkpt><trkpt lat="43.74918351788756" lon="11.284718656193256"><ele>87.0</ele><time>2026-04-19T09:09:46.999Z</time></trkpt><trkpt lat="43.74910082264585" lon="11.284646087989099"><ele>89.19999999999999</ele><time>2026-04-19T09:09:47.999Z</time></trkpt><trkpt lat="43.74901373649648" lon="11.284578387425391"><ele>91.4</ele><time>2026-04-19T09:09:48.999Z</time></trkpt><trkpt lat="43.74892900888661" lon="11.284510187111408"><ele>93.6</ele><time>2026-04-19T09:09:49.999Z</time></trkpt><trkpt lat="43.74884429137335" lon="11.284438200910676"><ele>95.80000000000001</ele><time>2026-04-19T09:09:50.999Z</time></trkpt><trkpt lat="43.74875886406182" lon="11.284367434072783"><ele>98.0</ele><time>2026-04-19T09:09:51.999Z</time></trkpt><trkpt lat="43.74867215293239" lon="11.284297660460885"><ele>98.0</ele><time>2026-04-19T09:09:52.999Z</time></trkpt><trkpt lat="43.748588895928165" lon="11.28423039273225"><ele>98.0</ele><time>2026-04-19T09:09:53.999Z</time></trkpt><trkpt lat="43.74849631491894" lon="11.28416876962188"><ele>98.0</ele><time>2026-04-19T09:09:54.999Z</time></trkpt><trkpt lat="43.74839785949631" lon="11.28411768635096"><ele>98.0</ele><time>2026-04-19T09:09:55.999Z</time></trkpt><trkpt lat="43.7483015728069" lon="11.284061476208759"><ele>98.0</ele><time>2026-04-19T09:09:56.999Z</time></trkpt><trkpt lat="43.748210954493146" lon="11.284007272849943"><ele>98.0</ele><time>2026-04-19T09:09:57.999Z</time></trkpt><trkpt lat="43.74812611635386" lon="11.283956004635995"><ele>98.0</ele><time>2026-04-19T09:09:58.999Z</time></trkpt><trkpt lat="43.748046125074104" lon="11.283903402534587"><ele>98.0</ele><time>2026-04-19T09:09:59.999Z</time></trkpt><trkpt lat="43.74796837328994" lon="11.283846408462416"><ele>98.0</ele><time>2026-04-19T09:10:00.999Z</time></trkpt><trkpt lat="43.74788392052952" lon="11.283796018881011"><ele>98.0</ele><time>2026-04-19T09:10:01.999Z</time></trkpt><trkpt lat="43.747795046315424" lon="11.283753526351548"><ele>96.66666666666666</ele><time>2026-04-19T09:10:02.999Z</time></trkpt><trkpt lat="43.74770457322661" lon="11.283717651393596"><ele>95.33333333333333</ele><time>2026-04-19T09:10:03.999Z</time></trkpt><trkpt lat="43.74761814783462" lon="11.283686028263253"><ele>94.0</ele><time>2026-04-19T09:10:04.999Z</time></trkpt><trkpt lat="43.74753724781512" lon="11.283658394400456"><ele>92.66666666666666</ele><time>2026-04-19T09:10:05.999Z</time></trkpt><trkpt lat="43.747463179377235" lon="11.283639304666844"><ele>91.33333333333333</ele><time>2026-04-19T09:10:06.999Z</time></trkpt><trkpt lat="43.7473979166679" lon="11.283623477834308"><ele>90.0</ele><time>2026-04-19T09:10:07.999Z</time></trkpt><trkpt lat="43.74733562927002" lon="11.283607355388664"><ele>90.0</ele><time>2026-04-19T09:10:08.999Z</time></trkpt><trkpt lat="43.747256514526995" lon="11.28361464030833"><ele>90.0</ele><time>2026-04-19T09:10:10.999Z</time></trkpt><trkpt lat="43.747186960811135" lon="11.28354117880725"><ele>90.0</ele><time>2026-04-19T09:10:20.999Z</time></trkpt><trkpt lat="43.747106400817664" lon="11.283427159476481"><ele>90.0</ele><time>2026-04-19T09:10:22.999Z</time></trkpt><trkpt lat="43.74706354786346" lon="11.283342086575178"><ele>90.0</ele><time>2026-04-19T09:10:23.999Z</time></trkpt><trkpt lat="43.747015498769635" lon="11.283242472805085"><ele>90.0</ele><time>2026-04-19T09:10:24.999Z</time></trkpt><trkpt lat="43.74695971268782" lon="11.283128901024922"><ele>89.8</ele><time>2026-04-19T09:10:25.999Z</time></trkpt><trkpt lat="43.746903405653946" lon="11.28301559853311"><ele>89.6</ele><time>2026-04-19T09:10:26.999Z</time></trkpt><trkpt lat="43.74684392144674" lon="11.282893939364673"><ele>89.4</ele><time>2026-04-19T09:10:27.999Z</time></trkpt><trkpt lat="43.74678184453496" lon="11.282772108574386"><ele>89.2</ele><time>2026-04-19T09:10:28.998Z</time></trkpt><trkpt lat="43.746718594171206" lon="11.282649794738683"><ele>89.0</ele><time>2026-04-19T09:10:29.998Z</time></trkpt><trkpt lat="43.74665562730547" lon="11.282528810471334"><ele>87.4</ele><time>2026-04-19T09:10:30.998Z</time></trkpt><trkpt lat="43.746599982456445" lon="11.282403205285723"><ele>85.80000000000001</ele><time>2026-04-19T09:10:31.998Z</time></trkpt><trkpt lat="43.74655595659894" lon="11.282272379270285"><ele>84.19999999999999</ele><time>2026-04-19T09:10:32.998Z</time></trkpt><trkpt lat="43.74652014389884" lon="11.28214186653257"><ele>82.6</ele><time>2026-04-19T09:10:33.998Z</time></trkpt><trkpt lat="43.74648880866237" lon="11.282027918166722"><ele>81.0</ele><time>2026-04-19T09:10:34.998Z</time></trkpt><trkpt lat="43.74646338699324" lon="11.281933612644277"><ele>81.0</ele><time>2026-04-19T09:10:35.998Z</time></trkpt><trkpt lat="43.746440296956145" lon="11.281847963102061"><ele>81.0</ele><time>2026-04-19T09:10:36.998Z</time></trkpt><trkpt lat="43.74641353457173" lon="11.28170608559282"><ele>81.0</ele><time>2026-04-19T09:10:38.998Z</time></trkpt><trkpt lat="43.746394693831064" lon="11.281597755724246"><ele>81.0</ele><time>2026-04-19T09:10:40.998Z</time></trkpt><trkpt lat="43.746380233566995" lon="11.281511974011497"><ele>81.0</ele><time>2026-04-19T09:10:42.998Z</time></trkpt><trkpt lat="43.74635681686988" lon="11.281369195000364"><ele>81.0</ele><time>2026-04-19T09:10:44.998Z</time></trkpt><trkpt lat="43.74633147939578" lon="11.281276335839625"><ele>81.0</ele><time>2026-04-19T09:10:45.998Z</time></trkpt><trkpt lat="43.746290853941154" lon="11.281181342183924"><ele>81.0</ele><time>2026-04-19T09:10:46.998Z</time></trkpt><trkpt lat="43.74623815550989" lon="11.28108237163918"><ele>81.0</ele><time>2026-04-19T09:10:47.998Z</time></trkpt><trkpt lat="43.74618674702838" lon="11.280981073169214"><ele>81.0</ele><time>2026-04-19T09:10:48.998Z</time></trkpt><trkpt lat="43.74613890518833" lon="11.280872897007479"><ele>81.0</ele><time>2026-04-19T09:10:49.998Z</time></trkpt><trkpt lat="43.746090403115524" lon="11.280764797981083"><ele>81.0</ele><time>2026-04-19T09:10:50.998Z</time></trkpt><trkpt lat="43.74604449850943" lon="11.280659444405941"><ele>80.5</ele><time>2026-04-19T09:10:51.998Z</time></trkpt><trkpt lat="43.74600625065167" lon="11.280558436245903"><ele>80.0</ele><time>2026-04-19T09:10:52.998Z</time></trkpt><trkpt lat="43.74597303653169" lon="11.28047025477654"><ele>79.5</ele><time>2026-04-19T09:10:53.998Z</time></trkpt><trkpt lat="43.74592574618871" lon="11.280326568834608"><ele>79.0</ele><time>2026-04-19T09:10:55.998Z</time></trkpt><trkpt lat="43.745898407751575" lon="11.280232302795554"><ele>78.5</ele><time>2026-04-19T09:10:57.998Z</time></trkpt><trkpt lat="43.74583351330422" lon="11.280113810621733"><ele>78.0</ele><time>2026-04-19T09:11:00.998Z</time></trkpt><trkpt lat="43.74580755255268" lon="11.280009021756705"><ele>78.0</ele><time>2026-04-19T09:11:02Z</time></trkpt><trkpt lat="43.74576475831051" lon="11.279920256405832"><ele>78.0</ele><time>2026-04-19T09:11:03Z</time></trkpt><trkpt lat="43.74570498883528" lon="11.279834380607488"><ele>78.0</ele><time>2026-04-19T09:11:04Z</time></trkpt><trkpt lat="43.74565449146197" lon="11.279728575827292"><ele>78.0</ele><time>2026-04-19T09:11:05Z</time></trkpt><trkpt lat="43.74560406844968" lon="11.27961473834641"><ele>78.0</ele><time>2026-04-19T09:11:06Z</time></trkpt><trkpt lat="43.7455506672571" lon="11.279491136886632"><ele>78.0</ele><time>2026-04-19T09:11:07Z</time></trkpt><trkpt lat="43.74549185597601" lon="11.279368290719475"><ele>78.0</ele><time>2026-04-19T09:11:08Z</time></trkpt><trkpt lat="43.74543898082238" lon="11.279247431554174"><ele>78.0</ele><time>2026-04-19T09:11:09Z</time></trkpt><trkpt lat="43.745374923615444" lon="11.279118026844133"><ele>78.0</ele><time>2026-04-19T09:11:10Z</time></trkpt><trkpt lat="43.745311172036736" lon="11.2789786222838"><ele>78.0</ele><time>2026-04-19T09:11:11Z</time></trkpt><trkpt lat="43.74524280776817" lon="11.27882891126731"><ele>77.5</ele><time>2026-04-19T09:11:12Z</time></trkpt><trkpt lat="43.74518170514793" lon="11.278664249305075"><ele>77.0</ele><time>2026-04-19T09:11:13Z</time></trkpt><trkpt lat="43.745094256276666" lon="11.278515982475502"><ele>76.5</ele><time>2026-04-19T09:11:14Z</time></trkpt><trkpt lat="43.74499226475694" lon="11.27837869281159"><ele>76.0</ele><time>2026-04-19T09:11:15Z</time></trkpt><trkpt lat="43.744881472711796" lon="11.2782571488948"><ele>76.0</ele><time>2026-04-19T09:11:16Z</time></trkpt><trkpt lat="43.74478651418669" lon="11.278117940884663"><ele>76.0</ele><time>2026-04-19T09:11:17Z</time></trkpt><trkpt lat="43.74469952001856" lon="11.277972656122424"><ele>76.0</ele><time>2026-04-19T09:11:18Z</time></trkpt><trkpt lat="43.74461771873265" lon="11.277822534175913"><ele>76.0</ele><time>2026-04-19T09:11:19Z</time></trkpt><trkpt lat="43.74454172536098" lon="11.277664759061587"><ele>76.25</ele><time>2026-04-19T09:11:20Z</time></trkpt><trkpt lat="43.74446245990138" lon="11.27750252357763"><ele>76.5</ele><time>2026-04-19T09:11:21Z</time></trkpt><trkpt lat="43.74438513797215" lon="11.277333991713485"><ele>76.75</ele><time>2026-04-19T09:11:22Z</time></trkpt><trkpt lat="43.74430501751434" lon="11.277168986096186"><ele>77.0</ele><time>2026-04-19T09:11:23Z</time></trkpt><trkpt lat="43.74422633459047" lon="11.277005703201132"><ele>76.5</ele><time>2026-04-19T09:11:24Z</time></trkpt><trkpt lat="43.74414614225885" lon="11.276840137761635"><ele>76.0</ele><time>2026-04-19T09:11:25Z</time></trkpt><trkpt lat="43.744080940932506" lon="11.27666639274189"><ele>75.5</ele><time>2026-04-19T09:11:26Z</time></trkpt><trkpt lat="43.74400394261982" lon="11.276501847772352"><ele>75.0</ele><time>2026-04-19T09:11:27Z</time></trkpt><trkpt lat="43.74392741607312" lon="11.276342158493295"><ele>75.0</ele><time>2026-04-19T09:11:28Z</time></trkpt><trkpt lat="43.74383602889733" lon="11.276191391392263"><ele>75.0</ele><time>2026-04-19T09:11:29Z</time></trkpt><trkpt lat="43.74377269914839" lon="11.276013457805238"><ele>75.0</ele><time>2026-04-19T09:11:30Z</time></trkpt><trkpt lat="43.743693093042744" lon="11.275844914419537"><ele>75.0</ele><time>2026-04-19T09:11:31Z</time></trkpt><trkpt lat="43.743614763546105" lon="11.27568021075627"><ele>74.33333333333333</ele><time>2026-04-19T09:11:32Z</time></trkpt><trkpt lat="43.74353262317833" lon="11.275509003697596"><ele>73.66666666666666</ele><time>2026-04-19T09:11:33Z</time></trkpt><trkpt lat="43.743427995968766" lon="11.275353919771442"><ele>73.0</ele><time>2026-04-19T09:11:34Z</time></trkpt><trkpt lat="43.74334172507605" lon="11.275173213421686"><ele>73.0</ele><time>2026-04-19T09:11:35Z</time></trkpt><trkpt lat="43.74323776161442" lon="11.275004186713254"><ele>73.0</ele><time>2026-04-19T09:11:36Z</time></trkpt><trkpt lat="43.74313265118646" lon="11.274845271495554"><ele>73.0</ele><time>2026-04-19T09:11:37Z</time></trkpt><trkpt lat="43.74302768162095" lon="11.27469212643074"><ele>72.75</ele><time>2026-04-19T09:11:38Z</time></trkpt><trkpt lat="43.74293204561093" lon="11.274542069106106"><ele>72.5</ele><time>2026-04-19T09:11:39Z</time></trkpt><trkpt lat="43.74285100645289" lon="11.274371820149115"><ele>72.25</ele><time>2026-04-19T09:11:40Z</time></trkpt><trkpt lat="43.74278660037871" lon="11.27418486879889"><ele>72.0</ele><time>2026-04-19T09:11:41Z</time></trkpt><trkpt lat="43.742722719670816" lon="11.273986271228349"><ele>72.33333333333333</ele><time>2026-04-19T09:11:42Z</time></trkpt><trkpt lat="43.74267122562192" lon="11.273773581837503"><ele>72.66666666666666</ele><time>2026-04-19T09:11:43Z</time></trkpt><trkpt lat="43.74261973888006" lon="11.27355803023236"><ele>73.0</ele><time>2026-04-19T09:11:44Z</time></trkpt><trkpt lat="43.742573101741485" lon="11.273344196934724"><ele>73.0</ele><time>2026-04-19T09:11:45Z</time></trkpt><trkpt lat="43.742523346738686" lon="11.273138122510098"><ele>73.0</ele><time>2026-04-19T09:11:46Z</time></trkpt><trkpt lat="43.74247463199345" lon="11.272938901700558"><ele>73.0</ele><time>2026-04-19T09:11:47Z</time></trkpt><trkpt lat="43.742428937238785" lon="11.272742173248783"><ele>73.5</ele><time>2026-04-19T09:11:48Z</time></trkpt><trkpt lat="43.742382464445775" lon="11.27255010534336"><ele>74.0</ele><time>2026-04-19T09:11:49Z</time></trkpt><trkpt lat="43.74233681517389" lon="11.272358208687796"><ele>74.5</ele><time>2026-04-19T09:11:50Z</time></trkpt><trkpt lat="43.742290843959694" lon="11.272165629686299"><ele>75.0</ele><time>2026-04-19T09:11:50.999Z</time></trkpt><trkpt lat="43.74225862071058" lon="11.271970363831862"><ele>75.25</ele><time>2026-04-19T09:11:51.999Z</time></trkpt><trkpt lat="43.742215896517585" lon="11.271782447594829"><ele>75.5</ele><time>2026-04-19T09:11:52.999Z</time></trkpt><trkpt lat="43.742171368391126" lon="11.271598408016189"><ele>75.75</ele><time>2026-04-19T09:11:53.999Z</time></trkpt><trkpt lat="43.74212774186724" lon="11.271432506222032"><ele>76.0</ele><time>2026-04-19T09:11:54.999Z</time></trkpt><trkpt lat="43.74208447130994" lon="11.271276671447778"><ele>76.39999999999999</ele><time>2026-04-19T09:11:55.999Z</time></trkpt><trkpt lat="43.742037811552294" lon="11.271132092962391"><ele>76.8</ele><time>2026-04-19T09:11:56.999Z</time></trkpt><trkpt lat="43.74198394735267" lon="11.27100440972141"><ele>77.19999999999999</ele><time>2026-04-19T09:11:57.999Z</time></trkpt><trkpt lat="43.7419521717735" lon="11.270880212792466"><ele>77.6</ele><time>2026-04-19T09:11:58.999Z</time></trkpt><trkpt lat="43.74193371620378" lon="11.270769976612401"><ele>78.0</ele><time>2026-04-19T09:11:59.999Z</time></trkpt><trkpt lat="43.74194369105518" lon="11.270648772741668"><ele>79.8</ele><time>2026-04-19T09:12:00.999Z</time></trkpt><trkpt lat="43.741977494458496" lon="11.270523429774371"><ele>81.6</ele><time>2026-04-19T09:12:01.999Z</time></trkpt><trkpt lat="43.74202365756546" lon="11.270400433013442"><ele>83.39999999999999</ele><time>2026-04-19T09:12:02.999Z</time></trkpt><trkpt lat="43.74204218065375" lon="11.270255038292419"><ele>85.19999999999999</ele><time>2026-04-19T09:12:03.999Z</time></trkpt><trkpt lat="43.742034330121584" lon="11.27007354243684"><ele>87.0</ele><time>2026-04-19T09:12:04.999Z</time></trkpt><trkpt lat="43.742006643250804" lon="11.269886367078911"><ele>83.66666666666667</ele><time>2026-04-19T09:12:05.999Z</time></trkpt><trkpt lat="43.741969022211954" lon="11.269693955757798"><ele>80.33333333333334</ele><time>2026-04-19T09:12:06.999Z</time></trkpt><trkpt lat="43.74187236815961" lon="11.26951182182118"><ele>77.0</ele><time>2026-04-19T09:12:07.999Z</time></trkpt><trkpt lat="43.74177193504481" lon="11.269312781492193"><ele>77.0</ele><time>2026-04-19T09:12:08.999Z</time></trkpt><trkpt lat="43.74168491977251" lon="11.269112505441012"><ele>77.0</ele><time>2026-04-19T09:12:09.999Z</time></trkpt><trkpt lat="43.741596136808155" lon="11.268939562872406"><ele>77.0</ele><time>2026-04-19T09:12:10.999Z</time></trkpt><trkpt lat="43.74151494280391" lon="11.268770290185927"><ele>78.75</ele><time>2026-04-19T09:12:11.999Z</time></trkpt><trkpt lat="43.741443781256926" lon="11.268591659200085"><ele>80.5</ele><time>2026-04-19T09:12:12.999Z</time></trkpt><trkpt lat="43.74138616295937" lon="11.268405969021625"><ele>82.25</ele><time>2026-04-19T09:12:13.999Z</time></trkpt><trkpt lat="43.74134865972543" lon="11.268203298011933"><ele>84.0</ele><time>2026-04-19T09:12:14.999Z</time></trkpt><trkpt lat="43.74130574879329" lon="11.26798860591737"><ele>84.33333333333333</ele><time>2026-04-19T09:12:15.999Z</time></trkpt><trkpt lat="43.74126996288953" lon="11.267780209991976"><ele>84.66666666666666</ele><time>2026-04-19T09:12:16.999Z</time></trkpt><trkpt lat="43.74121206254453" lon="11.267567443843557"><ele>85.0</ele><time>2026-04-19T09:12:17.999Z</time></trkpt><trkpt lat="43.74116894653861" lon="11.267344110164556"><ele>82.0</ele><time>2026-04-19T09:12:18.999Z</time></trkpt><trkpt lat="43.74110035409107" lon="11.26713284895187"><ele>79.0</ele><time>2026-04-19T09:12:19.999Z</time></trkpt><trkpt lat="43.74104476746535" lon="11.266915136060287"><ele>76.0</ele><time>2026-04-19T09:12:20.999Z</time></trkpt><trkpt lat="43.740986704616475" lon="11.2667005416541"><ele>76.0</ele><time>2026-04-19T09:12:21.999Z</time></trkpt><trkpt lat="43.74093033068502" lon="11.266486206869642"><ele>76.0</ele><time>2026-04-19T09:12:22.999Z</time></trkpt><trkpt lat="43.74087505178637" lon="11.266280984346498"><ele>76.0</ele><time>2026-04-19T09:12:23.999Z</time></trkpt><trkpt lat="43.74082498817577" lon="11.266081478615277"><ele>77.5</ele><time>2026-04-19T09:12:24.999Z</time></trkpt><trkpt lat="43.74077498123952" lon="11.265884972845639"><ele>79.0</ele><time>2026-04-19T09:12:25.999Z</time></trkpt><trkpt lat="43.740698013453" lon="11.26571579294559"><ele>80.5</ele><time>2026-04-19T09:12:26.999Z</time></trkpt><trkpt lat="43.74064078694885" lon="11.265559670751722"><ele>82.0</ele><time>2026-04-19T09:12:27.999Z</time></trkpt><trkpt lat="43.74059393954242" lon="11.26542934439083"><ele>82.8</ele><time>2026-04-19T09:12:28.999Z</time></trkpt><trkpt lat="43.74055262189804" lon="11.26532554258105"><ele>83.6</ele><time>2026-04-19T09:12:29.999Z</time></trkpt><trkpt lat="43.74051662225236" lon="11.26524444492621"><ele>84.39999999999999</ele><time>2026-04-19T09:12:30.999Z</time></trkpt><trkpt lat="43.74039599057959" lon="11.26512652825028"><ele>85.19999999999999</ele><time>2026-04-19T09:12:32.999Z</time></trkpt><trkpt lat="43.740295115663976" lon="11.265075039551006"><ele>86.0</ele><time>2026-04-19T09:12:33.999Z</time></trkpt><trkpt lat="43.74018426506643" lon="11.265032604108407"><ele>84.6</ele><time>2026-04-19T09:12:34.999Z</time></trkpt><trkpt lat="43.74008093685903" lon="11.264988680323809"><ele>83.19999999999999</ele><time>2026-04-19T09:12:35.999Z</time></trkpt><trkpt lat="43.739983924508955" lon="11.264925549785989"><ele>81.80000000000001</ele><time>2026-04-19T09:12:36.999Z</time></trkpt><trkpt lat="43.73989198147047" lon="11.264826218130617"><ele>80.4</ele><time>2026-04-19T09:12:37.999Z</time></trkpt><trkpt lat="43.73980540440743" lon="11.264723419801227"><ele>79.0</ele><time>2026-04-19T09:12:38.999Z</time></trkpt><trkpt lat="43.739731611064" lon="11.264604408371397"><ele>79.0</ele><time>2026-04-19T09:12:39.999Z</time></trkpt><trkpt lat="43.73968811290104" lon="11.264456716351194"><ele>79.0</ele><time>2026-04-19T09:12:40.999Z</time></trkpt><trkpt lat="43.73966056787589" lon="11.264296111870992"><ele>79.0</ele><time>2026-04-19T09:12:41.999Z</time></trkpt><trkpt lat="43.73964357274749" lon="11.264119839013583"><ele>79.0</ele><time>2026-04-19T09:12:42.999Z</time></trkpt><trkpt lat="43.7396340923385" lon="11.26393285450258"><ele>80.5</ele><time>2026-04-19T09:12:43.999Z</time></trkpt><trkpt lat="43.73962628300062" lon="11.263749217141763"><ele>82.0</ele><time>2026-04-19T09:12:44.999Z</time></trkpt><trkpt lat="43.73960583414573" lon="11.263563947840465"><ele>83.5</ele><time>2026-04-19T09:12:45.999Z</time></trkpt><trkpt lat="43.73957745834663" lon="11.263386998471482"><ele>85.0</ele><time>2026-04-19T09:12:46.998Z</time></trkpt><trkpt lat="43.73955205301307" lon="11.263229188477554"><ele>86.75</ele><time>2026-04-19T09:12:47.998Z</time></trkpt><trkpt lat="43.73952846155441" lon="11.263085175647687"><ele>88.5</ele><time>2026-04-19T09:12:48.998Z</time></trkpt><trkpt lat="43.73950266302106" lon="11.262938359942595"><ele>90.25</ele><time>2026-04-19T09:12:49.998Z</time></trkpt><trkpt lat="43.739488329603866" lon="11.26277865475153"><ele>92.0</ele><time>2026-04-19T09:12:50.998Z</time></trkpt><trkpt lat="43.73948176822572" lon="11.26260604079058"><ele>92.0</ele><time>2026-04-19T09:12:51.998Z</time></trkpt><trkpt lat="43.73946649620106" lon="11.262417272014737"><ele>92.0</ele><time>2026-04-19T09:12:52.998Z</time></trkpt><trkpt lat="43.73945260618651" lon="11.262220916353552"><ele>92.0</ele><time>2026-04-19T09:12:53.998Z</time></trkpt><trkpt lat="43.73944080659701" lon="11.262031325878437"><ele>92.0</ele><time>2026-04-19T09:12:54.998Z</time></trkpt><trkpt lat="43.73942948546071" lon="11.261850781908588"><ele>92.75</ele><time>2026-04-19T09:12:55.998Z</time></trkpt><trkpt lat="43.73941876917988" lon="11.261678310790742"><ele>93.5</ele><time>2026-04-19T09:12:56.998Z</time></trkpt><trkpt lat="43.73941080746152" lon="11.2615115809135"><ele>94.25</ele><time>2026-04-19T09:12:57.998Z</time></trkpt><trkpt lat="43.739400833380806" lon="11.261342109095823"><ele>95.0</ele><time>2026-04-19T09:12:58.998Z</time></trkpt><trkpt lat="43.73938690266473" lon="11.261164228460498"><ele>92.2</ele><time>2026-04-19T09:12:59.998Z</time></trkpt><trkpt lat="43.739375675996605" lon="11.260988385585406"><ele>89.4</ele><time>2026-04-19T09:13:00.998Z</time></trkpt><trkpt lat="43.73936457647093" lon="11.26083488302616"><ele>86.6</ele><time>2026-04-19T09:13:01.998Z</time></trkpt><trkpt lat="43.73935661317967" lon="11.260694311477776"><ele>83.8</ele><time>2026-04-19T09:13:02.998Z</time></trkpt><trkpt lat="43.73935812188923" lon="11.260574612019182"><ele>81.0</ele><time>2026-04-19T09:13:03.998Z</time></trkpt><trkpt lat="43.73935586430138" lon="11.26046982630246"><ele>81.0</ele><time>2026-04-19T09:13:04.998Z</time></trkpt><trkpt lat="43.73933157269394" lon="11.260379635873718"><ele>81.0</ele><time>2026-04-19T09:13:05.998Z</time></trkpt><trkpt lat="43.739323732572046" lon="11.260287349065253"><ele>81.0</ele><time>2026-04-19T09:13:06.998Z</time></trkpt><trkpt lat="43.73921561646775" lon="11.260239548558578"><ele>81.0</ele><time>2026-04-19T09:13:08Z</time></trkpt><trkpt lat="43.73912578394367" lon="11.260192365990566"><ele>81.0</ele><time>2026-04-19T09:13:09Z</time></trkpt><trkpt lat="43.73902129604173" lon="11.260141760132557"><ele>81.0</ele><time>2026-04-19T09:13:10Z</time></trkpt><trkpt lat="43.738918633005724" lon="11.260071991825948"><ele>81.0</ele><time>2026-04-19T09:13:11Z</time></trkpt><trkpt lat="43.7388228440985" lon="11.259965688015908"><ele>81.0</ele><time>2026-04-19T09:13:12Z</time></trkpt><trkpt lat="43.73873156856129" lon="11.259834260799861"><ele>81.0</ele><time>2026-04-19T09:13:13Z</time></trkpt><trkpt lat="43.7386430847778" lon="11.25970707233302"><ele>80.33333333333333</ele><time>2026-04-19T09:13:14Z</time></trkpt><trkpt lat="43.73853739226988" lon="11.259580003877728"><ele>79.66666666666666</ele><time>2026-04-19T09:13:15Z</time></trkpt><trkpt lat="43.73841350328448" lon="11.259448177040504"><ele>79.0</ele><time>2026-04-19T09:13:16Z</time></trkpt><trkpt lat="43.73828003116198" lon="11.259312982342653"><ele>79.0</ele><time>2026-04-19T09:13:17Z</time></trkpt><trkpt lat="43.73813389543538" lon="11.259171108931099"><ele>79.0</ele><time>2026-04-19T09:13:18Z</time></trkpt><trkpt lat="43.73798655341015" lon="11.259027616652547"><ele>79.0</ele><time>2026-04-19T09:13:19Z</time></trkpt><trkpt lat="43.73785013362258" lon="11.2588947803918"><ele>79.0</ele><time>2026-04-19T09:13:20Z</time></trkpt><trkpt lat="43.737724281271504" lon="11.258772764267858"><ele>79.0</ele><time>2026-04-19T09:13:21Z</time></trkpt><trkpt lat="43.73761252546794" lon="11.258667162579474"><ele>79.0</ele><time>2026-04-19T09:13:22Z</time></trkpt><trkpt lat="43.737523772230304" lon="11.258548970385277"><ele>79.0</ele><time>2026-04-19T09:13:23Z</time></trkpt><trkpt lat="43.737437815867814" lon="11.258441580544718"><ele>79.0</ele><time>2026-04-19T09:13:24Z</time></trkpt><trkpt lat="43.73735919088677" lon="11.258312249915107"><ele>79.0</ele><time>2026-04-19T09:13:25Z</time></trkpt><trkpt lat="43.73729613273719" lon="11.258165940180074"><ele>79.0</ele><time>2026-04-19T09:13:26Z</time></trkpt><trkpt lat="43.737264371188665" lon="11.258003105344825"><ele>79.0</ele><time>2026-04-19T09:13:27Z</time></trkpt><trkpt lat="43.73724721830853" lon="11.257826005510912"><ele>79.25</ele><time>2026-04-19T09:13:28Z</time></trkpt><trkpt lat="43.73723996594665" lon="11.257639267079774"><ele>79.5</ele><time>2026-04-19T09:13:29Z</time></trkpt><trkpt lat="43.73723436921297" lon="11.257454143041288"><ele>79.75</ele><time>2026-04-19T09:13:30Z</time></trkpt><trkpt lat="43.73724858983595" lon="11.257282774493854"><ele>80.0</ele><time>2026-04-19T09:13:31Z</time></trkpt><trkpt lat="43.737247430395044" lon="11.257102702544518"><ele>80.0</ele><time>2026-04-19T09:13:32Z</time></trkpt><trkpt lat="43.73725499821631" lon="11.25691374342908"><ele>80.0</ele><time>2026-04-19T09:13:33Z</time></trkpt><trkpt lat="43.7372143182842" lon="11.25672006130645"><ele>80.0</ele><time>2026-04-19T09:13:34Z</time></trkpt><trkpt lat="43.737129258298076" lon="11.256556748369851"><ele>80.0</ele><time>2026-04-19T09:13:35Z</time></trkpt><trkpt lat="43.7370485989485" lon="11.256395866897057"><ele>80.25</ele><time>2026-04-19T09:13:36Z</time></trkpt><trkpt lat="43.73697526922565" lon="11.256247345434788"><ele>80.5</ele><time>2026-04-19T09:13:37Z</time></trkpt><trkpt lat="43.736919246080774" lon="11.25609155249095"><ele>80.75</ele><time>2026-04-19T09:13:38Z</time></trkpt><trkpt lat="43.73688766419655" lon="11.255934925030589"><ele>81.0</ele><time>2026-04-19T09:13:39Z</time></trkpt><trkpt lat="43.7368749740096" lon="11.255784150480318"><ele>80.6</ele><time>2026-04-19T09:13:40Z</time></trkpt><trkpt lat="43.736875653748406" lon="11.255638401526337"><ele>80.19999999999999</ele><time>2026-04-19T09:13:41Z</time></trkpt><trkpt lat="43.73688971395591" lon="11.255490248099987"><ele>79.80000000000001</ele><time>2026-04-19T09:13:42Z</time></trkpt><trkpt lat="43.73691802748202" lon="11.255338598114358"><ele>79.4</ele><time>2026-04-19T09:13:43Z</time></trkpt><trkpt lat="43.73696594419786" lon="11.255190469823557"><ele>79.0</ele><time>2026-04-19T09:13:44Z</time></trkpt><trkpt lat="43.73702832575267" lon="11.255041429162455"><ele>79.0</ele><time>2026-04-19T09:13:45Z</time></trkpt><trkpt lat="43.737085574575296" lon="11.254879916000615"><ele>79.0</ele><time>2026-04-19T09:13:46Z</time></trkpt><trkpt lat="43.7371241288129" lon="11.254701125753742"><ele>79.0</ele><time>2026-04-19T09:13:47Z</time></trkpt><trkpt lat="43.737143145046204" lon="11.254513080277972"><ele>79.0</ele><time>2026-04-19T09:13:48Z</time></trkpt><trkpt lat="43.737143784712124" lon="11.254321269353069"><ele>77.5</ele><time>2026-04-19T09:13:49Z</time></trkpt><trkpt lat="43.73713685608839" lon="11.254131736209933"><ele>76.0</ele><time>2026-04-19T09:13:50Z</time></trkpt><trkpt lat="43.737135228947004" lon="11.253963586643652"><ele>74.5</ele><time>2026-04-19T09:13:51Z</time></trkpt><trkpt lat="43.737134813159535" lon="11.253814185420591"><ele>73.0</ele><time>2026-04-19T09:13:52Z</time></trkpt><trkpt lat="43.73714047428254" lon="11.253678457997486"><ele>72.16666666666666</ele><time>2026-04-19T09:13:53Z</time></trkpt><trkpt lat="43.73715986744382" lon="11.253555769441535"><ele>71.33333333333333</ele><time>2026-04-19T09:13:54Z</time></trkpt><trkpt lat="43.73719836560279" lon="11.253454579692841"><ele>70.5</ele><time>2026-04-19T09:13:55Z</time></trkpt><trkpt lat="43.737263507872484" lon="11.253390543999334"><ele>69.66666666666667</ele><time>2026-04-19T09:13:56Z</time></trkpt><trkpt lat="43.737338774081955" lon="11.253348265376214"><ele>68.83333333333334</ele><time>2026-04-19T09:13:57Z</time></trkpt><trkpt lat="43.73741381059069" lon="11.253320984680855"><ele>68.0</ele><time>2026-04-19T09:13:58Z</time></trkpt><trkpt lat="43.73747905517119" lon="11.253295359083689"><ele>68.0</ele><time>2026-04-19T09:13:59Z</time></trkpt><trkpt lat="43.73758632917784" lon="11.253239258303777"><ele>68.0</ele><time>2026-04-19T09:14:01Z</time></trkpt><trkpt lat="43.737713154593756" lon="11.253199700156816"><ele>68.0</ele><time>2026-04-19T09:14:03Z</time></trkpt><trkpt lat="43.73777690422369" lon="11.253173140769617"><ele>68.0</ele><time>2026-04-19T09:14:04Z</time></trkpt><trkpt lat="43.737864027083326" lon="11.253055110411358"><ele>68.0</ele><time>2026-04-19T09:14:05.999Z</time></trkpt><trkpt lat="43.73787878903939" lon="11.25296322277627"><ele>67.5</ele><time>2026-04-19T09:14:06.999Z</time></trkpt><trkpt lat="43.73787587894794" lon="11.2528590414971"><ele>67.0</ele><time>2026-04-19T09:14:07.999Z</time></trkpt><trkpt lat="43.737857514659666" lon="11.252758877597318"><ele>66.5</ele><time>2026-04-19T09:14:08.999Z</time></trkpt><trkpt lat="43.73790327201047" lon="11.252660467027178"><ele>66.0</ele><time>2026-04-19T09:14:09.999Z</time></trkpt><trkpt lat="43.73795622937725" lon="11.252583915708179"><ele>65.5</ele><time>2026-04-19T09:14:10.999Z</time></trkpt><trkpt lat="43.738030230958614" lon="11.25252025798332"><ele>65.0</ele><time>2026-04-19T09:14:11.999Z</time></trkpt><trkpt lat="43.73812136408765" lon="11.252469603993479"><ele>65.0</ele><time>2026-04-19T09:14:12.999Z</time></trkpt><trkpt lat="43.7382102824047" lon="11.252426407865364"><ele>65.0</ele><time>2026-04-19T09:14:13.999Z</time></trkpt><trkpt lat="43.73828865510159" lon="11.252381819034552"><ele>65.0</ele><time>2026-04-19T09:14:14.999Z</time></trkpt><trkpt lat="43.73835094194404" lon="11.25234493586723"><ele>65.0</ele><time>2026-04-19T09:14:15.999Z</time></trkpt><trkpt lat="43.73841247983285" lon="11.252302978303224"><ele>65.0</ele><time>2026-04-19T09:14:17.999Z</time></trkpt><trkpt lat="43.73849152022631" lon="11.252217455463544"><ele>65.0</ele><time>2026-04-19T09:15:46Z</time></trkpt><trkpt lat="43.73858371406018" lon="11.252102022939036"><ele>65.6</ele><time>2026-04-19T09:15:48Z</time></trkpt><trkpt lat="43.73863233830104" lon="11.252026795723541"><ele>66.2</ele><time>2026-04-19T09:15:49Z</time></trkpt><trkpt lat="43.73868720724453" lon="11.251935369092763"><ele>66.8</ele><time>2026-04-19T09:15:50Z</time></trkpt><trkpt lat="43.73874640727801" lon="11.25183595726163"><ele>67.4</ele><time>2026-04-19T09:15:51Z</time></trkpt><trkpt lat="43.73880764276378" lon="11.251731990782405"><ele>68.0</ele><time>2026-04-19T09:15:52Z</time></trkpt><trkpt lat="43.738867860099965" lon="11.251614955755675"><ele>68.0</ele><time>2026-04-19T09:15:53Z</time></trkpt><trkpt lat="43.738925461183804" lon="11.251494045902623"><ele>68.0</ele><time>2026-04-19T09:15:54Z</time></trkpt><trkpt lat="43.73897545154452" lon="11.251377196139337"><ele>68.0</ele><time>2026-04-19T09:15:55Z</time></trkpt><trkpt lat="43.73902256810456" lon="11.25126709924897"><ele>68.0</ele><time>2026-04-19T09:15:56Z</time></trkpt><trkpt lat="43.73907185637787" lon="11.251149005300867"><ele>68.0</ele><time>2026-04-19T09:15:57Z</time></trkpt><trkpt lat="43.73912513670992" lon="11.25102126794483"><ele>67.5</ele><time>2026-04-19T09:15:58Z</time></trkpt><trkpt lat="43.739179828982536" lon="11.250882920360578"><ele>67.0</ele><time>2026-04-19T09:15:59Z</time></trkpt><trkpt lat="43.73923629806224" lon="11.250745524020104"><ele>66.5</ele><time>2026-04-19T09:15:59.999Z</time></trkpt><trkpt lat="43.739293631218544" lon="11.250605419826856"><ele>66.0</ele><time>2026-04-19T09:16:00.999Z</time></trkpt><trkpt lat="43.7393497368596" lon="11.250466062859218"><ele>67.0</ele><time>2026-04-19T09:16:01.999Z</time></trkpt><trkpt lat="43.73940635638544" lon="11.250324052717671"><ele>68.0</ele><time>2026-04-19T09:16:02.999Z</time></trkpt><trkpt lat="43.739460137276176" lon="11.250185961933633"><ele>69.0</ele><time>2026-04-19T09:16:03.999Z</time></trkpt><trkpt lat="43.73950791213902" lon="11.250051081889792"><ele>70.0</ele><time>2026-04-19T09:16:04.999Z</time></trkpt><trkpt lat="43.739547830450384" lon="11.249912568263609"><ele>71.0</ele><time>2026-04-19T09:16:05.999Z</time></trkpt><trkpt lat="43.73956741204448" lon="11.249759816851604"><ele>71.25</ele><time>2026-04-19T09:16:06.999Z</time></trkpt><trkpt lat="43.73956477864245" lon="11.249600485804175"><ele>71.5</ele><time>2026-04-19T09:16:07.999Z</time></trkpt><trkpt lat="43.73954002622739" lon="11.2494395530238"><ele>71.75</ele><time>2026-04-19T09:16:08.999Z</time></trkpt><trkpt lat="43.73950502580426" lon="11.249287068685302"><ele>72.0</ele><time>2026-04-19T09:16:09.999Z</time></trkpt><trkpt lat="43.73946597543874" lon="11.249150866321248"><ele>72.0</ele><time>2026-04-19T09:16:10.999Z</time></trkpt><trkpt lat="43.73941936601576" lon="11.249027459627241"><ele>72.0</ele><time>2026-04-19T09:16:11.999Z</time></trkpt><trkpt lat="43.73935813727001" lon="11.24889537128949"><ele>72.0</ele><time>2026-04-19T09:16:12.999Z</time></trkpt><trkpt lat="43.73929286358798" lon="11.248757889071607"><ele>72.0</ele><time>2026-04-19T09:16:13.999Z</time></trkpt><trkpt lat="43.73921967630642" lon="11.248618238694066"><ele>70.25</ele><time>2026-04-19T09:16:14.999Z</time></trkpt><trkpt lat="43.73913919296838" lon="11.24847918613712"><ele>68.5</ele><time>2026-04-19T09:16:15.999Z</time></trkpt><trkpt lat="43.73904892635684" lon="11.248350918083267"><ele>66.75</ele><time>2026-04-19T09:16:16.999Z</time></trkpt><trkpt lat="43.73896393639339" lon="11.248224099350983"><ele>65.0</ele><time>2026-04-19T09:16:17.999Z</time></trkpt><trkpt lat="43.73888628175901" lon="11.248076387286684"><ele>64.75</ele><time>2026-04-19T09:16:18.999Z</time></trkpt><trkpt lat="43.738810563077735" lon="11.247918715373762"><ele>64.5</ele><time>2026-04-19T09:16:19.998Z</time></trkpt><trkpt lat="43.73873494968363" lon="11.247756160688045"><ele>64.25</ele><time>2026-04-19T09:16:20.998Z</time></trkpt><trkpt lat="43.73866016563994" lon="11.247590044539903"><ele>64.0</ele><time>2026-04-19T09:16:21.998Z</time></trkpt><trkpt lat="43.73858958971619" lon="11.247425279589454"><ele>63.75</ele><time>2026-04-19T09:16:22.998Z</time></trkpt><trkpt lat="43.73852316342605" lon="11.247264178627923"><ele>63.5</ele><time>2026-04-19T09:16:23.998Z</time></trkpt><trkpt lat="43.73846268877728" lon="11.247114751369459"><ele>63.25</ele><time>2026-04-19T09:16:24.998Z</time></trkpt><trkpt lat="43.738409238171144" lon="11.246973647376826"><ele>63.0</ele><time>2026-04-19T09:16:25.998Z</time></trkpt><trkpt lat="43.73836417060414" lon="11.246836565739224"><ele>63.0</ele><time>2026-04-19T09:16:26.998Z</time></trkpt><trkpt lat="43.738326622028744" lon="11.246690004256802"><ele>63.0</ele><time>2026-04-19T09:16:27.998Z</time></trkpt><trkpt lat="43.73830019507378" lon="11.246531824403647"><ele>63.0</ele><time>2026-04-19T09:16:28.998Z</time></trkpt><trkpt lat="43.738283375099456" lon="11.246361447381847"><ele>63.0</ele><time>2026-04-19T09:16:29.998Z</time></trkpt><trkpt lat="43.738273133504386" lon="11.246184347381856"><ele>63.0</ele><time>2026-04-19T09:16:30.998Z</time></trkpt><trkpt lat="43.7382638493767" lon="11.246005893968894"><ele>63.0</ele><time>2026-04-19T09:16:31.998Z</time></trkpt><trkpt lat="43.73825818140662" lon="11.245825402940321"><ele>63.0</ele><time>2026-04-19T09:16:32.998Z</time></trkpt><trkpt lat="43.73825198714498" lon="11.24564090146202"><ele>63.0</ele><time>2026-04-19T09:16:33.998Z</time></trkpt><trkpt lat="43.738236665026754" lon="11.245473138929809"><ele>63.0</ele><time>2026-04-19T09:16:34.998Z</time></trkpt><trkpt lat="43.7382186709433" lon="11.245321884298832"><ele>63.0</ele><time>2026-04-19T09:16:35.998Z</time></trkpt><trkpt lat="43.73820284271151" lon="11.24518347232"><ele>63.0</ele><time>2026-04-19T09:16:36.998Z</time></trkpt><trkpt lat="43.73819346231603" lon="11.245057690307352"><ele>63.0</ele><time>2026-04-19T09:16:37.998Z</time></trkpt><trkpt lat="43.73818822296339" lon="11.244940463626776"><ele>63.0</ele><time>2026-04-19T09:16:38.998Z</time></trkpt><trkpt lat="43.73818311934677" lon="11.244840549912785"><ele>62.833333333333336</ele><time>2026-04-19T09:16:39.998Z</time></trkpt><trkpt lat="43.73817535932471" lon="11.244751752159429"><ele>62.66666666666667</ele><time>2026-04-19T09:16:40.998Z</time></trkpt><trkpt lat="43.73817527766768" lon="11.244634682411647"><ele>62.5</ele><time>2026-04-19T09:16:42.998Z</time></trkpt><trkpt lat="43.73819071190192" lon="11.244500090376562"><ele>62.333333333333336</ele><time>2026-04-19T09:16:45.998Z</time></trkpt><trkpt lat="43.7382940657473" lon="11.244460378000687"><ele>62.16666666666667</ele><time>2026-04-19T09:16:46.998Z</time></trkpt><trkpt lat="43.73837246311275" lon="11.244437882290793"><ele>62.0</ele><time>2026-04-19T09:16:47.998Z</time></trkpt><trkpt lat="43.7384523373712" lon="11.244400111230545"><ele>62.0</ele><time>2026-04-19T09:16:48.998Z</time></trkpt><trkpt lat="43.73854282314881" lon="11.24435692557271"><ele>62.0</ele><time>2026-04-19T09:16:49.998Z</time></trkpt><trkpt lat="43.73864434343562" lon="11.244307880597592"><ele>62.0</ele><time>2026-04-19T09:16:50.998Z</time></trkpt><trkpt lat="43.73875036102151" lon="11.244267176091528"><ele>62.0</ele><time>2026-04-19T09:16:51.998Z</time></trkpt><trkpt lat="43.738867870425906" lon="11.244226088858829"><ele>62.0</ele><time>2026-04-19T09:16:52.998Z</time></trkpt><trkpt lat="43.738990637360494" lon="11.244182027076079"><ele>62.400000000000006</ele><time>2026-04-19T09:16:53.998Z</time></trkpt><trkpt lat="43.739112354192976" lon="11.244137040772207"><ele>62.800000000000004</ele><time>2026-04-19T09:16:54.998Z</time></trkpt><trkpt lat="43.73922819371283" lon="11.244099157940417"><ele>63.2</ele><time>2026-04-19T09:16:55.998Z</time></trkpt><trkpt lat="43.739331631478876" lon="11.244065558735787"><ele>63.6</ele><time>2026-04-19T09:16:56.998Z</time></trkpt><trkpt lat="43.73942286668846" lon="11.24401868951595"><ele>64.0</ele><time>2026-04-19T09:16:57.998Z</time></trkpt><trkpt lat="43.73949082569629" lon="11.243946060488547"><ele>67.4</ele><time>2026-04-19T09:16:58.998Z</time></trkpt><trkpt lat="43.73953419608922" lon="11.243843803045442"><ele>70.80000000000001</ele><time>2026-04-19T09:16:59.998Z</time></trkpt><trkpt lat="43.739544058901195" lon="11.243718683539592"><ele>74.19999999999999</ele><time>2026-04-19T09:17:00.998Z</time></trkpt><trkpt lat="43.73952443978699" lon="11.243575247220996"><ele>77.6</ele><time>2026-04-19T09:17:01.998Z</time></trkpt><trkpt lat="43.73948570232095" lon="11.243418911951366"><ele>81.0</ele><time>2026-04-19T09:17:02.998Z</time></trkpt><trkpt lat="43.73944518314845" lon="11.243245012532162"><ele>80.25</ele><time>2026-04-19T09:17:03.998Z</time></trkpt><trkpt lat="43.73941353887854" lon="11.243071521272404"><ele>79.5</ele><time>2026-04-19T09:17:04.998Z</time></trkpt><trkpt lat="43.739379877799934" lon="11.24290301576851"><ele>78.75</ele><time>2026-04-19T09:17:05.998Z</time></trkpt><trkpt lat="43.73934804125852" lon="11.242737665838376"><ele>78.0</ele><time>2026-04-19T09:17:06.998Z</time></trkpt><trkpt lat="43.739319514493786" lon="11.242580503970228"><ele>75.25</ele><time>2026-04-19T09:17:07.998Z</time></trkpt><trkpt lat="43.739295696659305" lon="11.242413881064856"><ele>72.5</ele><time>2026-04-19T09:17:08.998Z</time></trkpt><trkpt lat="43.73927710635587" lon="11.242232095273357"><ele>69.75</ele><time>2026-04-19T09:17:09.998Z</time></trkpt><trkpt lat="43.739284989207" lon="11.242058393802985"><ele>67.0</ele><time>2026-04-19T09:17:10.998Z</time></trkpt><trkpt lat="43.73926184506059" lon="11.241889381668278"><ele>66.5</ele><time>2026-04-19T09:17:11.998Z</time></trkpt><trkpt lat="43.73925276740832" lon="11.24172603942608"><ele>66.0</ele><time>2026-04-19T09:17:12.998Z</time></trkpt><trkpt lat="43.739238377098886" lon="11.241557955345957"><ele>65.5</ele><time>2026-04-19T09:17:13.998Z</time></trkpt><trkpt lat="43.739219387213325" lon="11.241378231003448"><ele>65.0</ele><time>2026-04-19T09:17:14.998Z</time></trkpt><trkpt lat="43.73920532643617" lon="11.241185687406665"><ele>64.75</ele><time>2026-04-19T09:17:15.997Z</time></trkpt><trkpt lat="43.73919748064559" lon="11.24098623719386"><ele>64.5</ele><time>2026-04-19T09:17:16.997Z</time></trkpt><trkpt lat="43.739194206424465" lon="11.240787528390094"><ele>64.25</ele><time>2026-04-19T09:17:17.997Z</time></trkpt><trkpt lat="43.73919170991368" lon="11.240587364579353"><ele>64.0</ele><time>2026-04-19T09:17:19Z</time></trkpt><trkpt lat="43.739194631157936" lon="11.240398489992655"><ele>64.4</ele><time>2026-04-19T09:17:20Z</time></trkpt><trkpt lat="43.73920469352209" lon="11.240229320392256"><ele>64.80000000000001</ele><time>2026-04-19T09:17:21Z</time></trkpt><trkpt lat="43.73921778385455" lon="11.240083439144195"><ele>65.19999999999999</ele><time>2026-04-19T09:17:22Z</time></trkpt><trkpt lat="43.73923554070108" lon="11.239960126037351"><ele>65.6</ele><time>2026-04-19T09:17:23Z</time></trkpt><trkpt lat="43.73925667347374" lon="11.23985984648206"><ele>66.0</ele><time>2026-04-19T09:17:24Z</time></trkpt><trkpt lat="43.73928286971883" lon="11.239778561735461"><ele>66.2</ele><time>2026-04-19T09:17:25Z</time></trkpt><trkpt lat="43.739341689645755" lon="11.239674432124188"><ele>66.39999999999999</ele><time>2026-04-19T09:17:27Z</time></trkpt><trkpt lat="43.73937707571442" lon="11.239591943464674"><ele>66.6</ele><time>2026-04-19T09:17:29Z</time></trkpt><trkpt lat="43.73937648639558" lon="11.239496771045559"><ele>66.8</ele><time>2026-04-19T09:17:31Z</time></trkpt><trkpt lat="43.73925466528375" lon="11.239619184043121"><ele>67.0</ele><time>2026-04-19T09:17:36Z</time></trkpt><trkpt lat="43.7392459826693" lon="11.23979082692264"><ele>66.75</ele><time>2026-04-19T09:17:37Z</time></trkpt><trkpt lat="43.73921856179316" lon="11.239922870388515"><ele>66.5</ele><time>2026-04-19T09:17:38Z</time></trkpt><trkpt lat="43.73919226769898" lon="11.240083199578706"><ele>66.25</ele><time>2026-04-19T09:17:39Z</time></trkpt><trkpt lat="43.73917778916249" lon="11.240271253816744"><ele>66.0</ele><time>2026-04-19T09:17:40Z</time></trkpt><trkpt lat="43.73916943271628" lon="11.240451399500335"><ele>65.5</ele><time>2026-04-19T09:17:41Z</time></trkpt><trkpt lat="43.73916388367735" lon="11.24063388648359"><ele>65.0</ele><time>2026-04-19T09:17:41.999Z</time></trkpt><trkpt lat="43.73916536873999" lon="11.240819855533688"><ele>64.5</ele><time>2026-04-19T09:17:42.999Z</time></trkpt><trkpt lat="43.73916846907184" lon="11.240997631129254"><ele>64.0</ele><time>2026-04-19T09:17:43.999Z</time></trkpt><trkpt lat="43.73917647458163" lon="11.241170351122744"><ele>64.0</ele><time>2026-04-19T09:17:44.999Z</time></trkpt><trkpt lat="43.7391966188829" lon="11.241336107644619"><ele>64.0</ele><time>2026-04-19T09:17:45.999Z</time></trkpt><trkpt lat="43.73921870495702" lon="11.241499580702927"><ele>64.0</ele><time>2026-04-19T09:17:46.999Z</time></trkpt><trkpt lat="43.739230725989806" lon="11.241677879551768"><ele>64.0</ele><time>2026-04-19T09:17:47.999Z</time></trkpt><trkpt lat="43.73924575575574" lon="11.241856657770612"><ele>64.25</ele><time>2026-04-19T09:17:48.999Z</time></trkpt><trkpt lat="43.739252838676" lon="11.242038712556429"><ele>64.5</ele><time>2026-04-19T09:17:49.999Z</time></trkpt><trkpt lat="43.739261824111814" lon="11.24222020238253"><ele>64.75</ele><time>2026-04-19T09:17:50.999Z</time></trkpt><trkpt lat="43.7392743440678" lon="11.242398271295713"><ele>65.0</ele><time>2026-04-19T09:17:51.999Z</time></trkpt><trkpt lat="43.73930165271636" lon="11.242575466133607"><ele>65.5</ele><time>2026-04-19T09:17:52.999Z</time></trkpt><trkpt lat="43.7393351084757" lon="11.242751282420457"><ele>66.0</ele><time>2026-04-19T09:17:53.999Z</time></trkpt><trkpt lat="43.73937463037935" lon="11.242925102414253"><ele>66.5</ele><time>2026-04-19T09:17:54.999Z</time></trkpt><trkpt lat="43.73940934355232" lon="11.243084259032809"><ele>67.0</ele><time>2026-04-19T09:17:55.999Z</time></trkpt><trkpt lat="43.73944051174008" lon="11.24323921264742"><ele>69.33333333333333</ele><time>2026-04-19T09:17:56.999Z</time></trkpt><trkpt lat="43.739468731094405" lon="11.243374397328456"><ele>71.66666666666666</ele><time>2026-04-19T09:17:57.999Z</time></trkpt><trkpt lat="43.73949566123426" lon="11.243497795361217"><ele>74.0</ele><time>2026-04-19T09:17:58.999Z</time></trkpt><trkpt lat="43.73951687952816" lon="11.24361184321253"><ele>76.33333333333333</ele><time>2026-04-19T09:17:59.999Z</time></trkpt><trkpt lat="43.73952692290875" lon="11.243725230305254"><ele>78.66666666666667</ele><time>2026-04-19T09:18:00.999Z</time></trkpt><trkpt lat="43.73950877711517" lon="11.243832061523046"><ele>81.0</ele><time>2026-04-19T09:18:01.999Z</time></trkpt><trkpt lat="43.73946242261115" lon="11.243923862746993"><ele>79.8</ele><time>2026-04-19T09:18:02.999Z</time></trkpt><trkpt lat="43.73939047951113" lon="11.243996881904305"><ele>78.6</ele><time>2026-04-19T09:18:03.999Z</time></trkpt><trkpt lat="43.7392923089431" lon="11.244036436768802"><ele>77.4</ele><time>2026-04-19T09:18:04.999Z</time></trkpt><trkpt lat="43.73918824128994" lon="11.244068076708409"><ele>76.2</ele><time>2026-04-19T09:18:05.999Z</time></trkpt><trkpt lat="43.73907958533038" lon="11.244110915453678"><ele>75.0</ele><time>2026-04-19T09:18:06.999Z</time></trkpt><trkpt lat="43.73897268434735" lon="11.244154861859922"><ele>72.8</ele><time>2026-04-19T09:18:07.999Z</time></trkpt><trkpt lat="43.738869117920444" lon="11.244200851762187"><ele>70.6</ele><time>2026-04-19T09:18:08.999Z</time></trkpt><trkpt lat="43.738772828557636" lon="11.244237772507972"><ele>68.4</ele><time>2026-04-19T09:18:09.999Z</time></trkpt><trkpt lat="43.73868215357846" lon="11.2442701466352"><ele>66.2</ele><time>2026-04-19T09:18:10.999Z</time></trkpt><trkpt lat="43.7385975688482" lon="11.244302395197543"><ele>64.0</ele><time>2026-04-19T09:18:11.999Z</time></trkpt><trkpt lat="43.73851803461094" lon="11.244333226907937"><ele>63.666666666666664</ele><time>2026-04-19T09:18:12.999Z</time></trkpt><trkpt lat="43.738444483919174" lon="11.24436293593477"><ele>63.33333333333333</ele><time>2026-04-19T09:18:13.999Z</time></trkpt><trkpt lat="43.73837755279759" lon="11.2443898204285"><ele>63.0</ele><time>2026-04-19T09:18:14.999Z</time></trkpt><trkpt lat="43.73831719329169" lon="11.244415013316878"><ele>62.66666666666667</ele><time>2026-04-19T09:18:15.999Z</time></trkpt><trkpt lat="43.738216571451034" lon="11.244470071436027"><ele>62.333333333333336</ele><time>2026-04-19T09:18:17.999Z</time></trkpt><trkpt lat="43.738118670908015" lon="11.244495963689026"><ele>62.0</ele><time>2026-04-19T09:18:19.999Z</time></trkpt><trkpt lat="43.738128559268944" lon="11.24466685006265"><ele>62.0</ele><time>2026-04-19T09:18:20.999Z</time></trkpt><trkpt lat="43.73814078650314" lon="11.24476833384113"><ele>62.0</ele><time>2026-04-19T09:18:21.999Z</time></trkpt><trkpt lat="43.738160224276676" lon="11.244890132194275"><ele>62.0</ele><time>2026-04-19T09:18:22.999Z</time></trkpt><trkpt lat="43.73816123259412" lon="11.245028371285335"><ele>62.0</ele><time>2026-04-19T09:18:23.999Z</time></trkpt><trkpt lat="43.73818916121323" lon="11.245160397165693"><ele>62.0</ele><time>2026-04-19T09:18:24.999Z</time></trkpt><trkpt lat="43.73819429074638" lon="11.245280642296022"><ele>62.2</ele><time>2026-04-19T09:18:25.999Z</time></trkpt><trkpt lat="43.73820687294273" lon="11.245404532220627"><ele>62.400000000000006</ele><time>2026-04-19T09:18:26.999Z</time></trkpt><trkpt lat="43.738220675617164" lon="11.245529078433865"><ele>62.599999999999994</ele><time>2026-04-19T09:18:27.999Z</time></trkpt><trkpt lat="43.73823173458662" lon="11.245654760886552"><ele>62.8</ele><time>2026-04-19T09:18:28.999Z</time></trkpt><trkpt lat="43.738239837737574" lon="11.245786109744273"><ele>63.0</ele><time>2026-04-19T09:18:29.999Z</time></trkpt><trkpt lat="43.73824183491489" lon="11.245920999154713"><ele>63.0</ele><time>2026-04-19T09:18:30.999Z</time></trkpt><trkpt lat="43.73824611384897" lon="11.24604854831261"><ele>63.0</ele><time>2026-04-19T09:18:31.999Z</time></trkpt><trkpt lat="43.73825261822506" lon="11.246179207762857"><ele>63.0</ele><time>2026-04-19T09:18:32.999Z</time></trkpt><trkpt lat="43.738261520529754" lon="11.246318667110888"><ele>63.0</ele><time>2026-04-19T09:18:33.999Z</time></trkpt><trkpt lat="43.738271893927255" lon="11.246463149899945"><ele>63.0</ele><time>2026-04-19T09:18:34.999Z</time></trkpt><trkpt lat="43.738294486405195" lon="11.246609323664755"><ele>63.0</ele><time>2026-04-19T09:18:35.999Z</time></trkpt><trkpt lat="43.738324571932104" lon="11.246752580761264"><ele>63.0</ele><time>2026-04-19T09:18:36.999Z</time></trkpt><trkpt lat="43.738348071581136" lon="11.24690424414832"><ele>63.0</ele><time>2026-04-19T09:18:37.999Z</time></trkpt><trkpt lat="43.738399282927894" lon="11.247037896922082"><ele>63.0</ele><time>2026-04-19T09:18:38.998Z</time></trkpt><trkpt lat="43.738463531473236" lon="11.247154412455687"><ele>63.0</ele><time>2026-04-19T09:18:39.998Z</time></trkpt><trkpt lat="43.738516588991374" lon="11.247280404623124"><ele>63.2</ele><time>2026-04-19T09:18:40.998Z</time></trkpt><trkpt lat="43.73857175584288" lon="11.247410855527274"><ele>63.4</ele><time>2026-04-19T09:18:41.998Z</time></trkpt><trkpt lat="43.73862635064876" lon="11.247536694124257"><ele>63.60000000000001</ele><time>2026-04-19T09:18:42.998Z</time></trkpt><trkpt lat="43.73867926589993" lon="11.247664085202377"><ele>63.800000000000004</ele><time>2026-04-19T09:18:43.998Z</time></trkpt><trkpt lat="43.738738503486616" lon="11.247795753249209"><ele>64.0</ele><time>2026-04-19T09:18:44.998Z</time></trkpt><trkpt lat="43.73879859073985" lon="11.247925299938759"><ele>64.0</ele><time>2026-04-19T09:18:45.998Z</time></trkpt><trkpt lat="43.738859846858055" lon="11.24805624232878"><ele>64.0</ele><time>2026-04-19T09:18:46.998Z</time></trkpt><trkpt lat="43.73892055256869" lon="11.248181927987655"><ele>64.0</ele><time>2026-04-19T09:18:47.998Z</time></trkpt><trkpt lat="43.7389892057042" lon="11.248308254432606"><ele>64.0</ele><time>2026-04-19T09:18:48.998Z</time></trkpt><trkpt lat="43.73907077972662" lon="11.248427588600457"><ele>64.25</ele><time>2026-04-19T09:18:49.998Z</time></trkpt><trkpt lat="43.739154151823044" lon="11.24854495336166"><ele>64.5</ele><time>2026-04-19T09:18:50.998Z</time></trkpt><trkpt lat="43.73922571279596" lon="11.248676913004916"><ele>64.75</ele><time>2026-04-19T09:18:51.998Z</time></trkpt><trkpt lat="43.739290006008424" lon="11.24881411098284"><ele>65.0</ele><time>2026-04-19T09:18:52.998Z</time></trkpt><trkpt lat="43.73934922646502" lon="11.248949746693539"><ele>66.4</ele><time>2026-04-19T09:18:53.998Z</time></trkpt><trkpt lat="43.739401610898796" lon="11.249087188846289"><ele>67.8</ele><time>2026-04-19T09:18:54.998Z</time></trkpt><trkpt lat="43.739448164524916" lon="11.249224478262605"><ele>69.2</ele><time>2026-04-19T09:18:55.998Z</time></trkpt><trkpt lat="43.73948584756133" lon="11.24935753321388"><ele>70.6</ele><time>2026-04-19T09:18:56.998Z</time></trkpt><trkpt lat="43.73951606369187" lon="11.249488238712285"><ele>72.0</ele><time>2026-04-19T09:18:57.998Z</time></trkpt><trkpt lat="43.739535888196244" lon="11.249623364412468"><ele>72.0</ele><time>2026-04-19T09:18:58.998Z</time></trkpt><trkpt lat="43.73953677113126" lon="11.249765932082898"><ele>72.0</ele><time>2026-04-19T09:18:59.998Z</time></trkpt><trkpt lat="43.73951629021088" lon="11.24991447178321"><ele>72.0</ele><time>2026-04-19T09:19:00.998Z</time></trkpt><trkpt lat="43.73947851316863" lon="11.250065864085947"><ele>72.0</ele><time>2026-04-19T09:19:01.998Z</time></trkpt><trkpt lat="43.73942713552561" lon="11.25021468250357"><ele>72.0</ele><time>2026-04-19T09:19:02.998Z</time></trkpt><trkpt lat="43.73936445448591" lon="11.250370883194515"><ele>70.0</ele><time>2026-04-19T09:19:03.998Z</time></trkpt><trkpt lat="43.739292723335716" lon="11.250540387189824"><ele>68.0</ele><time>2026-04-19T09:19:04.998Z</time></trkpt><trkpt lat="43.73920595912142" lon="11.25072921737767"><ele>66.0</ele><time>2026-04-19T09:19:05.998Z</time></trkpt><trkpt lat="43.739118759847315" lon="11.2509469546854"><ele>66.0</ele><time>2026-04-19T09:19:06.998Z</time></trkpt><trkpt lat="43.73904485921752" lon="11.251177514375737"><ele>66.0</ele><time>2026-04-19T09:19:07.998Z</time></trkpt><trkpt lat="43.73894965360677" lon="11.251377464754357"><ele>66.0</ele><time>2026-04-19T09:19:08.998Z</time></trkpt><trkpt lat="43.73886258308327" lon="11.251572196007796"><ele>66.66666666666667</ele><time>2026-04-19T09:19:09.998Z</time></trkpt><trkpt lat="43.73876977519973" lon="11.251753364157777"><ele>67.33333333333334</ele><time>2026-04-19T09:19:10.998Z</time></trkpt><trkpt lat="43.738669945677564" lon="11.251918449930649"><ele>68.0</ele><time>2026-04-19T09:19:11.998Z</time></trkpt><trkpt lat="43.738567409028384" lon="11.252067867735635"><ele>67.5</ele><time>2026-04-19T09:19:12.998Z</time></trkpt><trkpt lat="43.73845043069272" lon="11.252202126966733"><ele>67.0</ele><time>2026-04-19T09:19:13.998Z</time></trkpt><trkpt lat="43.73833572420441" lon="11.252298412255836"><ele>66.5</ele><time>2026-04-19T09:19:14.998Z</time></trkpt><trkpt lat="43.73822587469283" lon="11.252362280493186"><ele>66.0</ele><time>2026-04-19T09:19:15.998Z</time></trkpt><trkpt lat="43.73811793659552" lon="11.2524224944817"><ele>65.83333333333333</ele><time>2026-04-19T09:19:16.998Z</time></trkpt><trkpt lat="43.738021613993965" lon="11.252475635734356"><ele>65.66666666666667</ele><time>2026-04-19T09:19:17.998Z</time></trkpt><trkpt lat="43.73794507835519" lon="11.252543449442094"><ele>65.5</ele><time>2026-04-19T09:19:18.998Z</time></trkpt><trkpt lat="43.7378786823893" lon="11.252596402638632"><ele>65.33333333333334</ele><time>2026-04-19T09:19:19.998Z</time></trkpt><trkpt lat="43.73782404428616" lon="11.252660951062161"><ele>65.16666666666667</ele><time>2026-04-19T09:19:20.998Z</time></trkpt><trkpt lat="43.737779450879685" lon="11.252734313275027"><ele>65.0</ele><time>2026-04-19T09:19:21.998Z</time></trkpt><trkpt lat="43.7377201066191" lon="11.25276892479401"><ele>65.5</ele><time>2026-04-19T09:19:22.998Z</time></trkpt><trkpt lat="43.737646167482374" lon="11.252781406060544"><ele>66.0</ele><time>2026-04-19T09:19:23.998Z</time></trkpt><trkpt lat="43.73758511539306" lon="11.25283606566723"><ele>66.5</ele><time>2026-04-19T09:19:25Z</time></trkpt><trkpt lat="43.737544929653794" lon="11.252926344247795"><ele>67.0</ele><time>2026-04-19T09:19:26Z</time></trkpt><trkpt lat="43.737539265959064" lon="11.253039218804302"><ele>67.5</ele><time>2026-04-19T09:19:27Z</time></trkpt><trkpt lat="43.73754485338402" lon="11.25315540136345"><ele>68.0</ele><time>2026-04-19T09:19:28Z</time></trkpt><trkpt lat="43.73751868121426" lon="11.253251220753514"><ele>68.0</ele><time>2026-04-19T09:19:29Z</time></trkpt><trkpt lat="43.73745743818696" lon="11.253308380157833"><ele>68.0</ele><time>2026-04-19T09:19:30Z</time></trkpt><trkpt lat="43.737373034023555" lon="11.253336434944682"><ele>68.0</ele><time>2026-04-19T09:19:31Z</time></trkpt><trkpt lat="43.73727463869216" lon="11.253352443471739"><ele>68.0</ele><time>2026-04-19T09:19:32Z</time></trkpt><trkpt lat="43.73718347006893" lon="11.253395972322979"><ele>68.0</ele><time>2026-04-19T09:19:33Z</time></trkpt><trkpt lat="43.73711315417155" lon="11.25348332544359"><ele>68.0</ele><time>2026-04-19T09:19:34Z</time></trkpt><trkpt lat="43.737077975197536" lon="11.253614266128132"><ele>68.0</ele><time>2026-04-19T09:19:35Z</time></trkpt><trkpt lat="43.737073013913275" lon="11.253768929047945"><ele>68.0</ele><time>2026-04-19T09:19:36Z</time></trkpt><trkpt lat="43.73710458750635" lon="11.253933580757485"><ele>68.0</ele><time>2026-04-19T09:19:37Z</time></trkpt><trkpt lat="43.73711293621702" lon="11.254101263477946"><ele>69.25</ele><time>2026-04-19T09:19:38Z</time></trkpt><trkpt lat="43.73711705337881" lon="11.254288369946828"><ele>70.5</ele><time>2026-04-19T09:19:39Z</time></trkpt><trkpt lat="43.73712211032618" lon="11.254465291679141"><ele>71.75</ele><time>2026-04-19T09:19:40Z</time></trkpt><trkpt lat="43.737114673924175" lon="11.25464647766659"><ele>73.0</ele><time>2026-04-19T09:19:41Z</time></trkpt><trkpt lat="43.73708084317783" lon="11.25483609711079"><ele>74.5</ele><time>2026-04-19T09:19:42Z</time></trkpt><trkpt lat="43.73702107288051" lon="11.255028314797435"><ele>76.0</ele><time>2026-04-19T09:19:43Z</time></trkpt><trkpt lat="43.73694751842559" lon="11.255199451860145"><ele>77.5</ele><time>2026-04-19T09:19:44Z</time></trkpt><trkpt lat="43.73688340585528" lon="11.255369267377016"><ele>79.0</ele><time>2026-04-19T09:19:45Z</time></trkpt><trkpt lat="43.73684568301969" lon="11.255560072989311"><ele>79.5</ele><time>2026-04-19T09:19:46Z</time></trkpt><trkpt lat="43.73683573580639" lon="11.255755199959614"><ele>80.0</ele><time>2026-04-19T09:19:47Z</time></trkpt><trkpt lat="43.73685063818918" lon="11.255933308807696"><ele>80.5</ele><time>2026-04-19T09:19:48Z</time></trkpt><trkpt lat="43.73690266813783" lon="11.256118020073615"><ele>81.0</ele><time>2026-04-19T09:19:49Z</time></trkpt><trkpt lat="43.73695615527447" lon="11.256302294395995"><ele>80.75</ele><time>2026-04-19T09:19:50Z</time></trkpt><trkpt lat="43.73705011900972" lon="11.256481374469642"><ele>80.5</ele><time>2026-04-19T09:19:51Z</time></trkpt><trkpt lat="43.73713154627893" lon="11.256632842556117"><ele>80.25</ele><time>2026-04-19T09:19:52Z</time></trkpt><trkpt lat="43.73719474714746" lon="11.256799709881207"><ele>80.0</ele><time>2026-04-19T09:19:53Z</time></trkpt><trkpt lat="43.737229136548116" lon="11.256994347710929"><ele>80.0</ele><time>2026-04-19T09:19:54Z</time></trkpt><trkpt lat="43.73723439129156" lon="11.257207004717792"><ele>80.0</ele><time>2026-04-19T09:19:55Z</time></trkpt><trkpt lat="43.73721357269619" lon="11.257425235000408"><ele>80.0</ele><time>2026-04-19T09:19:55.999Z</time></trkpt><trkpt lat="43.73719067500609" lon="11.257630838281806"><ele>79.75</ele><time>2026-04-19T09:19:56.999Z</time></trkpt><trkpt lat="43.73718303877336" lon="11.25783056157115"><ele>79.5</ele><time>2026-04-19T09:19:57.999Z</time></trkpt><trkpt lat="43.737201105127106" lon="11.258030840984597"><ele>79.25</ele><time>2026-04-19T09:19:58.999Z</time></trkpt><trkpt lat="43.737250246227845" lon="11.25821578488608"><ele>79.0</ele><time>2026-04-19T09:19:59.999Z</time></trkpt><trkpt lat="43.737321244292424" lon="11.258387109359447"><ele>79.0</ele><time>2026-04-19T09:20:00.999Z</time></trkpt><trkpt lat="43.7374216760985" lon="11.258535665352394"><ele>79.0</ele><time>2026-04-19T09:20:01.999Z</time></trkpt><trkpt lat="43.7375436571188" lon="11.258668399544352"><ele>79.0</ele><time>2026-04-19T09:20:02.999Z</time></trkpt><trkpt lat="43.73768654122092" lon="11.258784805502772"><ele>79.0</ele><time>2026-04-19T09:20:03.999Z</time></trkpt><trkpt lat="43.73782632896474" lon="11.258912823591185"><ele>79.0</ele><time>2026-04-19T09:20:04.999Z</time></trkpt><trkpt lat="43.73795702538907" lon="11.25904011800086"><ele>79.0</ele><time>2026-04-19T09:20:05.999Z</time></trkpt><trkpt lat="43.738085642992054" lon="11.259160639899592"><ele>79.0</ele><time>2026-04-19T09:20:06.999Z</time></trkpt><trkpt lat="43.73821311530462" lon="11.2592777293084"><ele>79.0</ele><time>2026-04-19T09:20:07.999Z</time></trkpt><trkpt lat="43.738339170510805" lon="11.259405524885253"><ele>79.0</ele><time>2026-04-19T09:20:08.999Z</time></trkpt><trkpt lat="43.73846182508575" lon="11.259537355687637"><ele>79.5</ele><time>2026-04-19T09:20:09.999Z</time></trkpt><trkpt lat="43.738575073412406" lon="11.259676646851137"><ele>80.0</ele><time>2026-04-19T09:20:10.999Z</time></trkpt><trkpt lat="43.73868295895397" lon="11.259820108835095"><ele>80.5</ele><time>2026-04-19T09:20:11.999Z</time></trkpt><trkpt lat="43.738784327249626" lon="11.259961173682312"><ele>81.0</ele><time>2026-04-19T09:20:12.999Z</time></trkpt><trkpt lat="43.738881518317605" lon="11.26008257994545"><ele>81.0</ele><time>2026-04-19T09:20:13.999Z</time></trkpt><trkpt lat="43.73898637539264" lon="11.260169590537522"><ele>81.0</ele><time>2026-04-19T09:20:14.999Z</time></trkpt><trkpt lat="43.7391025832903" lon="11.26022211652852"><ele>81.0</ele><time>2026-04-19T09:20:15.999Z</time></trkpt><trkpt lat="43.73921371528242" lon="11.26026336151095"><ele>81.0</ele><time>2026-04-19T09:20:16.999Z</time></trkpt><trkpt lat="43.73929101637562" lon="11.260327797457997"><ele>81.0</ele><time>2026-04-19T09:20:17.999Z</time></trkpt><trkpt lat="43.739333881685795" lon="11.260426779754209"><ele>81.0</ele><time>2026-04-19T09:20:18.999Z</time></trkpt><trkpt lat="43.73934920804353" lon="11.260552711176867"><ele>81.0</ele><time>2026-04-19T09:20:19.999Z</time></trkpt><trkpt lat="43.73934299939021" lon="11.260710085368206"><ele>81.0</ele><time>2026-04-19T09:20:20.999Z</time></trkpt><trkpt lat="43.73934217758971" lon="11.260880855984727"><ele>81.0</ele><time>2026-04-19T09:20:21.999Z</time></trkpt><trkpt lat="43.73935955525353" lon="11.261082445424497"><ele>80.75</ele><time>2026-04-19T09:20:22.999Z</time></trkpt><trkpt lat="43.73937783182399" lon="11.26127439578046"><ele>80.5</ele><time>2026-04-19T09:20:23.999Z</time></trkpt><trkpt lat="43.739392837170435" lon="11.261466958335077"><ele>80.25</ele><time>2026-04-19T09:20:24.999Z</time></trkpt><trkpt lat="43.73940442423179" lon="11.261658023882442"><ele>80.0</ele><time>2026-04-19T09:20:25.999Z</time></trkpt><trkpt lat="43.73941462955248" lon="11.261848840891023"><ele>83.0</ele><time>2026-04-19T09:20:26.999Z</time></trkpt><trkpt lat="43.73942546715998" lon="11.262038758633517"><ele>86.0</ele><time>2026-04-19T09:20:27.999Z</time></trkpt><trkpt lat="43.73943501117495" lon="11.262229025319542"><ele>89.0</ele><time>2026-04-19T09:20:28.999Z</time></trkpt><trkpt lat="43.739446557245294" lon="11.262424652754397"><ele>92.0</ele><time>2026-04-19T09:20:29.999Z</time></trkpt><trkpt lat="43.73946468055214" lon="11.262613974728183"><ele>92.0</ele><time>2026-04-19T09:20:30.999Z</time></trkpt><trkpt lat="43.739474394167665" lon="11.26280851097662"><ele>92.0</ele><time>2026-04-19T09:20:31.999Z</time></trkpt><trkpt lat="43.73949590143045" lon="11.26299894859004"><ele>92.0</ele><time>2026-04-19T09:20:32.999Z</time></trkpt><trkpt lat="43.739523332810286" lon="11.263186298513684"><ele>92.0</ele><time>2026-04-19T09:20:33.999Z</time></trkpt><trkpt lat="43.73955729288985" lon="11.263374428442255"><ele>90.25</ele><time>2026-04-19T09:20:34.999Z</time></trkpt><trkpt lat="43.73958719198771" lon="11.263560561699657"><ele>88.5</ele><time>2026-04-19T09:20:35.999Z</time></trkpt><trkpt lat="43.73960878341378" lon="11.263749152860886"><ele>86.75</ele><time>2026-04-19T09:20:36.999Z</time></trkpt><trkpt lat="43.73962406317271" lon="11.263934119649837"><ele>85.0</ele><time>2026-04-19T09:20:37.999Z</time></trkpt><trkpt lat="43.73963040764268" lon="11.264115882729188"><ele>83.5</ele><time>2026-04-19T09:20:38.999Z</time></trkpt><trkpt lat="43.739636869598996" lon="11.264296253010942"><ele>82.0</ele><time>2026-04-19T09:20:39.999Z</time></trkpt><trkpt lat="43.73966569591414" lon="11.26445786691822"><ele>80.5</ele><time>2026-04-19T09:20:40.999Z</time></trkpt><trkpt lat="43.73970920484907" lon="11.264602124650457"><ele>79.0</ele><time>2026-04-19T09:20:41.999Z</time></trkpt><trkpt lat="43.739771155411624" lon="11.264728451545256"><ele>78.0</ele><time>2026-04-19T09:20:42.999Z</time></trkpt><trkpt lat="43.739846916701666" lon="11.264828748641142"><ele>77.0</ele><time>2026-04-19T09:20:43.999Z</time></trkpt><trkpt lat="43.73993854872433" lon="11.26491279209002"><ele>76.0</ele><time>2026-04-19T09:20:44.999Z</time></trkpt><trkpt lat="43.74003867417099" lon="11.264986711911154"><ele>75.0</ele><time>2026-04-19T09:20:45.999Z</time></trkpt><trkpt lat="43.740146574356736" lon="11.265047640136586"><ele>74.0</ele><time>2026-04-19T09:20:46.999Z</time></trkpt><trkpt lat="43.74025602646536" lon="11.265089298516456"><ele>76.4</ele><time>2026-04-19T09:20:47.999Z</time></trkpt><trkpt lat="43.74035183919351" lon="11.26512660075697"><ele>78.80000000000001</ele><time>2026-04-19T09:20:48.999Z</time></trkpt><trkpt lat="43.7404334212899" lon="11.2651694153555"><ele>81.19999999999999</ele><time>2026-04-19T09:20:49.998Z</time></trkpt><trkpt lat="43.740501435903944" lon="11.265227760323535"><ele>83.6</ele><time>2026-04-19T09:20:50.998Z</time></trkpt><trkpt lat="43.74055426393213" lon="11.265323287121932"><ele>86.0</ele><time>2026-04-19T09:20:51.998Z</time></trkpt><trkpt lat="43.74059510513706" lon="11.265456615322615"><ele>86.0</ele><time>2026-04-19T09:20:52.998Z</time></trkpt><trkpt lat="43.740636344399434" lon="11.265599053640964"><ele>86.0</ele><time>2026-04-19T09:20:53.998Z</time></trkpt><trkpt lat="43.74068053595219" lon="11.26574486321781"><ele>86.0</ele><time>2026-04-19T09:20:54.998Z</time></trkpt><trkpt lat="43.74073529052142" lon="11.265890126866736"><ele>86.0</ele><time>2026-04-19T09:20:55.998Z</time></trkpt><trkpt lat="43.74079351604784" lon="11.26604895246338"><ele>85.0</ele><time>2026-04-19T09:20:56.998Z</time></trkpt><trkpt lat="43.74084788478629" lon="11.266230321187473"><ele>84.0</ele><time>2026-04-19T09:20:57.998Z</time></trkpt><trkpt lat="43.74089622707663" lon="11.266412082009186"><ele>83.0</ele><time>2026-04-19T09:20:58.998Z</time></trkpt><trkpt lat="43.74094582626361" lon="11.266593621543752"><ele>82.0</ele><time>2026-04-19T09:20:59.998Z</time></trkpt><trkpt lat="43.74099549267623" lon="11.266774818233499"><ele>82.75</ele><time>2026-04-19T09:21:00.998Z</time></trkpt><trkpt lat="43.74104331603362" lon="11.266960251874334"><ele>83.5</ele><time>2026-04-19T09:21:01.998Z</time></trkpt><trkpt lat="43.741088387788025" lon="11.267129317744379"><ele>84.25</ele><time>2026-04-19T09:21:02.998Z</time></trkpt><trkpt lat="43.741123769691974" lon="11.267277490747981"><ele>85.0</ele><time>2026-04-19T09:21:03.998Z</time></trkpt><trkpt lat="43.74115203850613" lon="11.267397798751535"><ele>85.0</ele><time>2026-04-19T09:21:04.998Z</time></trkpt><trkpt lat="43.74118288406243" lon="11.267510861433118"><ele>85.0</ele><time>2026-04-19T09:21:05.998Z</time></trkpt><trkpt lat="43.741212542456374" lon="11.267614261847578"><ele>85.0</ele><time>2026-04-19T09:21:06.998Z</time></trkpt><trkpt lat="43.7412453295819" lon="11.267716671136128"><ele>85.0</ele><time>2026-04-19T09:21:07.998Z</time></trkpt><trkpt lat="43.74127269450829" lon="11.26782589595182"><ele>85.0</ele><time>2026-04-19T09:21:08.998Z</time></trkpt><trkpt lat="43.7412944288526" lon="11.267952485444928"><ele>85.0</ele><time>2026-04-19T09:21:09.998Z</time></trkpt><trkpt lat="43.74130722150393" lon="11.268088953234265"><ele>84.8</ele><time>2026-04-19T09:21:10.998Z</time></trkpt><trkpt lat="43.74131753040239" lon="11.268220772653759"><ele>84.6</ele><time>2026-04-19T09:21:11.998Z</time></trkpt><trkpt lat="43.74133396194776" lon="11.26835062153874"><ele>84.4</ele><time>2026-04-19T09:21:12.998Z</time></trkpt><trkpt lat="43.74136592090983" lon="11.268479682103493"><ele>84.2</ele><time>2026-04-19T09:21:13.998Z</time></trkpt><trkpt lat="43.741406127156615" lon="11.26860428020997"><ele>84.0</ele><time>2026-04-19T09:21:14.998Z</time></trkpt><trkpt lat="43.74145457153467" lon="11.268723642861438"><ele>84.0</ele><time>2026-04-19T09:21:15.998Z</time></trkpt><trkpt lat="43.74150615637058" lon="11.268837805361926"><ele>84.0</ele><time>2026-04-19T09:21:16.998Z</time></trkpt><trkpt lat="43.74156084171218" lon="11.268949752444177"><ele>84.0</ele><time>2026-04-19T09:21:17.998Z</time></trkpt><trkpt lat="43.741616277435156" lon="11.269059396023524"><ele>84.0</ele><time>2026-04-19T09:21:18.998Z</time></trkpt><trkpt lat="43.74166960512432" lon="11.269160857929727"><ele>84.0</ele><time>2026-04-19T09:21:19.998Z</time></trkpt><trkpt lat="43.74172227887779" lon="11.269266425401396"><ele>84.5</ele><time>2026-04-19T09:21:20.998Z</time></trkpt><trkpt lat="43.74177727357574" lon="11.269369084199846"><ele>85.0</ele><time>2026-04-19T09:21:21.998Z</time></trkpt><trkpt lat="43.741827610082844" lon="11.269463114963381"><ele>85.5</ele><time>2026-04-19T09:21:22.998Z</time></trkpt><trkpt lat="43.74187789131401" lon="11.269554601453299"><ele>86.0</ele><time>2026-04-19T09:21:23.998Z</time></trkpt><trkpt lat="43.74192554468074" lon="11.269656149145431"><ele>86.5</ele><time>2026-04-19T09:21:24.998Z</time></trkpt><trkpt lat="43.74196246344139" lon="11.269765091659648"><ele>87.0</ele><time>2026-04-19T09:21:25.998Z</time></trkpt><trkpt lat="43.741991031413484" lon="11.26988853295388"><ele>87.0</ele><time>2026-04-19T09:21:26.998Z</time></trkpt><trkpt lat="43.74201143592684" lon="11.270013685624816"><ele>87.0</ele><time>2026-04-19T09:21:27.998Z</time></trkpt><trkpt lat="43.742018992093094" lon="11.270140819557337"><ele>87.0</ele><time>2026-04-19T09:21:28.998Z</time></trkpt><trkpt lat="43.7420104580354" lon="11.27027347628444"><ele>87.0</ele><time>2026-04-19T09:21:29.998Z</time></trkpt><trkpt lat="43.74198772306304" lon="11.270400665067744"><ele>87.0</ele><time>2026-04-19T09:21:31Z</time></trkpt><trkpt lat="43.74195545605149" lon="11.270523564610935"><ele>85.19999999999999</ele><time>2026-04-19T09:21:32Z</time></trkpt><trkpt lat="43.74192469810279" lon="11.270637373827265"><ele>83.39999999999999</ele><time>2026-04-19T09:21:33Z</time></trkpt><trkpt lat="43.74191542869477" lon="11.270762566872644"><ele>81.6</ele><time>2026-04-19T09:21:34Z</time></trkpt><trkpt lat="43.74192484024889" lon="11.270893305452375"><ele>79.8</ele><time>2026-04-19T09:21:35Z</time></trkpt><trkpt lat="43.74195913926682" lon="11.271028746445653"><ele>78.0</ele><time>2026-04-19T09:21:36Z</time></trkpt><trkpt lat="43.74201965840061" lon="11.271176760157834"><ele>78.0</ele><time>2026-04-19T09:21:37Z</time></trkpt><trkpt lat="43.74207700482565" lon="11.271330812436302"><ele>78.0</ele><time>2026-04-19T09:21:38Z</time></trkpt><trkpt lat="43.742111746171375" lon="11.271506386730808"><ele>78.0</ele><time>2026-04-19T09:21:39Z</time></trkpt><trkpt lat="43.742160205870135" lon="11.27169426910534"><ele>78.0</ele><time>2026-04-19T09:21:40Z</time></trkpt><trkpt lat="43.74220693581308" lon="11.271896541954145"><ele>77.33333333333333</ele><time>2026-04-19T09:21:41Z</time></trkpt><trkpt lat="43.74225400512195" lon="11.27210335248236"><ele>76.66666666666666</ele><time>2026-04-19T09:21:42Z</time></trkpt><trkpt lat="43.74230165557527" lon="11.272312563046778"><ele>76.0</ele><time>2026-04-19T09:21:43Z</time></trkpt><trkpt lat="43.7423512284169" lon="11.272524125940809"><ele>75.66666666666666</ele><time>2026-04-19T09:21:44Z</time></trkpt><trkpt lat="43.742414564328655" lon="11.272727252874969"><ele>75.33333333333333</ele><time>2026-04-19T09:21:45Z</time></trkpt><trkpt lat="43.742462144890325" lon="11.272940514623995"><ele>75.0</ele><time>2026-04-19T09:21:46Z</time></trkpt><trkpt lat="43.742513776389664" lon="11.273158171266251"><ele>74.33333333333333</ele><time>2026-04-19T09:21:47Z</time></trkpt><trkpt lat="43.742569503626655" lon="11.273375947787146"><ele>73.66666666666666</ele><time>2026-04-19T09:21:48Z</time></trkpt><trkpt lat="43.74261936577772" lon="11.273593610465987"><ele>73.0</ele><time>2026-04-19T09:21:49Z</time></trkpt><trkpt lat="43.74266655731031" lon="11.273811777249337"><ele>73.0</ele><time>2026-04-19T09:21:50Z</time></trkpt><trkpt lat="43.74271434972113" lon="11.274005682909884"><ele>73.0</ele><time>2026-04-19T09:21:51Z</time></trkpt><trkpt lat="43.7427630493873" lon="11.27419016705318"><ele>73.0</ele><time>2026-04-19T09:21:52Z</time></trkpt><trkpt lat="43.74282211231506" lon="11.27437107429856"><ele>73.0</ele><time>2026-04-19T09:21:53Z</time></trkpt><trkpt lat="43.74289859944674" lon="11.274543372448873"><ele>73.0</ele><time>2026-04-19T09:21:54Z</time></trkpt><trkpt lat="43.74299273371629" lon="11.274704054327751"><ele>73.0</ele><time>2026-04-19T09:21:55Z</time></trkpt><trkpt lat="43.743092921814394" lon="11.274857988279553"><ele>73.0</ele><time>2026-04-19T09:21:56Z</time></trkpt><trkpt lat="43.74319666768213" lon="11.275012852971251"><ele>73.0</ele><time>2026-04-19T09:21:57Z</time></trkpt><trkpt lat="43.74330187556821" lon="11.275163496957514"><ele>73.0</ele><time>2026-04-19T09:21:58Z</time></trkpt><trkpt lat="43.74340411746786" lon="11.275324735705105"><ele>73.0</ele><time>2026-04-19T09:21:59Z</time></trkpt><trkpt lat="43.743496093301744" lon="11.275497296604193"><ele>73.66666666666666</ele><time>2026-04-19T09:22:00Z</time></trkpt><trkpt lat="43.74358272001992" lon="11.275676317720011"><ele>74.33333333333333</ele><time>2026-04-19T09:22:01Z</time></trkpt><trkpt lat="43.743664090189505" lon="11.275855278284522"><ele>75.0</ele><time>2026-04-19T09:22:02Z</time></trkpt><trkpt lat="43.7437484026567" lon="11.276030952502005"><ele>75.0</ele><time>2026-04-19T09:22:03Z</time></trkpt><trkpt lat="43.743828014289704" lon="11.276210588726792"><ele>75.0</ele><time>2026-04-19T09:22:04Z</time></trkpt><trkpt lat="43.74390905055769" lon="11.276390002388446"><ele>75.0</ele><time>2026-04-19T09:22:05Z</time></trkpt><trkpt lat="43.7439921753943" lon="11.276558286595593"><ele>74.75</ele><time>2026-04-19T09:22:05.999Z</time></trkpt><trkpt lat="43.7440761162045" lon="11.27672785429284"><ele>74.5</ele><time>2026-04-19T09:22:06.999Z</time></trkpt><trkpt lat="43.74415611618851" lon="11.276898288475795"><ele>74.25</ele><time>2026-04-19T09:22:07.999Z</time></trkpt><trkpt lat="43.74423520184877" lon="11.277066305076561"><ele>74.0</ele><time>2026-04-19T09:22:08.999Z</time></trkpt><trkpt lat="43.744317345961704" lon="11.277233370242564"><ele>74.75</ele><time>2026-04-19T09:22:09.999Z</time></trkpt><trkpt lat="43.74439899839635" lon="11.277401960198977"><ele>75.5</ele><time>2026-04-19T09:22:10.999Z</time></trkpt><trkpt lat="43.74447829191006" lon="11.2775726722225"><ele>76.25</ele><time>2026-04-19T09:22:11.999Z</time></trkpt><trkpt lat="43.744557876952186" lon="11.277741650639216"><ele>77.0</ele><time>2026-04-19T09:22:12.999Z</time></trkpt><trkpt lat="43.74464217425435" lon="11.277909945207705"><ele>77.0</ele><time>2026-04-19T09:22:13.999Z</time></trkpt><trkpt lat="43.74473884657486" lon="11.278071420934387"><ele>77.0</ele><time>2026-04-19T09:22:14.999Z</time></trkpt><trkpt lat="43.744841674674795" lon="11.278224870463594"><ele>77.0</ele><time>2026-04-19T09:22:15.999Z</time></trkpt><trkpt lat="43.74494674517429" lon="11.278372202867192"><ele>76.75</ele><time>2026-04-19T09:22:16.999Z</time></trkpt><trkpt lat="43.745049873541305" lon="11.278520639003139"><ele>76.5</ele><time>2026-04-19T09:22:17.999Z</time></trkpt><trkpt lat="43.74513984489155" lon="11.278672972375219"><ele>76.25</ele><time>2026-04-19T09:22:18.999Z</time></trkpt><trkpt lat="43.74521873531375" lon="11.278822645901293"><ele>76.0</ele><time>2026-04-19T09:22:19.999Z</time></trkpt><trkpt lat="43.74529066187422" lon="11.278969911939472"><ele>76.39999999999999</ele><time>2026-04-19T09:22:20.999Z</time></trkpt><trkpt lat="43.74535518109516" lon="11.279111881808939"><ele>76.8</ele><time>2026-04-19T09:22:21.999Z</time></trkpt><trkpt lat="43.745412458445806" lon="11.279242622554388"><ele>77.19999999999999</ele><time>2026-04-19T09:22:22.999Z</time></trkpt><trkpt lat="43.74546944317326" lon="11.279362858706282"><ele>77.6</ele><time>2026-04-19T09:22:23.999Z</time></trkpt><trkpt lat="43.7455213998461" lon="11.27947525008786"><ele>78.0</ele><time>2026-04-19T09:22:24.999Z</time></trkpt><trkpt lat="43.74556524226758" lon="11.279578009723867"><ele>78.0</ele><time>2026-04-19T09:22:25.999Z</time></trkpt><trkpt lat="43.745609423049466" lon="11.279671456942118"><ele>78.0</ele><time>2026-04-19T09:22:26.999Z</time></trkpt><trkpt lat="43.74564912997552" lon="11.279756470278311"><ele>78.0</ele><time>2026-04-19T09:22:27.999Z</time></trkpt><trkpt lat="43.74568471060665" lon="11.279838288885681"><ele>78.0</ele><time>2026-04-19T09:22:28.999Z</time></trkpt><trkpt lat="43.74571972784951" lon="11.279916117961879"><ele>78.0</ele><time>2026-04-19T09:22:29.999Z</time></trkpt><trkpt lat="43.745784374033015" lon="11.280050386067757"><ele>78.0</ele><time>2026-04-19T09:22:31.999Z</time></trkpt><trkpt lat="43.74584787095688" lon="11.280133957877284"><ele>78.0</ele><time>2026-04-19T09:22:33.999Z</time></trkpt><trkpt lat="43.74598390783461" lon="11.28012324825095"><ele>78.0</ele><time>2026-04-19T09:22:35.999Z</time></trkpt><trkpt lat="43.74606276406125" lon="11.280106877464602"><ele>78.0</ele><time>2026-04-19T09:22:36.999Z</time></trkpt><trkpt lat="43.74614055101942" lon="11.28009207456884"><ele>78.0</ele><time>2026-04-19T09:22:37.999Z</time></trkpt><trkpt lat="43.74621922678361" lon="11.280067108989401"><ele>78.0</ele><time>2026-04-19T09:22:38.999Z</time></trkpt><trkpt lat="43.74630039420296" lon="11.28004536712841"><ele>78.4</ele><time>2026-04-19T09:22:39.999Z</time></trkpt><trkpt lat="43.74638367342565" lon="11.280036941455883"><ele>78.8</ele><time>2026-04-19T09:22:40.999Z</time></trkpt><trkpt lat="43.74647206005812" lon="11.280046955676065"><ele>79.2</ele><time>2026-04-19T09:22:41.999Z</time></trkpt><trkpt lat="43.74656405548993" lon="11.280065767420588"><ele>79.6</ele><time>2026-04-19T09:22:42.999Z</time></trkpt><trkpt lat="43.74665596373644" lon="11.280078346660432"><ele>80.0</ele><time>2026-04-19T09:22:43.999Z</time></trkpt><trkpt lat="43.74674949510273" lon="11.280093242196106"><ele>80.0</ele><time>2026-04-19T09:22:44.999Z</time></trkpt><trkpt lat="43.74684132395029" lon="11.280104079260298"><ele>80.0</ele><time>2026-04-19T09:22:45.999Z</time></trkpt><trkpt lat="43.74693564074871" lon="11.280105000238407"><ele>80.0</ele><time>2026-04-19T09:22:46.999Z</time></trkpt><trkpt lat="43.74702750929838" lon="11.280101491084901"><ele>80.0</ele><time>2026-04-19T09:22:47.999Z</time></trkpt><trkpt lat="43.74712029170157" lon="11.28009381686598"><ele>80.0</ele><time>2026-04-19T09:22:48.999Z</time></trkpt><trkpt lat="43.747212269258576" lon="11.280080135914808"><ele>81.4</ele><time>2026-04-19T09:22:49.999Z</time></trkpt><trkpt lat="43.747305578065045" lon="11.280064307982533"><ele>82.8</ele><time>2026-04-19T09:22:50.999Z</time></trkpt><trkpt lat="43.74740187117521" lon="11.280040975940441"><ele>84.19999999999999</ele><time>2026-04-19T09:22:51.999Z</time></trkpt><trkpt lat="43.74749975210548" lon="11.280014249219478"><ele>85.6</ele><time>2026-04-19T09:22:52.999Z</time></trkpt><trkpt lat="43.747599738953866" lon="11.279986456700676"><ele>87.0</ele><time>2026-04-19T09:22:53.999Z</time></trkpt><trkpt lat="43.747700693651744" lon="11.279961034868728"><ele>88.16666666666667</ele><time>2026-04-19T09:22:54.999Z</time></trkpt><trkpt lat="43.74780248897814" lon="11.27994118404285"><ele>89.33333333333333</ele><time>2026-04-19T09:22:55.999Z</time></trkpt><trkpt lat="43.747889263951635" lon="11.279919758053627"><ele>90.5</ele><time>2026-04-19T09:22:56.999Z</time></trkpt><trkpt lat="43.74796533533092" lon="11.279894145011756"><ele>91.66666666666666</ele><time>2026-04-19T09:22:57.999Z</time></trkpt><trkpt lat="43.74802795480593" lon="11.279913373346453"><ele>92.83333333333333</ele><time>2026-04-19T09:22:58.999Z</time></trkpt><trkpt lat="43.7481039699565" lon="11.2799231728859"><ele>94.0</ele><time>2026-04-19T09:23:00.998Z</time></trkpt><trkpt lat="43.74818481149631" lon="11.279937101285249"><ele>94.0</ele><time>2026-04-19T09:24:31.999Z</time></trkpt><trkpt lat="43.74829338456469" lon="11.280013500291242"><ele>94.0</ele><time>2026-04-19T09:24:33.999Z</time></trkpt><trkpt lat="43.748368192104785" lon="11.280034684032051"><ele>94.0</ele><time>2026-04-19T09:24:34.999Z</time></trkpt><trkpt lat="43.74845396483563" lon="11.28005059724955"><ele>94.0</ele><time>2026-04-19T09:24:35.999Z</time></trkpt><trkpt lat="43.74855184145754" lon="11.280058027332842"><ele>94.0</ele><time>2026-04-19T09:24:36.999Z</time></trkpt><trkpt lat="43.74864927172207" lon="11.28006415999569"><ele>95.25</ele><time>2026-04-19T09:24:37.999Z</time></trkpt><trkpt lat="43.74875766196244" lon="11.280061413548799"><ele>96.5</ele><time>2026-04-19T09:24:38.999Z</time></trkpt><trkpt lat="43.74888024318092" lon="11.280058671437718"><ele>97.75</ele><time>2026-04-19T09:24:39.999Z</time></trkpt><trkpt lat="43.74900437902721" lon="11.28006470203398"><ele>99.0</ele><time>2026-04-19T09:24:40.999Z</time></trkpt><trkpt lat="43.749129186785844" lon="11.280069825898435"><ele>99.0</ele><time>2026-04-19T09:24:41.999Z</time></trkpt><trkpt lat="43.7492523852951" lon="11.280065657255426"><ele>99.0</ele><time>2026-04-19T09:24:42.999Z</time></trkpt><trkpt lat="43.749373529351715" lon="11.280065369656242"><ele>99.0</ele><time>2026-04-19T09:24:43.999Z</time></trkpt><trkpt lat="43.74948427383457" lon="11.280083737181933"><ele>99.0</ele><time>2026-04-19T09:24:44.999Z</time></trkpt><trkpt lat="43.74959237297785" lon="11.280126756138237"><ele>98.2</ele><time>2026-04-19T09:24:45.999Z</time></trkpt><trkpt lat="43.74968923074443" lon="11.28021032666091"><ele>97.4</ele><time>2026-04-19T09:24:46.999Z</time></trkpt><trkpt lat="43.74978137332911" lon="11.280270749609707"><ele>96.6</ele><time>2026-04-19T09:24:47.999Z</time></trkpt><trkpt lat="43.74987618452905" lon="11.280282843803631"><ele>95.8</ele><time>2026-04-19T09:24:48.999Z</time></trkpt><trkpt lat="43.74997421282894" lon="11.28025845576003"><ele>95.0</ele><time>2026-04-19T09:24:49.999Z</time></trkpt><trkpt lat="43.75006718098409" lon="11.280187802198308"><ele>95.0</ele><time>2026-04-19T09:24:50.999Z</time></trkpt><trkpt lat="43.7501497424707" lon="11.280087194150855"><ele>95.0</ele><time>2026-04-19T09:24:51.999Z</time></trkpt><trkpt lat="43.75023020139753" lon="11.279998085261488"><ele>95.0</ele><time>2026-04-19T09:24:52.999Z</time></trkpt><trkpt lat="43.75032648146825" lon="11.27993664878773"><ele>95.0</ele><time>2026-04-19T09:24:53.999Z</time></trkpt><trkpt lat="43.75041902138123" lon="11.279870917837211"><ele>95.0</ele><time>2026-04-19T09:24:54.999Z</time></trkpt><trkpt lat="43.750498776318956" lon="11.27978125754711"><ele>94.2</ele><time>2026-04-19T09:24:55.999Z</time></trkpt><trkpt lat="43.75057693971681" lon="11.279692735003465"><ele>93.4</ele><time>2026-04-19T09:24:56.999Z</time></trkpt><trkpt lat="43.750650721968775" lon="11.279617124924554"><ele>92.6</ele><time>2026-04-19T09:24:57.999Z</time></trkpt><trkpt lat="43.7507402456268" lon="11.279567459908408"><ele>91.8</ele><time>2026-04-19T09:24:58.999Z</time></trkpt><trkpt lat="43.7508477249371" lon="11.27954680947376"><ele>91.0</ele><time>2026-04-19T09:24:59.999Z</time></trkpt><trkpt lat="43.75096268794588" lon="11.279546636345529"><ele>87.0</ele><time>2026-04-19T09:25:00.999Z</time></trkpt><trkpt lat="43.751082451632385" lon="11.279567748303883"><ele>83.0</ele><time>2026-04-19T09:25:01.999Z</time></trkpt><trkpt lat="43.75120408200284" lon="11.279611119813177"><ele>79.0</ele><time>2026-04-19T09:25:02.999Z</time></trkpt><trkpt lat="43.75132816127321" lon="11.27966977843299"><ele>75.0</ele><time>2026-04-19T09:25:03.999Z</time></trkpt><trkpt lat="43.751461821465234" lon="11.279741954434366"><ele>76.5</ele><time>2026-04-19T09:25:04.999Z</time></trkpt><trkpt lat="43.75159496390417" lon="11.279820909448464"><ele>78.0</ele><time>2026-04-19T09:25:05.999Z</time></trkpt><trkpt lat="43.751721878371654" lon="11.279900193844332"><ele>79.5</ele><time>2026-04-19T09:25:06.999Z</time></trkpt><trkpt lat="43.751842503993366" lon="11.279981046207928"><ele>81.0</ele><time>2026-04-19T09:25:07.999Z</time></trkpt><trkpt lat="43.75195611466608" lon="11.280068154373952"><ele>77.25</ele><time>2026-04-19T09:25:08.999Z</time></trkpt><trkpt lat="43.75205913906275" lon="11.280163438803223"><ele>73.5</ele><time>2026-04-19T09:25:09.999Z</time></trkpt><trkpt lat="43.75215532133076" lon="11.280266439228264"><ele>69.75</ele><time>2026-04-19T09:25:10.999Z</time></trkpt><trkpt lat="43.75224615985886" lon="11.280377885807686"><ele>66.0</ele><time>2026-04-19T09:25:11.999Z</time></trkpt><trkpt lat="43.75232863990689" lon="11.28049603788754"><ele>65.66666666666667</ele><time>2026-04-19T09:25:12.999Z</time></trkpt><trkpt lat="43.752399129389524" lon="11.28061681568136"><ele>65.33333333333333</ele><time>2026-04-19T09:25:13.999Z</time></trkpt><trkpt lat="43.75246146392537" lon="11.280721833131796"><ele>65.0</ele><time>2026-04-19T09:25:14.999Z</time></trkpt><trkpt lat="43.752521436539965" lon="11.280811169333706"><ele>64.66666666666666</ele><time>2026-04-19T09:25:15.999Z</time></trkpt><trkpt lat="43.75257480316346" lon="11.280894783496398"><ele>64.33333333333333</ele><time>2026-04-19T09:25:16.998Z</time></trkpt><trkpt lat="43.7526172084943" lon="11.280966300173779"><ele>64.0</ele><time>2026-04-19T09:25:17.998Z</time></trkpt><trkpt lat="43.75267340029573" lon="11.281055239330408"><ele>63.99999999999999</ele><time>2026-04-19T09:25:19.998Z</time></trkpt><trkpt lat="43.75273328203608" lon="11.281127314418388"><ele>64.0</ele><time>2026-04-19T09:25:25.998Z</time></trkpt><trkpt lat="43.752668592418445" lon="11.281275707997532"><ele>64.0</ele><time>2026-04-19T09:25:27.998Z</time></trkpt><trkpt lat="43.75263323982188" lon="11.281352097859129"><ele>64.0</ele><time>2026-04-19T09:25:28.998Z</time></trkpt><trkpt lat="43.75260204937471" lon="11.28144077098604"><ele>63.99999999999999</ele><time>2026-04-19T09:25:29.998Z</time></trkpt><trkpt lat="43.752568251764245" lon="11.281532646736448"><ele>64.0</ele><time>2026-04-19T09:25:30.998Z</time></trkpt><trkpt lat="43.75253040809025" lon="11.28162891424993"><ele>63.99999999999999</ele><time>2026-04-19T09:25:31.998Z</time></trkpt><trkpt lat="43.75249177317091" lon="11.28172966058426"><ele>64.0</ele><time>2026-04-19T09:25:32.998Z</time></trkpt><trkpt lat="43.752448540343586" lon="11.28183241674003"><ele>64.0</ele><time>2026-04-19T09:25:33.998Z</time></trkpt><trkpt lat="43.75240080458899" lon="11.281928554192344"><ele>64.0</ele><time>2026-04-19T09:25:34.998Z</time></trkpt><trkpt lat="43.752348720827364" lon="11.282024400833631"><ele>63.99999999999999</ele><time>2026-04-19T09:25:35.998Z</time></trkpt><trkpt lat="43.752296661475555" lon="11.282120291691239"><ele>64.0</ele><time>2026-04-19T09:25:36.998Z</time></trkpt><trkpt lat="43.75223475465602" lon="11.282207915198223"><ele>63.49999999999999</ele><time>2026-04-19T09:25:37.998Z</time></trkpt><trkpt lat="43.752163403394846" lon="11.28228755271922"><ele>63.0</ele><time>2026-04-19T09:25:38.998Z</time></trkpt><trkpt lat="43.752094617909925" lon="11.282369637086676"><ele>62.5</ele><time>2026-04-19T09:25:39.998Z</time></trkpt><trkpt lat="43.752025662468405" lon="11.282444366435051"><ele>62.0</ele><time>2026-04-19T09:25:40.998Z</time></trkpt><trkpt lat="43.75195341670374" lon="11.282505931760904"><ele>61.49999999999999</ele><time>2026-04-19T09:25:42Z</time></trkpt><trkpt lat="43.75188522033466" lon="11.282566490129234"><ele>61.0</ele><time>2026-04-19T09:25:43Z</time></trkpt><trkpt lat="43.75181993045888" lon="11.282631445014655"><ele>62.49999999999999</ele><time>2026-04-19T09:25:44Z</time></trkpt><trkpt lat="43.75175755187293" lon="11.28270116079655"><ele>64.0</ele><time>2026-04-19T09:25:45Z</time></trkpt><trkpt lat="43.75169760545156" lon="11.282784563880693"><ele>65.5</ele><time>2026-04-19T09:25:46Z</time></trkpt><trkpt lat="43.751641867927496" lon="11.282873140837099"><ele>67.0</ele><time>2026-04-19T09:25:47Z</time></trkpt><trkpt lat="43.751589932461656" lon="11.282975429827937"><ele>68.5</ele><time>2026-04-19T09:25:48Z</time></trkpt><trkpt lat="43.751531407273895" lon="11.283077344818743"><ele>70.0</ele><time>2026-04-19T09:25:49Z</time></trkpt><trkpt lat="43.751471171572156" lon="11.283183750484291"><ele>70.0</ele><time>2026-04-19T09:25:50Z</time></trkpt><trkpt lat="43.751408427021154" lon="11.283289305653456"><ele>70.0</ele><time>2026-04-19T09:25:51Z</time></trkpt><trkpt lat="43.75134554433932" lon="11.28338915862656"><ele>70.0</ele><time>2026-04-19T09:25:52Z</time></trkpt><trkpt lat="43.7512842370909" lon="11.283486515910582"><ele>70.0</ele><time>2026-04-19T09:25:53Z</time></trkpt><trkpt lat="43.75122618220329" lon="11.283572586533714"><ele>70.0</ele><time>2026-04-19T09:25:54Z</time></trkpt><trkpt lat="43.751166629990095" lon="11.283651303842012"><ele>70.0</ele><time>2026-04-19T09:25:55Z</time></trkpt><trkpt lat="43.75109152649906" lon="11.283717694406576"><ele>70.0</ele><time>2026-04-19T09:25:56Z</time></trkpt><trkpt lat="43.751009410845064" lon="11.283770611614223"><ele>70.0</ele><time>2026-04-19T09:25:57Z</time></trkpt><trkpt lat="43.75092630272583" lon="11.283821883570212"><ele>70.0</ele><time>2026-04-19T09:25:58Z</time></trkpt><trkpt lat="43.75085004877283" lon="11.283878726068005"><ele>70.0</ele><time>2026-04-19T09:25:59Z</time></trkpt><trkpt lat="43.75079139040845" lon="11.28392730662372"><ele>70.0</ele><time>2026-04-19T09:26:00Z</time></trkpt><trkpt lat="43.75073596841307" lon="11.28397526007526"><ele>71.8</ele><time>2026-04-19T09:26:01Z</time></trkpt><trkpt lat="43.75065864453945" lon="11.284048786892088"><ele>73.6</ele><time>2026-04-19T09:26:03Z</time></trkpt><trkpt lat="43.750581132487916" lon="11.284129358527556"><ele>75.4</ele><time>2026-04-19T09:26:05Z</time></trkpt><trkpt lat="43.75049889070283" lon="11.284214103215804"><ele>77.2</ele><time>2026-04-19T09:26:07Z</time></trkpt><trkpt lat="43.75041565711524" lon="11.284293972623281"><ele>79.0</ele><time>2026-04-19T09:26:09Z</time></trkpt><trkpt lat="43.75032468602094" lon="11.284405662749458"><ele>79.0</ele><time>2026-04-19T09:26:11Z</time></trkpt><trkpt lat="43.75027550798681" lon="11.28446217476413"><ele>79.0</ele><time>2026-04-19T09:26:12Z</time></trkpt><trkpt lat="43.75022656332574" lon="11.284529978447562"><ele>79.0</ele><time>2026-04-19T09:26:13Z</time></trkpt><trkpt lat="43.750155520770484" lon="11.284645048945658"><ele>79.0</ele><time>2026-04-19T09:26:15Z</time></trkpt><trkpt lat="43.75010491255864" lon="11.28472136591534"><ele>79.0</ele><time>2026-04-19T09:26:17Z</time></trkpt><trkpt lat="43.75005418959888" lon="11.284791822997866"><ele>79.0</ele><time>2026-04-19T09:26:19Z</time></trkpt><trkpt lat="43.749998375180695" lon="11.284861833857471"><ele>80.6</ele><time>2026-04-19T09:26:41.999Z</time></trkpt><trkpt lat="43.74992057179686" lon="11.284937794108895"><ele>82.2</ele><time>2026-04-19T09:26:43.999Z</time></trkpt><trkpt lat="43.74997089107727" lon="11.28511295246503"><ele>83.8</ele><time>2026-04-19T09:26:44.999Z</time></trkpt><trkpt lat="43.74996087190711" lon="11.285219953115266"><ele>85.39999999999999</ele><time>2026-04-19T09:26:45.999Z</time></trkpt><trkpt lat="43.749954924265815" lon="11.285316114191463"><ele>87.0</ele><time>2026-04-19T09:26:46.999Z</time></trkpt><trkpt lat="43.749980353077845" lon="11.285470231466526"><ele>87.0</ele><time>2026-04-19T09:26:48.999Z</time></trkpt><trkpt lat="43.75008963882546" lon="11.28557204354486"><ele>87.0</ele><time>2026-04-19T09:26:50.999Z</time></trkpt><trkpt lat="43.750165915362196" lon="11.285613139719445"><ele>87.0</ele><time>2026-04-19T09:26:51.999Z</time></trkpt><trkpt lat="43.75025125917732" lon="11.285660572940424"><ele>87.0</ele><time>2026-04-19T09:26:52.999Z</time></trkpt><trkpt lat="43.750339568676374" lon="11.285710696823537"><ele>87.0</ele><time>2026-04-19T09:26:53.999Z</time></trkpt><trkpt lat="43.75043179350909" lon="11.285761999246374"><ele>83.19999999999999</ele><time>2026-04-19T09:26:54.999Z</time></trkpt><trkpt lat="43.75052615144582" lon="11.285812986101181"><ele>79.39999999999999</ele><time>2026-04-19T09:26:55.999Z</time></trkpt><trkpt lat="43.75062216160599" lon="11.285861204395365"><ele>75.6</ele><time>2026-04-19T09:26:56.999Z</time></trkpt><trkpt lat="43.75071804265042" lon="11.285917186780802"><ele>71.8</ele><time>2026-04-19T09:26:57.999Z</time></trkpt><trkpt lat="43.75080683380705" lon="11.285979159131413"><ele>68.0</ele><time>2026-04-19T09:26:58.999Z</time></trkpt><trkpt lat="43.750893019027096" lon="11.286038679336587"><ele>68.0</ele><time>2026-04-19T09:26:59.999Z</time></trkpt><trkpt lat="43.750976115483475" lon="11.286097216142151"><ele>68.0</ele><time>2026-04-19T09:27:00.999Z</time></trkpt><trkpt lat="43.75105856915506" lon="11.28615018489339"><ele>68.0</ele><time>2026-04-19T09:27:01.999Z</time></trkpt><trkpt lat="43.75113925061749" lon="11.286202258126762"><ele>68.0</ele><time>2026-04-19T09:27:02.999Z</time></trkpt><trkpt lat="43.751221195120394" lon="11.286255646155778"><ele>68.0</ele><time>2026-04-19T09:27:03.999Z</time></trkpt><trkpt lat="43.75130054131483" lon="11.286308615142982"><ele>66.83333333333334</ele><time>2026-04-19T09:27:04.999Z</time></trkpt><trkpt lat="43.75137387633662" lon="11.286364602325259"><ele>65.66666666666667</ele><time>2026-04-19T09:27:05.999Z</time></trkpt><trkpt lat="43.75143944679303" lon="11.286418802335387"><ele>64.5</ele><time>2026-04-19T09:27:06.999Z</time></trkpt><trkpt lat="43.75150352499623" lon="11.286467781875496"><ele>63.33333333333333</ele><time>2026-04-19T09:27:07.999Z</time></trkpt><trkpt lat="43.75156688087763" lon="11.286515748846185"><ele>62.166666666666664</ele><time>2026-04-19T09:27:08.999Z</time></trkpt><trkpt lat="43.75163830631871" lon="11.286558176028521"><ele>61.0</ele><time>2026-04-19T09:27:09.999Z</time></trkpt><trkpt lat="43.7517099177967" lon="11.286605446554011"><ele>60.83333333333333</ele><time>2026-04-19T09:27:10.999Z</time></trkpt><trkpt lat="43.75178071107757" lon="11.28665609877631"><ele>60.666666666666664</ele><time>2026-04-19T09:27:11.999Z</time></trkpt><trkpt lat="43.75184975464051" lon="11.286704829491136"><ele>60.5</ele><time>2026-04-19T09:27:12.999Z</time></trkpt><trkpt lat="43.75191585786721" lon="11.286747581673119"><ele>60.33333333333333</ele><time>2026-04-19T09:27:13.999Z</time></trkpt><trkpt lat="43.75197401351263" lon="11.2867904117827"><ele>60.166666666666664</ele><time>2026-04-19T09:27:14.999Z</time></trkpt><trkpt lat="43.75207980319041" lon="11.286877922540489"><ele>60.0</ele><time>2026-04-19T09:27:16.999Z</time></trkpt><trkpt lat="43.75214063371128" lon="11.286940389592626"><ele>59.8</ele><time>2026-04-19T09:27:17.999Z</time></trkpt><trkpt lat="43.752216405745614" lon="11.286995716060497"><ele>59.6</ele><time>2026-04-19T09:27:18.999Z</time></trkpt><trkpt lat="43.75230131962813" lon="11.287058072457697"><ele>59.400000000000006</ele><time>2026-04-19T09:27:19.999Z</time></trkpt><trkpt lat="43.75239111765441" lon="11.287130969122517"><ele>59.2</ele><time>2026-04-19T09:27:20.999Z</time></trkpt><trkpt lat="43.752487235318604" lon="11.28719265327265"><ele>59.0</ele><time>2026-04-19T09:27:21.999Z</time></trkpt><trkpt lat="43.75258037433976" lon="11.287248230270887"><ele>58.66666666666667</ele><time>2026-04-19T09:27:22.999Z</time></trkpt><trkpt lat="43.75266597416091" lon="11.287299218154836"><ele>58.333333333333336</ele><time>2026-04-19T09:27:23.999Z</time></trkpt><trkpt lat="43.75274775690352" lon="11.287349896357503"><ele>58.0</ele><time>2026-04-19T09:27:24.999Z</time></trkpt><trkpt lat="43.75282156479102" lon="11.287397260089712"><ele>57.66666666666667</ele><time>2026-04-19T09:27:25.999Z</time></trkpt><trkpt lat="43.75289518373812" lon="11.287443160930685"><ele>57.333333333333336</ele><time>2026-04-19T09:27:26.999Z</time></trkpt><trkpt lat="43.75297058011262" lon="11.287491841129428"><ele>57.0</ele><time>2026-04-19T09:27:27.999Z</time></trkpt><trkpt lat="43.75304375415054" lon="11.287536051994671"><ele>57.0</ele><time>2026-04-19T09:27:28.999Z</time></trkpt><trkpt lat="43.75311996353062" lon="11.28758398474995"><ele>57.0</ele><time>2026-04-19T09:27:29.999Z</time></trkpt><trkpt lat="43.7532035632377" lon="11.287632624854789"><ele>57.0</ele><time>2026-04-19T09:27:30.998Z</time></trkpt><trkpt lat="43.753295255572525" lon="11.287686014144308"><ele>57.0</ele><time>2026-04-19T09:27:31.998Z</time></trkpt><trkpt lat="43.75339017838525" lon="11.287748220246472"><ele>57.0</ele><time>2026-04-19T09:27:32.998Z</time></trkpt><trkpt lat="43.753487667909816" lon="11.287812436141335"><ele>57.0</ele><time>2026-04-19T09:27:33.998Z</time></trkpt><trkpt lat="43.753565839996114" lon="11.287860467229741"><ele>57.0</ele><time>2026-04-19T09:27:34.998Z</time></trkpt><trkpt lat="43.75367151916524" lon="11.28792001190488"><ele>57.0</ele><time>2026-04-19T09:27:36.998Z</time></trkpt><trkpt lat="43.753790904402386" lon="11.288005355771181"><ele>57.0</ele><time>2026-04-19T09:27:38.998Z</time></trkpt><trkpt lat="43.75387110101221" lon="11.288048482823939"><ele>57.0</ele><time>2026-04-19T09:27:39.998Z</time></trkpt><trkpt lat="43.75395825665327" lon="11.288097498437708"><ele>56.833333333333336</ele><time>2026-04-19T09:27:40.998Z</time></trkpt><trkpt lat="43.754043286465716" lon="11.28815363992698"><ele>56.66666666666667</ele><time>2026-04-19T09:27:41.998Z</time></trkpt><trkpt lat="43.75411969258134" lon="11.288201786047146"><ele>56.5</ele><time>2026-04-19T09:27:42.998Z</time></trkpt><trkpt lat="43.75419013335572" lon="11.288241048406038"><ele>56.333333333333336</ele><time>2026-04-19T09:27:43.998Z</time></trkpt><trkpt lat="43.75425438427986" lon="11.288278464149968"><ele>56.16666666666667</ele><time>2026-04-19T09:27:44.998Z</time></trkpt><trkpt lat="43.754348219812705" lon="11.28834415705036"><ele>56.0</ele><time>2026-04-19T09:27:46.998Z</time></trkpt><trkpt lat="43.7544046639913" lon="11.288383527222301"><ele>56.00000000000001</ele><time>2026-04-19T09:27:49Z</time></trkpt><trkpt lat="43.754467254585876" lon="11.288415413498473"><ele>56.0</ele><time>2026-04-19T09:27:51Z</time></trkpt><trkpt lat="43.75459404878798" lon="11.288494705775227"><ele>56.0</ele><time>2026-04-19T09:27:53Z</time></trkpt><trkpt lat="43.7546602874695" lon="11.288540853188639"><ele>56.0</ele><time>2026-04-19T09:27:54Z</time></trkpt><trkpt lat="43.7547360878542" lon="11.288583530504912"><ele>56.00000000000001</ele><time>2026-04-19T09:27:55Z</time></trkpt><trkpt lat="43.75481365566383" lon="11.288628810176423"><ele>56.0</ele><time>2026-04-19T09:27:56Z</time></trkpt><trkpt lat="43.754879444277655" lon="11.288673351826937"><ele>56.00000000000001</ele><time>2026-04-19T09:27:57Z</time></trkpt><trkpt lat="43.75493758665225" lon="11.288713981401566"><ele>56.0</ele><time>2026-04-19T09:27:58Z</time></trkpt><trkpt lat="43.75499536694593" lon="11.288753445311466"><ele>56.0</ele><time>2026-04-19T09:27:59Z</time></trkpt><trkpt lat="43.75505843886718" lon="11.288791980249513"><ele>56.0</ele><time>2026-04-19T09:28:00Z</time></trkpt><trkpt lat="43.75513382930149" lon="11.288836228527966"><ele>56.00000000000001</ele><time>2026-04-19T09:28:01Z</time></trkpt><trkpt lat="43.75521852097447" lon="11.288881528512617"><ele>56.0</ele><time>2026-04-19T09:28:02Z</time></trkpt><trkpt lat="43.7553051555155" lon="11.288933906165907"><ele>55.833333333333336</ele><time>2026-04-19T09:28:03Z</time></trkpt><trkpt lat="43.755390906458146" lon="11.288988172201135"><ele>55.66666666666667</ele><time>2026-04-19T09:28:04Z</time></trkpt><trkpt lat="43.75547261521318" lon="11.289035441548934"><ele>55.5</ele><time>2026-04-19T09:28:05Z</time></trkpt><trkpt lat="43.7555465346928" lon="11.289084129171812"><ele>55.33333333333333</ele><time>2026-04-19T09:28:06Z</time></trkpt><trkpt lat="43.7556124571724" lon="11.289126895929137"><ele>55.166666666666664</ele><time>2026-04-19T09:28:07Z</time></trkpt><trkpt lat="43.75567228177975" lon="11.28916724265607"><ele>55.0</ele><time>2026-04-19T09:28:08Z</time></trkpt><trkpt lat="43.75577627689943" lon="11.289222757920673"><ele>54.99999999999999</ele><time>2026-04-19T09:28:10Z</time></trkpt><trkpt lat="43.75584905295092" lon="11.289263228868657"><ele>55.0</ele><time>2026-04-19T09:28:12Z</time></trkpt><trkpt lat="43.755915664607485" lon="11.289305465859963"><ele>55.0</ele><time>2026-04-19T09:29:04.999Z</time></trkpt><trkpt lat="43.7559771137794" lon="11.289333952507032"><ele>55.0</ele><time>2026-04-19T09:29:06.999Z</time></trkpt><trkpt lat="43.756045570974045" lon="11.289370882585807"><ele>54.99999999999999</ele><time>2026-04-19T09:29:08.999Z</time></trkpt><trkpt lat="43.75607311010798" lon="11.289473267175275"><ele>55.0</ele><time>2026-04-19T09:29:10.999Z</time></trkpt><trkpt lat="43.75603343279842" lon="11.289650317033697"><ele>54.99999999999999</ele><time>2026-04-19T09:29:12.999Z</time></trkpt><trkpt lat="43.756020419683956" lon="11.289740769868999"><ele>55.0</ele><time>2026-04-19T09:29:13.999Z</time></trkpt><trkpt lat="43.75600832549857" lon="11.289851278948895"><ele>55.0</ele><time>2026-04-19T09:29:14.999Z</time></trkpt><trkpt lat="43.756002292616465" lon="11.289983978465983"><ele>55.0</ele><time>2026-04-19T09:29:15.999Z</time></trkpt><trkpt lat="43.755997823455424" lon="11.290109087223861"><ele>54.99999999999999</ele><time>2026-04-19T09:29:16.999Z</time></trkpt><trkpt lat="43.75599068768397" lon="11.290233794684525"><ele>55.0</ele><time>2026-04-19T09:29:17.999Z</time></trkpt><trkpt lat="43.75599006235397" lon="11.290360477895087"><ele>55.2</ele><time>2026-04-19T09:29:18.999Z</time></trkpt><trkpt lat="43.755991976211355" lon="11.29049321540741"><ele>55.4</ele><time>2026-04-19T09:29:19.999Z</time></trkpt><trkpt lat="43.75598714281421" lon="11.290618205833125"><ele>55.599999999999994</ele><time>2026-04-19T09:29:20.999Z</time></trkpt><trkpt lat="43.75598313268056" lon="11.290746100260256"><ele>55.8</ele><time>2026-04-19T09:29:21.999Z</time></trkpt><trkpt lat="43.75598439388661" lon="11.290874375697886"><ele>56.0</ele><time>2026-04-19T09:29:22.999Z</time></trkpt><trkpt lat="43.75599335618214" lon="11.29101275349197"><ele>55.8</ele><time>2026-04-19T09:29:23.999Z</time></trkpt><trkpt lat="43.75600711385269" lon="11.291153970146409"><ele>55.599999999999994</ele><time>2026-04-19T09:29:24.999Z</time></trkpt><trkpt lat="43.75601883510419" lon="11.291294035283476"><ele>55.4</ele><time>2026-04-19T09:29:25.999Z</time></trkpt><trkpt lat="43.7560364183559" lon="11.291435924231653"><ele>55.2</ele><time>2026-04-19T09:29:26.999Z</time></trkpt><trkpt lat="43.75605472594173" lon="11.291573775765885"><ele>55.0</ele><time>2026-04-19T09:29:27.999Z</time></trkpt><trkpt lat="43.756069149574245" lon="11.291710496843095"><ele>55.0</ele><time>2026-04-19T09:29:28.999Z</time></trkpt><trkpt lat="43.756085416886" lon="11.291854528954659"><ele>55.0</ele><time>2026-04-19T09:29:29.999Z</time></trkpt><trkpt lat="43.756100486578774" lon="11.291993714453028"><ele>55.0</ele><time>2026-04-19T09:29:30.999Z</time></trkpt><trkpt lat="43.756115769413675" lon="11.292130644335318"><ele>55.0</ele><time>2026-04-19T09:29:31.999Z</time></trkpt><trkpt lat="43.75612808778142" lon="11.292263361572864"><ele>55.0</ele><time>2026-04-19T09:29:32.999Z</time></trkpt><trkpt lat="43.75613141517515" lon="11.292397979998391"><ele>54.99999999999999</ele><time>2026-04-19T09:29:33.999Z</time></trkpt><trkpt lat="43.7561258676068" lon="11.292516029188002"><ele>55.0</ele><time>2026-04-19T09:29:34.999Z</time></trkpt><trkpt lat="43.75611691096325" lon="11.292620545012298"><ele>55.0</ele><time>2026-04-19T09:29:35.998Z</time></trkpt><trkpt lat="43.756108326103906" lon="11.29270711576012"><ele>55.0</ele><time>2026-04-19T09:29:36.998Z</time></trkpt><trkpt lat="43.756104435248496" lon="11.292865485915922"><ele>54.99999999999999</ele><time>2026-04-19T09:29:38.998Z</time></trkpt><trkpt lat="43.75611629813128" lon="11.29296089363551"><ele>55.0</ele><time>2026-04-19T09:29:39.997Z</time></trkpt><trkpt lat="43.756106693095056" lon="11.293073678151186"><ele>54.8</ele><time>2026-04-19T09:29:40.997Z</time></trkpt><trkpt lat="43.75609080278399" lon="11.293192174835696"><ele>54.6</ele><time>2026-04-19T09:29:41.997Z</time></trkpt><trkpt lat="43.756072471347444" lon="11.293316303474477"><ele>54.400000000000006</ele><time>2026-04-19T09:29:42.997Z</time></trkpt><trkpt lat="43.75605886622343" lon="11.293439997580569"><ele>54.2</ele><time>2026-04-19T09:29:43.997Z</time></trkpt><trkpt lat="43.756040396357974" lon="11.293558300251389"><ele>54.0</ele><time>2026-04-19T09:29:44.997Z</time></trkpt><trkpt lat="43.7560059220045" lon="11.293679790611115"><ele>54.400000000000006</ele><time>2026-04-19T09:29:45.997Z</time></trkpt><trkpt lat="43.7559779372251" lon="11.293802816850366"><ele>54.800000000000004</ele><time>2026-04-19T09:29:46.997Z</time></trkpt><trkpt lat="43.75596251457187" lon="11.293922525935123"><ele>55.199999999999996</ele><time>2026-04-19T09:29:47.997Z</time></trkpt><trkpt lat="43.75595537175836" lon="11.294026717091977"><ele>55.599999999999994</ele><time>2026-04-19T09:29:48.997Z</time></trkpt><trkpt lat="43.75594543381297" lon="11.29412244191461"><ele>56.0</ele><time>2026-04-19T09:29:49.997Z</time></trkpt><trkpt lat="43.75591783325235" lon="11.294296622817926"><ele>56.00000000000001</ele><time>2026-04-19T09:29:51.997Z</time></trkpt><trkpt lat="43.75591133556589" lon="11.294400580501767"><ele>56.0</ele><time>2026-04-19T09:29:52.997Z</time></trkpt><trkpt lat="43.75590223400116" lon="11.294514929437042"><ele>56.0</ele><time>2026-04-19T09:29:53.999Z</time></trkpt><trkpt lat="43.755873428597106" lon="11.294637110917096"><ele>56.0</ele><time>2026-04-19T09:29:54.999Z</time></trkpt><trkpt lat="43.7558485641179" lon="11.294758474241286"><ele>56.00000000000001</ele><time>2026-04-19T09:29:55.999Z</time></trkpt><trkpt lat="43.75584686769226" lon="11.294883258471417"><ele>56.0</ele><time>2026-04-19T09:29:56.999Z</time></trkpt><trkpt lat="43.755844667116385" lon="11.295016993320942"><ele>56.16666666666667</ele><time>2026-04-19T09:29:57.999Z</time></trkpt><trkpt lat="43.75583802704423" lon="11.295140709224816"><ele>56.333333333333336</ele><time>2026-04-19T09:29:58.999Z</time></trkpt><trkpt lat="43.75581975329337" lon="11.295271399875093"><ele>56.5</ele><time>2026-04-19T09:29:59.999Z</time></trkpt><trkpt lat="43.75580284707372" lon="11.295379910655516"><ele>56.66666666666667</ele><time>2026-04-19T09:30:00.999Z</time></trkpt><trkpt lat="43.755776621749675" lon="11.29549518916053"><ele>56.833333333333336</ele><time>2026-04-19T09:30:01.999Z</time></trkpt><trkpt lat="43.75575388111866" lon="11.29560651621014"><ele>57.0</ele><time>2026-04-19T09:30:02.999Z</time></trkpt><trkpt lat="43.755731075959" lon="11.295709636316252"><ele>57.166666666666664</ele><time>2026-04-19T09:30:03.999Z</time></trkpt><trkpt lat="43.75571149787855" lon="11.295809148077048"><ele>57.33333333333333</ele><time>2026-04-19T09:30:04.999Z</time></trkpt><trkpt lat="43.75569800239089" lon="11.29591391497941"><ele>57.5</ele><time>2026-04-19T09:30:05.999Z</time></trkpt><trkpt lat="43.75567749389964" lon="11.296014733829848"><ele>57.666666666666664</ele><time>2026-04-19T09:30:06.999Z</time></trkpt><trkpt lat="43.755662948241245" lon="11.296116026800824"><ele>57.83333333333333</ele><time>2026-04-19T09:30:07.999Z</time></trkpt><trkpt lat="43.755650513717164" lon="11.296215437481537"><ele>58.0</ele><time>2026-04-19T09:30:08.999Z</time></trkpt><trkpt lat="43.75564325409069" lon="11.296320226873618"><ele>57.99999999999999</ele><time>2026-04-19T09:30:09.999Z</time></trkpt><trkpt lat="43.755631862555724" lon="11.296419712384157"><ele>58.0</ele><time>2026-04-19T09:30:10.999Z</time></trkpt><trkpt lat="43.755622844076235" lon="11.296524779160825"><ele>58.0</ele><time>2026-04-19T09:30:11.999Z</time></trkpt><trkpt lat="43.75561699558655" lon="11.296613629734653"><ele>58.0</ele><time>2026-04-19T09:30:12.999Z</time></trkpt><trkpt lat="43.75558856125769" lon="11.296776419830309"><ele>57.99999999999999</ele><time>2026-04-19T09:30:14.999Z</time></trkpt><trkpt lat="43.755567311819064" lon="11.296925106617378"><ele>58.0</ele><time>2026-04-19T09:30:16.999Z</time></trkpt><trkpt lat="43.75554035767715" lon="11.297083342200622"><ele>57.99999999999999</ele><time>2026-04-19T09:30:18.999Z</time></trkpt><trkpt lat="43.75551218621449" lon="11.297227555646613"><ele>58.0</ele><time>2026-04-19T09:30:20.999Z</time></trkpt><trkpt lat="43.75548493827968" lon="11.297340512098494"><ele>58.0</ele><time>2026-04-19T09:30:22.999Z</time></trkpt><trkpt lat="43.755468216038324" lon="11.29743539352961"><ele>58.0</ele><time>2026-04-19T09:30:24.999Z</time></trkpt><trkpt lat="43.75545052094373" lon="11.29756610536553"><ele>57.99999999999999</ele><time>2026-04-19T09:30:27.999Z</time></trkpt><trkpt lat="43.75543717467147" lon="11.297664669025037"><ele>58.0</ele><time>2026-04-19T09:30:30.999Z</time></trkpt><trkpt lat="43.75542763815515" lon="11.29775231601728"><ele>58.2</ele><time>2026-04-19T09:30:33.999Z</time></trkpt><trkpt lat="43.75541109314767" lon="11.29786084309296"><ele>58.4</ele><time>2026-04-19T09:30:35.999Z</time></trkpt><trkpt lat="43.755373616701775" lon="11.29798936570834"><ele>58.60000000000001</ele><time>2026-04-19T09:30:37.999Z</time></trkpt><trkpt lat="43.755362974288126" lon="11.298150810047954"><ele>58.800000000000004</ele><time>2026-04-19T09:30:39.999Z</time></trkpt><trkpt lat="43.75532181189925" lon="11.298313954097402"><ele>59.0</ele><time>2026-04-19T09:30:41.999Z</time></trkpt><trkpt lat="43.75528540345298" lon="11.29839110614298"><ele>59.0</ele><time>2026-04-19T09:30:42.999Z</time></trkpt><trkpt lat="43.7552366400126" lon="11.298460660724599"><ele>59.0</ele><time>2026-04-19T09:30:43.999Z</time></trkpt><trkpt lat="43.755194125103685" lon="11.298533909588123"><ele>59.0</ele><time>2026-04-19T09:30:44.999Z</time></trkpt><trkpt lat="43.755171177897566" lon="11.298630410935452"><ele>59.0</ele><time>2026-04-19T09:30:45.999Z</time></trkpt><trkpt lat="43.75516736569713" lon="11.298732309701125"><ele>59.0</ele><time>2026-04-19T09:30:46.999Z</time></trkpt><trkpt lat="43.75518441660677" lon="11.298837569362187"><ele>59.0</ele><time>2026-04-19T09:30:47.999Z</time></trkpt><trkpt lat="43.75519805795165" lon="11.298942827584378"><ele>59.0</ele><time>2026-04-19T09:30:48.999Z</time></trkpt><trkpt lat="43.75519136343918" lon="11.29904727659903"><ele>59.00000000000001</ele><time>2026-04-19T09:30:49.999Z</time></trkpt><trkpt lat="43.75517888493014" lon="11.299157738599673"><ele>59.0</ele><time>2026-04-19T09:30:50.999Z</time></trkpt><trkpt lat="43.755165759846" lon="11.299261017911384"><ele>59.0</ele><time>2026-04-19T09:30:51.999Z</time></trkpt><trkpt lat="43.755149519361076" lon="11.29937154639464"><ele>59.0</ele><time>2026-04-19T09:30:52.999Z</time></trkpt><trkpt lat="43.755133477294834" lon="11.299485922091197"><ele>59.00000000000001</ele><time>2026-04-19T09:30:53.999Z</time></trkpt><trkpt lat="43.75512081892294" lon="11.299620042700528"><ele>59.0</ele><time>2026-04-19T09:30:54.999Z</time></trkpt><trkpt lat="43.75510762192612" lon="11.299748105663852"><ele>59.2</ele><time>2026-04-19T09:30:55.999Z</time></trkpt><trkpt lat="43.75509320781582" lon="11.299887835743435"><ele>59.400000000000006</ele><time>2026-04-19T09:30:56.999Z</time></trkpt><trkpt lat="43.755080105961476" lon="11.30002459937407"><ele>59.6</ele><time>2026-04-19T09:30:57.999Z</time></trkpt><trkpt lat="43.755063243540775" lon="11.300178952673598"><ele>59.8</ele><time>2026-04-19T09:30:58.999Z</time></trkpt><trkpt lat="43.755054968766935" lon="11.3003312477448"><ele>60.0</ele><time>2026-04-19T09:30:59.999Z</time></trkpt><trkpt lat="43.75503470318542" lon="11.300486354516071"><ele>59.6</ele><time>2026-04-19T09:31:00.999Z</time></trkpt><trkpt lat="43.75501765701995" lon="11.300643847837156"><ele>59.2</ele><time>2026-04-19T09:31:01.999Z</time></trkpt><trkpt lat="43.7550003558944" lon="11.30080038641222"><ele>58.8</ele><time>2026-04-19T09:31:02.998Z</time></trkpt><trkpt lat="43.75498297195189" lon="11.300949453236345"><ele>58.4</ele><time>2026-04-19T09:31:03.998Z</time></trkpt><trkpt lat="43.75497113735901" lon="11.301096030126502"><ele>58.0</ele><time>2026-04-19T09:31:04.998Z</time></trkpt><trkpt lat="43.75495442685905" lon="11.301239732143289"><ele>58.0</ele><time>2026-04-19T09:31:05.998Z</time></trkpt><trkpt lat="43.75493705212433" lon="11.301381093566889"><ele>58.0</ele><time>2026-04-19T09:31:06.998Z</time></trkpt><trkpt lat="43.7549209975412" lon="11.301523659559464"><ele>58.0</ele><time>2026-04-19T09:31:07.998Z</time></trkpt><trkpt lat="43.75490349486442" lon="11.30165434880389"><ele>58.0</ele><time>2026-04-19T09:31:08.998Z</time></trkpt><trkpt lat="43.75488467685259" lon="11.301791046891712"><ele>58.0</ele><time>2026-04-19T09:31:09.998Z</time></trkpt><trkpt lat="43.75488084530338" lon="11.301924208733329"><ele>58.0</ele><time>2026-04-19T09:31:10.998Z</time></trkpt><trkpt lat="43.75485685081921" lon="11.302063473527637"><ele>58.0</ele><time>2026-04-19T09:31:11.998Z</time></trkpt><trkpt lat="43.75483628846724" lon="11.302200200827176"><ele>58.0</ele><time>2026-04-19T09:31:12.998Z</time></trkpt><trkpt lat="43.754818842221944" lon="11.302339874215052"><ele>58.0</ele><time>2026-04-19T09:31:13.998Z</time></trkpt><trkpt lat="43.75480183884897" lon="11.302491242590374"><ele>58.0</ele><time>2026-04-19T09:31:14.998Z</time></trkpt><trkpt lat="43.754785829437346" lon="11.302624041684295"><ele>58.0</ele><time>2026-04-19T09:31:15.998Z</time></trkpt><trkpt lat="43.754770601171515" lon="11.302759731908443"><ele>58.0</ele><time>2026-04-19T09:31:16.998Z</time></trkpt><trkpt lat="43.754758182380954" lon="11.302893173105803"><ele>58.0</ele><time>2026-04-19T09:31:17.998Z</time></trkpt><trkpt lat="43.75474374628166" lon="11.303017486753907"><ele>58.0</ele><time>2026-04-19T09:31:18.998Z</time></trkpt><trkpt lat="43.754731906593946" lon="11.303139105335648"><ele>58.0</ele><time>2026-04-19T09:31:19.998Z</time></trkpt><trkpt lat="43.7547200562281" lon="11.303253948177698"><ele>58.166666666666664</ele><time>2026-04-19T09:31:20.998Z</time></trkpt><trkpt lat="43.75470600681401" lon="11.303362415525484"><ele>58.33333333333333</ele><time>2026-04-19T09:31:21.998Z</time></trkpt><trkpt lat="43.75469249307712" lon="11.303474582445983"><ele>58.5</ele><time>2026-04-19T09:31:22.998Z</time></trkpt><trkpt lat="43.75468380775267" lon="11.30358000563066"><ele>58.66666666666667</ele><time>2026-04-19T09:31:23.998Z</time></trkpt><trkpt lat="43.7546769023011" lon="11.303677519454165"><ele>58.833333333333336</ele><time>2026-04-19T09:31:24.998Z</time></trkpt><trkpt lat="43.75465619905444" lon="11.303841693803445"><ele>59.0</ele><time>2026-04-19T09:31:26.998Z</time></trkpt><trkpt lat="43.7546380107297" lon="11.304013880268164"><ele>59.00000000000001</ele><time>2026-04-19T09:31:28.998Z</time></trkpt><trkpt lat="43.754623875868674" lon="11.304110197529196"><ele>59.0</ele><time>2026-04-19T09:31:29.998Z</time></trkpt><trkpt lat="43.754611982634984" lon="11.304215361082548"><ele>59.0</ele><time>2026-04-19T09:31:30.998Z</time></trkpt><trkpt lat="43.75460001478464" lon="11.304326230446998"><ele>59.0</ele><time>2026-04-19T09:31:31.998Z</time></trkpt><trkpt lat="43.75458346180799" lon="11.304429804626997"><ele>59.00000000000001</ele><time>2026-04-19T09:31:32.998Z</time></trkpt><trkpt lat="43.75456749823302" lon="11.304527589320013"><ele>59.0</ele><time>2026-04-19T09:31:33.998Z</time></trkpt><trkpt lat="43.754554113902174" lon="11.304627482442681"><ele>59.00000000000001</ele><time>2026-04-19T09:31:34.998Z</time></trkpt><trkpt lat="43.75454193634963" lon="11.3047281992314"><ele>59.0</ele><time>2026-04-19T09:31:35.998Z</time></trkpt><trkpt lat="43.754536245681" lon="11.304839135982883"><ele>59.0</ele><time>2026-04-19T09:31:36.998Z</time></trkpt><trkpt lat="43.75451623865545" lon="11.304958168962342"><ele>59.0</ele><time>2026-04-19T09:31:37.998Z</time></trkpt><trkpt lat="43.754496692697714" lon="11.30507033722415"><ele>59.00000000000001</ele><time>2026-04-19T09:31:38.998Z</time></trkpt><trkpt lat="43.75448138062153" lon="11.305171692131257"><ele>59.0</ele><time>2026-04-19T09:31:39.998Z</time></trkpt><trkpt lat="43.75447017158284" lon="11.305265832408619"><ele>59.2</ele><time>2026-04-19T09:31:40.998Z</time></trkpt><trkpt lat="43.754450452134854" lon="11.305417351188392"><ele>59.400000000000006</ele><time>2026-04-19T09:31:42.998Z</time></trkpt><trkpt lat="43.754405742575145" lon="11.30553112293043"><ele>59.6</ele><time>2026-04-19T09:31:44.998Z</time></trkpt><trkpt lat="43.754315492392884" lon="11.305584035276304"><ele>59.8</ele><time>2026-04-19T09:31:46.998Z</time></trkpt><trkpt lat="43.754201211701194" lon="11.305575946713825"><ele>60.0</ele><time>2026-04-19T09:31:48.998Z</time></trkpt><trkpt lat="43.75408488463609" lon="11.305638952799406"><ele>59.666666666666664</ele><time>2026-04-19T09:31:50.998Z</time></trkpt><trkpt lat="43.754041075766814" lon="11.305714010832729"><ele>59.33333333333333</ele><time>2026-04-19T09:31:51.998Z</time></trkpt><trkpt lat="43.75401974835046" lon="11.305801906545025"><ele>59.0</ele><time>2026-04-19T09:31:52.998Z</time></trkpt><trkpt lat="43.75402210351861" lon="11.305907126241458"><ele>58.666666666666664</ele><time>2026-04-19T09:31:53.998Z</time></trkpt><trkpt lat="43.754048222098554" lon="11.306016206981901"><ele>58.33333333333333</ele><time>2026-04-19T09:31:54.998Z</time></trkpt><trkpt lat="43.7540959475865" lon="11.306118346049981"><ele>58.0</ele><time>2026-04-19T09:31:55.998Z</time></trkpt><trkpt lat="43.754151554100325" lon="11.306197822224382"><ele>57.99999999999999</ele><time>2026-04-19T09:31:56.998Z</time></trkpt><trkpt lat="43.75420199031348" lon="11.306260663485377"><ele>58.0</ele><time>2026-04-19T09:31:57.998Z</time></trkpt><trkpt lat="43.754251134375366" lon="11.306330146747179"><ele>58.0</ele><time>2026-04-19T09:31:58.998Z</time></trkpt><trkpt lat="43.75428670933934" lon="11.306411867112878"><ele>58.0</ele><time>2026-04-19T09:32:00Z</time></trkpt><trkpt lat="43.754285630941496" lon="11.30651989760999"><ele>57.99999999999999</ele><time>2026-04-19T09:32:01Z</time></trkpt><trkpt lat="43.754265061301766" lon="11.306635418766328"><ele>58.0</ele><time>2026-04-19T09:32:02Z</time></trkpt><trkpt lat="43.75424241449312" lon="11.306752434013635"><ele>58.2</ele><time>2026-04-19T09:32:03Z</time></trkpt><trkpt lat="43.754227230957696" lon="11.3068743366002"><ele>58.4</ele><time>2026-04-19T09:32:04Z</time></trkpt><trkpt lat="43.75421580956893" lon="11.306999951111075"><ele>58.60000000000001</ele><time>2026-04-19T09:32:05Z</time></trkpt><trkpt lat="43.754201288628" lon="11.307127726621356"><ele>58.800000000000004</ele><time>2026-04-19T09:32:06Z</time></trkpt><trkpt lat="43.7541835584568" lon="11.307264292159706"><ele>59.0</ele><time>2026-04-19T09:32:07Z</time></trkpt><trkpt lat="43.75416784222825" lon="11.307405972741856"><ele>59.2</ele><time>2026-04-19T09:32:08Z</time></trkpt><trkpt lat="43.75414919898783" lon="11.307547660698996"><ele>59.400000000000006</ele><time>2026-04-19T09:32:09Z</time></trkpt><trkpt lat="43.75412876163022" lon="11.307690169881667"><ele>59.6</ele><time>2026-04-19T09:32:10Z</time></trkpt><trkpt lat="43.75410746165152" lon="11.307834613385745"><ele>59.8</ele><time>2026-04-19T09:32:11Z</time></trkpt><trkpt lat="43.75408930458845" lon="11.307979103000543"><ele>60.0</ele><time>2026-04-19T09:32:12Z</time></trkpt><trkpt lat="43.75407190399993" lon="11.308121650075346"><ele>60.2</ele><time>2026-04-19T09:32:13Z</time></trkpt><trkpt lat="43.75405307396875" lon="11.3082633920911"><ele>60.4</ele><time>2026-04-19T09:32:14Z</time></trkpt><trkpt lat="43.754033761551355" lon="11.308403392529703"><ele>60.599999999999994</ele><time>2026-04-19T09:32:15Z</time></trkpt><trkpt lat="43.75401488633279" lon="11.308541671422454"><ele>60.8</ele><time>2026-04-19T09:32:16Z</time></trkpt><trkpt lat="43.75400238341079" lon="11.308671296784052"><ele>61.0</ele><time>2026-04-19T09:32:17Z</time></trkpt><trkpt lat="43.75398975614361" lon="11.308791669430926"><ele>60.99999999999999</ele><time>2026-04-19T09:32:18Z</time></trkpt><trkpt lat="43.75397357073786" lon="11.308902178775202"><ele>61.0</ele><time>2026-04-19T09:32:18.999Z</time></trkpt><trkpt lat="43.75395955796706" lon="11.309004399931132"><ele>61.0</ele><time>2026-04-19T09:32:19.999Z</time></trkpt><trkpt lat="43.75394631059528" lon="11.309113421055608"><ele>61.0</ele><time>2026-04-19T09:32:20.999Z</time></trkpt><trkpt lat="43.753931748791686" lon="11.309239519533039"><ele>60.99999999999999</ele><time>2026-04-19T09:32:21.999Z</time></trkpt><trkpt lat="43.7539162463575" lon="11.30938765883969"><ele>61.0</ele><time>2026-04-19T09:32:22.999Z</time></trkpt><trkpt lat="43.75390255394454" lon="11.30955633045962"><ele>61.0</ele><time>2026-04-19T09:32:23.999Z</time></trkpt><trkpt lat="43.75388887804205" lon="11.309720055959946"><ele>61.0</ele><time>2026-04-19T09:32:24.999Z</time></trkpt><trkpt lat="43.75387288213257" lon="11.309887727961097"><ele>61.0</ele><time>2026-04-19T09:32:25.999Z</time></trkpt><trkpt lat="43.75385491243983" lon="11.310044779935492"><ele>61.0</ele><time>2026-04-19T09:32:26.999Z</time></trkpt><trkpt lat="43.753838986441" lon="11.31019478860692"><ele>60.75</ele><time>2026-04-19T09:32:27.999Z</time></trkpt><trkpt lat="43.75382063945826" lon="11.310346158327764"><ele>60.5</ele><time>2026-04-19T09:32:28.999Z</time></trkpt><trkpt lat="43.75380077107553" lon="11.310497009051513"><ele>60.25</ele><time>2026-04-19T09:32:29.999Z</time></trkpt><trkpt lat="43.75377896660375" lon="11.310651497947216"><ele>60.0</ele><time>2026-04-19T09:32:30.999Z</time></trkpt><trkpt lat="43.75375497445641" lon="11.310808795832765"><ele>60.0</ele><time>2026-04-19T09:32:31.999Z</time></trkpt><trkpt lat="43.75373451889142" lon="11.310971694220967"><ele>60.0</ele><time>2026-04-19T09:32:32.999Z</time></trkpt><trkpt lat="43.75371185391686" lon="11.311132329582687"><ele>60.0</ele><time>2026-04-19T09:32:33.999Z</time></trkpt><trkpt lat="43.753689815689555" lon="11.311278927506017"><ele>60.0</ele><time>2026-04-19T09:32:34.999Z</time></trkpt><trkpt lat="43.75367129093069" lon="11.311418239413815"><ele>60.0</ele><time>2026-04-19T09:32:35.999Z</time></trkpt><trkpt lat="43.75365466736657" lon="11.311551261520423"><ele>60.2</ele><time>2026-04-19T09:32:36.999Z</time></trkpt><trkpt lat="43.75363459244082" lon="11.311684703903229"><ele>60.4</ele><time>2026-04-19T09:32:37.999Z</time></trkpt><trkpt lat="43.75361533640973" lon="11.311820788284535"><ele>60.599999999999994</ele><time>2026-04-19T09:32:38.999Z</time></trkpt><trkpt lat="43.75359682246216" lon="11.311959827324989"><ele>60.8</ele><time>2026-04-19T09:32:39.999Z</time></trkpt><trkpt lat="43.75357694109789" lon="11.312100491610737"><ele>61.0</ele><time>2026-04-19T09:32:40.999Z</time></trkpt><trkpt lat="43.75355817678235" lon="11.312246242825626"><ele>61.199999999999996</ele><time>2026-04-19T09:32:41.999Z</time></trkpt><trkpt lat="43.75353593356131" lon="11.312390002827554"><ele>61.39999999999999</ele><time>2026-04-19T09:32:42.999Z</time></trkpt><trkpt lat="43.75351062274697" lon="11.312537127958656"><ele>61.6</ele><time>2026-04-19T09:32:43.999Z</time></trkpt><trkpt lat="43.75349248681266" lon="11.312684994992441"><ele>61.8</ele><time>2026-04-19T09:32:44.999Z</time></trkpt><trkpt lat="43.75347308976865" lon="11.312832285744935"><ele>62.0</ele><time>2026-04-19T09:32:45.999Z</time></trkpt><trkpt lat="43.75345653297168" lon="11.31297032223905"><ele>62.400000000000006</ele><time>2026-04-19T09:32:46.999Z</time></trkpt><trkpt lat="43.75344078680262" lon="11.313093604622814"><ele>62.800000000000004</ele><time>2026-04-19T09:32:47.999Z</time></trkpt><trkpt lat="43.75342519089522" lon="11.31321711561434"><ele>63.2</ele><time>2026-04-19T09:32:48.999Z</time></trkpt><trkpt lat="43.753409782366276" lon="11.313333683451216"><ele>63.6</ele><time>2026-04-19T09:32:49.999Z</time></trkpt><trkpt lat="43.75339194070494" lon="11.313455743710358"><ele>64.0</ele><time>2026-04-19T09:32:50.999Z</time></trkpt><trkpt lat="43.75337290637793" lon="11.313581913940784"><ele>63.99999999999999</ele><time>2026-04-19T09:32:51.999Z</time></trkpt><trkpt lat="43.753357178039195" lon="11.313713164888455"><ele>64.0</ele><time>2026-04-19T09:32:52.999Z</time></trkpt><trkpt lat="43.75333870820546" lon="11.313837860121708"><ele>64.0</ele><time>2026-04-19T09:32:53.999Z</time></trkpt><trkpt lat="43.75331906200164" lon="11.313954162040792"><ele>64.0</ele><time>2026-04-19T09:32:54.999Z</time></trkpt><trkpt lat="43.75329963498044" lon="11.314054252677993"><ele>63.99999999999999</ele><time>2026-04-19T09:32:55.999Z</time></trkpt><trkpt lat="43.75328211786739" lon="11.314154637786693"><ele>64.0</ele><time>2026-04-19T09:32:56.999Z</time></trkpt><trkpt lat="43.75326251391738" lon="11.314259701012503"><ele>63.83333333333333</ele><time>2026-04-19T09:32:57.999Z</time></trkpt><trkpt lat="43.75324071272964" lon="11.31436204987966"><ele>63.666666666666664</ele><time>2026-04-19T09:32:58.999Z</time></trkpt><trkpt lat="43.753216940123764" lon="11.31446742522717"><ele>63.5</ele><time>2026-04-19T09:32:59.999Z</time></trkpt><trkpt lat="43.75319653828711" lon="11.31456631861474"><ele>63.33333333333333</ele><time>2026-04-19T09:33:00.999Z</time></trkpt><trkpt lat="43.75318060778779" lon="11.31466476564976"><ele>63.166666666666664</ele><time>2026-04-19T09:33:01.999Z</time></trkpt><trkpt lat="43.75316518600551" lon="11.314767968378414"><ele>63.0</ele><time>2026-04-19T09:33:02.999Z</time></trkpt><trkpt lat="43.75315410889344" lon="11.31487311878445"><ele>63.0</ele><time>2026-04-19T09:33:03.999Z</time></trkpt><trkpt lat="43.753139572406916" lon="11.31498257243023"><ele>63.0</ele><time>2026-04-19T09:33:04.999Z</time></trkpt><trkpt lat="43.75312341860592" lon="11.31509469622843"><ele>63.0</ele><time>2026-04-19T09:33:05.999Z</time></trkpt><trkpt lat="43.75311165788116" lon="11.315219276697219"><ele>63.0</ele><time>2026-04-19T09:33:06.999Z</time></trkpt><trkpt lat="43.753097578139915" lon="11.315347948270354"><ele>63.0</ele><time>2026-04-19T09:33:07.999Z</time></trkpt><trkpt lat="43.75308161334718" lon="11.315481030016954"><ele>63.0</ele><time>2026-04-19T09:33:08.999Z</time></trkpt><trkpt lat="43.7530658002899" lon="11.315591552101875"><ele>63.166666666666664</ele><time>2026-04-19T09:33:09.999Z</time></trkpt><trkpt lat="43.75304678239862" lon="11.315704100947988"><ele>63.33333333333333</ele><time>2026-04-19T09:33:10.999Z</time></trkpt><trkpt lat="43.75303333421165" lon="11.315815357263386"><ele>63.5</ele><time>2026-04-19T09:33:11.999Z</time></trkpt><trkpt lat="43.75302130979289" lon="11.315920582909532"><ele>63.666666666666664</ele><time>2026-04-19T09:33:12.999Z</time></trkpt><trkpt lat="43.75300681105004" lon="11.316029434086532"><ele>63.83333333333333</ele><time>2026-04-19T09:33:13.999Z</time></trkpt><trkpt lat="43.752989663107584" lon="11.316143667490318"><ele>64.0</ele><time>2026-04-19T09:33:14.999Z</time></trkpt><trkpt lat="43.752974475991394" lon="11.316261402017327"><ele>63.99999999999999</ele><time>2026-04-19T09:33:15.999Z</time></trkpt><trkpt lat="43.7529622025128" lon="11.316381870833968"><ele>64.0</ele><time>2026-04-19T09:33:16.999Z</time></trkpt><trkpt lat="43.75294525627636" lon="11.316497315766995"><ele>64.0</ele><time>2026-04-19T09:33:17.998Z</time></trkpt><trkpt lat="43.752926530033506" lon="11.316613280191794"><ele>64.0</ele><time>2026-04-19T09:33:18.998Z</time></trkpt><trkpt lat="43.75291213777467" lon="11.316723825322859"><ele>63.99999999999999</ele><time>2026-04-19T09:33:19.998Z</time></trkpt><trkpt lat="43.75289878905175" lon="11.316835887566754"><ele>64.0</ele><time>2026-04-19T09:33:20.998Z</time></trkpt><trkpt lat="43.75288376400681" lon="11.316942815012146"><ele>64.4</ele><time>2026-04-19T09:33:21.998Z</time></trkpt><trkpt lat="43.75286694866341" lon="11.317040759901877"><ele>64.80000000000001</ele><time>2026-04-19T09:33:22.998Z</time></trkpt><trkpt lat="43.75285039440163" lon="11.317126655961829"><ele>65.19999999999999</ele><time>2026-04-19T09:33:23.998Z</time></trkpt><trkpt lat="43.752827896622335" lon="11.31726899277326"><ele>65.6</ele><time>2026-04-19T09:33:25.998Z</time></trkpt><trkpt lat="43.7528125519471" lon="11.317400384000411"><ele>66.0</ele><time>2026-04-19T09:33:27.998Z</time></trkpt><trkpt lat="43.75280795822252" lon="11.317601358920573"><ele>66.0</ele><time>2026-04-19T09:33:29.998Z</time></trkpt><trkpt lat="43.75289606289264" lon="11.317723597202265"><ele>66.0</ele><time>2026-04-19T09:33:31.998Z</time></trkpt><trkpt lat="43.75294182850721" lon="11.317787093367572"><ele>66.0</ele><time>2026-04-19T09:33:32.998Z</time></trkpt><trkpt lat="43.753023996929734" lon="11.317901095674296"><ele>66.0</ele><time>2026-04-19T09:33:34.998Z</time></trkpt><trkpt lat="43.75315079541613" lon="11.317832653686587"><ele>66.0</ele><time>2026-04-19T09:33:35.998Z</time></trkpt><trkpt lat="43.753191335118835" lon="11.31791158823634"><ele>66.0</ele><time>2026-04-19T09:33:36.998Z</time></trkpt><trkpt lat="43.75323922607795" lon="11.317983714386587"><ele>66.0</ele><time>2026-04-19T09:33:37.998Z</time></trkpt><trkpt lat="43.753285962296026" lon="11.31805538427198"><ele>66.0</ele><time>2026-04-19T09:33:38.998Z</time></trkpt><trkpt lat="43.7533606429346" lon="11.31817904288624"><ele>66.0</ele><time>2026-04-19T09:33:40.998Z</time></trkpt><trkpt lat="43.75342316282219" lon="11.318286218915944"><ele>66.0</ele><time>2026-04-19T09:33:42.998Z</time></trkpt><trkpt lat="43.75347919336579" lon="11.318373161608536"><ele>66.0</ele><time>2026-04-19T09:33:44.998Z</time></trkpt><trkpt lat="43.75352641023176" lon="11.318451149007268"><ele>66.16666666666667</ele><time>2026-04-19T09:33:46.998Z</time></trkpt><trkpt lat="43.75357628273633" lon="11.318541074828252"><ele>66.33333333333333</ele><time>2026-04-19T09:33:49.998Z</time></trkpt><trkpt lat="43.75363733098801" lon="11.318654249369619"><ele>66.5</ele><time>2026-04-19T09:33:52.998Z</time></trkpt><trkpt lat="43.75367738434277" lon="11.318739887608457"><ele>66.66666666666666</ele><time>2026-04-19T09:33:54.998Z</time></trkpt><trkpt lat="43.75371862695238" lon="11.318856272807638"><ele>66.83333333333333</ele><time>2026-04-19T09:33:57.998Z</time></trkpt><trkpt lat="43.75375605375758" lon="11.31893494239466"><ele>67.0</ele><time>2026-04-19T09:33:59.998Z</time></trkpt><trkpt lat="43.753795487208066" lon="11.319006243920068"><ele>67.14285714285714</ele><time>2026-04-19T09:34:02.998Z</time></trkpt><trkpt lat="43.75384018316968" lon="11.319098664863438"><ele>67.28571428571428</ele><time>2026-04-19T09:34:11Z</time></trkpt><trkpt lat="43.75387804759254" lon="11.319169485318783"><ele>67.42857142857142</ele><time>2026-04-19T09:34:13Z</time></trkpt><trkpt lat="43.75390113624023" lon="11.319253666256895"><ele>67.57142857142857</ele><time>2026-04-19T09:34:15Z</time></trkpt><trkpt lat="43.75395014812258" lon="11.319335677102217"><ele>67.71428571428571</ele><time>2026-04-19T09:34:17Z</time></trkpt><trkpt lat="43.75398600991533" lon="11.319432256037365"><ele>67.85714285714285</ele><time>2026-04-19T09:34:19Z</time></trkpt><trkpt lat="43.75402302053437" lon="11.319524483141368"><ele>68.0</ele><time>2026-04-19T09:34:22Z</time></trkpt><trkpt lat="43.75405211742487" lon="11.319603496800546"><ele>68.0</ele><time>2026-04-19T09:34:29Z</time></trkpt><trkpt lat="43.75395145054916" lon="11.319714587311807"><ele>68.0</ele><time>2026-04-19T09:34:30Z</time></trkpt><trkpt lat="43.7538942779385" lon="11.319778320879191"><ele>68.0</ele><time>2026-04-19T09:34:31Z</time></trkpt><trkpt lat="43.75384174739883" lon="11.31984094632662"><ele>68.0</ele><time>2026-04-19T09:34:32Z</time></trkpt><trkpt lat="43.753793396590595" lon="11.319901492703519"><ele>68.0</ele><time>2026-04-19T09:34:33Z</time></trkpt><trkpt lat="43.753743107522006" lon="11.319958558817522"><ele>68.0</ele><time>2026-04-19T09:34:34Z</time></trkpt><trkpt lat="43.75365288439307" lon="11.320069769246729"><ele>68.0</ele><time>2026-04-19T09:34:35.999Z</time></trkpt><trkpt lat="43.75357435248322" lon="11.320171744350779"><ele>68.0</ele><time>2026-04-19T09:34:37.999Z</time></trkpt><trkpt lat="43.75352236910714" lon="11.32025864225872"><ele>68.0</ele><time>2026-04-19T09:34:39.999Z</time></trkpt><trkpt lat="43.75357390557616" lon="11.320407251410302"><ele>68.0</ele><time>2026-04-19T09:34:41.999Z</time></trkpt><trkpt lat="43.753640444440265" lon="11.320520208229812"><ele>68.0</ele><time>2026-04-19T09:34:43.999Z</time></trkpt><trkpt lat="43.7536975505364" lon="11.320603522640766"><ele>68.16666666666667</ele><time>2026-04-19T09:34:44.999Z</time></trkpt><trkpt lat="43.75375416072188" lon="11.32069586909621"><ele>68.33333333333334</ele><time>2026-04-19T09:34:45.999Z</time></trkpt><trkpt lat="43.75381149515547" lon="11.32079371211894"><ele>68.5</ele><time>2026-04-19T09:34:46.999Z</time></trkpt><trkpt lat="43.75386142701871" lon="11.320882825254223"><ele>68.66666666666667</ele><time>2026-04-19T09:34:47.999Z</time></trkpt><trkpt lat="43.7539081552029" lon="11.32095857494007"><ele>68.83333333333333</ele><time>2026-04-19T09:34:48.999Z</time></trkpt><trkpt lat="43.75395062909218" lon="11.321026913776285"><ele>69.0</ele><time>2026-04-19T09:34:49.999Z</time></trkpt><trkpt lat="43.754027696543496" lon="11.321159585726974"><ele>69.0</ele><time>2026-04-19T09:34:51.999Z</time></trkpt><trkpt lat="43.754065908569586" lon="11.321230574680897"><ele>69.0</ele><time>2026-04-19T09:34:52.999Z</time></trkpt><trkpt lat="43.75414646115587" lon="11.32136768177659"><ele>69.0</ele><time>2026-04-19T09:34:54.999Z</time></trkpt><trkpt lat="43.754189293043915" lon="11.32143895205106"><ele>69.0</ele><time>2026-04-19T09:34:55.999Z</time></trkpt><trkpt lat="43.7542305298439" lon="11.321512398331746"><ele>69.0</ele><time>2026-04-19T09:34:56.999Z</time></trkpt><trkpt lat="43.75427125261186" lon="11.321582695285626"><ele>69.0</ele><time>2026-04-19T09:34:57.999Z</time></trkpt><trkpt lat="43.75431176710385" lon="11.321653011563205"><ele>68.85714285714286</ele><time>2026-04-19T09:34:58.999Z</time></trkpt><trkpt lat="43.75435349266692" lon="11.321727482600048"><ele>68.71428571428572</ele><time>2026-04-19T09:34:59.999Z</time></trkpt><trkpt lat="43.75439410847966" lon="11.321801737631484"><ele>68.57142857142857</ele><time>2026-04-19T09:35:00.999Z</time></trkpt><trkpt lat="43.75443651353344" lon="11.321875991915398"><ele>68.42857142857143</ele><time>2026-04-19T09:35:01.999Z</time></trkpt><trkpt lat="43.754478538076384" lon="11.321947649225136"><ele>68.28571428571428</ele><time>2026-04-19T09:35:02.999Z</time></trkpt><trkpt lat="43.75452179686803" lon="11.322018586148165"><ele>68.14285714285714</ele><time>2026-04-19T09:35:03.999Z</time></trkpt><trkpt lat="43.754566378362625" lon="11.322094196194806"><ele>68.0</ele><time>2026-04-19T09:35:04.999Z</time></trkpt><trkpt lat="43.75461705416736" lon="11.322174100295953"><ele>68.16666666666667</ele><time>2026-04-19T09:35:05.999Z</time></trkpt><trkpt lat="43.75467386684577" lon="11.322249384679424"><ele>68.33333333333334</ele><time>2026-04-19T09:35:06.999Z</time></trkpt><trkpt lat="43.754728339955214" lon="11.32232311145946"><ele>68.5</ele><time>2026-04-19T09:35:07.999Z</time></trkpt><trkpt lat="43.754777330089446" lon="11.322404429978338"><ele>68.66666666666667</ele><time>2026-04-19T09:35:08.999Z</time></trkpt><trkpt lat="43.75482035814066" lon="11.322481268557896"><ele>68.83333333333333</ele><time>2026-04-19T09:35:09.999Z</time></trkpt><trkpt lat="43.75485953433608" lon="11.322551110693848"><ele>69.0</ele><time>2026-04-19T09:35:10.999Z</time></trkpt><trkpt lat="43.75493298002851" lon="11.322671256622266"><ele>69.0</ele><time>2026-04-19T09:35:12.999Z</time></trkpt><trkpt lat="43.75499764786257" lon="11.322783646918706"><ele>69.0</ele><time>2026-04-19T09:35:14.999Z</time></trkpt><trkpt lat="43.75502955182491" lon="11.322901751307455"><ele>69.0</ele><time>2026-04-19T09:35:16.999Z</time></trkpt><trkpt lat="43.75495788320521" lon="11.323014352420772"><ele>69.0</ele><time>2026-04-19T09:35:17.999Z</time></trkpt><trkpt lat="43.75491662475168" lon="11.323083533221466"><ele>69.0</ele><time>2026-04-19T09:35:18.999Z</time></trkpt><trkpt lat="43.7548747384441" lon="11.323150113391337"><ele>69.0</ele><time>2026-04-19T09:35:19.999Z</time></trkpt><trkpt lat="43.75479850538779" lon="11.323268535870485"><ele>68.8</ele><time>2026-04-19T09:35:21.999Z</time></trkpt><trkpt lat="43.75474573119917" lon="11.323361250442503"><ele>68.60000000000001</ele><time>2026-04-19T09:35:23.999Z</time></trkpt><trkpt lat="43.75469324245533" lon="11.323464804469753"><ele>68.4</ele><time>2026-04-19T09:35:25.999Z</time></trkpt><trkpt lat="43.75461549853022" lon="11.323555616945791"><ele>68.2</ele><time>2026-04-19T09:35:27.999Z</time></trkpt><trkpt lat="43.754552487643096" lon="11.323617184434633"><ele>68.0</ele><time>2026-04-19T09:35:30.999Z</time></trkpt><trkpt lat="43.75460533381791" lon="11.32379987061449"><ele>68.0</ele><time>2026-04-19T09:35:38.998Z</time></trkpt><trkpt lat="43.754666587810355" lon="11.323877951369251"><ele>68.0</ele><time>2026-04-19T09:35:39.998Z</time></trkpt><trkpt lat="43.754734125453126" lon="11.323968067260694"><ele>68.0</ele><time>2026-04-19T09:35:40.998Z</time></trkpt><trkpt lat="43.754807137966665" lon="11.324072285177664"><ele>68.0</ele><time>2026-04-19T09:35:41.998Z</time></trkpt><trkpt lat="43.754884756850174" lon="11.32417709840641"><ele>68.0</ele><time>2026-04-19T09:35:42.998Z</time></trkpt><trkpt lat="43.75497272240988" lon="11.324283235911052"><ele>68.25</ele><time>2026-04-19T09:35:43.998Z</time></trkpt><trkpt lat="43.75506737926339" lon="11.324397638257933"><ele>68.5</ele><time>2026-04-19T09:35:44.998Z</time></trkpt><trkpt lat="43.755166379995266" lon="11.32452433547973"><ele>68.75</ele><time>2026-04-19T09:35:45.998Z</time></trkpt><trkpt lat="43.75526295552668" lon="11.324650269970231"><ele>69.0</ele><time>2026-04-19T09:35:46.998Z</time></trkpt><trkpt lat="43.75536439086634" lon="11.324778710294694"><ele>69.0</ele><time>2026-04-19T09:35:47.998Z</time></trkpt><trkpt lat="43.755462579927425" lon="11.324900567157282"><ele>69.0</ele><time>2026-04-19T09:35:48.998Z</time></trkpt><trkpt lat="43.755550926966905" lon="11.325011988926036"><ele>69.0</ele><time>2026-04-19T09:35:49.998Z</time></trkpt><trkpt lat="43.755631190194784" lon="11.325109360214157"><ele>69.0</ele><time>2026-04-19T09:35:50.998Z</time></trkpt><trkpt lat="43.755707097965725" lon="11.325188799799891"><ele>69.0</ele><time>2026-04-19T09:35:51.998Z</time></trkpt><trkpt lat="43.755780344039266" lon="11.325251565146878"><ele>69.0</ele><time>2026-04-19T09:35:52.998Z</time></trkpt><trkpt lat="43.7558535927481" lon="11.325316033022583"><ele>69.0</ele><time>2026-04-19T09:35:53.998Z</time></trkpt><trkpt lat="43.75591355160852" lon="11.325408589045743"><ele>69.0</ele><time>2026-04-19T09:35:54.998Z</time></trkpt><trkpt lat="43.75596639561848" lon="11.325503714615218"><ele>69.0</ele><time>2026-04-19T09:35:55.998Z</time></trkpt><trkpt lat="43.75603658155833" lon="11.325562170036106"><ele>69.0</ele><time>2026-04-19T09:35:56.998Z</time></trkpt><trkpt lat="43.75612400944987" lon="11.325590965660648"><ele>69.0</ele><time>2026-04-19T09:35:57.998Z</time></trkpt><trkpt lat="43.756218531157344" lon="11.32558466406149"><ele>69.0</ele><time>2026-04-19T09:35:58.998Z</time></trkpt><trkpt lat="43.756310059656975" lon="11.325588363435621"><ele>69.0</ele><time>2026-04-19T09:35:59.998Z</time></trkpt><trkpt lat="43.75639632333453" lon="11.325641490779827"><ele>69.0</ele><time>2026-04-19T09:36:00.998Z</time></trkpt><trkpt lat="43.75646796303756" lon="11.32574291755709"><ele>69.0</ele><time>2026-04-19T09:36:01.998Z</time></trkpt><trkpt lat="43.75652353733972" lon="11.325877842668335"><ele>69.0</ele><time>2026-04-19T09:36:02.998Z</time></trkpt><trkpt lat="43.75656352340204" lon="11.326042484924814"><ele>69.0</ele><time>2026-04-19T09:36:03.998Z</time></trkpt><trkpt lat="43.75658780801535" lon="11.326224290592258"><ele>69.0</ele><time>2026-04-19T09:36:04.998Z</time></trkpt><trkpt lat="43.75659512578355" lon="11.326407829194268"><ele>69.0</ele><time>2026-04-19T09:36:05.998Z</time></trkpt><trkpt lat="43.75661905230648" lon="11.326596681518375"><ele>69.5</ele><time>2026-04-19T09:36:06.998Z</time></trkpt><trkpt lat="43.7566750600183" lon="11.326780169784099"><ele>70.0</ele><time>2026-04-19T09:36:07.998Z</time></trkpt><trkpt lat="43.756758091793294" lon="11.326947856022223"><ele>70.5</ele><time>2026-04-19T09:36:08.998Z</time></trkpt><trkpt lat="43.75686293282738" lon="11.327094697277964"><ele>71.0</ele><time>2026-04-19T09:36:09.998Z</time></trkpt><trkpt lat="43.75698763063117" lon="11.32720722046737"><ele>71.75</ele><time>2026-04-19T09:36:10.998Z</time></trkpt><trkpt lat="43.75712549632256" lon="11.327285418252865"><ele>72.5</ele><time>2026-04-19T09:36:12Z</time></trkpt><trkpt lat="43.757266080041994" lon="11.327345701495549"><ele>73.25</ele><time>2026-04-19T09:36:13Z</time></trkpt><trkpt lat="43.75740298957685" lon="11.32740959226678"><ele>74.0</ele><time>2026-04-19T09:36:14Z</time></trkpt><trkpt lat="43.757533858414305" lon="11.327479376323558"><ele>74.0</ele><time>2026-04-19T09:36:15Z</time></trkpt><trkpt lat="43.75765750787146" lon="11.327542162779002"><ele>74.0</ele><time>2026-04-19T09:36:16Z</time></trkpt><trkpt lat="43.7577708114383" lon="11.327600104304112"><ele>74.0</ele><time>2026-04-19T09:36:17Z</time></trkpt><trkpt lat="43.7578653536872" lon="11.32764770761153"><ele>74.0</ele><time>2026-04-19T09:36:18Z</time></trkpt><trkpt lat="43.75795589576726" lon="11.327691963577783"><ele>74.0</ele><time>2026-04-19T09:36:19Z</time></trkpt><trkpt lat="43.75804152092371" lon="11.32773318447414"><ele>73.8</ele><time>2026-04-19T09:36:20Z</time></trkpt><trkpt lat="43.758121489107005" lon="11.327775622128854"><ele>73.60000000000001</ele><time>2026-04-19T09:36:21Z</time></trkpt><trkpt lat="43.7582009386306" lon="11.32781705049631"><ele>73.4</ele><time>2026-04-19T09:36:22Z</time></trkpt><trkpt lat="43.75828594345894" lon="11.327861835405988"><ele>73.2</ele><time>2026-04-19T09:36:23Z</time></trkpt><trkpt lat="43.75837864791301" lon="11.327908243565654"><ele>73.0</ele><time>2026-04-19T09:36:24Z</time></trkpt><trkpt lat="43.7584783129946" lon="11.327955828802725"><ele>72.2</ele><time>2026-04-19T09:36:25Z</time></trkpt><trkpt lat="43.75858089903879" lon="11.32800631952173"><ele>71.4</ele><time>2026-04-19T09:36:26Z</time></trkpt><trkpt lat="43.75868033630692" lon="11.32805570096186"><ele>70.60000000000001</ele><time>2026-04-19T09:36:27Z</time></trkpt><trkpt lat="43.75877600205573" lon="11.32810290875056"><ele>69.8</ele><time>2026-04-19T09:36:28Z</time></trkpt><trkpt lat="43.75886880045744" lon="11.328152574843603"><ele>69.0</ele><time>2026-04-19T09:36:29Z</time></trkpt><trkpt lat="43.75895805064134" lon="11.32820063281882"><ele>69.0</ele><time>2026-04-19T09:36:30Z</time></trkpt><trkpt lat="43.7590428328453" lon="11.32824134526059"><ele>69.0</ele><time>2026-04-19T09:36:31Z</time></trkpt><trkpt lat="43.75912902772597" lon="11.328286590920406"><ele>69.0</ele><time>2026-04-19T09:36:32Z</time></trkpt><trkpt lat="43.759221220467126" lon="11.32833877163706"><ele>69.0</ele><time>2026-04-19T09:36:33Z</time></trkpt><trkpt lat="43.75931372697691" lon="11.328392710131801"><ele>69.0</ele><time>2026-04-19T09:36:34Z</time></trkpt><trkpt lat="43.75940677660295" lon="11.328453177505882"><ele>69.2</ele><time>2026-04-19T09:36:35Z</time></trkpt><trkpt lat="43.75949735905014" lon="11.328526268984577"><ele>69.4</ele><time>2026-04-19T09:36:36Z</time></trkpt><trkpt lat="43.75958537751514" lon="11.328604018921576"><ele>69.6</ele><time>2026-04-19T09:36:37Z</time></trkpt><trkpt lat="43.75967516127116" lon="11.328681821669091"><ele>69.8</ele><time>2026-04-19T09:36:38Z</time></trkpt><trkpt lat="43.75976164353567" lon="11.328767256064047"><ele>70.0</ele><time>2026-04-19T09:36:39Z</time></trkpt><trkpt lat="43.75984891941895" lon="11.328863869217068"><ele>70.25</ele><time>2026-04-19T09:36:40Z</time></trkpt><trkpt lat="43.759937532797686" lon="11.32896786967138"><ele>70.5</ele><time>2026-04-19T09:36:41Z</time></trkpt><trkpt lat="43.76002428036999" lon="11.329075094785466"><ele>70.75</ele><time>2026-04-19T09:36:42Z</time></trkpt><trkpt lat="43.76010503303696" lon="11.329185776933073"><ele>71.0</ele><time>2026-04-19T09:36:43Z</time></trkpt><trkpt lat="43.76018317134777" lon="11.329309924126134"><ele>70.75</ele><time>2026-04-19T09:36:44Z</time></trkpt><trkpt lat="43.76026210126323" lon="11.329439848569743"><ele>70.5</ele><time>2026-04-19T09:36:45Z</time></trkpt><trkpt lat="43.760333988822396" lon="11.329567166999334"><ele>70.25</ele><time>2026-04-19T09:36:46Z</time></trkpt><trkpt lat="43.76040123821396" lon="11.329702741960581"><ele>70.0</ele><time>2026-04-19T09:36:47Z</time></trkpt><trkpt lat="43.76046151220784" lon="11.329842951831326"><ele>70.0</ele><time>2026-04-19T09:36:48Z</time></trkpt><trkpt lat="43.7605170235171" lon="11.329982684469073"><ele>70.0</ele><time>2026-04-19T09:36:49Z</time></trkpt><trkpt lat="43.76056975323894" lon="11.330120750375846"><ele>70.0</ele><time>2026-04-19T09:36:50Z</time></trkpt><trkpt lat="43.76061749949062" lon="11.330259080201863"><ele>70.0</ele><time>2026-04-19T09:36:51Z</time></trkpt><trkpt lat="43.76066205474878" lon="11.330399050011135"><ele>70.0</ele><time>2026-04-19T09:36:52Z</time></trkpt><trkpt lat="43.760704750609015" lon="11.330535320815468"><ele>70.2</ele><time>2026-04-19T09:36:53Z</time></trkpt><trkpt lat="43.76074592678314" lon="11.330669572247263"><ele>70.4</ele><time>2026-04-19T09:36:54Z</time></trkpt><trkpt lat="43.76078433069923" lon="11.330802422830486"><ele>70.6</ele><time>2026-04-19T09:36:54.999Z</time></trkpt><trkpt lat="43.76082263207556" lon="11.3309338953872"><ele>70.8</ele><time>2026-04-19T09:36:55.999Z</time></trkpt><trkpt lat="43.76086013264947" lon="11.33106585270073"><ele>71.0</ele><time>2026-04-19T09:36:56.999Z</time></trkpt><trkpt lat="43.7608975147577" lon="11.331199573395809"><ele>71.0</ele><time>2026-04-19T09:36:57.999Z</time></trkpt><trkpt lat="43.76093548226161" lon="11.33133409372252"><ele>71.0</ele><time>2026-04-19T09:36:58.999Z</time></trkpt><trkpt lat="43.760976776327865" lon="11.331468894100585"><ele>71.0</ele><time>2026-04-19T09:36:59.999Z</time></trkpt><trkpt lat="43.76101740116867" lon="11.33160640797022"><ele>71.0</ele><time>2026-04-19T09:37:00.999Z</time></trkpt><trkpt lat="43.76105944362324" lon="11.33174745373013"><ele>71.0</ele><time>2026-04-19T09:37:01.999Z</time></trkpt><trkpt lat="43.7611009404668" lon="11.331892081822318"><ele>70.8</ele><time>2026-04-19T09:37:02.999Z</time></trkpt><trkpt lat="43.76114086395966" lon="11.332032508011642"><ele>70.6</ele><time>2026-04-19T09:37:03.999Z</time></trkpt><trkpt lat="43.761181214132115" lon="11.332175713549658"><ele>70.4</ele><time>2026-04-19T09:37:04.999Z</time></trkpt><trkpt lat="43.76122320170779" lon="11.332319165183987"><ele>70.2</ele><time>2026-04-19T09:37:05.999Z</time></trkpt><trkpt lat="43.76126489838265" lon="11.332460856911856"><ele>70.0</ele><time>2026-04-19T09:37:06.999Z</time></trkpt><trkpt lat="43.761306119698034" lon="11.332601783112695"><ele>70.0</ele><time>2026-04-19T09:37:07.999Z</time></trkpt><trkpt lat="43.761347708707575" lon="11.332743683706738"><ele>70.0</ele><time>2026-04-19T09:37:08.999Z</time></trkpt><trkpt lat="43.76139034741225" lon="11.332887862431061"><ele>70.0</ele><time>2026-04-19T09:37:09.999Z</time></trkpt><trkpt lat="43.761435515002546" lon="11.333029513982568"><ele>70.0</ele><time>2026-04-19T09:37:10.999Z</time></trkpt><trkpt lat="43.76148281628587" lon="11.333171420389437"><ele>70.0</ele><time>2026-04-19T09:37:11.999Z</time></trkpt><trkpt lat="43.76153345277467" lon="11.333308725741562"><ele>70.2</ele><time>2026-04-19T09:37:12.999Z</time></trkpt><trkpt lat="43.761585938668524" lon="11.333439786440167"><ele>70.4</ele><time>2026-04-19T09:37:13.999Z</time></trkpt><trkpt lat="43.76163957827531" lon="11.333557222794955"><ele>70.6</ele><time>2026-04-19T09:37:14.999Z</time></trkpt><trkpt lat="43.76169243845153" lon="11.333664906739154"><ele>70.8</ele><time>2026-04-19T09:37:15.999Z</time></trkpt><trkpt lat="43.76174462930807" lon="11.333765728476374"><ele>71.0</ele><time>2026-04-19T09:37:16.999Z</time></trkpt><trkpt lat="43.76179681626773" lon="11.33386284591105"><ele>71.0</ele><time>2026-04-19T09:37:17.999Z</time></trkpt><trkpt lat="43.761855259322395" lon="11.333964928812437"><ele>71.0</ele><time>2026-04-19T09:37:18.999Z</time></trkpt><trkpt lat="43.76192016881219" lon="11.334069246396405"><ele>71.0</ele><time>2026-04-19T09:37:19.999Z</time></trkpt><trkpt lat="43.761987714928786" lon="11.33417678324704"><ele>71.0</ele><time>2026-04-19T09:37:20.999Z</time></trkpt><trkpt lat="43.762052539148556" lon="11.334284453155568"><ele>71.0</ele><time>2026-04-19T09:37:21.999Z</time></trkpt><trkpt lat="43.76211726065406" lon="11.334388266005776"><ele>71.0</ele><time>2026-04-19T09:37:22.999Z</time></trkpt><trkpt lat="43.76218384924653" lon="11.334494857706217"><ele>71.0</ele><time>2026-04-19T09:37:23.999Z</time></trkpt><trkpt lat="43.76225098109854" lon="11.334604109543042"><ele>71.0</ele><time>2026-04-19T09:37:24.999Z</time></trkpt><trkpt lat="43.762320273292076" lon="11.33471273735903"><ele>71.0</ele><time>2026-04-19T09:37:25.999Z</time></trkpt><trkpt lat="43.76239089759807" lon="11.334823604764209"><ele>71.0</ele><time>2026-04-19T09:37:26.999Z</time></trkpt><trkpt lat="43.76246408243548" lon="11.334943236463952"><ele>71.0</ele><time>2026-04-19T09:37:27.999Z</time></trkpt><trkpt lat="43.762544718292894" lon="11.335072581990957"><ele>71.0</ele><time>2026-04-19T09:37:28.999Z</time></trkpt><trkpt lat="43.76263241139664" lon="11.335214049218251"><ele>71.0</ele><time>2026-04-19T09:37:29.999Z</time></trkpt><trkpt lat="43.762721861335784" lon="11.3353552458009"><ele>71.0</ele><time>2026-04-19T09:37:30.999Z</time></trkpt><trkpt lat="43.762809469092645" lon="11.335491008452694"><ele>71.5</ele><time>2026-04-19T09:37:31.999Z</time></trkpt><trkpt lat="43.762892136104895" lon="11.335618365641434"><ele>72.0</ele><time>2026-04-19T09:37:32.999Z</time></trkpt><trkpt lat="43.7629730480328" lon="11.335748474762578"><ele>72.5</ele><time>2026-04-19T09:37:33.999Z</time></trkpt><trkpt lat="43.76305585086547" lon="11.33589008193034"><ele>73.0</ele><time>2026-04-19T09:37:34.999Z</time></trkpt><trkpt lat="43.7631413703122" lon="11.336037711156726"><ele>73.0</ele><time>2026-04-19T09:37:35.999Z</time></trkpt><trkpt lat="43.763229245172546" lon="11.33619916782544"><ele>73.0</ele><time>2026-04-19T09:37:36.999Z</time></trkpt><trkpt lat="43.763311034766005" lon="11.336370893390715"><ele>73.0</ele><time>2026-04-19T09:37:37.999Z</time></trkpt><trkpt lat="43.76339427650586" lon="11.33655841366008"><ele>73.33333333333333</ele><time>2026-04-19T09:37:38.999Z</time></trkpt><trkpt lat="43.76348718508002" lon="11.336765634200487"><ele>73.66666666666667</ele><time>2026-04-19T09:37:39.999Z</time></trkpt><trkpt lat="43.76355899731483" lon="11.337011029678798"><ele>74.0</ele><time>2026-04-19T09:37:40.999Z</time></trkpt><trkpt lat="43.76366006851079" lon="11.337268395537572"><ele>72.0</ele><time>2026-04-19T09:37:41.999Z</time></trkpt><trkpt lat="43.7637409760416" lon="11.33753985428403"><ele>70.0</ele><time>2026-04-19T09:37:42.999Z</time></trkpt><trkpt lat="43.76382678874676" lon="11.33783208508587"><ele>68.0</ele><time>2026-04-19T09:37:43.999Z</time></trkpt><trkpt lat="43.76392362883142" lon="11.338126016467035"><ele>68.0</ele><time>2026-04-19T09:37:44.999Z</time></trkpt><trkpt lat="43.764026092505986" lon="11.338405410410134"><ele>68.0</ele><time>2026-04-19T09:37:45.999Z</time></trkpt><trkpt lat="43.764103602432336" lon="11.338687693579855"><ele>68.0</ele><time>2026-04-19T09:37:46.999Z</time></trkpt><trkpt lat="43.764186763907404" lon="11.338948678193379"><ele>69.66666666666667</ele><time>2026-04-19T09:37:47.999Z</time></trkpt><trkpt lat="43.764269636035166" lon="11.339195045574778"><ele>71.33333333333333</ele><time>2026-04-19T09:37:48.999Z</time></trkpt><trkpt lat="43.76434725022795" lon="11.339433368854808"><ele>73.0</ele><time>2026-04-19T09:37:49.999Z</time></trkpt><trkpt lat="43.7644279312438" lon="11.339667572645476"><ele>69.66666666666666</ele><time>2026-04-19T09:37:50.999Z</time></trkpt><trkpt lat="43.764513640642164" lon="11.339895609690014"><ele>66.33333333333333</ele><time>2026-04-19T09:37:51.999Z</time></trkpt><trkpt lat="43.76460024159795" lon="11.340119354062423"><ele>63.0</ele><time>2026-04-19T09:37:52.999Z</time></trkpt><trkpt lat="43.76469295625486" lon="11.340332509344998"><ele>63.0</ele><time>2026-04-19T09:37:53.999Z</time></trkpt><trkpt lat="43.76479240767281" lon="11.340535360374373"><ele>63.0</ele><time>2026-04-19T09:37:54.998Z</time></trkpt><trkpt lat="43.76489468561333" lon="11.340721815748275"><ele>63.0</ele><time>2026-04-19T09:37:55.998Z</time></trkpt><trkpt lat="43.764988400147274" lon="11.340896459671443"><ele>63.25</ele><time>2026-04-19T09:37:56.998Z</time></trkpt><trkpt lat="43.76507407881882" lon="11.341061462109618"><ele>63.5</ele><time>2026-04-19T09:37:57.998Z</time></trkpt><trkpt lat="43.76515777317407" lon="11.341221073758202"><ele>63.75</ele><time>2026-04-19T09:37:58.998Z</time></trkpt><trkpt lat="43.7652359703324" lon="11.3413756628776"><ele>64.0</ele><time>2026-04-19T09:37:59.998Z</time></trkpt><trkpt lat="43.765308003080285" lon="11.341539216881893"><ele>64.75</ele><time>2026-04-19T09:38:00.998Z</time></trkpt><trkpt lat="43.765378077613775" lon="11.341709115162336"><ele>65.5</ele><time>2026-04-19T09:38:01.998Z</time></trkpt><trkpt lat="43.765449929700964" lon="11.34187303817064"><ele>66.25</ele><time>2026-04-19T09:38:02.998Z</time></trkpt><trkpt lat="43.76552216275438" lon="11.342039036516239"><ele>67.0</ele><time>2026-04-19T09:38:03.998Z</time></trkpt><trkpt lat="43.765594559910795" lon="11.34220777203816"><ele>68.0</ele><time>2026-04-19T09:38:04.998Z</time></trkpt><trkpt lat="43.7656821761048" lon="11.342373814448406"><ele>69.0</ele><time>2026-04-19T09:38:05.998Z</time></trkpt><trkpt lat="43.76578889641731" lon="11.342533078412108"><ele>70.0</ele><time>2026-04-19T09:38:06.998Z</time></trkpt><trkpt lat="43.76590527809416" lon="11.34271349076293"><ele>68.66666666666666</ele><time>2026-04-19T09:38:07.998Z</time></trkpt><trkpt lat="43.76604295317531" lon="11.342898161427195"><ele>67.33333333333333</ele><time>2026-04-19T09:38:08.998Z</time></trkpt><trkpt lat="43.76619082772003" lon="11.343096512907898"><ele>66.0</ele><time>2026-04-19T09:38:09.998Z</time></trkpt><trkpt lat="43.76634913655367" lon="11.34331157306259"><ele>66.0</ele><time>2026-04-19T09:38:10.998Z</time></trkpt><trkpt lat="43.76652755112249" lon="11.343541733777927"><ele>66.0</ele><time>2026-04-19T09:38:11.998Z</time></trkpt><trkpt lat="43.76670484958387" lon="11.343809620972792"><ele>64.5</ele><time>2026-04-19T09:38:12.998Z</time></trkpt><trkpt lat="43.76690092499221" lon="11.344067890914271"><ele>63.0</ele><time>2026-04-19T09:38:13.998Z</time></trkpt><trkpt lat="43.767079716866576" lon="11.3443108137245"><ele>63.0</ele><time>2026-04-19T09:38:14.998Z</time></trkpt><trkpt lat="43.767245349561165" lon="11.344543443548613"><ele>63.0</ele><time>2026-04-19T09:38:15.998Z</time></trkpt><trkpt lat="43.76740355196953" lon="11.344758453294821"><ele>62.66666666666667</ele><time>2026-04-19T09:38:16.998Z</time></trkpt><trkpt lat="43.767555169989244" lon="11.344962639897233"><ele>62.333333333333336</ele><time>2026-04-19T09:38:18Z</time></trkpt><trkpt lat="43.767697880347896" lon="11.345162802406506"><ele>62.0</ele><time>2026-04-19T09:38:19Z</time></trkpt><trkpt lat="43.767834251942865" lon="11.345364364352038"><ele>63.333333333333336</ele><time>2026-04-19T09:38:20Z</time></trkpt><trkpt lat="43.767959829891936" lon="11.345577050179699"><ele>64.66666666666667</ele><time>2026-04-19T09:38:21Z</time></trkpt><trkpt lat="43.7680736227493" lon="11.345803614856909"><ele>66.0</ele><time>2026-04-19T09:38:22Z</time></trkpt><trkpt lat="43.768172062418415" lon="11.346029009353668"><ele>66.0</ele><time>2026-04-19T09:38:23Z</time></trkpt><trkpt lat="43.76826139624444" lon="11.346241814796695"><ele>66.0</ele><time>2026-04-19T09:38:24Z</time></trkpt><trkpt lat="43.768345976750275" lon="11.346443368064437"><ele>66.0</ele><time>2026-04-19T09:38:25Z</time></trkpt><trkpt lat="43.76842407131253" lon="11.346633553369516"><ele>65.75</ele><time>2026-04-19T09:38:26Z</time></trkpt><trkpt lat="43.76849737450057" lon="11.346818653219078"><ele>65.5</ele><time>2026-04-19T09:38:27Z</time></trkpt><trkpt lat="43.76856750833332" lon="11.346990800471547"><ele>65.25</ele><time>2026-04-19T09:38:28Z</time></trkpt><trkpt lat="43.76863269446603" lon="11.347155322816372"><ele>65.0</ele><time>2026-04-19T09:38:29Z</time></trkpt><trkpt lat="43.768698056377886" lon="11.347325515622572"><ele>65.0</ele><time>2026-04-19T09:38:30Z</time></trkpt><trkpt lat="43.768767948530396" lon="11.347495449385159"><ele>65.0</ele><time>2026-04-19T09:38:31Z</time></trkpt><trkpt lat="43.7688408846054" lon="11.347669169458323"><ele>65.0</ele><time>2026-04-19T09:38:32Z</time></trkpt><trkpt lat="43.7689113998765" lon="11.347846158457104"><ele>65.0</ele><time>2026-04-19T09:38:33Z</time></trkpt><trkpt lat="43.76898212900648" lon="11.34802010131129"><ele>65.75</ele><time>2026-04-19T09:38:34Z</time></trkpt><trkpt lat="43.769055958810064" lon="11.348195038715085"><ele>66.5</ele><time>2026-04-19T09:38:35Z</time></trkpt><trkpt lat="43.769131537450484" lon="11.34837398213266"><ele>67.25</ele><time>2026-04-19T09:38:36Z</time></trkpt><trkpt lat="43.769206634773106" lon="11.348556785900975"><ele>68.0</ele><time>2026-04-19T09:38:37Z</time></trkpt><trkpt lat="43.769276582132264" lon="11.348729372425682"><ele>69.0</ele><time>2026-04-19T09:38:38Z</time></trkpt><trkpt lat="43.769347127577035" lon="11.348902181961723"><ele>70.0</ele><time>2026-04-19T09:38:39Z</time></trkpt><trkpt lat="43.769419492004545" lon="11.349076530294946"><ele>71.0</ele><time>2026-04-19T09:38:40Z</time></trkpt><trkpt lat="43.7694920539209" lon="11.349249620680785"><ele>72.0</ele><time>2026-04-19T09:38:41Z</time></trkpt><trkpt lat="43.76956177744083" lon="11.34941997797771"><ele>70.25</ele><time>2026-04-19T09:38:42Z</time></trkpt><trkpt lat="43.769630226816325" lon="11.349590553070675"><ele>68.5</ele><time>2026-04-19T09:38:43Z</time></trkpt><trkpt lat="43.76969854810414" lon="11.349760287684047"><ele>66.75</ele><time>2026-04-19T09:38:44Z</time></trkpt><trkpt lat="43.76976701633588" lon="11.349925492573453"><ele>65.0</ele><time>2026-04-19T09:38:45Z</time></trkpt><trkpt lat="43.76983777876275" lon="11.3500974281641"><ele>65.0</ele><time>2026-04-19T09:38:46Z</time></trkpt><trkpt lat="43.76991086639654" lon="11.350275362185293"><ele>65.0</ele><time>2026-04-19T09:38:47Z</time></trkpt><trkpt lat="43.769990008456" lon="11.350462083571879"><ele>65.0</ele><time>2026-04-19T09:38:48Z</time></trkpt><trkpt lat="43.77006864159431" lon="11.350659756472915"><ele>64.33333333333334</ele><time>2026-04-19T09:38:49Z</time></trkpt><trkpt lat="43.770147069938396" lon="11.350857119262855"><ele>63.66666666666667</ele><time>2026-04-19T09:38:50Z</time></trkpt><trkpt lat="43.77022656658142" lon="11.351044733312937"><ele>63.0</ele><time>2026-04-19T09:38:51Z</time></trkpt><trkpt lat="43.77030220195468" lon="11.351227038923371"><ele>63.66666666666667</ele><time>2026-04-19T09:38:52Z</time></trkpt><trkpt lat="43.77037441810829" lon="11.351408851716407"><ele>64.33333333333334</ele><time>2026-04-19T09:38:53Z</time></trkpt><trkpt lat="43.77044843412097" lon="11.351589484424775"><ele>65.0</ele><time>2026-04-19T09:38:54Z</time></trkpt><trkpt lat="43.770523967458686" lon="11.351772621989298"><ele>65.0</ele><time>2026-04-19T09:38:55Z</time></trkpt><trkpt lat="43.77059792376221" lon="11.35195748920556"><ele>65.0</ele><time>2026-04-19T09:38:56Z</time></trkpt><trkpt lat="43.77066967654452" lon="11.352141737694113"><ele>65.0</ele><time>2026-04-19T09:38:57Z</time></trkpt><trkpt lat="43.77073938227616" lon="11.352325065790184"><ele>66.25</ele><time>2026-04-19T09:38:58Z</time></trkpt><trkpt lat="43.77080429431708" lon="11.352511278122467"><ele>67.5</ele><time>2026-04-19T09:38:59Z</time></trkpt><trkpt lat="43.770863773877764" lon="11.352697061694426"><ele>68.75</ele><time>2026-04-19T09:39:00Z</time></trkpt><trkpt lat="43.770925016018744" lon="11.352888672347817"><ele>70.0</ele><time>2026-04-19T09:39:01Z</time></trkpt><trkpt lat="43.77098779871718" lon="11.353083426909947"><ele>68.0</ele><time>2026-04-19T09:39:02Z</time></trkpt><trkpt lat="43.77104872291529" lon="11.353279102023313"><ele>66.0</ele><time>2026-04-19T09:39:03Z</time></trkpt><trkpt lat="43.77110662339583" lon="11.35347438825673"><ele>64.0</ele><time>2026-04-19T09:39:04Z</time></trkpt><trkpt lat="43.77116311295632" lon="11.353669001097009"><ele>64.0</ele><time>2026-04-19T09:39:05Z</time></trkpt><trkpt lat="43.77122217737128" lon="11.353865881365182"><ele>64.0</ele><time>2026-04-19T09:39:05.999Z</time></trkpt><trkpt lat="43.771275194910714" lon="11.354063811931432"><ele>64.0</ele><time>2026-04-19T09:39:06.999Z</time></trkpt><trkpt lat="43.77132460139364" lon="11.354264117536388"><ele>63.75</ele><time>2026-04-19T09:39:07.999Z</time></trkpt><trkpt lat="43.771368755905236" lon="11.354460784602056"><ele>63.5</ele><time>2026-04-19T09:39:08.999Z</time></trkpt><trkpt lat="43.77140992974071" lon="11.354655621023475"><ele>63.25</ele><time>2026-04-19T09:39:09.999Z</time></trkpt><trkpt lat="43.77144543184534" lon="11.354847353308017"><ele>63.0</ele><time>2026-04-19T09:39:10.999Z</time></trkpt><trkpt lat="43.77147832516579" lon="11.355033253607225"><ele>63.75</ele><time>2026-04-19T09:39:11.999Z</time></trkpt><trkpt lat="43.771507834925984" lon="11.355217642624499"><ele>64.5</ele><time>2026-04-19T09:39:12.999Z</time></trkpt><trkpt lat="43.77153191013718" lon="11.355390484824579"><ele>65.25</ele><time>2026-04-19T09:39:13.999Z</time></trkpt><trkpt lat="43.77155081403187" lon="11.355553966828936"><ele>66.0</ele><time>2026-04-19T09:39:14.999Z</time></trkpt><trkpt lat="43.77156674705777" lon="11.355710024087841"><ele>66.0</ele><time>2026-04-19T09:39:15.999Z</time></trkpt><trkpt lat="43.77158075319235" lon="11.355865762884932"><ele>66.0</ele><time>2026-04-19T09:39:16.999Z</time></trkpt><trkpt lat="43.77159355605388" lon="11.356027945723508"><ele>66.0</ele><time>2026-04-19T09:39:17.999Z</time></trkpt><trkpt lat="43.77160364067381" lon="11.356194646714558"><ele>66.0</ele><time>2026-04-19T09:39:18.999Z</time></trkpt><trkpt lat="43.77160525593665" lon="11.356366313196839"><ele>66.25</ele><time>2026-04-19T09:39:19.999Z</time></trkpt><trkpt lat="43.77159935038114" lon="11.356537594496409"><ele>66.5</ele><time>2026-04-19T09:39:20.999Z</time></trkpt><trkpt lat="43.77158917156494" lon="11.356708361526929"><ele>66.75</ele><time>2026-04-19T09:39:21.999Z</time></trkpt><trkpt lat="43.77157472690918" lon="11.356872785326685"><ele>67.0</ele><time>2026-04-19T09:39:22.999Z</time></trkpt><trkpt lat="43.771558056071356" lon="11.357022759250336"><ele>67.0</ele><time>2026-04-19T09:39:23.999Z</time></trkpt><trkpt lat="43.7715411496302" lon="11.357151303068399"><ele>67.0</ele><time>2026-04-19T09:39:24.999Z</time></trkpt><trkpt lat="43.771522304054145" lon="11.35727030538067"><ele>67.0</ele><time>2026-04-19T09:39:25.999Z</time></trkpt><trkpt lat="43.771505094261094" lon="11.357397666564612"><ele>67.0</ele><time>2026-04-19T09:39:26.999Z</time></trkpt><trkpt lat="43.77149606260056" lon="11.357532616121942"><ele>67.0</ele><time>2026-04-19T09:39:27.999Z</time></trkpt><trkpt lat="43.771496506247274" lon="11.35766852589445"><ele>67.25</ele><time>2026-04-19T09:39:28.999Z</time></trkpt><trkpt lat="43.77151032368157" lon="11.357801046295842"><ele>67.5</ele><time>2026-04-19T09:39:29.999Z</time></trkpt><trkpt lat="43.77153271037914" lon="11.357946085897229"><ele>67.75</ele><time>2026-04-19T09:39:30.999Z</time></trkpt><trkpt lat="43.771542433975654" lon="11.358123633043743"><ele>68.0</ele><time>2026-04-19T09:39:31.999Z</time></trkpt><trkpt lat="43.77156761641701" lon="11.35830347478526"><ele>68.0</ele><time>2026-04-19T09:39:32.999Z</time></trkpt><trkpt lat="43.77159325142357" lon="11.358487694448021"><ele>68.0</ele><time>2026-04-19T09:39:33.999Z</time></trkpt><trkpt lat="43.771633234178466" lon="11.358661574202797"><ele>68.0</ele><time>2026-04-19T09:39:34.999Z</time></trkpt><trkpt lat="43.77164936364247" lon="11.358815738948675"><ele>68.0</ele><time>2026-04-19T09:39:35.999Z</time></trkpt><trkpt lat="43.77166224718724" lon="11.35894347161117"><ele>68.16666666666667</ele><time>2026-04-19T09:39:36.999Z</time></trkpt><trkpt lat="43.77167348048423" lon="11.359059521667746"><ele>68.33333333333334</ele><time>2026-04-19T09:39:37.999Z</time></trkpt><trkpt lat="43.77168106917861" lon="11.359162022788642"><ele>68.5</ele><time>2026-04-19T09:39:38.999Z</time></trkpt><trkpt lat="43.77169105578755" lon="11.359258105860192"><ele>68.66666666666667</ele><time>2026-04-19T09:39:39.999Z</time></trkpt><trkpt lat="43.77170230571741" lon="11.359347698890044"><ele>68.83333333333333</ele><time>2026-04-19T09:39:40.999Z</time></trkpt><trkpt lat="43.771714957373916" lon="11.359501731066066"><ele>69.0</ele><time>2026-04-19T09:39:42.999Z</time></trkpt><trkpt lat="43.77172651248953" lon="11.359636544047836"><ele>69.0</ele><time>2026-04-19T09:39:44.999Z</time></trkpt><trkpt lat="43.771721067841085" lon="11.359782078575584"><ele>69.0</ele><time>2026-04-19T09:39:46.999Z</time></trkpt><trkpt lat="43.77172747439796" lon="11.359871872391654"><ele>69.0</ele><time>2026-04-19T09:39:47.999Z</time></trkpt><trkpt lat="43.77173390664662" lon="11.359988471943053"><ele>69.0</ele><time>2026-04-19T09:39:48.999Z</time></trkpt><trkpt lat="43.771752068507006" lon="11.360104773876081"><ele>69.0</ele><time>2026-04-19T09:39:49.999Z</time></trkpt><trkpt lat="43.77175491459746" lon="11.360200529957437"><ele>69.0</ele><time>2026-04-19T09:39:50.999Z</time></trkpt><trkpt lat="43.77176183266037" lon="11.360293718249132"><ele>69.0</ele><time>2026-04-19T09:39:51.999Z</time></trkpt><trkpt lat="43.77177701793157" lon="11.360403916867279"><ele>69.0</ele><time>2026-04-19T09:39:52.999Z</time></trkpt><trkpt lat="43.771803255712705" lon="11.36052599223977"><ele>69.0</ele><time>2026-04-19T09:39:53.999Z</time></trkpt><trkpt lat="43.77184241326398" lon="11.360649898456069"><ele>69.0</ele><time>2026-04-19T09:39:54.999Z</time></trkpt><trkpt lat="43.77188985500686" lon="11.360764447884005"><ele>69.0</ele><time>2026-04-19T09:39:55.999Z</time></trkpt><trkpt lat="43.77193248310995" lon="11.36087324245962"><ele>68.8</ele><time>2026-04-19T09:39:56.999Z</time></trkpt><trkpt lat="43.77197566532638" lon="11.360985203694948"><ele>68.60000000000001</ele><time>2026-04-19T09:39:57.999Z</time></trkpt><trkpt lat="43.77201700285877" lon="11.361101867846093"><ele>68.4</ele><time>2026-04-19T09:39:58.999Z</time></trkpt><trkpt lat="43.77205742345074" lon="11.361222727862822"><ele>68.2</ele><time>2026-04-19T09:39:59.999Z</time></trkpt><trkpt lat="43.772088048563944" lon="11.361350214512624"><ele>68.0</ele><time>2026-04-19T09:40:00.999Z</time></trkpt><trkpt lat="43.772109490959345" lon="11.3614824962887"><ele>68.0</ele><time>2026-04-19T09:40:01.999Z</time></trkpt><trkpt lat="43.77213220521857" lon="11.361615260606689"><ele>68.0</ele><time>2026-04-19T09:40:02.999Z</time></trkpt><trkpt lat="43.772165386062724" lon="11.361740669911592"><ele>68.0</ele><time>2026-04-19T09:40:03.999Z</time></trkpt><trkpt lat="43.772217551105314" lon="11.361861519053425"><ele>68.0</ele><time>2026-04-19T09:40:04.999Z</time></trkpt><trkpt lat="43.77228826493917" lon="11.361968672698515"><ele>68.0</ele><time>2026-04-19T09:40:05.999Z</time></trkpt><trkpt lat="43.7723759461475" lon="11.362051774431398"><ele>68.0</ele><time>2026-04-19T09:40:06.998Z</time></trkpt><trkpt lat="43.77247435828475" lon="11.362118495030128"><ele>68.0</ele><time>2026-04-19T09:40:07.998Z</time></trkpt><trkpt lat="43.77257909877777" lon="11.362176261546226"><ele>68.0</ele><time>2026-04-19T09:40:08.998Z</time></trkpt><trkpt lat="43.77268974515671" lon="11.362224535838969"><ele>68.0</ele><time>2026-04-19T09:40:09.998Z</time></trkpt><trkpt lat="43.77280803894579" lon="11.362263298760691"><ele>68.25</ele><time>2026-04-19T09:40:10.998Z</time></trkpt><trkpt lat="43.77293907868954" lon="11.362299116342841"><ele>68.5</ele><time>2026-04-19T09:40:11.998Z</time></trkpt><trkpt lat="43.77307931673627" lon="11.36233422080164"><ele>68.75</ele><time>2026-04-19T09:40:12.998Z</time></trkpt><trkpt lat="43.773223876430784" lon="11.362369468094801"><ele>69.0</ele><time>2026-04-19T09:40:13.998Z</time></trkpt><trkpt lat="43.77337862063498" lon="11.362402563829546"><ele>68.0</ele><time>2026-04-19T09:40:14.998Z</time></trkpt><trkpt lat="43.77353446965926" lon="11.362459369304318"><ele>67.0</ele><time>2026-04-19T09:40:15.998Z</time></trkpt><trkpt lat="43.77370077510509" lon="11.362474770379777"><ele>66.0</ele><time>2026-04-19T09:40:16.998Z</time></trkpt><trkpt lat="43.773872237759925" lon="11.362529775356492"><ele>66.0</ele><time>2026-04-19T09:40:17.998Z</time></trkpt><trkpt lat="43.77404668421198" lon="11.362589679831904"><ele>66.0</ele><time>2026-04-19T09:40:18.998Z</time></trkpt><trkpt lat="43.77421983121833" lon="11.362646162503621"><ele>66.0</ele><time>2026-04-19T09:40:19.998Z</time></trkpt><trkpt lat="43.77439608761836" lon="11.362693906380198"><ele>66.0</ele><time>2026-04-19T09:40:20.998Z</time></trkpt><trkpt lat="43.77457308290277" lon="11.362738639651205"><ele>66.0</ele><time>2026-04-19T09:40:21.998Z</time></trkpt><trkpt lat="43.77474958048108" lon="11.362785568449292"><ele>66.0</ele><time>2026-04-19T09:40:22.998Z</time></trkpt><trkpt lat="43.77492415923305" lon="11.362835067399372"><ele>66.0</ele><time>2026-04-19T09:40:24Z</time></trkpt><trkpt lat="43.77509627926148" lon="11.362884600623929"><ele>66.0</ele><time>2026-04-19T09:40:25Z</time></trkpt><trkpt lat="43.775270162108285" lon="11.36293305884198"><ele>66.0</ele><time>2026-04-19T09:40:26Z</time></trkpt><trkpt lat="43.7754442949578" lon="11.362982505487231"><ele>67.0</ele><time>2026-04-19T09:40:27Z</time></trkpt><trkpt lat="43.77562105342228" lon="11.36303789895777"><ele>68.0</ele><time>2026-04-19T09:40:28Z</time></trkpt><trkpt lat="43.77579887907438" lon="11.363104643431651"><ele>69.0</ele><time>2026-04-19T09:40:29Z</time></trkpt><trkpt lat="43.7759779567808" lon="11.363185229381392"><ele>69.0</ele><time>2026-04-19T09:40:30Z</time></trkpt><trkpt lat="43.776154449214346" lon="11.363279256003123"><ele>69.0</ele><time>2026-04-19T09:40:31Z</time></trkpt><trkpt lat="43.776333604119024" lon="11.363377263576313"><ele>69.0</ele><time>2026-04-19T09:40:32Z</time></trkpt><trkpt lat="43.776513367733585" lon="11.36347546256228"><ele>69.0</ele><time>2026-04-19T09:40:33Z</time></trkpt><trkpt lat="43.77668976303859" lon="11.363568919214728"><ele>69.0</ele><time>2026-04-19T09:40:34Z</time></trkpt><trkpt lat="43.7768683786831" lon="11.363657041919888"><ele>69.0</ele><time>2026-04-19T09:40:35Z</time></trkpt><trkpt lat="43.777053949921125" lon="11.363733999563495"><ele>69.33333333333333</ele><time>2026-04-19T09:40:36Z</time></trkpt><trkpt lat="43.77724611045096" lon="11.363793197286132"><ele>69.66666666666666</ele><time>2026-04-19T09:40:37Z</time></trkpt><trkpt lat="43.77744309688426" lon="11.363840382237681"><ele>70.0</ele><time>2026-04-19T09:40:38Z</time></trkpt><trkpt lat="43.777641344251634" lon="11.3638679709466"><ele>73.0</ele><time>2026-04-19T09:40:39Z</time></trkpt><trkpt lat="43.7778414733019" lon="11.363877825283081"><ele>76.0</ele><time>2026-04-19T09:40:40Z</time></trkpt><trkpt lat="43.77804018866827" lon="11.363876357725239"><ele>79.0</ele><time>2026-04-19T09:40:41Z</time></trkpt><trkpt lat="43.778240167320995" lon="11.363870656719001"><ele>79.0</ele><time>2026-04-19T09:40:42Z</time></trkpt><trkpt lat="43.77843633187104" lon="11.363869701908888"><ele>79.0</ele><time>2026-04-19T09:40:43Z</time></trkpt><trkpt lat="43.778631545724906" lon="11.363880652710828"><ele>79.0</ele><time>2026-04-19T09:40:44Z</time></trkpt><trkpt lat="43.77882480981284" lon="11.36390368138976"><ele>79.33333333333333</ele><time>2026-04-19T09:40:45Z</time></trkpt><trkpt lat="43.77901732288907" lon="11.3639430243688"><ele>79.66666666666667</ele><time>2026-04-19T09:40:46Z</time></trkpt><trkpt lat="43.77920418429161" lon="11.363995976159027"><ele>80.0</ele><time>2026-04-19T09:40:47Z</time></trkpt><trkpt lat="43.77938462006801" lon="11.364055399081325"><ele>80.66666666666667</ele><time>2026-04-19T09:40:48Z</time></trkpt><trkpt lat="43.77956376680616" lon="11.364115469402996"><ele>81.33333333333333</ele><time>2026-04-19T09:40:49Z</time></trkpt><trkpt lat="43.77974007721801" lon="11.364180818280612"><ele>82.0</ele><time>2026-04-19T09:40:50Z</time></trkpt><trkpt lat="43.779916032169865" lon="11.364254881759527"><ele>82.0</ele><time>2026-04-19T09:40:51Z</time></trkpt><trkpt lat="43.78009307774164" lon="11.36432898383573"><ele>82.0</ele><time>2026-04-19T09:40:52Z</time></trkpt><trkpt lat="43.78026803545638" lon="11.364397816159968"><ele>82.0</ele><time>2026-04-19T09:40:53Z</time></trkpt><trkpt lat="43.780432409723716" lon="11.364463396137"><ele>81.0</ele><time>2026-04-19T09:40:54Z</time></trkpt><trkpt lat="43.780595976546245" lon="11.364537267711867"><ele>80.0</ele><time>2026-04-19T09:40:55Z</time></trkpt><trkpt lat="43.78076266149837" lon="11.364620123097474"><ele>79.0</ele><time>2026-04-19T09:40:56Z</time></trkpt><trkpt lat="43.780931798427" lon="11.364716178421618"><ele>79.0</ele><time>2026-04-19T09:40:57Z</time></trkpt><trkpt lat="43.781100075770915" lon="11.364828649521662"><ele>79.0</ele><time>2026-04-19T09:40:58Z</time></trkpt><trkpt lat="43.78126894877826" lon="11.36495564672269"><ele>79.0</ele><time>2026-04-19T09:40:59Z</time></trkpt><trkpt lat="43.78143719513523" lon="11.365092643295464"><ele>79.0</ele><time>2026-04-19T09:41:00Z</time></trkpt><trkpt lat="43.7816032527213" lon="11.365238244924893"><ele>79.0</ele><time>2026-04-19T09:41:01Z</time></trkpt><trkpt lat="43.78176695249004" lon="11.365388737676298"><ele>79.0</ele><time>2026-04-19T09:41:02Z</time></trkpt><trkpt lat="43.7819227379051" lon="11.365543107281738"><ele>77.33333333333333</ele><time>2026-04-19T09:41:03Z</time></trkpt><trkpt lat="43.78207042117278" lon="11.365700425383134"><ele>75.66666666666667</ele><time>2026-04-19T09:41:04Z</time></trkpt><trkpt lat="43.78221025527466" lon="11.365866109293185"><ele>74.0</ele><time>2026-04-19T09:41:05Z</time></trkpt><trkpt lat="43.7823414250432" lon="11.366054255303844"><ele>74.0</ele><time>2026-04-19T09:41:06Z</time></trkpt><trkpt lat="43.78246050461806" lon="11.36626394403807"><ele>74.0</ele><time>2026-04-19T09:41:07Z</time></trkpt><trkpt lat="43.78255912337994" lon="11.36648557541752"><ele>74.0</ele><time>2026-04-19T09:41:08Z</time></trkpt><trkpt lat="43.78264462530734" lon="11.36670429310777"><ele>72.33333333333334</ele><time>2026-04-19T09:41:09Z</time></trkpt><trkpt lat="43.78271958457598" lon="11.366929205631818"><ele>70.66666666666667</ele><time>2026-04-19T09:41:10Z</time></trkpt><trkpt lat="43.782778096233265" lon="11.367169113675372"><ele>69.0</ele><time>2026-04-19T09:41:11Z</time></trkpt><trkpt lat="43.78282400027433" lon="11.367410130237738"><ele>69.0</ele><time>2026-04-19T09:41:12Z</time></trkpt><trkpt lat="43.78285574945103" lon="11.36766393840147"><ele>69.0</ele><time>2026-04-19T09:41:13Z</time></trkpt><trkpt lat="43.78287089361175" lon="11.367920649954753"><ele>69.0</ele><time>2026-04-19T09:41:14Z</time></trkpt><trkpt lat="43.78286832225803" lon="11.36818138575068"><ele>68.66666666666667</ele><time>2026-04-19T09:41:15Z</time></trkpt><trkpt lat="43.782849964468355" lon="11.36844302330989"><ele>68.33333333333334</ele><time>2026-04-19T09:41:16Z</time></trkpt><trkpt lat="43.782826388429136" lon="11.36870427396594"><ele>68.0</ele><time>2026-04-19T09:41:17Z</time></trkpt><trkpt lat="43.78280154109899" lon="11.36895007400824"><ele>68.0</ele><time>2026-04-19T09:41:18Z</time></trkpt><trkpt lat="43.78277789926784" lon="11.369177619895613"><ele>68.0</ele><time>2026-04-19T09:41:19Z</time></trkpt><trkpt lat="43.78276027809783" lon="11.369391552305721"><ele>68.0</ele><time>2026-04-19T09:41:20Z</time></trkpt><trkpt lat="43.7827435399921" lon="11.369587688976441"><ele>67.5</ele><time>2026-04-19T09:41:21Z</time></trkpt><trkpt lat="43.78272360865454" lon="11.369771628704786"><ele>67.0</ele><time>2026-04-19T09:41:22Z</time></trkpt><trkpt lat="43.78270301504564" lon="11.369948946191226"><ele>66.5</ele><time>2026-04-19T09:41:23Z</time></trkpt><trkpt lat="43.78268858669428" lon="11.370115631678694"><ele>66.0</ele><time>2026-04-19T09:41:24Z</time></trkpt><trkpt lat="43.782675290571895" lon="11.37027326075259"><ele>69.5</ele><time>2026-04-19T09:41:25Z</time></trkpt><trkpt lat="43.78265738626668" lon="11.370429524344555"><ele>73.0</ele><time>2026-04-19T09:41:25.999Z</time></trkpt><trkpt lat="43.78263998632565" lon="11.370586445990691"><ele>76.5</ele><time>2026-04-19T09:41:26.999Z</time></trkpt><trkpt lat="43.78262952295307" lon="11.370746258035203"><ele>80.0</ele><time>2026-04-19T09:41:27.999Z</time></trkpt><trkpt lat="43.7826128875614" lon="11.37090801221416"><ele>80.0</ele><time>2026-04-19T09:41:28.999Z</time></trkpt><trkpt lat="43.782593903224466" lon="11.37107445252645"><ele>80.0</ele><time>2026-04-19T09:41:29.999Z</time></trkpt><trkpt lat="43.78257694894747" lon="11.3712573116028"><ele>80.0</ele><time>2026-04-19T09:41:30.999Z</time></trkpt><trkpt lat="43.78256033687138" lon="11.371457942340026"><ele>80.0</ele><time>2026-04-19T09:41:31.999Z</time></trkpt><trkpt lat="43.78254300372028" lon="11.37168083545109"><ele>80.33333333333334</ele><time>2026-04-19T09:41:32.999Z</time></trkpt><trkpt lat="43.78253197104339" lon="11.371925844823226"><ele>80.66666666666667</ele><time>2026-04-19T09:41:33.999Z</time></trkpt><trkpt lat="43.78252938797463" lon="11.372192167364362"><ele>81.0</ele><time>2026-04-19T09:41:34.999Z</time></trkpt><trkpt lat="43.78252985905048" lon="11.372479126368832"><ele>81.0</ele><time>2026-04-19T09:41:35.999Z</time></trkpt><trkpt lat="43.78253194477055" lon="11.37277241470463"><ele>81.0</ele><time>2026-04-19T09:41:36.999Z</time></trkpt><trkpt lat="43.78253737001643" lon="11.373061432776142"><ele>81.0</ele><time>2026-04-19T09:41:37.999Z</time></trkpt><trkpt lat="43.78254696192113" lon="11.373353733492811"><ele>80.66666666666667</ele><time>2026-04-19T09:41:38.999Z</time></trkpt><trkpt lat="43.78255591701987" lon="11.373644584995553"><ele>80.33333333333334</ele><time>2026-04-19T09:41:39.999Z</time></trkpt><trkpt lat="43.782561373831875" lon="11.373933968263605"><ele>80.0</ele><time>2026-04-19T09:41:40.999Z</time></trkpt><trkpt lat="43.782565923129354" lon="11.374218974637234"><ele>80.0</ele><time>2026-04-19T09:41:41.999Z</time></trkpt><trkpt lat="43.78257877694869" lon="11.374501005418908"><ele>80.0</ele><time>2026-04-19T09:41:42.999Z</time></trkpt><trkpt lat="43.78259865351987" lon="11.374782473159307"><ele>80.0</ele><time>2026-04-19T09:41:43.999Z</time></trkpt><trkpt lat="43.782625465477366" lon="11.37506274105937"><ele>78.33333333333334</ele><time>2026-04-19T09:41:44.999Z</time></trkpt><trkpt lat="43.78265979727941" lon="11.375345077614714"><ele>76.66666666666667</ele><time>2026-04-19T09:41:45.999Z</time></trkpt><trkpt lat="43.78270367383539" lon="11.375630395043023"><ele>75.0</ele><time>2026-04-19T09:41:46.999Z</time></trkpt><trkpt lat="43.782758982788074" lon="11.375919260091564"><ele>75.0</ele><time>2026-04-19T09:41:47.999Z</time></trkpt><trkpt lat="43.78282641659604" lon="11.376206414653371"><ele>75.0</ele><time>2026-04-19T09:41:48.999Z</time></trkpt><trkpt lat="43.78290463589434" lon="11.376489676587136"><ele>75.0</ele><time>2026-04-19T09:41:49.999Z</time></trkpt><trkpt lat="43.78298702346905" lon="11.376771207143602"><ele>78.0</ele><time>2026-04-19T09:41:50.999Z</time></trkpt><trkpt lat="43.783065199563204" lon="11.377053259565153"><ele>81.0</ele><time>2026-04-19T09:41:51.999Z</time></trkpt><trkpt lat="43.783143419823176" lon="11.377333795622858"><ele>84.0</ele><time>2026-04-19T09:41:52.999Z</time></trkpt><trkpt lat="43.783223964254105" lon="11.377608018052564"><ele>86.66666666666667</ele><time>2026-04-19T09:41:53.999Z</time></trkpt><trkpt lat="43.78330169564759" lon="11.377879442854988"><ele>89.33333333333334</ele><time>2026-04-19T09:41:54.999Z</time></trkpt><trkpt lat="43.78337583602524" lon="11.378146995725096"><ele>92.0</ele><time>2026-04-19T09:41:55.999Z</time></trkpt><trkpt lat="43.78344680874628" lon="11.378411891155746"><ele>86.33333333333334</ele><time>2026-04-19T09:41:56.999Z</time></trkpt><trkpt lat="43.783519312475164" lon="11.378674486311525"><ele>80.66666666666667</ele><time>2026-04-19T09:41:57.999Z</time></trkpt><trkpt lat="43.78357762322422" lon="11.378941156701853"><ele>75.0</ele><time>2026-04-19T09:41:58.999Z</time></trkpt><trkpt lat="43.783625371927414" lon="11.379214904699454"><ele>75.0</ele><time>2026-04-19T09:41:59.999Z</time></trkpt><trkpt lat="43.78368073318094" lon="11.379489401493958"><ele>75.0</ele><time>2026-04-19T09:42:00.999Z</time></trkpt><trkpt lat="43.78375412448663" lon="11.379762981018175"><ele>75.0</ele><time>2026-04-19T09:42:01.999Z</time></trkpt><trkpt lat="43.783836940774826" lon="11.380035541242785"><ele>76.33333333333333</ele><time>2026-04-19T09:42:02.999Z</time></trkpt><trkpt lat="43.78392380593838" lon="11.380308125347373"><ele>77.66666666666666</ele><time>2026-04-19T09:42:03.999Z</time></trkpt><trkpt lat="43.78401596705935" lon="11.380576021039591"><ele>79.0</ele><time>2026-04-19T09:42:04.999Z</time></trkpt><trkpt lat="43.78411808861734" lon="11.380835907427237"><ele>80.66666666666666</ele><time>2026-04-19T09:42:05.999Z</time></trkpt><trkpt lat="43.784225998045216" lon="11.381076635155443"><ele>82.33333333333333</ele><time>2026-04-19T09:42:06.999Z</time></trkpt><trkpt lat="43.78433241226964" lon="11.381302455676384"><ele>84.0</ele><time>2026-04-19T09:42:07.999Z</time></trkpt><trkpt lat="43.78443538661515" lon="11.381525902927411"><ele>79.66666666666667</ele><time>2026-04-19T09:42:08.999Z</time></trkpt><trkpt lat="43.78453583935322" lon="11.381741413841537"><ele>75.33333333333334</ele><time>2026-04-19T09:42:09.999Z</time></trkpt><trkpt lat="43.7846439053137" lon="11.381946144531371"><ele>71.0</ele><time>2026-04-19T09:42:10.999Z</time></trkpt><trkpt lat="43.784767486991136" lon="11.38214023628047"><ele>71.0</ele><time>2026-04-19T09:42:11.999Z</time></trkpt><trkpt lat="43.78491410594299" lon="11.38231480829321"><ele>71.0</ele><time>2026-04-19T09:42:12.999Z</time></trkpt><trkpt lat="43.78508248471764" lon="11.382471663285697"><ele>71.0</ele><time>2026-04-19T09:42:13.999Z</time></trkpt><trkpt lat="43.785262734430795" lon="11.382611830215685"><ele>71.0</ele><time>2026-04-19T09:42:14.999Z</time></trkpt><trkpt lat="43.785448068155205" lon="11.38274775663711"><ele>71.0</ele><time>2026-04-19T09:42:15.999Z</time></trkpt><trkpt lat="43.78562756255036" lon="11.382902676892398"><ele>71.0</ele><time>2026-04-19T09:42:16.999Z</time></trkpt><trkpt lat="43.78579846017829" lon="11.3830897180848"><ele>71.0</ele><time>2026-04-19T09:42:17.999Z</time></trkpt><trkpt lat="43.78595735438143" lon="11.383296897293128"><ele>71.0</ele><time>2026-04-19T09:42:18.999Z</time></trkpt><trkpt lat="43.78610209383821" lon="11.383528071541798"><ele>71.0</ele><time>2026-04-19T09:42:19.999Z</time></trkpt><trkpt lat="43.78623501846428" lon="11.383769657905328"><ele>72.66666666666667</ele><time>2026-04-19T09:42:20.999Z</time></trkpt><trkpt lat="43.78635892135277" lon="11.384011253541727"><ele>74.33333333333333</ele><time>2026-04-19T09:42:21.999Z</time></trkpt><trkpt lat="43.78646712091031" lon="11.384256305553146"><ele>76.0</ele><time>2026-04-19T09:42:22.999Z</time></trkpt><trkpt lat="43.786555276595" lon="11.384509885284658"><ele>76.66666666666666</ele><time>2026-04-19T09:42:23.999Z</time></trkpt><trkpt lat="43.78662712550311" lon="11.384769031020868"><ele>77.33333333333333</ele><time>2026-04-19T09:42:24.999Z</time></trkpt><trkpt lat="43.786681284710994" lon="11.385032478616887"><ele>78.0</ele><time>2026-04-19T09:42:25.999Z</time></trkpt><trkpt lat="43.78671492444695" lon="11.385295830255131"><ele>78.33333333333333</ele><time>2026-04-19T09:42:26.998Z</time></trkpt><trkpt lat="43.78673364210641" lon="11.385561635887292"><ele>78.66666666666666</ele><time>2026-04-19T09:42:27.998Z</time></trkpt><trkpt lat="43.78674802077303" lon="11.38582045437088"><ele>79.0</ele><time>2026-04-19T09:42:28.998Z</time></trkpt><trkpt lat="43.78676425282068" lon="11.386063454301095"><ele>79.0</ele><time>2026-04-19T09:42:30Z</time></trkpt><trkpt lat="43.78677907794348" lon="11.386300460080331"><ele>79.0</ele><time>2026-04-19T09:42:31Z</time></trkpt><trkpt lat="43.78679284210922" lon="11.386537398608848"><ele>79.0</ele><time>2026-04-19T09:42:32Z</time></trkpt><trkpt lat="43.786807179561265" lon="11.38677057500419"><ele>78.66666666666666</ele><time>2026-04-19T09:42:33Z</time></trkpt><trkpt lat="43.78682330928691" lon="11.387002412583994"><ele>78.33333333333333</ele><time>2026-04-19T09:42:34Z</time></trkpt><trkpt lat="43.78683968136392" lon="11.38723615780142"><ele>78.0</ele><time>2026-04-19T09:42:35Z</time></trkpt><trkpt lat="43.786853499859454" lon="11.387468236273527"><ele>78.0</ele><time>2026-04-19T09:42:36Z</time></trkpt><trkpt lat="43.78686922890974" lon="11.387700813429664"><ele>78.0</ele><time>2026-04-19T09:42:37Z</time></trkpt><trkpt lat="43.786877685875254" lon="11.387935114974512"><ele>78.0</ele><time>2026-04-19T09:42:38Z</time></trkpt><trkpt lat="43.78687185880478" lon="11.388172833601619"><ele>77.66666666666667</ele><time>2026-04-19T09:42:39Z</time></trkpt><trkpt lat="43.78684726880744" lon="11.388414614060544"><ele>77.33333333333334</ele><time>2026-04-19T09:42:40Z</time></trkpt><trkpt lat="43.786804183123124" lon="11.38865778210271"><ele>77.0</ele><time>2026-04-19T09:42:41Z</time></trkpt><trkpt lat="43.78674349596941" lon="11.388906230553818"><ele>80.33333333333334</ele><time>2026-04-19T09:42:42Z</time></trkpt><trkpt lat="43.786670738541616" lon="11.389153690113684"><ele>83.66666666666667</ele><time>2026-04-19T09:42:43Z</time></trkpt><trkpt lat="43.78659498859308" lon="11.389406433712667"><ele>87.0</ele><time>2026-04-19T09:42:44Z</time></trkpt><trkpt lat="43.78651736362296" lon="11.389665968982905"><ele>85.33333333333333</ele><time>2026-04-19T09:42:45Z</time></trkpt><trkpt lat="43.786442648982614" lon="11.38993943533511"><ele>83.66666666666666</ele><time>2026-04-19T09:42:46Z</time></trkpt><trkpt lat="43.78633935949113" lon="11.390216757915297"><ele>82.0</ele><time>2026-04-19T09:42:47Z</time></trkpt><trkpt lat="43.786246674992896" lon="11.390513886660486"><ele>81.5</ele><time>2026-04-19T09:42:48Z</time></trkpt><trkpt lat="43.78616595776241" lon="11.390812952540854"><ele>81.0</ele><time>2026-04-19T09:42:49Z</time></trkpt><trkpt lat="43.78606747438844" lon="11.39109829091848"><ele>84.66666666666667</ele><time>2026-04-19T09:42:50Z</time></trkpt><trkpt lat="43.785978404959735" lon="11.391383803166963"><ele>88.33333333333334</ele><time>2026-04-19T09:42:51Z</time></trkpt><trkpt lat="43.78588983813803" lon="11.391662306583958"><ele>92.0</ele><time>2026-04-19T09:42:52Z</time></trkpt><trkpt lat="43.78579491819107" lon="11.391928631722863"><ele>90.66666666666667</ele><time>2026-04-19T09:42:53Z</time></trkpt><trkpt lat="43.78569611396964" lon="11.39218713694881"><ele>89.33333333333333</ele><time>2026-04-19T09:42:54Z</time></trkpt><trkpt lat="43.785586729404116" lon="11.392431306819315"><ele>88.0</ele><time>2026-04-19T09:42:55Z</time></trkpt><trkpt lat="43.78547030696266" lon="11.392663384327841"><ele>88.0</ele><time>2026-04-19T09:42:56Z</time></trkpt><trkpt lat="43.78534573183029" lon="11.392883128215159"><ele>88.0</ele><time>2026-04-19T09:42:57Z</time></trkpt><trkpt lat="43.78521363480173" lon="11.39309076207817"><ele>88.0</ele><time>2026-04-19T09:42:58Z</time></trkpt><trkpt lat="43.78507455010819" lon="11.393290720834822"><ele>89.33333333333333</ele><time>2026-04-19T09:42:59Z</time></trkpt><trkpt lat="43.784930899536626" lon="11.393485437261102"><ele>90.66666666666667</ele><time>2026-04-19T09:43:00Z</time></trkpt><trkpt lat="43.78478168864738" lon="11.393675285431028"><ele>92.0</ele><time>2026-04-19T09:43:01Z</time></trkpt><trkpt lat="43.78462527391735" lon="11.39385777253343"><ele>89.66666666666667</ele><time>2026-04-19T09:43:02Z</time></trkpt><trkpt lat="43.7844596464219" lon="11.394031206005073"><ele>87.33333333333333</ele><time>2026-04-19T09:43:03Z</time></trkpt><trkpt lat="43.78428980581762" lon="11.394183969714645"><ele>85.0</ele><time>2026-04-19T09:43:04Z</time></trkpt><trkpt lat="43.78412282235135" lon="11.394331939296245"><ele>85.0</ele><time>2026-04-19T09:43:05Z</time></trkpt><trkpt lat="43.783963343124064" lon="11.394490891850518"><ele>85.0</ele><time>2026-04-19T09:43:06Z</time></trkpt><trkpt lat="43.78380830040439" lon="11.394664300089728"><ele>85.0</ele><time>2026-04-19T09:43:07Z</time></trkpt><trkpt lat="43.7836621295789" lon="11.394858592171628"><ele>84.66666666666666</ele><time>2026-04-19T09:43:08Z</time></trkpt><trkpt lat="43.783528531701954" lon="11.395073239736076"><ele>84.33333333333333</ele><time>2026-04-19T09:43:09Z</time></trkpt><trkpt lat="43.783412782926284" lon="11.395303817386154"><ele>84.0</ele><time>2026-04-19T09:43:10Z</time></trkpt><trkpt lat="43.78331719275443" lon="11.395546244705203"><ele>82.33333333333333</ele><time>2026-04-19T09:43:11Z</time></trkpt><trkpt lat="43.783239001226725" lon="11.395798480435214"><ele>80.66666666666666</ele><time>2026-04-19T09:43:11.999Z</time></trkpt><trkpt lat="43.783176871869706" lon="11.396053680968569"><ele>79.0</ele><time>2026-04-19T09:43:12.999Z</time></trkpt><trkpt lat="43.78312715780226" lon="11.396309305334844"><ele>78.33333333333333</ele><time>2026-04-19T09:43:13.999Z</time></trkpt><trkpt lat="43.783080362259014" lon="11.396561498735432"><ele>77.66666666666667</ele><time>2026-04-19T09:43:14.999Z</time></trkpt><trkpt lat="43.783028881204494" lon="11.396804717395264"><ele>77.0</ele><time>2026-04-19T09:43:15.999Z</time></trkpt><trkpt lat="43.7829655369439" lon="11.39704065902308"><ele>77.0</ele><time>2026-04-19T09:43:16.999Z</time></trkpt><trkpt lat="43.7828863664575" lon="11.397272309233589"><ele>77.0</ele><time>2026-04-19T09:43:17.999Z</time></trkpt><trkpt lat="43.7827961028262" lon="11.397494957021605"><ele>77.0</ele><time>2026-04-19T09:43:18.999Z</time></trkpt><trkpt lat="43.782702075411684" lon="11.397706735344064"><ele>76.0</ele><time>2026-04-19T09:43:19.999Z</time></trkpt><trkpt lat="43.782600811671095" lon="11.397912034183602"><ele>75.0</ele><time>2026-04-19T09:43:20.999Z</time></trkpt><trkpt lat="43.78248973310964" lon="11.398113806142891"><ele>74.0</ele><time>2026-04-19T09:43:21.999Z</time></trkpt><trkpt lat="43.78237036682724" lon="11.398309487226687"><ele>73.66666666666667</ele><time>2026-04-19T09:43:22.999Z</time></trkpt><trkpt lat="43.78224682355113" lon="11.398499794138663"><ele>73.33333333333333</ele><time>2026-04-19T09:43:23.999Z</time></trkpt><trkpt lat="43.78211940609731" lon="11.398685674722623"><ele>73.0</ele><time>2026-04-19T09:43:24.999Z</time></trkpt><trkpt lat="43.78198981467849" lon="11.398857766117036"><ele>73.0</ele><time>2026-04-19T09:43:25.999Z</time></trkpt><trkpt lat="43.78185241745612" lon="11.399018777481958"><ele>73.0</ele><time>2026-04-19T09:43:26.999Z</time></trkpt><trkpt lat="43.781710678205044" lon="11.399176799310178"><ele>73.0</ele><time>2026-04-19T09:43:27.999Z</time></trkpt><trkpt lat="43.78156902120592" lon="11.39933757609746"><ele>73.33333333333333</ele><time>2026-04-19T09:43:28.999Z</time></trkpt><trkpt lat="43.78142413004219" lon="11.399503210695489"><ele>73.66666666666667</ele><time>2026-04-19T09:43:29.999Z</time></trkpt><trkpt lat="43.78127857820644" lon="11.399664520974303"><ele>74.0</ele><time>2026-04-19T09:43:30.999Z</time></trkpt><trkpt lat="43.7811329034016" lon="11.3998263272841"><ele>77.0</ele><time>2026-04-19T09:43:31.999Z</time></trkpt><trkpt lat="43.78098669932459" lon="11.399989763453659"><ele>80.0</ele><time>2026-04-19T09:43:32.999Z</time></trkpt><trkpt lat="43.78084150538137" lon="11.400153361621266"><ele>83.0</ele><time>2026-04-19T09:43:33.999Z</time></trkpt><trkpt lat="43.78069781650696" lon="11.400317732022636"><ele>83.0</ele><time>2026-04-19T09:43:34.999Z</time></trkpt><trkpt lat="43.7805579477159" lon="11.40048073374933"><ele>83.0</ele><time>2026-04-19T09:43:35.999Z</time></trkpt><trkpt lat="43.780418476934166" lon="11.400640607916175"><ele>83.0</ele><time>2026-04-19T09:43:36.999Z</time></trkpt><trkpt lat="43.7802799187049" lon="11.400795840975436"><ele>82.33333333333334</ele><time>2026-04-19T09:43:37.999Z</time></trkpt><trkpt lat="43.78014369614877" lon="11.400948226257915"><ele>81.66666666666667</ele><time>2026-04-19T09:43:38.999Z</time></trkpt><trkpt lat="43.780007262536664" lon="11.401101725197952"><ele>81.0</ele><time>2026-04-19T09:43:39.999Z</time></trkpt><trkpt lat="43.77987417277565" lon="11.401252498825981"><ele>79.33333333333333</ele><time>2026-04-19T09:43:40.999Z</time></trkpt><trkpt lat="43.7797459226763" lon="11.401402613552944"><ele>77.66666666666666</ele><time>2026-04-19T09:43:41.999Z</time></trkpt><trkpt lat="43.77961988658099" lon="11.401551933666106"><ele>76.0</ele><time>2026-04-19T09:43:42.998Z</time></trkpt><trkpt lat="43.77949464443523" lon="11.401714771426258"><ele>76.0</ele><time>2026-04-19T09:43:43.998Z</time></trkpt><trkpt lat="43.7793747111284" lon="11.401894251712037"><ele>76.0</ele><time>2026-04-19T09:43:44.998Z</time></trkpt><trkpt lat="43.77926473470171" lon="11.402089780323841"><ele>76.0</ele><time>2026-04-19T09:43:45.998Z</time></trkpt><trkpt lat="43.77916372093192" lon="11.402306017957278"><ele>76.66666666666666</ele><time>2026-04-19T09:43:46.998Z</time></trkpt><trkpt lat="43.779075049791246" lon="11.402540400899849"><ele>77.33333333333333</ele><time>2026-04-19T09:43:47.998Z</time></trkpt><trkpt lat="43.77899842952451" lon="11.402784433897276"><ele>78.0</ele><time>2026-04-19T09:43:48.998Z</time></trkpt><trkpt lat="43.77893573597162" lon="11.403035420673122"><ele>78.0</ele><time>2026-04-19T09:43:49.998Z</time></trkpt><trkpt lat="43.77888259808704" lon="11.403289314893362"><ele>78.0</ele><time>2026-04-19T09:43:50.998Z</time></trkpt><trkpt lat="43.77882523057745" lon="11.403542541034623"><ele>78.0</ele><time>2026-04-19T09:43:51.998Z</time></trkpt><trkpt lat="43.778760498106685" lon="11.40378411884093"><ele>78.33333333333333</ele><time>2026-04-19T09:43:52.998Z</time></trkpt><trkpt lat="43.77868346694224" lon="11.404016258395623"><ele>78.66666666666666</ele><time>2026-04-19T09:43:53.998Z</time></trkpt><trkpt lat="43.77859016901532" lon="11.40424219894513"><ele>79.0</ele><time>2026-04-19T09:43:54.998Z</time></trkpt><trkpt lat="43.77848713132929" lon="11.404454029072904"><ele>79.0</ele><time>2026-04-19T09:43:55.998Z</time></trkpt><trkpt lat="43.77838365465685" lon="11.404652214747268"><ele>79.0</ele><time>2026-04-19T09:43:56.998Z</time></trkpt><trkpt lat="43.77827721162759" lon="11.404862529486737"><ele>79.0</ele><time>2026-04-19T09:43:57.998Z</time></trkpt><trkpt lat="43.778167736459025" lon="11.405080312692267"><ele>78.33333333333333</ele><time>2026-04-19T09:43:58.998Z</time></trkpt><trkpt lat="43.778058661759566" lon="11.405293532861183"><ele>77.66666666666667</ele><time>2026-04-19T09:43:59.998Z</time></trkpt><trkpt lat="43.77795401956813" lon="11.405497879889463"><ele>77.0</ele><time>2026-04-19T09:44:00.998Z</time></trkpt><trkpt lat="43.777856711522325" lon="11.405694662802226"><ele>76.66666666666667</ele><time>2026-04-19T09:44:01.998Z</time></trkpt><trkpt lat="43.77775753605318" lon="11.405886310112564"><ele>76.33333333333333</ele><time>2026-04-19T09:44:02.998Z</time></trkpt><trkpt lat="43.77765635563872" lon="11.406079945625423"><ele>76.0</ele><time>2026-04-19T09:44:03.998Z</time></trkpt><trkpt lat="43.77755518078836" lon="11.406278494568902"><ele>76.0</ele><time>2026-04-19T09:44:04.998Z</time></trkpt><trkpt lat="43.77745499854585" lon="11.406479788578624"><ele>76.0</ele><time>2026-04-19T09:44:05.998Z</time></trkpt><trkpt lat="43.77735400311784" lon="11.406681978010182"><ele>76.0</ele><time>2026-04-19T09:44:06.998Z</time></trkpt><trkpt lat="43.77725373114634" lon="11.406888664843263"><ele>76.0</ele><time>2026-04-19T09:44:07.998Z</time></trkpt><trkpt lat="43.777149025171845" lon="11.407093874685255"><ele>76.0</ele><time>2026-04-19T09:44:08.998Z</time></trkpt><trkpt lat="43.777043543788146" lon="11.407297612963095"><ele>76.0</ele><time>2026-04-19T09:44:09.998Z</time></trkpt><trkpt lat="43.776939214351074" lon="11.407506504521667"><ele>76.0</ele><time>2026-04-19T09:44:10.998Z</time></trkpt><trkpt lat="43.77683502784086" lon="11.407713918538933"><ele>76.0</ele><time>2026-04-19T09:44:11.998Z</time></trkpt><trkpt lat="43.77673331415006" lon="11.407916012069217"><ele>76.0</ele><time>2026-04-19T09:44:12.998Z</time></trkpt><trkpt lat="43.77662964964557" lon="11.408123096069708"><ele>77.0</ele><time>2026-04-19T09:44:13.998Z</time></trkpt><trkpt lat="43.77651994649101" lon="11.408351581377904"><ele>78.0</ele><time>2026-04-19T09:44:14.998Z</time></trkpt><trkpt lat="43.77638162783479" lon="11.40858448070061"><ele>79.0</ele><time>2026-04-19T09:44:15.998Z</time></trkpt><trkpt lat="43.77625486345308" lon="11.40882308812658"><ele>79.0</ele><time>2026-04-19T09:44:16.998Z</time></trkpt><trkpt lat="43.776144049259855" lon="11.409050693054832"><ele>79.0</ele><time>2026-04-19T09:44:17.998Z</time></trkpt><trkpt lat="43.776027056162015" lon="11.409248807570602"><ele>79.0</ele><time>2026-04-19T09:44:18.998Z</time></trkpt><trkpt lat="43.77591883292033" lon="11.409427852913227"><ele>79.33333333333333</ele><time>2026-04-19T09:44:19.998Z</time></trkpt><trkpt lat="43.77581177019749" lon="11.409594160735328"><ele>79.66666666666667</ele><time>2026-04-19T09:44:20.998Z</time></trkpt><trkpt lat="43.775702532683454" lon="11.409757435993992"><ele>80.0</ele><time>2026-04-19T09:44:21.998Z</time></trkpt><trkpt lat="43.775591127658416" lon="11.409924077399836"><ele>80.0</ele><time>2026-04-19T09:44:22.998Z</time></trkpt><trkpt lat="43.77547787325719" lon="11.410092562468387"><ele>80.0</ele><time>2026-04-19T09:44:23.998Z</time></trkpt><trkpt lat="43.77535892843947" lon="11.410262720463082"><ele>80.0</ele><time>2026-04-19T09:44:24.998Z</time></trkpt><trkpt lat="43.77522794435754" lon="11.410449234453198"><ele>80.33333333333334</ele><time>2026-04-19T09:44:25.998Z</time></trkpt><trkpt lat="43.77508202110844" lon="11.41064495954156"><ele>80.66666666666667</ele><time>2026-04-19T09:44:26.998Z</time></trkpt><trkpt lat="43.77493043824395" lon="11.410824297773443"><ele>81.0</ele><time>2026-04-19T09:44:27.998Z</time></trkpt><trkpt lat="43.774786428840265" lon="11.410980350012412"><ele>81.0</ele><time>2026-04-19T09:44:28.998Z</time></trkpt><trkpt lat="43.774652113621435" lon="11.411133379871414"><ele>81.0</ele><time>2026-04-19T09:44:29.998Z</time></trkpt><trkpt lat="43.77452270534063" lon="11.411305319897124"><ele>81.0</ele><time>2026-04-19T09:44:30.998Z</time></trkpt><trkpt lat="43.774408678867935" lon="11.411500522046229"><ele>80.33333333333333</ele><time>2026-04-19T09:44:31.998Z</time></trkpt><trkpt lat="43.774314358036264" lon="11.411713201621437"><ele>79.66666666666666</ele><time>2026-04-19T09:44:32.998Z</time></trkpt><trkpt lat="43.774240436091304" lon="11.411935397912297"><ele>79.0</ele><time>2026-04-19T09:44:33.998Z</time></trkpt><trkpt lat="43.774184736725815" lon="11.412161479147306"><ele>79.0</ele><time>2026-04-19T09:44:34.998Z</time></trkpt><trkpt lat="43.77414400671537" lon="11.41239035049907"><ele>79.0</ele><time>2026-04-19T09:44:36Z</time></trkpt><trkpt lat="43.7741180856512" lon="11.412621538033365"><ele>79.0</ele><time>2026-04-19T09:44:37Z</time></trkpt><trkpt lat="43.774110654239664" lon="11.412852630227745"><ele>78.66666666666666</ele><time>2026-04-19T09:44:38Z</time></trkpt><trkpt lat="43.774120539844525" lon="11.41308210891174"><ele>78.33333333333333</ele><time>2026-04-19T09:44:39Z</time></trkpt><trkpt lat="43.7741388804235" lon="11.413310442157549"><ele>78.0</ele><time>2026-04-19T09:44:40Z</time></trkpt><trkpt lat="43.77415978029232" lon="11.413541477598075"><ele>78.0</ele><time>2026-04-19T09:44:41Z</time></trkpt><trkpt lat="43.774178782433864" lon="11.413773221056456"><ele>78.0</ele><time>2026-04-19T09:44:42Z</time></trkpt><trkpt lat="43.77420131512063" lon="11.414001618208768"><ele>78.0</ele><time>2026-04-19T09:44:43Z</time></trkpt><trkpt lat="43.77422489739905" lon="11.41422578590406"><ele>78.0</ele><time>2026-04-19T09:44:44Z</time></trkpt><trkpt lat="43.7742462826103" lon="11.414442152789158"><ele>78.0</ele><time>2026-04-19T09:44:45Z</time></trkpt><trkpt lat="43.77426476788419" lon="11.414643151116476"><ele>78.0</ele><time>2026-04-19T09:44:46Z</time></trkpt><trkpt lat="43.77428489242551" lon="11.414833795633209"><ele>78.0</ele><time>2026-04-19T09:44:47Z</time></trkpt><trkpt lat="43.77430426246836" lon="11.415011587597965"><ele>78.0</ele><time>2026-04-19T09:44:48Z</time></trkpt><trkpt lat="43.774320680306694" lon="11.415176228733277"><ele>78.0</ele><time>2026-04-19T09:44:49Z</time></trkpt><trkpt lat="43.7743335155083" lon="11.415329419591085"><ele>78.0</ele><time>2026-04-19T09:44:50Z</time></trkpt><trkpt lat="43.77434232272005" lon="11.415469729362156"><ele>78.0</ele><time>2026-04-19T09:44:51Z</time></trkpt><trkpt lat="43.774345645498364" lon="11.415603361041015"><ele>78.0</ele><time>2026-04-19T09:44:52Z</time></trkpt><trkpt lat="43.774341443891295" lon="11.415730121087321"><ele>78.16666666666667</ele><time>2026-04-19T09:44:53Z</time></trkpt><trkpt lat="43.774327952471744" lon="11.415842561897945"><ele>78.33333333333333</ele><time>2026-04-19T09:44:54Z</time></trkpt><trkpt lat="43.77430699963311" lon="11.415938185801307"><ele>78.5</ele><time>2026-04-19T09:44:55Z</time></trkpt><trkpt lat="43.77426193836168" lon="11.41607666940229"><ele>78.66666666666666</ele><time>2026-04-19T09:44:57Z</time></trkpt><trkpt lat="43.77422441615833" lon="11.416177695652614"><ele>78.83333333333333</ele><time>2026-04-19T09:44:58.999Z</time></trkpt><trkpt lat="43.7741758518206" lon="11.416282480772495"><ele>79.0</ele><time>2026-04-19T09:45:01.999Z</time></trkpt><trkpt lat="43.77413909343162" lon="11.416436968626238"><ele>79.5</ele><time>2026-04-19T09:45:03.999Z</time></trkpt><trkpt lat="43.774062973218435" lon="11.416530325506908"><ele>80.0</ele><time>2026-04-19T09:45:04.999Z</time></trkpt><trkpt lat="43.77399810418507" lon="11.416659521185437"><ele>80.5</ele><time>2026-04-19T09:45:05.999Z</time></trkpt><trkpt lat="43.77391637080779" lon="11.416822850239218"><ele>81.0</ele><time>2026-04-19T09:45:06.999Z</time></trkpt><trkpt lat="43.77382643018189" lon="11.417009954457317"><ele>81.0</ele><time>2026-04-19T09:45:07.999Z</time></trkpt><trkpt lat="43.7737361883674" lon="11.417203205022409"><ele>81.0</ele><time>2026-04-19T09:45:08.999Z</time></trkpt><trkpt lat="43.773645203869975" lon="11.41741271353527"><ele>81.0</ele><time>2026-04-19T09:45:09.999Z</time></trkpt><trkpt lat="43.77356240522852" lon="11.41763452036839"><ele>80.66666666666667</ele><time>2026-04-19T09:45:10.999Z</time></trkpt><trkpt lat="43.773489505821324" lon="11.417876310329886"><ele>80.33333333333334</ele><time>2026-04-19T09:45:11.999Z</time></trkpt><trkpt lat="43.773424486475406" lon="11.418118251250553"><ele>80.0</ele><time>2026-04-19T09:45:12.999Z</time></trkpt><trkpt lat="43.77336414097766" lon="11.418363773038157"><ele>80.0</ele><time>2026-04-19T09:45:13.999Z</time></trkpt><trkpt lat="43.773312297281706" lon="11.418603071199442"><ele>80.0</ele><time>2026-04-19T09:45:14.999Z</time></trkpt><trkpt lat="43.773259646447904" lon="11.418837182294657"><ele>80.0</ele><time>2026-04-19T09:45:15.999Z</time></trkpt><trkpt lat="43.773207074002066" lon="11.419059951580392"><ele>80.33333333333334</ele><time>2026-04-19T09:45:16.999Z</time></trkpt><trkpt lat="43.773157524702185" lon="11.419274045073921"><ele>80.66666666666667</ele><time>2026-04-19T09:45:17.999Z</time></trkpt><trkpt lat="43.77310887047099" lon="11.419487893867958"><ele>81.0</ele><time>2026-04-19T09:45:18.999Z</time></trkpt><trkpt lat="43.77306088531663" lon="11.419699680797075"><ele>81.0</ele><time>2026-04-19T09:45:19.999Z</time></trkpt><trkpt lat="43.773011553271154" lon="11.419913390602266"><ele>81.0</ele><time>2026-04-19T09:45:20.999Z</time></trkpt><trkpt lat="43.77295971138301" lon="11.42013170996717"><ele>81.0</ele><time>2026-04-19T09:45:21.999Z</time></trkpt><trkpt lat="43.772907911212634" lon="11.420354475247072"><ele>81.0</ele><time>2026-04-19T09:45:22.999Z</time></trkpt><trkpt lat="43.77285572790098" lon="11.420588857714973"><ele>81.0</ele><time>2026-04-19T09:45:23.999Z</time></trkpt><trkpt lat="43.77280308740374" lon="11.420836659899514"><ele>81.0</ele><time>2026-04-19T09:45:24.999Z</time></trkpt><trkpt lat="43.77274610215745" lon="11.421096332069384"><ele>80.66666666666667</ele><time>2026-04-19T09:45:25.999Z</time></trkpt><trkpt lat="43.77268301628003" lon="11.421363579229165"><ele>80.33333333333334</ele><time>2026-04-19T09:45:26.999Z</time></trkpt><trkpt lat="43.77261306508887" lon="11.421626814009281"><ele>80.0</ele><time>2026-04-19T09:45:27.999Z</time></trkpt><trkpt lat="43.772545600131146" lon="11.421888224260892"><ele>80.0</ele><time>2026-04-19T09:45:28.999Z</time></trkpt><trkpt lat="43.77248630465955" lon="11.422143925935773"><ele>80.0</ele><time>2026-04-19T09:45:29.999Z</time></trkpt><trkpt lat="43.77243200270549" lon="11.422391375628735"><ele>80.0</ele><time>2026-04-19T09:45:30.999Z</time></trkpt><trkpt lat="43.77237212543644" lon="11.422644238691008"><ele>80.33333333333334</ele><time>2026-04-19T09:45:31.999Z</time></trkpt><trkpt lat="43.772310965723804" lon="11.422905105913019"><ele>80.66666666666667</ele><time>2026-04-19T09:45:32.999Z</time></trkpt><trkpt lat="43.772250164270055" lon="11.42318491889269"><ele>81.0</ele><time>2026-04-19T09:45:33.999Z</time></trkpt><trkpt lat="43.7721846028014" lon="11.423485757373049"><ele>81.5</ele><time>2026-04-19T09:45:34.999Z</time></trkpt><trkpt lat="43.77210003278767" lon="11.423796715826015"><ele>82.0</ele><time>2026-04-19T09:45:35.999Z</time></trkpt><trkpt lat="43.772032540254735" lon="11.424125094757553"><ele>82.0</ele><time>2026-04-19T09:45:36.999Z</time></trkpt><trkpt lat="43.77194436898042" lon="11.424434439090968"><ele>82.0</ele><time>2026-04-19T09:45:37.999Z</time></trkpt><trkpt lat="43.77186871281418" lon="11.424732440478833"><ele>81.66666666666666</ele><time>2026-04-19T09:45:38.999Z</time></trkpt><trkpt lat="43.77180067334217" lon="11.42502819403647"><ele>81.33333333333333</ele><time>2026-04-19T09:45:39.999Z</time></trkpt><trkpt lat="43.77173577650164" lon="11.425321574647398"><ele>81.0</ele><time>2026-04-19T09:45:40.999Z</time></trkpt><trkpt lat="43.77166839083714" lon="11.425607688283394"><ele>81.0</ele><time>2026-04-19T09:45:41.999Z</time></trkpt><trkpt lat="43.771598256496034" lon="11.425886074872002"><ele>81.0</ele><time>2026-04-19T09:45:42.999Z</time></trkpt><trkpt lat="43.771532934102794" lon="11.426160738520489"><ele>81.0</ele><time>2026-04-19T09:45:43.999Z</time></trkpt><trkpt lat="43.77147103100333" lon="11.426431981946028"><ele>81.0</ele><time>2026-04-19T09:45:44.999Z</time></trkpt><trkpt lat="43.771409343400116" lon="11.426697893080854"><ele>81.0</ele><time>2026-04-19T09:45:45.999Z</time></trkpt><trkpt lat="43.77134682770011" lon="11.426960736982698"><ele>81.0</ele><time>2026-04-19T09:45:46.999Z</time></trkpt><trkpt lat="43.771286123969595" lon="11.427219737520025"><ele>81.33333333333333</ele><time>2026-04-19T09:45:47.999Z</time></trkpt><trkpt lat="43.771229510840136" lon="11.427477146871752"><ele>81.66666666666666</ele><time>2026-04-19T09:45:48.999Z</time></trkpt><trkpt lat="43.77117329437255" lon="11.427730126205903"><ele>82.0</ele><time>2026-04-19T09:45:49.999Z</time></trkpt><trkpt lat="43.7711166209247" lon="11.427966365780355"><ele>82.33333333333333</ele><time>2026-04-19T09:45:50.999Z</time></trkpt><trkpt lat="43.77106035712537" lon="11.428192782283874"><ele>82.66666666666667</ele><time>2026-04-19T09:45:51.999Z</time></trkpt><trkpt lat="43.77100944585897" lon="11.428406851344617"><ele>83.0</ele><time>2026-04-19T09:45:52.999Z</time></trkpt><trkpt lat="43.77096207875283" lon="11.428611629264768"><ele>82.33333333333334</ele><time>2026-04-19T09:45:53.999Z</time></trkpt><trkpt lat="43.770913367329584" lon="11.428809340915889"><ele>81.66666666666667</ele><time>2026-04-19T09:45:54.999Z</time></trkpt><trkpt lat="43.770857506971815" lon="11.429012486186004"><ele>81.0</ele><time>2026-04-19T09:45:55.999Z</time></trkpt><trkpt lat="43.77079875179761" lon="11.429216384560194"><ele>81.0</ele><time>2026-04-19T09:45:56.999Z</time></trkpt><trkpt lat="43.770738761553105" lon="11.429418815886542"><ele>81.0</ele><time>2026-04-19T09:45:57.999Z</time></trkpt><trkpt lat="43.77067687376024" lon="11.429610901529943"><ele>81.0</ele><time>2026-04-19T09:45:58.998Z</time></trkpt><trkpt lat="43.77061260401294" lon="11.429800691462317"><ele>81.0</ele><time>2026-04-19T09:45:59.998Z</time></trkpt><trkpt lat="43.77054911139147" lon="11.43000124858262"><ele>81.0</ele><time>2026-04-19T09:46:00.998Z</time></trkpt><trkpt lat="43.77048683427217" lon="11.430207677900023"><ele>81.0</ele><time>2026-04-19T09:46:01.998Z</time></trkpt><trkpt lat="43.77041629752146" lon="11.430411214050379"><ele>81.33333333333333</ele><time>2026-04-19T09:46:02.998Z</time></trkpt><trkpt lat="43.770341697344165" lon="11.430610484471964"><ele>81.66666666666666</ele><time>2026-04-19T09:46:03.998Z</time></trkpt><trkpt lat="43.77027454704715" lon="11.430797920624668"><ele>82.0</ele><time>2026-04-19T09:46:04.998Z</time></trkpt><trkpt lat="43.77021256480749" lon="11.430978432367114"><ele>81.33333333333333</ele><time>2026-04-19T09:46:05.998Z</time></trkpt><trkpt lat="43.77014816517937" lon="11.431161055383827"><ele>80.66666666666667</ele><time>2026-04-19T09:46:06.998Z</time></trkpt><trkpt lat="43.77007847480303" lon="11.43135251420368"><ele>80.0</ele><time>2026-04-19T09:46:07.998Z</time></trkpt><trkpt lat="43.77000604895062" lon="11.43157432075701"><ele>80.0</ele><time>2026-04-19T09:46:08.998Z</time></trkpt><trkpt lat="43.76992879551139" lon="11.43180559398705"><ele>80.0</ele><time>2026-04-19T09:46:09.998Z</time></trkpt><trkpt lat="43.76984552268033" lon="11.432041203170392"><ele>80.0</ele><time>2026-04-19T09:46:10.998Z</time></trkpt><trkpt lat="43.76975829388365" lon="11.43228128299326"><ele>80.66666666666667</ele><time>2026-04-19T09:46:11.998Z</time></trkpt><trkpt lat="43.769674642456785" lon="11.43253649729154"><ele>81.33333333333333</ele><time>2026-04-19T09:46:12.998Z</time></trkpt><trkpt lat="43.7695998367478" lon="11.43281061293641"><ele>82.0</ele><time>2026-04-19T09:46:13.998Z</time></trkpt><trkpt lat="43.769536488173735" lon="11.433086615185744"><ele>82.0</ele><time>2026-04-19T09:46:14.998Z</time></trkpt><trkpt lat="43.769481006989025" lon="11.433362115139765"><ele>82.0</ele><time>2026-04-19T09:46:15.998Z</time></trkpt><trkpt lat="43.769434010872644" lon="11.433633548789988"><ele>82.0</ele><time>2026-04-19T09:46:16.998Z</time></trkpt><trkpt lat="43.769397031956515" lon="11.433890971890815"><ele>82.0</ele><time>2026-04-19T09:46:17.998Z</time></trkpt><trkpt lat="43.76936747571133" lon="11.434136862583632"><ele>82.0</ele><time>2026-04-19T09:46:18.998Z</time></trkpt><trkpt lat="43.76934575239699" lon="11.434371420885507"><ele>82.0</ele><time>2026-04-19T09:46:19.998Z</time></trkpt><trkpt lat="43.769330932958646" lon="11.434603130185236"><ele>82.0</ele><time>2026-04-19T09:46:20.998Z</time></trkpt><trkpt lat="43.769320828864" lon="11.434845074079258"><ele>82.0</ele><time>2026-04-19T09:46:21.998Z</time></trkpt><trkpt lat="43.76931424545906" lon="11.435088557084107"><ele>82.0</ele><time>2026-04-19T09:46:22.998Z</time></trkpt><trkpt lat="43.7693158487772" lon="11.435332752561978"><ele>81.66666666666666</ele><time>2026-04-19T09:46:23.998Z</time></trkpt><trkpt lat="43.769324471354224" lon="11.435573976402935"><ele>81.33333333333333</ele><time>2026-04-19T09:46:24.998Z</time></trkpt><trkpt lat="43.769339093694924" lon="11.435812210475754"><ele>81.0</ele><time>2026-04-19T09:46:25.998Z</time></trkpt><trkpt lat="43.76936055823411" lon="11.436050265535972"><ele>81.66666666666667</ele><time>2026-04-19T09:46:26.998Z</time></trkpt><trkpt lat="43.769387643211715" lon="11.436285794178707"><ele>82.33333333333334</ele><time>2026-04-19T09:46:27.998Z</time></trkpt><trkpt lat="43.76941929339671" lon="11.436520616495477"><ele>83.0</ele><time>2026-04-19T09:46:28.998Z</time></trkpt><trkpt lat="43.76945696626956" lon="11.436751673209296"><ele>83.0</ele><time>2026-04-19T09:46:29.998Z</time></trkpt><trkpt lat="43.76949988255673" lon="11.43698068291421"><ele>83.0</ele><time>2026-04-19T09:46:30.998Z</time></trkpt><trkpt lat="43.7695468963215" lon="11.437201901324352"><ele>83.0</ele><time>2026-04-19T09:46:31.998Z</time></trkpt><trkpt lat="43.76959950796034" lon="11.437416955681362"><ele>83.0</ele><time>2026-04-19T09:46:32.998Z</time></trkpt><trkpt lat="43.76965614029504" lon="11.437626354018365"><ele>83.0</ele><time>2026-04-19T09:46:33.998Z</time></trkpt><trkpt lat="43.769712200358" lon="11.437828465918264"><ele>83.0</ele><time>2026-04-19T09:46:34.998Z</time></trkpt><trkpt lat="43.76977258729567" lon="11.438026400248097"><ele>83.0</ele><time>2026-04-19T09:46:35.998Z</time></trkpt><trkpt lat="43.76983795812547" lon="11.438221046606433"><ele>83.0</ele><time>2026-04-19T09:46:36.998Z</time></trkpt><trkpt lat="43.76990141354114" lon="11.43840866043359"><ele>83.0</ele><time>2026-04-19T09:46:37.998Z</time></trkpt><trkpt lat="43.76996501924276" lon="11.438593954698105"><ele>83.0</ele><time>2026-04-19T09:46:38.998Z</time></trkpt><trkpt lat="43.7700264115001" lon="11.43877177891907"><ele>83.0</ele><time>2026-04-19T09:46:39.998Z</time></trkpt><trkpt lat="43.770088776319376" lon="11.43895036914265"><ele>83.0</ele><time>2026-04-19T09:46:40.998Z</time></trkpt><trkpt lat="43.770152713816046" lon="11.439133167591779"><ele>83.0</ele><time>2026-04-19T09:46:42Z</time></trkpt><trkpt lat="43.77021639781694" lon="11.439318435798318"><ele>83.33333333333334</ele><time>2026-04-19T09:46:43Z</time></trkpt><trkpt lat="43.7702803028029" lon="11.439504324640575"><ele>83.66666666666667</ele><time>2026-04-19T09:46:44Z</time></trkpt><trkpt lat="43.77035117666763" lon="11.439697684047976"><ele>84.0</ele><time>2026-04-19T09:46:45Z</time></trkpt><trkpt lat="43.770431948829035" lon="11.439905466353569"><ele>83.33333333333333</ele><time>2026-04-19T09:46:46Z</time></trkpt><trkpt lat="43.770517818274946" lon="11.44012777395783"><ele>82.66666666666666</ele><time>2026-04-19T09:46:47Z</time></trkpt><trkpt lat="43.770601440580506" lon="11.440360415428245"><ele>82.0</ele><time>2026-04-19T09:46:48Z</time></trkpt><trkpt lat="43.770677936636346" lon="11.440584665287465"><ele>81.33333333333333</ele><time>2026-04-19T09:46:49Z</time></trkpt><trkpt lat="43.77074887142011" lon="11.440797305468106"><ele>80.66666666666667</ele><time>2026-04-19T09:46:50Z</time></trkpt><trkpt lat="43.770813945694776" lon="11.440996182077118"><ele>80.0</ele><time>2026-04-19T09:46:51Z</time></trkpt><trkpt lat="43.77087304746336" lon="11.441190234554268"><ele>78.66666666666667</ele><time>2026-04-19T09:46:52Z</time></trkpt><trkpt lat="43.77092687232277" lon="11.441385231797655"><ele>77.33333333333333</ele><time>2026-04-19T09:46:53Z</time></trkpt><trkpt lat="43.77097602527456" lon="11.441580415127552"><ele>76.0</ele><time>2026-04-19T09:46:54Z</time></trkpt><trkpt lat="43.771019454999134" lon="11.44178315783122"><ele>77.33333333333333</ele><time>2026-04-19T09:46:55Z</time></trkpt><trkpt lat="43.7710560427717" lon="11.441993258423512"><ele>78.66666666666667</ele><time>2026-04-19T09:46:56Z</time></trkpt><trkpt lat="43.77108949260248" lon="11.442212595863666"><ele>80.0</ele><time>2026-04-19T09:46:57Z</time></trkpt><trkpt lat="43.77111942944765" lon="11.442432880669037"><ele>80.0</ele><time>2026-04-19T09:46:58Z</time></trkpt><trkpt lat="43.771142124825" lon="11.442649311713804"><ele>80.0</ele><time>2026-04-19T09:46:59Z</time></trkpt><trkpt lat="43.77116255823362" lon="11.442854926352828"><ele>80.0</ele><time>2026-04-19T09:47:00Z</time></trkpt><trkpt lat="43.7711808862708" lon="11.443047029207614"><ele>80.0</ele><time>2026-04-19T09:47:01Z</time></trkpt><trkpt lat="43.771195127160574" lon="11.443239635215571"><ele>80.25</ele><time>2026-04-19T09:47:02Z</time></trkpt><trkpt lat="43.77120811713822" lon="11.443431233411753"><ele>80.5</ele><time>2026-04-19T09:47:03Z</time></trkpt><trkpt lat="43.771220920207206" lon="11.443621031148254"><ele>80.75</ele><time>2026-04-19T09:47:04Z</time></trkpt><trkpt lat="43.77123484970577" lon="11.44380959807094"><ele>81.0</ele><time>2026-04-19T09:47:05Z</time></trkpt><trkpt lat="43.77124777881846" lon="11.44398876993642"><ele>81.5</ele><time>2026-04-19T09:47:06Z</time></trkpt><trkpt lat="43.77126063180648" lon="11.444170176237792"><ele>82.0</ele><time>2026-04-19T09:47:07Z</time></trkpt><trkpt lat="43.771274546324086" lon="11.44435633527434"><ele>82.5</ele><time>2026-04-19T09:47:08Z</time></trkpt><trkpt lat="43.77128830945579" lon="11.444543146461077"><ele>83.0</ele><time>2026-04-19T09:47:09Z</time></trkpt><trkpt lat="43.77130250192552" lon="11.444734026187202"><ele>83.0</ele><time>2026-04-19T09:47:10Z</time></trkpt><trkpt lat="43.771317246294295" lon="11.444924583292417"><ele>83.0</ele><time>2026-04-19T09:47:11Z</time></trkpt><trkpt lat="43.77133009240443" lon="11.445103205423218"><ele>83.0</ele><time>2026-04-19T09:47:12Z</time></trkpt><trkpt lat="43.77134471364363" lon="11.445279089577589"><ele>83.0</ele><time>2026-04-19T09:47:12.999Z</time></trkpt><trkpt lat="43.77136038084763" lon="11.445461787521637"><ele>82.75</ele><time>2026-04-19T09:47:13.999Z</time></trkpt><trkpt lat="43.77137519898456" lon="11.445648634884488"><ele>82.5</ele><time>2026-04-19T09:47:14.999Z</time></trkpt><trkpt lat="43.77139043174033" lon="11.445839983145246"><ele>82.25</ele><time>2026-04-19T09:47:15.999Z</time></trkpt><trkpt lat="43.77140680324468" lon="11.44603391437284"><ele>82.0</ele><time>2026-04-19T09:47:16.999Z</time></trkpt><trkpt lat="43.77142489266993" lon="11.446230280762073"><ele>82.5</ele><time>2026-04-19T09:47:17.999Z</time></trkpt><trkpt lat="43.77144434701761" lon="11.446425058747769"><ele>83.0</ele><time>2026-04-19T09:47:18.999Z</time></trkpt><trkpt lat="43.77146916590759" lon="11.446621066252154"><ele>83.5</ele><time>2026-04-19T09:47:19.999Z</time></trkpt><trkpt lat="43.771496362403994" lon="11.446809616988716"><ele>84.0</ele><time>2026-04-19T09:47:20.999Z</time></trkpt><trkpt lat="43.77152683717315" lon="11.446994027102788"><ele>84.0</ele><time>2026-04-19T09:47:21.999Z</time></trkpt><trkpt lat="43.771561919629576" lon="11.447175482981034"><ele>84.0</ele><time>2026-04-19T09:47:22.999Z</time></trkpt><trkpt lat="43.771602785171424" lon="11.4473561861827"><ele>84.0</ele><time>2026-04-19T09:47:23.999Z</time></trkpt><trkpt lat="43.77164885559433" lon="11.44752847904231"><ele>84.0</ele><time>2026-04-19T09:47:24.999Z</time></trkpt><trkpt lat="43.77169806387612" lon="11.447692999213933"><ele>84.0</ele><time>2026-04-19T09:47:25.999Z</time></trkpt><trkpt lat="43.77175042069076" lon="11.447856660305147"><ele>84.0</ele><time>2026-04-19T09:47:26.999Z</time></trkpt><trkpt lat="43.771801851589736" lon="11.448027698827683"><ele>84.0</ele><time>2026-04-19T09:47:27.999Z</time></trkpt><trkpt lat="43.7718550113921" lon="11.448205991853733"><ele>84.0</ele><time>2026-04-19T09:47:28.999Z</time></trkpt><trkpt lat="43.771923958263805" lon="11.448390901820002"><ele>84.25</ele><time>2026-04-19T09:47:29.999Z</time></trkpt><trkpt lat="43.77200202628927" lon="11.44856137195448"><ele>84.5</ele><time>2026-04-19T09:47:30.999Z</time></trkpt><trkpt lat="43.7720788686189" lon="11.448708074132345"><ele>84.75</ele><time>2026-04-19T09:47:31.999Z</time></trkpt><trkpt lat="43.772159063045066" lon="11.448853672641636"><ele>85.0</ele><time>2026-04-19T09:47:32.999Z</time></trkpt><trkpt lat="43.772242788467956" lon="11.448998598629947"><ele>85.75</ele><time>2026-04-19T09:47:33.999Z</time></trkpt><trkpt lat="43.77232745851197" lon="11.44913689038692"><ele>86.5</ele><time>2026-04-19T09:47:34.999Z</time></trkpt><trkpt lat="43.772414096514645" lon="11.449270497387264"><ele>87.25</ele><time>2026-04-19T09:47:35.999Z</time></trkpt><trkpt lat="43.77249937774638" lon="11.449412697986237"><ele>88.0</ele><time>2026-04-19T09:47:36.999Z</time></trkpt><trkpt lat="43.772574399087866" lon="11.449566832904855"><ele>88.25</ele><time>2026-04-19T09:47:37.999Z</time></trkpt><trkpt lat="43.772629863943735" lon="11.449733500463811"><ele>88.5</ele><time>2026-04-19T09:47:38.999Z</time></trkpt><trkpt lat="43.772672731146066" lon="11.44990330641153"><ele>88.75</ele><time>2026-04-19T09:47:39.999Z</time></trkpt><trkpt lat="43.77270403292871" lon="11.45008311914882"><ele>89.0</ele><time>2026-04-19T09:47:40.999Z</time></trkpt><trkpt lat="43.77273393461064" lon="11.450260597109807"><ele>89.75</ele><time>2026-04-19T09:47:41.999Z</time></trkpt><trkpt lat="43.772778098042664" lon="11.450430244777703"><ele>90.5</ele><time>2026-04-19T09:47:42.999Z</time></trkpt><trkpt lat="43.77283952524957" lon="11.450596497885677"><ele>91.25</ele><time>2026-04-19T09:47:43.999Z</time></trkpt><trkpt lat="43.77291638809755" lon="11.450745222511232"><ele>92.0</ele><time>2026-04-19T09:47:44.999Z</time></trkpt><trkpt lat="43.77300224528219" lon="11.450869979764608"><ele>93.0</ele><time>2026-04-19T09:47:45.999Z</time></trkpt><trkpt lat="43.77309188927342" lon="11.450973794673695"><ele>94.0</ele><time>2026-04-19T09:47:46.999Z</time></trkpt><trkpt lat="43.77318362195853" lon="11.451062016445146"><ele>95.0</ele><time>2026-04-19T09:47:47.999Z</time></trkpt><trkpt lat="43.77327666303682" lon="11.451152029480406"><ele>96.0</ele><time>2026-04-19T09:47:48.999Z</time></trkpt><trkpt lat="43.77336789359431" lon="11.451236984653999"><ele>96.19999999999999</ele><time>2026-04-19T09:47:49.999Z</time></trkpt><trkpt lat="43.77345275545258" lon="11.451316031599156"><ele>96.39999999999999</ele><time>2026-04-19T09:47:50.999Z</time></trkpt><trkpt lat="43.77353589020039" lon="11.451397015171283"><ele>96.6</ele><time>2026-04-19T09:47:51.999Z</time></trkpt><trkpt lat="43.7736083390129" lon="11.451471035758997"><ele>96.8</ele><time>2026-04-19T09:47:52.999Z</time></trkpt><trkpt lat="43.773672975680206" lon="11.451544931594917"><ele>97.0</ele><time>2026-04-19T09:47:53.999Z</time></trkpt><trkpt lat="43.77374462957783" lon="11.451598243156557"><ele>100.19999999999999</ele><time>2026-04-19T09:47:54.999Z</time></trkpt><trkpt lat="43.77380483660675" lon="11.451660507363899"><ele>103.4</ele><time>2026-04-19T09:47:55.999Z</time></trkpt><trkpt lat="43.7737757744904" lon="11.451843485548258"><ele>106.60000000000001</ele><time>2026-04-19T09:47:56.999Z</time></trkpt><trkpt lat="43.773748228235014" lon="11.45197486946428"><ele>109.80000000000001</ele><time>2026-04-19T09:47:57.999Z</time></trkpt><trkpt lat="43.77369064850352" lon="11.452104569175729"><ele>113.0</ele><time>2026-04-19T09:47:58.999Z</time></trkpt><trkpt lat="43.77362132706923" lon="11.452249566451746"><ele>114.0</ele><time>2026-04-19T09:47:59.999Z</time></trkpt><trkpt lat="43.77355600562635" lon="11.452409138182642"><ele>115.0</ele><time>2026-04-19T09:48:00.999Z</time></trkpt><trkpt lat="43.77349030380312" lon="11.452576950474645"><ele>116.0</ele><time>2026-04-19T09:48:01.999Z</time></trkpt><trkpt lat="43.77341837944476" lon="11.452757444621337"><ele>117.0</ele><time>2026-04-19T09:48:02.999Z</time></trkpt><trkpt lat="43.7733461533561" lon="11.452960049899458"><ele>117.0</ele><time>2026-04-19T09:48:03.999Z</time></trkpt><trkpt lat="43.77326905306906" lon="11.453182596314926"><ele>117.0</ele><time>2026-04-19T09:48:04.999Z</time></trkpt><trkpt lat="43.77319667401108" lon="11.453405833128892"><ele>117.0</ele><time>2026-04-19T09:48:05.999Z</time></trkpt><trkpt lat="43.773139208661505" lon="11.453634619873634"><ele>120.33333333333334</ele><time>2026-04-19T09:48:06.999Z</time></trkpt><trkpt lat="43.773092438569904" lon="11.453868903092365"><ele>123.66666666666667</ele><time>2026-04-19T09:48:07.999Z</time></trkpt><trkpt lat="43.77305389065418" lon="11.454102856916471"><ele>127.0</ele><time>2026-04-19T09:48:08.999Z</time></trkpt><trkpt lat="43.77300520983032" lon="11.454332282303085"><ele>127.0</ele><time>2026-04-19T09:48:09.999Z</time></trkpt><trkpt lat="43.772942260921674" lon="11.454535707984936"><ele>127.0</ele><time>2026-04-19T09:48:10.999Z</time></trkpt><trkpt lat="43.77286962758345" lon="11.454706741858073"><ele>127.0</ele><time>2026-04-19T09:48:11.999Z</time></trkpt><trkpt lat="43.772796606619586" lon="11.45485327157587"><ele>127.0</ele><time>2026-04-19T09:48:12.998Z</time></trkpt><trkpt lat="43.77272836154819" lon="11.454986078636267"><ele>127.0</ele><time>2026-04-19T09:48:13.998Z</time></trkpt><trkpt lat="43.77266719853234" lon="11.455112073118933"><ele>126.99999999999999</ele><time>2026-04-19T09:48:14.998Z</time></trkpt><trkpt lat="43.772612963768516" lon="11.4552197766142"><ele>126.99999999999999</ele><time>2026-04-19T09:48:15.998Z</time></trkpt><trkpt lat="43.77255675093076" lon="11.455323675022974"><ele>127.0</ele><time>2026-04-19T09:48:16.998Z</time></trkpt><trkpt lat="43.772504639653626" lon="11.455420678561431"><ele>127.0</ele><time>2026-04-19T09:48:17.998Z</time></trkpt><trkpt lat="43.77245799185055" lon="11.455509014152023"><ele>127.0</ele><time>2026-04-19T09:48:18.998Z</time></trkpt><trkpt lat="43.772409864469196" lon="11.455599186444097"><ele>126.99999999999999</ele><time>2026-04-19T09:48:19.998Z</time></trkpt><trkpt lat="43.77236721729761" lon="11.455679336450524"><ele>126.99999999999999</ele><time>2026-04-19T09:48:20.998Z</time></trkpt><trkpt lat="43.77229092158713" lon="11.455812131125004"><ele>127.0</ele><time>2026-04-19T09:48:22.998Z</time></trkpt><trkpt lat="43.77225609403924" lon="11.455933038714695"><ele>127.0</ele><time>2026-04-19T09:48:24.998Z</time></trkpt><trkpt lat="43.77240485178115" lon="11.4560937530244"><ele>127.0</ele><time>2026-04-19T09:48:25.998Z</time></trkpt><trkpt lat="43.77246575854546" lon="11.456181666165646"><ele>126.99999999999999</ele><time>2026-04-19T09:48:26.998Z</time></trkpt><trkpt lat="43.77252037554806" lon="11.456293409669117"><ele>126.99999999999999</ele><time>2026-04-19T09:48:27.998Z</time></trkpt><trkpt lat="43.772513477453025" lon="11.456475592957577"><ele>127.0</ele><time>2026-04-19T09:48:28.998Z</time></trkpt><trkpt lat="43.77252347100052" lon="11.456642839210755"><ele>127.0</ele><time>2026-04-19T09:48:29.998Z</time></trkpt><trkpt lat="43.772539911445016" lon="11.456805469202331"><ele>127.5</ele><time>2026-04-19T09:48:30.998Z</time></trkpt><trkpt lat="43.7725667688614" lon="11.456971739244556"><ele>128.0</ele><time>2026-04-19T09:48:31.998Z</time></trkpt><trkpt lat="43.77260015395571" lon="11.457138653206963"><ele>128.5</ele><time>2026-04-19T09:48:32.998Z</time></trkpt><trkpt lat="43.772646802250634" lon="11.457303012471318"><ele>129.0</ele><time>2026-04-19T09:48:33.998Z</time></trkpt><trkpt lat="43.7727097381859" lon="11.457465104390408"><ele>137.25</ele><time>2026-04-19T09:48:34.998Z</time></trkpt><trkpt lat="43.77278240572416" lon="11.457620135488618"><ele>145.5</ele><time>2026-04-19T09:48:35.998Z</time></trkpt><trkpt lat="43.772857192481716" lon="11.457771545535095"><ele>153.75</ele><time>2026-04-19T09:48:36.998Z</time></trkpt><trkpt lat="43.772924850744495" lon="11.457918928201996"><ele>162.0</ele><time>2026-04-19T09:48:37.998Z</time></trkpt><trkpt lat="43.77298152644065" lon="11.458065105116038"><ele>162.0</ele><time>2026-04-19T09:48:38.998Z</time></trkpt><trkpt lat="43.77301957629909" lon="11.4582065690216"><ele>162.0</ele><time>2026-04-19T09:48:39.998Z</time></trkpt><trkpt lat="43.77302767109974" lon="11.458357897471878"><ele>162.0</ele><time>2026-04-19T09:48:40.998Z</time></trkpt><trkpt lat="43.77299851189121" lon="11.45850410406189"><ele>162.0</ele><time>2026-04-19T09:48:41.998Z</time></trkpt><trkpt lat="43.77295308087305" lon="11.458642617346063"><ele>162.0</ele><time>2026-04-19T09:48:42.998Z</time></trkpt><trkpt lat="43.77291391515004" lon="11.458785780772638"><ele>163.0</ele><time>2026-04-19T09:48:43.998Z</time></trkpt><trkpt lat="43.77287863237035" lon="11.45892549984424"><ele>164.0</ele><time>2026-04-19T09:48:44.998Z</time></trkpt><trkpt lat="43.77285934437164" lon="11.459071627780192"><ele>165.0</ele><time>2026-04-19T09:48:45.998Z</time></trkpt><trkpt lat="43.77285990688873" lon="11.459228959280884"><ele>166.0</ele><time>2026-04-19T09:48:46.998Z</time></trkpt><trkpt lat="43.772873694066334" lon="11.459381791034412"><ele>167.0</ele><time>2026-04-19T09:48:48Z</time></trkpt><trkpt lat="43.772889607183835" lon="11.459532199399652"><ele>167.8</ele><time>2026-04-19T09:48:49Z</time></trkpt><trkpt lat="43.77289297209" lon="11.459682258145394"><ele>168.6</ele><time>2026-04-19T09:48:50Z</time></trkpt><trkpt lat="43.7728639336887" lon="11.459832368570599"><ele>169.4</ele><time>2026-04-19T09:48:51Z</time></trkpt><trkpt lat="43.772809409373046" lon="11.45996858955555"><ele>170.20000000000002</ele><time>2026-04-19T09:48:52Z</time></trkpt><trkpt lat="43.77274816428094" lon="11.46009810913476"><ele>171.0</ele><time>2026-04-19T09:48:53Z</time></trkpt><trkpt lat="43.77269120349628" lon="11.460231655478461"><ele>168.5</ele><time>2026-04-19T09:48:54Z</time></trkpt><trkpt lat="43.77264881482437" lon="11.46038182096517"><ele>166.0</ele><time>2026-04-19T09:48:55Z</time></trkpt><trkpt lat="43.77261707447987" lon="11.460536285226423"><ele>163.5</ele><time>2026-04-19T09:48:56Z</time></trkpt><trkpt lat="43.77258501536095" lon="11.460685599214651"><ele>161.0</ele><time>2026-04-19T09:48:57Z</time></trkpt><trkpt lat="43.77254519109076" lon="11.460831816060864"><ele>161.0</ele><time>2026-04-19T09:48:58Z</time></trkpt><trkpt lat="43.77248975109139" lon="11.46096551854831"><ele>161.0</ele><time>2026-04-19T09:48:59Z</time></trkpt><trkpt lat="43.772407560064586" lon="11.461072494059824"><ele>161.0</ele><time>2026-04-19T09:49:00Z</time></trkpt><trkpt lat="43.772307198765546" lon="11.461152641614072"><ele>161.0</ele><time>2026-04-19T09:49:01Z</time></trkpt><trkpt lat="43.772191994052854" lon="11.461206176011006"><ele>161.0</ele><time>2026-04-19T09:49:02Z</time></trkpt><trkpt lat="43.772066343340924" lon="11.46124398518984"><ele>161.0</ele><time>2026-04-19T09:49:03Z</time></trkpt><trkpt lat="43.771936580019506" lon="11.461278040388475"><ele>161.0</ele><time>2026-04-19T09:49:04Z</time></trkpt><trkpt lat="43.77181064405233" lon="11.461320858440756"><ele>161.0</ele><time>2026-04-19T09:49:05Z</time></trkpt><trkpt lat="43.77168218052077" lon="11.461375795114764"><ele>165.75</ele><time>2026-04-19T09:49:06Z</time></trkpt><trkpt lat="43.77155384637389" lon="11.461437439886744"><ele>170.5</ele><time>2026-04-19T09:49:07Z</time></trkpt><trkpt lat="43.77142294453093" lon="11.461502028660812"><ele>175.25</ele><time>2026-04-19T09:49:08Z</time></trkpt><trkpt lat="43.771296245268374" lon="11.461577790677515"><ele>180.0</ele><time>2026-04-19T09:49:09Z</time></trkpt><trkpt lat="43.77117666926201" lon="11.461657216224213"><ele>180.0</ele><time>2026-04-19T09:49:10Z</time></trkpt><trkpt lat="43.77107295878003" lon="11.46172384100547"><ele>180.0</ele><time>2026-04-19T09:49:11Z</time></trkpt><trkpt lat="43.77097864304441" lon="11.461787669680362"><ele>180.0</ele><time>2026-04-19T09:49:12Z</time></trkpt><trkpt lat="43.770881694027274" lon="11.461852334316939"><ele>180.0</ele><time>2026-04-19T09:49:13Z</time></trkpt><trkpt lat="43.77078620816451" lon="11.461917304752562"><ele>180.0</ele><time>2026-04-19T09:49:14Z</time></trkpt><trkpt lat="43.770704201190334" lon="11.461988335306268"><ele>180.4</ele><time>2026-04-19T09:49:15Z</time></trkpt><trkpt lat="43.770646722848994" lon="11.462073892327606"><ele>180.8</ele><time>2026-04-19T09:49:16Z</time></trkpt><trkpt lat="43.77062393937504" lon="11.462197435578666"><ele>181.2</ele><time>2026-04-19T09:49:17Z</time></trkpt><trkpt lat="43.770631152944" lon="11.462343167494929"><ele>181.6</ele><time>2026-04-19T09:49:18Z</time></trkpt><trkpt lat="43.77065012967778" lon="11.462508100523428"><ele>182.0</ele><time>2026-04-19T09:49:19Z</time></trkpt><trkpt lat="43.77066444909429" lon="11.462686139736578"><ele>182.0</ele><time>2026-04-19T09:49:20Z</time></trkpt><trkpt lat="43.77067611068289" lon="11.462858158594091"><ele>182.0</ele><time>2026-04-19T09:49:21Z</time></trkpt><trkpt lat="43.77068364103109" lon="11.463033106186046"><ele>182.0</ele><time>2026-04-19T09:49:22Z</time></trkpt><trkpt lat="43.77069008597931" lon="11.46320789928928"><ele>182.0</ele><time>2026-04-19T09:49:23Z</time></trkpt><trkpt lat="43.77069843111815" lon="11.463374263116771"><ele>183.5</ele><time>2026-04-19T09:49:24Z</time></trkpt><trkpt lat="43.77070231739768" lon="11.463533342038557"><ele>185.0</ele><time>2026-04-19T09:49:25Z</time></trkpt><trkpt lat="43.770704858273476" lon="11.463694685649637"><ele>186.5</ele><time>2026-04-19T09:49:26Z</time></trkpt><trkpt lat="43.77071061122292" lon="11.46385589543712"><ele>188.0</ele><time>2026-04-19T09:49:27Z</time></trkpt><trkpt lat="43.770716105501585" lon="11.464017374295327"><ele>189.0</ele><time>2026-04-19T09:49:27.999Z</time></trkpt><trkpt lat="43.77071779757536" lon="11.464185444331871"><ele>190.0</ele><time>2026-04-19T09:49:28.999Z</time></trkpt><trkpt lat="43.770708991948744" lon="11.464358709666145"><ele>191.0</ele><time>2026-04-19T09:49:29.999Z</time></trkpt><trkpt lat="43.770685348743896" lon="11.464526873607442"><ele>192.0</ele><time>2026-04-19T09:49:30.999Z</time></trkpt><trkpt lat="43.77064349697464" lon="11.464687261175214"><ele>193.25</ele><time>2026-04-19T09:49:31.999Z</time></trkpt><trkpt lat="43.77059245890243" lon="11.464842635655293"><ele>194.5</ele><time>2026-04-19T09:49:32.999Z</time></trkpt><trkpt lat="43.77054481116027" lon="11.465001419566113"><ele>195.75</ele><time>2026-04-19T09:49:33.999Z</time></trkpt><trkpt lat="43.77049978774178" lon="11.46515402634323"><ele>197.0</ele><time>2026-04-19T09:49:34.999Z</time></trkpt><trkpt lat="43.770461245340094" lon="11.46528612088916"><ele>197.0</ele><time>2026-04-19T09:49:35.999Z</time></trkpt><trkpt lat="43.770430247966196" lon="11.46540079252486"><ele>197.0</ele><time>2026-04-19T09:49:36.999Z</time></trkpt><trkpt lat="43.770402526531356" lon="11.46549514462343"><ele>197.0</ele><time>2026-04-19T09:49:37.999Z</time></trkpt><trkpt lat="43.77034143225406" lon="11.465638952634023"><ele>197.0</ele><time>2026-04-19T09:49:39.999Z</time></trkpt><trkpt lat="43.77026218701679" lon="11.465777410322998"><ele>197.0</ele><time>2026-04-19T09:49:41.999Z</time></trkpt><trkpt lat="43.770243640321866" lon="11.465869993119517"><ele>197.39999999999998</ele><time>2026-04-19T09:49:42.999Z</time></trkpt><trkpt lat="43.770290294921324" lon="11.465985734442889"><ele>197.79999999999998</ele><time>2026-04-19T09:49:43.999Z</time></trkpt><trkpt lat="43.7703134628779" lon="11.466112202203702"><ele>198.2</ele><time>2026-04-19T09:49:44.999Z</time></trkpt><trkpt lat="43.770313071221935" lon="11.466256603174614"><ele>198.6</ele><time>2026-04-19T09:49:45.999Z</time></trkpt><trkpt lat="43.77030066555864" lon="11.466410701485882"><ele>199.0</ele><time>2026-04-19T09:49:46.999Z</time></trkpt><trkpt lat="43.77029135090568" lon="11.466568655164565"><ele>200.5</ele><time>2026-04-19T09:49:47.999Z</time></trkpt><trkpt lat="43.77028678053513" lon="11.466722990712253"><ele>202.0</ele><time>2026-04-19T09:49:48.999Z</time></trkpt><trkpt lat="43.77027795745568" lon="11.466884445401513"><ele>203.5</ele><time>2026-04-19T09:49:49.999Z</time></trkpt><trkpt lat="43.77026725395234" lon="11.467059285429809"><ele>205.0</ele><time>2026-04-19T09:49:50.999Z</time></trkpt><trkpt lat="43.77026132085106" lon="11.467257418772286"><ele>205.5</ele><time>2026-04-19T09:49:51.999Z</time></trkpt><trkpt lat="43.770258510866235" lon="11.467453781066844"><ele>206.0</ele><time>2026-04-19T09:49:52.999Z</time></trkpt><trkpt lat="43.7702706853088" lon="11.467650976072346"><ele>206.5</ele><time>2026-04-19T09:49:53.999Z</time></trkpt><trkpt lat="43.77028567085613" lon="11.46784351042085"><ele>207.0</ele><time>2026-04-19T09:49:54.999Z</time></trkpt><trkpt lat="43.77029881566611" lon="11.468035632722412"><ele>208.25</ele><time>2026-04-19T09:49:55.999Z</time></trkpt><trkpt lat="43.770312933911505" lon="11.468241154288597"><ele>209.5</ele><time>2026-04-19T09:49:56.999Z</time></trkpt><trkpt lat="43.77032770445998" lon="11.468446576778247"><ele>210.75</ele><time>2026-04-19T09:49:57.999Z</time></trkpt><trkpt lat="43.77034097743744" lon="11.468649218227137"><ele>212.0</ele><time>2026-04-19T09:49:58.999Z</time></trkpt><trkpt lat="43.770354164989534" lon="11.468855385773532"><ele>214.66666666666669</ele><time>2026-04-19T09:49:59.999Z</time></trkpt><trkpt lat="43.77036868738163" lon="11.469064511297317"><ele>217.33333333333331</ele><time>2026-04-19T09:50:00.999Z</time></trkpt><trkpt lat="43.77038073877136" lon="11.469280741305854"><ele>220.0</ele><time>2026-04-19T09:50:01.999Z</time></trkpt><trkpt lat="43.77038968154731" lon="11.469489294311884"><ele>221.75</ele><time>2026-04-19T09:50:02.999Z</time></trkpt><trkpt lat="43.77040069432188" lon="11.469686569404224"><ele>223.5</ele><time>2026-04-19T09:50:03.999Z</time></trkpt><trkpt lat="43.77040761395683" lon="11.469875844585719"><ele>225.25</ele><time>2026-04-19T09:50:04.999Z</time></trkpt><trkpt lat="43.7704074917268" lon="11.470051008687651"><ele>227.0</ele><time>2026-04-19T09:50:05.999Z</time></trkpt><trkpt lat="43.77039814056711" lon="11.470217837149345"><ele>227.0</ele><time>2026-04-19T09:50:06.999Z</time></trkpt><trkpt lat="43.770370432166104" lon="11.470377579042436"><ele>227.0</ele><time>2026-04-19T09:50:07.999Z</time></trkpt><trkpt lat="43.770306891474554" lon="11.470511684966631"><ele>227.0</ele><time>2026-04-19T09:50:08.999Z</time></trkpt><trkpt lat="43.77021280567378" lon="11.470605212158436"><ele>227.0</ele><time>2026-04-19T09:50:09.999Z</time></trkpt><trkpt lat="43.77009845713641" lon="11.47065587971976"><ele>228.25</ele><time>2026-04-19T09:50:10.999Z</time></trkpt><trkpt lat="43.769970819831116" lon="11.47067428810857"><ele>229.5</ele><time>2026-04-19T09:50:11.999Z</time></trkpt><trkpt lat="43.76984134420046" lon="11.470666125635379"><ele>230.75</ele><time>2026-04-19T09:50:12.999Z</time></trkpt><trkpt lat="43.76971851648404" lon="11.47065231423723"><ele>232.0</ele><time>2026-04-19T09:50:13.999Z</time></trkpt><trkpt lat="43.76960925625514" lon="11.470661675815567"><ele>232.0</ele><time>2026-04-19T09:50:14.999Z</time></trkpt><trkpt lat="43.76951792490965" lon="11.470706187319621"><ele>232.0</ele><time>2026-04-19T09:50:15.999Z</time></trkpt><trkpt lat="43.76944840879167" lon="11.47079298791332"><ele>232.0</ele><time>2026-04-19T09:50:16.999Z</time></trkpt><trkpt lat="43.76940772977051" lon="11.470915875421115"><ele>232.0</ele><time>2026-04-19T09:50:17.999Z</time></trkpt><trkpt lat="43.76940686218794" lon="11.471046904887823"><ele>232.0</ele><time>2026-04-19T09:50:18.999Z</time></trkpt><trkpt lat="43.769449246490545" lon="11.471177480071292"><ele>233.25</ele><time>2026-04-19T09:50:19.999Z</time></trkpt><trkpt lat="43.76952610202624" lon="11.471310342015125"><ele>234.5</ele><time>2026-04-19T09:50:20.999Z</time></trkpt><trkpt lat="43.76963637376517" lon="11.47145412462995"><ele>235.75</ele><time>2026-04-19T09:50:21.999Z</time></trkpt><trkpt lat="43.76975272869748" lon="11.471592557754855"><ele>237.0</ele><time>2026-04-19T09:50:22.999Z</time></trkpt><trkpt lat="43.76984872760421" lon="11.471719943351532"><ele>237.0</ele><time>2026-04-19T09:50:23.999Z</time></trkpt><trkpt lat="43.769944064396896" lon="11.471833602038073"><ele>237.0</ele><time>2026-04-19T09:50:24.999Z</time></trkpt><trkpt lat="43.77004817679332" lon="11.47190911960721"><ele>237.0</ele><time>2026-04-19T09:50:25.999Z</time></trkpt><trkpt lat="43.77015767965285" lon="11.471958943342576"><ele>237.0</ele><time>2026-04-19T09:50:26.999Z</time></trkpt><trkpt lat="43.770267108475196" lon="11.472012508473064"><ele>238.75</ele><time>2026-04-19T09:50:27.998Z</time></trkpt><trkpt lat="43.77037388270077" lon="11.472081925929855"><ele>240.5</ele><time>2026-04-19T09:50:28.998Z</time></trkpt><trkpt lat="43.77048964521866" lon="11.472152358181258"><ele>242.25</ele><time>2026-04-19T09:50:29.998Z</time></trkpt><trkpt lat="43.770603489958816" lon="11.472229244801548"><ele>244.0</ele><time>2026-04-19T09:50:30.998Z</time></trkpt><trkpt lat="43.77070366567959" lon="11.472315073477448"><ele>243.99999999999997</ele><time>2026-04-19T09:50:31.998Z</time></trkpt><trkpt lat="43.77077678830683" lon="11.472406692560773"><ele>244.0</ele><time>2026-04-19T09:50:32.998Z</time></trkpt><trkpt lat="43.77083910124548" lon="11.472510149983039"><ele>244.0</ele><time>2026-04-19T09:50:33.998Z</time></trkpt><trkpt lat="43.77089566955938" lon="11.472605589654894"><ele>244.0</ele><time>2026-04-19T09:50:34.998Z</time></trkpt><trkpt lat="43.7709454085756" lon="11.472678952245035"><ele>243.99999999999997</ele><time>2026-04-19T09:50:35.998Z</time></trkpt><trkpt lat="43.77100684133412" lon="11.472741887546361"><ele>244.0</ele><time>2026-04-19T09:50:36.998Z</time></trkpt><trkpt lat="43.77107885185484" lon="11.472779679551394"><ele>246.2</ele><time>2026-04-19T09:50:37.998Z</time></trkpt><trkpt lat="43.771167308092934" lon="11.47278151052863"><ele>248.39999999999998</ele><time>2026-04-19T09:50:38.998Z</time></trkpt><trkpt lat="43.77125556001338" lon="11.472754533060101"><ele>250.6</ele><time>2026-04-19T09:50:39.998Z</time></trkpt><trkpt lat="43.77134571594183" lon="11.472718241776034"><ele>252.8</ele><time>2026-04-19T09:50:40.998Z</time></trkpt><trkpt lat="43.7714432084499" lon="11.472683045001569"><ele>255.0</ele><time>2026-04-19T09:50:41.998Z</time></trkpt><trkpt lat="43.77155214416227" lon="11.472648712805753"><ele>255.0</ele><time>2026-04-19T09:50:42.998Z</time></trkpt><trkpt lat="43.771662959274806" lon="11.472622340484724"><ele>255.0</ele><time>2026-04-19T09:50:43.998Z</time></trkpt><trkpt lat="43.77177764669211" lon="11.472606676690816"><ele>255.0</ele><time>2026-04-19T09:50:44.998Z</time></trkpt><trkpt lat="43.77189527585393" lon="11.472601978020302"><ele>255.0</ele><time>2026-04-19T09:50:45.998Z</time></trkpt><trkpt lat="43.772005925519586" lon="11.472612711181997"><ele>257.5</ele><time>2026-04-19T09:50:46.998Z</time></trkpt><trkpt lat="43.77210565217052" lon="11.472639058099688"><ele>260.0</ele><time>2026-04-19T09:50:47.998Z</time></trkpt><trkpt lat="43.77220355974933" lon="11.47269757799996"><ele>262.5</ele><time>2026-04-19T09:50:48.998Z</time></trkpt><trkpt lat="43.772300608613904" lon="11.472793283534113"><ele>265.0</ele><time>2026-04-19T09:50:49.998Z</time></trkpt><trkpt lat="43.772406162788094" lon="11.472907663374414"><ele>264.0</ele><time>2026-04-19T09:50:50.998Z</time></trkpt><trkpt lat="43.772531501226425" lon="11.473050210071253"><ele>263.0</ele><time>2026-04-19T09:50:51.998Z</time></trkpt><trkpt lat="43.77268159118891" lon="11.47319691224367"><ele>262.0</ele><time>2026-04-19T09:50:52.998Z</time></trkpt><trkpt lat="43.77284735264254" lon="11.473339780370097"><ele>265.3333333333333</ele><time>2026-04-19T09:50:54Z</time></trkpt><trkpt lat="43.77297469812997" lon="11.473519173451846"><ele>268.6666666666667</ele><time>2026-04-19T09:50:55Z</time></trkpt><trkpt lat="43.773066352155276" lon="11.473696684734497"><ele>272.0</ele><time>2026-04-19T09:50:56Z</time></trkpt><trkpt lat="43.77313171293279" lon="11.473904794108726"><ele>272.33333333333337</ele><time>2026-04-19T09:50:57Z</time></trkpt><trkpt lat="43.77318133418866" lon="11.474153597104547"><ele>272.6666666666667</ele><time>2026-04-19T09:50:58Z</time></trkpt><trkpt lat="43.773229362829845" lon="11.474410475377493"><ele>273.0</ele><time>2026-04-19T09:50:59Z</time></trkpt><trkpt lat="43.77327656169757" lon="11.474649702031153"><ele>273.6666666666667</ele><time>2026-04-19T09:51:00Z</time></trkpt><trkpt lat="43.7733167465775" lon="11.474863170112647"><ele>274.33333333333337</ele><time>2026-04-19T09:51:01Z</time></trkpt><trkpt lat="43.77336473706865" lon="11.475061140821778"><ele>275.0</ele><time>2026-04-19T09:51:02Z</time></trkpt><trkpt lat="43.77344237415803" lon="11.475251902662524"><ele>277.6666666666667</ele><time>2026-04-19T09:51:03Z</time></trkpt><trkpt lat="43.773559546261176" lon="11.475431568291036"><ele>280.3333333333333</ele><time>2026-04-19T09:51:04Z</time></trkpt><trkpt lat="43.77370972212372" lon="11.475596339714292"><ele>283.0</ele><time>2026-04-19T09:51:05Z</time></trkpt><trkpt lat="43.77386896774874" lon="11.475777246684586"><ele>283.3333333333333</ele><time>2026-04-19T09:51:06Z</time></trkpt><trkpt lat="43.7740210155723" lon="11.475961177156057"><ele>283.6666666666667</ele><time>2026-04-19T09:51:07Z</time></trkpt><trkpt lat="43.77415699163594" lon="11.47612438027614"><ele>284.0</ele><time>2026-04-19T09:51:08Z</time></trkpt><trkpt lat="43.774293431493184" lon="11.476271228302151"><ele>285.6666666666667</ele><time>2026-04-19T09:51:09Z</time></trkpt><trkpt lat="43.774455297428105" lon="11.476409177351735"><ele>287.3333333333333</ele><time>2026-04-19T09:51:10Z</time></trkpt><trkpt lat="43.774647345480005" lon="11.476533677608677"><ele>289.0</ele><time>2026-04-19T09:51:11Z</time></trkpt><trkpt lat="43.77485518133851" lon="11.476653554208488"><ele>289.0</ele><time>2026-04-19T09:51:12Z</time></trkpt><trkpt lat="43.77507154520021" lon="11.476784277870273"><ele>289.0</ele><time>2026-04-19T09:51:13Z</time></trkpt><trkpt lat="43.77527123303759" lon="11.47690667487956"><ele>290.66666666666663</ele><time>2026-04-19T09:51:14Z</time></trkpt><trkpt lat="43.775454861802224" lon="11.477020729005064"><ele>292.3333333333333</ele><time>2026-04-19T09:51:15Z</time></trkpt><trkpt lat="43.77562742317182" lon="11.47713404124744"><ele>294.0</ele><time>2026-04-19T09:51:16Z</time></trkpt><trkpt lat="43.775795409003074" lon="11.47727284244391"><ele>294.0</ele><time>2026-04-19T09:51:17Z</time></trkpt><trkpt lat="43.77594585310875" lon="11.477458098705242"><ele>294.0</ele><time>2026-04-19T09:51:18Z</time></trkpt><trkpt lat="43.776076195082894" lon="11.477676799891277"><ele>294.0</ele><time>2026-04-19T09:51:19Z</time></trkpt><trkpt lat="43.776190808529584" lon="11.477887691014786"><ele>299.0</ele><time>2026-04-19T09:51:20Z</time></trkpt><trkpt lat="43.77627959208726" lon="11.478118363448598"><ele>304.0</ele><time>2026-04-19T09:51:21Z</time></trkpt><trkpt lat="43.776329021383695" lon="11.478351376960656"><ele>309.0</ele><time>2026-04-19T09:51:22Z</time></trkpt><trkpt lat="43.776367171655366" lon="11.478558711481067"><ele>309.0</ele><time>2026-04-19T09:51:23Z</time></trkpt><trkpt lat="43.7764067187727" lon="11.478733975572016"><ele>309.0</ele><time>2026-04-19T09:51:24Z</time></trkpt><trkpt lat="43.77645702247605" lon="11.478874252090097"><ele>309.0</ele><time>2026-04-19T09:51:25Z</time></trkpt><trkpt lat="43.7765312654202" lon="11.478976869254097"><ele>309.0</ele><time>2026-04-19T09:51:26Z</time></trkpt><trkpt lat="43.77664457811162" lon="11.479045368765618"><ele>308.0</ele><time>2026-04-19T09:51:27Z</time></trkpt><trkpt lat="43.776788243869255" lon="11.479081001907813"><ele>307.0</ele><time>2026-04-19T09:51:28Z</time></trkpt><trkpt lat="43.77695537987755" lon="11.479122847367627"><ele>306.0</ele><time>2026-04-19T09:51:29Z</time></trkpt><trkpt lat="43.777137887728685" lon="11.479166989006302"><ele>309.6666666666667</ele><time>2026-04-19T09:51:30Z</time></trkpt><trkpt lat="43.77732660423408" lon="11.479201082071777"><ele>313.33333333333337</ele><time>2026-04-19T09:51:31Z</time></trkpt><trkpt lat="43.777490531354424" lon="11.479232349989866"><ele>317.0</ele><time>2026-04-19T09:51:32Z</time></trkpt><trkpt lat="43.77763574588218" lon="11.479259603293196"><ele>319.0</ele><time>2026-04-19T09:51:33Z</time></trkpt><trkpt lat="43.777759968020945" lon="11.479315013632352"><ele>321.0</ele><time>2026-04-19T09:51:34Z</time></trkpt><trkpt lat="43.777862158235045" lon="11.479433493049072"><ele>323.0</ele><time>2026-04-19T09:51:35Z</time></trkpt><trkpt lat="43.777949642157274" lon="11.47960672675709"><ele>325.0</ele><time>2026-04-19T09:51:36Z</time></trkpt><trkpt lat="43.77803927789868" lon="11.479823166981662"><ele>325.0</ele><time>2026-04-19T09:51:37Z</time></trkpt><trkpt lat="43.77815355500734" lon="11.480057199630926"><ele>325.0</ele><time>2026-04-19T09:51:38Z</time></trkpt><trkpt lat="43.77827571488839" lon="11.480290096361166"><ele>325.0</ele><time>2026-04-19T09:51:39Z</time></trkpt><trkpt lat="43.77840299570945" lon="11.480509066002556"><ele>328.3333333333333</ele><time>2026-04-19T09:51:40Z</time></trkpt><trkpt lat="43.778534147856774" lon="11.480700579223546"><ele>331.6666666666667</ele><time>2026-04-19T09:51:41Z</time></trkpt><trkpt lat="43.77868700752988" lon="11.480865524935378"><ele>335.0</ele><time>2026-04-19T09:51:42Z</time></trkpt><trkpt lat="43.778864544257175" lon="11.480997254160076"><ele>335.0</ele><time>2026-04-19T09:51:43Z</time></trkpt><trkpt lat="43.77904985430218" lon="11.481089439469262"><ele>335.0</ele><time>2026-04-19T09:51:44Z</time></trkpt><trkpt lat="43.77921641953097" lon="11.481166783420905"><ele>335.0</ele><time>2026-04-19T09:51:44.999Z</time></trkpt><trkpt lat="43.77936890608033" lon="11.481281931210013"><ele>337.33333333333337</ele><time>2026-04-19T09:51:45.999Z</time></trkpt><trkpt lat="43.77948803096178" lon="11.48144559342673"><ele>339.6666666666667</ele><time>2026-04-19T09:51:46.999Z</time></trkpt><trkpt lat="43.77958160309546" lon="11.481656875511684"><ele>342.0</ele><time>2026-04-19T09:51:47.999Z</time></trkpt><trkpt lat="43.77969534394388" lon="11.481880690030627"><ele>342.0</ele><time>2026-04-19T09:51:48.999Z</time></trkpt><trkpt lat="43.77981717948633" lon="11.482091327683808"><ele>342.0</ele><time>2026-04-19T09:51:49.999Z</time></trkpt><trkpt lat="43.779923102295136" lon="11.482269780352699"><ele>342.0</ele><time>2026-04-19T09:51:50.999Z</time></trkpt><trkpt lat="43.7800225315349" lon="11.482429509301674"><ele>341.6666666666667</ele><time>2026-04-19T09:51:51.999Z</time></trkpt><trkpt lat="43.780118725978824" lon="11.482593762653016"><ele>341.33333333333337</ele><time>2026-04-19T09:51:52.999Z</time></trkpt><trkpt lat="43.78020923819608" lon="11.482763418409327"><ele>341.0</ele><time>2026-04-19T09:51:53.999Z</time></trkpt><trkpt lat="43.78029658194834" lon="11.482928301175766"><ele>346.33333333333337</ele><time>2026-04-19T09:51:54.999Z</time></trkpt><trkpt lat="43.78036044446636" lon="11.483112917759334"><ele>351.6666666666667</ele><time>2026-04-19T09:51:55.999Z</time></trkpt><trkpt lat="43.780382293863696" lon="11.483324420787262"><ele>357.0</ele><time>2026-04-19T09:51:56.999Z</time></trkpt><trkpt lat="43.7803841797301" lon="11.483539211706537"><ele>357.0</ele><time>2026-04-19T09:51:57.999Z</time></trkpt><trkpt lat="43.780397602380475" lon="11.483749435906834"><ele>357.0</ele><time>2026-04-19T09:51:58.999Z</time></trkpt><trkpt lat="43.78043163649723" lon="11.483952068969069"><ele>357.0</ele><time>2026-04-19T09:51:59.999Z</time></trkpt><trkpt lat="43.780486872614446" lon="11.484147105479865"><ele>358.3333333333333</ele><time>2026-04-19T09:52:00.999Z</time></trkpt><trkpt lat="43.780551857018715" lon="11.484343444224889"><ele>359.66666666666663</ele><time>2026-04-19T09:52:01.999Z</time></trkpt><trkpt lat="43.7806182960555" lon="11.4845454437591"><ele>361.0</ele><time>2026-04-19T09:52:02.999Z</time></trkpt><trkpt lat="43.78068536930469" lon="11.484744694434566"><ele>361.5</ele><time>2026-04-19T09:52:03.999Z</time></trkpt><trkpt lat="43.78075214808985" lon="11.48494253129368"><ele>362.0</ele><time>2026-04-19T09:52:04.999Z</time></trkpt><trkpt lat="43.78081692721478" lon="11.48512984217392"><ele>362.5</ele><time>2026-04-19T09:52:05.999Z</time></trkpt><trkpt lat="43.78087778295941" lon="11.485294387116038"><ele>363.0</ele><time>2026-04-19T09:52:06.999Z</time></trkpt><trkpt lat="43.780936973028346" lon="11.4854472162619"><ele>363.25</ele><time>2026-04-19T09:52:07.999Z</time></trkpt><trkpt lat="43.78100376432896" lon="11.485594094168565"><ele>363.5</ele><time>2026-04-19T09:52:08.999Z</time></trkpt><trkpt lat="43.78107345811958" lon="11.485735630157262"><ele>363.75</ele><time>2026-04-19T09:52:09.999Z</time></trkpt><trkpt lat="43.78113603362229" lon="11.485885092169157"><ele>364.0</ele><time>2026-04-19T09:52:10.999Z</time></trkpt><trkpt lat="43.781182577939994" lon="11.486048646217512"><ele>367.0</ele><time>2026-04-19T09:52:11.999Z</time></trkpt><trkpt lat="43.78120355488186" lon="11.486227526599674"><ele>370.0</ele><time>2026-04-19T09:52:12.999Z</time></trkpt><trkpt lat="43.78119619587816" lon="11.486414466844057"><ele>373.0</ele><time>2026-04-19T09:52:13.999Z</time></trkpt><trkpt lat="43.78116853940359" lon="11.486598519604778"><ele>376.0</ele><time>2026-04-19T09:52:14.999Z</time></trkpt><trkpt lat="43.78114567325223" lon="11.486788300606083"><ele>376.5</ele><time>2026-04-19T09:52:15.999Z</time></trkpt><trkpt lat="43.78113082751587" lon="11.486978626388419"><ele>377.0</ele><time>2026-04-19T09:52:16.999Z</time></trkpt><trkpt lat="43.7811131148481" lon="11.48716180013907"><ele>377.5</ele><time>2026-04-19T09:52:17.999Z</time></trkpt><trkpt lat="43.7810925418592" lon="11.487338949890924"><ele>378.0</ele><time>2026-04-19T09:52:18.999Z</time></trkpt><trkpt lat="43.7810682913185" lon="11.487512011148999"><ele>378.0</ele><time>2026-04-19T09:52:19.999Z</time></trkpt><trkpt lat="43.781030993104835" lon="11.487677577688652"><ele>378.0</ele><time>2026-04-19T09:52:20.999Z</time></trkpt><trkpt lat="43.78098307498099" lon="11.48783848818379"><ele>378.0</ele><time>2026-04-19T09:52:21.999Z</time></trkpt><trkpt lat="43.78093534684699" lon="11.487989228893248"><ele>378.0</ele><time>2026-04-19T09:52:22.999Z</time></trkpt><trkpt lat="43.780898543045474" lon="11.488142177261615"><ele>380.0</ele><time>2026-04-19T09:52:23.999Z</time></trkpt><trkpt lat="43.78088734659116" lon="11.488303345566887"><ele>382.0</ele><time>2026-04-19T09:52:24.999Z</time></trkpt><trkpt lat="43.780905011638296" lon="11.488469512887129"><ele>384.0</ele><time>2026-04-19T09:52:25.999Z</time></trkpt><trkpt lat="43.78094591406777" lon="11.488636184578642"><ele>386.0</ele><time>2026-04-19T09:52:26.999Z</time></trkpt><trkpt lat="43.78100070127027" lon="11.488794313598627"><ele>389.5</ele><time>2026-04-19T09:52:27.999Z</time></trkpt><trkpt lat="43.78106536778016" lon="11.48895054528392"><ele>393.0</ele><time>2026-04-19T09:52:28.999Z</time></trkpt><trkpt lat="43.78113155509882" lon="11.489104600300195"><ele>396.5</ele><time>2026-04-19T09:52:29.999Z</time></trkpt><trkpt lat="43.781200365089724" lon="11.489256668254907"><ele>400.0</ele><time>2026-04-19T09:52:30.999Z</time></trkpt><trkpt lat="43.78129062200773" lon="11.489390208936634"><ele>400.0</ele><time>2026-04-19T09:52:31.999Z</time></trkpt><trkpt lat="43.78140329397191" lon="11.48950995487746"><ele>400.0</ele><time>2026-04-19T09:52:32.999Z</time></trkpt><trkpt lat="43.781520614778394" lon="11.489620938317154"><ele>400.0</ele><time>2026-04-19T09:52:33.999Z</time></trkpt><trkpt lat="43.78163745376309" lon="11.489725189542355"><ele>400.0</ele><time>2026-04-19T09:52:34.999Z</time></trkpt><trkpt lat="43.7817545401063" lon="11.489827752630314"><ele>400.0</ele><time>2026-04-19T09:52:35.999Z</time></trkpt><trkpt lat="43.781868024217005" lon="11.489926998409722"><ele>400.0</ele><time>2026-04-19T09:52:36.999Z</time></trkpt><trkpt lat="43.78197525218533" lon="11.490022333143786"><ele>400.0</ele><time>2026-04-19T09:52:37.999Z</time></trkpt><trkpt lat="43.782084847386294" lon="11.490113364668174"><ele>400.0</ele><time>2026-04-19T09:52:38.999Z</time></trkpt><trkpt lat="43.78219447589749" lon="11.490203101519516"><ele>400.0</ele><time>2026-04-19T09:52:39.999Z</time></trkpt><trkpt lat="43.78229663030662" lon="11.49030880017156"><ele>400.0</ele><time>2026-04-19T09:52:40.999Z</time></trkpt><trkpt lat="43.782387078284806" lon="11.490445989534393"><ele>400.0</ele><time>2026-04-19T09:52:41.999Z</time></trkpt><trkpt lat="43.782456156284915" lon="11.490611650133769"><ele>400.0</ele><time>2026-04-19T09:52:42.999Z</time></trkpt><trkpt lat="43.78250903852851" lon="11.490789615515604"><ele>400.0</ele><time>2026-04-19T09:52:43.999Z</time></trkpt><trkpt lat="43.78255577188862" lon="11.490974704833974"><ele>400.0</ele><time>2026-04-19T09:52:44.998Z</time></trkpt><trkpt lat="43.78259820751814" lon="11.491161698532363"><ele>400.0</ele><time>2026-04-19T09:52:45.998Z</time></trkpt><trkpt lat="43.78263254872662" lon="11.491350662834"><ele>400.0</ele><time>2026-04-19T09:52:46.998Z</time></trkpt><trkpt lat="43.78266358102051" lon="11.491539172090555"><ele>403.5</ele><time>2026-04-19T09:52:47.998Z</time></trkpt><trkpt lat="43.78269429751327" lon="11.491727335193294"><ele>407.0</ele><time>2026-04-19T09:52:48.998Z</time></trkpt><trkpt lat="43.782720287290736" lon="11.491917698527642"><ele>410.5</ele><time>2026-04-19T09:52:49.998Z</time></trkpt><trkpt lat="43.782741162831776" lon="11.492108238746406"><ele>414.0</ele><time>2026-04-19T09:52:50.998Z</time></trkpt><trkpt lat="43.78274476806702" lon="11.492298846707996"><ele>415.75</ele><time>2026-04-19T09:52:51.998Z</time></trkpt><trkpt lat="43.782735987290586" lon="11.492480237619182"><ele>417.5</ele><time>2026-04-19T09:52:52.998Z</time></trkpt><trkpt lat="43.78272620507117" lon="11.492660830176527"><ele>419.25</ele><time>2026-04-19T09:52:53.998Z</time></trkpt><trkpt lat="43.78272637755379" lon="11.492835605338188"><ele>421.0</ele><time>2026-04-19T09:52:54.998Z</time></trkpt><trkpt lat="43.78274452122617" lon="11.493004343984317"><ele>422.0</ele><time>2026-04-19T09:52:55.998Z</time></trkpt><trkpt lat="43.78280335773203" lon="11.493152044984528"><ele>423.0</ele><time>2026-04-19T09:52:56.998Z</time></trkpt><trkpt lat="43.78289720356373" lon="11.493280372111084"><ele>424.0</ele><time>2026-04-19T09:52:57.998Z</time></trkpt><trkpt lat="43.78300852978884" lon="11.49339247156016"><ele>425.0</ele><time>2026-04-19T09:52:58.998Z</time></trkpt><trkpt lat="43.7831190295165" lon="11.4935093942472"><ele>425.0</ele><time>2026-04-19T09:53:00Z</time></trkpt><trkpt lat="43.78322133931805" lon="11.493632491707528"><ele>425.0</ele><time>2026-04-19T09:53:01Z</time></trkpt><trkpt lat="43.78332202710628" lon="11.493748106578593"><ele>425.0</ele><time>2026-04-19T09:53:02Z</time></trkpt><trkpt lat="43.78341686283815" lon="11.493858144003914"><ele>425.0</ele><time>2026-04-19T09:53:03Z</time></trkpt><trkpt lat="43.78350638712487" lon="11.493977334285557"><ele>427.5</ele><time>2026-04-19T09:53:04Z</time></trkpt><trkpt lat="43.78358307358175" lon="11.494123599526015"><ele>430.0</ele><time>2026-04-19T09:53:05Z</time></trkpt><trkpt lat="43.78363327987204" lon="11.49429925664299"><ele>432.5</ele><time>2026-04-19T09:53:06Z</time></trkpt><trkpt lat="43.78366041021829" lon="11.494490085217286"><ele>435.0</ele><time>2026-04-19T09:53:07Z</time></trkpt><trkpt lat="43.78367762625517" lon="11.494678203566098"><ele>436.0</ele><time>2026-04-19T09:53:08Z</time></trkpt><trkpt lat="43.78370971200592" lon="11.494860200437701"><ele>437.0</ele><time>2026-04-19T09:53:09Z</time></trkpt><trkpt lat="43.783754308413755" lon="11.495031343398743"><ele>438.0</ele><time>2026-04-19T09:53:10Z</time></trkpt><trkpt lat="43.78380106256719" lon="11.495199335464262"><ele>439.0</ele><time>2026-04-19T09:53:11Z</time></trkpt><trkpt lat="43.783846092537914" lon="11.495362986353198"><ele>440.5</ele><time>2026-04-19T09:53:12Z</time></trkpt><trkpt lat="43.78388766148414" lon="11.495524587295241"><ele>442.0</ele><time>2026-04-19T09:53:13Z</time></trkpt><trkpt lat="43.78392290053759" lon="11.495691616177902"><ele>443.5</ele><time>2026-04-19T09:53:14Z</time></trkpt><trkpt lat="43.783951180054075" lon="11.495865695175453"><ele>445.0</ele><time>2026-04-19T09:53:15Z</time></trkpt><trkpt lat="43.78396900649364" lon="11.49603887738541"><ele>445.0</ele><time>2026-04-19T09:53:16Z</time></trkpt><trkpt lat="43.78397910438008" lon="11.496207170362236"><ele>445.0</ele><time>2026-04-19T09:53:17Z</time></trkpt><trkpt lat="43.78397947186057" lon="11.496372766412279"><ele>445.0</ele><time>2026-04-19T09:53:18Z</time></trkpt><trkpt lat="43.78396847369499" lon="11.496534832700036"><ele>445.0</ele><time>2026-04-19T09:53:19Z</time></trkpt><trkpt lat="43.78394449297803" lon="11.49669123536625"><ele>446.4</ele><time>2026-04-19T09:53:20Z</time></trkpt><trkpt lat="43.78390590722316" lon="11.496841170879556"><ele>447.8</ele><time>2026-04-19T09:53:21Z</time></trkpt><trkpt lat="43.78385627915302" lon="11.496978907631815"><ele>449.20000000000005</ele><time>2026-04-19T09:53:22Z</time></trkpt><trkpt lat="43.78380807722507" lon="11.497093712952093"><ele>450.6</ele><time>2026-04-19T09:53:23Z</time></trkpt><trkpt lat="43.78375983358914" lon="11.497200665728473"><ele>452.0</ele><time>2026-04-19T09:53:24Z</time></trkpt><trkpt lat="43.78371529579136" lon="11.497311092518586"><ele>453.0</ele><time>2026-04-19T09:53:25Z</time></trkpt><trkpt lat="43.78368310257068" lon="11.497429433735993"><ele>454.00000000000006</ele><time>2026-04-19T09:53:26Z</time></trkpt><trkpt lat="43.78367728268838" lon="11.497561445334307"><ele>455.00000000000006</ele><time>2026-04-19T09:53:27Z</time></trkpt><trkpt lat="43.78370445024247" lon="11.497690431735624"><ele>456.0</ele><time>2026-04-19T09:53:28Z</time></trkpt><trkpt lat="43.783766280665624" lon="11.497809199723067"><ele>457.0</ele><time>2026-04-19T09:53:29Z</time></trkpt><trkpt lat="43.78384888365484" lon="11.497919804220928"><ele>457.75</ele><time>2026-04-19T09:53:30Z</time></trkpt><trkpt lat="43.78394299508088" lon="11.498021503217661"><ele>458.5</ele><time>2026-04-19T09:53:31Z</time></trkpt><trkpt lat="43.784036041516266" lon="11.498128825489976"><ele>459.25</ele><time>2026-04-19T09:53:32Z</time></trkpt><trkpt lat="43.78412018240997" lon="11.498243724280396"><ele>460.0</ele><time>2026-04-19T09:53:33Z</time></trkpt><trkpt lat="43.7841942558627" lon="11.498366044386891"><ele>460.0</ele><time>2026-04-19T09:53:34Z</time></trkpt><trkpt lat="43.78426363640065" lon="11.498489219472148"><ele>460.0</ele><time>2026-04-19T09:53:35Z</time></trkpt><trkpt lat="43.78433047795857" lon="11.498611949112304"><ele>460.0</ele><time>2026-04-19T09:53:36Z</time></trkpt><trkpt lat="43.78438783351841" lon="11.498740600213294"><ele>460.0</ele><time>2026-04-19T09:53:37Z</time></trkpt><trkpt lat="43.784432558239345" lon="11.498876703890424"><ele>460.0</ele><time>2026-04-19T09:53:38Z</time></trkpt><trkpt lat="43.78446091912177" lon="11.499020071717899"><ele>460.2</ele><time>2026-04-19T09:53:39Z</time></trkpt><trkpt lat="43.784469724732844" lon="11.49916722652947"><ele>460.4</ele><time>2026-04-19T09:53:40Z</time></trkpt><trkpt lat="43.78445887736188" lon="11.49930675245641"><ele>460.6</ele><time>2026-04-19T09:53:41Z</time></trkpt><trkpt lat="43.78443278810281" lon="11.499440630358828"><ele>460.8</ele><time>2026-04-19T09:53:42Z</time></trkpt><trkpt lat="43.784401318080945" lon="11.499573776269967"><ele>461.0</ele><time>2026-04-19T09:53:43Z</time></trkpt><trkpt lat="43.7843722610081" lon="11.499711872942626"><ele>462.0</ele><time>2026-04-19T09:53:44Z</time></trkpt><trkpt lat="43.784343669144654" lon="11.499857190480324"><ele>463.0</ele><time>2026-04-19T09:53:45Z</time></trkpt><trkpt lat="43.784312496767214" lon="11.50000270065271"><ele>464.0</ele><time>2026-04-19T09:53:46Z</time></trkpt><trkpt lat="43.78428351161703" lon="11.500140401909917"><ele>465.0</ele><time>2026-04-19T09:53:47Z</time></trkpt><trkpt lat="43.784260686630525" lon="11.50025506254389"><ele>466.0</ele><time>2026-04-19T09:53:48Z</time></trkpt><trkpt lat="43.78423725130611" lon="11.500378077317327"><ele>467.1666666666667</ele><time>2026-04-19T09:53:49Z</time></trkpt><trkpt lat="43.784219537166166" lon="11.500502861585295"><ele>468.33333333333337</ele><time>2026-04-19T09:53:50Z</time></trkpt><trkpt lat="43.7842183283695" lon="11.500631294638604"><ele>469.5</ele><time>2026-04-19T09:53:51Z</time></trkpt><trkpt lat="43.78423596076376" lon="11.500754780999328"><ele>470.66666666666663</ele><time>2026-04-19T09:53:52Z</time></trkpt><trkpt lat="43.784264505279786" lon="11.500865646369677"><ele>471.8333333333333</ele><time>2026-04-19T09:53:53Z</time></trkpt><trkpt lat="43.784297433595185" lon="11.500974141335641"><ele>473.0</ele><time>2026-04-19T09:53:54Z</time></trkpt><trkpt lat="43.784336478603166" lon="11.501083168611185"><ele>472.99999999999994</ele><time>2026-04-19T09:53:55Z</time></trkpt><trkpt lat="43.784375654620156" lon="11.501193810500942"><ele>473.0</ele><time>2026-04-19T09:53:55.999Z</time></trkpt><trkpt lat="43.784415307874426" lon="11.50130271329695"><ele>473.0</ele><time>2026-04-19T09:53:56.999Z</time></trkpt><trkpt lat="43.78445539415444" lon="11.501404602574032"><ele>473.0</ele><time>2026-04-19T09:53:57.999Z</time></trkpt><trkpt lat="43.784498578681905" lon="11.501506236981824"><ele>472.99999999999994</ele><time>2026-04-19T09:53:58.999Z</time></trkpt><trkpt lat="43.784536652035115" lon="11.501610216362456"><ele>473.0</ele><time>2026-04-19T09:53:59.999Z</time></trkpt><trkpt lat="43.784569286768416" lon="11.501715725945308"><ele>473.99999999999994</ele><time>2026-04-19T09:54:00.999Z</time></trkpt><trkpt lat="43.78459785607066" lon="11.501824221301634"><ele>475.0</ele><time>2026-04-19T09:54:01.999Z</time></trkpt><trkpt lat="43.78461300482713" lon="11.501942419166369"><ele>476.0</ele><time>2026-04-19T09:54:02.999Z</time></trkpt><trkpt lat="43.784625290393244" lon="11.502057501401064"><ele>477.0</ele><time>2026-04-19T09:54:03.999Z</time></trkpt><trkpt lat="43.784626108914466" lon="11.502160122461754"><ele>477.99999999999994</ele><time>2026-04-19T09:54:04.999Z</time></trkpt><trkpt lat="43.7846191023407" lon="11.502246927541487"><ele>479.0</ele><time>2026-04-19T09:54:05.999Z</time></trkpt><trkpt lat="43.784594564163534" lon="11.502387741304624"><ele>479.4</ele><time>2026-04-19T09:54:07.999Z</time></trkpt><trkpt lat="43.78457043932486" lon="11.502523418042527"><ele>479.79999999999995</ele><time>2026-04-19T09:54:09.999Z</time></trkpt><trkpt lat="43.78454741927382" lon="11.502640977804544"><ele>480.20000000000005</ele><time>2026-04-19T09:54:10.999Z</time></trkpt><trkpt lat="43.78452018778317" lon="11.502768440505713"><ele>480.6</ele><time>2026-04-19T09:54:11.999Z</time></trkpt><trkpt lat="43.78449282333121" lon="11.502922362757486"><ele>481.0</ele><time>2026-04-19T09:54:12.999Z</time></trkpt><trkpt lat="43.784463317323315" lon="11.503073382097481"><ele>481.75</ele><time>2026-04-19T09:54:13.999Z</time></trkpt><trkpt lat="43.78445335596573" lon="11.503229761708667"><ele>482.5</ele><time>2026-04-19T09:54:14.999Z</time></trkpt><trkpt lat="43.78447224149111" lon="11.503398873545269"><ele>483.25</ele><time>2026-04-19T09:54:15.999Z</time></trkpt><trkpt lat="43.784509639573464" lon="11.503565621339046"><ele>484.0</ele><time>2026-04-19T09:54:16.999Z</time></trkpt><trkpt lat="43.78454440259982" lon="11.503736311800315"><ele>484.0</ele><time>2026-04-19T09:54:17.999Z</time></trkpt><trkpt lat="43.784578102536365" lon="11.50391140924797"><ele>484.0</ele><time>2026-04-19T09:54:18.999Z</time></trkpt><trkpt lat="43.78461455318516" lon="11.50408487224345"><ele>484.0</ele><time>2026-04-19T09:54:19.999Z</time></trkpt><trkpt lat="43.78464735529447" lon="11.504255737928693"><ele>484.0</ele><time>2026-04-19T09:54:20.999Z</time></trkpt><trkpt lat="43.784672297887056" lon="11.504427506881552"><ele>485.25</ele><time>2026-04-19T09:54:21.999Z</time></trkpt><trkpt lat="43.784697242698314" lon="11.504585371131354"><ele>486.5</ele><time>2026-04-19T09:54:22.999Z</time></trkpt><trkpt lat="43.78472365381647" lon="11.504739582245955"><ele>487.75</ele><time>2026-04-19T09:54:23.999Z</time></trkpt><trkpt lat="43.7847514260878" lon="11.504897007331298"><ele>489.0</ele><time>2026-04-19T09:54:24.999Z</time></trkpt><trkpt lat="43.78477871432757" lon="11.505068378648634"><ele>489.0</ele><time>2026-04-19T09:54:25.999Z</time></trkpt><trkpt lat="43.784807603725305" lon="11.50525567417491"><ele>489.0</ele><time>2026-04-19T09:54:26.999Z</time></trkpt><trkpt lat="43.784840083876205" lon="11.505462402029575"><ele>489.0</ele><time>2026-04-19T09:54:27.999Z</time></trkpt><trkpt lat="43.7848713084865" lon="11.505682057062739"><ele>490.0</ele><time>2026-04-19T09:54:28.999Z</time></trkpt><trkpt lat="43.784898678879664" lon="11.50589824878242"><ele>491.0</ele><time>2026-04-19T09:54:29.999Z</time></trkpt><trkpt lat="43.78492304627092" lon="11.506110670197852"><ele>492.0</ele><time>2026-04-19T09:54:30.999Z</time></trkpt><trkpt lat="43.78495365010037" lon="11.506319289576437"><ele>493.75</ele><time>2026-04-19T09:54:31.999Z</time></trkpt><trkpt lat="43.78498490951766" lon="11.506519964162926"><ele>495.5</ele><time>2026-04-19T09:54:32.999Z</time></trkpt><trkpt lat="43.78501883687363" lon="11.50671379437955"><ele>497.25</ele><time>2026-04-19T09:54:33.999Z</time></trkpt><trkpt lat="43.78505174377906" lon="11.506899358552682"><ele>499.0</ele><time>2026-04-19T09:54:34.999Z</time></trkpt><trkpt lat="43.78507974413313" lon="11.507082791120645"><ele>498.75</ele><time>2026-04-19T09:54:35.999Z</time></trkpt><trkpt lat="43.785109569234564" lon="11.50726201840702"><ele>498.5</ele><time>2026-04-19T09:54:36.999Z</time></trkpt><trkpt lat="43.785140267866694" lon="11.507436870813462"><ele>498.25</ele><time>2026-04-19T09:54:37.999Z</time></trkpt><trkpt lat="43.78517826181932" lon="11.507610042352058"><ele>498.0</ele><time>2026-04-19T09:54:38.999Z</time></trkpt><trkpt lat="43.78522135174634" lon="11.50778249217814"><ele>500.75</ele><time>2026-04-19T09:54:39.999Z</time></trkpt><trkpt lat="43.78526663121892" lon="11.507949963123016"><ele>503.5</ele><time>2026-04-19T09:54:40.999Z</time></trkpt><trkpt lat="43.7853162964539" lon="11.508110171375701"><ele>506.25</ele><time>2026-04-19T09:54:41.999Z</time></trkpt><trkpt lat="43.785368240905626" lon="11.508265790803057"><ele>509.0</ele><time>2026-04-19T09:54:42.999Z</time></trkpt><trkpt lat="43.78542257937527" lon="11.508421345733218"><ele>509.0</ele><time>2026-04-19T09:54:43.999Z</time></trkpt><trkpt lat="43.785479898889875" lon="11.508577164672898"><ele>509.0</ele><time>2026-04-19T09:54:44.999Z</time></trkpt><trkpt lat="43.78553566998371" lon="11.508727616419158"><ele>509.0</ele><time>2026-04-19T09:54:45.999Z</time></trkpt><trkpt lat="43.78559348027353" lon="11.50887458372583"><ele>509.0</ele><time>2026-04-19T09:54:46.999Z</time></trkpt><trkpt lat="43.78565007270708" lon="11.509015710523329"><ele>510.5</ele><time>2026-04-19T09:54:47.999Z</time></trkpt><trkpt lat="43.78570815433094" lon="11.509152372476741"><ele>512.0</ele><time>2026-04-19T09:54:48.999Z</time></trkpt><trkpt lat="43.7857724846525" lon="11.509289620097706"><ele>513.5</ele><time>2026-04-19T09:54:49.999Z</time></trkpt><trkpt lat="43.785852829038745" lon="11.509420111330016"><ele>515.0</ele><time>2026-04-19T09:54:50.999Z</time></trkpt><trkpt lat="43.785951342365436" lon="11.509543526960128"><ele>515.5</ele><time>2026-04-19T09:54:51.999Z</time></trkpt><trkpt lat="43.78605381601948" lon="11.509667103510571"><ele>516.0</ele><time>2026-04-19T09:54:52.999Z</time></trkpt><trkpt lat="43.78615737698836" lon="11.509793084880489"><ele>516.5</ele><time>2026-04-19T09:54:53.999Z</time></trkpt><trkpt lat="43.786262484135285" lon="11.509917922170033"><ele>517.0</ele><time>2026-04-19T09:54:54.999Z</time></trkpt><trkpt lat="43.78636838121444" lon="11.51003730490576"><ele>517.0</ele><time>2026-04-19T09:54:55.998Z</time></trkpt><trkpt lat="43.78646805703173" lon="11.510154190465627"><ele>517.0</ele><time>2026-04-19T09:54:56.998Z</time></trkpt><trkpt lat="43.78655325617769" lon="11.510264859314509"><ele>517.0</ele><time>2026-04-19T09:54:57.998Z</time></trkpt><trkpt lat="43.78662732024965" lon="11.510366577142003"><ele>517.0</ele><time>2026-04-19T09:54:58.998Z</time></trkpt><trkpt lat="43.78668860649315" lon="11.51044747065653"><ele>517.0</ele><time>2026-04-19T09:54:59.998Z</time></trkpt><trkpt lat="43.78673538130175" lon="11.510511937556624"><ele>517.8333333333334</ele><time>2026-04-19T09:55:00.998Z</time></trkpt><trkpt lat="43.786829619726504" lon="11.51063041635671"><ele>518.6666666666667</ele><time>2026-04-19T09:55:02.998Z</time></trkpt><trkpt lat="43.78688767775153" lon="11.510698049863569"><ele>519.5</ele><time>2026-04-19T09:55:03.998Z</time></trkpt><trkpt lat="43.78694440451789" lon="11.51076800157973"><ele>520.3333333333334</ele><time>2026-04-19T09:55:05Z</time></trkpt><trkpt lat="43.78700339929006" lon="11.510836626634935"><ele>521.1666666666666</ele><time>2026-04-19T09:55:06Z</time></trkpt><trkpt lat="43.787063748025616" lon="11.510913214948534"><ele>522.0</ele><time>2026-04-19T09:55:07Z</time></trkpt><trkpt lat="43.78712599992229" lon="11.510994180505948"><ele>522.0</ele><time>2026-04-19T09:55:08Z</time></trkpt><trkpt lat="43.78719680835206" lon="11.511083745198723"><ele>522.0</ele><time>2026-04-19T09:55:09Z</time></trkpt><trkpt lat="43.787275508399716" lon="11.511183283716305"><ele>522.0</ele><time>2026-04-19T09:55:10Z</time></trkpt><trkpt lat="43.787359909523055" lon="11.511312734933924"><ele>522.0</ele><time>2026-04-19T09:55:11Z</time></trkpt><trkpt lat="43.78747252689459" lon="11.511457408061217"><ele>522.6666666666666</ele><time>2026-04-19T09:55:12Z</time></trkpt><trkpt lat="43.78760336010857" lon="11.511625482348995"><ele>523.3333333333333</ele><time>2026-04-19T09:55:13Z</time></trkpt><trkpt lat="43.787729290793074" lon="11.511787709123718"><ele>524.0</ele><time>2026-04-19T09:55:14Z</time></trkpt><trkpt lat="43.787868999299874" lon="11.511948456861955"><ele>525.6666666666666</ele><time>2026-04-19T09:55:15Z</time></trkpt><trkpt lat="43.78800760316237" lon="11.512119338386718"><ele>527.3333333333334</ele><time>2026-04-19T09:55:16Z</time></trkpt><trkpt lat="43.788150566463734" lon="11.512328636624876"><ele>529.0</ele><time>2026-04-19T09:55:17Z</time></trkpt><trkpt lat="43.788306561070655" lon="11.512530544246065"><ele>529.0</ele><time>2026-04-19T09:55:18Z</time></trkpt><trkpt lat="43.78844290246823" lon="11.512710650246452"><ele>529.0</ele><time>2026-04-19T09:55:19Z</time></trkpt><trkpt lat="43.78857056542257" lon="11.512860669574268"><ele>529.0</ele><time>2026-04-19T09:55:20Z</time></trkpt><trkpt lat="43.7886764952652" lon="11.513009075077967"><ele>530.75</ele><time>2026-04-19T09:55:21Z</time></trkpt><trkpt lat="43.78878330509496" lon="11.513132206967562"><ele>532.5</ele><time>2026-04-19T09:55:22Z</time></trkpt><trkpt lat="43.788897762836974" lon="11.513222203853676"><ele>534.25</ele><time>2026-04-19T09:55:23Z</time></trkpt><trkpt lat="43.78903055414145" lon="11.513283384176663"><ele>536.0</ele><time>2026-04-19T09:55:24Z</time></trkpt><trkpt lat="43.78917654982962" lon="11.513315034973584"><ele>536.0</ele><time>2026-04-19T09:55:25Z</time></trkpt><trkpt lat="43.78932661274276" lon="11.5133258087274"><ele>536.0</ele><time>2026-04-19T09:55:26Z</time></trkpt><trkpt lat="43.78947315067341" lon="11.513322620805514"><ele>536.0</ele><time>2026-04-19T09:55:27Z</time></trkpt><trkpt lat="43.78961966901282" lon="11.51331098963513"><ele>536.0</ele><time>2026-04-19T09:55:28Z</time></trkpt><trkpt lat="43.789766708450564" lon="11.513291202308164"><ele>538.0</ele><time>2026-04-19T09:55:29Z</time></trkpt><trkpt lat="43.78991123111925" lon="11.513247022069232"><ele>540.0</ele><time>2026-04-19T09:55:30Z</time></trkpt><trkpt lat="43.7900571418078" lon="11.513216070716725"><ele>542.0</ele><time>2026-04-19T09:55:31Z</time></trkpt><trkpt lat="43.790200310825355" lon="11.513174678082946"><ele>544.0</ele><time>2026-04-19T09:55:32Z</time></trkpt><trkpt lat="43.790326037732974" lon="11.513138328283965"><ele>547.0</ele><time>2026-04-19T09:55:33Z</time></trkpt><trkpt lat="43.790439312496076" lon="11.513082918286315"><ele>550.0</ele><time>2026-04-19T09:55:34Z</time></trkpt><trkpt lat="43.790562804204235" lon="11.513048260425894"><ele>553.0</ele><time>2026-04-19T09:55:35Z</time></trkpt><trkpt lat="43.79069246553734" lon="11.513010449974937"><ele>556.0</ele><time>2026-04-19T09:55:36Z</time></trkpt><trkpt lat="43.79082491587796" lon="11.512994212357711"><ele>556.0</ele><time>2026-04-19T09:55:37Z</time></trkpt><trkpt lat="43.79095284034518" lon="11.512959243598004"><ele>556.0</ele><time>2026-04-19T09:55:38Z</time></trkpt><trkpt lat="43.79108001772143" lon="11.512908816298866"><ele>556.0</ele><time>2026-04-19T09:55:39Z</time></trkpt><trkpt lat="43.791210928031205" lon="11.51295045097381"><ele>556.0</ele><time>2026-04-19T09:55:40Z</time></trkpt><trkpt lat="43.79135196662861" lon="11.512994309590923"><ele>559.3333333333334</ele><time>2026-04-19T09:55:41Z</time></trkpt><trkpt lat="43.791514998673684" lon="11.513042826682563"><ele>562.6666666666666</ele><time>2026-04-19T09:55:42Z</time></trkpt><trkpt lat="43.791671931758614" lon="11.513089904323893"><ele>566.0</ele><time>2026-04-19T09:55:43Z</time></trkpt><trkpt lat="43.79180908111057" lon="11.513131047115149"><ele>567.75</ele><time>2026-04-19T09:55:44Z</time></trkpt><trkpt lat="43.791930331865245" lon="11.513167420496455"><ele>569.5</ele><time>2026-04-19T09:55:45Z</time></trkpt><trkpt lat="43.79205380951482" lon="11.51318650433099"><ele>571.25</ele><time>2026-04-19T09:55:46Z</time></trkpt><trkpt lat="43.792161114153615" lon="11.513229722995519"><ele>573.0</ele><time>2026-04-19T09:55:47Z</time></trkpt><trkpt lat="43.79225969620954" lon="11.513293928475594"><ele>573.0</ele><time>2026-04-19T09:55:48Z</time></trkpt><trkpt lat="43.792345716903405" lon="11.513389274218566"><ele>573.0</ele><time>2026-04-19T09:55:49Z</time></trkpt><trkpt lat="43.79241459872603" lon="11.51350649723729"><ele>573.0</ele><time>2026-04-19T09:55:50Z</time></trkpt><trkpt lat="43.79245380066542" lon="11.513638252006805"><ele>573.0</ele><time>2026-04-19T09:55:51Z</time></trkpt><trkpt lat="43.79245800891877" lon="11.513775456934079"><ele>573.0</ele><time>2026-04-19T09:55:52Z</time></trkpt><trkpt lat="43.7924355951435" lon="11.513913652141268"><ele>576.25</ele><time>2026-04-19T09:55:53Z</time></trkpt><trkpt lat="43.79238510756071" lon="11.514042304580443"><ele>579.5</ele><time>2026-04-19T09:55:54Z</time></trkpt><trkpt lat="43.79230879989177" lon="11.514156671050712"><ele>582.75</ele><time>2026-04-19T09:55:55Z</time></trkpt><trkpt lat="43.79220238874008" lon="11.514248479953064"><ele>586.0</ele><time>2026-04-19T09:55:56Z</time></trkpt><trkpt lat="43.792076279985785" lon="11.514315929755425"><ele>586.0</ele><time>2026-04-19T09:55:57Z</time></trkpt><trkpt lat="43.79195265201202" lon="11.514378792686248"><ele>586.0</ele><time>2026-04-19T09:55:58Z</time></trkpt><trkpt lat="43.791829255737525" lon="11.51446752132849"><ele>586.0</ele><time>2026-04-19T09:55:59Z</time></trkpt><trkpt lat="43.791692198375756" lon="11.514584524578456"><ele>586.0</ele><time>2026-04-19T09:56:00Z</time></trkpt><trkpt lat="43.7915447521365" lon="11.514718900436401"><ele>589.6666666666667</ele><time>2026-04-19T09:56:01Z</time></trkpt><trkpt lat="43.791402679789734" lon="11.514863640083432"><ele>593.3333333333334</ele><time>2026-04-19T09:56:02Z</time></trkpt><trkpt lat="43.79128759076634" lon="11.514994001440215"><ele>597.0</ele><time>2026-04-19T09:56:03Z</time></trkpt><trkpt lat="43.79119638480245" lon="11.515118332249774"><ele>597.0</ele><time>2026-04-19T09:56:04Z</time></trkpt><trkpt lat="43.791137905241975" lon="11.51525130476486"><ele>597.0</ele><time>2026-04-19T09:56:05Z</time></trkpt><trkpt lat="43.791121654239916" lon="11.515399130137027"><ele>597.0</ele><time>2026-04-19T09:56:06Z</time></trkpt><trkpt lat="43.79115003133874" lon="11.51554301448876"><ele>597.0</ele><time>2026-04-19T09:56:07Z</time></trkpt><trkpt lat="43.79121615616793" lon="11.515682843403313"><ele>597.0</ele><time>2026-04-19T09:56:08Z</time></trkpt><trkpt lat="43.7913101051697" lon="11.515815736488422"><ele>599.0</ele><time>2026-04-19T09:56:09Z</time></trkpt><trkpt lat="43.79142088476034" lon="11.515953913932329"><ele>601.0</ele><time>2026-04-19T09:56:10Z</time></trkpt><trkpt lat="43.79153832469346" lon="11.516115326078674"><ele>603.0</ele><time>2026-04-19T09:56:11Z</time></trkpt><trkpt lat="43.79166332108634" lon="11.516294938073077"><ele>599.0</ele><time>2026-04-19T09:56:12Z</time></trkpt><trkpt lat="43.791803477555064" lon="11.516478873043214"><ele>595.0</ele><time>2026-04-19T09:56:12.999Z</time></trkpt><trkpt lat="43.791962132636534" lon="11.516659765475145"><ele>591.0</ele><time>2026-04-19T09:56:13.999Z</time></trkpt><trkpt lat="43.79213068742971" lon="11.516816410900793"><ele>595.6666666666666</ele><time>2026-04-19T09:56:14.999Z</time></trkpt><trkpt lat="43.792315501131704" lon="11.5169651474549"><ele>600.3333333333333</ele><time>2026-04-19T09:56:15.999Z</time></trkpt><trkpt lat="43.79249529314174" lon="11.517126205226983"><ele>605.0</ele><time>2026-04-19T09:56:16.999Z</time></trkpt><trkpt lat="43.79266514545195" lon="11.517327696597423"><ele>611.3333333333333</ele><time>2026-04-19T09:56:17.999Z</time></trkpt><trkpt lat="43.79282140041829" lon="11.517561772633636"><ele>617.6666666666666</ele><time>2026-04-19T09:56:18.999Z</time></trkpt><trkpt lat="43.79296498802603" lon="11.517788435123657"><ele>624.0</ele><time>2026-04-19T09:56:19.999Z</time></trkpt><trkpt lat="43.793098080440444" lon="11.517986566397221"><ele>624.0</ele><time>2026-04-19T09:56:20.999Z</time></trkpt><trkpt lat="43.793215082128775" lon="11.518167244738773"><ele>624.0</ele><time>2026-04-19T09:56:21.999Z</time></trkpt><trkpt lat="43.793319738095214" lon="11.518328570253834"><ele>624.0</ele><time>2026-04-19T09:56:22.999Z</time></trkpt><trkpt lat="43.79340455708164" lon="11.518479532206939"><ele>624.0</ele><time>2026-04-19T09:56:23.999Z</time></trkpt><trkpt lat="43.7934616305547" lon="11.518623915184861"><ele>624.0</ele><time>2026-04-19T09:56:24.999Z</time></trkpt><trkpt lat="43.79347850140751" lon="11.51876262553875"><ele>624.0</ele><time>2026-04-19T09:56:25.999Z</time></trkpt><trkpt lat="43.79344728648431" lon="11.518908037752995"><ele>624.0</ele><time>2026-04-19T09:56:26.999Z</time></trkpt><trkpt lat="43.79337967599891" lon="11.519058344912745"><ele>626.0</ele><time>2026-04-19T09:56:27.999Z</time></trkpt><trkpt lat="43.79328497616251" lon="11.519206280994123"><ele>628.0</ele><time>2026-04-19T09:56:28.999Z</time></trkpt><trkpt lat="43.79316266429303" lon="11.519342326418345"><ele>630.0</ele><time>2026-04-19T09:56:29.999Z</time></trkpt><trkpt lat="43.7930312392831" lon="11.51946888559668"><ele>636.6666666666666</ele><time>2026-04-19T09:56:30.999Z</time></trkpt><trkpt lat="43.79290456890738" lon="11.519605836742954"><ele>643.3333333333333</ele><time>2026-04-19T09:56:31.999Z</time></trkpt><trkpt lat="43.792786766895006" lon="11.519782768162903"><ele>650.0</ele><time>2026-04-19T09:56:32.999Z</time></trkpt><trkpt lat="43.79268584780748" lon="11.519979325811669"><ele>647.25</ele><time>2026-04-19T09:56:33.999Z</time></trkpt><trkpt lat="43.79260769011773" lon="11.520171780066246"><ele>644.5</ele><time>2026-04-19T09:56:34.999Z</time></trkpt><trkpt lat="43.7925651738033" lon="11.520352202179403"><ele>641.75</ele><time>2026-04-19T09:56:35.999Z</time></trkpt><trkpt lat="43.79256055093741" lon="11.520545561160642"><ele>639.0</ele><time>2026-04-19T09:56:36.999Z</time></trkpt><trkpt lat="43.7925877720386" lon="11.520765187678789"><ele>639.0</ele><time>2026-04-19T09:56:37.999Z</time></trkpt><trkpt lat="43.79262175640885" lon="11.521003137007671"><ele>639.0</ele><time>2026-04-19T09:56:38.999Z</time></trkpt><trkpt lat="43.79264395624343" lon="11.52126319847837"><ele>639.0</ele><time>2026-04-19T09:56:39.999Z</time></trkpt><trkpt lat="43.792647720908676" lon="11.521531615812444"><ele>642.0</ele><time>2026-04-19T09:56:40.999Z</time></trkpt><trkpt lat="43.792652199172764" lon="11.521800130467678"><ele>645.0</ele><time>2026-04-19T09:56:41.999Z</time></trkpt><trkpt lat="43.79266725349064" lon="11.522046886517787"><ele>648.0</ele><time>2026-04-19T09:56:42.999Z</time></trkpt><trkpt lat="43.79270584111104" lon="11.522276951800892"><ele>656.3333333333334</ele><time>2026-04-19T09:56:43.999Z</time></trkpt><trkpt lat="43.79275134755521" lon="11.52248892650618"><ele>664.6666666666667</ele><time>2026-04-19T09:56:44.999Z</time></trkpt><trkpt lat="43.79277041471474" lon="11.52268623073735"><ele>673.0</ele><time>2026-04-19T09:56:45.999Z</time></trkpt><trkpt lat="43.792748866042714" lon="11.522890271259834"><ele>675.6666666666667</ele><time>2026-04-19T09:56:46.998Z</time></trkpt><trkpt lat="43.79268121254993" lon="11.523096706790719"><ele>678.3333333333334</ele><time>2026-04-19T09:56:47.998Z</time></trkpt><trkpt lat="43.792591307152485" lon="11.52331262555176"><ele>681.0</ele><time>2026-04-19T09:56:48.998Z</time></trkpt><trkpt lat="43.79250067993041" lon="11.523548660374592"><ele>679.6666666666666</ele><time>2026-04-19T09:56:49.998Z</time></trkpt><trkpt lat="43.79242145142018" lon="11.523788031871566"><ele>678.3333333333333</ele><time>2026-04-19T09:56:50.998Z</time></trkpt><trkpt lat="43.79234445985885" lon="11.52400227083959"><ele>677.0</ele><time>2026-04-19T09:56:51.998Z</time></trkpt><trkpt lat="43.792254261133394" lon="11.524179547612784"><ele>677.0</ele><time>2026-04-19T09:56:52.998Z</time></trkpt><trkpt lat="43.79214052673022" lon="11.52429769624765"><ele>677.0</ele><time>2026-04-19T09:56:53.998Z</time></trkpt><trkpt lat="43.79203160849518" lon="11.524370099725155"><ele>677.0</ele><time>2026-04-19T09:56:54.998Z</time></trkpt><trkpt lat="43.791949720347176" lon="11.524460755792916"><ele>677.0</ele><time>2026-04-19T09:56:55.998Z</time></trkpt><trkpt lat="43.791907089653584" lon="11.52457759827593"><ele>680.0</ele><time>2026-04-19T09:56:56.998Z</time></trkpt><trkpt lat="43.79191131050199" lon="11.524724678362091"><ele>683.0</ele><time>2026-04-19T09:56:57.998Z</time></trkpt><trkpt lat="43.79195413812013" lon="11.524881929455427"><ele>686.0</ele><time>2026-04-19T09:56:58.998Z</time></trkpt><trkpt lat="43.792010301055335" lon="11.525053714196112"><ele>689.0</ele><time>2026-04-19T09:56:59.998Z</time></trkpt><trkpt lat="43.79205722688526" lon="11.525227646186798"><ele>692.25</ele><time>2026-04-19T09:57:00.998Z</time></trkpt><trkpt lat="43.79206626773923" lon="11.525412738661013"><ele>695.5</ele><time>2026-04-19T09:57:01.998Z</time></trkpt><trkpt lat="43.79203297004165" lon="11.525612987127982"><ele>698.75</ele><time>2026-04-19T09:57:02.998Z</time></trkpt><trkpt lat="43.79196482909052" lon="11.525817598948006"><ele>702.0</ele><time>2026-04-19T09:57:03.998Z</time></trkpt><trkpt lat="43.79188543225935" lon="11.526007044672742"><ele>697.75</ele><time>2026-04-19T09:57:04.998Z</time></trkpt><trkpt lat="43.79181915898488" lon="11.52620461715376"><ele>693.5</ele><time>2026-04-19T09:57:05.998Z</time></trkpt><trkpt lat="43.79178201805959" lon="11.526388875325647"><ele>689.25</ele><time>2026-04-19T09:57:06.998Z</time></trkpt><trkpt lat="43.791777151111646" lon="11.526592288974044"><ele>685.0</ele><time>2026-04-19T09:57:07.998Z</time></trkpt><trkpt lat="43.791800302316176" lon="11.526794112674862"><ele>685.0</ele><time>2026-04-19T09:57:08.998Z</time></trkpt><trkpt lat="43.791820953470044" lon="11.526988363901864"><ele>685.0</ele><time>2026-04-19T09:57:09.998Z</time></trkpt><trkpt lat="43.79180656742039" lon="11.527179831359243"><ele>685.0</ele><time>2026-04-19T09:57:11Z</time></trkpt><trkpt lat="43.79174497627419" lon="11.527353260706542"><ele>685.0</ele><time>2026-04-19T09:57:12Z</time></trkpt><trkpt lat="43.79166881065042" lon="11.527489353086212"><ele>687.5</ele><time>2026-04-19T09:57:13Z</time></trkpt><trkpt lat="43.791620818412525" lon="11.527631837134376"><ele>690.0</ele><time>2026-04-19T09:57:14Z</time></trkpt><trkpt lat="43.791613570533414" lon="11.52780566720899"><ele>692.5</ele><time>2026-04-19T09:57:15Z</time></trkpt><trkpt lat="43.791645759779094" lon="11.527988208213419"><ele>695.0</ele><time>2026-04-19T09:57:15.999Z</time></trkpt><trkpt lat="43.79171180605912" lon="11.528176925582098"><ele>695.6666666666666</ele><time>2026-04-19T09:57:17Z</time></trkpt><trkpt lat="43.79179938479699" lon="11.528373691531566"><ele>696.3333333333334</ele><time>2026-04-19T09:57:18Z</time></trkpt><trkpt lat="43.79188937027471" lon="11.528585645262533"><ele>697.0</ele><time>2026-04-19T09:57:18.999Z</time></trkpt><trkpt lat="43.79196476120474" lon="11.528824017081869"><ele>707.3333333333334</ele><time>2026-04-19T09:57:19.999Z</time></trkpt><trkpt lat="43.79200231847918" lon="11.529068216402353"><ele>717.6666666666666</ele><time>2026-04-19T09:57:21Z</time></trkpt><trkpt lat="43.79200228561705" lon="11.52928460277036"><ele>728.0</ele><time>2026-04-19T09:57:21.999Z</time></trkpt><trkpt lat="43.792012211173194" lon="11.529479982859316"><ele>725.3333333333333</ele><time>2026-04-19T09:57:22.999Z</time></trkpt><trkpt lat="43.79206739222009" lon="11.52967017592575"><ele>722.6666666666666</ele><time>2026-04-19T09:57:24Z</time></trkpt><trkpt lat="43.79215486929101" lon="11.529847909499988"><ele>720.0</ele><time>2026-04-19T09:57:24.999Z</time></trkpt><trkpt lat="43.79226619781769" lon="11.530004072037217"><ele>720.0</ele><time>2026-04-19T09:57:25.999Z</time></trkpt><trkpt lat="43.79240549702251" lon="11.530140073568774"><ele>720.0</ele><time>2026-04-19T09:57:26.999Z</time></trkpt><trkpt lat="43.79257156874536" lon="11.53026796139517"><ele>720.0</ele><time>2026-04-19T09:57:27.999Z</time></trkpt><trkpt lat="43.79273340963157" lon="11.530378572168795"><ele>724.75</ele><time>2026-04-19T09:57:28.999Z</time></trkpt><trkpt lat="43.79286811350292" lon="11.530468463405485"><ele>729.5</ele><time>2026-04-19T09:57:29.999Z</time></trkpt><trkpt lat="43.79296845914287" lon="11.530549721179504"><ele>734.25</ele><time>2026-04-19T09:57:30.999Z</time></trkpt><trkpt lat="43.79303849607277" lon="11.530642759823772"><ele>739.0</ele><time>2026-04-19T09:57:31.999Z</time></trkpt><trkpt lat="43.793075450553204" lon="11.530774347745734"><ele>739.0</ele><time>2026-04-19T09:57:32.999Z</time></trkpt><trkpt lat="43.79308221070922" lon="11.530948429764132"><ele>739.0</ele><time>2026-04-19T09:57:33.999Z</time></trkpt><trkpt lat="43.793055004116425" lon="11.531139552144344"><ele>739.0</ele><time>2026-04-19T09:57:34.999Z</time></trkpt><trkpt lat="43.793014650311534" lon="11.531340851344691"><ele>739.0</ele><time>2026-04-19T09:57:35.999Z</time></trkpt><trkpt lat="43.79300542173499" lon="11.53156668382533"><ele>740.0</ele><time>2026-04-19T09:57:36.999Z</time></trkpt><trkpt lat="43.793012350159614" lon="11.531815797362599"><ele>741.0</ele><time>2026-04-19T09:57:37.999Z</time></trkpt><trkpt lat="43.793001596051454" lon="11.53205750204751"><ele>742.0</ele><time>2026-04-19T09:57:38.999Z</time></trkpt><trkpt lat="43.792976048943416" lon="11.532306588210162"><ele>743.6666666666667</ele><time>2026-04-19T09:57:39.999Z</time></trkpt><trkpt lat="43.792953496896004" lon="11.532554862326181"><ele>745.3333333333334</ele><time>2026-04-19T09:57:40.999Z</time></trkpt><trkpt lat="43.792931075589756" lon="11.532804684605775"><ele>747.0</ele><time>2026-04-19T09:57:41.999Z</time></trkpt><trkpt lat="43.79292324931867" lon="11.53305865739054"><ele>747.3333333333334</ele><time>2026-04-19T09:57:42.999Z</time></trkpt><trkpt lat="43.792942860143256" lon="11.533313377021425"><ele>747.6666666666667</ele><time>2026-04-19T09:57:43.999Z</time></trkpt><trkpt lat="43.79297333832158" lon="11.53355240269396"><ele>748.0</ele><time>2026-04-19T09:57:44.999Z</time></trkpt><trkpt lat="43.79298220739707" lon="11.533772508768262"><ele>747.0</ele><time>2026-04-19T09:57:45.999Z</time></trkpt><trkpt lat="43.7929700648931" lon="11.533984062911179"><ele>746.0</ele><time>2026-04-19T09:57:46.999Z</time></trkpt><trkpt lat="43.792990856457514" lon="11.534198323178856"><ele>745.0</ele><time>2026-04-19T09:57:47.999Z</time></trkpt><trkpt lat="43.793030099722706" lon="11.534390768361153"><ele>743.0</ele><time>2026-04-19T09:57:48.999Z</time></trkpt><trkpt lat="43.79307617936608" lon="11.534572490176373"><ele>741.0</ele><time>2026-04-19T09:57:49.999Z</time></trkpt><trkpt lat="43.793119054098604" lon="11.53475278972294"><ele>739.0</ele><time>2026-04-19T09:57:50.999Z</time></trkpt><trkpt lat="43.79316175956827" lon="11.534938115923511"><ele>737.0</ele><time>2026-04-19T09:57:51.999Z</time></trkpt><trkpt lat="43.79320682816755" lon="11.53513007829127"><ele>737.0</ele><time>2026-04-19T09:57:52.999Z</time></trkpt><trkpt lat="43.79325891399062" lon="11.535323589392412"><ele>737.0</ele><time>2026-04-19T09:57:53.999Z</time></trkpt><trkpt lat="43.793319365331534" lon="11.535515895969011"><ele>737.0</ele><time>2026-04-19T09:57:54.999Z</time></trkpt><trkpt lat="43.79338678344794" lon="11.5357068314044"><ele>735.5</ele><time>2026-04-19T09:57:55.999Z</time></trkpt><trkpt lat="43.79345343684348" lon="11.535890488964556"><ele>734.0</ele><time>2026-04-19T09:57:56.999Z</time></trkpt><trkpt lat="43.793516448085214" lon="11.536070414352462"><ele>732.5</ele><time>2026-04-19T09:57:57.999Z</time></trkpt><trkpt lat="43.79357790401416" lon="11.536249284103887"><ele>731.0</ele><time>2026-04-19T09:57:58.999Z</time></trkpt><trkpt lat="43.79363871063507" lon="11.536423951373546"><ele>732.0</ele><time>2026-04-19T09:57:59.999Z</time></trkpt><trkpt lat="43.7936991856485" lon="11.536596253216807"><ele>733.0</ele><time>2026-04-19T09:58:00.999Z</time></trkpt><trkpt lat="43.79375881093864" lon="11.536766720725435"><ele>734.0</ele><time>2026-04-19T09:58:01.999Z</time></trkpt><trkpt lat="43.7938191056627" lon="11.53693306740654"><ele>735.0</ele><time>2026-04-19T09:58:02.999Z</time></trkpt><trkpt lat="43.793889813663434" lon="11.537087255062065"><ele>735.0</ele><time>2026-04-19T09:58:03.999Z</time></trkpt><trkpt lat="43.79397373325572" lon="11.537223755686798"><ele>735.0</ele><time>2026-04-19T09:58:04.999Z</time></trkpt><trkpt lat="43.79406603278445" lon="11.537348573491666"><ele>735.0</ele><time>2026-04-19T09:58:05.999Z</time></trkpt><trkpt lat="43.79416491252589" lon="11.537468381236026"><ele>735.0</ele><time>2026-04-19T09:58:06.999Z</time></trkpt><trkpt lat="43.79425771678819" lon="11.537589410495842"><ele>736.2</ele><time>2026-04-19T09:58:07.999Z</time></trkpt><trkpt lat="43.79434160922875" lon="11.537708820345213"><ele>737.4</ele><time>2026-04-19T09:58:08.999Z</time></trkpt><trkpt lat="43.794405632313875" lon="11.537834300587686"><ele>738.5999999999999</ele><time>2026-04-19T09:58:09.999Z</time></trkpt><trkpt lat="43.79444183575269" lon="11.537965560636119"><ele>739.8</ele><time>2026-04-19T09:58:10.999Z</time></trkpt><trkpt lat="43.79445140398427" lon="11.538108604202673"><ele>741.0</ele><time>2026-04-19T09:58:11.999Z</time></trkpt><trkpt lat="43.79443085083707" lon="11.538252403541525"><ele>741.0</ele><time>2026-04-19T09:58:12.999Z</time></trkpt><trkpt lat="43.79439671456955" lon="11.538379306043652"><ele>741.0</ele><time>2026-04-19T09:58:13.999Z</time></trkpt><trkpt lat="43.79438611332241" lon="11.53851537731304"><ele>741.0</ele><time>2026-04-19T09:58:14.999Z</time></trkpt><trkpt lat="43.7944019727636" lon="11.538654234989734"><ele>741.0</ele><time>2026-04-19T09:58:15.999Z</time></trkpt><trkpt lat="43.79444365079149" lon="11.538779789161879"><ele>741.0</ele><time>2026-04-19T09:58:16.999Z</time></trkpt><trkpt lat="43.79451117925022" lon="11.538880309654324"><ele>740.4</ele><time>2026-04-19T09:58:17.999Z</time></trkpt><trkpt lat="43.794603243064714" lon="11.538955998710604"><ele>739.8</ele><time>2026-04-19T09:58:18.999Z</time></trkpt><trkpt lat="43.79470463846568" lon="11.539023972581326"><ele>739.1999999999999</ele><time>2026-04-19T09:58:19.999Z</time></trkpt><trkpt lat="43.7948043976942" lon="11.539100979458837"><ele>738.5999999999999</ele><time>2026-04-19T09:58:20.999Z</time></trkpt><trkpt lat="43.794903726373654" lon="11.53917922463316"><ele>738.0</ele><time>2026-04-19T09:58:21.999Z</time></trkpt><trkpt lat="43.79500419486462" lon="11.539254847802113"><ele>738.0</ele><time>2026-04-19T09:58:22.999Z</time></trkpt><trkpt lat="43.79509255883853" lon="11.539346764742545"><ele>738.0</ele><time>2026-04-19T09:58:23.999Z</time></trkpt><trkpt lat="43.79517146579312" lon="11.53944716413314"><ele>738.0</ele><time>2026-04-19T09:58:24.998Z</time></trkpt><trkpt lat="43.795239858480066" lon="11.539565417997567"><ele>738.0</ele><time>2026-04-19T09:58:25.998Z</time></trkpt><trkpt lat="43.795289371884984" lon="11.539700312703896"><ele>738.0</ele><time>2026-04-19T09:58:26.998Z</time></trkpt><trkpt lat="43.795319133027384" lon="11.539843769058457"><ele>738.4</ele><time>2026-04-19T09:58:27.998Z</time></trkpt><trkpt lat="43.7953285659175" lon="11.539978890773819"><ele>738.8</ele><time>2026-04-19T09:58:28.998Z</time></trkpt><trkpt lat="43.79532435389984" lon="11.540106839464206"><ele>739.2</ele><time>2026-04-19T09:58:29.998Z</time></trkpt><trkpt lat="43.79531155422606" lon="11.54024554615538"><ele>739.6</ele><time>2026-04-19T09:58:30.998Z</time></trkpt><trkpt lat="43.79529765015602" lon="11.54037868603448"><ele>740.0</ele><time>2026-04-19T09:58:31.998Z</time></trkpt><trkpt lat="43.795284630686346" lon="11.540500375418635"><ele>740.0</ele><time>2026-04-19T09:58:32.998Z</time></trkpt><trkpt lat="43.79527376535573" lon="11.540608690579017"><ele>740.0</ele><time>2026-04-19T09:58:33.998Z</time></trkpt><trkpt lat="43.79526151591258" lon="11.540723902243572"><ele>740.0</ele><time>2026-04-19T09:58:34.998Z</time></trkpt><trkpt lat="43.79525066654897" lon="11.540845798590809"><ele>740.0</ele><time>2026-04-19T09:58:35.998Z</time></trkpt><trkpt lat="43.79524040595656" lon="11.540973624749624"><ele>740.0</ele><time>2026-04-19T09:58:36.998Z</time></trkpt><trkpt lat="43.795232534937035" lon="11.541117211801506"><ele>740.0</ele><time>2026-04-19T09:58:37.998Z</time></trkpt><trkpt lat="43.795236289440226" lon="11.541282634536671"><ele>741.5</ele><time>2026-04-19T09:58:38.998Z</time></trkpt><trkpt lat="43.79525116467882" lon="11.541459417228062"><ele>743.0</ele><time>2026-04-19T09:58:39.998Z</time></trkpt><trkpt lat="43.7952739884542" lon="11.54163302836881"><ele>744.5</ele><time>2026-04-19T09:58:40.998Z</time></trkpt><trkpt lat="43.79529853553394" lon="11.541809354507416"><ele>746.0</ele><time>2026-04-19T09:58:41.998Z</time></trkpt><trkpt lat="43.795325311813095" lon="11.541997271058278"><ele>746.5</ele><time>2026-04-19T09:58:42.998Z</time></trkpt><trkpt lat="43.79534925772801" lon="11.542178052820958"><ele>747.0</ele><time>2026-04-19T09:58:43.998Z</time></trkpt><trkpt lat="43.79536675440239" lon="11.542361431492225"><ele>747.5</ele><time>2026-04-19T09:58:44.998Z</time></trkpt><trkpt lat="43.79537315584647" lon="11.5425477933929"><ele>748.0</ele><time>2026-04-19T09:58:45.998Z</time></trkpt><trkpt lat="43.795358566988774" lon="11.542749326358779"><ele>746.3333333333334</ele><time>2026-04-19T09:58:46.998Z</time></trkpt><trkpt lat="43.79532286081098" lon="11.542968214476486"><ele>744.6666666666666</ele><time>2026-04-19T09:58:47.998Z</time></trkpt><trkpt lat="43.795283529598194" lon="11.54317905571109"><ele>743.0</ele><time>2026-04-19T09:58:48.998Z</time></trkpt><trkpt lat="43.79525151666846" lon="11.543364538324472"><ele>743.0</ele><time>2026-04-19T09:58:49.998Z</time></trkpt><trkpt lat="43.79521641938256" lon="11.543553840745203"><ele>743.0</ele><time>2026-04-19T09:58:50.998Z</time></trkpt><trkpt lat="43.79518435950562" lon="11.543751696576807"><ele>743.0</ele><time>2026-04-19T09:58:51.998Z</time></trkpt><trkpt lat="43.795156502666046" lon="11.543953594832953"><ele>743.0</ele><time>2026-04-19T09:58:52.998Z</time></trkpt><trkpt lat="43.7951276642493" lon="11.544152088505735"><ele>749.75</ele><time>2026-04-19T09:58:53.998Z</time></trkpt><trkpt lat="43.79509405123083" lon="11.544343908971815"><ele>756.5</ele><time>2026-04-19T09:58:54.998Z</time></trkpt><trkpt lat="43.795064604976425" lon="11.544531310294916"><ele>763.25</ele><time>2026-04-19T09:58:55.998Z</time></trkpt><trkpt lat="43.795036088735245" lon="11.544717277327932"><ele>770.0</ele><time>2026-04-19T09:58:56.998Z</time></trkpt><trkpt lat="43.79499925690465" lon="11.54489993155119"><ele>770.0</ele><time>2026-04-19T09:58:57.998Z</time></trkpt><trkpt lat="43.79494547663098" lon="11.545078485200781"><ele>770.0</ele><time>2026-04-19T09:58:58.998Z</time></trkpt><trkpt lat="43.79487795280066" lon="11.545254823897933"><ele>770.0</ele><time>2026-04-19T09:58:59.998Z</time></trkpt><trkpt lat="43.7948193360015" lon="11.545435511556082"><ele>770.0</ele><time>2026-04-19T09:59:00.998Z</time></trkpt><trkpt lat="43.79476770252721" lon="11.545620740535984"><ele>769.5</ele><time>2026-04-19T09:59:01.998Z</time></trkpt><trkpt lat="43.79472751717701" lon="11.545811819122406"><ele>769.0</ele><time>2026-04-19T09:59:02.998Z</time></trkpt><trkpt lat="43.79469413408116" lon="11.546013341688944"><ele>768.5</ele><time>2026-04-19T09:59:03.998Z</time></trkpt><trkpt lat="43.79467411846527" lon="11.546211162221976"><ele>768.0</ele><time>2026-04-19T09:59:04.998Z</time></trkpt><trkpt lat="43.79466630705711" lon="11.546396244496263"><ele>768.0</ele><time>2026-04-19T09:59:05.998Z</time></trkpt><trkpt lat="43.79467393757917" lon="11.546563083516409"><ele>768.0</ele><time>2026-04-19T09:59:06.998Z</time></trkpt><trkpt lat="43.79468881617097" lon="11.546728396086799"><ele>768.0</ele><time>2026-04-19T09:59:07.998Z</time></trkpt><trkpt lat="43.794698609463985" lon="11.546890043852523"><ele>768.0</ele><time>2026-04-19T09:59:08.998Z</time></trkpt><trkpt lat="43.79468296039357" lon="11.547048803368872"><ele>767.25</ele><time>2026-04-19T09:59:09.998Z</time></trkpt><trkpt lat="43.794625031287296" lon="11.54719570168885"><ele>766.5</ele><time>2026-04-19T09:59:10.998Z</time></trkpt><trkpt lat="43.794529354856955" lon="11.54730244085871"><ele>765.75</ele><time>2026-04-19T09:59:11.998Z</time></trkpt><trkpt lat="43.794415458963144" lon="11.547364830865485"><ele>765.0</ele><time>2026-04-19T09:59:12.998Z</time></trkpt><trkpt lat="43.794292124715675" lon="11.54737997748805"><ele>768.75</ele><time>2026-04-19T09:59:13.998Z</time></trkpt><trkpt lat="43.79417459592005" lon="11.547375445517055"><ele>772.5</ele><time>2026-04-19T09:59:14.998Z</time></trkpt><trkpt lat="43.7940621139076" lon="11.54737503158434"><ele>776.25</ele><time>2026-04-19T09:59:15.998Z</time></trkpt><trkpt lat="43.793945736059555" lon="11.547377569168322"><ele>780.0</ele><time>2026-04-19T09:59:17Z</time></trkpt><trkpt lat="43.793825501899136" lon="11.5473814043743"><ele>780.0</ele><time>2026-04-19T09:59:18Z</time></trkpt><trkpt lat="43.79370019128332" lon="11.54739309458626"><ele>780.0</ele><time>2026-04-19T09:59:19Z</time></trkpt><trkpt lat="43.793572575740995" lon="11.54740748216162"><ele>780.0</ele><time>2026-04-19T09:59:20Z</time></trkpt><trkpt lat="43.79344658215122" lon="11.547442069633474"><ele>780.0</ele><time>2026-04-19T09:59:21Z</time></trkpt><trkpt lat="43.793333122422865" lon="11.547506362987606"><ele>779.25</ele><time>2026-04-19T09:59:22Z</time></trkpt><trkpt lat="43.793237234861614" lon="11.54759277276664"><ele>778.5</ele><time>2026-04-19T09:59:23Z</time></trkpt><trkpt lat="43.7931558120318" lon="11.547708359100373"><ele>777.75</ele><time>2026-04-19T09:59:24Z</time></trkpt><trkpt lat="43.79308867966198" lon="11.547854090998042"><ele>777.0</ele><time>2026-04-19T09:59:25Z</time></trkpt><trkpt lat="43.79303602932247" lon="11.548027937255636"><ele>777.0</ele><time>2026-04-19T09:59:26Z</time></trkpt><trkpt lat="43.793012921127485" lon="11.548227569895225"><ele>777.0</ele><time>2026-04-19T09:59:27Z</time></trkpt><trkpt lat="43.792999051215126" lon="11.548461510547984"><ele>777.0</ele><time>2026-04-19T09:59:28Z</time></trkpt><trkpt lat="43.79297737678346" lon="11.548722476659451"><ele>777.0</ele><time>2026-04-19T09:59:29Z</time></trkpt><trkpt lat="43.79296491177332" lon="11.549010553563235"><ele>777.0</ele><time>2026-04-19T09:59:30Z</time></trkpt><trkpt lat="43.79296542397817" lon="11.549322965244409"><ele>777.0</ele><time>2026-04-19T09:59:31Z</time></trkpt><trkpt lat="43.792933074953176" lon="11.5496359965715"><ele>778.0</ele><time>2026-04-19T09:59:32Z</time></trkpt><trkpt lat="43.79291743982677" lon="11.549938726441297"><ele>779.0</ele><time>2026-04-19T09:59:33Z</time></trkpt><trkpt lat="43.792906988596556" lon="11.550237843851765"><ele>780.0</ele><time>2026-04-19T09:59:34Z</time></trkpt><trkpt lat="43.792911119373265" lon="11.550545468097702"><ele>783.5</ele><time>2026-04-19T09:59:35Z</time></trkpt><trkpt lat="43.79293174150195" lon="11.550878788365353"><ele>787.0</ele><time>2026-04-19T09:59:36Z</time></trkpt><trkpt lat="43.79296261149241" lon="11.551230066218627"><ele>789.0</ele><time>2026-04-19T09:59:37Z</time></trkpt><trkpt lat="43.79299976620411" lon="11.551580741685267"><ele>791.0</ele><time>2026-04-19T09:59:38Z</time></trkpt><trkpt lat="43.79303239891544" lon="11.551885326167064"><ele>794.0</ele><time>2026-04-19T09:59:39Z</time></trkpt><trkpt lat="43.79306165090518" lon="11.552150555976418"><ele>797.0</ele><time>2026-04-19T09:59:40Z</time></trkpt><trkpt lat="43.79309036257017" lon="11.552392398035039"><ele>800.0</ele><time>2026-04-19T09:59:41Z</time></trkpt><trkpt lat="43.793113095844" lon="11.55260720405458"><ele>800.0</ele><time>2026-04-19T09:59:41.999Z</time></trkpt><trkpt lat="43.793111972164716" lon="11.552800672424533"><ele>800.0</ele><time>2026-04-19T09:59:42.999Z</time></trkpt><trkpt lat="43.793070664633646" lon="11.552983926708208"><ele>800.0</ele><time>2026-04-19T09:59:43.999Z</time></trkpt><trkpt lat="43.79298863544615" lon="11.553152351700339"><ele>800.0</ele><time>2026-04-19T09:59:44.999Z</time></trkpt><trkpt lat="43.79287348693914" lon="11.553300761553354"><ele>800.6666666666667</ele><time>2026-04-19T09:59:45.999Z</time></trkpt><trkpt lat="43.79274762377457" lon="11.553472275802237"><ele>801.3333333333333</ele><time>2026-04-19T09:59:46.999Z</time></trkpt><trkpt lat="43.79262542278011" lon="11.553684136017383"><ele>802.0</ele><time>2026-04-19T09:59:47.999Z</time></trkpt><trkpt lat="43.792510820382354" lon="11.553907541075787"><ele>804.3333333333333</ele><time>2026-04-19T09:59:48.999Z</time></trkpt><trkpt lat="43.79240163730623" lon="11.554119543243187"><ele>806.6666666666667</ele><time>2026-04-19T09:59:49.999Z</time></trkpt><trkpt lat="43.792299717475835" lon="11.554307294248268"><ele>809.0</ele><time>2026-04-19T09:59:50.999Z</time></trkpt><trkpt lat="43.79219591063249" lon="11.554473859455268"><ele>807.3333333333334</ele><time>2026-04-19T09:59:51.999Z</time></trkpt><trkpt lat="43.792068767097696" lon="11.554617977811656"><ele>805.6666666666667</ele><time>2026-04-19T09:59:52.999Z</time></trkpt><trkpt lat="43.791928918445095" lon="11.55473326420861"><ele>804.0</ele><time>2026-04-19T09:59:53.999Z</time></trkpt><trkpt lat="43.79180612455603" lon="11.554847156997768"><ele>808.5</ele><time>2026-04-19T09:59:54.999Z</time></trkpt><trkpt lat="43.791710376474846" lon="11.554986523033055"><ele>813.0</ele><time>2026-04-19T09:59:55.999Z</time></trkpt><trkpt lat="43.79165347555687" lon="11.55514752043731"><ele>817.5</ele><time>2026-04-19T09:59:56.999Z</time></trkpt><trkpt lat="43.79163554008449" lon="11.555316083100003"><ele>822.0</ele><time>2026-04-19T09:59:57.999Z</time></trkpt><trkpt lat="43.79165676260484" lon="11.55549286692818"><ele>824.6666666666667</ele><time>2026-04-19T09:59:58.999Z</time></trkpt><trkpt lat="43.79170648842885" lon="11.55566571905802"><ele>827.3333333333334</ele><time>2026-04-19T09:59:59.999Z</time></trkpt><trkpt lat="43.79180528296902" lon="11.555830090324594"><ele>830.0</ele><time>2026-04-19T10:00:00.999Z</time></trkpt><trkpt lat="43.79192888731545" lon="11.555976392219494"><ele>823.25</ele><time>2026-04-19T10:00:01.999Z</time></trkpt><trkpt lat="43.79203528858153" lon="11.55609709077876"><ele>816.5</ele><time>2026-04-19T10:00:02.999Z</time></trkpt><trkpt lat="43.7921256971497" lon="11.556212653623072"><ele>809.75</ele><time>2026-04-19T10:00:03.999Z</time></trkpt><trkpt lat="43.79216546316102" lon="11.556375725240501"><ele>803.0</ele><time>2026-04-19T10:00:04.999Z</time></trkpt><trkpt lat="43.792165513801685" lon="11.556554432415139"><ele>803.0</ele><time>2026-04-19T10:00:05.999Z</time></trkpt><trkpt lat="43.79211689438456" lon="11.556707452283579"><ele>803.0</ele><time>2026-04-19T10:00:06.999Z</time></trkpt><trkpt lat="43.792030697941804" lon="11.556824288218467"><ele>803.0</ele><time>2026-04-19T10:00:07.999Z</time></trkpt><trkpt lat="43.79192003292304" lon="11.556911707265483"><ele>803.0</ele><time>2026-04-19T10:00:08.999Z</time></trkpt><trkpt lat="43.791816242733375" lon="11.556980624852939"><ele>809.0</ele><time>2026-04-19T10:00:09.999Z</time></trkpt><trkpt lat="43.791738481880685" lon="11.557069674546003"><ele>815.0</ele><time>2026-04-19T10:00:10.999Z</time></trkpt><trkpt lat="43.791696802629296" lon="11.557190532879268"><ele>821.0</ele><time>2026-04-19T10:00:11.999Z</time></trkpt><trkpt lat="43.79169004085322" lon="11.557346254360835"><ele>827.0</ele><time>2026-04-19T10:00:12.999Z</time></trkpt><trkpt lat="43.79171237678007" lon="11.557507462556961"><ele>833.0</ele><time>2026-04-19T10:00:13.999Z</time></trkpt><trkpt lat="43.79173176338204" lon="11.557662920349783"><ele>833.0</ele><time>2026-04-19T10:00:14.999Z</time></trkpt><trkpt lat="43.79171375246573" lon="11.557810073716919"><ele>833.0</ele><time>2026-04-19T10:00:15.999Z</time></trkpt><trkpt lat="43.79165696072966" lon="11.55791436742122"><ele>833.0</ele><time>2026-04-19T10:00:16.999Z</time></trkpt><trkpt lat="43.79158172949695" lon="11.558001643155311"><ele>833.0</ele><time>2026-04-19T10:00:17.999Z</time></trkpt><trkpt lat="43.79149534056386" lon="11.55808383615971"><ele>833.0</ele><time>2026-04-19T10:00:18.999Z</time></trkpt><trkpt lat="43.79140480823594" lon="11.558164709342448"><ele>830.75</ele><time>2026-04-19T10:00:19.999Z</time></trkpt><trkpt lat="43.7913092284139" lon="11.558240100389792"><ele>828.5</ele><time>2026-04-19T10:00:20.999Z</time></trkpt><trkpt lat="43.79120888205365" lon="11.558317947830936"><ele>826.25</ele><time>2026-04-19T10:00:21.999Z</time></trkpt><trkpt lat="43.791104609627524" lon="11.558406232776164"><ele>824.0</ele><time>2026-04-19T10:00:22.999Z</time></trkpt><trkpt lat="43.79100296620478" lon="11.558501864385027"><ele>826.25</ele><time>2026-04-19T10:00:23.999Z</time></trkpt><trkpt lat="43.79091159187068" lon="11.558609126765711"><ele>828.5</ele><time>2026-04-19T10:00:24.999Z</time></trkpt><trkpt lat="43.79082835998065" lon="11.5587270252314"><ele>830.75</ele><time>2026-04-19T10:00:25.999Z</time></trkpt><trkpt lat="43.790751298639165" lon="11.558845432922066"><ele>833.0</ele><time>2026-04-19T10:00:26.999Z</time></trkpt><trkpt lat="43.790680908027475" lon="11.558976044757111"><ele>833.0</ele><time>2026-04-19T10:00:27.999Z</time></trkpt><trkpt lat="43.790621575827856" lon="11.559129699485032"><ele>833.0</ele><time>2026-04-19T10:00:28.999Z</time></trkpt><trkpt lat="43.79057408960405" lon="11.55929815258876"><ele>833.0</ele><time>2026-04-19T10:00:29.999Z</time></trkpt><trkpt lat="43.790531939706916" lon="11.559473111856708"><ele>833.0</ele><time>2026-04-19T10:00:30.999Z</time></trkpt><trkpt lat="43.79049653551196" lon="11.559650874458818"><ele>834.25</ele><time>2026-04-19T10:00:31.999Z</time></trkpt><trkpt lat="43.7904676836489" lon="11.559832435296004"><ele>835.5</ele><time>2026-04-19T10:00:32.999Z</time></trkpt><trkpt lat="43.79044327148261" lon="11.560015677234105"><ele>836.75</ele><time>2026-04-19T10:00:33.999Z</time></trkpt><trkpt lat="43.790415345766014" lon="11.56019684839986"><ele>838.0</ele><time>2026-04-19T10:00:34.999Z</time></trkpt><trkpt lat="43.790373798621594" lon="11.560380593244712"><ele>836.75</ele><time>2026-04-19T10:00:35.999Z</time></trkpt><trkpt lat="43.79031377824047" lon="11.560558539110362"><ele>835.5</ele><time>2026-04-19T10:00:36.999Z</time></trkpt><trkpt lat="43.790242388824666" lon="11.560725141764276"><ele>834.25</ele><time>2026-04-19T10:00:37.999Z</time></trkpt><trkpt lat="43.79016977933855" lon="11.560892357733408"><ele>833.0</ele><time>2026-04-19T10:00:38.999Z</time></trkpt><trkpt lat="43.79010479908265" lon="11.561066808357884"><ele>833.25</ele><time>2026-04-19T10:00:39.999Z</time></trkpt><trkpt lat="43.790054547591005" lon="11.561255362239903"><ele>833.5</ele><time>2026-04-19T10:00:40.999Z</time></trkpt><trkpt lat="43.79002206323417" lon="11.561457198943149"><ele>833.75</ele><time>2026-04-19T10:00:41.999Z</time></trkpt><trkpt lat="43.790003327841745" lon="11.56165851085016"><ele>834.0</ele><time>2026-04-19T10:00:42.998Z</time></trkpt><trkpt lat="43.79000086964823" lon="11.561859878477069"><ele>833.0</ele><time>2026-04-19T10:00:43.998Z</time></trkpt><trkpt lat="43.790021524913065" lon="11.562072800553219"><ele>832.0</ele><time>2026-04-19T10:00:44.998Z</time></trkpt><trkpt lat="43.79005955242846" lon="11.562297522299074"><ele>831.0</ele><time>2026-04-19T10:00:45.998Z</time></trkpt><trkpt lat="43.79009567147755" lon="11.56251086986138"><ele>831.0</ele><time>2026-04-19T10:00:46.998Z</time></trkpt><trkpt lat="43.79012160444037" lon="11.562720699906635"><ele>831.0</ele><time>2026-04-19T10:00:47.998Z</time></trkpt><trkpt lat="43.79014095590828" lon="11.562935647575278"><ele>831.0</ele><time>2026-04-19T10:00:48.998Z</time></trkpt><trkpt lat="43.790152434620005" lon="11.563153337581609"><ele>831.0</ele><time>2026-04-19T10:00:49.998Z</time></trkpt><trkpt lat="43.790152276490396" lon="11.56337464779802"><ele>831.0</ele><time>2026-04-19T10:00:50.998Z</time></trkpt><trkpt lat="43.79013506874466" lon="11.563593877761814"><ele>831.0</ele><time>2026-04-19T10:00:51.998Z</time></trkpt><trkpt lat="43.790102703851744" lon="11.563804904693072"><ele>832.3333333333333</ele><time>2026-04-19T10:00:52.998Z</time></trkpt><trkpt lat="43.79006254217098" lon="11.56401181909063"><ele>833.6666666666666</ele><time>2026-04-19T10:00:53.998Z</time></trkpt><trkpt lat="43.79001867654889" lon="11.564214562991893"><ele>835.0</ele><time>2026-04-19T10:00:54.998Z</time></trkpt><trkpt lat="43.789977790690585" lon="11.564408732800386"><ele>837.25</ele><time>2026-04-19T10:00:55.998Z</time></trkpt><trkpt lat="43.78994612345765" lon="11.564585355638451"><ele>839.5</ele><time>2026-04-19T10:00:56.998Z</time></trkpt><trkpt lat="43.789916351453236" lon="11.56474600614962"><ele>841.75</ele><time>2026-04-19T10:00:57.998Z</time></trkpt><trkpt lat="43.789886977828" lon="11.564897020385045"><ele>844.0</ele><time>2026-04-19T10:00:58.998Z</time></trkpt><trkpt lat="43.78985459293945" lon="11.565047769761636"><ele>844.0</ele><time>2026-04-19T10:00:59.998Z</time></trkpt><trkpt lat="43.78982319578681" lon="11.565191453177595"><ele>844.0</ele><time>2026-04-19T10:01:00.998Z</time></trkpt><trkpt lat="43.789775259056235" lon="11.56532260421929"><ele>844.0</ele><time>2026-04-19T10:01:01.998Z</time></trkpt><trkpt lat="43.78970261410965" lon="11.56542374203577"><ele>844.0</ele><time>2026-04-19T10:01:02.998Z</time></trkpt><trkpt lat="43.78961628706122" lon="11.565506720934076"><ele>844.0</ele><time>2026-04-19T10:01:03.998Z</time></trkpt><trkpt lat="43.789531108557924" lon="11.565591441414627"><ele>844.2</ele><time>2026-04-19T10:01:04.998Z</time></trkpt><trkpt lat="43.78945133833366" lon="11.565683408179263"><ele>844.4000000000001</ele><time>2026-04-19T10:01:05.998Z</time></trkpt><trkpt lat="43.78937414013079" lon="11.565779917625198"><ele>844.6</ele><time>2026-04-19T10:01:06.998Z</time></trkpt><trkpt lat="43.78929407968321" lon="11.565875936644213"><ele>844.8</ele><time>2026-04-19T10:01:07.998Z</time></trkpt><trkpt lat="43.789213813462474" lon="11.565973428091315"><ele>845.0</ele><time>2026-04-19T10:01:08.998Z</time></trkpt><trkpt lat="43.78913901873608" lon="11.566079578667527"><ele>848.2</ele><time>2026-04-19T10:01:09.998Z</time></trkpt><trkpt lat="43.789070504208865" lon="11.566201367997877"><ele>851.4</ele><time>2026-04-19T10:01:10.998Z</time></trkpt><trkpt lat="43.78900987369035" lon="11.566331633240642"><ele>854.5999999999999</ele><time>2026-04-19T10:01:11.998Z</time></trkpt><trkpt lat="43.78895595229091" lon="11.566463339482617"><ele>857.8</ele><time>2026-04-19T10:01:12.998Z</time></trkpt><trkpt lat="43.788909985077744" lon="11.5665983425592"><ele>861.0</ele><time>2026-04-19T10:01:13.998Z</time></trkpt><trkpt lat="43.788869073628064" lon="11.566731717244407"><ele>861.0</ele><time>2026-04-19T10:01:14.998Z</time></trkpt><trkpt lat="43.788823006669446" lon="11.566862717326142"><ele>860.9999999999999</ele><time>2026-04-19T10:01:15.998Z</time></trkpt><trkpt lat="43.78876909192525" lon="11.566993715563047"><ele>860.9999999999999</ele><time>2026-04-19T10:01:16.998Z</time></trkpt><trkpt lat="43.78871178273723" lon="11.567122498630267"><ele>861.0</ele><time>2026-04-19T10:01:17.998Z</time></trkpt><trkpt lat="43.788638219264584" lon="11.567234147623077"><ele>861.0</ele><time>2026-04-19T10:01:18.998Z</time></trkpt><trkpt lat="43.78855548505494" lon="11.56734372326458"><ele>858.75</ele><time>2026-04-19T10:01:19.998Z</time></trkpt><trkpt lat="43.78847372573982" lon="11.567451174639716"><ele>856.5</ele><time>2026-04-19T10:01:20.998Z</time></trkpt><trkpt lat="43.78839158098582" lon="11.567564273840903"><ele>854.25</ele><time>2026-04-19T10:01:21.998Z</time></trkpt><trkpt lat="43.78831110971957" lon="11.567680254954057"><ele>852.0</ele><time>2026-04-19T10:01:23Z</time></trkpt><trkpt lat="43.78824283115194" lon="11.56781118856732"><ele>855.75</ele><time>2026-04-19T10:01:24Z</time></trkpt><trkpt lat="43.78820693093707" lon="11.567979160917467"><ele>859.5</ele><time>2026-04-19T10:01:25Z</time></trkpt><trkpt lat="43.7882003965539" lon="11.5681666848329"><ele>863.25</ele><time>2026-04-19T10:01:26Z</time></trkpt><trkpt lat="43.788208501131066" lon="11.568355792067281"><ele>867.0</ele><time>2026-04-19T10:01:27Z</time></trkpt><trkpt lat="43.78821683432925" lon="11.56854004065836"><ele>869.5</ele><time>2026-04-19T10:01:28Z</time></trkpt><trkpt lat="43.78821262043578" lon="11.568720965373105"><ele>872.0</ele><time>2026-04-19T10:01:29Z</time></trkpt><trkpt lat="43.78817753721918" lon="11.568895933671147"><ele>874.5</ele><time>2026-04-19T10:01:30Z</time></trkpt><trkpt lat="43.78816357282821" lon="11.569078698229193"><ele>877.0</ele><time>2026-04-19T10:01:31Z</time></trkpt><trkpt lat="43.78813109484125" lon="11.569248031126262"><ele>877.0</ele><time>2026-04-19T10:01:32Z</time></trkpt><trkpt lat="43.78809867309457" lon="11.569415761320508"><ele>877.0</ele><time>2026-04-19T10:01:33Z</time></trkpt><trkpt lat="43.78807134888348" lon="11.569581771916571"><ele>877.0</ele><time>2026-04-19T10:01:34Z</time></trkpt><trkpt lat="43.788048948581725" lon="11.569746891132482"><ele>877.0</ele><time>2026-04-19T10:01:35Z</time></trkpt><trkpt lat="43.788021776163546" lon="11.569910003275819"><ele>879.75</ele><time>2026-04-19T10:01:36Z</time></trkpt><trkpt lat="43.787986421611365" lon="11.570070921451519"><ele>882.5</ele><time>2026-04-19T10:01:37Z</time></trkpt><trkpt lat="43.78792055286599" lon="11.57021505199964"><ele>885.25</ele><time>2026-04-19T10:01:38Z</time></trkpt><trkpt lat="43.78783012210001" lon="11.57032885552223"><ele>888.0</ele><time>2026-04-19T10:01:39Z</time></trkpt><trkpt lat="43.787735337258546" lon="11.570431352502565"><ele>884.0</ele><time>2026-04-19T10:01:40Z</time></trkpt><trkpt lat="43.78765206190541" lon="11.570545648197925"><ele>880.0</ele><time>2026-04-19T10:01:41Z</time></trkpt><trkpt lat="43.78758926891463" lon="11.570680934073412"><ele>876.0</ele><time>2026-04-19T10:01:42Z</time></trkpt><trkpt lat="43.787535501741154" lon="11.570824728528533"><ele>872.0</ele><time>2026-04-19T10:01:43Z</time></trkpt><trkpt lat="43.787487408105" lon="11.570969869340834"><ele>872.0</ele><time>2026-04-19T10:01:44Z</time></trkpt><trkpt lat="43.78744612066424" lon="11.57111972793442"><ele>872.0</ele><time>2026-04-19T10:01:45Z</time></trkpt><trkpt lat="43.78739989298037" lon="11.571272266166504"><ele>872.0</ele><time>2026-04-19T10:01:46Z</time></trkpt><trkpt lat="43.78735293602347" lon="11.571442092407246"><ele>872.0</ele><time>2026-04-19T10:01:47Z</time></trkpt><trkpt lat="43.78731579826834" lon="11.571633572433097"><ele>874.75</ele><time>2026-04-19T10:01:48Z</time></trkpt><trkpt lat="43.78728273564633" lon="11.571831768776738"><ele>877.5</ele><time>2026-04-19T10:01:49Z</time></trkpt><trkpt lat="43.78724969289224" lon="11.572019523112541"><ele>880.25</ele><time>2026-04-19T10:01:50Z</time></trkpt><trkpt lat="43.787225215187384" lon="11.572205176340333"><ele>883.0</ele><time>2026-04-19T10:01:51Z</time></trkpt><trkpt lat="43.787202502073754" lon="11.572386223507934"><ele>884.5</ele><time>2026-04-19T10:01:52Z</time></trkpt><trkpt lat="43.78718153446473" lon="11.572562091731653"><ele>886.0</ele><time>2026-04-19T10:01:53Z</time></trkpt><trkpt lat="43.787160250909025" lon="11.572724365850748"><ele>887.5</ele><time>2026-04-19T10:01:54Z</time></trkpt><trkpt lat="43.78714056808487" lon="11.572868772508157"><ele>889.0</ele><time>2026-04-19T10:01:55Z</time></trkpt><trkpt lat="43.78710117696327" lon="11.573008932717594"><ele>889.25</ele><time>2026-04-19T10:01:56Z</time></trkpt><trkpt lat="43.78702094975336" lon="11.573137952184423"><ele>889.5</ele><time>2026-04-19T10:01:57Z</time></trkpt><trkpt lat="43.78691590398512" lon="11.573266415379859"><ele>889.75</ele><time>2026-04-19T10:01:58Z</time></trkpt><trkpt lat="43.78680446952637" lon="11.57340052086232"><ele>890.0</ele><time>2026-04-19T10:01:59Z</time></trkpt><trkpt lat="43.78670947336004" lon="11.573539738048703"><ele>893.6666666666667</ele><time>2026-04-19T10:01:59.999Z</time></trkpt><trkpt lat="43.786623322974165" lon="11.573702938129951"><ele>897.3333333333333</ele><time>2026-04-19T10:02:00.999Z</time></trkpt><trkpt lat="43.78652592417378" lon="11.573884794584155"><ele>901.0</ele><time>2026-04-19T10:02:01.999Z</time></trkpt><trkpt lat="43.786431603538915" lon="11.574095883682427"><ele>901.0</ele><time>2026-04-19T10:02:02.999Z</time></trkpt><trkpt lat="43.78632834084348" lon="11.574321467257512"><ele>901.0</ele><time>2026-04-19T10:02:03.999Z</time></trkpt><trkpt lat="43.786215340323245" lon="11.574549444992908"><ele>901.0</ele><time>2026-04-19T10:02:04.999Z</time></trkpt><trkpt lat="43.78607648778557" lon="11.57473094240131"><ele>902.3333333333333</ele><time>2026-04-19T10:02:05.999Z</time></trkpt><trkpt lat="43.78592424658153" lon="11.574877781209741"><ele>903.6666666666667</ele><time>2026-04-19T10:02:06.999Z</time></trkpt><trkpt lat="43.78578358175933" lon="11.575022826693404"><ele>905.0</ele><time>2026-04-19T10:02:07.999Z</time></trkpt><trkpt lat="43.785666992826116" lon="11.575208588779546"><ele>909.3333333333334</ele><time>2026-04-19T10:02:08.999Z</time></trkpt><trkpt lat="43.7855683432916" lon="11.575423633562055"><ele>913.6666666666667</ele><time>2026-04-19T10:02:09.999Z</time></trkpt><trkpt lat="43.7854890337518" lon="11.575630452268895"><ele>918.0</ele><time>2026-04-19T10:02:10.999Z</time></trkpt><trkpt lat="43.78543128223616" lon="11.575839899851209"><ele>918.0</ele><time>2026-04-19T10:02:11.999Z</time></trkpt><trkpt lat="43.785410796941115" lon="11.576067718406543"><ele>918.0</ele><time>2026-04-19T10:02:12.999Z</time></trkpt><trkpt lat="43.78540694972559" lon="11.576310435334317"><ele>918.0</ele><time>2026-04-19T10:02:13.999Z</time></trkpt><trkpt lat="43.785370154110915" lon="11.57657062178042"><ele>920.0</ele><time>2026-04-19T10:02:14.999Z</time></trkpt><trkpt lat="43.785301270009164" lon="11.576838093712485"><ele>922.0</ele><time>2026-04-19T10:02:15.999Z</time></trkpt><trkpt lat="43.78522062866657" lon="11.577108515818756"><ele>924.0</ele><time>2026-04-19T10:02:16.999Z</time></trkpt><trkpt lat="43.78515109741045" lon="11.57736194345615"><ele>924.0</ele><time>2026-04-19T10:02:17.999Z</time></trkpt><trkpt lat="43.7850996368518" lon="11.577610759594137"><ele>924.0</ele><time>2026-04-19T10:02:18.999Z</time></trkpt><trkpt lat="43.78506157970466" lon="11.57783085996648"><ele>924.0</ele><time>2026-04-19T10:02:19.999Z</time></trkpt><trkpt lat="43.78502666009704" lon="11.578014950791003"><ele>928.25</ele><time>2026-04-19T10:02:20.999Z</time></trkpt><trkpt lat="43.7849756831924" lon="11.57817181418794"><ele>932.5</ele><time>2026-04-19T10:02:21.999Z</time></trkpt><trkpt lat="43.78488806838702" lon="11.57830314479744"><ele>936.75</ele><time>2026-04-19T10:02:22.999Z</time></trkpt><trkpt lat="43.78476556112378" lon="11.578402867156383"><ele>941.0</ele><time>2026-04-19T10:02:23.999Z</time></trkpt><trkpt lat="43.78462018722839" lon="11.578464285103484"><ele>941.0</ele><time>2026-04-19T10:02:24.999Z</time></trkpt><trkpt lat="43.784464102456504" lon="11.578492479948704"><ele>941.0</ele><time>2026-04-19T10:02:25.999Z</time></trkpt><trkpt lat="43.784323469962075" lon="11.578537714418454"><ele>941.0</ele><time>2026-04-19T10:02:26.999Z</time></trkpt><trkpt lat="43.78419421331124" lon="11.57863191752709"><ele>941.0</ele><time>2026-04-19T10:02:27.999Z</time></trkpt><trkpt lat="43.784072138444884" lon="11.578766802874803"><ele>943.25</ele><time>2026-04-19T10:02:28.999Z</time></trkpt><trkpt lat="43.78396612489319" lon="11.578919461117847"><ele>945.5</ele><time>2026-04-19T10:02:29.999Z</time></trkpt><trkpt lat="43.78389307884883" lon="11.579096531836672"><ele>947.75</ele><time>2026-04-19T10:02:30.999Z</time></trkpt><trkpt lat="43.783859115937005" lon="11.57926385014761"><ele>950.0</ele><time>2026-04-19T10:02:31.999Z</time></trkpt><trkpt lat="43.78382486067995" lon="11.57939798313452"><ele>950.0</ele><time>2026-04-19T10:02:32.999Z</time></trkpt><trkpt lat="43.783756530459556" lon="11.5794997919177"><ele>950.0</ele><time>2026-04-19T10:02:33.999Z</time></trkpt><trkpt lat="43.78365248371487" lon="11.579561914237713"><ele>950.0</ele><time>2026-04-19T10:02:34.999Z</time></trkpt><trkpt lat="43.783525433813224" lon="11.579612630067656"><ele>950.0</ele><time>2026-04-19T10:02:35.999Z</time></trkpt><trkpt lat="43.78338469946519" lon="11.579686520364762"><ele>953.0</ele><time>2026-04-19T10:02:36.999Z</time></trkpt><trkpt lat="43.78324326033689" lon="11.579767095088023"><ele>956.0</ele><time>2026-04-19T10:02:37.999Z</time></trkpt><trkpt lat="43.78310956146785" lon="11.57987263314213"><ele>959.0</ele><time>2026-04-19T10:02:38.999Z</time></trkpt><trkpt lat="43.78299840096068" lon="11.579997312567253"><ele>959.0</ele><time>2026-04-19T10:02:39.999Z</time></trkpt><trkpt lat="43.78291671739031" lon="11.580161850190454"><ele>959.0</ele><time>2026-04-19T10:02:40.999Z</time></trkpt><trkpt lat="43.78285798796591" lon="11.580363142351253"><ele>959.0</ele><time>2026-04-19T10:02:41.999Z</time></trkpt><trkpt lat="43.78280703551509" lon="11.580585361695265"><ele>958.3333333333334</ele><time>2026-04-19T10:02:42.999Z</time></trkpt><trkpt lat="43.782723060619404" lon="11.5807985139082"><ele>957.6666666666667</ele><time>2026-04-19T10:02:43.999Z</time></trkpt><trkpt lat="43.782600891679984" lon="11.581005168215736"><ele>957.0</ele><time>2026-04-19T10:02:44.999Z</time></trkpt><trkpt lat="43.78247685170091" lon="11.581208786914246"><ele>964.3333333333333</ele><time>2026-04-19T10:02:45.999Z</time></trkpt><trkpt lat="43.7823756821247" lon="11.581390318877457"><ele>971.6666666666666</ele><time>2026-04-19T10:02:46.999Z</time></trkpt><trkpt lat="43.78225783347046" lon="11.581543358657783"><ele>979.0</ele><time>2026-04-19T10:02:47.999Z</time></trkpt><trkpt lat="43.7821054434667" lon="11.581668212258709"><ele>979.0</ele><time>2026-04-19T10:02:48.999Z</time></trkpt><trkpt lat="43.78193803929499" lon="11.58176542327146"><ele>979.0</ele><time>2026-04-19T10:02:49.999Z</time></trkpt><trkpt lat="43.78178355729739" lon="11.581837890721996"><ele>979.0</ele><time>2026-04-19T10:02:50.999Z</time></trkpt><trkpt lat="43.781648416553594" lon="11.58188289837432"><ele>981.5</ele><time>2026-04-19T10:02:51.999Z</time></trkpt><trkpt lat="43.78153378976051" lon="11.581918698313672"><ele>984.0</ele><time>2026-04-19T10:02:52.999Z</time></trkpt><trkpt lat="43.78144527753218" lon="11.581994285370778"><ele>986.5</ele><time>2026-04-19T10:02:53.999Z</time></trkpt><trkpt lat="43.7813795220452" lon="11.582117736911423"><ele>989.0</ele><time>2026-04-19T10:02:54.999Z</time></trkpt><trkpt lat="43.781335374700966" lon="11.582290718672274"><ele>989.0</ele><time>2026-04-19T10:02:55.999Z</time></trkpt><trkpt lat="43.78132018876061" lon="11.582494229353383"><ele>989.0</ele><time>2026-04-19T10:02:56.999Z</time></trkpt><trkpt lat="43.78131194642442" lon="11.582728402452831"><ele>989.0</ele><time>2026-04-19T10:02:57.999Z</time></trkpt><trkpt lat="43.7813009714383" lon="11.582953792493017"><ele>991.2</ele><time>2026-04-19T10:02:58.999Z</time></trkpt><trkpt lat="43.78128836766294" lon="11.583147760865447"><ele>993.4000000000001</ele><time>2026-04-19T10:02:59.998Z</time></trkpt><trkpt lat="43.781272384853985" lon="11.583295576836887"><ele>995.6</ele><time>2026-04-19T10:03:00.998Z</time></trkpt><trkpt lat="43.781231194412634" lon="11.583403329584744"><ele>997.8</ele><time>2026-04-19T10:03:01.998Z</time></trkpt><trkpt lat="43.78115517224237" lon="11.58346834933884"><ele>1000.0</ele><time>2026-04-19T10:03:02.998Z</time></trkpt><trkpt lat="43.781050709201985" lon="11.583496837594733"><ele>999.0</ele><time>2026-04-19T10:03:03.998Z</time></trkpt><trkpt lat="43.780951806323706" lon="11.583524096260748"><ele>998.0</ele><time>2026-04-19T10:03:04.998Z</time></trkpt><trkpt lat="43.78087528856194" lon="11.583602103500732"><ele>997.0</ele><time>2026-04-19T10:03:05.998Z</time></trkpt><trkpt lat="43.78084020374158" lon="11.583718605705295"><ele>996.0</ele><time>2026-04-19T10:03:06.998Z</time></trkpt><trkpt lat="43.78082887669898" lon="11.583873527885137"><ele>995.0</ele><time>2026-04-19T10:03:07.998Z</time></trkpt><trkpt lat="43.78082890999016" lon="11.584042901877618"><ele>995.0</ele><time>2026-04-19T10:03:08.998Z</time></trkpt><trkpt lat="43.78080464041684" lon="11.584210677143098"><ele>995.0</ele><time>2026-04-19T10:03:09.998Z</time></trkpt><trkpt lat="43.78073209123926" lon="11.584364502932628"><ele>995.0</ele><time>2026-04-19T10:03:10.998Z</time></trkpt><trkpt lat="43.780620552883754" lon="11.584498584700231"><ele>995.0</ele><time>2026-04-19T10:03:11.998Z</time></trkpt><trkpt lat="43.78049249744897" lon="11.58465234243163"><ele>999.3333333333334</ele><time>2026-04-19T10:03:12.998Z</time></trkpt><trkpt lat="43.780368279347414" lon="11.584846453553949"><ele>1003.6666666666667</ele><time>2026-04-19T10:03:13.998Z</time></trkpt><trkpt lat="43.78024984281777" lon="11.585030466739305"><ele>1008.0</ele><time>2026-04-19T10:03:14.998Z</time></trkpt><trkpt lat="43.78012821325673" lon="11.58518934858721"><ele>1008.5</ele><time>2026-04-19T10:03:15.998Z</time></trkpt><trkpt lat="43.77999523927204" lon="11.585316175466227"><ele>1009.0</ele><time>2026-04-19T10:03:16.998Z</time></trkpt><trkpt lat="43.77985500726411" lon="11.585406800365284"><ele>1009.5</ele><time>2026-04-19T10:03:17.998Z</time></trkpt><trkpt lat="43.7797347969546" lon="11.585465389987379"><ele>1010.0</ele><time>2026-04-19T10:03:18.998Z</time></trkpt><trkpt lat="43.77965359027959" lon="11.58554773751736"><ele>1011.4</ele><time>2026-04-19T10:03:19.998Z</time></trkpt><trkpt lat="43.77960290245415" lon="11.585668043887317"><ele>1012.8</ele><time>2026-04-19T10:03:20.998Z</time></trkpt><trkpt lat="43.77958188798858" lon="11.58581821616686"><ele>1014.2</ele><time>2026-04-19T10:03:21.998Z</time></trkpt><trkpt lat="43.7795839156217" lon="11.585984726602803"><ele>1015.6</ele><time>2026-04-19T10:03:22.998Z</time></trkpt><trkpt lat="43.779559334255524" lon="11.58613957817544"><ele>1017.0</ele><time>2026-04-19T10:03:23.998Z</time></trkpt><trkpt lat="43.77948753337619" lon="11.586289915971504"><ele>1017.0</ele><time>2026-04-19T10:03:24.998Z</time></trkpt><trkpt lat="43.7793805424409" lon="11.586429002850842"><ele>1017.0</ele><time>2026-04-19T10:03:25.998Z</time></trkpt><trkpt lat="43.77925995782002" lon="11.586554413051442"><ele>1017.0</ele><time>2026-04-19T10:03:26.998Z</time></trkpt><trkpt lat="43.77915010262087" lon="11.586712486738895"><ele>1016.0</ele><time>2026-04-19T10:03:28Z</time></trkpt><trkpt lat="43.779055506907014" lon="11.586898448020534"><ele>1015.0</ele><time>2026-04-19T10:03:29Z</time></trkpt><trkpt lat="43.77898700176608" lon="11.587099953467334"><ele>1014.0</ele><time>2026-04-19T10:03:30Z</time></trkpt><trkpt lat="43.77894935635997" lon="11.587312586634265"><ele>1014.0</ele><time>2026-04-19T10:03:31Z</time></trkpt><trkpt lat="43.778930596666626" lon="11.587558002074772"><ele>1014.0</ele><time>2026-04-19T10:03:32Z</time></trkpt><trkpt lat="43.77892789043975" lon="11.587817287693962"><ele>1014.0</ele><time>2026-04-19T10:03:33Z</time></trkpt><trkpt lat="43.77893780505988" lon="11.588054875735603"><ele>1012.6666666666667</ele><time>2026-04-19T10:03:34Z</time></trkpt><trkpt lat="43.77895042158604" lon="11.588275127883392"><ele>1011.3333333333334</ele><time>2026-04-19T10:03:35Z</time></trkpt><trkpt lat="43.77894801122084" lon="11.588494356581736"><ele>1010.0</ele><time>2026-04-19T10:03:36Z</time></trkpt><trkpt lat="43.77891568463516" lon="11.588713592269544"><ele>1008.3333333333334</ele><time>2026-04-19T10:03:37Z</time></trkpt><trkpt lat="43.77885902723103" lon="11.588923233806778"><ele>1006.6666666666667</ele><time>2026-04-19T10:03:38Z</time></trkpt><trkpt lat="43.77879945581306" lon="11.58910553344629"><ele>1005.0</ele><time>2026-04-19T10:03:39Z</time></trkpt><trkpt lat="43.77871234575696" lon="11.5892769507136"><ele>1005.0</ele><time>2026-04-19T10:03:40Z</time></trkpt><trkpt lat="43.77859291758149" lon="11.589441676316467"><ele>1005.0</ele><time>2026-04-19T10:03:41Z</time></trkpt><trkpt lat="43.77846718299101" lon="11.589576767488714"><ele>1005.0</ele><time>2026-04-19T10:03:42Z</time></trkpt><trkpt lat="43.77836170675406" lon="11.589708961166536"><ele>1009.0</ele><time>2026-04-19T10:03:43Z</time></trkpt><trkpt lat="43.77829229790348" lon="11.589866336372602"><ele>1013.0</ele><time>2026-04-19T10:03:44Z</time></trkpt><trkpt lat="43.77824534333642" lon="11.590060820843226"><ele>1017.0</ele><time>2026-04-19T10:03:45Z</time></trkpt><trkpt lat="43.778217129213274" lon="11.590277660211688"><ele>1021.0</ele><time>2026-04-19T10:03:46Z</time></trkpt><trkpt lat="43.77822099237556" lon="11.590519275152232"><ele>1021.0</ele><time>2026-04-19T10:03:47Z</time></trkpt><trkpt lat="43.778251212573394" lon="11.590779636664617"><ele>1021.0</ele><time>2026-04-19T10:03:48Z</time></trkpt><trkpt lat="43.778278484783975" lon="11.591024355258405"><ele>1021.0</ele><time>2026-04-19T10:03:49Z</time></trkpt><trkpt lat="43.778306698971896" lon="11.591248039333111"><ele>1021.0</ele><time>2026-04-19T10:03:50Z</time></trkpt><trkpt lat="43.77831655218749" lon="11.591460857888883"><ele>1021.0</ele><time>2026-04-19T10:03:51Z</time></trkpt><trkpt lat="43.77831365462996" lon="11.59168051471566"><ele>1021.0</ele><time>2026-04-19T10:03:52Z</time></trkpt><trkpt lat="43.77825534063129" lon="11.591896120034319"><ele>1021.75</ele><time>2026-04-19T10:03:53Z</time></trkpt><trkpt lat="43.778190928237926" lon="11.592077356950403"><ele>1022.5</ele><time>2026-04-19T10:03:54Z</time></trkpt><trkpt lat="43.77815271541197" lon="11.59224436332544"><ele>1023.25</ele><time>2026-04-19T10:03:55Z</time></trkpt><trkpt lat="43.778153354483656" lon="11.592404400737005"><ele>1024.0</ele><time>2026-04-19T10:03:56Z</time></trkpt><trkpt lat="43.77819053649366" lon="11.592537766009423"><ele>1024.0</ele><time>2026-04-19T10:03:57Z</time></trkpt><trkpt lat="43.778257890989174" lon="11.592625833284936"><ele>1024.0</ele><time>2026-04-19T10:03:58Z</time></trkpt><trkpt lat="43.77834027789456" lon="11.592691745225983"><ele>1024.0</ele><time>2026-04-19T10:03:59Z</time></trkpt><trkpt lat="43.77845294392857" lon="11.592652971227073"><ele>1024.0</ele><time>2026-04-19T10:04:00Z</time></trkpt><trkpt lat="43.77856570246399" lon="11.592587868828627"><ele>1024.0</ele><time>2026-04-19T10:04:01Z</time></trkpt><trkpt lat="43.77869433687764" lon="11.592530518193284"><ele>1023.5</ele><time>2026-04-19T10:04:02Z</time></trkpt><trkpt lat="43.7788185188092" lon="11.59244404483288"><ele>1023.0</ele><time>2026-04-19T10:04:03Z</time></trkpt><trkpt lat="43.77895553412757" lon="11.592400039755233"><ele>1022.5</ele><time>2026-04-19T10:04:04Z</time></trkpt><trkpt lat="43.77910264737926" lon="11.592388765220253"><ele>1022.0</ele><time>2026-04-19T10:04:05Z</time></trkpt><trkpt lat="43.77924844746661" lon="11.592443171642145"><ele>1021.25</ele><time>2026-04-19T10:04:06Z</time></trkpt><trkpt lat="43.77938810195963" lon="11.592489832787518"><ele>1020.5</ele><time>2026-04-19T10:04:07Z</time></trkpt><trkpt lat="43.779499821332" lon="11.592598567921636"><ele>1019.75</ele><time>2026-04-19T10:04:08Z</time></trkpt><trkpt lat="43.77958213156497" lon="11.592755972410329"><ele>1019.0</ele><time>2026-04-19T10:04:09Z</time></trkpt><trkpt lat="43.77963395007427" lon="11.59293794709322"><ele>1019.0</ele><time>2026-04-19T10:04:10Z</time></trkpt><trkpt lat="43.77964617972741" lon="11.593137892445833"><ele>1019.0</ele><time>2026-04-19T10:04:11Z</time></trkpt><trkpt lat="43.7796234479685" lon="11.593348982647386"><ele>1019.0</ele><time>2026-04-19T10:04:12Z</time></trkpt><trkpt lat="43.779591147717646" lon="11.593574943054335"><ele>1018.0</ele><time>2026-04-19T10:04:13Z</time></trkpt><trkpt lat="43.77958054949503" lon="11.593814622912843"><ele>1017.0</ele><time>2026-04-19T10:04:14Z</time></trkpt><trkpt lat="43.77959752157084" lon="11.59407044602765"><ele>1016.0</ele><time>2026-04-19T10:04:15Z</time></trkpt><trkpt lat="43.779625295683374" lon="11.594298606236313"><ele>1016.5</ele><time>2026-04-19T10:04:15.999Z</time></trkpt><trkpt lat="43.77965103249835" lon="11.59450701017932"><ele>1017.0</ele><time>2026-04-19T10:04:16.999Z</time></trkpt><trkpt lat="43.77967232741236" lon="11.59469623960458"><ele>1017.5</ele><time>2026-04-19T10:04:17.999Z</time></trkpt><trkpt lat="43.77969350945066" lon="11.594870840939235"><ele>1018.0</ele><time>2026-04-19T10:04:18.999Z</time></trkpt><trkpt lat="43.779730102627205" lon="11.595026513206957"><ele>1018.0</ele><time>2026-04-19T10:04:19.999Z</time></trkpt><trkpt lat="43.77978889588001" lon="11.595149068090642"><ele>1018.0</ele><time>2026-04-19T10:04:20.999Z</time></trkpt><trkpt lat="43.77985144893096" lon="11.595250301800451"><ele>1018.0</ele><time>2026-04-19T10:04:21.999Z</time></trkpt><trkpt lat="43.779915580612375" lon="11.595323199576413"><ele>1018.0</ele><time>2026-04-19T10:04:22.999Z</time></trkpt><trkpt lat="43.779975653508224" lon="11.595398939518832"><ele>1018.0</ele><time>2026-04-19T10:04:23.999Z</time></trkpt><trkpt lat="43.780033787401514" lon="11.595491703741686"><ele>1017.8333333333333</ele><time>2026-04-19T10:04:24.999Z</time></trkpt><trkpt lat="43.7801025291446" lon="11.595556121016793"><ele>1017.6666666666666</ele><time>2026-04-19T10:04:25.999Z</time></trkpt><trkpt lat="43.78016899363973" lon="11.59562259771105"><ele>1017.5</ele><time>2026-04-19T10:04:26.999Z</time></trkpt><trkpt lat="43.780244931108584" lon="11.595671707581594"><ele>1017.3333333333333</ele><time>2026-04-19T10:04:27.999Z</time></trkpt><trkpt lat="43.78029393265814" lon="11.5957496183908"><ele>1017.1666666666666</ele><time>2026-04-19T10:04:28.999Z</time></trkpt><trkpt lat="43.78034821642777" lon="11.595806399737722"><ele>1017.0</ele><time>2026-04-19T10:04:29.999Z</time></trkpt><trkpt lat="43.78040362552905" lon="11.5958687412637"><ele>1017.0</ele><time>2026-04-19T10:04:30.999Z</time></trkpt><trkpt lat="43.78045944335522" lon="11.595935179627972"><ele>1017.0</ele><time>2026-04-19T10:04:31.999Z</time></trkpt><trkpt lat="43.78051596258341" lon="11.596004954811"><ele>1017.0</ele><time>2026-04-19T10:04:32.999Z</time></trkpt><trkpt lat="43.78056572443208" lon="11.596066387961724"><ele>1017.0</ele><time>2026-04-19T10:04:33.999Z</time></trkpt><trkpt lat="43.780655212816924" lon="11.596176869291366"><ele>1017.0</ele><time>2026-04-19T10:04:35.999Z</time></trkpt><trkpt lat="43.78070875933108" lon="11.596228753207841"><ele>1017.0</ele><time>2026-04-19T10:04:36.999Z</time></trkpt><trkpt lat="43.78076382868524" lon="11.596288725481575"><ele>1018.0</ele><time>2026-04-19T10:04:37.999Z</time></trkpt><trkpt lat="43.78083024892416" lon="11.596356985777117"><ele>1019.0</ele><time>2026-04-19T10:04:38.999Z</time></trkpt><trkpt lat="43.78090925625602" lon="11.596426684797141"><ele>1020.0</ele><time>2026-04-19T10:04:39.999Z</time></trkpt><trkpt lat="43.78099226898752" lon="11.596484924148468"><ele>1021.0</ele><time>2026-04-19T10:04:40.999Z</time></trkpt><trkpt lat="43.78104750077278" lon="11.596593915695108"><ele>1022.0</ele><time>2026-04-19T10:04:41.999Z</time></trkpt><trkpt lat="43.7810984898433" lon="11.596708481642953"><ele>1022.0</ele><time>2026-04-19T10:04:42.999Z</time></trkpt><trkpt lat="43.781162540081" lon="11.596815793715853"><ele>1022.0</ele><time>2026-04-19T10:04:43.999Z</time></trkpt><trkpt lat="43.78121512016317" lon="11.596933292195253"><ele>1022.0</ele><time>2026-04-19T10:04:44.999Z</time></trkpt><trkpt lat="43.78128097730357" lon="11.597051127172243"><ele>1022.0</ele><time>2026-04-19T10:04:45.999Z</time></trkpt><trkpt lat="43.781342104259785" lon="11.597183045974297"><ele>1022.0</ele><time>2026-04-19T10:04:46.999Z</time></trkpt><trkpt lat="43.78142420337318" lon="11.597299410062792"><ele>1022.75</ele><time>2026-04-19T10:04:47.999Z</time></trkpt><trkpt lat="43.78152823284287" lon="11.597381803023168"><ele>1023.5</ele><time>2026-04-19T10:04:48.999Z</time></trkpt><trkpt lat="43.781627836855115" lon="11.597474070322537"><ele>1024.25</ele><time>2026-04-19T10:04:49.999Z</time></trkpt><trkpt lat="43.781735496535845" lon="11.597560090263844"><ele>1025.0</ele><time>2026-04-19T10:04:50.999Z</time></trkpt><trkpt lat="43.781847231683635" lon="11.597639100657657"><ele>1028.25</ele><time>2026-04-19T10:04:51.999Z</time></trkpt><trkpt lat="43.78195931142792" lon="11.597711094022824"><ele>1031.5</ele><time>2026-04-19T10:04:52.999Z</time></trkpt><trkpt lat="43.78207247735931" lon="11.597780434749215"><ele>1034.75</ele><time>2026-04-19T10:04:53.999Z</time></trkpt><trkpt lat="43.78218344030186" lon="11.597860162421869"><ele>1038.0</ele><time>2026-04-19T10:04:54.999Z</time></trkpt><trkpt lat="43.78229197746207" lon="11.597943737499087"><ele>1038.0</ele><time>2026-04-19T10:04:55.999Z</time></trkpt><trkpt lat="43.78239638500485" lon="11.598037038749514"><ele>1038.0</ele><time>2026-04-19T10:04:56.999Z</time></trkpt><trkpt lat="43.7824901666857" lon="11.598144960784277"><ele>1038.0</ele><time>2026-04-19T10:04:57.999Z</time></trkpt><trkpt lat="43.7825727105066" lon="11.598266707428706"><ele>1038.0</ele><time>2026-04-19T10:04:58.999Z</time></trkpt><trkpt lat="43.782642633487114" lon="11.598401713223558"><ele>1041.25</ele><time>2026-04-19T10:04:59.999Z</time></trkpt><trkpt lat="43.78270397077542" lon="11.598546302777226"><ele>1044.5</ele><time>2026-04-19T10:05:00.999Z</time></trkpt><trkpt lat="43.782760051671026" lon="11.598694004188387"><ele>1047.75</ele><time>2026-04-19T10:05:01.999Z</time></trkpt><trkpt lat="43.78280677348963" lon="11.598839245115906"><ele>1051.0</ele><time>2026-04-19T10:05:02.999Z</time></trkpt><trkpt lat="43.78284107060742" lon="11.598983711273656"><ele>1051.0</ele><time>2026-04-19T10:05:03.999Z</time></trkpt><trkpt lat="43.78286295288135" lon="11.599131904666176"><ele>1051.0</ele><time>2026-04-19T10:05:04.999Z</time></trkpt><trkpt lat="43.78287481583222" lon="11.599276524981004"><ele>1051.0</ele><time>2026-04-19T10:05:05.999Z</time></trkpt><trkpt lat="43.78288404337667" lon="11.599416986556898"><ele>1051.0</ele><time>2026-04-19T10:05:06.999Z</time></trkpt><trkpt lat="43.78289253699351" lon="11.599555301542274"><ele>1051.0</ele><time>2026-04-19T10:05:07.999Z</time></trkpt><trkpt lat="43.782900917088966" lon="11.599691836889857"><ele>1052.0</ele><time>2026-04-19T10:05:08.999Z</time></trkpt><trkpt lat="43.7829099238068" lon="11.59982348750738"><ele>1053.0</ele><time>2026-04-19T10:05:09.999Z</time></trkpt><trkpt lat="43.78291890463828" lon="11.599953597025856"><ele>1054.0</ele><time>2026-04-19T10:05:10.999Z</time></trkpt><trkpt lat="43.78292712643554" lon="11.600082579265269"><ele>1055.0</ele><time>2026-04-19T10:05:11.999Z</time></trkpt><trkpt lat="43.782933397412016" lon="11.6002117083787"><ele>1056.0</ele><time>2026-04-19T10:05:12.999Z</time></trkpt><trkpt lat="43.78293696488078" lon="11.600343422325784"><ele>1058.0</ele><time>2026-04-19T10:05:13.999Z</time></trkpt><trkpt lat="43.78294598322017" lon="11.600483069976647"><ele>1060.0</ele><time>2026-04-19T10:05:14.999Z</time></trkpt><trkpt lat="43.78295122359757" lon="11.600637271905018"><ele>1062.0</ele><time>2026-04-19T10:05:15.998Z</time></trkpt><trkpt lat="43.78294354884428" lon="11.600795095583766"><ele>1064.0</ele><time>2026-04-19T10:05:16.998Z</time></trkpt><trkpt lat="43.78292871351199" lon="11.600948794424504"><ele>1066.0</ele><time>2026-04-19T10:05:17.998Z</time></trkpt><trkpt lat="43.78291271487782" lon="11.601093737705913"><ele>1066.3333333333333</ele><time>2026-04-19T10:05:18.998Z</time></trkpt><trkpt lat="43.782899497189725" lon="11.601228138964853"><ele>1066.6666666666665</ele><time>2026-04-19T10:05:19.998Z</time></trkpt><trkpt lat="43.78288777548149" lon="11.60135362452388"><ele>1067.0</ele><time>2026-04-19T10:05:20.998Z</time></trkpt><trkpt lat="43.7828872988704" lon="11.601473590750581"><ele>1067.3333333333333</ele><time>2026-04-19T10:05:21.998Z</time></trkpt><trkpt lat="43.78289936940319" lon="11.601587430072895"><ele>1067.6666666666667</ele><time>2026-04-19T10:05:22.998Z</time></trkpt><trkpt lat="43.78292642962305" lon="11.601695048498417"><ele>1068.0</ele><time>2026-04-19T10:05:23.998Z</time></trkpt><trkpt lat="43.78296945178826" lon="11.601795765428419"><ele>1068.0</ele><time>2026-04-19T10:05:24.998Z</time></trkpt><trkpt lat="43.78303002858004" lon="11.601890543106158"><ele>1068.0</ele><time>2026-04-19T10:05:25.998Z</time></trkpt><trkpt lat="43.78309974354171" lon="11.601976559920764"><ele>1068.0</ele><time>2026-04-19T10:05:26.998Z</time></trkpt><trkpt lat="43.783179692461005" lon="11.602044563999561"><ele>1068.0</ele><time>2026-04-19T10:05:27.998Z</time></trkpt><trkpt lat="43.78327532359706" lon="11.602099046213006"><ele>1068.0</ele><time>2026-04-19T10:05:28.998Z</time></trkpt><trkpt lat="43.78337500629186" lon="11.602154210800752"><ele>1069.6</ele><time>2026-04-19T10:05:29.998Z</time></trkpt><trkpt lat="43.783471706694314" lon="11.602231625345642"><ele>1071.1999999999998</ele><time>2026-04-19T10:05:30.998Z</time></trkpt><trkpt lat="43.78354058438873" lon="11.602338722752068"><ele>1072.8</ele><time>2026-04-19T10:05:31.998Z</time></trkpt><trkpt lat="43.7835855654274" lon="11.60243913462439"><ele>1074.3999999999999</ele><time>2026-04-19T10:05:32.998Z</time></trkpt><trkpt lat="43.78361157407595" lon="11.602521406187654"><ele>1076.0</ele><time>2026-04-19T10:05:34Z</time></trkpt><trkpt lat="43.78364033331078" lon="11.602633475979255"><ele>1076.0</ele><time>2026-04-19T10:05:36Z</time></trkpt><trkpt lat="43.783666164087364" lon="11.602718242424544"><ele>1076.0</ele><time>2026-04-19T10:05:39Z</time></trkpt><trkpt lat="43.783712704109234" lon="11.602654812134391"><ele>1076.0</ele><time>2026-04-19T10:07:44Z</time></trkpt><trkpt lat="43.78365490014705" lon="11.602563010247847"><ele>1076.0</ele><time>2026-04-19T10:07:46Z</time></trkpt><trkpt lat="43.783614710191394" lon="11.602486858594888"><ele>1076.0</ele><time>2026-04-19T10:07:47Z</time></trkpt><trkpt lat="43.78357276566457" lon="11.60240738113317"><ele>1076.0</ele><time>2026-04-19T10:07:48Z</time></trkpt><trkpt lat="43.783527888429084" lon="11.60232234649028"><ele>1076.0</ele><time>2026-04-19T10:07:49Z</time></trkpt><trkpt lat="43.78347907285733" lon="11.602237174096725"><ele>1074.3999999999999</ele><time>2026-04-19T10:07:50Z</time></trkpt><trkpt lat="43.78343425071015" lon="11.602147852944455"><ele>1072.8</ele><time>2026-04-19T10:07:51Z</time></trkpt><trkpt lat="43.783321145864505" lon="11.602068548536351"><ele>1071.1999999999998</ele><time>2026-04-19T10:07:52Z</time></trkpt><trkpt lat="43.78323218768171" lon="11.602022760527346"><ele>1069.6</ele><time>2026-04-19T10:07:53Z</time></trkpt><trkpt lat="43.78315741922255" lon="11.601978111098045"><ele>1068.0</ele><time>2026-04-19T10:07:54Z</time></trkpt><trkpt lat="43.78309293641544" lon="11.60191647731823"><ele>1068.0</ele><time>2026-04-19T10:07:55Z</time></trkpt><trkpt lat="43.78304110374911" lon="11.601845193675281"><ele>1068.0</ele><time>2026-04-19T10:07:56Z</time></trkpt><trkpt lat="43.7830052620558" lon="11.601772909629721"><ele>1068.0</ele><time>2026-04-19T10:07:57Z</time></trkpt><trkpt lat="43.78295718146454" lon="11.601642664729116"><ele>1068.0</ele><time>2026-04-19T10:07:59Z</time></trkpt><trkpt lat="43.782915945806224" lon="11.60157332724468"><ele>1068.0</ele><time>2026-04-19T10:08:01Z</time></trkpt><trkpt lat="43.78283155280797" lon="11.601491632683231"><ele>1068.0</ele><time>2026-04-19T10:08:12Z</time></trkpt><trkpt lat="43.78279845848753" lon="11.601607862273372"><ele>1068.0000000000002</ele><time>2026-04-19T10:08:18Z</time></trkpt><trkpt lat="43.782779574122905" lon="11.60151581344794"><ele>1068.0</ele><time>2026-04-19T10:11:17.998Z</time></trkpt><trkpt lat="43.78275510795194" lon="11.60143104661665"><ele>1068.0</ele><time>2026-04-19T10:11:24.998Z</time></trkpt><trkpt lat="43.78270953956276" lon="11.601335944139572"><ele>1068.0</ele><time>2026-04-19T10:12:05Z</time></trkpt><trkpt lat="43.78263309455191" lon="11.601281429855245"><ele>1068.0</ele><time>2026-04-19T10:13:18.998Z</time></trkpt><trkpt lat="43.78270046469898" lon="11.60127612119975"><ele>1068.0000000000002</ele><time>2026-04-19T10:15:54.998Z</time></trkpt><trkpt lat="43.78263436897129" lon="11.601248030436697"><ele>1068.0</ele><time>2026-04-19T10:16:04Z</time></trkpt><trkpt lat="43.782705131648164" lon="11.601231167323187"><ele>1068.0000000000002</ele><time>2026-04-19T10:16:16Z</time></trkpt><trkpt lat="43.78270362375075" lon="11.60113183914292"><ele>1068.0</ele><time>2026-04-19T10:16:23Z</time></trkpt><trkpt lat="43.782643986663004" lon="11.601098416401669"><ele>1068.0</ele><time>2026-04-19T10:16:29Z</time></trkpt><trkpt lat="43.78262414309333" lon="11.601184935321115"><ele>1068.0</ele><time>2026-04-19T10:20:55Z</time></trkpt><trkpt lat="43.78265813431643" lon="11.601260029315487"><ele>1068.0</ele><time>2026-04-19T10:21:11Z</time></trkpt><trkpt lat="43.78272583735873" lon="11.601278396137221"><ele>1068.0000000000002</ele><time>2026-04-19T10:21:16.999Z</time></trkpt><trkpt lat="43.782750940147345" lon="11.601360574411938"><ele>1068.0</ele><time>2026-04-19T10:21:22.999Z</time></trkpt><trkpt lat="43.78275829252692" lon="11.601461096961502"><ele>1068.0</ele><time>2026-04-19T10:21:29.999Z</time></trkpt><trkpt lat="43.78277722290763" lon="11.601545419689876"><ele>1068.0</ele><time>2026-04-19T10:21:35.999Z</time></trkpt><trkpt lat="43.78277640597562" lon="11.601639785010427"><ele>1068.0</ele><time>2026-04-19T10:21:46.999Z</time></trkpt><trkpt lat="43.78289498704147" lon="11.601642957779596"><ele>1068.0</ele><time>2026-04-19T10:31:16Z</time></trkpt><trkpt lat="43.78294378059671" lon="11.60169940112352"><ele>1068.0</ele><time>2026-04-19T10:31:17Z</time></trkpt><trkpt lat="43.78298073825727" lon="11.601780870957128"><ele>1068.0</ele><time>2026-04-19T10:31:18Z</time></trkpt><trkpt lat="43.7830146569691" lon="11.601868458642345"><ele>1068.0</ele><time>2026-04-19T10:31:19Z</time></trkpt><trkpt lat="43.78306230751006" lon="11.601950647793409"><ele>1068.0</ele><time>2026-04-19T10:31:20Z</time></trkpt><trkpt lat="43.78313229636485" lon="11.60201666081673"><ele>1068.0</ele><time>2026-04-19T10:31:21Z</time></trkpt><trkpt lat="43.783226005339124" lon="11.602067510775807"><ele>1068.0</ele><time>2026-04-19T10:31:22Z</time></trkpt><trkpt lat="43.78332527405689" lon="11.602108590148944"><ele>1068.0</ele><time>2026-04-19T10:31:23Z</time></trkpt><trkpt lat="43.78342702601044" lon="11.602161082243615"><ele>1070.0</ele><time>2026-04-19T10:31:24Z</time></trkpt><trkpt lat="43.78350764729428" lon="11.602279976021816"><ele>1072.0</ele><time>2026-04-19T10:31:24.999Z</time></trkpt><trkpt lat="43.78359366261259" lon="11.602412211066484"><ele>1074.0</ele><time>2026-04-19T10:31:25.999Z</time></trkpt><trkpt lat="43.783660721812765" lon="11.602573469213871"><ele>1076.0</ele><time>2026-04-19T10:31:26.999Z</time></trkpt><trkpt lat="43.78373731981852" lon="11.60273044155877"><ele>1071.3333333333335</ele><time>2026-04-19T10:31:27.999Z</time></trkpt><trkpt lat="43.783822309606016" lon="11.602890286380898"><ele>1066.6666666666667</ele><time>2026-04-19T10:31:28.999Z</time></trkpt><trkpt lat="43.78391045422294" lon="11.603062768991865"><ele>1062.0</ele><time>2026-04-19T10:31:29.999Z</time></trkpt><trkpt lat="43.78400524191043" lon="11.603243507682151"><ele>1062.0</ele><time>2026-04-19T10:31:30.999Z</time></trkpt><trkpt lat="43.78410307330983" lon="11.603419297370593"><ele>1062.0</ele><time>2026-04-19T10:31:31.999Z</time></trkpt><trkpt lat="43.78419088829752" lon="11.603583310557983"><ele>1062.0</ele><time>2026-04-19T10:31:32.999Z</time></trkpt><trkpt lat="43.78426564187024" lon="11.603724009545763"><ele>1062.0</ele><time>2026-04-19T10:31:33.999Z</time></trkpt><trkpt lat="43.784339260948066" lon="11.603839287309148"><ele>1060.25</ele><time>2026-04-19T10:31:34.999Z</time></trkpt><trkpt lat="43.78442887652804" lon="11.603931930706253"><ele>1058.5</ele><time>2026-04-19T10:31:35.999Z</time></trkpt><trkpt lat="43.78454127887265" lon="11.603991372198234"><ele>1056.75</ele><time>2026-04-19T10:31:36.999Z</time></trkpt><trkpt lat="43.78467221127744" lon="11.604038029725611"><ele>1055.0</ele><time>2026-04-19T10:31:37.999Z</time></trkpt><trkpt lat="43.7848144730945" lon="11.6040572947329"><ele>1055.0</ele><time>2026-04-19T10:31:38.999Z</time></trkpt><trkpt lat="43.78496196486652" lon="11.604083842871198"><ele>1055.0</ele><time>2026-04-19T10:31:39.999Z</time></trkpt><trkpt lat="43.78510076425357" lon="11.60412543631289"><ele>1055.0</ele><time>2026-04-19T10:31:40.999Z</time></trkpt><trkpt lat="43.7852216181598" lon="11.604176003579937"><ele>1055.0</ele><time>2026-04-19T10:31:41.999Z</time></trkpt><trkpt lat="43.785325611552786" lon="11.604230038559537"><ele>1055.0</ele><time>2026-04-19T10:31:42.999Z</time></trkpt><trkpt lat="43.78541918114817" lon="11.604295890224527"><ele>1055.0</ele><time>2026-04-19T10:31:43.999Z</time></trkpt><trkpt lat="43.785495111375795" lon="11.604375752336221"><ele>1055.0</ele><time>2026-04-19T10:31:44.999Z</time></trkpt><trkpt lat="43.785525007361834" lon="11.604502930480269"><ele>1055.0</ele><time>2026-04-19T10:31:45.999Z</time></trkpt><trkpt lat="43.78552108723519" lon="11.604655144975736"><ele>1055.0</ele><time>2026-04-19T10:31:46.999Z</time></trkpt><trkpt lat="43.78548271020904" lon="11.60481470463238"><ele>1055.0</ele><time>2026-04-19T10:31:47.999Z</time></trkpt><trkpt lat="43.78540546780686" lon="11.6049685931724"><ele>1055.0</ele><time>2026-04-19T10:31:48.999Z</time></trkpt><trkpt lat="43.78532215689465" lon="11.60514138289436"><ele>1055.0</ele><time>2026-04-19T10:31:49.999Z</time></trkpt><trkpt lat="43.785239141044585" lon="11.605332145618872"><ele>1055.0</ele><time>2026-04-19T10:31:50.999Z</time></trkpt><trkpt lat="43.78514929548807" lon="11.605540490558568"><ele>1050.6666666666667</ele><time>2026-04-19T10:31:51.999Z</time></trkpt><trkpt lat="43.78505602919422" lon="11.605750518897135"><ele>1046.3333333333333</ele><time>2026-04-19T10:31:52.999Z</time></trkpt><trkpt lat="43.78496288820074" lon="11.605955671971845"><ele>1042.0</ele><time>2026-04-19T10:31:53.999Z</time></trkpt><trkpt lat="43.78488062555214" lon="11.606142702057879"><ele>1042.0</ele><time>2026-04-19T10:31:54.999Z</time></trkpt><trkpt lat="43.78481475345299" lon="11.606340506057808"><ele>1042.0</ele><time>2026-04-19T10:31:55.999Z</time></trkpt><trkpt lat="43.784776411782296" lon="11.606563093679586"><ele>1042.0</ele><time>2026-04-19T10:31:56.999Z</time></trkpt><trkpt lat="43.784766725478775" lon="11.60680537323833"><ele>1040.0</ele><time>2026-04-19T10:31:57.999Z</time></trkpt><trkpt lat="43.78478364855506" lon="11.607057682819663"><ele>1038.0</ele><time>2026-04-19T10:31:58.999Z</time></trkpt><trkpt lat="43.78482236675764" lon="11.607320454883252"><ele>1036.0</ele><time>2026-04-19T10:31:59.999Z</time></trkpt><trkpt lat="43.78486862227773" lon="11.60758262505151"><ele>1035.0</ele><time>2026-04-19T10:32:00.999Z</time></trkpt><trkpt lat="43.78491564952031" lon="11.607866101593174"><ele>1034.0</ele><time>2026-04-19T10:32:01.999Z</time></trkpt><trkpt lat="43.78496596452644" lon="11.608166639791408"><ele>1033.0</ele><time>2026-04-19T10:32:02.999Z</time></trkpt><trkpt lat="43.7850175618779" lon="11.60847253861017"><ele>1033.5</ele><time>2026-04-19T10:32:03.999Z</time></trkpt><trkpt lat="43.78506844645837" lon="11.60877711031667"><ele>1034.0</ele><time>2026-04-19T10:32:04.999Z</time></trkpt><trkpt lat="43.785118599125845" lon="11.609080115642731"><ele>1034.0</ele><time>2026-04-19T10:32:05.999Z</time></trkpt><trkpt lat="43.78516932793996" lon="11.609377160152306"><ele>1034.0</ele><time>2026-04-19T10:32:06.999Z</time></trkpt><trkpt lat="43.78521691845605" lon="11.609660842615822"><ele>1034.0</ele><time>2026-04-19T10:32:07.999Z</time></trkpt><trkpt lat="43.78526129217733" lon="11.609936661758942"><ele>1030.3333333333335</ele><time>2026-04-19T10:32:08.999Z</time></trkpt><trkpt lat="43.78530070686949" lon="11.610194353444871"><ele>1026.6666666666667</ele><time>2026-04-19T10:32:09.999Z</time></trkpt><trkpt lat="43.7853445844385" lon="11.610439384619667"><ele>1023.0</ele><time>2026-04-19T10:32:10.999Z</time></trkpt><trkpt lat="43.785418607853885" lon="11.61067579205468"><ele>1022.6666666666667</ele><time>2026-04-19T10:32:11.999Z</time></trkpt><trkpt lat="43.785523466089174" lon="11.610900384070117"><ele>1022.3333333333334</ele><time>2026-04-19T10:32:12.999Z</time></trkpt><trkpt lat="43.78563376347353" lon="11.61110285030273"><ele>1022.0</ele><time>2026-04-19T10:32:13.999Z</time></trkpt><trkpt lat="43.78572718279011" lon="11.6112882260426"><ele>1022.6666666666667</ele><time>2026-04-19T10:32:14.999Z</time></trkpt><trkpt lat="43.7858060756675" lon="11.611473981659683"><ele>1023.3333333333333</ele><time>2026-04-19T10:32:15.999Z</time></trkpt><trkpt lat="43.785870786227306" lon="11.611679623859326"><ele>1024.0</ele><time>2026-04-19T10:32:16.999Z</time></trkpt><trkpt lat="43.78589941345819" lon="11.611909088999763"><ele>1023.0</ele><time>2026-04-19T10:32:17.999Z</time></trkpt><trkpt lat="43.78589630030877" lon="11.612138507851911"><ele>1022.0</ele><time>2026-04-19T10:32:18.999Z</time></trkpt><trkpt lat="43.78591098605032" lon="11.612349370704589"><ele>1021.0</ele><time>2026-04-19T10:32:19.999Z</time></trkpt><trkpt lat="43.78594856914431" lon="11.612540593089317"><ele>1021.0</ele><time>2026-04-19T10:32:20.999Z</time></trkpt><trkpt lat="43.78598714175967" lon="11.61270324166124"><ele>1020.9999999999999</ele><time>2026-04-19T10:32:21.999Z</time></trkpt><trkpt lat="43.78601360848777" lon="11.61284237158228"><ele>1020.9999999999999</ele><time>2026-04-19T10:32:22.999Z</time></trkpt><trkpt lat="43.78601632537604" lon="11.61297429170304"><ele>1021.0</ele><time>2026-04-19T10:32:23.999Z</time></trkpt><trkpt lat="43.78597987044459" lon="11.613100646459944"><ele>1021.0</ele><time>2026-04-19T10:32:24.998Z</time></trkpt><trkpt lat="43.785905242115824" lon="11.613204503302006"><ele>1019.0</ele><time>2026-04-19T10:32:25.998Z</time></trkpt><trkpt lat="43.7857996597215" lon="11.613266935200361"><ele>1016.9999999999999</ele><time>2026-04-19T10:32:26.998Z</time></trkpt><trkpt lat="43.78569475417128" lon="11.613291980309048"><ele>1014.9999999999999</ele><time>2026-04-19T10:32:27.998Z</time></trkpt><trkpt lat="43.78560095753378" lon="11.613315893323916"><ele>1013.0</ele><time>2026-04-19T10:32:28.998Z</time></trkpt><trkpt lat="43.78550747245943" lon="11.613351252722776"><ele>1011.0</ele><time>2026-04-19T10:32:29.998Z</time></trkpt><trkpt lat="43.7854149780187" lon="11.61339174726666"><ele>1011.0</ele><time>2026-04-19T10:32:30.998Z</time></trkpt><trkpt lat="43.78532458683942" lon="11.613446657308495"><ele>1010.9999999999999</ele><time>2026-04-19T10:32:31.998Z</time></trkpt><trkpt lat="43.78524048290089" lon="11.613525088300001"><ele>1010.9999999999999</ele><time>2026-04-19T10:32:32.998Z</time></trkpt><trkpt lat="43.785171894384696" lon="11.61363222084883"><ele>1011.0</ele><time>2026-04-19T10:32:33.998Z</time></trkpt><trkpt lat="43.78512155221697" lon="11.613774068572535"><ele>1011.0</ele><time>2026-04-19T10:32:34.998Z</time></trkpt><trkpt lat="43.78509295885007" lon="11.61394584415217"><ele>1005.6666666666667</ele><time>2026-04-19T10:32:35.998Z</time></trkpt><trkpt lat="43.785073253440835" lon="11.61414308364929"><ele>1000.3333333333334</ele><time>2026-04-19T10:32:36.998Z</time></trkpt><trkpt lat="43.78503364718221" lon="11.614345214749386"><ele>995.0</ele><time>2026-04-19T10:32:37.998Z</time></trkpt><trkpt lat="43.784998229026215" lon="11.614565100541784"><ele>994.0</ele><time>2026-04-19T10:32:38.998Z</time></trkpt><trkpt lat="43.78497093663964" lon="11.61479682007565"><ele>993.0</ele><time>2026-04-19T10:32:39.998Z</time></trkpt><trkpt lat="43.78492144422138" lon="11.615009378300702"><ele>992.0</ele><time>2026-04-19T10:32:40.998Z</time></trkpt><trkpt lat="43.78487011528173" lon="11.615220406330987"><ele>992.0</ele><time>2026-04-19T10:32:41.998Z</time></trkpt><trkpt lat="43.78480316312407" lon="11.615422360300721"><ele>992.0</ele><time>2026-04-19T10:32:42.998Z</time></trkpt><trkpt lat="43.784710361818" lon="11.615597844641083"><ele>992.0</ele><time>2026-04-19T10:32:43.998Z</time></trkpt><trkpt lat="43.78459650664688" lon="11.615756993111688"><ele>992.0</ele><time>2026-04-19T10:32:44.998Z</time></trkpt><trkpt lat="43.78448619144432" lon="11.615888819542826"><ele>992.0</ele><time>2026-04-19T10:32:45.998Z</time></trkpt><trkpt lat="43.7843882060312" lon="11.616027854244681"><ele>992.0</ele><time>2026-04-19T10:32:46.998Z</time></trkpt><trkpt lat="43.78431560978904" lon="11.616193770655167"><ele>992.0</ele><time>2026-04-19T10:32:47.998Z</time></trkpt><trkpt lat="43.78426681978083" lon="11.616388159626228"><ele>988.6666666666667</ele><time>2026-04-19T10:32:48.998Z</time></trkpt><trkpt lat="43.784243549625415" lon="11.616609535784075"><ele>985.3333333333333</ele><time>2026-04-19T10:32:50Z</time></trkpt><trkpt lat="43.78424379002518" lon="11.61685056481079"><ele>982.0</ele><time>2026-04-19T10:32:51Z</time></trkpt><trkpt lat="43.78426553759266" lon="11.617116049266912"><ele>979.6666666666666</ele><time>2026-04-19T10:32:52Z</time></trkpt><trkpt lat="43.78428952376564" lon="11.617403525910252"><ele>977.3333333333333</ele><time>2026-04-19T10:32:53Z</time></trkpt><trkpt lat="43.7842951943174" lon="11.6176995303561"><ele>975.0</ele><time>2026-04-19T10:32:54Z</time></trkpt><trkpt lat="43.78428824781447" lon="11.617974270404318"><ele>973.0</ele><time>2026-04-19T10:32:55Z</time></trkpt><trkpt lat="43.78428114778236" lon="11.618232429944186"><ele>971.0</ele><time>2026-04-19T10:32:56Z</time></trkpt><trkpt lat="43.78427272641677" lon="11.61848017259183"><ele>969.0</ele><time>2026-04-19T10:32:57Z</time></trkpt><trkpt lat="43.784256598451336" lon="11.618686329991107"><ele>966.75</ele><time>2026-04-19T10:32:58Z</time></trkpt><trkpt lat="43.78423368283269" lon="11.618861339883267"><ele>964.5</ele><time>2026-04-19T10:32:59Z</time></trkpt><trkpt lat="43.78422014084594" lon="11.61902082625091"><ele>962.25</ele><time>2026-04-19T10:33:00Z</time></trkpt><trkpt lat="43.78424241323102" lon="11.61917162065691"><ele>960.0</ele><time>2026-04-19T10:33:01Z</time></trkpt><trkpt lat="43.78430126483669" lon="11.619318200535348"><ele>961.75</ele><time>2026-04-19T10:33:02Z</time></trkpt><trkpt lat="43.784392660684574" lon="11.619447003621014"><ele>963.5</ele><time>2026-04-19T10:33:03Z</time></trkpt><trkpt lat="43.784507129519355" lon="11.619555090756101"><ele>965.25</ele><time>2026-04-19T10:33:04Z</time></trkpt><trkpt lat="43.78462936029058" lon="11.619648966810724"><ele>967.0</ele><time>2026-04-19T10:33:05Z</time></trkpt><trkpt lat="43.78474212700758" lon="11.619712057871714"><ele>963.0</ele><time>2026-04-19T10:33:06Z</time></trkpt><trkpt lat="43.78486509257537" lon="11.619732057805663"><ele>959.0</ele><time>2026-04-19T10:33:07Z</time></trkpt><trkpt lat="43.78500088960148" lon="11.619731031208804"><ele>955.0</ele><time>2026-04-19T10:33:08Z</time></trkpt><trkpt lat="43.78512240339003" lon="11.61963882051097"><ele>951.0</ele><time>2026-04-19T10:33:09Z</time></trkpt><trkpt lat="43.785224317121084" lon="11.619569489582306"><ele>950.0</ele><time>2026-04-19T10:33:10Z</time></trkpt><trkpt lat="43.78533388797511" lon="11.619533673142207"><ele>949.0</ele><time>2026-04-19T10:33:11Z</time></trkpt><trkpt lat="43.78546123759509" lon="11.619544390339295"><ele>948.0</ele><time>2026-04-19T10:33:12Z</time></trkpt><trkpt lat="43.78560361254052" lon="11.619610059317699"><ele>947.0</ele><time>2026-04-19T10:33:13Z</time></trkpt><trkpt lat="43.78575232235979" lon="11.619719834759495"><ele>947.0</ele><time>2026-04-19T10:33:14Z</time></trkpt><trkpt lat="43.78590715953599" lon="11.619841760121053"><ele>947.0</ele><time>2026-04-19T10:33:15Z</time></trkpt><trkpt lat="43.78606527780711" lon="11.619961254992852"><ele>947.0</ele><time>2026-04-19T10:33:16Z</time></trkpt><trkpt lat="43.78623204120575" lon="11.620087393227431"><ele>946.6666666666667</ele><time>2026-04-19T10:33:17Z</time></trkpt><trkpt lat="43.7863974634149" lon="11.620232805052241"><ele>946.3333333333333</ele><time>2026-04-19T10:33:18Z</time></trkpt><trkpt lat="43.786558442114966" lon="11.620400677616058"><ele>946.0</ele><time>2026-04-19T10:33:19Z</time></trkpt><trkpt lat="43.78671165477114" lon="11.620595834165343"><ele>944.0</ele><time>2026-04-19T10:33:20Z</time></trkpt><trkpt lat="43.786862090117275" lon="11.620817867506851"><ele>942.0</ele><time>2026-04-19T10:33:21Z</time></trkpt><trkpt lat="43.78702030865609" lon="11.621052609536553"><ele>939.0</ele><time>2026-04-19T10:33:22Z</time></trkpt><trkpt lat="43.78718854592843" lon="11.621289786681723"><ele>936.0</ele><time>2026-04-19T10:33:23Z</time></trkpt><trkpt lat="43.787352812728344" lon="11.621515469421444"><ele>936.0</ele><time>2026-04-19T10:33:24Z</time></trkpt><trkpt lat="43.787509448444865" lon="11.621731418468222"><ele>936.0</ele><time>2026-04-19T10:33:25Z</time></trkpt><trkpt lat="43.78766288448765" lon="11.621938934575196"><ele>936.0</ele><time>2026-04-19T10:33:26Z</time></trkpt><trkpt lat="43.78781014353427" lon="11.622139114704552"><ele>933.6666666666667</ele><time>2026-04-19T10:33:27Z</time></trkpt><trkpt lat="43.78794363950036" lon="11.622339358175159"><ele>931.3333333333334</ele><time>2026-04-19T10:33:28Z</time></trkpt><trkpt lat="43.7880598144082" lon="11.622565287840958"><ele>929.0</ele><time>2026-04-19T10:33:29Z</time></trkpt><trkpt lat="43.788154979620806" lon="11.62280883025563"><ele>929.0</ele><time>2026-04-19T10:33:30Z</time></trkpt><trkpt lat="43.78823070531023" lon="11.623037694811494"><ele>929.0</ele><time>2026-04-19T10:33:31Z</time></trkpt><trkpt lat="43.78829505000489" lon="11.623241335893242"><ele>929.0</ele><time>2026-04-19T10:33:32Z</time></trkpt><trkpt lat="43.788349058219794" lon="11.623430397224354"><ele>929.0</ele><time>2026-04-19T10:33:33Z</time></trkpt><trkpt lat="43.78838067350629" lon="11.623598118829358"><ele>929.0</ele><time>2026-04-19T10:33:34Z</time></trkpt><trkpt lat="43.78837551401411" lon="11.623759317055962"><ele>929.0</ele><time>2026-04-19T10:33:35Z</time></trkpt><trkpt lat="43.78833660499812" lon="11.623912633015433"><ele>929.0</ele><time>2026-04-19T10:33:36Z</time></trkpt><trkpt lat="43.7882641384036" lon="11.624041223873204"><ele>932.25</ele><time>2026-04-19T10:33:37Z</time></trkpt><trkpt lat="43.78816448913685" lon="11.62413668623392"><ele>935.5</ele><time>2026-04-19T10:33:38Z</time></trkpt><trkpt lat="43.788040774403115" lon="11.624191367613264"><ele>938.75</ele><time>2026-04-19T10:33:39Z</time></trkpt><trkpt lat="43.78790710855941" lon="11.624246654489328"><ele>942.0</ele><time>2026-04-19T10:33:40Z</time></trkpt><trkpt lat="43.787761883645445" lon="11.624317824476057"><ele>940.6666666666667</ele><time>2026-04-19T10:33:41Z</time></trkpt><trkpt lat="43.78761134507496" lon="11.624395665713212"><ele>939.3333333333334</ele><time>2026-04-19T10:33:42Z</time></trkpt><trkpt lat="43.787463859519136" lon="11.6244706422314"><ele>938.0</ele><time>2026-04-19T10:33:43Z</time></trkpt><trkpt lat="43.787331888335935" lon="11.62454600274035"><ele>941.25</ele><time>2026-04-19T10:33:44Z</time></trkpt><trkpt lat="43.78721920340354" lon="11.62465321041942"><ele>944.5</ele><time>2026-04-19T10:33:44.999Z</time></trkpt><trkpt lat="43.78712159716011" lon="11.624810019914845"><ele>947.75</ele><time>2026-04-19T10:33:45.999Z</time></trkpt><trkpt lat="43.78703605695127" lon="11.624981783581859"><ele>951.0</ele><time>2026-04-19T10:33:46.999Z</time></trkpt><trkpt lat="43.78697370248232" lon="11.625145147838678"><ele>951.0</ele><time>2026-04-19T10:33:47.999Z</time></trkpt><trkpt lat="43.78695557769643" lon="11.625307963931968"><ele>951.0</ele><time>2026-04-19T10:33:48.999Z</time></trkpt><trkpt lat="43.78697254871824" lon="11.625488061612312"><ele>951.0</ele><time>2026-04-19T10:33:49.999Z</time></trkpt><trkpt lat="43.78700462258655" lon="11.625677879184575"><ele>951.0</ele><time>2026-04-19T10:33:50.999Z</time></trkpt><trkpt lat="43.787061766794864" lon="11.625877933705034"><ele>954.6666666666667</ele><time>2026-04-19T10:33:51.999Z</time></trkpt><trkpt lat="43.78715215982205" lon="11.62607230223961"><ele>958.3333333333334</ele><time>2026-04-19T10:33:52.999Z</time></trkpt><trkpt lat="43.78726784880444" lon="11.626266355501057"><ele>962.0</ele><time>2026-04-19T10:33:53.999Z</time></trkpt><trkpt lat="43.7873978522817" lon="11.626451339361719"><ele>962.3333333333334</ele><time>2026-04-19T10:33:54.999Z</time></trkpt><trkpt lat="43.78753176748816" lon="11.626620139748692"><ele>962.6666666666667</ele><time>2026-04-19T10:33:55.999Z</time></trkpt><trkpt lat="43.7876507715638" lon="11.626801394195647"><ele>963.0</ele><time>2026-04-19T10:33:56.999Z</time></trkpt><trkpt lat="43.78773297167846" lon="11.62700732372924"><ele>968.0</ele><time>2026-04-19T10:33:57.999Z</time></trkpt><trkpt lat="43.78780687825347" lon="11.627192981747097"><ele>973.0</ele><time>2026-04-19T10:33:58.999Z</time></trkpt><trkpt lat="43.78789352556414" lon="11.627341253875048"><ele>978.0</ele><time>2026-04-19T10:33:59.999Z</time></trkpt><trkpt lat="43.787979095115794" lon="11.627457823387825"><ele>983.0</ele><time>2026-04-19T10:34:00.999Z</time></trkpt><trkpt lat="43.7880373430267" lon="11.627571170946213"><ele>983.0</ele><time>2026-04-19T10:34:01.999Z</time></trkpt><trkpt lat="43.78805850926637" lon="11.627703972635077"><ele>983.0</ele><time>2026-04-19T10:34:02.999Z</time></trkpt><trkpt lat="43.78802733681416" lon="11.627835190771814"><ele>983.0</ele><time>2026-04-19T10:34:03.999Z</time></trkpt><trkpt lat="43.7879530571372" lon="11.627932898257466"><ele>983.0</ele><time>2026-04-19T10:34:04.999Z</time></trkpt><trkpt lat="43.78784825455989" lon="11.627982022367219"><ele>983.0</ele><time>2026-04-19T10:34:05.999Z</time></trkpt><trkpt lat="43.787724905517315" lon="11.62800491011427"><ele>982.0</ele><time>2026-04-19T10:34:06.999Z</time></trkpt><trkpt lat="43.7876023809048" lon="11.628065367506753"><ele>981.0</ele><time>2026-04-19T10:34:07.999Z</time></trkpt><trkpt lat="43.78750008198857" lon="11.628177294440667"><ele>980.0</ele><time>2026-04-19T10:34:08.999Z</time></trkpt><trkpt lat="43.78742665843462" lon="11.62831260144036"><ele>979.0</ele><time>2026-04-19T10:34:09.999Z</time></trkpt><trkpt lat="43.787387511625546" lon="11.62844966827231"><ele>979.0</ele><time>2026-04-19T10:34:10.999Z</time></trkpt><trkpt lat="43.787396372796046" lon="11.628574334951976"><ele>979.0000000000001</ele><time>2026-04-19T10:34:11.999Z</time></trkpt><trkpt lat="43.787444214222965" lon="11.628676253983013"><ele>979.0000000000001</ele><time>2026-04-19T10:34:12.999Z</time></trkpt><trkpt lat="43.7875335662476" lon="11.628782424700956"><ele>979.0</ele><time>2026-04-19T10:34:13.999Z</time></trkpt><trkpt lat="43.78762318627528" lon="11.628901723804951"><ele>979.0</ele><time>2026-04-19T10:34:14.999Z</time></trkpt><trkpt lat="43.78771120203586" lon="11.629010614838881"><ele>978.25</ele><time>2026-04-19T10:34:15.999Z</time></trkpt><trkpt lat="43.78778192892509" lon="11.629122951138156"><ele>977.5</ele><time>2026-04-19T10:34:16.999Z</time></trkpt><trkpt lat="43.78779489665483" lon="11.629279284071858"><ele>976.75</ele><time>2026-04-19T10:34:17.999Z</time></trkpt><trkpt lat="43.78775619947392" lon="11.629431947098562"><ele>976.0</ele><time>2026-04-19T10:34:18.999Z</time></trkpt><trkpt lat="43.78767289817042" lon="11.629575024229014"><ele>976.0</ele><time>2026-04-19T10:34:19.999Z</time></trkpt><trkpt lat="43.78755784488131" lon="11.629701453909872"><ele>976.0</ele><time>2026-04-19T10:34:20.999Z</time></trkpt><trkpt lat="43.78744598799576" lon="11.62982343024817"><ele>976.0</ele><time>2026-04-19T10:34:21.999Z</time></trkpt><trkpt lat="43.787349103688214" lon="11.629991547025055"><ele>976.0</ele><time>2026-04-19T10:34:22.999Z</time></trkpt><trkpt lat="43.78728293487957" lon="11.630192077424375"><ele>975.25</ele><time>2026-04-19T10:34:23.999Z</time></trkpt><trkpt lat="43.78724342678978" lon="11.630390133359189"><ele>974.5</ele><time>2026-04-19T10:34:24.999Z</time></trkpt><trkpt lat="43.787238932776376" lon="11.630576537923702"><ele>973.75</ele><time>2026-04-19T10:34:25.999Z</time></trkpt><trkpt lat="43.7872607453212" lon="11.630737695834036"><ele>973.0</ele><time>2026-04-19T10:34:26.999Z</time></trkpt><trkpt lat="43.78732750626004" lon="11.630879405576174"><ele>973.0</ele><time>2026-04-19T10:34:27.999Z</time></trkpt><trkpt lat="43.787428271340985" lon="11.631016136511587"><ele>973.0</ele><time>2026-04-19T10:34:28.999Z</time></trkpt><trkpt lat="43.78755330567609" lon="11.631149841250789"><ele>973.0</ele><time>2026-04-19T10:34:29.999Z</time></trkpt><trkpt lat="43.7876884435574" lon="11.631280294210484"><ele>970.75</ele><time>2026-04-19T10:34:30.999Z</time></trkpt><trkpt lat="43.78782295065481" lon="11.631372172488046"><ele>968.5</ele><time>2026-04-19T10:34:31.999Z</time></trkpt><trkpt lat="43.78795526323602" lon="11.631437400855441"><ele>966.25</ele><time>2026-04-19T10:34:32.999Z</time></trkpt><trkpt lat="43.7880684420552" lon="11.631532156428548"><ele>964.0</ele><time>2026-04-19T10:34:33.999Z</time></trkpt><trkpt lat="43.788158704559045" lon="11.631682554833676"><ele>964.0</ele><time>2026-04-19T10:34:34.999Z</time></trkpt><trkpt lat="43.788204500717896" lon="11.631892063225823"><ele>964.0</ele><time>2026-04-19T10:34:35.999Z</time></trkpt><trkpt lat="43.788265435707544" lon="11.632124553241026"><ele>964.0</ele><time>2026-04-19T10:34:36.999Z</time></trkpt><trkpt lat="43.788293548280635" lon="11.632400327171704"><ele>963.0</ele><time>2026-04-19T10:34:37.999Z</time></trkpt><trkpt lat="43.788315678837854" lon="11.632702643850308"><ele>962.0</ele><time>2026-04-19T10:34:38.999Z</time></trkpt><trkpt lat="43.788342677515196" lon="11.633007129764461"><ele>961.0</ele><time>2026-04-19T10:34:39.999Z</time></trkpt><trkpt lat="43.78837051245717" lon="11.633292563407512"><ele>959.0</ele><time>2026-04-19T10:34:40.999Z</time></trkpt><trkpt lat="43.78839949287891" lon="11.633565624922536"><ele>957.0</ele><time>2026-04-19T10:34:41.999Z</time></trkpt><trkpt lat="43.78842227225892" lon="11.633811100148403"><ele>955.0</ele><time>2026-04-19T10:34:42.999Z</time></trkpt><trkpt lat="43.788421626475994" lon="11.634033532531308"><ele>955.0</ele><time>2026-04-19T10:34:43.998Z</time></trkpt><trkpt lat="43.788377245622826" lon="11.634243862218996"><ele>955.0</ele><time>2026-04-19T10:34:44.998Z</time></trkpt><trkpt lat="43.788284434088155" lon="11.63443947169318"><ele>955.0</ele><time>2026-04-19T10:34:45.998Z</time></trkpt><trkpt lat="43.78816030479815" lon="11.634615915189645"><ele>957.3333333333333</ele><time>2026-04-19T10:34:46.998Z</time></trkpt><trkpt lat="43.78804685547906" lon="11.634791581309946"><ele>959.6666666666667</ele><time>2026-04-19T10:34:47.998Z</time></trkpt><trkpt lat="43.78796583764683" lon="11.634985339978575"><ele>962.0</ele><time>2026-04-19T10:34:48.998Z</time></trkpt><trkpt lat="43.78790844275866" lon="11.635208930564463"><ele>964.3333333333334</ele><time>2026-04-19T10:34:49.998Z</time></trkpt><trkpt lat="43.7878700078054" lon="11.635438675514795"><ele>966.6666666666667</ele><time>2026-04-19T10:34:50.998Z</time></trkpt><trkpt lat="43.78785279329362" lon="11.635659216502907"><ele>969.0</ele><time>2026-04-19T10:34:51.998Z</time></trkpt><trkpt lat="43.787862964612664" lon="11.635899579995538"><ele>969.6666666666667</ele><time>2026-04-19T10:34:52.998Z</time></trkpt><trkpt lat="43.78790331545884" lon="11.636155959427779"><ele>970.3333333333334</ele><time>2026-04-19T10:34:53.998Z</time></trkpt><trkpt lat="43.78794516807914" lon="11.636427566027029"><ele>971.0</ele><time>2026-04-19T10:34:54.998Z</time></trkpt><trkpt lat="43.787948698456034" lon="11.63672822873491"><ele>969.3333333333334</ele><time>2026-04-19T10:34:56Z</time></trkpt><trkpt lat="43.78792530269794" lon="11.637015995898164"><ele>967.6666666666667</ele><time>2026-04-19T10:34:57Z</time></trkpt><trkpt lat="43.78791341656915" lon="11.637306532818217"><ele>966.0</ele><time>2026-04-19T10:34:58Z</time></trkpt><trkpt lat="43.78791876839073" lon="11.637606393167495"><ele>963.6666666666667</ele><time>2026-04-19T10:34:59Z</time></trkpt><trkpt lat="43.787940009896474" lon="11.637881155889769"><ele>961.3333333333334</ele><time>2026-04-19T10:35:00Z</time></trkpt><trkpt lat="43.78796226154981" lon="11.6381391337843"><ele>959.0</ele><time>2026-04-19T10:35:01Z</time></trkpt><trkpt lat="43.78796577086772" lon="11.638396267021403"><ele>957.6666666666667</ele><time>2026-04-19T10:35:02Z</time></trkpt><trkpt lat="43.78793821819339" lon="11.638659301945276"><ele>956.3333333333333</ele><time>2026-04-19T10:35:03Z</time></trkpt><trkpt lat="43.787888133016374" lon="11.638896301848073"><ele>955.0</ele><time>2026-04-19T10:35:04Z</time></trkpt><trkpt lat="43.787838593246356" lon="11.63909926412562"><ele>955.0</ele><time>2026-04-19T10:35:05Z</time></trkpt><trkpt lat="43.7877728951737" lon="11.63925849505858"><ele>955.0</ele><time>2026-04-19T10:35:06Z</time></trkpt><trkpt lat="43.7876739758166" lon="11.639380673361611"><ele>955.0</ele><time>2026-04-19T10:35:07Z</time></trkpt><trkpt lat="43.787539771752314" lon="11.639472500410001"><ele>955.0</ele><time>2026-04-19T10:35:08Z</time></trkpt><trkpt lat="43.78739454792162" lon="11.639530447332042"><ele>957.5</ele><time>2026-04-19T10:35:09Z</time></trkpt><trkpt lat="43.78726197296867" lon="11.639575733727542"><ele>960.0</ele><time>2026-04-19T10:35:10Z</time></trkpt><trkpt lat="43.787145249807594" lon="11.639627126656087"><ele>962.5</ele><time>2026-04-19T10:35:11Z</time></trkpt><trkpt lat="43.78703804678925" lon="11.639689612301913"><ele>965.0</ele><time>2026-04-19T10:35:12Z</time></trkpt><trkpt lat="43.78696452522805" lon="11.639781817314006"><ele>965.0</ele><time>2026-04-19T10:35:13Z</time></trkpt><trkpt lat="43.78692462857053" lon="11.639914857844138"><ele>965.0</ele><time>2026-04-19T10:35:14Z</time></trkpt><trkpt lat="43.786927112183854" lon="11.640065558043716"><ele>965.0</ele><time>2026-04-19T10:35:15Z</time></trkpt><trkpt lat="43.78697193685066" lon="11.64021462344582"><ele>965.0</ele><time>2026-04-19T10:35:16Z</time></trkpt><trkpt lat="43.78705105250836" lon="11.640360032094648"><ele>965.3333333333334</ele><time>2026-04-19T10:35:17Z</time></trkpt><trkpt lat="43.787148660860375" lon="11.640524202202531"><ele>965.6666666666667</ele><time>2026-04-19T10:35:18Z</time></trkpt><trkpt lat="43.78721432869825" lon="11.640716572353213"><ele>966.0</ele><time>2026-04-19T10:35:19Z</time></trkpt><trkpt lat="43.78727054226522" lon="11.640898766468265"><ele>966.0</ele><time>2026-04-19T10:35:20Z</time></trkpt><trkpt lat="43.78726746984187" lon="11.641090378368384"><ele>966.0</ele><time>2026-04-19T10:35:21Z</time></trkpt><trkpt lat="43.78722549297378" lon="11.641306764831416"><ele>966.0</ele><time>2026-04-19T10:35:22Z</time></trkpt><trkpt lat="43.78715764151293" lon="11.64155370463636"><ele>964.3333333333333</ele><time>2026-04-19T10:35:23Z</time></trkpt><trkpt lat="43.78709454703771" lon="11.641808254271071"><ele>962.6666666666666</ele><time>2026-04-19T10:35:24Z</time></trkpt><trkpt lat="43.787035273981445" lon="11.64207942692283"><ele>961.0</ele><time>2026-04-19T10:35:25Z</time></trkpt><trkpt lat="43.78698997440693" lon="11.642350486174072"><ele>960.3333333333333</ele><time>2026-04-19T10:35:26Z</time></trkpt><trkpt lat="43.786973337762916" lon="11.642630094104785"><ele>959.6666666666667</ele><time>2026-04-19T10:35:27Z</time></trkpt><trkpt lat="43.7869769042876" lon="11.642909166303149"><ele>959.0</ele><time>2026-04-19T10:35:28Z</time></trkpt><trkpt lat="43.7869849046491" lon="11.643171451457597"><ele>959.6666666666667</ele><time>2026-04-19T10:35:29Z</time></trkpt><trkpt lat="43.78701515202504" lon="11.643419456852097"><ele>960.3333333333333</ele><time>2026-04-19T10:35:30Z</time></trkpt><trkpt lat="43.787086556720716" lon="11.643648859657883"><ele>961.0</ele><time>2026-04-19T10:35:31Z</time></trkpt><trkpt lat="43.78718979237786" lon="11.643877770193283"><ele>961.0</ele><time>2026-04-19T10:35:32Z</time></trkpt><trkpt lat="43.78729525664705" lon="11.64408645051568"><ele>961.0</ele><time>2026-04-19T10:35:33Z</time></trkpt><trkpt lat="43.78736406709635" lon="11.644300473569361"><ele>961.0</ele><time>2026-04-19T10:35:34Z</time></trkpt><trkpt lat="43.78744563684693" lon="11.64448917526083"><ele>959.6666666666666</ele><time>2026-04-19T10:35:35Z</time></trkpt><trkpt lat="43.7874668185753" lon="11.644697558502388"><ele>958.3333333333333</ele><time>2026-04-19T10:35:36Z</time></trkpt><trkpt lat="43.78744385884501" lon="11.644916854715406"><ele>957.0</ele><time>2026-04-19T10:35:37Z</time></trkpt><trkpt lat="43.787384042188975" lon="11.645146019901762"><ele>958.6666666666667</ele><time>2026-04-19T10:35:38Z</time></trkpt><trkpt lat="43.78729663316099" lon="11.645380144158578"><ele>960.3333333333334</ele><time>2026-04-19T10:35:39Z</time></trkpt><trkpt lat="43.787202960298934" lon="11.645611037619316"><ele>962.0</ele><time>2026-04-19T10:35:40Z</time></trkpt><trkpt lat="43.787121198424856" lon="11.64584184592715"><ele>962.0</ele><time>2026-04-19T10:35:41Z</time></trkpt><trkpt lat="43.78705043794159" lon="11.646109768250104"><ele>962.0</ele><time>2026-04-19T10:35:42Z</time></trkpt><trkpt lat="43.78694340977172" lon="11.646399027879072"><ele>962.0</ele><time>2026-04-19T10:35:43Z</time></trkpt><trkpt lat="43.78684638255795" lon="11.64671615267575"><ele>957.0</ele><time>2026-04-19T10:35:44Z</time></trkpt><trkpt lat="43.78675463678874" lon="11.64701821192505"><ele>952.0</ele><time>2026-04-19T10:35:45Z</time></trkpt><trkpt lat="43.786685768775826" lon="11.647288527501773"><ele>947.0</ele><time>2026-04-19T10:35:46Z</time></trkpt><trkpt lat="43.78660090499303" lon="11.647507686994658"><ele>947.0</ele><time>2026-04-19T10:35:47Z</time></trkpt><trkpt lat="43.786550132444255" lon="11.647731600367987"><ele>947.0</ele><time>2026-04-19T10:35:48Z</time></trkpt><trkpt lat="43.78653240317231" lon="11.648000859995092"><ele>947.0</ele><time>2026-04-19T10:35:49Z</time></trkpt><trkpt lat="43.78654740549547" lon="11.648301662867965"><ele>947.3333333333334</ele><time>2026-04-19T10:35:50Z</time></trkpt><trkpt lat="43.786571363105345" lon="11.64860201126466"><ele>947.6666666666667</ele><time>2026-04-19T10:35:51Z</time></trkpt><trkpt lat="43.7865824799417" lon="11.648888872357528"><ele>948.0</ele><time>2026-04-19T10:35:52Z</time></trkpt><trkpt lat="43.78656744072138" lon="11.649169179179708"><ele>949.0</ele><time>2026-04-19T10:35:53Z</time></trkpt><trkpt lat="43.78652443767526" lon="11.649424192256701"><ele>950.0</ele><time>2026-04-19T10:35:54Z</time></trkpt><trkpt lat="43.786459264353375" lon="11.649654205924508"><ele>951.0</ele><time>2026-04-19T10:35:55Z</time></trkpt><trkpt lat="43.786371472930746" lon="11.649853905807548"><ele>950.6666666666667</ele><time>2026-04-19T10:35:56Z</time></trkpt><trkpt lat="43.78625072804411" lon="11.650015809079793"><ele>950.3333333333334</ele><time>2026-04-19T10:35:57Z</time></trkpt><trkpt lat="43.786099579324585" lon="11.650156553810946"><ele>950.0</ele><time>2026-04-19T10:35:58Z</time></trkpt><trkpt lat="43.785928983755014" lon="11.65029004186573"><ele>952.0</ele><time>2026-04-19T10:35:59Z</time></trkpt><trkpt lat="43.785766762464256" lon="11.650416936957932"><ele>954.0</ele><time>2026-04-19T10:36:00Z</time></trkpt><trkpt lat="43.785611704271496" lon="11.65050384649653"><ele>956.0</ele><time>2026-04-19T10:36:01Z</time></trkpt><trkpt lat="43.78544833583437" lon="11.650535834020207"><ele>956.0</ele><time>2026-04-19T10:36:02Z</time></trkpt><trkpt lat="43.785266436680935" lon="11.650519085523737"><ele>956.0</ele><time>2026-04-19T10:36:03Z</time></trkpt><trkpt lat="43.78506880820726" lon="11.650453904138786"><ele>956.0</ele><time>2026-04-19T10:36:03.999Z</time></trkpt><trkpt lat="43.78486230208015" lon="11.65035156872606"><ele>952.5</ele><time>2026-04-19T10:36:04.999Z</time></trkpt><trkpt lat="43.78465881543722" lon="11.650224750999739"><ele>949.0</ele><time>2026-04-19T10:36:05.999Z</time></trkpt><trkpt lat="43.784446076065734" lon="11.650091565715051"><ele>952.0</ele><time>2026-04-19T10:36:06.999Z</time></trkpt><trkpt lat="43.78422826646917" lon="11.649971397177831"><ele>955.0</ele><time>2026-04-19T10:36:07.999Z</time></trkpt><trkpt lat="43.78402814000423" lon="11.649855932225986"><ele>955.0</ele><time>2026-04-19T10:36:08.999Z</time></trkpt><trkpt lat="43.78384659489232" lon="11.649756247737217"><ele>955.0</ele><time>2026-04-19T10:36:09.999Z</time></trkpt><trkpt lat="43.78366857702358" lon="11.649696830081183"><ele>955.0</ele><time>2026-04-19T10:36:10.999Z</time></trkpt><trkpt lat="43.78347052382482" lon="11.649674394825158"><ele>956.0</ele><time>2026-04-19T10:36:11.999Z</time></trkpt><trkpt lat="43.783263448116365" lon="11.649686820160326"><ele>957.0</ele><time>2026-04-19T10:36:12.999Z</time></trkpt><trkpt lat="43.783062648942575" lon="11.649717827683238"><ele>958.0</ele><time>2026-04-19T10:36:13.999Z</time></trkpt><trkpt lat="43.782872824117675" lon="11.649763650367168"><ele>958.0</ele><time>2026-04-19T10:36:14.999Z</time></trkpt><trkpt lat="43.78268977693628" lon="11.649846184470007"><ele>958.0</ele><time>2026-04-19T10:36:15.999Z</time></trkpt><trkpt lat="43.782504665615484" lon="11.649978041705522"><ele>958.0</ele><time>2026-04-19T10:36:16.999Z</time></trkpt><trkpt lat="43.782320547991496" lon="11.650154839224003"><ele>962.0</ele><time>2026-04-19T10:36:17.999Z</time></trkpt><trkpt lat="43.782138856381636" lon="11.650338776710212"><ele>966.0</ele><time>2026-04-19T10:36:18.999Z</time></trkpt><trkpt lat="43.78194789901448" lon="11.65048408484927"><ele>970.0</ele><time>2026-04-19T10:36:19.999Z</time></trkpt><trkpt lat="43.781762326818416" lon="11.65059284916721"><ele>962.0</ele><time>2026-04-19T10:36:20.999Z</time></trkpt><trkpt lat="43.781604285596586" lon="11.650715933094629"><ele>954.0</ele><time>2026-04-19T10:36:21.999Z</time></trkpt><trkpt lat="43.78147014581252" lon="11.650852971456684"><ele>946.0</ele><time>2026-04-19T10:36:22.999Z</time></trkpt><trkpt lat="43.781361595576136" lon="11.651007380974177"><ele>950.0</ele><time>2026-04-19T10:36:23.999Z</time></trkpt><trkpt lat="43.78128793200627" lon="11.65118818238981"><ele>954.0</ele><time>2026-04-19T10:36:24.999Z</time></trkpt><trkpt lat="43.781244220342266" lon="11.651414782234092"><ele>958.0</ele><time>2026-04-19T10:36:25.999Z</time></trkpt><trkpt lat="43.781220521321686" lon="11.651677120418832"><ele>958.0</ele><time>2026-04-19T10:36:26.999Z</time></trkpt><trkpt lat="43.781198302908834" lon="11.651950339437477"><ele>958.0</ele><time>2026-04-19T10:36:27.999Z</time></trkpt><trkpt lat="43.781169799053025" lon="11.652213941190611"><ele>958.0</ele><time>2026-04-19T10:36:28.999Z</time></trkpt><trkpt lat="43.781149139642196" lon="11.652454021870996"><ele>957.6666666666666</ele><time>2026-04-19T10:36:29.999Z</time></trkpt><trkpt lat="43.781162965901174" lon="11.652668221749451"><ele>957.3333333333333</ele><time>2026-04-19T10:36:30.999Z</time></trkpt><trkpt lat="43.78122681892677" lon="11.652879471755307"><ele>957.0</ele><time>2026-04-19T10:36:31.999Z</time></trkpt><trkpt lat="43.781315627752576" lon="11.653094038605564"><ele>955.6666666666667</ele><time>2026-04-19T10:36:32.999Z</time></trkpt><trkpt lat="43.78137582744347" lon="11.653317627223283"><ele>954.3333333333334</ele><time>2026-04-19T10:36:33.999Z</time></trkpt><trkpt lat="43.781387316808974" lon="11.653546871561712"><ele>953.0</ele><time>2026-04-19T10:36:34.999Z</time></trkpt><trkpt lat="43.78139490257958" lon="11.653759632878167"><ele>949.0</ele><time>2026-04-19T10:36:35.999Z</time></trkpt><trkpt lat="43.781446444526765" lon="11.653980548848683"><ele>945.0</ele><time>2026-04-19T10:36:36.999Z</time></trkpt><trkpt lat="43.78153280814972" lon="11.654189889627885"><ele>941.0</ele><time>2026-04-19T10:36:37.999Z</time></trkpt><trkpt lat="43.78165285620358" lon="11.654384036609983"><ele>943.6666666666667</ele><time>2026-04-19T10:36:38.999Z</time></trkpt><trkpt lat="43.781804659869074" lon="11.654579159783001"><ele>946.3333333333333</ele><time>2026-04-19T10:36:39.999Z</time></trkpt><trkpt lat="43.781958034710684" lon="11.654769803368007"><ele>949.0</ele><time>2026-04-19T10:36:40.999Z</time></trkpt><trkpt lat="43.78209601161726" lon="11.654935463602973"><ele>949.0</ele><time>2026-04-19T10:36:41.999Z</time></trkpt><trkpt lat="43.78222050269354" lon="11.655093773590265"><ele>949.0</ele><time>2026-04-19T10:36:42.999Z</time></trkpt><trkpt lat="43.78232524287979" lon="11.655254949667867"><ele>949.0</ele><time>2026-04-19T10:36:43.999Z</time></trkpt><trkpt lat="43.78240762655354" lon="11.65545066579631"><ele>947.6666666666666</ele><time>2026-04-19T10:36:44.999Z</time></trkpt><trkpt lat="43.78245667933075" lon="11.655676139138137"><ele>946.3333333333333</ele><time>2026-04-19T10:36:45.999Z</time></trkpt><trkpt lat="43.782464268391585" lon="11.65591725436068"><ele>945.0</ele><time>2026-04-19T10:36:46.999Z</time></trkpt><trkpt lat="43.78243564345839" lon="11.656164678822979"><ele>945.0</ele><time>2026-04-19T10:36:47.999Z</time></trkpt><trkpt lat="43.78237846382954" lon="11.65639700358973"><ele>945.0</ele><time>2026-04-19T10:36:48.999Z</time></trkpt><trkpt lat="43.78229170401845" lon="11.65660593789784"><ele>945.0</ele><time>2026-04-19T10:36:49.999Z</time></trkpt><trkpt lat="43.782164720330336" lon="11.656759427327737"><ele>945.0</ele><time>2026-04-19T10:36:50.999Z</time></trkpt><trkpt lat="43.782007855992404" lon="11.656878084601262"><ele>945.0</ele><time>2026-04-19T10:36:51.999Z</time></trkpt><trkpt lat="43.781848943083794" lon="11.657000755140073"><ele>945.0</ele><time>2026-04-19T10:36:52.999Z</time></trkpt><trkpt lat="43.78170033529718" lon="11.657136427685241"><ele>944.75</ele><time>2026-04-19T10:36:53.999Z</time></trkpt><trkpt lat="43.781579163103125" lon="11.657275269128144"><ele>944.5</ele><time>2026-04-19T10:36:54.999Z</time></trkpt><trkpt lat="43.781492688619984" lon="11.657428519402089"><ele>944.25</ele><time>2026-04-19T10:36:55.999Z</time></trkpt><trkpt lat="43.781439961929784" lon="11.657619179818496"><ele>944.0</ele><time>2026-04-19T10:36:56.999Z</time></trkpt><trkpt lat="43.78141553496516" lon="11.657844305329897"><ele>946.0</ele><time>2026-04-19T10:36:57.999Z</time></trkpt><trkpt lat="43.781409909330826" lon="11.658090046667386"><ele>948.0</ele><time>2026-04-19T10:36:58.999Z</time></trkpt><trkpt lat="43.781413995618365" lon="11.658351838341865"><ele>950.0</ele><time>2026-04-19T10:36:59.999Z</time></trkpt><trkpt lat="43.78142207682929" lon="11.6586184176419"><ele>950.0</ele><time>2026-04-19T10:37:00.999Z</time></trkpt><trkpt lat="43.78142986270371" lon="11.65888299692884"><ele>950.0</ele><time>2026-04-19T10:37:02.001Z</time></trkpt><trkpt lat="43.78143822342963" lon="11.659140236849321"><ele>950.0</ele><time>2026-04-19T10:37:03.001Z</time></trkpt><trkpt lat="43.78145325627667" lon="11.659382899452401"><ele>948.6666666666667</ele><time>2026-04-19T10:37:04.001Z</time></trkpt><trkpt lat="43.78149031304397" lon="11.659626913031252"><ele>947.3333333333333</ele><time>2026-04-19T10:37:05.001Z</time></trkpt><trkpt lat="43.78154059484819" lon="11.65985487882698"><ele>946.0</ele><time>2026-04-19T10:37:06.001Z</time></trkpt><trkpt lat="43.78157985240755" lon="11.660077681240685"><ele>944.6666666666666</ele><time>2026-04-19T10:37:07.001Z</time></trkpt><trkpt lat="43.78158629637917" lon="11.660291633003899"><ele>943.3333333333333</ele><time>2026-04-19T10:37:08.001Z</time></trkpt><trkpt lat="43.78155046922553" lon="11.66049977153911"><ele>942.0</ele><time>2026-04-19T10:37:09.001Z</time></trkpt><trkpt lat="43.78148002420895" lon="11.660692984283042"><ele>942.0</ele><time>2026-04-19T10:37:10.001Z</time></trkpt><trkpt lat="43.78141657324616" lon="11.660857749481906"><ele>942.0</ele><time>2026-04-19T10:37:11.001Z</time></trkpt><trkpt lat="43.78137378301251" lon="11.661018785092104"><ele>942.0</ele><time>2026-04-19T10:37:12.001Z</time></trkpt><trkpt lat="43.78136911542044" lon="11.661185325237899"><ele>942.0</ele><time>2026-04-19T10:37:13.001Z</time></trkpt><trkpt lat="43.781403082541715" lon="11.661383264008093"><ele>940.3333333333333</ele><time>2026-04-19T10:37:14.001Z</time></trkpt><trkpt lat="43.78146444423227" lon="11.661598979538917"><ele>938.6666666666666</ele><time>2026-04-19T10:37:15.001Z</time></trkpt><trkpt lat="43.78153210520743" lon="11.661819033561981"><ele>937.0</ele><time>2026-04-19T10:37:16.001Z</time></trkpt><trkpt lat="43.78159370340889" lon="11.662050784102668"><ele>934.6666666666666</ele><time>2026-04-19T10:37:17.001Z</time></trkpt><trkpt lat="43.7816453213952" lon="11.66227390730228"><ele>932.3333333333333</ele><time>2026-04-19T10:37:18.001Z</time></trkpt><trkpt lat="43.78168737944389" lon="11.66248608054375"><ele>930.0</ele><time>2026-04-19T10:37:19.001Z</time></trkpt><trkpt lat="43.78172016603947" lon="11.662697731167249"><ele>928.5</ele><time>2026-04-19T10:37:20.001Z</time></trkpt><trkpt lat="43.781743473556766" lon="11.662899250316885"><ele>927.0</ele><time>2026-04-19T10:37:21.001Z</time></trkpt><trkpt lat="43.781747069061666" lon="11.663097875143464"><ele>925.5</ele><time>2026-04-19T10:37:22.001Z</time></trkpt><trkpt lat="43.78172980335594" lon="11.663294314748688"><ele>924.0</ele><time>2026-04-19T10:37:23Z</time></trkpt><trkpt lat="43.78169086956732" lon="11.66349367301511"><ele>925.3333333333333</ele><time>2026-04-19T10:37:24Z</time></trkpt><trkpt lat="43.78161952379823" lon="11.663701957777304"><ele>926.6666666666666</ele><time>2026-04-19T10:37:25Z</time></trkpt><trkpt lat="43.78152710150353" lon="11.663918123199718"><ele>928.0</ele><time>2026-04-19T10:37:26Z</time></trkpt><trkpt lat="43.78142407832347" lon="11.664130496516687"><ele>928.0</ele><time>2026-04-19T10:37:27Z</time></trkpt><trkpt lat="43.781318687226445" lon="11.664344622034267"><ele>928.0</ele><time>2026-04-19T10:37:28Z</time></trkpt><trkpt lat="43.78122233117405" lon="11.6645613408414"><ele>928.0</ele><time>2026-04-19T10:37:29Z</time></trkpt><trkpt lat="43.78113255705774" lon="11.664768234222725"><ele>928.6666666666666</ele><time>2026-04-19T10:37:30Z</time></trkpt><trkpt lat="43.78104681403098" lon="11.664964308406997"><ele>929.3333333333333</ele><time>2026-04-19T10:37:31Z</time></trkpt><trkpt lat="43.780962542816084" lon="11.665147821169835"><ele>930.0</ele><time>2026-04-19T10:37:32Z</time></trkpt><trkpt lat="43.78088416710145" lon="11.665331784825714"><ele>920.6666666666667</ele><time>2026-04-19T10:37:33Z</time></trkpt><trkpt lat="43.78082498737161" lon="11.665547711308482"><ele>911.3333333333334</ele><time>2026-04-19T10:37:34Z</time></trkpt><trkpt lat="43.78080069778683" lon="11.665791588491441"><ele>902.0</ele><time>2026-04-19T10:37:34.999Z</time></trkpt><trkpt lat="43.780792803930986" lon="11.66604239051893"><ele>900.75</ele><time>2026-04-19T10:37:35.999Z</time></trkpt><trkpt lat="43.78078224649579" lon="11.666267228660045"><ele>899.5</ele><time>2026-04-19T10:37:36.999Z</time></trkpt><trkpt lat="43.780770255113126" lon="11.666460034001279"><ele>898.25</ele><time>2026-04-19T10:37:37.999Z</time></trkpt><trkpt lat="43.7807725444539" lon="11.66663343005422"><ele>897.0</ele><time>2026-04-19T10:37:38.999Z</time></trkpt><trkpt lat="43.78081766531254" lon="11.666809196646529"><ele>894.0</ele><time>2026-04-19T10:37:39.999Z</time></trkpt><trkpt lat="43.78090042404867" lon="11.666995366995561"><ele>891.0</ele><time>2026-04-19T10:37:40.999Z</time></trkpt><trkpt lat="43.780992770176454" lon="11.667179290946148"><ele>888.0</ele><time>2026-04-19T10:37:41.999Z</time></trkpt><trkpt lat="43.78108342438261" lon="11.66734059568158"><ele>892.75</ele><time>2026-04-19T10:37:42.999Z</time></trkpt><trkpt lat="43.781163102032274" lon="11.667496691001896"><ele>897.5</ele><time>2026-04-19T10:37:43.999Z</time></trkpt><trkpt lat="43.78121402898889" lon="11.667675401598071"><ele>902.25</ele><time>2026-04-19T10:37:44.999Z</time></trkpt><trkpt lat="43.781226164800856" lon="11.667883927978133"><ele>907.0</ele><time>2026-04-19T10:37:45.999Z</time></trkpt><trkpt lat="43.781212135608676" lon="11.668100555557233"><ele>907.0</ele><time>2026-04-19T10:37:46.999Z</time></trkpt><trkpt lat="43.78119750151101" lon="11.668330977474765"><ele>907.0</ele><time>2026-04-19T10:37:47.999Z</time></trkpt><trkpt lat="43.78119007296686" lon="11.668549150436071"><ele>907.0</ele><time>2026-04-19T10:37:48.999Z</time></trkpt><trkpt lat="43.78119633564015" lon="11.668754263598695"><ele>904.6666666666666</ele><time>2026-04-19T10:37:49.999Z</time></trkpt><trkpt lat="43.78123823479122" lon="11.66897093391841"><ele>902.3333333333333</ele><time>2026-04-19T10:37:50.999Z</time></trkpt><trkpt lat="43.78130673137855" lon="11.66917087696156"><ele>900.0</ele><time>2026-04-19T10:37:51.999Z</time></trkpt><trkpt lat="43.78137369640415" lon="11.669360031440949"><ele>895.0</ele><time>2026-04-19T10:37:52.999Z</time></trkpt><trkpt lat="43.78142224377778" lon="11.669578021256958"><ele>890.0</ele><time>2026-04-19T10:37:53.999Z</time></trkpt><trkpt lat="43.781451023155675" lon="11.669802309913734"><ele>885.0</ele><time>2026-04-19T10:37:54.999Z</time></trkpt><trkpt lat="43.78145335085533" lon="11.670044132134262"><ele>884.0</ele><time>2026-04-19T10:37:55.999Z</time></trkpt><trkpt lat="43.78142245680826" lon="11.670294370813982"><ele>883.0</ele><time>2026-04-19T10:37:56.999Z</time></trkpt><trkpt lat="43.78136977697226" lon="11.670533885439918"><ele>882.0</ele><time>2026-04-19T10:37:57.999Z</time></trkpt><trkpt lat="43.78131438789057" lon="11.670761252044054"><ele>882.0</ele><time>2026-04-19T10:37:58.999Z</time></trkpt><trkpt lat="43.781276021775604" lon="11.670992116470757"><ele>882.0</ele><time>2026-04-19T10:37:59.999Z</time></trkpt><trkpt lat="43.78123386383594" lon="11.671229179070531"><ele>882.0</ele><time>2026-04-19T10:38:00.999Z</time></trkpt><trkpt lat="43.781158995415225" lon="11.671453368192989"><ele>882.0</ele><time>2026-04-19T10:38:01.999Z</time></trkpt><trkpt lat="43.781067843824786" lon="11.671667589423253"><ele>882.0</ele><time>2026-04-19T10:38:02.999Z</time></trkpt><trkpt lat="43.78097408237228" lon="11.671888918419464"><ele>882.0</ele><time>2026-04-19T10:38:03.999Z</time></trkpt><trkpt lat="43.780878624479854" lon="11.672106309219444"><ele>874.3333333333333</ele><time>2026-04-19T10:38:04.999Z</time></trkpt><trkpt lat="43.78078363130131" lon="11.672316786510379"><ele>866.6666666666666</ele><time>2026-04-19T10:38:05.999Z</time></trkpt><trkpt lat="43.78069121184119" lon="11.672519004749713"><ele>859.0</ele><time>2026-04-19T10:38:06.999Z</time></trkpt><trkpt lat="43.78060407416486" lon="11.672705843412608"><ele>860.25</ele><time>2026-04-19T10:38:07.999Z</time></trkpt><trkpt lat="43.780524082397974" lon="11.672870683729842"><ele>861.5</ele><time>2026-04-19T10:38:08.999Z</time></trkpt><trkpt lat="43.78043647049827" lon="11.673014824144616"><ele>862.75</ele><time>2026-04-19T10:38:09.999Z</time></trkpt><trkpt lat="43.780327800780164" lon="11.673123712245001"><ele>864.0</ele><time>2026-04-19T10:38:10.999Z</time></trkpt><trkpt lat="43.78019510637082" lon="11.673188748760504"><ele>860.25</ele><time>2026-04-19T10:38:11.999Z</time></trkpt><trkpt lat="43.78006795228768" lon="11.673214133213104"><ele>856.5</ele><time>2026-04-19T10:38:12.999Z</time></trkpt><trkpt lat="43.77996254660964" lon="11.673270789850173"><ele>852.75</ele><time>2026-04-19T10:38:13.999Z</time></trkpt><trkpt lat="43.77987968376194" lon="11.673363838836778"><ele>849.0</ele><time>2026-04-19T10:38:14.999Z</time></trkpt><trkpt lat="43.77981991431806" lon="11.673495522196157"><ele>848.25</ele><time>2026-04-19T10:38:15.998Z</time></trkpt><trkpt lat="43.77979283349577" lon="11.673668478619383"><ele>847.5</ele><time>2026-04-19T10:38:16.998Z</time></trkpt><trkpt lat="43.779802520227946" lon="11.673870197909187"><ele>846.75</ele><time>2026-04-19T10:38:17.998Z</time></trkpt><trkpt lat="43.77982163582593" lon="11.674096567375017"><ele>846.0</ele><time>2026-04-19T10:38:18.998Z</time></trkpt><trkpt lat="43.7798080807706" lon="11.67434194987134"><ele>844.6666666666667</ele><time>2026-04-19T10:38:19.998Z</time></trkpt><trkpt lat="43.77975281631046" lon="11.674608679240759"><ele>843.3333333333334</ele><time>2026-04-19T10:38:20.998Z</time></trkpt><trkpt lat="43.77967840111603" lon="11.674870755653522"><ele>842.0</ele><time>2026-04-19T10:38:21.998Z</time></trkpt><trkpt lat="43.77962565175863" lon="11.675154874492899"><ele>841.3333333333334</ele><time>2026-04-19T10:38:22.998Z</time></trkpt><trkpt lat="43.779587368134834" lon="11.675446918420503"><ele>840.6666666666667</ele><time>2026-04-19T10:38:23.998Z</time></trkpt><trkpt lat="43.77955043500011" lon="11.675718266924278"><ele>840.0</ele><time>2026-04-19T10:38:24.998Z</time></trkpt><trkpt lat="43.779520565507845" lon="11.675985857327008"><ele>839.0</ele><time>2026-04-19T10:38:25.998Z</time></trkpt><trkpt lat="43.779492043653505" lon="11.676252274538303"><ele>838.0</ele><time>2026-04-19T10:38:26.998Z</time></trkpt><trkpt lat="43.77944959207204" lon="11.676509533017963"><ele>837.0</ele><time>2026-04-19T10:38:27.998Z</time></trkpt><trkpt lat="43.779397754603075" lon="11.676759441947434"><ele>829.6666666666667</ele><time>2026-04-19T10:38:28.998Z</time></trkpt><trkpt lat="43.77934420146057" lon="11.676993562391818"><ele>822.3333333333334</ele><time>2026-04-19T10:38:29.998Z</time></trkpt><trkpt lat="43.77929458292573" lon="11.677214328976524"><ele>815.0</ele><time>2026-04-19T10:38:30.998Z</time></trkpt><trkpt lat="43.779247050869195" lon="11.677426837570097"><ele>815.0</ele><time>2026-04-19T10:38:31.998Z</time></trkpt><trkpt lat="43.779200811941216" lon="11.677630091270943"><ele>815.0</ele><time>2026-04-19T10:38:32.998Z</time></trkpt><trkpt lat="43.779159569834995" lon="11.677820582241619"><ele>815.0</ele><time>2026-04-19T10:38:33.998Z</time></trkpt><trkpt lat="43.77912535008059" lon="11.67800640525466"><ele>815.0</ele><time>2026-04-19T10:38:34.998Z</time></trkpt><trkpt lat="43.779082172717544" lon="11.678173552993673"><ele>815.5</ele><time>2026-04-19T10:38:35.998Z</time></trkpt><trkpt lat="43.77901028242273" lon="11.678317824731057"><ele>816.0</ele><time>2026-04-19T10:38:36.998Z</time></trkpt><trkpt lat="43.77890439430652" lon="11.678420778956175"><ele>816.5</ele><time>2026-04-19T10:38:37.998Z</time></trkpt><trkpt lat="43.778773904466846" lon="11.67847393966962"><ele>817.0</ele><time>2026-04-19T10:38:38.998Z</time></trkpt><trkpt lat="43.77863965141134" lon="11.678494380453307"><ele>814.0</ele><time>2026-04-19T10:38:39.998Z</time></trkpt><trkpt lat="43.77849917439061" lon="11.678514935952528"><ele>811.0</ele><time>2026-04-19T10:38:40.998Z</time></trkpt><trkpt lat="43.77836573021673" lon="11.678547108532813"><ele>808.0</ele><time>2026-04-19T10:38:41.998Z</time></trkpt><trkpt lat="43.77824685933224" lon="11.678575924442116"><ele>805.0</ele><time>2026-04-19T10:38:42.998Z</time></trkpt><trkpt lat="43.77814390228155" lon="11.678604044087292"><ele>805.0</ele><time>2026-04-19T10:38:43.998Z</time></trkpt><trkpt lat="43.77805309700236" lon="11.678649168922995"><ele>805.0</ele><time>2026-04-19T10:38:44.998Z</time></trkpt><trkpt lat="43.777971540136754" lon="11.678739235718183"><ele>805.0</ele><time>2026-04-19T10:38:45.998Z</time></trkpt><trkpt lat="43.777899780132074" lon="11.678884327533959"><ele>805.0</ele><time>2026-04-19T10:38:46.998Z</time></trkpt><trkpt lat="43.77784152606904" lon="11.679060890667152"><ele>805.0</ele><time>2026-04-19T10:38:47.998Z</time></trkpt><trkpt lat="43.77780249543621" lon="11.67924946504738"><ele>805.0</ele><time>2026-04-19T10:38:48.998Z</time></trkpt><trkpt lat="43.77778001184223" lon="11.679437667695785"><ele>805.0</ele><time>2026-04-19T10:38:49.998Z</time></trkpt><trkpt lat="43.77776624187428" lon="11.67963952316161"><ele>805.0</ele><time>2026-04-19T10:38:50.998Z</time></trkpt><trkpt lat="43.77776434629511" lon="11.679859465929146"><ele>804.0</ele><time>2026-04-19T10:38:51.998Z</time></trkpt><trkpt lat="43.777783142808296" lon="11.680099661609061"><ele>803.0</ele><time>2026-04-19T10:38:52.998Z</time></trkpt><trkpt lat="43.77782875846261" lon="11.680344105160087"><ele>802.0</ele><time>2026-04-19T10:38:53.998Z</time></trkpt><trkpt lat="43.777863195824125" lon="11.68061855641771"><ele>798.0</ele><time>2026-04-19T10:38:54.998Z</time></trkpt><trkpt lat="43.77790229626072" lon="11.680903566120572"><ele>794.0</ele><time>2026-04-19T10:38:55.998Z</time></trkpt><trkpt lat="43.777935769170405" lon="11.681165930489406"><ele>790.0</ele><time>2026-04-19T10:38:56.998Z</time></trkpt><trkpt lat="43.777978284566494" lon="11.681417346583535"><ele>787.6666666666666</ele><time>2026-04-19T10:38:57.998Z</time></trkpt><trkpt lat="43.777992137450475" lon="11.681661755909795"><ele>785.3333333333333</ele><time>2026-04-19T10:38:58.998Z</time></trkpt><trkpt lat="43.77800671896707" lon="11.681890289622004"><ele>783.0</ele><time>2026-04-19T10:38:59.998Z</time></trkpt><trkpt lat="43.77799179794395" lon="11.682111141085487"><ele>783.0</ele><time>2026-04-19T10:39:00.998Z</time></trkpt><trkpt lat="43.77794163704283" lon="11.682341847096422"><ele>783.0</ele><time>2026-04-19T10:39:01.998Z</time></trkpt><trkpt lat="43.77785917784088" lon="11.682582387426974"><ele>783.0</ele><time>2026-04-19T10:39:02.998Z</time></trkpt><trkpt lat="43.77774901280598" lon="11.682827327506534"><ele>778.0</ele><time>2026-04-19T10:39:03.998Z</time></trkpt><trkpt lat="43.77762389810391" lon="11.683047582210344"><ele>773.0</ele><time>2026-04-19T10:39:04.998Z</time></trkpt><trkpt lat="43.77750436268418" lon="11.683269293521066"><ele>768.0</ele><time>2026-04-19T10:39:05.998Z</time></trkpt><trkpt lat="43.777408117024116" lon="11.683490634863082"><ele>769.3333333333333</ele><time>2026-04-19T10:39:07Z</time></trkpt><trkpt lat="43.777338944171404" lon="11.683710727046929"><ele>770.6666666666666</ele><time>2026-04-19T10:39:08Z</time></trkpt><trkpt lat="43.77728110090513" lon="11.683927996831722"><ele>772.0</ele><time>2026-04-19T10:39:09Z</time></trkpt><trkpt lat="43.77719603392935" lon="11.684130861136142"><ele>772.0</ele><time>2026-04-19T10:39:10Z</time></trkpt><trkpt lat="43.777077709490506" lon="11.684289430888771"><ele>772.0</ele><time>2026-04-19T10:39:11Z</time></trkpt><trkpt lat="43.77696045348568" lon="11.68441972087246"><ele>772.0</ele><time>2026-04-19T10:39:12Z</time></trkpt><trkpt lat="43.77686496355859" lon="11.684599996919594"><ele>766.0</ele><time>2026-04-19T10:39:13Z</time></trkpt><trkpt lat="43.776786154130136" lon="11.684818697448971"><ele>760.0</ele><time>2026-04-19T10:39:14Z</time></trkpt><trkpt lat="43.7766993505361" lon="11.685029717938711"><ele>754.0</ele><time>2026-04-19T10:39:15Z</time></trkpt><trkpt lat="43.776584823770825" lon="11.685201722440565"><ele>755.3333333333334</ele><time>2026-04-19T10:39:16Z</time></trkpt><trkpt lat="43.77643625515414" lon="11.685320094556488"><ele>756.6666666666666</ele><time>2026-04-19T10:39:17Z</time></trkpt><trkpt lat="43.776259420625586" lon="11.685408424364772"><ele>758.0</ele><time>2026-04-19T10:39:18Z</time></trkpt><trkpt lat="43.77608326932681" lon="11.68547851387504"><ele>753.6666666666666</ele><time>2026-04-19T10:39:19Z</time></trkpt><trkpt lat="43.77590753511117" lon="11.685547269402614"><ele>749.3333333333334</ele><time>2026-04-19T10:39:20Z</time></trkpt><trkpt lat="43.775733174463525" lon="11.68565084498699"><ele>745.0</ele><time>2026-04-19T10:39:21Z</time></trkpt><trkpt lat="43.77556847633663" lon="11.6857903032365"><ele>745.0</ele><time>2026-04-19T10:39:22Z</time></trkpt><trkpt lat="43.775422243975825" lon="11.685943708357202"><ele>745.0</ele><time>2026-04-19T10:39:23Z</time></trkpt><trkpt lat="43.775296702728625" lon="11.686075027250505"><ele>745.0</ele><time>2026-04-19T10:39:24Z</time></trkpt><trkpt lat="43.7751877162206" lon="11.686178599134111"><ele>741.25</ele><time>2026-04-19T10:39:25Z</time></trkpt><trkpt lat="43.77508768305891" lon="11.686284145089386"><ele>737.5</ele><time>2026-04-19T10:39:26Z</time></trkpt><trkpt lat="43.77501284495977" lon="11.686415737439786"><ele>733.75</ele><time>2026-04-19T10:39:27Z</time></trkpt><trkpt lat="43.77497631296304" lon="11.686565996004802"><ele>730.0</ele><time>2026-04-19T10:39:28Z</time></trkpt><trkpt lat="43.7749798927781" lon="11.686738630204358"><ele>730.0</ele><time>2026-04-19T10:39:29Z</time></trkpt><trkpt lat="43.77501735338339" lon="11.686915997411404"><ele>730.0</ele><time>2026-04-19T10:39:30Z</time></trkpt><trkpt lat="43.77503043233463" lon="11.687105849564045"><ele>730.0</ele><time>2026-04-19T10:39:31Z</time></trkpt><trkpt lat="43.774990725609115" lon="11.68730042528213"><ele>730.0</ele><time>2026-04-19T10:39:32Z</time></trkpt><trkpt lat="43.77490543991796" lon="11.687491903095141"><ele>731.0</ele><time>2026-04-19T10:39:33Z</time></trkpt><trkpt lat="43.77480068718658" lon="11.687660309868463"><ele>732.0</ele><time>2026-04-19T10:39:34Z</time></trkpt><trkpt lat="43.774720280123766" lon="11.687855681161663"><ele>733.0</ele><time>2026-04-19T10:39:34.999Z</time></trkpt><trkpt lat="43.77467054600587" lon="11.688092159861583"><ele>734.3333333333334</ele><time>2026-04-19T10:39:35.999Z</time></trkpt><trkpt lat="43.77464632169568" lon="11.688353276778727"><ele>735.6666666666666</ele><time>2026-04-19T10:39:36.999Z</time></trkpt><trkpt lat="43.77465002364591" lon="11.688630270176466"><ele>737.0</ele><time>2026-04-19T10:39:37.999Z</time></trkpt><trkpt lat="43.77468301665337" lon="11.688890856628483"><ele>737.0</ele><time>2026-04-19T10:39:38.999Z</time></trkpt><trkpt lat="43.77469449056074" lon="11.689154172786752"><ele>737.0</ele><time>2026-04-19T10:39:39.999Z</time></trkpt><trkpt lat="43.77468184604901" lon="11.689409352570589"><ele>737.0</ele><time>2026-04-19T10:39:40.999Z</time></trkpt><trkpt lat="43.77468024397364" lon="11.68965190103615"><ele>733.0</ele><time>2026-04-19T10:39:41.999Z</time></trkpt><trkpt lat="43.77468064759053" lon="11.689887195624507"><ele>729.0</ele><time>2026-04-19T10:39:42.999Z</time></trkpt><trkpt lat="43.77467903718866" lon="11.690115876618876"><ele>725.0</ele><time>2026-04-19T10:39:43.999Z</time></trkpt><trkpt lat="43.77469633673632" lon="11.69035657308987"><ele>722.3333333333333</ele><time>2026-04-19T10:39:44.999Z</time></trkpt><trkpt lat="43.77473862986393" lon="11.69060505096598"><ele>719.6666666666666</ele><time>2026-04-19T10:39:45.999Z</time></trkpt><trkpt lat="43.77478740389492" lon="11.69082151758427"><ele>717.0</ele><time>2026-04-19T10:39:46.999Z</time></trkpt><trkpt lat="43.77482327759924" lon="11.69101504734941"><ele>714.6</ele><time>2026-04-19T10:39:47.999Z</time></trkpt><trkpt lat="43.774852859153185" lon="11.691179710781443"><ele>712.2</ele><time>2026-04-19T10:39:48.999Z</time></trkpt><trkpt lat="43.77488749021472" lon="11.691316725173577"><ele>709.8</ele><time>2026-04-19T10:39:49.999Z</time></trkpt><trkpt lat="43.77494182125727" lon="11.69143766647095"><ele>707.4</ele><time>2026-04-19T10:39:50.999Z</time></trkpt><trkpt lat="43.77501964156251" lon="11.69152118270917"><ele>705.0</ele><time>2026-04-19T10:39:51.999Z</time></trkpt><trkpt lat="43.77511905585162" lon="11.691579791313396"><ele>705.5</ele><time>2026-04-19T10:39:52.999Z</time></trkpt><trkpt lat="43.775239391154855" lon="11.691564365447757"><ele>706.0</ele><time>2026-04-19T10:39:53.999Z</time></trkpt><trkpt lat="43.77534717574518" lon="11.69145170383358"><ele>706.5</ele><time>2026-04-19T10:39:54.999Z</time></trkpt><trkpt lat="43.775452376800985" lon="11.691375858278864"><ele>707.0</ele><time>2026-04-19T10:39:55.999Z</time></trkpt><trkpt lat="43.77552701400048" lon="11.691295060742375"><ele>707.0</ele><time>2026-04-19T10:39:56.999Z</time></trkpt><trkpt lat="43.77562467006482" lon="11.691301232177011"><ele>707.0</ele><time>2026-04-19T10:39:57.999Z</time></trkpt><trkpt lat="43.775727193608304" lon="11.691373963083395"><ele>707.0</ele><time>2026-04-19T10:39:58.999Z</time></trkpt><trkpt lat="43.775803536956865" lon="11.691525241255235"><ele>707.0</ele><time>2026-04-19T10:39:59.999Z</time></trkpt><trkpt lat="43.77590207053715" lon="11.691665795128053"><ele>707.0</ele><time>2026-04-19T10:40:00.999Z</time></trkpt><trkpt lat="43.7760136061328" lon="11.691788947003756"><ele>707.0</ele><time>2026-04-19T10:40:01.999Z</time></trkpt><trkpt lat="43.77612665707295" lon="11.691862134247927"><ele>707.0</ele><time>2026-04-19T10:40:02.999Z</time></trkpt><trkpt lat="43.7762267175696" lon="11.691933332482932"><ele>707.0</ele><time>2026-04-19T10:40:03.999Z</time></trkpt><trkpt lat="43.77630230485344" lon="11.6920209650111"><ele>707.2</ele><time>2026-04-19T10:40:04.999Z</time></trkpt><trkpt lat="43.77635221947372" lon="11.69213087866356"><ele>707.4000000000001</ele><time>2026-04-19T10:40:05.999Z</time></trkpt><trkpt lat="43.77636395598006" lon="11.692253222821341"><ele>707.5999999999999</ele><time>2026-04-19T10:40:06.999Z</time></trkpt><trkpt lat="43.776358787306165" lon="11.692376825935176"><ele>707.8</ele><time>2026-04-19T10:40:07.999Z</time></trkpt><trkpt lat="43.776342308279176" lon="11.692506460712806"><ele>708.0</ele><time>2026-04-19T10:40:08.999Z</time></trkpt><trkpt lat="43.776300887755724" lon="11.692636044029197"><ele>707.2</ele><time>2026-04-19T10:40:09.999Z</time></trkpt><trkpt lat="43.77623859392691" lon="11.692763620359646"><ele>706.4</ele><time>2026-04-19T10:40:10.999Z</time></trkpt><trkpt lat="43.776175457355386" lon="11.692877725098677"><ele>705.6</ele><time>2026-04-19T10:40:11.999Z</time></trkpt><trkpt lat="43.77611699757077" lon="11.692978033950755"><ele>704.8000000000001</ele><time>2026-04-19T10:40:12.999Z</time></trkpt><trkpt lat="43.77606317689551" lon="11.693069354170815"><ele>704.0</ele><time>2026-04-19T10:40:13.999Z</time></trkpt><trkpt lat="43.776005717519524" lon="11.6931610105192"><ele>702.6</ele><time>2026-04-19T10:40:14.999Z</time></trkpt><trkpt lat="43.77594042789304" lon="11.69325902409091"><ele>701.2</ele><time>2026-04-19T10:40:15.999Z</time></trkpt><trkpt lat="43.77587677322291" lon="11.693360463625432"><ele>699.8000000000001</ele><time>2026-04-19T10:40:16.999Z</time></trkpt><trkpt lat="43.775821721207" lon="11.693452941442308"><ele>698.4000000000001</ele><time>2026-04-19T10:40:17.999Z</time></trkpt><trkpt lat="43.775757124908495" lon="11.69360188878149"><ele>697.0</ele><time>2026-04-19T10:40:18.999Z</time></trkpt><trkpt lat="43.775687862577094" lon="11.693801820633796"><ele>697.0</ele><time>2026-04-19T10:40:19.999Z</time></trkpt><trkpt lat="43.77561993718455" lon="11.69402861488341"><ele>697.0</ele><time>2026-04-19T10:40:20.999Z</time></trkpt><trkpt lat="43.77557205102785" lon="11.694265991919533"><ele>697.0</ele><time>2026-04-19T10:40:21.999Z</time></trkpt><trkpt lat="43.775551780567554" lon="11.694525872423474"><ele>695.0</ele><time>2026-04-19T10:40:22.999Z</time></trkpt><trkpt lat="43.7755554758776" lon="11.694782043384906"><ele>693.0</ele><time>2026-04-19T10:40:23.999Z</time></trkpt><trkpt lat="43.775579618197874" lon="11.695020405193592"><ele>691.0</ele><time>2026-04-19T10:40:24.999Z</time></trkpt><trkpt lat="43.77563035033025" lon="11.695233551521333"><ele>689.3333333333334</ele><time>2026-04-19T10:40:25.999Z</time></trkpt><trkpt lat="43.775703637351064" lon="11.695423912130934"><ele>687.6666666666666</ele><time>2026-04-19T10:40:26.999Z</time></trkpt><trkpt lat="43.77577541551716" lon="11.695618431433036"><ele>686.0</ele><time>2026-04-19T10:40:27.999Z</time></trkpt><trkpt lat="43.77581482331772" lon="11.695856771350877"><ele>683.0</ele><time>2026-04-19T10:40:28.998Z</time></trkpt><trkpt lat="43.77583239784675" lon="11.696091270943333"><ele>680.0</ele><time>2026-04-19T10:40:29.998Z</time></trkpt><trkpt lat="43.7758420598364" lon="11.69629992484075"><ele>677.0</ele><time>2026-04-19T10:40:30.998Z</time></trkpt><trkpt lat="43.77583210764031" lon="11.696494079679175"><ele>677.0</ele><time>2026-04-19T10:40:31.998Z</time></trkpt><trkpt lat="43.77578783747958" lon="11.69668465944651"><ele>677.0</ele><time>2026-04-19T10:40:32.998Z</time></trkpt><trkpt lat="43.7757087383696" lon="11.696829283513418"><ele>677.0</ele><time>2026-04-19T10:40:33.998Z</time></trkpt><trkpt lat="43.77559438149337" lon="11.696939912319435"><ele>677.0</ele><time>2026-04-19T10:40:34.998Z</time></trkpt><trkpt lat="43.77545095863794" lon="11.696996290747792"><ele>674.75</ele><time>2026-04-19T10:40:35.998Z</time></trkpt><trkpt lat="43.77531831257927" lon="11.6970490408291"><ele>672.5</ele><time>2026-04-19T10:40:36.998Z</time></trkpt><trkpt lat="43.775207436536576" lon="11.697158899683043"><ele>670.25</ele><time>2026-04-19T10:40:37.998Z</time></trkpt><trkpt lat="43.77511033077828" lon="11.697292495092311"><ele>668.0</ele><time>2026-04-19T10:40:38.998Z</time></trkpt><trkpt lat="43.77501179470769" lon="11.697392724621709"><ele>668.0</ele><time>2026-04-19T10:40:39.998Z</time></trkpt><trkpt lat="43.77489350400163" lon="11.697442959211122"><ele>668.0</ele><time>2026-04-19T10:40:40.998Z</time></trkpt><trkpt lat="43.77476216933775" lon="11.69744683697827"><ele>668.0</ele><time>2026-04-19T10:40:41.998Z</time></trkpt><trkpt lat="43.774636782451594" lon="11.69738938925022"><ele>668.0</ele><time>2026-04-19T10:40:42.998Z</time></trkpt><trkpt lat="43.77452599228295" lon="11.697279855913457"><ele>668.0</ele><time>2026-04-19T10:40:43.998Z</time></trkpt><trkpt lat="43.77443054738161" lon="11.69712549472716"><ele>668.0</ele><time>2026-04-19T10:40:44.998Z</time></trkpt><trkpt lat="43.77435610506702" lon="11.696963147950358"><ele>668.0</ele><time>2026-04-19T10:40:45.998Z</time></trkpt><trkpt lat="43.774309761203426" lon="11.696793832089543"><ele>668.0</ele><time>2026-04-19T10:40:46.998Z</time></trkpt><trkpt lat="43.77431427259693" lon="11.696603741482285"><ele>664.3333333333333</ele><time>2026-04-19T10:40:47.998Z</time></trkpt><trkpt lat="43.77432381628609" lon="11.696385193576402"><ele>660.6666666666666</ele><time>2026-04-19T10:40:48.998Z</time></trkpt><trkpt lat="43.77432357194838" lon="11.69614459011665"><ele>657.0</ele><time>2026-04-19T10:40:49.998Z</time></trkpt><trkpt lat="43.77435664207057" lon="11.69587340458606"><ele>666.6666666666666</ele><time>2026-04-19T10:40:50.998Z</time></trkpt><trkpt lat="43.77437558431357" lon="11.695588671983696"><ele>676.3333333333333</ele><time>2026-04-19T10:40:51.998Z</time></trkpt><trkpt lat="43.774393544308175" lon="11.695323898492022"><ele>686.0</ele><time>2026-04-19T10:40:52.998Z</time></trkpt><trkpt lat="43.774422679667154" lon="11.695079118959276"><ele>686.0</ele><time>2026-04-19T10:40:53.998Z</time></trkpt><trkpt lat="43.7744592325921" lon="11.694849623787466"><ele>686.0</ele><time>2026-04-19T10:40:54.998Z</time></trkpt><trkpt lat="43.77449604252949" lon="11.694649683243558"><ele>686.0</ele><time>2026-04-19T10:40:55.998Z</time></trkpt><trkpt lat="43.77454036702376" lon="11.694480655963629"><ele>686.0</ele><time>2026-04-19T10:40:56.998Z</time></trkpt><trkpt lat="43.77457274830866" lon="11.694332018408856"><ele>684.8</ele><time>2026-04-19T10:40:57.998Z</time></trkpt><trkpt lat="43.774607704646456" lon="11.694204041292355"><ele>683.5999999999999</ele><time>2026-04-19T10:40:58.998Z</time></trkpt><trkpt lat="43.774620740916724" lon="11.694083913058908"><ele>682.4</ele><time>2026-04-19T10:40:59.998Z</time></trkpt><trkpt lat="43.774554314348144" lon="11.69398750548992"><ele>681.2</ele><time>2026-04-19T10:41:00.998Z</time></trkpt><trkpt lat="43.77447527017951" lon="11.693929705538837"><ele>680.0</ele><time>2026-04-19T10:41:01.998Z</time></trkpt><trkpt lat="43.77438736604726" lon="11.693935341918136"><ele>677.5</ele><time>2026-04-19T10:41:02.998Z</time></trkpt><trkpt lat="43.77430623933764" lon="11.694005927247254"><ele>675.0</ele><time>2026-04-19T10:41:03.998Z</time></trkpt><trkpt lat="43.77423843359734" lon="11.694128995128805"><ele>672.5</ele><time>2026-04-19T10:41:04.998Z</time></trkpt><trkpt lat="43.77417811081174" lon="11.69429852313666"><ele>670.0</ele><time>2026-04-19T10:41:05.998Z</time></trkpt><trkpt lat="43.77410670141672" lon="11.69451108511194"><ele>667.0</ele><time>2026-04-19T10:41:06.998Z</time></trkpt><trkpt lat="43.77402418446952" lon="11.694720493322817"><ele>664.0</ele><time>2026-04-19T10:41:07.998Z</time></trkpt><trkpt lat="43.773926189126215" lon="11.694912000291248"><ele>661.0</ele><time>2026-04-19T10:41:08.998Z</time></trkpt><trkpt lat="43.77382388773225" lon="11.695062129744246"><ele>661.0</ele><time>2026-04-19T10:41:09.998Z</time></trkpt><trkpt lat="43.773737729417434" lon="11.69517439454354"><ele>661.0</ele><time>2026-04-19T10:41:10.998Z</time></trkpt><trkpt lat="43.773659369901885" lon="11.695257434190339"><ele>661.0</ele><time>2026-04-19T10:41:11.998Z</time></trkpt><trkpt lat="43.77358265796061" lon="11.695305836919822"><ele>661.0</ele><time>2026-04-19T10:41:13Z</time></trkpt><trkpt lat="43.77350914613153" lon="11.695296147066175"><ele>661.0</ele><time>2026-04-19T10:41:14Z</time></trkpt><trkpt lat="43.77345007096629" lon="11.695229769103008"><ele>658.1999999999999</ele><time>2026-04-19T10:41:15Z</time></trkpt><trkpt lat="43.77342522355617" lon="11.695096813578362"><ele>655.4</ele><time>2026-04-19T10:41:16Z</time></trkpt><trkpt lat="43.77340087643097" lon="11.69495028909565"><ele>652.6</ele><time>2026-04-19T10:41:17Z</time></trkpt><trkpt lat="43.773380820952255" lon="11.69479476447785"><ele>649.8</ele><time>2026-04-19T10:41:18Z</time></trkpt><trkpt lat="43.773331899381866" lon="11.694644604975288"><ele>647.0</ele><time>2026-04-19T10:41:19Z</time></trkpt><trkpt lat="43.773254532645915" lon="11.694526018913308"><ele>647.0</ele><time>2026-04-19T10:41:20Z</time></trkpt><trkpt lat="43.773152435669715" lon="11.69445457711342"><ele>647.0</ele><time>2026-04-19T10:41:21Z</time></trkpt><trkpt lat="43.773021106965814" lon="11.694415319930071"><ele>647.0</ele><time>2026-04-19T10:41:22Z</time></trkpt><trkpt lat="43.772878733769474" lon="11.694401089385186"><ele>647.0</ele><time>2026-04-19T10:41:23Z</time></trkpt><trkpt lat="43.77276555706452" lon="11.694377428855518"><ele>644.6</ele><time>2026-04-19T10:41:24Z</time></trkpt><trkpt lat="43.77266824906774" lon="11.694330488185194"><ele>642.2</ele><time>2026-04-19T10:41:25Z</time></trkpt><trkpt lat="43.77258744167016" lon="11.694245448267653"><ele>639.8</ele><time>2026-04-19T10:41:26Z</time></trkpt><trkpt lat="43.77253982352949" lon="11.694123906954715"><ele>637.4</ele><time>2026-04-19T10:41:27Z</time></trkpt><trkpt lat="43.77252402298101" lon="11.693959204351684"><ele>635.0</ele><time>2026-04-19T10:41:28Z</time></trkpt><trkpt lat="43.772565867004" lon="11.693780929230993"><ele>635.0</ele><time>2026-04-19T10:41:29Z</time></trkpt><trkpt lat="43.772573566075884" lon="11.693612547497112"><ele>635.0</ele><time>2026-04-19T10:41:30Z</time></trkpt><trkpt lat="43.77258700010011" lon="11.69346713275989"><ele>635.0</ele><time>2026-04-19T10:41:31Z</time></trkpt><trkpt lat="43.772575809501866" lon="11.693334659704307"><ele>635.0</ele><time>2026-04-19T10:41:32Z</time></trkpt><trkpt lat="43.77252504758746" lon="11.693228370120003"><ele>635.0</ele><time>2026-04-19T10:41:33Z</time></trkpt><trkpt lat="43.772444466765116" lon="11.69315969737378"><ele>635.0</ele><time>2026-04-19T10:41:34Z</time></trkpt><trkpt lat="43.77235527055966" lon="11.693150271651954"><ele>635.0</ele><time>2026-04-19T10:41:35Z</time></trkpt><trkpt lat="43.77226160490193" lon="11.693165961822315"><ele>635.0</ele><time>2026-04-19T10:41:36Z</time></trkpt><trkpt lat="43.77219169764063" lon="11.69329566052707"><ele>635.0</ele><time>2026-04-19T10:41:37Z</time></trkpt><trkpt lat="43.77214526025542" lon="11.693449264726775"><ele>635.0</ele><time>2026-04-19T10:41:38Z</time></trkpt><trkpt lat="43.772115623508626" lon="11.693637417963597"><ele>635.0</ele><time>2026-04-19T10:41:39Z</time></trkpt><trkpt lat="43.77205583099294" lon="11.693819678239908"><ele>635.0</ele><time>2026-04-19T10:41:40Z</time></trkpt><trkpt lat="43.771956471685485" lon="11.69400001753392"><ele>635.0</ele><time>2026-04-19T10:41:41Z</time></trkpt><trkpt lat="43.77182894009755" lon="11.694162466636369"><ele>630.3333333333333</ele><time>2026-04-19T10:41:42Z</time></trkpt><trkpt lat="43.77168515525477" lon="11.694325066063097"><ele>625.6666666666666</ele><time>2026-04-19T10:41:43Z</time></trkpt><trkpt lat="43.7715559629339" lon="11.69445917179075"><ele>621.0</ele><time>2026-04-19T10:41:44Z</time></trkpt><trkpt lat="43.77144424416707" lon="11.694576785677086"><ele>620.75</ele><time>2026-04-19T10:41:45Z</time></trkpt><trkpt lat="43.77136251941566" lon="11.69471091421968"><ele>620.5</ele><time>2026-04-19T10:41:46Z</time></trkpt><trkpt lat="43.77130353517665" lon="11.694897455743721"><ele>620.25</ele><time>2026-04-19T10:41:47Z</time></trkpt><trkpt lat="43.771270638104404" lon="11.69513189927756"><ele>620.0</ele><time>2026-04-19T10:41:47.999Z</time></trkpt><trkpt lat="43.77124559012749" lon="11.695388250833554"><ele>619.3333333333333</ele><time>2026-04-19T10:41:48.999Z</time></trkpt><trkpt lat="43.77119284556682" lon="11.695643640616845"><ele>618.6666666666666</ele><time>2026-04-19T10:41:49.999Z</time></trkpt><trkpt lat="43.771125560955134" lon="11.695874993183482"><ele>618.0</ele><time>2026-04-19T10:41:50.999Z</time></trkpt><trkpt lat="43.77106003413291" lon="11.696099888029439"><ele>612.75</ele><time>2026-04-19T10:41:51.999Z</time></trkpt><trkpt lat="43.77100727125971" lon="11.696309139587406"><ele>607.5</ele><time>2026-04-19T10:41:52.999Z</time></trkpt><trkpt lat="43.77096839876959" lon="11.696489375458048"><ele>602.25</ele><time>2026-04-19T10:41:53.999Z</time></trkpt><trkpt lat="43.77094709694347" lon="11.69667999954496"><ele>597.0</ele><time>2026-04-19T10:41:54.999Z</time></trkpt><trkpt lat="43.7709651067341" lon="11.696906145614383"><ele>597.0</ele><time>2026-04-19T10:41:55.999Z</time></trkpt><trkpt lat="43.77101320151413" lon="11.697137432993026"><ele>597.0</ele><time>2026-04-19T10:41:56.999Z</time></trkpt><trkpt lat="43.771050026573796" lon="11.697365731411724"><ele>597.0</ele><time>2026-04-19T10:41:57.999Z</time></trkpt><trkpt lat="43.77105563334719" lon="11.697589759066204"><ele>594.6666666666666</ele><time>2026-04-19T10:41:58.999Z</time></trkpt><trkpt lat="43.77102777695947" lon="11.697807057124201"><ele>592.3333333333333</ele><time>2026-04-19T10:41:59.999Z</time></trkpt><trkpt lat="43.77096804978185" lon="11.697998309851409"><ele>590.0</ele><time>2026-04-19T10:42:00.999Z</time></trkpt><trkpt lat="43.770877474676084" lon="11.698175658637112"><ele>589.3333333333333</ele><time>2026-04-19T10:42:01.999Z</time></trkpt><trkpt lat="43.77075486208105" lon="11.698358918912026"><ele>588.6666666666666</ele><time>2026-04-19T10:42:02.999Z</time></trkpt><trkpt lat="43.77060376758912" lon="11.698540158353776"><ele>588.0</ele><time>2026-04-19T10:42:03.999Z</time></trkpt><trkpt lat="43.770443134046545" lon="11.698702915712207"><ele>585.3333333333334</ele><time>2026-04-19T10:42:04.999Z</time></trkpt><trkpt lat="43.77029206215793" lon="11.698853948537659"><ele>582.6666666666667</ele><time>2026-04-19T10:42:05.999Z</time></trkpt><trkpt lat="43.770159985603605" lon="11.699035181869247"><ele>580.0</ele><time>2026-04-19T10:42:06.999Z</time></trkpt><trkpt lat="43.77004917687726" lon="11.699267826699616"><ele>577.3333333333334</ele><time>2026-04-19T10:42:07.999Z</time></trkpt><trkpt lat="43.76995257237645" lon="11.699544218926285"><ele>574.6666666666666</ele><time>2026-04-19T10:42:08.999Z</time></trkpt><trkpt lat="43.76986607646624" lon="11.699809499078448"><ele>572.0</ele><time>2026-04-19T10:42:09.999Z</time></trkpt><trkpt lat="43.76978894206368" lon="11.700049960881842"><ele>569.0</ele><time>2026-04-19T10:42:10.999Z</time></trkpt><trkpt lat="43.769710139951336" lon="11.700269075452226"><ele>566.0</ele><time>2026-04-19T10:42:11.999Z</time></trkpt><trkpt lat="43.76960750235904" lon="11.700467494278595"><ele>563.0</ele><time>2026-04-19T10:42:12.999Z</time></trkpt><trkpt lat="43.76947000428486" lon="11.700660848498421"><ele>562.3333333333333</ele><time>2026-04-19T10:42:13.999Z</time></trkpt><trkpt lat="43.769311117239006" lon="11.700861263322711"><ele>561.6666666666666</ele><time>2026-04-19T10:42:14.999Z</time></trkpt><trkpt lat="43.76914646284861" lon="11.70106813093241"><ele>561.0</ele><time>2026-04-19T10:42:15.999Z</time></trkpt><trkpt lat="43.76898119301939" lon="11.701272892229998"><ele>561.0</ele><time>2026-04-19T10:42:16.999Z</time></trkpt><trkpt lat="43.768810468282304" lon="11.701478152247478"><ele>561.0</ele><time>2026-04-19T10:42:17.999Z</time></trkpt><trkpt lat="43.76863698157149" lon="11.701679725424123"><ele>560.6666666666666</ele><time>2026-04-19T10:42:18.999Z</time></trkpt><trkpt lat="43.768465242276356" lon="11.701879028806813"><ele>560.3333333333333</ele><time>2026-04-19T10:42:19.999Z</time></trkpt><trkpt lat="43.76830279638514" lon="11.702064542396664"><ele>560.0</ele><time>2026-04-19T10:42:20.999Z</time></trkpt><trkpt lat="43.76814353654196" lon="11.702243494824005"><ele>561.3333333333333</ele><time>2026-04-19T10:42:21.999Z</time></trkpt><trkpt lat="43.767993431008236" lon="11.702411133935989"><ele>562.6666666666666</ele><time>2026-04-19T10:42:22.999Z</time></trkpt><trkpt lat="43.76784891735334" lon="11.702568938611359"><ele>564.0</ele><time>2026-04-19T10:42:23.999Z</time></trkpt><trkpt lat="43.7677072971566" lon="11.702714283232881"><ele>562.3333333333334</ele><time>2026-04-19T10:42:24.999Z</time></trkpt><trkpt lat="43.76755709128082" lon="11.702835383670024"><ele>560.6666666666667</ele><time>2026-04-19T10:42:25.999Z</time></trkpt><trkpt lat="43.767385568763544" lon="11.70292833513556"><ele>559.0</ele><time>2026-04-19T10:42:26.999Z</time></trkpt><trkpt lat="43.76720007985503" lon="11.7029772876624"><ele>559.0</ele><time>2026-04-19T10:42:27.999Z</time></trkpt><trkpt lat="43.76700963555291" lon="11.702977401798652"><ele>559.0</ele><time>2026-04-19T10:42:28.999Z</time></trkpt><trkpt lat="43.76683094423882" lon="11.702938575494185"><ele>559.0</ele><time>2026-04-19T10:42:29.999Z</time></trkpt><trkpt lat="43.7666822455384" lon="11.702870092984055"><ele>559.0</ele><time>2026-04-19T10:42:30.999Z</time></trkpt><trkpt lat="43.76655080088671" lon="11.702789703142553"><ele>559.0</ele><time>2026-04-19T10:42:31.999Z</time></trkpt><trkpt lat="43.76642155124106" lon="11.702750944562315"><ele>559.0</ele><time>2026-04-19T10:42:32.999Z</time></trkpt><trkpt lat="43.766294883237826" lon="11.702762815665556"><ele>559.0</ele><time>2026-04-19T10:42:33.999Z</time></trkpt><trkpt lat="43.76617368690189" lon="11.70282072819427"><ele>559.0</ele><time>2026-04-19T10:42:34.999Z</time></trkpt><trkpt lat="43.76606210639572" lon="11.702929756695125"><ele>559.0</ele><time>2026-04-19T10:42:35.999Z</time></trkpt><trkpt lat="43.76597890943244" lon="11.70307693378139"><ele>559.0</ele><time>2026-04-19T10:42:36.999Z</time></trkpt><trkpt lat="43.765932052891884" lon="11.703256870992407"><ele>559.0</ele><time>2026-04-19T10:42:37.999Z</time></trkpt><trkpt lat="43.76591725679688" lon="11.7034702052488"><ele>554.6666666666667</ele><time>2026-04-19T10:42:38.999Z</time></trkpt><trkpt lat="43.76591754203342" lon="11.703702229023808"><ele>550.3333333333334</ele><time>2026-04-19T10:42:39.999Z</time></trkpt><trkpt lat="43.76589828658441" lon="11.703939900609594"><ele>546.0</ele><time>2026-04-19T10:42:40.999Z</time></trkpt><trkpt lat="43.76584431212478" lon="11.704164674861737"><ele>546.0</ele><time>2026-04-19T10:42:41.999Z</time></trkpt><trkpt lat="43.76575576179589" lon="11.704385297512465"><ele>546.0</ele><time>2026-04-19T10:42:42.998Z</time></trkpt><trkpt lat="43.76563632724859" lon="11.704606931631918"><ele>546.0</ele><time>2026-04-19T10:42:43.998Z</time></trkpt><trkpt lat="43.7654879819891" lon="11.704828473591267"><ele>546.0</ele><time>2026-04-19T10:42:44.998Z</time></trkpt><trkpt lat="43.76532813567942" lon="11.705030617018704"><ele>546.0</ele><time>2026-04-19T10:42:45.998Z</time></trkpt><trkpt lat="43.76514786645321" lon="11.705223791541105"><ele>546.0</ele><time>2026-04-19T10:42:46.998Z</time></trkpt><trkpt lat="43.764950260376345" lon="11.705402623060463"><ele>543.0</ele><time>2026-04-19T10:42:47.998Z</time></trkpt><trkpt lat="43.76475235593499" lon="11.705561583506375"><ele>540.0</ele><time>2026-04-19T10:42:48.998Z</time></trkpt><trkpt lat="43.76455092844865" lon="11.705726248813331"><ele>532.0</ele><time>2026-04-19T10:42:49.998Z</time></trkpt><trkpt lat="43.76435312928179" lon="11.705899639818417"><ele>524.0</ele><time>2026-04-19T10:42:50.998Z</time></trkpt><trkpt lat="43.76416611436014" lon="11.706062702771098"><ele>528.3333333333333</ele><time>2026-04-19T10:42:51.998Z</time></trkpt><trkpt lat="43.76398725171211" lon="11.706211777993621"><ele>532.6666666666666</ele><time>2026-04-19T10:42:52.998Z</time></trkpt><trkpt lat="43.763812324320256" lon="11.706353015649"><ele>537.0</ele><time>2026-04-19T10:42:53.998Z</time></trkpt><trkpt lat="43.76364112246611" lon="11.706513610807335"><ele>534.6666666666666</ele><time>2026-04-19T10:42:54.998Z</time></trkpt><trkpt lat="43.76348402497462" lon="11.706712119239542"><ele>532.3333333333333</ele><time>2026-04-19T10:42:55.998Z</time></trkpt><trkpt lat="43.76332875867104" lon="11.706935665859728"><ele>530.0</ele><time>2026-04-19T10:42:56.998Z</time></trkpt><trkpt lat="43.763175085989815" lon="11.707156642055724"><ele>530.0</ele><time>2026-04-19T10:42:57.998Z</time></trkpt><trkpt lat="43.76303622864515" lon="11.70735308708588"><ele>530.0</ele><time>2026-04-19T10:42:58.998Z</time></trkpt><trkpt lat="43.762909690704" lon="11.70753019731954"><ele>530.0</ele><time>2026-04-19T10:42:59.998Z</time></trkpt><trkpt lat="43.762795601074785" lon="11.707695141310978"><ele>529.3333333333333</ele><time>2026-04-19T10:43:00.998Z</time></trkpt><trkpt lat="43.762704668611065" lon="11.707882041007252"><ele>528.6666666666666</ele><time>2026-04-19T10:43:01.998Z</time></trkpt><trkpt lat="43.7626279151374" lon="11.708113992848569"><ele>528.0</ele><time>2026-04-19T10:43:02.998Z</time></trkpt><trkpt lat="43.762562391579635" lon="11.708342142992695"><ele>525.75</ele><time>2026-04-19T10:43:03.998Z</time></trkpt><trkpt lat="43.762498742928365" lon="11.708541395627904"><ele>523.5</ele><time>2026-04-19T10:43:04.998Z</time></trkpt><trkpt lat="43.76242583357498" lon="11.708717071210373"><ele>521.25</ele><time>2026-04-19T10:43:05.998Z</time></trkpt><trkpt lat="43.76232879239537" lon="11.7088631438117"><ele>519.0</ele><time>2026-04-19T10:43:06.998Z</time></trkpt><trkpt lat="43.76220804028146" lon="11.708973297115858"><ele>518.3333333333334</ele><time>2026-04-19T10:43:07.998Z</time></trkpt><trkpt lat="43.762052869878" lon="11.709043937772591"><ele>517.6666666666667</ele><time>2026-04-19T10:43:08.998Z</time></trkpt><trkpt lat="43.76186585459373" lon="11.709081238773537"><ele>517.0</ele><time>2026-04-19T10:43:09.998Z</time></trkpt><trkpt lat="43.76165998417899" lon="11.709122854712273"><ele>515.0</ele><time>2026-04-19T10:43:10.998Z</time></trkpt><trkpt lat="43.7614536367418" lon="11.70917710088669"><ele>513.0</ele><time>2026-04-19T10:43:11.998Z</time></trkpt><trkpt lat="43.76125145049079" lon="11.709241890904407"><ele>511.0</ele><time>2026-04-19T10:43:12.998Z</time></trkpt><trkpt lat="43.7610627564653" lon="11.709336008964533"><ele>509.6666666666667</ele><time>2026-04-19T10:43:13.998Z</time></trkpt><trkpt lat="43.7608899251065" lon="11.709433794253078"><ele>508.33333333333337</ele><time>2026-04-19T10:43:14.998Z</time></trkpt><trkpt lat="43.76073278209167" lon="11.709533526300449"><ele>507.0</ele><time>2026-04-19T10:43:15.998Z</time></trkpt><trkpt lat="43.76058015254358" lon="11.709631504163054"><ele>507.0</ele><time>2026-04-19T10:43:16.998Z</time></trkpt><trkpt lat="43.76043448875686" lon="11.70975241973155"><ele>507.0</ele><time>2026-04-19T10:43:17.998Z</time></trkpt><trkpt lat="43.76029808325734" lon="11.709921304395428"><ele>507.0</ele><time>2026-04-19T10:43:19Z</time></trkpt><trkpt lat="43.760169303885185" lon="11.710096624122947"><ele>503.66666666666663</ele><time>2026-04-19T10:43:20Z</time></trkpt><trkpt lat="43.76004457076863" lon="11.710282491274599"><ele>500.3333333333333</ele><time>2026-04-19T10:43:21Z</time></trkpt><trkpt lat="43.7599390800825" lon="11.710505440350595"><ele>497.0</ele><time>2026-04-19T10:43:22Z</time></trkpt><trkpt lat="43.75984449486794" lon="11.710765855275632"><ele>497.0</ele><time>2026-04-19T10:43:23Z</time></trkpt><trkpt lat="43.75974889647294" lon="11.71103242338426"><ele>497.0</ele><time>2026-04-19T10:43:24Z</time></trkpt><trkpt lat="43.759647238949356" lon="11.711293831073288"><ele>497.0</ele><time>2026-04-19T10:43:25Z</time></trkpt><trkpt lat="43.75955021970786" lon="11.711566396191559"><ele>499.0</ele><time>2026-04-19T10:43:26Z</time></trkpt><trkpt lat="43.759467095658586" lon="11.71186752315183"><ele>501.0</ele><time>2026-04-19T10:43:27Z</time></trkpt><trkpt lat="43.7593898541506" lon="11.712171770448844"><ele>499.0</ele><time>2026-04-19T10:43:28Z</time></trkpt><trkpt lat="43.75931676630656" lon="11.712450776457656"><ele>497.0</ele><time>2026-04-19T10:43:29Z</time></trkpt><trkpt lat="43.75924904776037" lon="11.71269383473227"><ele>495.0</ele><time>2026-04-19T10:43:30Z</time></trkpt><trkpt lat="43.75917910628955" lon="11.71291756134724"><ele>495.0</ele><time>2026-04-19T10:43:31Z</time></trkpt><trkpt lat="43.759081779502864" lon="11.71311833684462"><ele>495.0</ele><time>2026-04-19T10:43:32Z</time></trkpt><trkpt lat="43.75896192398373" lon="11.713283731319997"><ele>495.0</ele><time>2026-04-19T10:43:33Z</time></trkpt><trkpt lat="43.758850177226634" lon="11.713411660854215"><ele>495.0</ele><time>2026-04-19T10:43:34Z</time></trkpt><trkpt lat="43.758780753358025" lon="11.713563733020292"><ele>495.0</ele><time>2026-04-19T10:43:35Z</time></trkpt><trkpt lat="43.758746996653834" lon="11.713767509832374"><ele>495.0</ele><time>2026-04-19T10:43:36Z</time></trkpt><trkpt lat="43.75871218691113" lon="11.714003880293948"><ele>497.33333333333337</ele><time>2026-04-19T10:43:37Z</time></trkpt><trkpt lat="43.75866332181688" lon="11.714241207941573"><ele>499.6666666666667</ele><time>2026-04-19T10:43:38Z</time></trkpt><trkpt lat="43.758622409726016" lon="11.714462579145634"><ele>502.0</ele><time>2026-04-19T10:43:39Z</time></trkpt><trkpt lat="43.75861241563921" lon="11.71467507399592"><ele>502.0</ele><time>2026-04-19T10:43:40Z</time></trkpt><trkpt lat="43.758643857042806" lon="11.714915184509602"><ele>502.0</ele><time>2026-04-19T10:43:41Z</time></trkpt><trkpt lat="43.758690918510474" lon="11.71515615883239"><ele>502.0</ele><time>2026-04-19T10:43:42Z</time></trkpt><trkpt lat="43.75871857535828" lon="11.71537042766427"><ele>501.33333333333337</ele><time>2026-04-19T10:43:43Z</time></trkpt><trkpt lat="43.75871685675589" lon="11.715580313785743"><ele>500.66666666666663</ele><time>2026-04-19T10:43:44Z</time></trkpt><trkpt lat="43.75867271142655" lon="11.715796049431267"><ele>500.0</ele><time>2026-04-19T10:43:45Z</time></trkpt><trkpt lat="43.758591176031736" lon="11.716021176025416"><ele>496.0</ele><time>2026-04-19T10:43:46Z</time></trkpt><trkpt lat="43.75848941810131" lon="11.716231900442736"><ele>492.0</ele><time>2026-04-19T10:43:47Z</time></trkpt><trkpt lat="43.758356850500064" lon="11.716432418899512"><ele>488.0</ele><time>2026-04-19T10:43:48Z</time></trkpt><trkpt lat="43.75820679761003" lon="11.716625310559726"><ele>488.0</ele><time>2026-04-19T10:43:49Z</time></trkpt><trkpt lat="43.758040391966844" lon="11.71680449739832"><ele>488.0</ele><time>2026-04-19T10:43:50Z</time></trkpt><trkpt lat="43.75785176955015" lon="11.716938179494399"><ele>488.0</ele><time>2026-04-19T10:43:51Z</time></trkpt><trkpt lat="43.75766611683161" lon="11.71703289044433"><ele>485.0</ele><time>2026-04-19T10:43:52Z</time></trkpt><trkpt lat="43.75749380920759" lon="11.717151974963135"><ele>482.0</ele><time>2026-04-19T10:43:53Z</time></trkpt><trkpt lat="43.757336145851" lon="11.717269094253846"><ele>479.0</ele><time>2026-04-19T10:43:54Z</time></trkpt><trkpt lat="43.75718064845184" lon="11.717342461573672"><ele>479.0</ele><time>2026-04-19T10:43:55Z</time></trkpt><trkpt lat="43.75701383380864" lon="11.717359926714012"><ele>479.0</ele><time>2026-04-19T10:43:56Z</time></trkpt><trkpt lat="43.75683928126567" lon="11.717337470682168"><ele>479.0</ele><time>2026-04-19T10:43:57Z</time></trkpt><trkpt lat="43.75667259137238" lon="11.717324988855779"><ele>475.3333333333333</ele><time>2026-04-19T10:43:57.999Z</time></trkpt><trkpt lat="43.75648482539458" lon="11.717366676434594"><ele>471.66666666666663</ele><time>2026-04-19T10:43:58.999Z</time></trkpt><trkpt lat="43.756286142332435" lon="11.717450135084253"><ele>468.0</ele><time>2026-04-19T10:43:59.999Z</time></trkpt><trkpt lat="43.75611089201825" lon="11.717539897993229"><ele>466.0</ele><time>2026-04-19T10:44:00.999Z</time></trkpt><trkpt lat="43.75595398636532" lon="11.717624092768832"><ele>464.0</ele><time>2026-04-19T10:44:01.999Z</time></trkpt><trkpt lat="43.75581790862296" lon="11.717736600820693"><ele>462.0</ele><time>2026-04-19T10:44:02.999Z</time></trkpt><trkpt lat="43.75569999881706" lon="11.71787166399305"><ele>462.0</ele><time>2026-04-19T10:44:03.999Z</time></trkpt><trkpt lat="43.75560215071963" lon="11.71800834604404"><ele>462.0</ele><time>2026-04-19T10:44:04.999Z</time></trkpt><trkpt lat="43.75552726648004" lon="11.718181214322147"><ele>462.0</ele><time>2026-04-19T10:44:05.999Z</time></trkpt><trkpt lat="43.75547963251956" lon="11.718399428116491"><ele>462.0</ele><time>2026-04-19T10:44:06.999Z</time></trkpt><trkpt lat="43.75543699931816" lon="11.718616984408834"><ele>461.66666666666663</ele><time>2026-04-19T10:44:07.999Z</time></trkpt><trkpt lat="43.755348851011256" lon="11.718835512994533"><ele>461.3333333333333</ele><time>2026-04-19T10:44:08.999Z</time></trkpt><trkpt lat="43.75521454995675" lon="11.71905262723279"><ele>461.0</ele><time>2026-04-19T10:44:09.999Z</time></trkpt><trkpt lat="43.75508164630198" lon="11.71925202164812"><ele>458.0</ele><time>2026-04-19T10:44:10.999Z</time></trkpt><trkpt lat="43.7549538130282" lon="11.719432419340434"><ele>455.0</ele><time>2026-04-19T10:44:11.999Z</time></trkpt><trkpt lat="43.754826132827894" lon="11.71958579176239"><ele>452.0</ele><time>2026-04-19T10:44:12.999Z</time></trkpt><trkpt lat="43.754682301403605" lon="11.719689710591553"><ele>452.0</ele><time>2026-04-19T10:44:13.999Z</time></trkpt><trkpt lat="43.754511868211445" lon="11.71974681425111"><ele>452.0</ele><time>2026-04-19T10:44:14.999Z</time></trkpt><trkpt lat="43.754330623595976" lon="11.719776713471065"><ele>452.0</ele><time>2026-04-19T10:44:15.999Z</time></trkpt><trkpt lat="43.75416858979" lon="11.719811759747417"><ele>450.0</ele><time>2026-04-19T10:44:16.999Z</time></trkpt><trkpt lat="43.75403124273155" lon="11.71985530939812"><ele>448.0</ele><time>2026-04-19T10:44:17.999Z</time></trkpt><trkpt lat="43.7539057323051" lon="11.719918485119885"><ele>446.0</ele><time>2026-04-19T10:44:18.999Z</time></trkpt><trkpt lat="43.75379055295669" lon="11.72002190129597"><ele>444.0</ele><time>2026-04-19T10:44:19.999Z</time></trkpt><trkpt lat="43.753693570548286" lon="11.720173925254027"><ele>441.33333333333337</ele><time>2026-04-19T10:44:20.999Z</time></trkpt><trkpt lat="43.75361907339393" lon="11.720375477895276"><ele>438.6666666666667</ele><time>2026-04-19T10:44:21.999Z</time></trkpt><trkpt lat="43.753557667604895" lon="11.720607074267123"><ele>436.0</ele><time>2026-04-19T10:44:22.999Z</time></trkpt><trkpt lat="43.7534861382615" lon="11.720839959700832"><ele>436.0</ele><time>2026-04-19T10:44:23.999Z</time></trkpt><trkpt lat="43.753377015292315" lon="11.721050341871836"><ele>436.0</ele><time>2026-04-19T10:44:24.999Z</time></trkpt><trkpt lat="43.75323655951104" lon="11.721220123345942"><ele>436.0</ele><time>2026-04-19T10:44:25.999Z</time></trkpt><trkpt lat="43.75310512218481" lon="11.721332450018316"><ele>436.25</ele><time>2026-04-19T10:44:26.999Z</time></trkpt><trkpt lat="43.75299157856989" lon="11.721400630494879"><ele>436.5</ele><time>2026-04-19T10:44:27.999Z</time></trkpt><trkpt lat="43.752892964899196" lon="11.7214869555846"><ele>436.75</ele><time>2026-04-19T10:44:28.999Z</time></trkpt><trkpt lat="43.75280989679984" lon="11.721636076035418"><ele>437.0</ele><time>2026-04-19T10:44:29.999Z</time></trkpt><trkpt lat="43.75274316353488" lon="11.72184042745395"><ele>432.66666666666663</ele><time>2026-04-19T10:44:30.999Z</time></trkpt><trkpt lat="43.752697384880165" lon="11.722052940018749"><ele>428.33333333333337</ele><time>2026-04-19T10:44:31.999Z</time></trkpt><trkpt lat="43.75265534169515" lon="11.722256295045145"><ele>424.0</ele><time>2026-04-19T10:44:32.999Z</time></trkpt><trkpt lat="43.752600823406375" lon="11.722439949739954"><ele>424.0</ele><time>2026-04-19T10:44:33.999Z</time></trkpt><trkpt lat="43.752527420958394" lon="11.722602715534329"><ele>424.0</ele><time>2026-04-19T10:44:34.999Z</time></trkpt><trkpt lat="43.75243069203188" lon="11.722738602364775"><ele>424.0</ele><time>2026-04-19T10:44:35.999Z</time></trkpt><trkpt lat="43.75230907064585" lon="11.722836670259182"><ele>424.0</ele><time>2026-04-19T10:44:36.999Z</time></trkpt><trkpt lat="43.75218338789117" lon="11.722912648693757"><ele>424.25</ele><time>2026-04-19T10:44:37.999Z</time></trkpt><trkpt lat="43.75206304647157" lon="11.722997369432285"><ele>424.5</ele><time>2026-04-19T10:44:38.999Z</time></trkpt><trkpt lat="43.751946786420056" lon="11.72308346081741"><ele>424.75</ele><time>2026-04-19T10:44:39.999Z</time></trkpt><trkpt lat="43.751833949339314" lon="11.723155991861283"><ele>425.0</ele><time>2026-04-19T10:44:40.999Z</time></trkpt><trkpt lat="43.751720098511385" lon="11.723227560700519"><ele>425.0</ele><time>2026-04-19T10:44:41.999Z</time></trkpt><trkpt lat="43.75161309610681" lon="11.723302644632417"><ele>425.0</ele><time>2026-04-19T10:44:42.999Z</time></trkpt><trkpt lat="43.75150466828499" lon="11.723376329039652"><ele>425.0</ele><time>2026-04-19T10:44:43.999Z</time></trkpt><trkpt lat="43.751397847535124" lon="11.723450599374658"><ele>425.0</ele><time>2026-04-19T10:44:44.999Z</time></trkpt><trkpt lat="43.75129227214525" lon="11.723525538317167"><ele>425.5</ele><time>2026-04-19T10:44:45.999Z</time></trkpt><trkpt lat="43.75118827457463" lon="11.723600467647996"><ele>426.0</ele><time>2026-04-19T10:44:46.999Z</time></trkpt><trkpt lat="43.75108439450072" lon="11.723673723416235"><ele>426.5</ele><time>2026-04-19T10:44:47.999Z</time></trkpt><trkpt lat="43.75098094822168" lon="11.723750847892731"><ele>427.0</ele><time>2026-04-19T10:44:48.999Z</time></trkpt><trkpt lat="43.750877152930194" lon="11.72381985958673"><ele>427.0</ele><time>2026-04-19T10:44:49.999Z</time></trkpt><trkpt lat="43.75077526190957" lon="11.723893215106974"><ele>427.00000000000006</ele><time>2026-04-19T10:44:50.998Z</time></trkpt><trkpt lat="43.75068412172061" lon="11.723967958034132"><ele>427.00000000000006</ele><time>2026-04-19T10:44:51.998Z</time></trkpt><trkpt lat="43.75060105953188" lon="11.72404017251937"><ele>427.0</ele><time>2026-04-19T10:44:52.998Z</time></trkpt><trkpt lat="43.75051844270875" lon="11.72410384671428"><ele>427.0</ele><time>2026-04-19T10:44:53.998Z</time></trkpt><trkpt lat="43.75044329484515" lon="11.724164119995923"><ele>427.00000000000006</ele><time>2026-04-19T10:44:54.998Z</time></trkpt><trkpt lat="43.75037485455932" lon="11.724226662144913"><ele>427.0</ele><time>2026-04-19T10:44:55.998Z</time></trkpt><trkpt lat="43.75031014051808" lon="11.724286874563518"><ele>427.0</ele><time>2026-04-19T10:44:56.998Z</time></trkpt><trkpt lat="43.75024605571697" lon="11.724337425170646"><ele>427.0</ele><time>2026-04-19T10:44:57.998Z</time></trkpt><trkpt lat="43.75018472823465" lon="11.72438757975546"><ele>427.00000000000006</ele><time>2026-04-19T10:44:58.998Z</time></trkpt><trkpt lat="43.75011853527267" lon="11.724437279649363"><ele>427.0</ele><time>2026-04-19T10:44:59.998Z</time></trkpt><trkpt lat="43.75005386305074" lon="11.724487731237426"><ele>426.20000000000005</ele><time>2026-04-19T10:45:00.998Z</time></trkpt><trkpt lat="43.74998699042274" lon="11.724559127977031"><ele>425.40000000000003</ele><time>2026-04-19T10:45:01.998Z</time></trkpt><trkpt lat="43.749915715242906" lon="11.724636162923021"><ele>424.6</ele><time>2026-04-19T10:45:02.998Z</time></trkpt><trkpt lat="43.74984800067538" lon="11.724732478070324"><ele>423.79999999999995</ele><time>2026-04-19T10:45:03.998Z</time></trkpt><trkpt lat="43.74976769383679" lon="11.72480754327436"><ele>423.0</ele><time>2026-04-19T10:45:04.998Z</time></trkpt><trkpt lat="43.74969574248055" lon="11.724901018981702"><ele>423.0</ele><time>2026-04-19T10:45:05.998Z</time></trkpt><trkpt lat="43.749623462892345" lon="11.724998066406632"><ele>423.0</ele><time>2026-04-19T10:45:06.998Z</time></trkpt><trkpt lat="43.749547450269276" lon="11.725102207730462"><ele>423.0</ele><time>2026-04-19T10:45:07.998Z</time></trkpt><trkpt lat="43.74947839805742" lon="11.725196812828997"><ele>423.0</ele><time>2026-04-19T10:45:08.998Z</time></trkpt><trkpt lat="43.749408846670754" lon="11.725280324816964"><ele>423.0</ele><time>2026-04-19T10:45:09.998Z</time></trkpt><trkpt lat="43.74934614803205" lon="11.725359982380937"><ele>422.3333333333333</ele><time>2026-04-19T10:45:10.998Z</time></trkpt><trkpt lat="43.74929082414538" lon="11.72543698684635"><ele>421.66666666666663</ele><time>2026-04-19T10:45:11.998Z</time></trkpt><trkpt lat="43.74923912013387" lon="11.725535154214482"><ele>421.0</ele><time>2026-04-19T10:45:12.998Z</time></trkpt><trkpt lat="43.74916730541745" lon="11.725617152437783"><ele>420.3333333333333</ele><time>2026-04-19T10:45:13.998Z</time></trkpt><trkpt lat="43.749099624676845" lon="11.72571375301743"><ele>419.66666666666663</ele><time>2026-04-19T10:45:14.998Z</time></trkpt><trkpt lat="43.74903397475132" lon="11.725800364167565"><ele>419.0</ele><time>2026-04-19T10:45:15.998Z</time></trkpt><trkpt lat="43.74896970470915" lon="11.725877693328663"><ele>419.0</ele><time>2026-04-19T10:45:16.998Z</time></trkpt><trkpt lat="43.74889423872666" lon="11.725927453158276"><ele>419.0</ele><time>2026-04-19T10:45:17.998Z</time></trkpt><trkpt lat="43.74880200239331" lon="11.725930967782684"><ele>419.0</ele><time>2026-04-19T10:45:18.998Z</time></trkpt><trkpt lat="43.748697053826106" lon="11.725915043159207"><ele>419.0</ele><time>2026-04-19T10:45:19.998Z</time></trkpt><trkpt lat="43.74858345459401" lon="11.725913097169943"><ele>419.0</ele><time>2026-04-19T10:45:20.998Z</time></trkpt><trkpt lat="43.74846851149958" lon="11.725936616589266"><ele>419.25</ele><time>2026-04-19T10:45:21.998Z</time></trkpt><trkpt lat="43.74834191447578" lon="11.725998347810958"><ele>419.5</ele><time>2026-04-19T10:45:22.998Z</time></trkpt><trkpt lat="43.748213590046376" lon="11.726094532966734"><ele>419.75</ele><time>2026-04-19T10:45:24Z</time></trkpt><trkpt lat="43.748089693341534" lon="11.726203813963748"><ele>420.0</ele><time>2026-04-19T10:45:25Z</time></trkpt><trkpt lat="43.74796245581521" lon="11.726300581317847"><ele>420.0</ele><time>2026-04-19T10:45:26Z</time></trkpt><trkpt lat="43.7478315501863" lon="11.726365096119684"><ele>420.0</ele><time>2026-04-19T10:45:27Z</time></trkpt><trkpt lat="43.747689717716426" lon="11.72639422984974"><ele>420.0</ele><time>2026-04-19T10:45:28Z</time></trkpt><trkpt lat="43.74754825284522" lon="11.7264085268661"><ele>420.0</ele><time>2026-04-19T10:45:29Z</time></trkpt><trkpt lat="43.747412749308204" lon="11.726425901822859"><ele>418.5</ele><time>2026-04-19T10:45:30Z</time></trkpt><trkpt lat="43.74728576710787" lon="11.726485248653237"><ele>417.0</ele><time>2026-04-19T10:45:31Z</time></trkpt><trkpt lat="43.747165430828325" lon="11.726581407142744"><ele>415.5</ele><time>2026-04-19T10:45:32Z</time></trkpt><trkpt lat="43.7470517679552" lon="11.726714829108523"><ele>414.0</ele><time>2026-04-19T10:45:33Z</time></trkpt><trkpt lat="43.746949334033" lon="11.726884421544158"><ele>411.33333333333337</ele><time>2026-04-19T10:45:34Z</time></trkpt><trkpt lat="43.746846568560734" lon="11.72707310912165"><ele>408.6666666666667</ele><time>2026-04-19T10:45:35Z</time></trkpt><trkpt lat="43.74674395439406" lon="11.727256220061198"><ele>406.0</ele><time>2026-04-19T10:45:36Z</time></trkpt><trkpt lat="43.74664215971101" lon="11.727446685989815"><ele>406.0</ele><time>2026-04-19T10:45:37Z</time></trkpt><trkpt lat="43.74654155875792" lon="11.72763520650361"><ele>406.0</ele><time>2026-04-19T10:45:38Z</time></trkpt><trkpt lat="43.74644237063331" lon="11.727813818491788"><ele>406.0</ele><time>2026-04-19T10:45:39Z</time></trkpt><trkpt lat="43.746342333592516" lon="11.727988703509105"><ele>406.33333333333337</ele><time>2026-04-19T10:45:40Z</time></trkpt><trkpt lat="43.746240555335405" lon="11.728156560779295"><ele>406.66666666666663</ele><time>2026-04-19T10:45:41Z</time></trkpt><trkpt lat="43.74613126041098" lon="11.728315543190963"><ele>407.0</ele><time>2026-04-19T10:45:42Z</time></trkpt><trkpt lat="43.74601453452794" lon="11.72847279756128"><ele>404.3333333333333</ele><time>2026-04-19T10:45:43Z</time></trkpt><trkpt lat="43.7458923902355" lon="11.728617183308884"><ele>401.66666666666663</ele><time>2026-04-19T10:45:44Z</time></trkpt><trkpt lat="43.74576785389698" lon="11.728745986895929"><ele>399.0</ele><time>2026-04-19T10:45:45Z</time></trkpt><trkpt lat="43.74564947067304" lon="11.728878659334127"><ele>399.0</ele><time>2026-04-19T10:45:46Z</time></trkpt><trkpt lat="43.74553595239138" lon="11.729029760104675"><ele>399.0</ele><time>2026-04-19T10:45:47Z</time></trkpt><trkpt lat="43.74543205384128" lon="11.729199378803528"><ele>399.0</ele><time>2026-04-19T10:45:48Z</time></trkpt><trkpt lat="43.7453432394636" lon="11.729395002364836"><ele>400.0</ele><time>2026-04-19T10:45:49Z</time></trkpt><trkpt lat="43.74527562880207" lon="11.72961371851349"><ele>401.0</ele><time>2026-04-19T10:45:50Z</time></trkpt><trkpt lat="43.7452179192609" lon="11.729843964163292"><ele>402.0</ele><time>2026-04-19T10:45:51Z</time></trkpt><trkpt lat="43.74516284087645" lon="11.730077537826135"><ele>397.0</ele><time>2026-04-19T10:45:52Z</time></trkpt><trkpt lat="43.74511215375612" lon="11.730312979539521"><ele>392.0</ele><time>2026-04-19T10:45:53Z</time></trkpt><trkpt lat="43.745060068554444" lon="11.730544173907406"><ele>387.0</ele><time>2026-04-19T10:45:54Z</time></trkpt><trkpt lat="43.74500654795905" lon="11.730767427106805"><ele>387.0</ele><time>2026-04-19T10:45:55Z</time></trkpt><trkpt lat="43.744944962682396" lon="11.730983664291019"><ele>387.0</ele><time>2026-04-19T10:45:56Z</time></trkpt><trkpt lat="43.74487936734086" lon="11.731193252496182"><ele>387.0</ele><time>2026-04-19T10:45:57Z</time></trkpt><trkpt lat="43.74480793790289" lon="11.731400551648596"><ele>388.33333333333337</ele><time>2026-04-19T10:45:58Z</time></trkpt><trkpt lat="43.74471771437647" lon="11.731601099486848"><ele>389.6666666666667</ele><time>2026-04-19T10:45:59Z</time></trkpt><trkpt lat="43.74461929654622" lon="11.73179540631716"><ele>391.0</ele><time>2026-04-19T10:46:00Z</time></trkpt><trkpt lat="43.74452765353276" lon="11.731994892051416"><ele>391.33333333333337</ele><time>2026-04-19T10:46:01Z</time></trkpt><trkpt lat="43.74444149480317" lon="11.732197029062238"><ele>391.66666666666663</ele><time>2026-04-19T10:46:02Z</time></trkpt><trkpt lat="43.744352169394915" lon="11.732405018023643"><ele>392.0</ele><time>2026-04-19T10:46:03Z</time></trkpt><trkpt lat="43.74426491484806" lon="11.732614924505754"><ele>387.3333333333333</ele><time>2026-04-19T10:46:04Z</time></trkpt><trkpt lat="43.744180210319236" lon="11.732829002269995"><ele>382.66666666666663</ele><time>2026-04-19T10:46:05Z</time></trkpt><trkpt lat="43.744100908165045" lon="11.733038618387798"><ele>378.0</ele><time>2026-04-19T10:46:06Z</time></trkpt><trkpt lat="43.74402858578572" lon="11.733242792978128"><ele>378.0</ele><time>2026-04-19T10:46:07Z</time></trkpt><trkpt lat="43.743961386904786" lon="11.733445306767834"><ele>378.0</ele><time>2026-04-19T10:46:08Z</time></trkpt><trkpt lat="43.74389543369535" lon="11.733644617224837"><ele>378.0</ele><time>2026-04-19T10:46:09Z</time></trkpt><trkpt lat="43.7438283770782" lon="11.73383560882287"><ele>377.0</ele><time>2026-04-19T10:46:10Z</time></trkpt><trkpt lat="43.743760565133805" lon="11.734022367083028"><ele>376.0</ele><time>2026-04-19T10:46:11Z</time></trkpt><trkpt lat="43.74369110667725" lon="11.734210717691186"><ele>375.0</ele><time>2026-04-19T10:46:12Z</time></trkpt><trkpt lat="43.743617159960614" lon="11.73439849290874"><ele>372.0</ele><time>2026-04-19T10:46:13Z</time></trkpt><trkpt lat="43.74353721233378" lon="11.734582604697707"><ele>369.0</ele><time>2026-04-19T10:46:13.999Z</time></trkpt><trkpt lat="43.74345823671574" lon="11.73476809157707"><ele>366.0</ele><time>2026-04-19T10:46:14.999Z</time></trkpt><trkpt lat="43.74337994674653" lon="11.734950422152194"><ele>366.0</ele><time>2026-04-19T10:46:15.999Z</time></trkpt><trkpt lat="43.74330219383884" lon="11.735124189131458"><ele>366.0</ele><time>2026-04-19T10:46:16.999Z</time></trkpt><trkpt lat="43.743229599888984" lon="11.735296036230553"><ele>366.0</ele><time>2026-04-19T10:46:17.999Z</time></trkpt><trkpt lat="43.74316414524187" lon="11.735463764156572"><ele>366.0</ele><time>2026-04-19T10:46:18.999Z</time></trkpt><trkpt lat="43.743124100011705" lon="11.735649840192016"><ele>365.0</ele><time>2026-04-19T10:46:19.999Z</time></trkpt><trkpt lat="43.74311834955777" lon="11.735871742072371"><ele>364.0</ele><time>2026-04-19T10:46:20.999Z</time></trkpt><trkpt lat="43.743124001218945" lon="11.736101604929388"><ele>363.0</ele><time>2026-04-19T10:46:21.999Z</time></trkpt><trkpt lat="43.74312662646926" lon="11.736321014788205"><ele>361.0</ele><time>2026-04-19T10:46:22.999Z</time></trkpt><trkpt lat="43.743116504088256" lon="11.73653348638615"><ele>359.0</ele><time>2026-04-19T10:46:23.999Z</time></trkpt><trkpt lat="43.74308334180988" lon="11.736739967220975"><ele>357.0</ele><time>2026-04-19T10:46:24.999Z</time></trkpt><trkpt lat="43.7430116145262" lon="11.736941227401777"><ele>356.0</ele><time>2026-04-19T10:46:25.999Z</time></trkpt><trkpt lat="43.742912159532814" lon="11.73713410911551"><ele>355.0</ele><time>2026-04-19T10:46:26.999Z</time></trkpt><trkpt lat="43.74279080100268" lon="11.737307152580701"><ele>354.0</ele><time>2026-04-19T10:46:27.999Z</time></trkpt><trkpt lat="43.74265160223868" lon="11.737460331390675"><ele>353.6666666666667</ele><time>2026-04-19T10:46:28.999Z</time></trkpt><trkpt lat="43.742505490991846" lon="11.73760297664183"><ele>353.33333333333337</ele><time>2026-04-19T10:46:29.999Z</time></trkpt><trkpt lat="43.742356764454435" lon="11.737753055238112"><ele>353.0</ele><time>2026-04-19T10:46:30.999Z</time></trkpt><trkpt lat="43.742206333273074" lon="11.737908983094371"><ele>353.0</ele><time>2026-04-19T10:46:31.999Z</time></trkpt><trkpt lat="43.742055393131224" lon="11.73806083640677"><ele>353.0</ele><time>2026-04-19T10:46:32.999Z</time></trkpt><trkpt lat="43.74190807698975" lon="11.738210599254414"><ele>353.0</ele><time>2026-04-19T10:46:33.999Z</time></trkpt><trkpt lat="43.74176160807164" lon="11.738364655259033"><ele>353.0</ele><time>2026-04-19T10:46:34.999Z</time></trkpt><trkpt lat="43.74161608827795" lon="11.738516684327061"><ele>353.0</ele><time>2026-04-19T10:46:35.999Z</time></trkpt><trkpt lat="43.7414724049574" lon="11.738666071538157"><ele>353.0</ele><time>2026-04-19T10:46:36.999Z</time></trkpt><trkpt lat="43.74132755986608" lon="11.738806782788137"><ele>353.33333333333337</ele><time>2026-04-19T10:46:37.999Z</time></trkpt><trkpt lat="43.741184533363445" lon="11.738950760928102"><ele>353.6666666666667</ele><time>2026-04-19T10:46:38.999Z</time></trkpt><trkpt lat="43.74104843306954" lon="11.739090166408124"><ele>354.0</ele><time>2026-04-19T10:46:39.999Z</time></trkpt><trkpt lat="43.74092030002055" lon="11.739219507745071"><ele>353.5</ele><time>2026-04-19T10:46:40.999Z</time></trkpt><trkpt lat="43.740803093424674" lon="11.7393414624486"><ele>353.0</ele><time>2026-04-19T10:46:41.999Z</time></trkpt><trkpt lat="43.74069192356084" lon="11.739471273356548"><ele>352.5</ele><time>2026-04-19T10:46:42.999Z</time></trkpt><trkpt lat="43.74059511754024" lon="11.739612316066419"><ele>352.0</ele><time>2026-04-19T10:46:43.999Z</time></trkpt><trkpt lat="43.74052941562519" lon="11.739761316644465"><ele>351.75</ele><time>2026-04-19T10:46:44.999Z</time></trkpt><trkpt lat="43.74049846160921" lon="11.739919353744742"><ele>351.5</ele><time>2026-04-19T10:46:45.999Z</time></trkpt><trkpt lat="43.74050681301224" lon="11.74009078687351"><ele>351.25</ele><time>2026-04-19T10:46:46.999Z</time></trkpt><trkpt lat="43.74053183189124" lon="11.740272460346493"><ele>351.0</ele><time>2026-04-19T10:46:47.999Z</time></trkpt><trkpt lat="43.74056795808291" lon="11.740462296801006"><ele>351.0</ele><time>2026-04-19T10:46:48.999Z</time></trkpt><trkpt lat="43.740597583312066" lon="11.740629159514807"><ele>351.0</ele><time>2026-04-19T10:46:49.999Z</time></trkpt><trkpt lat="43.74061568414457" lon="11.740791572914285"><ele>351.0</ele><time>2026-04-19T10:46:50.999Z</time></trkpt><trkpt lat="43.74060633045453" lon="11.740977263118715"><ele>351.0</ele><time>2026-04-19T10:46:51.999Z</time></trkpt><trkpt lat="43.74056282004612" lon="11.741179868630063"><ele>351.3333333333333</ele><time>2026-04-19T10:46:52.999Z</time></trkpt><trkpt lat="43.74049817288984" lon="11.74139334910322"><ele>351.66666666666663</ele><time>2026-04-19T10:46:53.999Z</time></trkpt><trkpt lat="43.740432074730364" lon="11.741604353391757"><ele>352.0</ele><time>2026-04-19T10:46:54.999Z</time></trkpt><trkpt lat="43.74036614907769" lon="11.741824557717361"><ele>352.3333333333333</ele><time>2026-04-19T10:46:55.999Z</time></trkpt><trkpt lat="43.74030027284255" lon="11.742047665454303"><ele>352.6666666666667</ele><time>2026-04-19T10:46:56.999Z</time></trkpt><trkpt lat="43.74022987072158" lon="11.742272950729157"><ele>353.0</ele><time>2026-04-19T10:46:57.999Z</time></trkpt><trkpt lat="43.740161066745" lon="11.742504070841473"><ele>353.0</ele><time>2026-04-19T10:46:58.999Z</time></trkpt><trkpt lat="43.740092337636504" lon="11.742739060399215"><ele>353.0</ele><time>2026-04-19T10:46:59.999Z</time></trkpt><trkpt lat="43.74002243309951" lon="11.742976653943288"><ele>353.0</ele><time>2026-04-19T10:47:00.999Z</time></trkpt><trkpt lat="43.73995228385218" lon="11.743215505696575"><ele>353.0</ele><time>2026-04-19T10:47:01.999Z</time></trkpt><trkpt lat="43.73987946048029" lon="11.74345549676667"><ele>353.0</ele><time>2026-04-19T10:47:02.999Z</time></trkpt><trkpt lat="43.73980811115022" lon="11.743697987927908"><ele>353.0</ele><time>2026-04-19T10:47:03.999Z</time></trkpt><trkpt lat="43.73973833932821" lon="11.743942336540252"><ele>353.33333333333337</ele><time>2026-04-19T10:47:04.999Z</time></trkpt><trkpt lat="43.73966721026629" lon="11.744184553657549"><ele>353.6666666666667</ele><time>2026-04-19T10:47:05.999Z</time></trkpt><trkpt lat="43.7395952020724" lon="11.744421822804863"><ele>354.0</ele><time>2026-04-19T10:47:06.999Z</time></trkpt><trkpt lat="43.7395231595747" lon="11.744663137841362"><ele>354.0</ele><time>2026-04-19T10:47:07.999Z</time></trkpt><trkpt lat="43.739453528187745" lon="11.744903511046905"><ele>354.0</ele><time>2026-04-19T10:47:08.998Z</time></trkpt><trkpt lat="43.73938295317901" lon="11.745142714549644"><ele>354.0</ele><time>2026-04-19T10:47:09.998Z</time></trkpt><trkpt lat="43.73930984263907" lon="11.745377880685847"><ele>354.0</ele><time>2026-04-19T10:47:10.998Z</time></trkpt><trkpt lat="43.73924067972948" lon="11.745616361598298"><ele>354.0</ele><time>2026-04-19T10:47:11.998Z</time></trkpt><trkpt lat="43.739174731587305" lon="11.745854404826916"><ele>354.0</ele><time>2026-04-19T10:47:12.998Z</time></trkpt><trkpt lat="43.73910254296221" lon="11.746089950717097"><ele>354.3333333333333</ele><time>2026-04-19T10:47:13.998Z</time></trkpt><trkpt lat="43.73902861380704" lon="11.746324234925133"><ele>354.66666666666663</ele><time>2026-04-19T10:47:14.998Z</time></trkpt><trkpt lat="43.738957319501765" lon="11.746563674628272"><ele>355.0</ele><time>2026-04-19T10:47:15.998Z</time></trkpt><trkpt lat="43.7388864982652" lon="11.746808279320623"><ele>354.66666666666663</ele><time>2026-04-19T10:47:16.998Z</time></trkpt><trkpt lat="43.738813623308864" lon="11.747060139707807"><ele>354.3333333333333</ele><time>2026-04-19T10:47:17.998Z</time></trkpt><trkpt lat="43.73873811228584" lon="11.747314378445955"><ele>354.0</ele><time>2026-04-19T10:47:18.998Z</time></trkpt><trkpt lat="43.738662107528825" lon="11.74756955987426"><ele>354.0</ele><time>2026-04-19T10:47:19.998Z</time></trkpt><trkpt lat="43.7385856710136" lon="11.747829139423379"><ele>354.0</ele><time>2026-04-19T10:47:20.998Z</time></trkpt><trkpt lat="43.73850736337375" lon="11.748090120480036"><ele>354.0</ele><time>2026-04-19T10:47:21.998Z</time></trkpt><trkpt lat="43.73842956310493" lon="11.74835300032271"><ele>354.0</ele><time>2026-04-19T10:47:22.998Z</time></trkpt><trkpt lat="43.738352749836075" lon="11.748616836563647"><ele>354.0</ele><time>2026-04-19T10:47:23.998Z</time></trkpt><trkpt lat="43.73827567968542" lon="11.748881275387086"><ele>354.0</ele><time>2026-04-19T10:47:24.998Z</time></trkpt><trkpt lat="43.738198153438354" lon="11.749142505129127"><ele>355.0</ele><time>2026-04-19T10:47:25.998Z</time></trkpt><trkpt lat="43.73812595293918" lon="11.749399986087402"><ele>356.0</ele><time>2026-04-19T10:47:26.998Z</time></trkpt><trkpt lat="43.738064212363234" lon="11.749659374676991"><ele>357.0</ele><time>2026-04-19T10:47:27.998Z</time></trkpt><trkpt lat="43.738010499001966" lon="11.74992159117871"><ele>357.0</ele><time>2026-04-19T10:47:29Z</time></trkpt><trkpt lat="43.737963967359825" lon="11.75016807847105"><ele>357.0</ele><time>2026-04-19T10:47:30Z</time></trkpt><trkpt lat="43.73792047508991" lon="11.750400237953185"><ele>357.0</ele><time>2026-04-19T10:47:31Z</time></trkpt><trkpt lat="43.73787453944903" lon="11.750618689329649"><ele>357.3333333333333</ele><time>2026-04-19T10:47:32Z</time></trkpt><trkpt lat="43.73782984005963" lon="11.75083548502228"><ele>357.66666666666663</ele><time>2026-04-19T10:47:33Z</time></trkpt><trkpt lat="43.737786812243634" lon="11.751054303516806"><ele>358.0</ele><time>2026-04-19T10:47:34Z</time></trkpt><trkpt lat="43.737746370698424" lon="11.751262303601687"><ele>357.75</ele><time>2026-04-19T10:47:35Z</time></trkpt><trkpt lat="43.73770858193885" lon="11.751458121884125"><ele>357.5</ele><time>2026-04-19T10:47:36Z</time></trkpt><trkpt lat="43.7376752358376" lon="11.751637293201927"><ele>357.25</ele><time>2026-04-19T10:47:37Z</time></trkpt><trkpt lat="43.73764347653265" lon="11.751804872668464"><ele>357.0</ele><time>2026-04-19T10:47:38Z</time></trkpt><trkpt lat="43.73762980408202" lon="11.751963428547485"><ele>357.0</ele><time>2026-04-19T10:47:39Z</time></trkpt><trkpt lat="43.73764213247894" lon="11.752127467211844"><ele>357.0</ele><time>2026-04-19T10:47:40Z</time></trkpt><trkpt lat="43.73768300298664" lon="11.752269328015602"><ele>357.0</ele><time>2026-04-19T10:47:41Z</time></trkpt><trkpt lat="43.73773550823225" lon="11.752391563152093"><ele>357.0</ele><time>2026-04-19T10:47:42Z</time></trkpt><trkpt lat="43.73777476989858" lon="11.752513281681786"><ele>357.0</ele><time>2026-04-19T10:47:43Z</time></trkpt><trkpt lat="43.737781344903816" lon="11.7526564600047"><ele>357.25</ele><time>2026-04-19T10:47:44Z</time></trkpt><trkpt lat="43.73778226483198" lon="11.752806736795142"><ele>357.5</ele><time>2026-04-19T10:47:45Z</time></trkpt><trkpt lat="43.73777554148701" lon="11.752955211965002"><ele>357.75</ele><time>2026-04-19T10:47:46Z</time></trkpt><trkpt lat="43.73763371763766" lon="11.753091308677522"><ele>358.0</ele><time>2026-04-19T10:47:47Z</time></trkpt><trkpt lat="43.737534925992236" lon="11.753207051619972"><ele>358.25</ele><time>2026-04-19T10:47:48Z</time></trkpt><trkpt lat="43.737439492446825" lon="11.753328010631522"><ele>358.5</ele><time>2026-04-19T10:47:49Z</time></trkpt><trkpt lat="43.73734921073937" lon="11.753475788335459"><ele>358.75</ele><time>2026-04-19T10:47:50Z</time></trkpt><trkpt lat="43.737249728866885" lon="11.753626479850308"><ele>359.0</ele><time>2026-04-19T10:47:51Z</time></trkpt><trkpt lat="43.73714883368975" lon="11.753782526325146"><ele>359.0</ele><time>2026-04-19T10:47:52Z</time></trkpt><trkpt lat="43.73704320565593" lon="11.753939488307077"><ele>359.0</ele><time>2026-04-19T10:47:53Z</time></trkpt><trkpt lat="43.7369274113153" lon="11.754088559474779"><ele>359.0</ele><time>2026-04-19T10:47:54Z</time></trkpt><trkpt lat="43.736803763701175" lon="11.754231655777284"><ele>358.33333333333337</ele><time>2026-04-19T10:47:55Z</time></trkpt><trkpt lat="43.73668412479026" lon="11.754370933944596"><ele>357.6666666666667</ele><time>2026-04-19T10:47:56Z</time></trkpt><trkpt lat="43.73656836464727" lon="11.75451313830217"><ele>357.0</ele><time>2026-04-19T10:47:57Z</time></trkpt><trkpt lat="43.73645531696411" lon="11.75465749953207"><ele>357.0</ele><time>2026-04-19T10:47:58Z</time></trkpt><trkpt lat="43.73634349661118" lon="11.754804426756806"><ele>357.0</ele><time>2026-04-19T10:47:59Z</time></trkpt><trkpt lat="43.73623743207651" lon="11.754958699320957"><ele>357.0</ele><time>2026-04-19T10:48:00Z</time></trkpt><trkpt lat="43.736143098522255" lon="11.75512867883483"><ele>357.0</ele><time>2026-04-19T10:48:01Z</time></trkpt><trkpt lat="43.73606216117222" lon="11.755311415616823"><ele>357.0</ele><time>2026-04-19T10:48:02Z</time></trkpt><trkpt lat="43.73599046630501" lon="11.75548252188341"><ele>357.0</ele><time>2026-04-19T10:48:03Z</time></trkpt><trkpt lat="43.7359196510068" lon="11.755635462937997"><ele>357.0</ele><time>2026-04-19T10:48:04Z</time></trkpt><trkpt lat="43.73584747859896" lon="11.755774769637942"><ele>357.0</ele><time>2026-04-19T10:48:05Z</time></trkpt><trkpt lat="43.735776254247156" lon="11.755902564283376"><ele>357.0</ele><time>2026-04-19T10:48:06Z</time></trkpt><trkpt lat="43.73569957797025" lon="11.756023764223412"><ele>357.0</ele><time>2026-04-19T10:48:07Z</time></trkpt><trkpt lat="43.73561597385351" lon="11.756139189216398"><ele>357.0</ele><time>2026-04-19T10:48:08Z</time></trkpt><trkpt lat="43.735532255776945" lon="11.756254706599961"><ele>357.0</ele><time>2026-04-19T10:48:09Z</time></trkpt><trkpt lat="43.7354499355558" lon="11.756372911508643"><ele>357.0</ele><time>2026-04-19T10:48:10Z</time></trkpt><trkpt lat="43.73537025321721" lon="11.75649378591255"><ele>357.0</ele><time>2026-04-19T10:48:11Z</time></trkpt><trkpt lat="43.73529353069496" lon="11.756622068095261"><ele>357.0</ele><time>2026-04-19T10:48:12Z</time></trkpt><trkpt lat="43.73522150899147" lon="11.756757641047237"><ele>357.20000000000005</ele><time>2026-04-19T10:48:13Z</time></trkpt><trkpt lat="43.73515584497684" lon="11.756897076927153"><ele>357.4</ele><time>2026-04-19T10:48:14Z</time></trkpt><trkpt lat="43.735101387777114" lon="11.757028884597739"><ele>357.6</ele><time>2026-04-19T10:48:15Z</time></trkpt><trkpt lat="43.73505712961778" lon="11.757147282603874"><ele>357.79999999999995</ele><time>2026-04-19T10:48:16Z</time></trkpt><trkpt lat="43.73501572872455" lon="11.75726265608966"><ele>358.0</ele><time>2026-04-19T10:48:17Z</time></trkpt><trkpt lat="43.734969610106866" lon="11.757370151672989"><ele>358.0</ele><time>2026-04-19T10:48:18Z</time></trkpt><trkpt lat="43.73491646895529" lon="11.75746990092444"><ele>358.0</ele><time>2026-04-19T10:48:19Z</time></trkpt><trkpt lat="43.73485860802531" lon="11.757563885406388"><ele>358.0</ele><time>2026-04-19T10:48:20Z</time></trkpt><trkpt lat="43.734800617828924" lon="11.757649942239036"><ele>358.0</ele><time>2026-04-19T10:48:21Z</time></trkpt><trkpt lat="43.73473986200905" lon="11.757739212452647"><ele>358.0</ele><time>2026-04-19T10:48:22Z</time></trkpt><trkpt lat="43.73467484686745" lon="11.757834122528381"><ele>358.0</ele><time>2026-04-19T10:48:23Z</time></trkpt><trkpt lat="43.73460819115279" lon="11.75793609090756"><ele>357.25</ele><time>2026-04-19T10:48:23.999Z</time></trkpt><trkpt lat="43.73454056822947" lon="11.758054691495207"><ele>356.5</ele><time>2026-04-19T10:48:24.999Z</time></trkpt><trkpt lat="43.734473946119714" lon="11.758197924292825"><ele>355.75</ele><time>2026-04-19T10:48:25.999Z</time></trkpt><trkpt lat="43.734407078848676" lon="11.758360174746025"><ele>355.0</ele><time>2026-04-19T10:48:26.999Z</time></trkpt><trkpt lat="43.73433788730928" lon="11.75853315989301"><ele>353.75</ele><time>2026-04-19T10:48:27.999Z</time></trkpt><trkpt lat="43.73427554932999" lon="11.758715975667196"><ele>352.5</ele><time>2026-04-19T10:48:28.999Z</time></trkpt><trkpt lat="43.73422139124258" lon="11.758896299409173"><ele>351.25</ele><time>2026-04-19T10:48:29.999Z</time></trkpt><trkpt lat="43.734171731993705" lon="11.759066533852328"><ele>350.0</ele><time>2026-04-19T10:48:30.999Z</time></trkpt><trkpt lat="43.73412615235081" lon="11.759221578729711"><ele>350.0</ele><time>2026-04-19T10:48:31.999Z</time></trkpt><trkpt lat="43.73408427903512" lon="11.759368344518085"><ele>350.0</ele><time>2026-04-19T10:48:32.999Z</time></trkpt><trkpt lat="43.73404527234763" lon="11.759508635916319"><ele>350.0</ele><time>2026-04-19T10:48:33.999Z</time></trkpt><trkpt lat="43.7340085763263" lon="11.759640692696511"><ele>350.0</ele><time>2026-04-19T10:48:34.999Z</time></trkpt><trkpt lat="43.733969846235105" lon="11.759775649414802"><ele>350.0</ele><time>2026-04-19T10:48:35.999Z</time></trkpt><trkpt lat="43.73392704753794" lon="11.759915626989507"><ele>350.0</ele><time>2026-04-19T10:48:36.999Z</time></trkpt><trkpt lat="43.73387672782705" lon="11.76005620771836"><ele>350.0</ele><time>2026-04-19T10:48:37.999Z</time></trkpt><trkpt lat="43.73381501486237" lon="11.760190774239684"><ele>350.0</ele><time>2026-04-19T10:48:38.999Z</time></trkpt><trkpt lat="43.73374405641118" lon="11.760326155652223"><ele>350.0</ele><time>2026-04-19T10:48:39.999Z</time></trkpt><trkpt lat="43.73366883606275" lon="11.76046103112993"><ele>350.5</ele><time>2026-04-19T10:48:40.999Z</time></trkpt><trkpt lat="43.733590350690406" lon="11.76059485073156"><ele>351.0</ele><time>2026-04-19T10:48:41.999Z</time></trkpt><trkpt lat="43.73351209088127" lon="11.760726604683553"><ele>351.5</ele><time>2026-04-19T10:48:42.999Z</time></trkpt><trkpt lat="43.73343666959363" lon="11.760856716783987"><ele>352.0</ele><time>2026-04-19T10:48:43.999Z</time></trkpt><trkpt lat="43.73336707940181" lon="11.760978589110879"><ele>351.20000000000005</ele><time>2026-04-19T10:48:44.999Z</time></trkpt><trkpt lat="43.73330535981073" lon="11.761092638606405"><ele>350.4</ele><time>2026-04-19T10:48:45.999Z</time></trkpt><trkpt lat="43.73325091636818" lon="11.761201396865399"><ele>349.6</ele><time>2026-04-19T10:48:46.999Z</time></trkpt><trkpt lat="43.733200965000044" lon="11.761306462615476"><ele>348.79999999999995</ele><time>2026-04-19T10:48:47.999Z</time></trkpt><trkpt lat="43.73316029191095" lon="11.761408288413884"><ele>348.0</ele><time>2026-04-19T10:48:48.999Z</time></trkpt><trkpt lat="43.73311816779033" lon="11.76151362373716"><ele>348.0</ele><time>2026-04-19T10:48:49.999Z</time></trkpt><trkpt lat="43.73307949861321" lon="11.7616289481148"><ele>348.0</ele><time>2026-04-19T10:48:50.999Z</time></trkpt><trkpt lat="43.73304480823981" lon="11.761746933407311"><ele>348.0</ele><time>2026-04-19T10:48:51.999Z</time></trkpt><trkpt lat="43.73301187270869" lon="11.761866340819537"><ele>348.0</ele><time>2026-04-19T10:48:52.999Z</time></trkpt><trkpt lat="43.73297896782147" lon="11.76198517230334"><ele>348.0</ele><time>2026-04-19T10:48:53.999Z</time></trkpt><trkpt lat="43.73294958704624" lon="11.76210697743018"><ele>348.1666666666667</ele><time>2026-04-19T10:48:54.999Z</time></trkpt><trkpt lat="43.73292034277576" lon="11.762228583026854"><ele>348.3333333333333</ele><time>2026-04-19T10:48:55.999Z</time></trkpt><trkpt lat="43.7328896981575" lon="11.762345003206415"><ele>348.5</ele><time>2026-04-19T10:48:56.999Z</time></trkpt><trkpt lat="43.73286092958015" lon="11.762452431155888"><ele>348.66666666666663</ele><time>2026-04-19T10:48:57.999Z</time></trkpt><trkpt lat="43.73283535729301" lon="11.762543460578678"><ele>348.8333333333333</ele><time>2026-04-19T10:48:58.999Z</time></trkpt><trkpt lat="43.732800875574156" lon="11.762676161440435"><ele>349.0</ele><time>2026-04-19T10:49:00.999Z</time></trkpt><trkpt lat="43.73277492169214" lon="11.762760213437739"><ele>349.16666666666663</ele><time>2026-04-19T10:49:03.999Z</time></trkpt><trkpt lat="43.73275516318044" lon="11.762847307892537"><ele>349.3333333333333</ele><time>2026-04-19T10:49:12.999Z</time></trkpt><trkpt lat="43.73273189823002" lon="11.762951384211718"><ele>349.5</ele><time>2026-04-19T10:49:14.999Z</time></trkpt><trkpt lat="43.732704070910614" lon="11.763113605600982"><ele>349.6666666666667</ele><time>2026-04-19T10:49:16.999Z</time></trkpt><trkpt lat="43.73267963988029" lon="11.763204129310312"><ele>349.83333333333337</ele><time>2026-04-19T10:49:17.998Z</time></trkpt><trkpt lat="43.732649160245195" lon="11.763298156158093"><ele>350.0</ele><time>2026-04-19T10:49:18.998Z</time></trkpt><trkpt lat="43.732623415305135" lon="11.763403495247182"><ele>349.0</ele><time>2026-04-19T10:49:19.998Z</time></trkpt><trkpt lat="43.73259425377699" lon="11.763515572171679"><ele>348.0</ele><time>2026-04-19T10:49:20.998Z</time></trkpt><trkpt lat="43.73256593807471" lon="11.76363513081687"><ele>347.0</ele><time>2026-04-19T10:49:21.998Z</time></trkpt><trkpt lat="43.73253147949619" lon="11.763760598550837"><ele>346.0</ele><time>2026-04-19T10:49:22.998Z</time></trkpt><trkpt lat="43.732495210369684" lon="11.763886973401476"><ele>345.0</ele><time>2026-04-19T10:49:23.998Z</time></trkpt><trkpt lat="43.73245967399166" lon="11.764023051832838"><ele>345.0</ele><time>2026-04-19T10:49:24.998Z</time></trkpt><trkpt lat="43.73242000550871" lon="11.764162758990977"><ele>345.0</ele><time>2026-04-19T10:49:25.998Z</time></trkpt><trkpt lat="43.732381368768316" lon="11.764308847829595"><ele>345.0</ele><time>2026-04-19T10:49:26.998Z</time></trkpt><trkpt lat="43.73234516591524" lon="11.764458995590827"><ele>345.0</ele><time>2026-04-19T10:49:27.998Z</time></trkpt><trkpt lat="43.732306916277714" lon="11.764610613899793"><ele>345.0</ele><time>2026-04-19T10:49:28.998Z</time></trkpt><trkpt lat="43.73226786952921" lon="11.764766474739611"><ele>345.0</ele><time>2026-04-19T10:49:29.998Z</time></trkpt><trkpt lat="43.732230914344925" lon="11.764927552507434"><ele>345.0</ele><time>2026-04-19T10:49:30.998Z</time></trkpt><trkpt lat="43.73219103007078" lon="11.76509185058314"><ele>345.0</ele><time>2026-04-19T10:49:31.998Z</time></trkpt><trkpt lat="43.732147803378936" lon="11.765256696374594"><ele>345.0</ele><time>2026-04-19T10:49:32.998Z</time></trkpt><trkpt lat="43.73210875176057" lon="11.765426513146005"><ele>345.0</ele><time>2026-04-19T10:49:33.998Z</time></trkpt><trkpt lat="43.7320705074432" lon="11.76559684650329"><ele>345.0</ele><time>2026-04-19T10:49:35Z</time></trkpt><trkpt lat="43.732033889718885" lon="11.765758632758367"><ele>345.0</ele><time>2026-04-19T10:49:36Z</time></trkpt><trkpt lat="43.73199568076854" lon="11.765905341017023"><ele>345.2</ele><time>2026-04-19T10:49:37Z</time></trkpt><trkpt lat="43.73195979740992" lon="11.76603729467224"><ele>345.4</ele><time>2026-04-19T10:49:38Z</time></trkpt><trkpt lat="43.73192533305587" lon="11.766161450526218"><ele>345.6</ele><time>2026-04-19T10:49:39Z</time></trkpt><trkpt lat="43.73187505613542" lon="11.766284700858598"><ele>345.8</ele><time>2026-04-19T10:49:40Z</time></trkpt><trkpt lat="43.73181355106447" lon="11.766372221256528"><ele>346.0</ele><time>2026-04-19T10:49:41Z</time></trkpt><trkpt lat="43.73172181332251" lon="11.766458399592526"><ele>346.0</ele><time>2026-04-19T10:49:42Z</time></trkpt><trkpt lat="43.73162545645036" lon="11.766543392278855"><ele>346.0</ele><time>2026-04-19T10:49:43Z</time></trkpt><trkpt lat="43.731524186239476" lon="11.7666233564265"><ele>346.0</ele><time>2026-04-19T10:49:44Z</time></trkpt><trkpt lat="43.73143018705099" lon="11.766697076522442"><ele>346.0</ele><time>2026-04-19T10:49:45Z</time></trkpt><trkpt lat="43.73134360388359" lon="11.766762802196489"><ele>346.0</ele><time>2026-04-19T10:49:46Z</time></trkpt><trkpt lat="43.73126269395729" lon="11.766822903015516"><ele>345.8333333333333</ele><time>2026-04-19T10:49:47Z</time></trkpt><trkpt lat="43.73118566635658" lon="11.76687951553608"><ele>345.66666666666663</ele><time>2026-04-19T10:49:48Z</time></trkpt><trkpt lat="43.731110955974785" lon="11.766930394746156"><ele>345.5</ele><time>2026-04-19T10:49:49Z</time></trkpt><trkpt lat="43.73103422551382" lon="11.766981870644042"><ele>345.3333333333333</ele><time>2026-04-19T10:49:50Z</time></trkpt><trkpt lat="43.73095537122633" lon="11.767036989658122"><ele>345.1666666666667</ele><time>2026-04-19T10:49:51Z</time></trkpt><trkpt lat="43.73087862770438" lon="11.767091303102548"><ele>345.0</ele><time>2026-04-19T10:49:52Z</time></trkpt><trkpt lat="43.730804965556594" lon="11.767141539478912"><ele>345.0</ele><time>2026-04-19T10:49:53Z</time></trkpt><trkpt lat="43.73073713536605" lon="11.767188839207737"><ele>345.0</ele><time>2026-04-19T10:49:54Z</time></trkpt><trkpt lat="43.73064594786636" lon="11.767256758977132"><ele>345.0</ele><time>2026-04-19T10:49:56Z</time></trkpt><trkpt lat="43.73057621800853" lon="11.767310613676964"><ele>345.0</ele><time>2026-04-19T10:49:59Z</time></trkpt><trkpt lat="43.73050729226975" lon="11.767331495336942"><ele>345.0</ele><time>2026-04-19T10:50:02Z</time></trkpt><trkpt lat="43.73047435766606" lon="11.76722082289128"><ele>345.0</ele><time>2026-04-19T10:50:04Z</time></trkpt><trkpt lat="43.73042170891723" lon="11.767100753903156"><ele>345.0</ele><time>2026-04-19T10:50:06Z</time></trkpt><trkpt lat="43.73038351985238" lon="11.766957806113595"><ele>345.0</ele><time>2026-04-19T10:50:08Z</time></trkpt><trkpt lat="43.730327488463836" lon="11.76681990326712"><ele>345.0</ele><time>2026-04-19T10:50:10Z</time></trkpt><trkpt lat="43.73027852224496" lon="11.766680666394501"><ele>345.0</ele><time>2026-04-19T10:50:12Z</time></trkpt><trkpt lat="43.730198719436835" lon="11.766566076326834"><ele>345.0</ele><time>2026-04-19T10:50:14Z</time></trkpt><trkpt lat="43.730132175234466" lon="11.766603079590654"><ele>345.0</ele><time>2026-04-19T10:50:15Z</time></trkpt><trkpt lat="43.73003246421408" lon="11.766666106639452"><ele>345.0</ele><time>2026-04-19T10:50:17Z</time></trkpt><trkpt lat="43.729929157899306" lon="11.76673894796622"><ele>345.0</ele><time>2026-04-19T10:50:19Z</time></trkpt><trkpt lat="43.729839112044054" lon="11.766790222706646"><ele>345.0</ele><time>2026-04-19T10:50:21Z</time></trkpt><trkpt lat="43.7297425679324" lon="11.766843871317336"><ele>344.8</ele><time>2026-04-19T10:50:23Z</time></trkpt><trkpt lat="43.72966047601037" lon="11.766895041641918"><ele>344.6</ele><time>2026-04-19T10:50:25Z</time></trkpt><trkpt lat="43.729592381032845" lon="11.766941151839324"><ele>344.4</ele><time>2026-04-19T10:50:27Z</time></trkpt><trkpt lat="43.72951131858264" lon="11.766974845612584"><ele>344.2</ele><time>2026-04-19T10:50:29Z</time></trkpt><trkpt lat="43.72940979061343" lon="11.767008457245593"><ele>344.0</ele><time>2026-04-19T10:50:31Z</time></trkpt><trkpt lat="43.72930221292698" lon="11.767009434105827"><ele>344.0</ele><time>2026-04-19T10:50:33Z</time></trkpt><trkpt lat="43.729233957528" lon="11.767001568262437"><ele>344.0</ele><time>2026-04-19T10:50:34Z</time></trkpt><trkpt lat="43.72915920462589" lon="11.766998042452848"><ele>344.0</ele><time>2026-04-19T10:50:35Z</time></trkpt><trkpt lat="43.72908794474623" lon="11.767017841871656"><ele>344.0</ele><time>2026-04-19T10:50:36Z</time></trkpt><trkpt lat="43.72901091616368" lon="11.767070981141048"><ele>344.0</ele><time>2026-04-19T10:50:37Z</time></trkpt><trkpt lat="43.72892983423379" lon="11.767131376750829"><ele>344.0</ele><time>2026-04-19T10:50:38Z</time></trkpt><trkpt lat="43.72884587990791" lon="11.76719801906135"><ele>344.0</ele><time>2026-04-19T10:50:39Z</time></trkpt><trkpt lat="43.728759959319554" lon="11.767265197442779"><ele>344.0</ele><time>2026-04-19T10:50:39.999Z</time></trkpt><trkpt lat="43.72867930543368" lon="11.767339185594217"><ele>344.0</ele><time>2026-04-19T10:50:40.999Z</time></trkpt><trkpt lat="43.72860654111121" lon="11.767410346205036"><ele>344.0</ele><time>2026-04-19T10:50:41.999Z</time></trkpt><trkpt lat="43.72853975182174" lon="11.767474799826266"><ele>344.0</ele><time>2026-04-19T10:50:42.999Z</time></trkpt><trkpt lat="43.72847303138478" lon="11.767536387931743"><ele>344.0</ele><time>2026-04-19T10:50:43.999Z</time></trkpt><trkpt lat="43.728407367361726" lon="11.767599310212574"><ele>343.6666666666667</ele><time>2026-04-19T10:50:44.999Z</time></trkpt><trkpt lat="43.72834301022438" lon="11.767663451837182"><ele>343.33333333333337</ele><time>2026-04-19T10:50:45.999Z</time></trkpt><trkpt lat="43.728274104280025" lon="11.76772811463291"><ele>343.0</ele><time>2026-04-19T10:50:46.999Z</time></trkpt><trkpt lat="43.72821000945925" lon="11.767795245415885"><ele>342.6666666666667</ele><time>2026-04-19T10:50:47.999Z</time></trkpt><trkpt lat="43.728152585287546" lon="11.767852528962445"><ele>342.3333333333333</ele><time>2026-04-19T10:50:48.999Z</time></trkpt><trkpt lat="43.72806828208496" lon="11.767931650006254"><ele>342.0</ele><time>2026-04-19T10:50:50.999Z</time></trkpt><trkpt lat="43.72802267100704" lon="11.768003727965171"><ele>342.0</ele><time>2026-04-19T10:50:52.999Z</time></trkpt><trkpt lat="43.72796626483123" lon="11.768070312262463"><ele>342.0</ele><time>2026-04-19T10:50:54.999Z</time></trkpt><trkpt lat="43.72787944389862" lon="11.768014398532864"><ele>342.0</ele><time>2026-04-19T10:50:55.999Z</time></trkpt><trkpt lat="43.72776242659527" lon="11.76794948411992"><ele>342.0</ele><time>2026-04-19T10:50:57.999Z</time></trkpt><trkpt lat="43.72769406932737" lon="11.76792277432592"><ele>342.0</ele><time>2026-04-19T10:50:58.999Z</time></trkpt><trkpt lat="43.727619281990854" lon="11.767893624105985"><ele>342.0</ele><time>2026-04-19T10:50:59.999Z</time></trkpt><trkpt lat="43.72754528804513" lon="11.767888074551355"><ele>341.8333333333333</ele><time>2026-04-19T10:51:00.999Z</time></trkpt><trkpt lat="43.727477252722764" lon="11.767838202190507"><ele>341.6666666666667</ele><time>2026-04-19T10:51:01.999Z</time></trkpt><trkpt lat="43.72740051071788" lon="11.76780819399947"><ele>341.5</ele><time>2026-04-19T10:51:02.999Z</time></trkpt><trkpt lat="43.7273221762692" lon="11.76777756310652"><ele>341.33333333333337</ele><time>2026-04-19T10:51:03.999Z</time></trkpt><trkpt lat="43.72724103060823" lon="11.767745832918477"><ele>341.1666666666667</ele><time>2026-04-19T10:51:04.999Z</time></trkpt><trkpt lat="43.727164442292484" lon="11.767715884842469"><ele>341.0</ele><time>2026-04-19T10:51:05.999Z</time></trkpt><trkpt lat="43.72709318488226" lon="11.76768802125295"><ele>341.0</ele><time>2026-04-19T10:51:06.999Z</time></trkpt><trkpt lat="43.72702242917047" lon="11.76765995494963"><ele>341.0</ele><time>2026-04-19T10:51:07.999Z</time></trkpt><trkpt lat="43.72695414774509" lon="11.767630927223466"><ele>341.0</ele><time>2026-04-19T10:51:08.999Z</time></trkpt><trkpt lat="43.7268903953165" lon="11.76759700447625"><ele>341.0</ele><time>2026-04-19T10:51:09.999Z</time></trkpt><trkpt lat="43.72682401207561" lon="11.767560087178067"><ele>341.0</ele><time>2026-04-19T10:51:10.998Z</time></trkpt><trkpt lat="43.72679307381794" lon="11.76746389785138"><ele>341.0</ele><time>2026-04-19T10:51:11.998Z</time></trkpt><trkpt lat="43.72677602940772" lon="11.767369055375841"><ele>341.0</ele><time>2026-04-19T10:51:12.998Z</time></trkpt><trkpt lat="43.72678184769029" lon="11.767265761286469"><ele>343.20000000000005</ele><time>2026-04-19T10:51:13.998Z</time></trkpt><trkpt lat="43.726802051333195" lon="11.767145263090612"><ele>345.40000000000003</ele><time>2026-04-19T10:51:14.998Z</time></trkpt><trkpt lat="43.72681191591226" lon="11.76702041236241"><ele>347.6</ele><time>2026-04-19T10:51:15.998Z</time></trkpt><trkpt lat="43.72683454471794" lon="11.766908811905235"><ele>349.8</ele><time>2026-04-19T10:51:16.998Z</time></trkpt><trkpt lat="43.72686841084583" lon="11.766822855392451"><ele>352.0</ele><time>2026-04-19T10:51:17.998Z</time></trkpt><trkpt lat="43.72687582980793" lon="11.76666340653557"><ele>352.0</ele><time>2026-04-19T10:51:19.998Z</time></trkpt><trkpt lat="43.726806829847774" lon="11.766575789504184"><ele>352.0</ele><time>2026-04-19T10:51:21.998Z</time></trkpt><trkpt lat="43.72671415178611" lon="11.766588827443718"><ele>352.0</ele><time>2026-04-19T10:51:23.998Z</time></trkpt><trkpt lat="43.72666893690747" lon="11.766650713737056"><ele>352.0</ele><time>2026-04-19T10:51:24.998Z</time></trkpt><trkpt lat="43.7266362907261" lon="11.766740698117777"><ele>352.0</ele><time>2026-04-19T10:51:25.998Z</time></trkpt><trkpt lat="43.72659831019335" lon="11.766847636625924"><ele>352.0</ele><time>2026-04-19T10:51:26.998Z</time></trkpt><trkpt lat="43.72655921789031" lon="11.766951476242319"><ele>352.0</ele><time>2026-04-19T10:51:27.998Z</time></trkpt><trkpt lat="43.72651387917201" lon="11.767059109627759"><ele>352.0</ele><time>2026-04-19T10:51:28.998Z</time></trkpt><trkpt lat="43.72646172047686" lon="11.767176066594478"><ele>352.0</ele><time>2026-04-19T10:51:29.998Z</time></trkpt><trkpt lat="43.72641285346806" lon="11.767287978017578"><ele>352.0</ele><time>2026-04-19T10:51:30.998Z</time></trkpt><trkpt lat="43.72636938611039" lon="11.767403180663576"><ele>352.0</ele><time>2026-04-19T10:51:31.998Z</time></trkpt><trkpt lat="43.72632418640766" lon="11.767513580293397"><ele>352.0</ele><time>2026-04-19T10:51:32.998Z</time></trkpt><trkpt lat="43.726278034155726" lon="11.767621213999293"><ele>352.0</ele><time>2026-04-19T10:51:33.997Z</time></trkpt><trkpt lat="43.72622259441052" lon="11.767719001680506"><ele>352.0</ele><time>2026-04-19T10:51:34.997Z</time></trkpt><trkpt lat="43.72615404361683" lon="11.767795214698962"><ele>352.0</ele><time>2026-04-19T10:51:35.997Z</time></trkpt><trkpt lat="43.72607263720306" lon="11.767851345367262"><ele>352.0</ele><time>2026-04-19T10:51:36.997Z</time></trkpt><trkpt lat="43.72599371451125" lon="11.767904500424404"><ele>352.0</ele><time>2026-04-19T10:51:37.997Z</time></trkpt><trkpt lat="43.72592391800014" lon="11.767953885779475"><ele>354.16666666666663</ele><time>2026-04-19T10:51:38.997Z</time></trkpt><trkpt lat="43.72585540538267" lon="11.767981827708626"><ele>356.3333333333333</ele><time>2026-04-19T10:51:39.997Z</time></trkpt><trkpt lat="43.72578250742266" lon="11.767983570340403"><ele>358.5</ele><time>2026-04-19T10:51:41Z</time></trkpt><trkpt lat="43.725702715374766" lon="11.767943758281291"><ele>360.6666666666667</ele><time>2026-04-19T10:51:42Z</time></trkpt><trkpt lat="43.72561583032761" lon="11.76788297159038"><ele>362.83333333333337</ele><time>2026-04-19T10:51:43Z</time></trkpt><trkpt lat="43.72553789038541" lon="11.767801252465745"><ele>365.0</ele><time>2026-04-19T10:51:44Z</time></trkpt><trkpt lat="43.725454723161754" lon="11.767742716635937"><ele>365.0</ele><time>2026-04-19T10:51:45Z</time></trkpt><trkpt lat="43.72537488133122" lon="11.76772176491656"><ele>365.0</ele><time>2026-04-19T10:51:46Z</time></trkpt><trkpt lat="43.72530044522737" lon="11.767726780381926"><ele>365.0</ele><time>2026-04-19T10:51:47Z</time></trkpt><trkpt lat="43.72523618509985" lon="11.767773737586033"><ele>365.0</ele><time>2026-04-19T10:51:48Z</time></trkpt><trkpt lat="43.72519110775335" lon="11.767854440472517"><ele>365.0</ele><time>2026-04-19T10:51:49Z</time></trkpt><trkpt lat="43.72517331562582" lon="11.767961150895136"><ele>365.0</ele><time>2026-04-19T10:51:50Z</time></trkpt><trkpt lat="43.72518308784189" lon="11.768075671029402"><ele>365.0</ele><time>2026-04-19T10:51:51Z</time></trkpt><trkpt lat="43.72521622349973" lon="11.76819534911406"><ele>365.0</ele><time>2026-04-19T10:51:52Z</time></trkpt><trkpt lat="43.7252478144261" lon="11.768293913270567"><ele>365.0</ele><time>2026-04-19T10:51:53Z</time></trkpt><trkpt lat="43.72526080370012" lon="11.76838769097195"><ele>365.0</ele><time>2026-04-19T10:51:54Z</time></trkpt><trkpt lat="43.72524113710612" lon="11.768473066232431"><ele>365.0</ele><time>2026-04-19T10:51:55Z</time></trkpt><trkpt lat="43.72513145473874" lon="11.76855241493043"><ele>365.0</ele><time>2026-04-19T10:51:57Z</time></trkpt><trkpt lat="43.7250590829965" lon="11.768520143960075"><ele>368.6</ele><time>2026-04-19T10:51:58Z</time></trkpt><trkpt lat="43.725007031127966" lon="11.768433269090119"><ele>372.2</ele><time>2026-04-19T10:51:59Z</time></trkpt><trkpt lat="43.724977475603126" lon="11.768320490973563"><ele>375.79999999999995</ele><time>2026-04-19T10:51:59.999Z</time></trkpt><trkpt lat="43.72496225650904" lon="11.768185753386529"><ele>379.4</ele><time>2026-04-19T10:52:00.999Z</time></trkpt><trkpt lat="43.72494372320279" lon="11.768051479757071"><ele>383.0</ele><time>2026-04-19T10:52:01.999Z</time></trkpt><trkpt lat="43.72491822500759" lon="11.767910043737023"><ele>383.0</ele><time>2026-04-19T10:52:02.999Z</time></trkpt><trkpt lat="43.72488944362855" lon="11.767761999577392"><ele>383.0</ele><time>2026-04-19T10:52:03.999Z</time></trkpt><trkpt lat="43.7248594110885" lon="11.767615904861735"><ele>383.0</ele><time>2026-04-19T10:52:04.999Z</time></trkpt><trkpt lat="43.72482754954841" lon="11.767474322894637"><ele>383.0</ele><time>2026-04-19T10:52:05.999Z</time></trkpt><trkpt lat="43.72480131889372" lon="11.767334097007227"><ele>383.0</ele><time>2026-04-19T10:52:06.999Z</time></trkpt><trkpt lat="43.72478280033914" lon="11.76720049878915"><ele>382.33333333333337</ele><time>2026-04-19T10:52:07.999Z</time></trkpt><trkpt lat="43.72478514420553" lon="11.767076910572989"><ele>381.6666666666667</ele><time>2026-04-19T10:52:08.999Z</time></trkpt><trkpt lat="43.72482465126321" lon="11.76696130220874"><ele>381.0</ele><time>2026-04-19T10:52:09.999Z</time></trkpt><trkpt lat="43.72488892638677" lon="11.766868974072764"><ele>380.3333333333333</ele><time>2026-04-19T10:52:10.999Z</time></trkpt><trkpt lat="43.72495110296618" lon="11.766787440228015"><ele>379.66666666666663</ele><time>2026-04-19T10:52:11.999Z</time></trkpt><trkpt lat="43.724971525122854" lon="11.766696502925381"><ele>379.0</ele><time>2026-04-19T10:52:12.999Z</time></trkpt><trkpt lat="43.72495750293223" lon="11.766592402409971"><ele>380.66666666666663</ele><time>2026-04-19T10:52:13.999Z</time></trkpt><trkpt lat="43.72490868568113" lon="11.766504124732078"><ele>382.3333333333333</ele><time>2026-04-19T10:52:14.999Z</time></trkpt><trkpt lat="43.7248373531422" lon="11.766445516014311"><ele>384.0</ele><time>2026-04-19T10:52:15.999Z</time></trkpt><trkpt lat="43.724755346768184" lon="11.766415386971401"><ele>385.66666666666663</ele><time>2026-04-19T10:52:16.999Z</time></trkpt><trkpt lat="43.72466013873925" lon="11.76643277854242"><ele>387.3333333333333</ele><time>2026-04-19T10:52:17.999Z</time></trkpt><trkpt lat="43.724565506969604" lon="11.766468678097727"><ele>389.0</ele><time>2026-04-19T10:52:18.999Z</time></trkpt><trkpt lat="43.724477083893" lon="11.76652137902771"><ele>389.0</ele><time>2026-04-19T10:52:19.999Z</time></trkpt><trkpt lat="43.72440115277244" lon="11.766601032112852"><ele>389.0</ele><time>2026-04-19T10:52:20.999Z</time></trkpt><trkpt lat="43.72434062311365" lon="11.766698203536103"><ele>389.0</ele><time>2026-04-19T10:52:21.999Z</time></trkpt><trkpt lat="43.724296690009574" lon="11.766818304129288"><ele>389.0</ele><time>2026-04-19T10:52:22.999Z</time></trkpt><trkpt lat="43.72429594627884" lon="11.76695518107396"><ele>389.0</ele><time>2026-04-19T10:52:23.999Z</time></trkpt><trkpt lat="43.7242811252754" lon="11.767108407950717"><ele>392.25</ele><time>2026-04-19T10:52:24.999Z</time></trkpt><trkpt lat="43.72429301723212" lon="11.767281578897151"><ele>395.5</ele><time>2026-04-19T10:52:25.999Z</time></trkpt><trkpt lat="43.72429959947453" lon="11.767455191896111"><ele>398.75</ele><time>2026-04-19T10:52:26.999Z</time></trkpt><trkpt lat="43.72430632562602" lon="11.767622358580256"><ele>402.0</ele><time>2026-04-19T10:52:27.999Z</time></trkpt><trkpt lat="43.724319701945" lon="11.767779034916442"><ele>401.40000000000003</ele><time>2026-04-19T10:52:28.999Z</time></trkpt><trkpt lat="43.72432648517229" lon="11.767937158359915"><ele>400.8</ele><time>2026-04-19T10:52:29.999Z</time></trkpt><trkpt lat="43.72432558065581" lon="11.768092304562039"><ele>400.2</ele><time>2026-04-19T10:52:30.999Z</time></trkpt><trkpt lat="43.72432760887797" lon="11.768242368155134"><ele>399.6</ele><time>2026-04-19T10:52:31.999Z</time></trkpt><trkpt lat="43.724334547576994" lon="11.768389545449416"><ele>399.0</ele><time>2026-04-19T10:52:32.999Z</time></trkpt><trkpt lat="43.72435439485832" lon="11.768531312973911"><ele>399.0</ele><time>2026-04-19T10:52:33.999Z</time></trkpt><trkpt lat="43.72433043551084" lon="11.768669350938524"><ele>399.0</ele><time>2026-04-19T10:52:34.999Z</time></trkpt><trkpt lat="43.724303901392695" lon="11.768781978147414"><ele>399.0</ele><time>2026-04-19T10:52:35.999Z</time></trkpt><trkpt lat="43.724246584102836" lon="11.76885495231657"><ele>399.0</ele><time>2026-04-19T10:52:36.999Z</time></trkpt><trkpt lat="43.72416489885759" lon="11.768906287872737"><ele>399.0</ele><time>2026-04-19T10:52:37.999Z</time></trkpt><trkpt lat="43.72406765781552" lon="11.768959216634151"><ele>399.0</ele><time>2026-04-19T10:52:38.999Z</time></trkpt><trkpt lat="43.72396680742601" lon="11.769007999200094"><ele>399.0</ele><time>2026-04-19T10:52:39.999Z</time></trkpt><trkpt lat="43.723873674621785" lon="11.769053239919279"><ele>399.0</ele><time>2026-04-19T10:52:40.999Z</time></trkpt><trkpt lat="43.72379619111924" lon="11.769094885340705"><ele>399.0</ele><time>2026-04-19T10:52:41.999Z</time></trkpt><trkpt lat="43.72368597035796" lon="11.769089790790852"><ele>399.0</ele><time>2026-04-19T10:52:43.999Z</time></trkpt><trkpt lat="43.723650778993886" lon="11.768940247015099"><ele>399.0</ele><time>2026-04-19T10:52:45.999Z</time></trkpt><trkpt lat="43.72368587769252" lon="11.768866985497963"><ele>399.0</ele><time>2026-04-19T10:52:46.999Z</time></trkpt><trkpt lat="43.723755076541686" lon="11.768809910137366"><ele>399.0</ele><time>2026-04-19T10:52:47.999Z</time></trkpt><trkpt lat="43.72383917104562" lon="11.768761781862523"><ele>399.0</ele><time>2026-04-19T10:52:48.999Z</time></trkpt><trkpt lat="43.72391702324721" lon="11.768708650417864"><ele>399.0</ele><time>2026-04-19T10:52:49.999Z</time></trkpt><trkpt lat="43.723981353640625" lon="11.76863360378466"><ele>399.0</ele><time>2026-04-19T10:52:50.999Z</time></trkpt><trkpt lat="43.72402649792146" lon="11.768542270833745"><ele>400.6</ele><time>2026-04-19T10:52:51.998Z</time></trkpt><trkpt lat="43.72403433670876" lon="11.76842869079578"><ele>402.2</ele><time>2026-04-19T10:52:52.998Z</time></trkpt><trkpt lat="43.724010753580096" lon="11.768304714582102"><ele>403.8</ele><time>2026-04-19T10:52:53.998Z</time></trkpt><trkpt lat="43.72396394440046" lon="11.76818115029437"><ele>405.40000000000003</ele><time>2026-04-19T10:52:54.998Z</time></trkpt><trkpt lat="43.72390304433735" lon="11.76804828709443"><ele>407.0</ele><time>2026-04-19T10:52:55.998Z</time></trkpt><trkpt lat="43.72383815302729" lon="11.767911877054894"><ele>407.0</ele><time>2026-04-19T10:52:56.998Z</time></trkpt><trkpt lat="43.72377749280382" lon="11.767774282171047"><ele>407.0</ele><time>2026-04-19T10:52:57.998Z</time></trkpt><trkpt lat="43.72372043072441" lon="11.767634261746498"><ele>407.0</ele><time>2026-04-19T10:52:58.998Z</time></trkpt><trkpt lat="43.723667797712146" lon="11.767500896775411"><ele>407.0</ele><time>2026-04-19T10:52:59.998Z</time></trkpt><trkpt lat="43.72361731428912" lon="11.76737471359094"><ele>407.0</ele><time>2026-04-19T10:53:00.998Z</time></trkpt><trkpt lat="43.7235744560485" lon="11.76726975130303"><ele>410.16666666666663</ele><time>2026-04-19T10:53:01.998Z</time></trkpt><trkpt lat="43.72353182806182" lon="11.767174183001446"><ele>413.3333333333333</ele><time>2026-04-19T10:53:02.998Z</time></trkpt><trkpt lat="43.72349325841731" lon="11.767083514381788"><ele>416.5</ele><time>2026-04-19T10:53:03.998Z</time></trkpt><trkpt lat="43.72345324775466" lon="11.766997248631537"><ele>419.66666666666663</ele><time>2026-04-19T10:53:04.998Z</time></trkpt><trkpt lat="43.72341351756952" lon="11.766910499593525"><ele>422.8333333333333</ele><time>2026-04-19T10:53:05.998Z</time></trkpt><trkpt lat="43.723376205043515" lon="11.766819642604899"><ele>426.0</ele><time>2026-04-19T10:53:06.998Z</time></trkpt><trkpt lat="43.72334242470769" lon="11.766727659380699"><ele>426.0</ele><time>2026-04-19T10:53:07.998Z</time></trkpt><trkpt lat="43.723350746941854" lon="11.766636464481968"><ele>426.0</ele><time>2026-04-19T10:53:08.998Z</time></trkpt><trkpt lat="43.72334542468788" lon="11.76647761943434"><ele>426.0</ele><time>2026-04-19T10:53:10.998Z</time></trkpt><trkpt lat="43.72333487248159" lon="11.766349867747499"><ele>426.0</ele><time>2026-04-19T10:53:12.998Z</time></trkpt><trkpt lat="43.72328323380109" lon="11.76620322668872"><ele>426.0</ele><time>2026-04-19T10:53:14.998Z</time></trkpt><trkpt lat="43.72321885893995" lon="11.76611015148783"><ele>426.0</ele><time>2026-04-19T10:53:16.998Z</time></trkpt><trkpt lat="43.72317739999985" lon="11.766036739112788"><ele>426.0</ele><time>2026-04-19T10:53:19.998Z</time></trkpt><trkpt lat="43.723147667256235" lon="11.765938730655678"><ele>426.0</ele><time>2026-04-19T10:53:26.998Z</time></trkpt><trkpt lat="43.72310419952047" lon="11.765867151345569"><ele>426.0</ele><time>2026-04-19T10:53:29.998Z</time></trkpt><trkpt lat="43.72296746847606" lon="11.765842784961949"><ele>426.0</ele><time>2026-04-19T10:53:32.998Z</time></trkpt><trkpt lat="43.72288409823322" lon="11.765837952552081"><ele>426.0</ele><time>2026-04-19T10:53:34.998Z</time></trkpt><trkpt lat="43.72278898315794" lon="11.765813260288612"><ele>425.6666666666667</ele><time>2026-04-19T10:53:36.998Z</time></trkpt><trkpt lat="43.72270431073688" lon="11.76582075546767"><ele>425.33333333333337</ele><time>2026-04-19T10:53:38.998Z</time></trkpt><trkpt lat="43.72261584737018" lon="11.765817813656453"><ele>425.0</ele><time>2026-04-19T10:53:40.998Z</time></trkpt><trkpt lat="43.722524297647986" lon="11.765816045138946"><ele>424.6666666666667</ele><time>2026-04-19T10:53:42.998Z</time></trkpt><trkpt lat="43.722433919492914" lon="11.765803280895671"><ele>424.33333333333337</ele><time>2026-04-19T10:53:44.998Z</time></trkpt><trkpt lat="43.72234612315323" lon="11.765794664518916"><ele>424.0</ele><time>2026-04-19T10:53:47Z</time></trkpt><trkpt lat="43.72226693542382" lon="11.765786686834597"><ele>424.0</ele><time>2026-04-19T10:53:49Z</time></trkpt><trkpt lat="43.722198904302495" lon="11.765811845501998"><ele>424.0</ele><time>2026-04-19T10:53:51Z</time></trkpt><trkpt lat="43.72214052301359" lon="11.765868199140222"><ele>424.0</ele><time>2026-04-19T10:53:53Z</time></trkpt><trkpt lat="43.72207182435579" lon="11.765916954647153"><ele>424.0</ele><time>2026-04-19T10:53:55Z</time></trkpt><trkpt lat="43.722002044513786" lon="11.76591471638999"><ele>424.0</ele><time>2026-04-19T10:53:57Z</time></trkpt><trkpt lat="43.721938073397006" lon="11.765969831406117"><ele>424.0</ele><time>2026-04-19T10:53:59Z</time></trkpt><trkpt lat="43.721871706437206" lon="11.766014942405294"><ele>424.0</ele><time>2026-04-19T10:54:01Z</time></trkpt><trkpt lat="43.721800077777026" lon="11.766064206557319"><ele>423.7142857142857</ele><time>2026-04-19T10:54:03Z</time></trkpt><trkpt lat="43.72173473958872" lon="11.766106375602513"><ele>423.4285714285714</ele><time>2026-04-19T10:54:05Z</time></trkpt><trkpt lat="43.72166081355098" lon="11.766125969584063"><ele>423.1428571428571</ele><time>2026-04-19T10:54:07Z</time></trkpt><trkpt lat="43.721596756210936" lon="11.766135799036245"><ele>422.8571428571429</ele><time>2026-04-19T10:54:09Z</time></trkpt><trkpt lat="43.72154122533193" lon="11.766189389617061"><ele>422.57142857142856</ele><time>2026-04-19T10:54:11Z</time></trkpt><trkpt lat="43.72151868639613" lon="11.766285513548176"><ele>422.2857142857143</ele><time>2026-04-19T10:54:12.999Z</time></trkpt><trkpt lat="43.721517835511285" lon="11.766374956248786"><ele>422.0</ele><time>2026-04-19T10:54:15.999Z</time></trkpt><trkpt lat="43.72155026598978" lon="11.766464964788401"><ele>422.0</ele><time>2026-04-19T10:55:20.998Z</time></trkpt><trkpt lat="43.72159712493122" lon="11.766564533526116"><ele>422.0</ele><time>2026-04-19T10:55:22.998Z</time></trkpt><trkpt lat="43.72163888609146" lon="11.766672302485471"><ele>422.0</ele><time>2026-04-19T10:55:24.998Z</time></trkpt><trkpt lat="43.72168105959892" lon="11.766787841562088"><ele>422.0</ele><time>2026-04-19T10:55:26.998Z</time></trkpt><trkpt lat="43.72174198870966" lon="11.766922421144363"><ele>422.0</ele><time>2026-04-19T10:55:28.998Z</time></trkpt><trkpt lat="43.7218217604344" lon="11.767054239191921"><ele>423.16666666666663</ele><time>2026-04-19T10:55:30.998Z</time></trkpt><trkpt lat="43.72186538359299" lon="11.767128198142345"><ele>424.3333333333333</ele><time>2026-04-19T10:55:31.998Z</time></trkpt><trkpt lat="43.72191185941017" lon="11.767211907162794"><ele>425.5</ele><time>2026-04-19T10:55:32.998Z</time></trkpt><trkpt lat="43.721954022940245" lon="11.76729973803506"><ele>426.66666666666663</ele><time>2026-04-19T10:55:33.998Z</time></trkpt><trkpt lat="43.72200014629926" lon="11.767395031683678"><ele>427.8333333333333</ele><time>2026-04-19T10:55:34.998Z</time></trkpt><trkpt lat="43.72204313860863" lon="11.767495886260157"><ele>429.0</ele><time>2026-04-19T10:55:35.998Z</time></trkpt><trkpt lat="43.72208877519871" lon="11.767596174330562"><ele>425.79999999999995</ele><time>2026-04-19T10:55:36.998Z</time></trkpt><trkpt lat="43.72213661554426" lon="11.76769822445315"><ele>422.59999999999997</ele><time>2026-04-19T10:55:37.998Z</time></trkpt><trkpt lat="43.72218489048266" lon="11.767798931491797"><ele>419.4</ele><time>2026-04-19T10:55:38.998Z</time></trkpt><trkpt lat="43.72223012611691" lon="11.76790829517621"><ele>416.2</ele><time>2026-04-19T10:55:39.998Z</time></trkpt><trkpt lat="43.722272999648496" lon="11.768021059717837"><ele>413.0</ele><time>2026-04-19T10:55:40.998Z</time></trkpt><trkpt lat="43.72231974285096" lon="11.76813228520677"><ele>413.0</ele><time>2026-04-19T10:55:41.998Z</time></trkpt><trkpt lat="43.72237001464775" lon="11.768244752637353"><ele>413.0</ele><time>2026-04-19T10:55:42.998Z</time></trkpt><trkpt lat="43.72241927739646" lon="11.768357685917975"><ele>413.0</ele><time>2026-04-19T10:55:43.998Z</time></trkpt><trkpt lat="43.7224670704857" lon="11.768472493205932"><ele>413.0</ele><time>2026-04-19T10:55:44.998Z</time></trkpt><trkpt lat="43.722510488175885" lon="11.768585974439498"><ele>413.0</ele><time>2026-04-19T10:55:45.998Z</time></trkpt><trkpt lat="43.72255414431176" lon="11.768699161763871"><ele>412.66666666666663</ele><time>2026-04-19T10:55:46.998Z</time></trkpt><trkpt lat="43.722595456911506" lon="11.768807900104287"><ele>412.3333333333333</ele><time>2026-04-19T10:55:47.998Z</time></trkpt><trkpt lat="43.72263749682788" lon="11.768905695109876"><ele>412.0</ele><time>2026-04-19T10:55:48.998Z</time></trkpt><trkpt lat="43.7226806524441" lon="11.769008946400891"><ele>411.66666666666663</ele><time>2026-04-19T10:55:49.998Z</time></trkpt><trkpt lat="43.72272062665724" lon="11.769118041862578"><ele>411.3333333333333</ele><time>2026-04-19T10:55:50.998Z</time></trkpt><trkpt lat="43.72276189248853" lon="11.769233375083514"><ele>411.0</ele><time>2026-04-19T10:55:51.998Z</time></trkpt><trkpt lat="43.722793114232516" lon="11.769350317036034"><ele>408.0</ele><time>2026-04-19T10:55:53Z</time></trkpt><trkpt lat="43.72282666246628" lon="11.769464818522652"><ele>405.0</ele><time>2026-04-19T10:55:54Z</time></trkpt><trkpt lat="43.72286333860456" lon="11.769577300490116"><ele>402.0</ele><time>2026-04-19T10:55:55Z</time></trkpt><trkpt lat="43.72290475316828" lon="11.769686266427371"><ele>399.0</ele><time>2026-04-19T10:55:56Z</time></trkpt><trkpt lat="43.722952110609974" lon="11.769783267744527"><ele>396.0</ele><time>2026-04-19T10:55:57Z</time></trkpt><trkpt lat="43.723004877330084" lon="11.769873489286462"><ele>393.0</ele><time>2026-04-19T10:55:58Z</time></trkpt><trkpt lat="43.72307868260165" lon="11.769953005489667"><ele>393.0</ele><time>2026-04-19T10:55:59Z</time></trkpt><trkpt lat="43.72315974629468" lon="11.77002357575046"><ele>393.0</ele><time>2026-04-19T10:56:00Z</time></trkpt><trkpt lat="43.72324711240614" lon="11.770077218674848"><ele>393.0</ele><time>2026-04-19T10:56:01Z</time></trkpt><trkpt lat="43.723333904335774" lon="11.77010311433576"><ele>393.0</ele><time>2026-04-19T10:56:02Z</time></trkpt><trkpt lat="43.72341377854082" lon="11.770110302465413"><ele>393.0</ele><time>2026-04-19T10:56:03Z</time></trkpt><trkpt lat="43.72348603163123" lon="11.770088497937301"><ele>393.0</ele><time>2026-04-19T10:56:04Z</time></trkpt><trkpt lat="43.723562579433924" lon="11.770046587862678"><ele>389.2</ele><time>2026-04-19T10:56:05Z</time></trkpt><trkpt lat="43.723641014166894" lon="11.769948479750528"><ele>385.4</ele><time>2026-04-19T10:56:06Z</time></trkpt><trkpt lat="43.723717336768914" lon="11.769823280651513"><ele>381.59999999999997</ele><time>2026-04-19T10:56:07Z</time></trkpt><trkpt lat="43.72379360499142" lon="11.76970945808182"><ele>377.79999999999995</ele><time>2026-04-19T10:56:08Z</time></trkpt><trkpt lat="43.723860905179706" lon="11.769590292025441"><ele>374.0</ele><time>2026-04-19T10:56:09Z</time></trkpt><trkpt lat="43.72393773916769" lon="11.769502094015984"><ele>374.0</ele><time>2026-04-19T10:56:10Z</time></trkpt><trkpt lat="43.72401924633689" lon="11.769428693410468"><ele>374.0</ele><time>2026-04-19T10:56:11Z</time></trkpt><trkpt lat="43.72410664673199" lon="11.769367332680194"><ele>374.0</ele><time>2026-04-19T10:56:12Z</time></trkpt><trkpt lat="43.72420052332445" lon="11.76933042880304"><ele>374.0</ele><time>2026-04-19T10:56:13Z</time></trkpt><trkpt lat="43.724291535324745" lon="11.769296701044652"><ele>374.0</ele><time>2026-04-19T10:56:14Z</time></trkpt><trkpt lat="43.72438079211233" lon="11.76927854344897"><ele>375.6</ele><time>2026-04-19T10:56:15Z</time></trkpt><trkpt lat="43.72446960489473" lon="11.769287064225843"><ele>377.2</ele><time>2026-04-19T10:56:16Z</time></trkpt><trkpt lat="43.72455822193942" lon="11.769310272693064"><ele>378.8</ele><time>2026-04-19T10:56:17Z</time></trkpt><trkpt lat="43.72464696130594" lon="11.769347807431704"><ele>380.40000000000003</ele><time>2026-04-19T10:56:18Z</time></trkpt><trkpt lat="43.72474192593069" lon="11.769384279481736"><ele>382.0</ele><time>2026-04-19T10:56:19Z</time></trkpt><trkpt lat="43.72483953299774" lon="11.76941760646715"><ele>377.6</ele><time>2026-04-19T10:56:20Z</time></trkpt><trkpt lat="43.724937191020466" lon="11.769443258670831"><ele>373.20000000000005</ele><time>2026-04-19T10:56:21Z</time></trkpt><trkpt lat="43.725031506815334" lon="11.769462378821855"><ele>368.8</ele><time>2026-04-19T10:56:22Z</time></trkpt><trkpt lat="43.72512461717212" lon="11.76947604932833"><ele>364.4</ele><time>2026-04-19T10:56:23Z</time></trkpt><trkpt lat="43.72521259036138" lon="11.769489364400803"><ele>360.0</ele><time>2026-04-19T10:56:24Z</time></trkpt><trkpt lat="43.72529553453497" lon="11.769491352140319"><ele>360.3333333333333</ele><time>2026-04-19T10:56:25Z</time></trkpt><trkpt lat="43.725375287283455" lon="11.769472735295835"><ele>360.6666666666667</ele><time>2026-04-19T10:56:26Z</time></trkpt><trkpt lat="43.725454330737264" lon="11.769434562876638"><ele>361.0</ele><time>2026-04-19T10:56:27Z</time></trkpt><trkpt lat="43.72552235020401" lon="11.769374139889115"><ele>361.33333333333337</ele><time>2026-04-19T10:56:27.999Z</time></trkpt><trkpt lat="43.725592659561244" lon="11.769299165306233"><ele>361.6666666666667</ele><time>2026-04-19T10:56:28.999Z</time></trkpt><trkpt lat="43.72564552008478" lon="11.769186343926696"><ele>362.0</ele><time>2026-04-19T10:56:29.999Z</time></trkpt><trkpt lat="43.725693389805116" lon="11.769055740897274"><ele>362.0</ele><time>2026-04-19T10:56:30.999Z</time></trkpt><trkpt lat="43.72573087185744" lon="11.768913695439624"><ele>362.0</ele><time>2026-04-19T10:56:31.999Z</time></trkpt><trkpt lat="43.72575955637922" lon="11.7687734936526"><ele>362.0</ele><time>2026-04-19T10:56:32.999Z</time></trkpt><trkpt lat="43.725780351247835" lon="11.768643187589127"><ele>362.0</ele><time>2026-04-19T10:56:33.999Z</time></trkpt><trkpt lat="43.72579701950638" lon="11.768524327031718"><ele>362.0</ele><time>2026-04-19T10:56:34.999Z</time></trkpt><trkpt lat="43.72581256612521" lon="11.768413464821686"><ele>362.5</ele><time>2026-04-19T10:56:35.999Z</time></trkpt><trkpt lat="43.72582772220093" lon="11.768308815581213"><ele>363.0</ele><time>2026-04-19T10:56:36.999Z</time></trkpt><trkpt lat="43.72583128542895" lon="11.7682026306016"><ele>363.5</ele><time>2026-04-19T10:56:37.999Z</time></trkpt><trkpt lat="43.72585793328898" lon="11.768108243633456"><ele>364.0</ele><time>2026-04-19T10:56:38.999Z</time></trkpt><trkpt lat="43.72591489988819" lon="11.768016712829102"><ele>364.5</ele><time>2026-04-19T10:56:39.999Z</time></trkpt><trkpt lat="43.72598373195803" lon="11.767936981150763"><ele>365.0</ele><time>2026-04-19T10:56:40.999Z</time></trkpt><trkpt lat="43.726068038131494" lon="11.767883447346623"><ele>362.4</ele><time>2026-04-19T10:56:41.999Z</time></trkpt><trkpt lat="43.72615406031608" lon="11.767828053753082"><ele>359.8</ele><time>2026-04-19T10:56:42.999Z</time></trkpt><trkpt lat="43.72622655714509" lon="11.767753792561287"><ele>357.20000000000005</ele><time>2026-04-19T10:56:43.999Z</time></trkpt><trkpt lat="43.726295352586895" lon="11.767664849307923"><ele>354.6</ele><time>2026-04-19T10:56:44.999Z</time></trkpt><trkpt lat="43.72635346183173" lon="11.767534252911172"><ele>352.0</ele><time>2026-04-19T10:56:45.999Z</time></trkpt><trkpt lat="43.7264115020934" lon="11.767398361679101"><ele>352.0</ele><time>2026-04-19T10:56:46.999Z</time></trkpt><trkpt lat="43.72646547565671" lon="11.767271990989281"><ele>352.0</ele><time>2026-04-19T10:56:47.999Z</time></trkpt><trkpt lat="43.72651522994504" lon="11.767155499072132"><ele>352.0</ele><time>2026-04-19T10:56:48.999Z</time></trkpt><trkpt lat="43.72655853213951" lon="11.767054113871318"><ele>352.0</ele><time>2026-04-19T10:56:49.999Z</time></trkpt><trkpt lat="43.72659728077482" lon="11.766963390477649"><ele>352.0</ele><time>2026-04-19T10:56:50.999Z</time></trkpt><trkpt lat="43.72663206132465" lon="11.76687411053225"><ele>352.0</ele><time>2026-04-19T10:56:51.999Z</time></trkpt><trkpt lat="43.726662557383136" lon="11.76679180652096"><ele>352.0</ele><time>2026-04-19T10:56:52.999Z</time></trkpt><trkpt lat="43.72671683965167" lon="11.766659628152613"><ele>352.0</ele><time>2026-04-19T10:56:54.999Z</time></trkpt><trkpt lat="43.72678542184588" lon="11.7666134406455"><ele>352.0</ele><time>2026-04-19T10:56:56.999Z</time></trkpt><trkpt lat="43.72684006518541" lon="11.766759777004166"><ele>352.0</ele><time>2026-04-19T10:56:58.999Z</time></trkpt><trkpt lat="43.72681518759132" lon="11.766862696496661"><ele>352.0</ele><time>2026-04-19T10:56:59.999Z</time></trkpt><trkpt lat="43.726787003420085" lon="11.766971986130567"><ele>352.0</ele><time>2026-04-19T10:57:00.999Z</time></trkpt><trkpt lat="43.72676292763016" lon="11.767093375303324"><ele>352.0</ele><time>2026-04-19T10:57:01.999Z</time></trkpt><trkpt lat="43.72673965354952" lon="11.767208982886235"><ele>352.0</ele><time>2026-04-19T10:57:02.999Z</time></trkpt><trkpt lat="43.7267288667759" lon="11.76732020216211"><ele>352.0</ele><time>2026-04-19T10:57:03.999Z</time></trkpt><trkpt lat="43.726736236656706" lon="11.767425443688756"><ele>352.0</ele><time>2026-04-19T10:57:04.999Z</time></trkpt><trkpt lat="43.726767860283694" lon="11.767518108173293"><ele>352.0</ele><time>2026-04-19T10:57:05.999Z</time></trkpt><trkpt lat="43.72682581261765" lon="11.767601752679411"><ele>349.8</ele><time>2026-04-19T10:57:06.999Z</time></trkpt><trkpt lat="43.726906902550986" lon="11.767664203450565"><ele>347.6</ele><time>2026-04-19T10:57:07.999Z</time></trkpt><trkpt lat="43.72700073444814" lon="11.767700449205913"><ele>345.40000000000003</ele><time>2026-04-19T10:57:08.999Z</time></trkpt><trkpt lat="43.727098933984664" lon="11.767732399598057"><ele>343.20000000000005</ele><time>2026-04-19T10:57:09.999Z</time></trkpt><trkpt lat="43.72719895245693" lon="11.767769459467617"><ele>341.0</ele><time>2026-04-19T10:57:10.999Z</time></trkpt><trkpt lat="43.727301163434156" lon="11.767808380019892"><ele>341.1666666666667</ele><time>2026-04-19T10:57:11.999Z</time></trkpt><trkpt lat="43.727402861192246" lon="11.767847979497674"><ele>341.33333333333337</ele><time>2026-04-19T10:57:12.999Z</time></trkpt><trkpt lat="43.727497758038545" lon="11.767884831536715"><ele>341.5</ele><time>2026-04-19T10:57:13.999Z</time></trkpt><trkpt lat="43.72757941395221" lon="11.767918615162293"><ele>341.6666666666667</ele><time>2026-04-19T10:57:14.999Z</time></trkpt><trkpt lat="43.727651544212655" lon="11.767949288111822"><ele>341.8333333333333</ele><time>2026-04-19T10:57:15.999Z</time></trkpt><trkpt lat="43.72771420344321" lon="11.767977137389977"><ele>342.0</ele><time>2026-04-19T10:57:16.999Z</time></trkpt><trkpt lat="43.72781330226206" lon="11.768018465105058"><ele>342.0</ele><time>2026-04-19T10:57:18.999Z</time></trkpt><trkpt lat="43.727888905749175" lon="11.768064287446457"><ele>342.0</ele><time>2026-04-19T10:57:20.998Z</time></trkpt><trkpt lat="43.72793958146145" lon="11.768121072799905"><ele>342.0</ele><time>2026-04-19T10:57:24.998Z</time></trkpt><trkpt lat="43.72799887208134" lon="11.76815403816921"><ele>342.0</ele><time>2026-04-19T10:58:15Z</time></trkpt><trkpt lat="43.728155098553394" lon="11.767886015242842"><ele>342.0</ele><time>2026-04-19T10:59:14.999Z</time></trkpt><trkpt lat="43.72825495354321" lon="11.76778640034318"><ele>342.0</ele><time>2026-04-19T10:59:16.999Z</time></trkpt><trkpt lat="43.728423248997125" lon="11.767825209899994"><ele>342.0</ele><time>2026-04-19T10:59:18.999Z</time></trkpt><trkpt lat="43.72851983812928" lon="11.767722820998733"><ele>342.0</ele><time>2026-04-19T10:59:20.999Z</time></trkpt><trkpt lat="43.728552373078124" lon="11.767502278593225"><ele>342.40000000000003</ele><time>2026-04-19T10:59:22.999Z</time></trkpt><trkpt lat="43.728606626025034" lon="11.767449133935264"><ele>342.8</ele><time>2026-04-19T10:59:23.999Z</time></trkpt><trkpt lat="43.72866600845838" lon="11.767390317772454"><ele>343.2</ele><time>2026-04-19T10:59:24.999Z</time></trkpt><trkpt lat="43.728730664153986" lon="11.767330689133297"><ele>343.6</ele><time>2026-04-19T10:59:25.999Z</time></trkpt><trkpt lat="43.72879870473592" lon="11.767267470157185"><ele>344.0</ele><time>2026-04-19T10:59:26.999Z</time></trkpt><trkpt lat="43.72893630729872" lon="11.76737748687806"><ele>344.0</ele><time>2026-04-19T10:59:27.999Z</time></trkpt><trkpt lat="43.72900752871096" lon="11.767321672556637"><ele>344.0</ele><time>2026-04-19T10:59:28.999Z</time></trkpt><trkpt lat="43.72907761977076" lon="11.767266743919317"><ele>344.0</ele><time>2026-04-19T10:59:29.999Z</time></trkpt><trkpt lat="43.729144659356635" lon="11.767214206715916"><ele>344.0</ele><time>2026-04-19T10:59:30.999Z</time></trkpt><trkpt lat="43.72915295406754" lon="11.767035305469411"><ele>344.0</ele><time>2026-04-19T10:59:31.999Z</time></trkpt><trkpt lat="43.7292269079921" lon="11.767025866896676"><ele>344.0</ele><time>2026-04-19T10:59:32.998Z</time></trkpt><trkpt lat="43.72930138274179" lon="11.767027213636354"><ele>344.0</ele><time>2026-04-19T10:59:33.998Z</time></trkpt><trkpt lat="43.72937337817345" lon="11.767027952002225"><ele>344.0</ele><time>2026-04-19T10:59:34.998Z</time></trkpt><trkpt lat="43.72944461523247" lon="11.767025858327006"><ele>344.0</ele><time>2026-04-19T10:59:35.998Z</time></trkpt><trkpt lat="43.729509888190044" lon="11.767007045739357"><ele>344.0</ele><time>2026-04-19T10:59:36.998Z</time></trkpt><trkpt lat="43.72961617756522" lon="11.766953345405206"><ele>344.0</ele><time>2026-04-19T10:59:38.998Z</time></trkpt><trkpt lat="43.729696434604335" lon="11.766899837437615"><ele>344.0</ele><time>2026-04-19T10:59:40.998Z</time></trkpt><trkpt lat="43.72976090698114" lon="11.76684562153474"><ele>344.0</ele><time>2026-04-19T10:59:42.998Z</time></trkpt><trkpt lat="43.72984937644003" lon="11.76685652319245"><ele>344.0</ele><time>2026-04-19T10:59:45.998Z</time></trkpt><trkpt lat="43.72989134649826" lon="11.76699255985598"><ele>344.0</ele><time>2026-04-19T10:59:47.998Z</time></trkpt><trkpt lat="43.72993436034963" lon="11.767138207511353"><ele>344.0</ele><time>2026-04-19T10:59:49.998Z</time></trkpt><trkpt lat="43.72999344380516" lon="11.767282246890412"><ele>344.0</ele><time>2026-04-19T10:59:51.998Z</time></trkpt><trkpt lat="43.73004387441291" lon="11.767408023060232"><ele>344.0</ele><time>2026-04-19T10:59:53.998Z</time></trkpt><trkpt lat="43.73007437353268" lon="11.767496457513781"><ele>344.0</ele><time>2026-04-19T10:59:55.998Z</time></trkpt><trkpt lat="43.730112401275434" lon="11.767591195895724"><ele>344.0</ele><time>2026-04-19T10:59:59.998Z</time></trkpt><trkpt lat="43.73016418091066" lon="11.767644740061096"><ele>344.0</ele><time>2026-04-19T11:00:01.998Z</time></trkpt><trkpt lat="43.73026411923656" lon="11.767617282895113"><ele>344.0</ele><time>2026-04-19T11:00:03.998Z</time></trkpt><trkpt lat="43.73035842415241" lon="11.767545475528802"><ele>344.0</ele><time>2026-04-19T11:00:06Z</time></trkpt><trkpt lat="43.730462875280764" lon="11.767465031117403"><ele>344.1666666666667</ele><time>2026-04-19T11:00:08Z</time></trkpt><trkpt lat="43.73052163180726" lon="11.767422422508012"><ele>344.33333333333337</ele><time>2026-04-19T11:00:09Z</time></trkpt><trkpt lat="43.73062743985811" lon="11.767332842091847"><ele>344.5</ele><time>2026-04-19T11:00:11Z</time></trkpt><trkpt lat="43.73068425708394" lon="11.767284012093894"><ele>344.6666666666667</ele><time>2026-04-19T11:00:12Z</time></trkpt><trkpt lat="43.73074765111775" lon="11.767241672770702"><ele>344.8333333333333</ele><time>2026-04-19T11:00:13Z</time></trkpt><trkpt lat="43.730819364312005" lon="11.767196549748894"><ele>345.0</ele><time>2026-04-19T11:00:14Z</time></trkpt><trkpt lat="43.73089342376687" lon="11.767133802087804"><ele>345.0</ele><time>2026-04-19T11:00:15Z</time></trkpt><trkpt lat="43.73097224467412" lon="11.767072945098136"><ele>345.0</ele><time>2026-04-19T11:00:16Z</time></trkpt><trkpt lat="43.7310575391175" lon="11.767016208908046"><ele>345.0</ele><time>2026-04-19T11:00:17Z</time></trkpt><trkpt lat="43.7311458901467" lon="11.766959784258074"><ele>345.0</ele><time>2026-04-19T11:00:18Z</time></trkpt><trkpt lat="43.731230145858426" lon="11.766901655264009"><ele>345.0</ele><time>2026-04-19T11:00:19Z</time></trkpt><trkpt lat="43.731312215246916" lon="11.766842130461036"><ele>345.2</ele><time>2026-04-19T11:00:20Z</time></trkpt><trkpt lat="43.73139569677225" lon="11.76677871223821"><ele>345.4</ele><time>2026-04-19T11:00:21Z</time></trkpt><trkpt lat="43.73147915393563" lon="11.766711923365637"><ele>345.6</ele><time>2026-04-19T11:00:22Z</time></trkpt><trkpt lat="43.73156034655851" lon="11.766639950798202"><ele>345.8</ele><time>2026-04-19T11:00:23Z</time></trkpt><trkpt lat="43.73164537298289" lon="11.766569257965372"><ele>346.0</ele><time>2026-04-19T11:00:24Z</time></trkpt><trkpt lat="43.73173111521967" lon="11.766499051119112"><ele>346.0</ele><time>2026-04-19T11:00:25Z</time></trkpt><trkpt lat="43.731809485106105" lon="11.766425892888904"><ele>346.0</ele><time>2026-04-19T11:00:26Z</time></trkpt><trkpt lat="43.731891705227284" lon="11.766359251793117"><ele>346.0</ele><time>2026-04-19T11:00:27Z</time></trkpt><trkpt lat="43.73193004473504" lon="11.76623942698986"><ele>346.0</ele><time>2026-04-19T11:00:28Z</time></trkpt><trkpt lat="43.73196960148353" lon="11.766130337819094"><ele>346.0</ele><time>2026-04-19T11:00:29Z</time></trkpt><trkpt lat="43.73199892611816" lon="11.766018695355692"><ele>345.8</ele><time>2026-04-19T11:00:30Z</time></trkpt><trkpt lat="43.732027695373674" lon="11.765901533194869"><ele>345.6</ele><time>2026-04-19T11:00:31Z</time></trkpt><trkpt lat="43.732058346938146" lon="11.765781847912756"><ele>345.4</ele><time>2026-04-19T11:00:32Z</time></trkpt><trkpt lat="43.73208958113458" lon="11.765653331143973"><ele>345.2</ele><time>2026-04-19T11:00:33Z</time></trkpt><trkpt lat="43.73212311452118" lon="11.765515140520442"><ele>345.0</ele><time>2026-04-19T11:00:34Z</time></trkpt><trkpt lat="43.73215914908552" lon="11.765371407064345"><ele>345.0</ele><time>2026-04-19T11:00:35Z</time></trkpt><trkpt lat="43.73219652076903" lon="11.765225490878318"><ele>345.0</ele><time>2026-04-19T11:00:36Z</time></trkpt><trkpt lat="43.732232611823626" lon="11.765079124745231"><ele>345.0</ele><time>2026-04-19T11:00:37Z</time></trkpt><trkpt lat="43.73226821922474" lon="11.76493475550451"><ele>345.0</ele><time>2026-04-19T11:00:38Z</time></trkpt><trkpt lat="43.73230472470961" lon="11.76478964581625"><ele>345.0</ele><time>2026-04-19T11:00:39Z</time></trkpt><trkpt lat="43.73234042998342" lon="11.764647705004739"><ele>345.0</ele><time>2026-04-19T11:00:40Z</time></trkpt><trkpt lat="43.73237653156457" lon="11.764509095356267"><ele>345.0</ele><time>2026-04-19T11:00:41Z</time></trkpt><trkpt lat="43.73240911997665" lon="11.76437335544338"><ele>345.0</ele><time>2026-04-19T11:00:42Z</time></trkpt><trkpt lat="43.732441216545304" lon="11.764240983891836"><ele>345.0</ele><time>2026-04-19T11:00:43Z</time></trkpt><trkpt lat="43.73247254978554" lon="11.764113523882202"><ele>345.0</ele><time>2026-04-19T11:00:44Z</time></trkpt><trkpt lat="43.73250395057664" lon="11.763989413269863"><ele>345.0</ele><time>2026-04-19T11:00:45Z</time></trkpt><trkpt lat="43.73253454676797" lon="11.763870460340597"><ele>345.0</ele><time>2026-04-19T11:00:46Z</time></trkpt><trkpt lat="43.73256510143226" lon="11.763758207858857"><ele>345.0</ele><time>2026-04-19T11:00:47Z</time></trkpt><trkpt lat="43.73259545034522" lon="11.76364623882849"><ele>345.0</ele><time>2026-04-19T11:00:48Z</time></trkpt><trkpt lat="43.732622573917524" lon="11.763536561526534"><ele>345.0</ele><time>2026-04-19T11:00:49Z</time></trkpt><trkpt lat="43.73265279733123" lon="11.763428405390007"><ele>345.0</ele><time>2026-04-19T11:00:50Z</time></trkpt><trkpt lat="43.73269643988567" lon="11.763324047913258"><ele>345.8333333333333</ele><time>2026-04-19T11:00:51Z</time></trkpt><trkpt lat="43.732750588419414" lon="11.763232741001866"><ele>346.6666666666667</ele><time>2026-04-19T11:00:52Z</time></trkpt><trkpt lat="43.73281835834478" lon="11.76316390678158"><ele>347.5</ele><time>2026-04-19T11:00:53Z</time></trkpt><trkpt lat="43.73289973497868" lon="11.763115604058289"><ele>348.33333333333337</ele><time>2026-04-19T11:00:54Z</time></trkpt><trkpt lat="43.73298697629585" lon="11.763086796172704"><ele>349.1666666666667</ele><time>2026-04-19T11:00:55Z</time></trkpt><trkpt lat="43.733082820086366" lon="11.763065305210175"><ele>350.0</ele><time>2026-04-19T11:00:55.999Z</time></trkpt><trkpt lat="43.73318309134142" lon="11.763056597423821"><ele>350.0</ele><time>2026-04-19T11:00:56.999Z</time></trkpt><trkpt lat="43.73327965849117" lon="11.763055316084376"><ele>350.0</ele><time>2026-04-19T11:00:57.999Z</time></trkpt><trkpt lat="43.73337417174816" lon="11.763064429388674"><ele>350.0</ele><time>2026-04-19T11:00:58.999Z</time></trkpt><trkpt lat="43.73346926121838" lon="11.763094412402928"><ele>350.0</ele><time>2026-04-19T11:00:59.999Z</time></trkpt><trkpt lat="43.73355932279807" lon="11.76313380426782"><ele>350.0</ele><time>2026-04-19T11:01:00.999Z</time></trkpt><trkpt lat="43.73363863555474" lon="11.76318076180868"><ele>350.5</ele><time>2026-04-19T11:01:01.999Z</time></trkpt><trkpt lat="43.73370847980374" lon="11.763217892215934"><ele>351.0</ele><time>2026-04-19T11:01:02.999Z</time></trkpt><trkpt lat="43.73376960918975" lon="11.763249277486032"><ele>351.5</ele><time>2026-04-19T11:01:03.999Z</time></trkpt><trkpt lat="43.73388326328451" lon="11.763308725452033"><ele>352.0</ele><time>2026-04-19T11:01:05.999Z</time></trkpt><trkpt lat="43.73397411692907" lon="11.763358005792986"><ele>352.5</ele><time>2026-04-19T11:01:07.999Z</time></trkpt><trkpt lat="43.734041317983994" lon="11.763399070107091"><ele>353.0</ele><time>2026-04-19T11:01:10.999Z</time></trkpt><trkpt lat="43.7341243707091" lon="11.763453038204647"><ele>352.79999999999995</ele><time>2026-04-19T11:01:12.999Z</time></trkpt><trkpt lat="43.73424676497244" lon="11.763539614677654"><ele>352.6</ele><time>2026-04-19T11:01:14.999Z</time></trkpt><trkpt lat="43.734312630611775" lon="11.763584627750163"><ele>352.4</ele><time>2026-04-19T11:01:15.999Z</time></trkpt><trkpt lat="43.73438890365983" lon="11.763628773491785"><ele>352.20000000000005</ele><time>2026-04-19T11:01:16.999Z</time></trkpt><trkpt lat="43.7344693560418" lon="11.763679231102138"><ele>352.0</ele><time>2026-04-19T11:01:17.999Z</time></trkpt><trkpt lat="43.734556222169815" lon="11.76373346125528"><ele>352.6</ele><time>2026-04-19T11:01:18.999Z</time></trkpt><trkpt lat="43.734635821955074" lon="11.763799822565447"><ele>353.20000000000005</ele><time>2026-04-19T11:01:19.999Z</time></trkpt><trkpt lat="43.73471336121063" lon="11.763872603883291"><ele>353.8</ele><time>2026-04-19T11:01:20.999Z</time></trkpt><trkpt lat="43.73479096483751" lon="11.763947104946043"><ele>354.4</ele><time>2026-04-19T11:01:21.999Z</time></trkpt><trkpt lat="43.7348682532208" lon="11.764030271760566"><ele>355.0</ele><time>2026-04-19T11:01:22.999Z</time></trkpt><trkpt lat="43.73493561297632" lon="11.764122565391407"><ele>355.0</ele><time>2026-04-19T11:01:23.999Z</time></trkpt><trkpt lat="43.73500089656665" lon="11.764214418736284"><ele>355.0</ele><time>2026-04-19T11:01:24.999Z</time></trkpt><trkpt lat="43.7350671821261" lon="11.764303849134706"><ele>355.0</ele><time>2026-04-19T11:01:25.999Z</time></trkpt><trkpt lat="43.735128214302804" lon="11.764389611522395"><ele>355.0</ele><time>2026-04-19T11:01:26.999Z</time></trkpt><trkpt lat="43.73518229236235" lon="11.764468829856876"><ele>355.0</ele><time>2026-04-19T11:01:27.999Z</time></trkpt><trkpt lat="43.73523648329704" lon="11.76454147324694"><ele>355.0</ele><time>2026-04-19T11:01:28.999Z</time></trkpt><trkpt lat="43.735292015941035" lon="11.76462367406105"><ele>355.16666666666663</ele><time>2026-04-19T11:01:29.999Z</time></trkpt><trkpt lat="43.735349392287446" lon="11.764707591489598"><ele>355.3333333333333</ele><time>2026-04-19T11:01:30.999Z</time></trkpt><trkpt lat="43.73541175904375" lon="11.764795763768676"><ele>355.5</ele><time>2026-04-19T11:01:31.999Z</time></trkpt><trkpt lat="43.73547803475236" lon="11.76488887681173"><ele>355.6666666666667</ele><time>2026-04-19T11:01:32.999Z</time></trkpt><trkpt lat="43.73553944968828" lon="11.764982669347408"><ele>355.83333333333337</ele><time>2026-04-19T11:01:33.999Z</time></trkpt><trkpt lat="43.73560158981745" lon="11.765072070327081"><ele>356.0</ele><time>2026-04-19T11:01:34.999Z</time></trkpt><trkpt lat="43.735660254361484" lon="11.765160782052376"><ele>355.6666666666667</ele><time>2026-04-19T11:01:35.999Z</time></trkpt><trkpt lat="43.7357144262267" lon="11.765238801549156"><ele>355.33333333333337</ele><time>2026-04-19T11:01:36.999Z</time></trkpt><trkpt lat="43.735761466443655" lon="11.765304820326804"><ele>355.0</ele><time>2026-04-19T11:01:37.999Z</time></trkpt><trkpt lat="43.735834674940826" lon="11.765414787553981"><ele>354.6666666666667</ele><time>2026-04-19T11:01:39.999Z</time></trkpt><trkpt lat="43.7359001466505" lon="11.76552293620859"><ele>354.3333333333333</ele><time>2026-04-19T11:01:41.999Z</time></trkpt><trkpt lat="43.73595390677585" lon="11.765620072852844"><ele>354.0</ele><time>2026-04-19T11:01:43.999Z</time></trkpt><trkpt lat="43.73594597127124" lon="11.765754660980614"><ele>354.0</ele><time>2026-04-19T11:01:45.999Z</time></trkpt><trkpt lat="43.73593444397341" lon="11.765914255068369"><ele>354.0</ele><time>2026-04-19T11:01:47.999Z</time></trkpt><trkpt lat="43.73590931391212" lon="11.766086689088809"><ele>354.0</ele><time>2026-04-19T11:01:49.998Z</time></trkpt><trkpt lat="43.73587702699687" lon="11.76617377420602"><ele>354.0</ele><time>2026-04-19T11:01:50.998Z</time></trkpt><trkpt lat="43.735853296406816" lon="11.766267175553429"><ele>354.0</ele><time>2026-04-19T11:01:51.998Z</time></trkpt><trkpt lat="43.73581714395753" lon="11.766353334593253"><ele>354.2</ele><time>2026-04-19T11:01:52.998Z</time></trkpt><trkpt lat="43.73574122981256" lon="11.766418218029829"><ele>354.4</ele><time>2026-04-19T11:01:53.998Z</time></trkpt><trkpt lat="43.73565601704246" lon="11.76646169587284"><ele>354.6</ele><time>2026-04-19T11:01:54.998Z</time></trkpt><trkpt lat="43.7355734769207" lon="11.766498848770564"><ele>354.8</ele><time>2026-04-19T11:01:55.998Z</time></trkpt><trkpt lat="43.735488356188924" lon="11.766542321533114"><ele>355.0</ele><time>2026-04-19T11:01:56.998Z</time></trkpt><trkpt lat="43.7353988389917" lon="11.76658521265841"><ele>355.0</ele><time>2026-04-19T11:01:57.998Z</time></trkpt><trkpt lat="43.735305275651626" lon="11.766628818903524"><ele>355.0</ele><time>2026-04-19T11:01:58.998Z</time></trkpt><trkpt lat="43.7352088499862" lon="11.766670019414628"><ele>355.0</ele><time>2026-04-19T11:01:59.998Z</time></trkpt><trkpt lat="43.735114621868505" lon="11.76671375568848"><ele>355.0</ele><time>2026-04-19T11:02:00.998Z</time></trkpt><trkpt lat="43.73502181981371" lon="11.766761743925644"><ele>355.0</ele><time>2026-04-19T11:02:01.998Z</time></trkpt><trkpt lat="43.73492054958843" lon="11.766809665774245"><ele>354.8</ele><time>2026-04-19T11:02:02.998Z</time></trkpt><trkpt lat="43.73481724376778" lon="11.766856521838697"><ele>354.6</ele><time>2026-04-19T11:02:03.998Z</time></trkpt><trkpt lat="43.73471279769389" lon="11.766905213821675"><ele>354.4</ele><time>2026-04-19T11:02:04.998Z</time></trkpt><trkpt lat="43.73461236412259" lon="11.766955507572002"><ele>354.2</ele><time>2026-04-19T11:02:05.998Z</time></trkpt><trkpt lat="43.73452005282501" lon="11.76699577367799"><ele>354.0</ele><time>2026-04-19T11:02:06.998Z</time></trkpt><trkpt lat="43.73443532613927" lon="11.76703454407503"><ele>354.6666666666667</ele><time>2026-04-19T11:02:07.998Z</time></trkpt><trkpt lat="43.73435783783062" lon="11.767072916182581"><ele>355.3333333333333</ele><time>2026-04-19T11:02:08.998Z</time></trkpt><trkpt lat="43.73428459065286" lon="11.767107623351466"><ele>356.0</ele><time>2026-04-19T11:02:09.998Z</time></trkpt><trkpt lat="43.7342081819496" lon="11.767139057530946"><ele>356.66666666666663</ele><time>2026-04-19T11:02:11Z</time></trkpt><trkpt lat="43.73413006367848" lon="11.767178607452331"><ele>357.3333333333333</ele><time>2026-04-19T11:02:12Z</time></trkpt><trkpt lat="43.734043144001" lon="11.767223338064406"><ele>358.0</ele><time>2026-04-19T11:02:13Z</time></trkpt><trkpt lat="43.7339461841449" lon="11.76726797663621"><ele>358.0</ele><time>2026-04-19T11:02:14Z</time></trkpt><trkpt lat="43.73383317317707" lon="11.76729215098311"><ele>358.0</ele><time>2026-04-19T11:02:15Z</time></trkpt><trkpt lat="43.73372222469474" lon="11.767325897443884"><ele>358.0</ele><time>2026-04-19T11:02:16Z</time></trkpt><trkpt lat="43.733607625286545" lon="11.76734742211028"><ele>358.0</ele><time>2026-04-19T11:02:17Z</time></trkpt><trkpt lat="43.733490709373804" lon="11.767384548708879"><ele>358.0</ele><time>2026-04-19T11:02:18Z</time></trkpt><trkpt lat="43.73337213285057" lon="11.767398562856297"><ele>358.0</ele><time>2026-04-19T11:02:19Z</time></trkpt><trkpt lat="43.733255697475414" lon="11.767419463870986"><ele>358.0</ele><time>2026-04-19T11:02:20Z</time></trkpt><trkpt lat="43.733140195798576" lon="11.767414044457876"><ele>358.0</ele><time>2026-04-19T11:02:21Z</time></trkpt><trkpt lat="43.73303084856051" lon="11.76745134895708"><ele>358.0</ele><time>2026-04-19T11:02:22Z</time></trkpt><trkpt lat="43.732927899275936" lon="11.767440177574564"><ele>358.0</ele><time>2026-04-19T11:02:23Z</time></trkpt><trkpt lat="43.73283584391759" lon="11.767469293982781"><ele>358.0</ele><time>2026-04-19T11:02:24Z</time></trkpt><trkpt lat="43.73274297043659" lon="11.767477803608744"><ele>358.0</ele><time>2026-04-19T11:02:25Z</time></trkpt><trkpt lat="43.73265104209235" lon="11.767488710957537"><ele>358.0</ele><time>2026-04-19T11:02:26Z</time></trkpt><trkpt lat="43.73256040147079" lon="11.76750214460664"><ele>358.0</ele><time>2026-04-19T11:02:27Z</time></trkpt><trkpt lat="43.73247825889159" lon="11.7675248098266"><ele>358.0</ele><time>2026-04-19T11:02:28Z</time></trkpt><trkpt lat="43.73240155038866" lon="11.767569784635741"><ele>358.0</ele><time>2026-04-19T11:02:29Z</time></trkpt><trkpt lat="43.73233127519104" lon="11.767622803979886"><ele>358.0</ele><time>2026-04-19T11:02:30Z</time></trkpt><trkpt lat="43.732257050096194" lon="11.767672170332766"><ele>358.0</ele><time>2026-04-19T11:02:31Z</time></trkpt><trkpt lat="43.73221086585191" lon="11.767778920433926"><ele>358.0</ele><time>2026-04-19T11:02:32Z</time></trkpt><trkpt lat="43.73216461616977" lon="11.76789238537899"><ele>359.59999999999997</ele><time>2026-04-19T11:02:33Z</time></trkpt><trkpt lat="43.732122228806304" lon="11.768020317264943"><ele>361.2</ele><time>2026-04-19T11:02:34Z</time></trkpt><trkpt lat="43.7320850196905" lon="11.76814870936166"><ele>362.8</ele><time>2026-04-19T11:02:35Z</time></trkpt><trkpt lat="43.73205132230731" lon="11.768274501049879"><ele>364.4</ele><time>2026-04-19T11:02:36Z</time></trkpt><trkpt lat="43.73202218563629" lon="11.768404772717156"><ele>366.0</ele><time>2026-04-19T11:02:37Z</time></trkpt><trkpt lat="43.73199929212874" lon="11.768542135213695"><ele>367.8</ele><time>2026-04-19T11:02:38Z</time></trkpt><trkpt lat="43.731978530609574" lon="11.76868131470246"><ele>369.6</ele><time>2026-04-19T11:02:39Z</time></trkpt><trkpt lat="43.73196710268375" lon="11.768822044669545"><ele>371.4</ele><time>2026-04-19T11:02:40Z</time></trkpt><trkpt lat="43.73196321678977" lon="11.768962858310912"><ele>373.2</ele><time>2026-04-19T11:02:41Z</time></trkpt><trkpt lat="43.73196208563781" lon="11.769102464418495"><ele>375.0</ele><time>2026-04-19T11:02:42Z</time></trkpt><trkpt lat="43.7319451500415" lon="11.769236622280973"><ele>375.0</ele><time>2026-04-19T11:02:43Z</time></trkpt><trkpt lat="43.73190690305158" lon="11.769354634277889"><ele>375.0</ele><time>2026-04-19T11:02:44Z</time></trkpt><trkpt lat="43.7318335866368" lon="11.769442880018785"><ele>375.0</ele><time>2026-04-19T11:02:45Z</time></trkpt><trkpt lat="43.73173855390457" lon="11.769500306951295"><ele>375.0</ele><time>2026-04-19T11:02:46Z</time></trkpt><trkpt lat="43.73165676584909" lon="11.769586573825741"><ele>375.0</ele><time>2026-04-19T11:02:47Z</time></trkpt><trkpt lat="43.73157726189942" lon="11.769651629778721"><ele>374.6666666666667</ele><time>2026-04-19T11:02:48Z</time></trkpt><trkpt lat="43.73151222866045" lon="11.769721039037224"><ele>374.3333333333333</ele><time>2026-04-19T11:02:49Z</time></trkpt><trkpt lat="43.731452178174735" lon="11.769791997103685"><ele>374.0</ele><time>2026-04-19T11:02:50Z</time></trkpt><trkpt lat="43.73139000239426" lon="11.769863911981153"><ele>373.66666666666663</ele><time>2026-04-19T11:02:51Z</time></trkpt><trkpt lat="43.731323085629725" lon="11.769944993464266"><ele>373.3333333333333</ele><time>2026-04-19T11:02:52Z</time></trkpt><trkpt lat="43.731246818018036" lon="11.770036389280442"><ele>373.0</ele><time>2026-04-19T11:02:53Z</time></trkpt><trkpt lat="43.73117228570407" lon="11.770128343781304"><ele>373.0</ele><time>2026-04-19T11:02:54Z</time></trkpt><trkpt lat="43.731096481716264" lon="11.7702238051844"><ele>373.0</ele><time>2026-04-19T11:02:55Z</time></trkpt><trkpt lat="43.73101637378671" lon="11.770323406423072"><ele>373.0</ele><time>2026-04-19T11:02:56Z</time></trkpt><trkpt lat="43.73093730674886" lon="11.770424506482295"><ele>373.0</ele><time>2026-04-19T11:02:57Z</time></trkpt><trkpt lat="43.73086056173219" lon="11.770522995199087"><ele>373.0</ele><time>2026-04-19T11:02:58Z</time></trkpt><trkpt lat="43.73078879540165" lon="11.770615231732185"><ele>373.0</ele><time>2026-04-19T11:02:59Z</time></trkpt><trkpt lat="43.73072254565795" lon="11.770704005507216"><ele>373.0</ele><time>2026-04-19T11:03:00Z</time></trkpt><trkpt lat="43.7306587412794" lon="11.770791222112312"><ele>373.0</ele><time>2026-04-19T11:03:01Z</time></trkpt><trkpt lat="43.730592871637285" lon="11.77088211573972"><ele>373.0</ele><time>2026-04-19T11:03:02Z</time></trkpt><trkpt lat="43.73052863147265" lon="11.77097210356876"><ele>373.0</ele><time>2026-04-19T11:03:03Z</time></trkpt><trkpt lat="43.730473753834836" lon="11.771051073191138"><ele>373.0</ele><time>2026-04-19T11:03:04Z</time></trkpt><trkpt lat="43.730421014499946" lon="11.771124323083873"><ele>373.59999999999997</ele><time>2026-04-19T11:03:05Z</time></trkpt><trkpt lat="43.730369244830754" lon="11.771193646297883"><ele>374.2</ele><time>2026-04-19T11:03:06Z</time></trkpt><trkpt lat="43.73028565545928" lon="11.771298328320297"><ele>374.8</ele><time>2026-04-19T11:03:07.999Z</time></trkpt><trkpt lat="43.73021599557735" lon="11.771369972804656"><ele>375.4</ele><time>2026-04-19T11:03:09.999Z</time></trkpt><trkpt lat="43.73018524507362" lon="11.771454422946418"><ele>376.0</ele><time>2026-04-19T11:03:11.999Z</time></trkpt><trkpt lat="43.73000211523243" lon="11.771385660549887"><ele>374.8333333333333</ele><time>2026-04-19T11:03:13.999Z</time></trkpt><trkpt lat="43.72992177868871" lon="11.771344337392534"><ele>373.66666666666663</ele><time>2026-04-19T11:03:14.999Z</time></trkpt><trkpt lat="43.72983386206722" lon="11.771311732854329"><ele>372.5</ele><time>2026-04-19T11:03:15.999Z</time></trkpt><trkpt lat="43.7297462401695" lon="11.771309095463081"><ele>371.3333333333333</ele><time>2026-04-19T11:03:16.999Z</time></trkpt><trkpt lat="43.729660642994084" lon="11.771331158250185"><ele>370.1666666666667</ele><time>2026-04-19T11:03:17.999Z</time></trkpt><trkpt lat="43.729579338054855" lon="11.771377289160341"><ele>369.0</ele><time>2026-04-19T11:03:18.999Z</time></trkpt><trkpt lat="43.729507512770816" lon="11.771443348551756"><ele>369.0</ele><time>2026-04-19T11:03:19.999Z</time></trkpt><trkpt lat="43.72944720252824" lon="11.771529276479615"><ele>369.0</ele><time>2026-04-19T11:03:20.999Z</time></trkpt><trkpt lat="43.72939742024954" lon="11.771629526489981"><ele>369.0</ele><time>2026-04-19T11:03:21.999Z</time></trkpt><trkpt lat="43.729358997158215" lon="11.771744523905497"><ele>369.0</ele><time>2026-04-19T11:03:22.999Z</time></trkpt><trkpt lat="43.729337442841704" lon="11.77186901605633"><ele>369.0</ele><time>2026-04-19T11:03:23.999Z</time></trkpt><trkpt lat="43.72933509009423" lon="11.772000076459912"><ele>367.6</ele><time>2026-04-19T11:03:24.999Z</time></trkpt><trkpt lat="43.729352967494165" lon="11.772130894975325"><ele>366.2</ele><time>2026-04-19T11:03:25.999Z</time></trkpt><trkpt lat="43.72939300234913" lon="11.772252380375399"><ele>364.8</ele><time>2026-04-19T11:03:26.999Z</time></trkpt><trkpt lat="43.72945188346168" lon="11.772358537929772"><ele>363.40000000000003</ele><time>2026-04-19T11:03:27.999Z</time></trkpt><trkpt lat="43.729528592429276" lon="11.772448004035125"><ele>362.0</ele><time>2026-04-19T11:03:28.999Z</time></trkpt><trkpt lat="43.72961644040803" lon="11.772526720435996"><ele>362.0</ele><time>2026-04-19T11:03:29.999Z</time></trkpt><trkpt lat="43.72970590760493" lon="11.772591522273345"><ele>362.0</ele><time>2026-04-19T11:03:30.999Z</time></trkpt><trkpt lat="43.72979444889064" lon="11.772650608080582"><ele>362.0</ele><time>2026-04-19T11:03:31.999Z</time></trkpt><trkpt lat="43.729881197735615" lon="11.772702348407785"><ele>362.0</ele><time>2026-04-19T11:03:32.999Z</time></trkpt><trkpt lat="43.729968740193534" lon="11.772745465136762"><ele>362.0</ele><time>2026-04-19T11:03:33.999Z</time></trkpt><trkpt lat="43.73005555158909" lon="11.772790452858084"><ele>362.20000000000005</ele><time>2026-04-19T11:03:34.999Z</time></trkpt><trkpt lat="43.73014357750728" lon="11.772840827714361"><ele>362.4</ele><time>2026-04-19T11:03:35.999Z</time></trkpt><trkpt lat="43.73023048632164" lon="11.772895569995901"><ele>362.6</ele><time>2026-04-19T11:03:36.999Z</time></trkpt><trkpt lat="43.730314492191376" lon="11.772956455542786"><ele>362.79999999999995</ele><time>2026-04-19T11:03:37.999Z</time></trkpt><trkpt lat="43.73039153775272" lon="11.773032671719491"><ele>363.0</ele><time>2026-04-19T11:03:38.999Z</time></trkpt><trkpt lat="43.73045613255385" lon="11.773138799527818"><ele>363.0</ele><time>2026-04-19T11:03:39.999Z</time></trkpt><trkpt lat="43.73050218891886" lon="11.77325951907973"><ele>363.0</ele><time>2026-04-19T11:03:40.999Z</time></trkpt><trkpt lat="43.730513923117485" lon="11.77339533280429"><ele>363.0</ele><time>2026-04-19T11:03:41.999Z</time></trkpt><trkpt lat="43.73049510835652" lon="11.773526504637108"><ele>363.0</ele><time>2026-04-19T11:03:42.999Z</time></trkpt><trkpt lat="43.73045045062212" lon="11.773645144558609"><ele>363.0</ele><time>2026-04-19T11:03:43.999Z</time></trkpt><trkpt lat="43.730384803348635" lon="11.773748314037185"><ele>361.79999999999995</ele><time>2026-04-19T11:03:44.999Z</time></trkpt><trkpt lat="43.73030349668864" lon="11.77381797123409"><ele>360.6</ele><time>2026-04-19T11:03:45.999Z</time></trkpt><trkpt lat="43.730210968361284" lon="11.773854219344067"><ele>359.4</ele><time>2026-04-19T11:03:46.999Z</time></trkpt><trkpt lat="43.73011474839327" lon="11.773857538457468"><ele>358.20000000000005</ele><time>2026-04-19T11:03:47.999Z</time></trkpt><trkpt lat="43.73001337002444" lon="11.773838740373542"><ele>357.0</ele><time>2026-04-19T11:03:48.999Z</time></trkpt><trkpt lat="43.729915939182796" lon="11.773806918231147"><ele>356.40000000000003</ele><time>2026-04-19T11:03:49.999Z</time></trkpt><trkpt lat="43.72981519242324" lon="11.773774925632262"><ele>355.8</ele><time>2026-04-19T11:03:50.999Z</time></trkpt><trkpt lat="43.72971480300234" lon="11.7737405077911"><ele>355.2</ele><time>2026-04-19T11:03:51.999Z</time></trkpt><trkpt lat="43.729618004821546" lon="11.77370651034654"><ele>354.6</ele><time>2026-04-19T11:03:52.999Z</time></trkpt><trkpt lat="43.72952320516896" lon="11.773676397785533"><ele>354.0</ele><time>2026-04-19T11:03:53.999Z</time></trkpt><trkpt lat="43.72942551065903" lon="11.773648555440344"><ele>353.6</ele><time>2026-04-19T11:03:54.999Z</time></trkpt><trkpt lat="43.72932656602663" lon="11.77362303928183"><ele>353.2</ele><time>2026-04-19T11:03:55.999Z</time></trkpt><trkpt lat="43.72922992623986" lon="11.773593440856994"><ele>352.8</ele><time>2026-04-19T11:03:56.999Z</time></trkpt><trkpt lat="43.7291319884332" lon="11.773561333738028"><ele>352.40000000000003</ele><time>2026-04-19T11:03:57.999Z</time></trkpt><trkpt lat="43.72903311725465" lon="11.773533571167484"><ele>352.0</ele><time>2026-04-19T11:03:58.999Z</time></trkpt><trkpt lat="43.7289362283515" lon="11.773499741566134"><ele>351.8</ele><time>2026-04-19T11:03:59.998Z</time></trkpt><trkpt lat="43.72883838556229" lon="11.77346522771958"><ele>351.6</ele><time>2026-04-19T11:04:00.998Z</time></trkpt><trkpt lat="43.72873527171194" lon="11.773428592957565"><ele>351.40000000000003</ele><time>2026-04-19T11:04:01.998Z</time></trkpt><trkpt lat="43.72863455367311" lon="11.773385531555723"><ele>351.20000000000005</ele><time>2026-04-19T11:04:02.998Z</time></trkpt><trkpt lat="43.728534905171074" lon="11.773343660551264"><ele>351.0</ele><time>2026-04-19T11:04:03.998Z</time></trkpt><trkpt lat="43.72843867661801" lon="11.773304746552347"><ele>351.0</ele><time>2026-04-19T11:04:04.998Z</time></trkpt><trkpt lat="43.72834648463978" lon="11.77326857946505"><ele>351.0</ele><time>2026-04-19T11:04:05.998Z</time></trkpt><trkpt lat="43.7282567999364" lon="11.77322894092835"><ele>351.0</ele><time>2026-04-19T11:04:06.998Z</time></trkpt><trkpt lat="43.72816875151254" lon="11.773187189900518"><ele>351.0</ele><time>2026-04-19T11:04:07.998Z</time></trkpt><trkpt lat="43.72808192797074" lon="11.773148003243449"><ele>351.0</ele><time>2026-04-19T11:04:08.998Z</time></trkpt><trkpt lat="43.727998436267384" lon="11.773110587179783"><ele>351.0</ele><time>2026-04-19T11:04:09.998Z</time></trkpt><trkpt lat="43.7279195256098" lon="11.773074593093655"><ele>351.0</ele><time>2026-04-19T11:04:10.998Z</time></trkpt><trkpt lat="43.7278426896358" lon="11.773036783980562"><ele>351.0</ele><time>2026-04-19T11:04:11.998Z</time></trkpt><trkpt lat="43.72776637425252" lon="11.773004952823841"><ele>351.0</ele><time>2026-04-19T11:04:12.998Z</time></trkpt><trkpt lat="43.727685386636985" lon="11.772968363788832"><ele>351.0</ele><time>2026-04-19T11:04:13.998Z</time></trkpt><trkpt lat="43.72760367628602" lon="11.772932633671969"><ele>351.0</ele><time>2026-04-19T11:04:14.998Z</time></trkpt><trkpt lat="43.72752700985011" lon="11.77289856328398"><ele>350.6666666666667</ele><time>2026-04-19T11:04:15.998Z</time></trkpt><trkpt lat="43.727455437112795" lon="11.772864526093265"><ele>350.3333333333333</ele><time>2026-04-19T11:04:17Z</time></trkpt><trkpt lat="43.727388389550576" lon="11.772834434787194"><ele>350.0</ele><time>2026-04-19T11:04:18Z</time></trkpt><trkpt lat="43.72732792662746" lon="11.772808942475198"><ele>349.66666666666663</ele><time>2026-04-19T11:04:19Z</time></trkpt><trkpt lat="43.727219798899455" lon="11.77275206015046"><ele>349.3333333333333</ele><time>2026-04-19T11:04:21Z</time></trkpt><trkpt lat="43.72714762945551" lon="11.772700294725666"><ele>349.0</ele><time>2026-04-19T11:04:23Z</time></trkpt><trkpt lat="43.727094994702945" lon="11.772644156080013"><ele>347.79999999999995</ele><time>2026-04-19T11:04:25Z</time></trkpt><trkpt lat="43.72703227904973" lon="11.772589827266184"><ele>346.59999999999997</ele><time>2026-04-19T11:04:27Z</time></trkpt><trkpt lat="43.72702659141541" lon="11.772490861349121"><ele>345.4</ele><time>2026-04-19T11:04:28Z</time></trkpt><trkpt lat="43.7269562700567" lon="11.772399144756626"><ele>344.2</ele><time>2026-04-19T11:04:30Z</time></trkpt><trkpt lat="43.72685276577274" lon="11.772395158900078"><ele>343.0</ele><time>2026-04-19T11:04:32Z</time></trkpt><trkpt lat="43.726780653641875" lon="11.772515112617743"><ele>342.5</ele><time>2026-04-19T11:04:34Z</time></trkpt><trkpt lat="43.72675801711337" lon="11.772605340586585"><ele>342.0</ele><time>2026-04-19T11:04:35Z</time></trkpt><trkpt lat="43.72677871289053" lon="11.772723539046424"><ele>341.5</ele><time>2026-04-19T11:04:36Z</time></trkpt><trkpt lat="43.72677247920981" lon="11.772837172693363"><ele>341.0</ele><time>2026-04-19T11:04:37Z</time></trkpt><trkpt lat="43.72674412553405" lon="11.772957814781073"><ele>340.5</ele><time>2026-04-19T11:04:38Z</time></trkpt><trkpt lat="43.72670544659073" lon="11.773079887392893"><ele>340.0</ele><time>2026-04-19T11:04:39Z</time></trkpt><trkpt lat="43.726656189544336" lon="11.773208043806719"><ele>340.0</ele><time>2026-04-19T11:04:40Z</time></trkpt><trkpt lat="43.726602850759384" lon="11.773330061829666"><ele>340.0</ele><time>2026-04-19T11:04:41Z</time></trkpt><trkpt lat="43.726544226616774" lon="11.773452557272503"><ele>340.0</ele><time>2026-04-19T11:04:42Z</time></trkpt><trkpt lat="43.72647749030874" lon="11.773574091351003"><ele>340.0</ele><time>2026-04-19T11:04:43Z</time></trkpt><trkpt lat="43.7264080147669" lon="11.773700046288514"><ele>340.0</ele><time>2026-04-19T11:04:44Z</time></trkpt><trkpt lat="43.72633708714832" lon="11.77383145169538"><ele>340.0</ele><time>2026-04-19T11:04:45Z</time></trkpt><trkpt lat="43.726263842948754" lon="11.773965404910138"><ele>340.0</ele><time>2026-04-19T11:04:46Z</time></trkpt><trkpt lat="43.72618596963185" lon="11.774096453849504"><ele>340.0</ele><time>2026-04-19T11:04:47Z</time></trkpt><trkpt lat="43.72610766249474" lon="11.774225616617322"><ele>340.0</ele><time>2026-04-19T11:04:47.999Z</time></trkpt><trkpt lat="43.726026446602056" lon="11.774348307044045"><ele>340.5</ele><time>2026-04-19T11:04:48.999Z</time></trkpt><trkpt lat="43.72593527019706" lon="11.77445336082486"><ele>341.0</ele><time>2026-04-19T11:04:49.999Z</time></trkpt><trkpt lat="43.72583399826676" lon="11.77453444793822"><ele>341.5</ele><time>2026-04-19T11:04:50.999Z</time></trkpt><trkpt lat="43.72572907624314" lon="11.774598136223696"><ele>342.0</ele><time>2026-04-19T11:04:51.999Z</time></trkpt><trkpt lat="43.72562374398597" lon="11.77465134657244"><ele>342.0</ele><time>2026-04-19T11:04:52.999Z</time></trkpt><trkpt lat="43.72552213069833" lon="11.774701525346678"><ele>342.0</ele><time>2026-04-19T11:04:53.999Z</time></trkpt><trkpt lat="43.72542561585951" lon="11.7747477325511"><ele>342.0</ele><time>2026-04-19T11:04:54.999Z</time></trkpt><trkpt lat="43.725327390005944" lon="11.774793218971862"><ele>342.0</ele><time>2026-04-19T11:04:55.999Z</time></trkpt><trkpt lat="43.725227124323595" lon="11.77483458126082"><ele>342.0</ele><time>2026-04-19T11:04:56.999Z</time></trkpt><trkpt lat="43.725124755637054" lon="11.77487302374563"><ele>342.0</ele><time>2026-04-19T11:04:57.999Z</time></trkpt><trkpt lat="43.72502027717663" lon="11.77491282886355"><ele>342.0</ele><time>2026-04-19T11:04:58.999Z</time></trkpt><trkpt lat="43.72491298641964" lon="11.774949690044531"><ele>342.0</ele><time>2026-04-19T11:04:59.999Z</time></trkpt><trkpt lat="43.72480217851664" lon="11.774987617672394"><ele>342.0</ele><time>2026-04-19T11:05:00.999Z</time></trkpt><trkpt lat="43.72469012293699" lon="11.775026486577946"><ele>342.0</ele><time>2026-04-19T11:05:01.999Z</time></trkpt><trkpt lat="43.72457331823475" lon="11.775068651135781"><ele>342.0</ele><time>2026-04-19T11:05:02.999Z</time></trkpt><trkpt lat="43.724456841419325" lon="11.775107675427654"><ele>342.0</ele><time>2026-04-19T11:05:03.999Z</time></trkpt><trkpt lat="43.72433638647076" lon="11.775142973810294"><ele>342.0</ele><time>2026-04-19T11:05:04.999Z</time></trkpt><trkpt lat="43.724208349022234" lon="11.775182621235704"><ele>342.0</ele><time>2026-04-19T11:05:05.999Z</time></trkpt><trkpt lat="43.72407324789789" lon="11.77522545845891"><ele>342.0</ele><time>2026-04-19T11:05:06.999Z</time></trkpt><trkpt lat="43.72393412024585" lon="11.775273591700895"><ele>342.0</ele><time>2026-04-19T11:05:07.999Z</time></trkpt><trkpt lat="43.72379192962923" lon="11.775322223631237"><ele>342.0</ele><time>2026-04-19T11:05:08.999Z</time></trkpt><trkpt lat="43.72364852277479" lon="11.775370027756384"><ele>342.0</ele><time>2026-04-19T11:05:09.999Z</time></trkpt><trkpt lat="43.723502687590894" lon="11.775418319032816"><ele>341.5</ele><time>2026-04-19T11:05:10.999Z</time></trkpt><trkpt lat="43.72335736256624" lon="11.775469889702848"><ele>341.0</ele><time>2026-04-19T11:05:11.999Z</time></trkpt><trkpt lat="43.72321685251321" lon="11.775526243742846"><ele>340.5</ele><time>2026-04-19T11:05:12.999Z</time></trkpt><trkpt lat="43.72308090060225" lon="11.775583113276966"><ele>340.0</ele><time>2026-04-19T11:05:13.999Z</time></trkpt><trkpt lat="43.722955204062764" lon="11.775641035501286"><ele>340.0</ele><time>2026-04-19T11:05:14.999Z</time></trkpt><trkpt lat="43.72283305868386" lon="11.775704613190939"><ele>340.0</ele><time>2026-04-19T11:05:15.999Z</time></trkpt><trkpt lat="43.72271366930718" lon="11.775783294867786"><ele>340.0</ele><time>2026-04-19T11:05:16.999Z</time></trkpt><trkpt lat="43.72259947993058" lon="11.775885772233398"><ele>340.0</ele><time>2026-04-19T11:05:17.999Z</time></trkpt><trkpt lat="43.722491397159" lon="11.77599643410193"><ele>339.75</ele><time>2026-04-19T11:05:18.999Z</time></trkpt><trkpt lat="43.72238753942253" lon="11.776108841796296"><ele>339.5</ele><time>2026-04-19T11:05:19.999Z</time></trkpt><trkpt lat="43.72228600527838" lon="11.77622656465181"><ele>339.25</ele><time>2026-04-19T11:05:20.999Z</time></trkpt><trkpt lat="43.722187544736165" lon="11.776358155652161"><ele>339.0</ele><time>2026-04-19T11:05:21.999Z</time></trkpt><trkpt lat="43.722081088076024" lon="11.776481791129086"><ele>339.0</ele><time>2026-04-19T11:05:22.999Z</time></trkpt><trkpt lat="43.72197408398507" lon="11.776680636337714"><ele>339.0</ele><time>2026-04-19T11:05:23.998Z</time></trkpt><trkpt lat="43.721873827228954" lon="11.776902614288735"><ele>339.0</ele><time>2026-04-19T11:05:24.998Z</time></trkpt><trkpt lat="43.721775201643005" lon="11.777149082924552"><ele>337.3333333333333</ele><time>2026-04-19T11:05:25.998Z</time></trkpt><trkpt lat="43.72168561402929" lon="11.777415605933557"><ele>335.66666666666663</ele><time>2026-04-19T11:05:26.998Z</time></trkpt><trkpt lat="43.72160504438437" lon="11.777671606958219"><ele>334.0</ele><time>2026-04-19T11:05:27.998Z</time></trkpt><trkpt lat="43.721509516825776" lon="11.777895626711324"><ele>334.0</ele><time>2026-04-19T11:05:28.998Z</time></trkpt><trkpt lat="43.721399271025064" lon="11.778111567391047"><ele>334.0</ele><time>2026-04-19T11:05:29.998Z</time></trkpt><trkpt lat="43.72127385054503" lon="11.778319595240838"><ele>334.0</ele><time>2026-04-19T11:05:30.998Z</time></trkpt><trkpt lat="43.72113654083458" lon="11.778506436562834"><ele>334.0</ele><time>2026-04-19T11:05:31.998Z</time></trkpt><trkpt lat="43.72098055714389" lon="11.778673304170075"><ele>334.0</ele><time>2026-04-19T11:05:32.998Z</time></trkpt><trkpt lat="43.7208116297055" lon="11.778823625036303"><ele>334.0</ele><time>2026-04-19T11:05:33.998Z</time></trkpt><trkpt lat="43.72063310911019" lon="11.778970771624035"><ele>334.0</ele><time>2026-04-19T11:05:34.998Z</time></trkpt><trkpt lat="43.72044561837223" lon="11.779119469172517"><ele>334.0</ele><time>2026-04-19T11:05:35.998Z</time></trkpt><trkpt lat="43.72025962180365" lon="11.779262015693847"><ele>334.0</ele><time>2026-04-19T11:05:36.998Z</time></trkpt><trkpt lat="43.72007411352707" lon="11.779406744946156"><ele>334.0</ele><time>2026-04-19T11:05:37.998Z</time></trkpt><trkpt lat="43.71988572263493" lon="11.779552888173592"><ele>334.0</ele><time>2026-04-19T11:05:38.998Z</time></trkpt><trkpt lat="43.71969744463743" lon="11.77970151189806"><ele>334.0</ele><time>2026-04-19T11:05:39.998Z</time></trkpt><trkpt lat="43.71950851033263" lon="11.779854160098836"><ele>333.66666666666663</ele><time>2026-04-19T11:05:40.998Z</time></trkpt><trkpt lat="43.71932295814892" lon="11.78000390381426"><ele>333.3333333333333</ele><time>2026-04-19T11:05:41.998Z</time></trkpt><trkpt lat="43.71913857049075" lon="11.780150068458497"><ele>333.0</ele><time>2026-04-19T11:05:42.998Z</time></trkpt><trkpt lat="43.71895529094022" lon="11.780294893664518"><ele>333.0</ele><time>2026-04-19T11:05:43.998Z</time></trkpt><trkpt lat="43.71877459999156" lon="11.780439276572434"><ele>333.0</ele><time>2026-04-19T11:05:44.998Z</time></trkpt><trkpt lat="43.71859552850003" lon="11.78058254490149"><ele>333.0</ele><time>2026-04-19T11:05:45.998Z</time></trkpt><trkpt lat="43.718415032647165" lon="11.780722093259914"><ele>332.6666666666667</ele><time>2026-04-19T11:05:46.998Z</time></trkpt><trkpt lat="43.71823493521466" lon="11.780860949738123"><ele>332.33333333333337</ele><time>2026-04-19T11:05:47.998Z</time></trkpt><trkpt lat="43.71805548622447" lon="11.781004326510848"><ele>332.0</ele><time>2026-04-19T11:05:48.998Z</time></trkpt><trkpt lat="43.71787515021124" lon="11.781150614378172"><ele>332.0</ele><time>2026-04-19T11:05:49.998Z</time></trkpt><trkpt lat="43.71769418368557" lon="11.781296496481119"><ele>332.0</ele><time>2026-04-19T11:05:50.998Z</time></trkpt><trkpt lat="43.717510814306664" lon="11.781439596360096"><ele>332.0</ele><time>2026-04-19T11:05:51.998Z</time></trkpt><trkpt lat="43.71732605957563" lon="11.781583786226015"><ele>332.0</ele><time>2026-04-19T11:05:52.998Z</time></trkpt><trkpt lat="43.717140174807675" lon="11.781730659016354"><ele>332.0</ele><time>2026-04-19T11:05:53.998Z</time></trkpt><trkpt lat="43.71695393243885" lon="11.781879326224015"><ele>332.0</ele><time>2026-04-19T11:05:54.998Z</time></trkpt><trkpt lat="43.716768285676515" lon="11.78202748243044"><ele>331.6666666666667</ele><time>2026-04-19T11:05:55.998Z</time></trkpt><trkpt lat="43.71658152619252" lon="11.782174608415461"><ele>331.3333333333333</ele><time>2026-04-19T11:05:56.998Z</time></trkpt><trkpt lat="43.716394414567944" lon="11.782322110522173"><ele>331.0</ele><time>2026-04-19T11:05:57.998Z</time></trkpt><trkpt lat="43.71620596823922" lon="11.782469205318172"><ele>331.0</ele><time>2026-04-19T11:05:58.998Z</time></trkpt><trkpt lat="43.7160164847226" lon="11.782613678980143"><ele>331.0</ele><time>2026-04-19T11:05:59.998Z</time></trkpt><trkpt lat="43.71582435931529" lon="11.782751443136043"><ele>331.0</ele><time>2026-04-19T11:06:00.998Z</time></trkpt><trkpt lat="43.71563115304518" lon="11.782886159256668"><ele>331.3333333333333</ele><time>2026-04-19T11:06:01.998Z</time></trkpt><trkpt lat="43.715433812581544" lon="11.783017004431699"><ele>331.6666666666667</ele><time>2026-04-19T11:06:02.998Z</time></trkpt><trkpt lat="43.715233265617634" lon="11.783144984492528"><ele>332.0</ele><time>2026-04-19T11:06:03.998Z</time></trkpt><trkpt lat="43.71502977286455" lon="11.783263890539041"><ele>332.0</ele><time>2026-04-19T11:06:04.998Z</time></trkpt><trkpt lat="43.71482548507376" lon="11.783380860309856"><ele>332.0</ele><time>2026-04-19T11:06:05.998Z</time></trkpt><trkpt lat="43.71462097672902" lon="11.783496189471425"><ele>332.0</ele><time>2026-04-19T11:06:06.998Z</time></trkpt><trkpt lat="43.71441580876489" lon="11.783608790998374"><ele>332.6666666666667</ele><time>2026-04-19T11:06:07.998Z</time></trkpt><trkpt lat="43.71421045381777" lon="11.78371935071623"><ele>333.3333333333333</ele><time>2026-04-19T11:06:08.998Z</time></trkpt><trkpt lat="43.714004460922375" lon="11.783829986449083"><ele>334.0</ele><time>2026-04-19T11:06:09.998Z</time></trkpt><trkpt lat="43.71379866166668" lon="11.783939182253775"><ele>334.0</ele><time>2026-04-19T11:06:10.998Z</time></trkpt><trkpt lat="43.713592586646165" lon="11.784044171258683"><ele>334.0</ele><time>2026-04-19T11:06:11.998Z</time></trkpt><trkpt lat="43.71338793974286" lon="11.784151514022073"><ele>334.0</ele><time>2026-04-19T11:06:12.998Z</time></trkpt><trkpt lat="43.71318158555221" lon="11.784260257843478"><ele>334.3333333333333</ele><time>2026-04-19T11:06:13.998Z</time></trkpt><trkpt lat="43.71297845991162" lon="11.784377299609888"><ele>334.6666666666667</ele><time>2026-04-19T11:06:14.998Z</time></trkpt><trkpt lat="43.71277448788088" lon="11.784492355570105"><ele>335.0</ele><time>2026-04-19T11:06:15.998Z</time></trkpt><trkpt lat="43.71257032556228" lon="11.784604402810995"><ele>335.0</ele><time>2026-04-19T11:06:16.998Z</time></trkpt><trkpt lat="43.71236498509572" lon="11.784721058382212"><ele>335.0</ele><time>2026-04-19T11:06:17.997Z</time></trkpt><trkpt lat="43.712159134769855" lon="11.78483552581028"><ele>335.0</ele><time>2026-04-19T11:06:18.997Z</time></trkpt><trkpt lat="43.71195449399474" lon="11.784956713149555"><ele>335.6666666666667</ele><time>2026-04-19T11:06:19.997Z</time></trkpt><trkpt lat="43.71175339207148" lon="11.785082134802092"><ele>336.3333333333333</ele><time>2026-04-19T11:06:20.997Z</time></trkpt><trkpt lat="43.71155366570652" lon="11.785213245868563"><ele>337.0</ele><time>2026-04-19T11:06:21.997Z</time></trkpt><trkpt lat="43.711366904272104" lon="11.78537089542277"><ele>337.0</ele><time>2026-04-19T11:06:23Z</time></trkpt><trkpt lat="43.711188040150475" lon="11.78554139310946"><ele>337.0</ele><time>2026-04-19T11:06:24Z</time></trkpt><trkpt lat="43.71101719444465" lon="11.785726415769087"><ele>337.0</ele><time>2026-04-19T11:06:25Z</time></trkpt><trkpt lat="43.71085123801104" lon="11.785928947369467"><ele>337.3333333333333</ele><time>2026-04-19T11:06:26Z</time></trkpt><trkpt lat="43.71069276365697" lon="11.786139247098841"><ele>337.6666666666667</ele><time>2026-04-19T11:06:27Z</time></trkpt><trkpt lat="43.71054047527555" lon="11.786365838553882"><ele>338.0</ele><time>2026-04-19T11:06:28Z</time></trkpt><trkpt lat="43.710399209527324" lon="11.78660583596072"><ele>337.0</ele><time>2026-04-19T11:06:29Z</time></trkpt><trkpt lat="43.710264734138114" lon="11.786851710223"><ele>336.0</ele><time>2026-04-19T11:06:30Z</time></trkpt><trkpt lat="43.710129516332685" lon="11.787095448163523"><ele>335.0</ele><time>2026-04-19T11:06:31Z</time></trkpt><trkpt lat="43.70999536202897" lon="11.787338530738362"><ele>335.0</ele><time>2026-04-19T11:06:32Z</time></trkpt><trkpt lat="43.70986217402073" lon="11.787580195707967"><ele>335.0</ele><time>2026-04-19T11:06:33Z</time></trkpt><trkpt lat="43.709729288070164" lon="11.787819025530546"><ele>335.0</ele><time>2026-04-19T11:06:34Z</time></trkpt><trkpt lat="43.709595381720455" lon="11.788057741854917"><ele>335.0</ele><time>2026-04-19T11:06:35Z</time></trkpt><trkpt lat="43.70945672979942" lon="11.788300851373323"><ele>335.0</ele><time>2026-04-19T11:06:36Z</time></trkpt><trkpt lat="43.70930892132365" lon="11.78853907456239"><ele>335.0</ele><time>2026-04-19T11:06:37Z</time></trkpt><trkpt lat="43.709146455734526" lon="11.788761354810912"><ele>335.0</ele><time>2026-04-19T11:06:38Z</time></trkpt><trkpt lat="43.70897204145579" lon="11.788968073742641"><ele>335.0</ele><time>2026-04-19T11:06:39Z</time></trkpt><trkpt lat="43.70878756176045" lon="11.789165976597953"><ele>335.0</ele><time>2026-04-19T11:06:40Z</time></trkpt><trkpt lat="43.708591178091524" lon="11.789347281181833"><ele>334.5</ele><time>2026-04-19T11:06:41Z</time></trkpt><trkpt lat="43.70838462410373" lon="11.789509106447763"><ele>334.0</ele><time>2026-04-19T11:06:42Z</time></trkpt><trkpt lat="43.70817398907955" lon="11.789656110802678"><ele>334.0</ele><time>2026-04-19T11:06:42.999Z</time></trkpt><trkpt lat="43.70796290631308" lon="11.789810633576167"><ele>334.0</ele><time>2026-04-19T11:06:43.999Z</time></trkpt><trkpt lat="43.7077555158663" lon="11.78997586596867"><ele>334.0</ele><time>2026-04-19T11:06:44.999Z</time></trkpt><trkpt lat="43.70755284797759" lon="11.79015099854925"><ele>334.0</ele><time>2026-04-19T11:06:45.999Z</time></trkpt><trkpt lat="43.70735325242461" lon="11.790332737132719"><ele>334.0</ele><time>2026-04-19T11:06:46.999Z</time></trkpt><trkpt lat="43.70715499621802" lon="11.790514692052295"><ele>334.0</ele><time>2026-04-19T11:06:47.999Z</time></trkpt><trkpt lat="43.7069561813425" lon="11.79069402105938"><ele>335.0</ele><time>2026-04-19T11:06:48.999Z</time></trkpt><trkpt lat="43.706758709448074" lon="11.790871266946358"><ele>336.0</ele><time>2026-04-19T11:06:49.999Z</time></trkpt><trkpt lat="43.70656107566868" lon="11.791048586632986"><ele>336.0</ele><time>2026-04-19T11:06:50.999Z</time></trkpt><trkpt lat="43.7063655784921" lon="11.791223570213292"><ele>336.0</ele><time>2026-04-19T11:06:51.999Z</time></trkpt><trkpt lat="43.70617121660245" lon="11.791398072413932"><ele>333.0</ele><time>2026-04-19T11:06:52.999Z</time></trkpt><trkpt lat="43.70597887977016" lon="11.791571660320903"><ele>330.0</ele><time>2026-04-19T11:06:53.999Z</time></trkpt><trkpt lat="43.70578827924025" lon="11.791742514212077"><ele>332.5</ele><time>2026-04-19T11:06:54.999Z</time></trkpt><trkpt lat="43.70559774260069" lon="11.79191162808624"><ele>335.0</ele><time>2026-04-19T11:06:55.999Z</time></trkpt><trkpt lat="43.70540783470176" lon="11.792080040541132"><ele>333.6666666666667</ele><time>2026-04-19T11:06:56.999Z</time></trkpt><trkpt lat="43.70521833625855" lon="11.79224687484861"><ele>332.3333333333333</ele><time>2026-04-19T11:06:57.999Z</time></trkpt><trkpt lat="43.70502658703853" lon="11.792407739924588"><ele>331.0</ele><time>2026-04-19T11:06:58.999Z</time></trkpt><trkpt lat="43.704827450936115" lon="11.792550328818253"><ele>331.0</ele><time>2026-04-19T11:06:59.999Z</time></trkpt><trkpt lat="43.704619273698164" lon="11.792668245059344"><ele>331.0</ele><time>2026-04-19T11:07:00.999Z</time></trkpt><trkpt lat="43.70440447226719" lon="11.792772114358456"><ele>330.5</ele><time>2026-04-19T11:07:01.999Z</time></trkpt><trkpt lat="43.70418276221276" lon="11.792864964536754"><ele>330.0</ele><time>2026-04-19T11:07:02.999Z</time></trkpt><trkpt lat="43.70395394441458" lon="11.792949801584237"><ele>330.0</ele><time>2026-04-19T11:07:03.999Z</time></trkpt><trkpt lat="43.70372180003571" lon="11.793036951816143"><ele>330.0</ele><time>2026-04-19T11:07:04.999Z</time></trkpt><trkpt lat="43.703487222972555" lon="11.793123864732046"><ele>328.0</ele><time>2026-04-19T11:07:05.999Z</time></trkpt><trkpt lat="43.70325323105975" lon="11.793213078597473"><ele>326.0</ele><time>2026-04-19T11:07:06.999Z</time></trkpt><trkpt lat="43.70301847079494" lon="11.793303822521048"><ele>326.0</ele><time>2026-04-19T11:07:07.999Z</time></trkpt><trkpt lat="43.7027832524263" lon="11.793394592259997"><ele>326.0</ele><time>2026-04-19T11:07:08.999Z</time></trkpt><trkpt lat="43.70255131504277" lon="11.793486806007436"><ele>326.5</ele><time>2026-04-19T11:07:09.999Z</time></trkpt><trkpt lat="43.70232094867312" lon="11.793595906503212"><ele>327.0</ele><time>2026-04-19T11:07:10.999Z</time></trkpt><trkpt lat="43.702096942472515" lon="11.793729769164086"><ele>325.5</ele><time>2026-04-19T11:07:11.999Z</time></trkpt><trkpt lat="43.70188027974785" lon="11.79388893057896"><ele>324.0</ele><time>2026-04-19T11:07:12.999Z</time></trkpt><trkpt lat="43.70167078794329" lon="11.7940691261761"><ele>324.0</ele><time>2026-04-19T11:07:13.999Z</time></trkpt><trkpt lat="43.70146733961195" lon="11.794266212453252"><ele>324.0</ele><time>2026-04-19T11:07:14.999Z</time></trkpt><trkpt lat="43.70127002669414" lon="11.794480255847143"><ele>324.0</ele><time>2026-04-19T11:07:15.999Z</time></trkpt><trkpt lat="43.701079851956024" lon="11.79471240820778"><ele>324.0</ele><time>2026-04-19T11:07:16.999Z</time></trkpt><trkpt lat="43.70089616116959" lon="11.79496207957387"><ele>324.5</ele><time>2026-04-19T11:07:17.999Z</time></trkpt><trkpt lat="43.70071410140512" lon="11.795221578107176"><ele>325.0</ele><time>2026-04-19T11:07:18.999Z</time></trkpt><trkpt lat="43.70053508336855" lon="11.795485776813761"><ele>325.0</ele><time>2026-04-19T11:07:19.999Z</time></trkpt><trkpt lat="43.70035805703658" lon="11.795749217852377"><ele>325.0</ele><time>2026-04-19T11:07:20.999Z</time></trkpt><trkpt lat="43.70017941882942" lon="11.796009649751827"><ele>324.0</ele><time>2026-04-19T11:07:21.999Z</time></trkpt><trkpt lat="43.700003482859245" lon="11.796269624828035"><ele>323.0</ele><time>2026-04-19T11:07:22.999Z</time></trkpt><trkpt lat="43.69983119538619" lon="11.796530340334925"><ele>323.0</ele><time>2026-04-19T11:07:23.999Z</time></trkpt><trkpt lat="43.699657802447405" lon="11.796786567219248"><ele>323.0</ele><time>2026-04-19T11:07:24.999Z</time></trkpt><trkpt lat="43.69948262426723" lon="11.797037453907809"><ele>324.0</ele><time>2026-04-19T11:07:25.999Z</time></trkpt><trkpt lat="43.69930657548967" lon="11.797285655990851"><ele>325.0</ele><time>2026-04-19T11:07:26.999Z</time></trkpt><trkpt lat="43.69912608874324" lon="11.797526154333775"><ele>326.0</ele><time>2026-04-19T11:07:27.999Z</time></trkpt><trkpt lat="43.69893625651239" lon="11.79775305920948"><ele>327.0</ele><time>2026-04-19T11:07:28.999Z</time></trkpt><trkpt lat="43.69873640638363" lon="11.797960266173499"><ele>325.5</ele><time>2026-04-19T11:07:29.999Z</time></trkpt><trkpt lat="43.69852913428204" lon="11.798150433775955"><ele>324.0</ele><time>2026-04-19T11:07:30.999Z</time></trkpt><trkpt lat="43.69831988692365" lon="11.798327763773996"><ele>324.0</ele><time>2026-04-19T11:07:31.999Z</time></trkpt><trkpt lat="43.6981145456402" lon="11.798488007911061"><ele>324.0</ele><time>2026-04-19T11:07:32.999Z</time></trkpt><trkpt lat="43.697920495941005" lon="11.798635249527035"><ele>324.0</ele><time>2026-04-19T11:07:33.999Z</time></trkpt><trkpt lat="43.697736861675956" lon="11.798779554947588"><ele>324.0</ele><time>2026-04-19T11:07:34.999Z</time></trkpt><trkpt lat="43.69756083144544" lon="11.798914538411292"><ele>324.0</ele><time>2026-04-19T11:07:35.998Z</time></trkpt><trkpt lat="43.69739050782014" lon="11.799038850188072"><ele>324.0</ele><time>2026-04-19T11:07:36.998Z</time></trkpt><trkpt lat="43.69722661754127" lon="11.79915784367551"><ele>324.0</ele><time>2026-04-19T11:07:37.998Z</time></trkpt><trkpt lat="43.69707079519549" lon="11.799272488190766"><ele>324.0</ele><time>2026-04-19T11:07:38.998Z</time></trkpt><trkpt lat="43.696931416236524" lon="11.799373353654335"><ele>323.75</ele><time>2026-04-19T11:07:39.998Z</time></trkpt><trkpt lat="43.696805367487606" lon="11.799461898774075"><ele>323.5</ele><time>2026-04-19T11:07:40.998Z</time></trkpt><trkpt lat="43.696688175739496" lon="11.799535370113178"><ele>323.25</ele><time>2026-04-19T11:07:41.998Z</time></trkpt><trkpt lat="43.69657171813384" lon="11.799596479269388"><ele>323.0</ele><time>2026-04-19T11:07:42.998Z</time></trkpt><trkpt lat="43.69646060012901" lon="11.799635300265297"><ele>323.0</ele><time>2026-04-19T11:07:43.998Z</time></trkpt><trkpt lat="43.69635000546023" lon="11.799649380077549"><ele>323.0</ele><time>2026-04-19T11:07:44.998Z</time></trkpt><trkpt lat="43.69623955617982" lon="11.799655049782025"><ele>323.0</ele><time>2026-04-19T11:07:45.998Z</time></trkpt><trkpt lat="43.696140056981456" lon="11.799681485837366"><ele>323.0</ele><time>2026-04-19T11:07:46.998Z</time></trkpt><trkpt lat="43.69604602113385" lon="11.799739685055084"><ele>323.0</ele><time>2026-04-19T11:07:47.998Z</time></trkpt><trkpt lat="43.695960440095575" lon="11.799815924251357"><ele>323.0</ele><time>2026-04-19T11:07:48.998Z</time></trkpt><trkpt lat="43.69592325451339" lon="11.799961798698703"><ele>323.0</ele><time>2026-04-19T11:07:49.998Z</time></trkpt><trkpt lat="43.69588639447077" lon="11.800118383301847"><ele>323.0</ele><time>2026-04-19T11:07:50.998Z</time></trkpt><trkpt lat="43.69584494890629" lon="11.800293473394634"><ele>323.0</ele><time>2026-04-19T11:07:51.998Z</time></trkpt><trkpt lat="43.695771705335545" lon="11.800467946695298"><ele>323.33333333333337</ele><time>2026-04-19T11:07:52.998Z</time></trkpt><trkpt lat="43.69566866920872" lon="11.800636391516974"><ele>323.6666666666667</ele><time>2026-04-19T11:07:53.998Z</time></trkpt><trkpt lat="43.6955485596435" lon="11.800810260439334"><ele>324.0</ele><time>2026-04-19T11:07:54.998Z</time></trkpt><trkpt lat="43.69541891101465" lon="11.800989835976242"><ele>324.3333333333333</ele><time>2026-04-19T11:07:55.998Z</time></trkpt><trkpt lat="43.695293197588676" lon="11.8011649323655"><ele>324.66666666666663</ele><time>2026-04-19T11:07:56.998Z</time></trkpt><trkpt lat="43.69516766638729" lon="11.801341412976027"><ele>325.0</ele><time>2026-04-19T11:07:57.998Z</time></trkpt><trkpt lat="43.69504116477163" lon="11.801521222550665"><ele>325.3333333333333</ele><time>2026-04-19T11:07:58.998Z</time></trkpt><trkpt lat="43.69491137996875" lon="11.801702275787514"><ele>325.6666666666667</ele><time>2026-04-19T11:07:59.998Z</time></trkpt><trkpt lat="43.69477995250882" lon="11.801881381920989"><ele>326.0</ele><time>2026-04-19T11:08:00.998Z</time></trkpt><trkpt lat="43.69464409607327" lon="11.802053668078473"><ele>325.33333333333337</ele><time>2026-04-19T11:08:01.998Z</time></trkpt><trkpt lat="43.69450039815792" lon="11.802210347417695"><ele>324.6666666666667</ele><time>2026-04-19T11:08:02.998Z</time></trkpt><trkpt lat="43.694351157537675" lon="11.802361462401972"><ele>324.0</ele><time>2026-04-19T11:08:03.998Z</time></trkpt><trkpt lat="43.69419830597511" lon="11.802507892795775"><ele>323.6666666666667</ele><time>2026-04-19T11:08:04.998Z</time></trkpt><trkpt lat="43.694042303917016" lon="11.802650368910575"><ele>323.33333333333337</ele><time>2026-04-19T11:08:05.998Z</time></trkpt><trkpt lat="43.693884410228996" lon="11.802792387711387"><ele>323.0</ele><time>2026-04-19T11:08:06.998Z</time></trkpt><trkpt lat="43.693728587792364" lon="11.802939135723046"><ele>323.0</ele><time>2026-04-19T11:08:07.998Z</time></trkpt><trkpt lat="43.693572497535776" lon="11.803087830277397"><ele>323.0</ele><time>2026-04-19T11:08:08.998Z</time></trkpt><trkpt lat="43.69341476620786" lon="11.8032380801564"><ele>323.0</ele><time>2026-04-19T11:08:09.998Z</time></trkpt><trkpt lat="43.693255916074726" lon="11.80339530453624"><ele>323.33333333333337</ele><time>2026-04-19T11:08:10.998Z</time></trkpt><trkpt lat="43.693096855211905" lon="11.803568018987187"><ele>323.6666666666667</ele><time>2026-04-19T11:08:11.998Z</time></trkpt><trkpt lat="43.69294040475528" lon="11.80376110889326"><ele>324.0</ele><time>2026-04-19T11:08:12.998Z</time></trkpt><trkpt lat="43.69278680220927" lon="11.803977765077564"><ele>324.0</ele><time>2026-04-19T11:08:13.998Z</time></trkpt><trkpt lat="43.692636197986495" lon="11.804212412540881"><ele>324.0</ele><time>2026-04-19T11:08:14.998Z</time></trkpt><trkpt lat="43.692492778564585" lon="11.804455153942977"><ele>324.0</ele><time>2026-04-19T11:08:15.998Z</time></trkpt><trkpt lat="43.69236491925435" lon="11.80470608226584"><ele>324.0</ele><time>2026-04-19T11:08:16.998Z</time></trkpt><trkpt lat="43.69224598779242" lon="11.804970621889899"><ele>324.0</ele><time>2026-04-19T11:08:17.998Z</time></trkpt><trkpt lat="43.692136174648354" lon="11.805245166266985"><ele>323.5</ele><time>2026-04-19T11:08:18.998Z</time></trkpt><trkpt lat="43.69203713790603" lon="11.80552957982939"><ele>323.0</ele><time>2026-04-19T11:08:19.998Z</time></trkpt><trkpt lat="43.691947313213255" lon="11.805824070149674"><ele>322.0</ele><time>2026-04-19T11:08:20.998Z</time></trkpt><trkpt lat="43.69186727972069" lon="11.80612914044328"><ele>321.0</ele><time>2026-04-19T11:08:21.998Z</time></trkpt><trkpt lat="43.69180145115708" lon="11.806439674937712"><ele>321.0</ele><time>2026-04-19T11:08:22.998Z</time></trkpt><trkpt lat="43.691748473425676" lon="11.806759587953087"><ele>321.0</ele><time>2026-04-19T11:08:23.998Z</time></trkpt><trkpt lat="43.691693455328135" lon="11.80708020739431"><ele>321.0</ele><time>2026-04-19T11:08:24.998Z</time></trkpt><trkpt lat="43.691635609561814" lon="11.807398303159534"><ele>321.0</ele><time>2026-04-19T11:08:25.998Z</time></trkpt><trkpt lat="43.691577271012314" lon="11.807717197013652"><ele>321.5</ele><time>2026-04-19T11:08:26.998Z</time></trkpt><trkpt lat="43.691517859320165" lon="11.80803768317593"><ele>322.0</ele><time>2026-04-19T11:08:27.998Z</time></trkpt><trkpt lat="43.69145723591057" lon="11.808358781457596"><ele>322.0</ele><time>2026-04-19T11:08:29Z</time></trkpt><trkpt lat="43.691397486312" lon="11.80867911249457"><ele>322.0</ele><time>2026-04-19T11:08:30Z</time></trkpt><trkpt lat="43.69133180839735" lon="11.80899683787571"><ele>322.0</ele><time>2026-04-19T11:08:31Z</time></trkpt><trkpt lat="43.69125514750142" lon="11.809309267905157"><ele>322.0</ele><time>2026-04-19T11:08:32Z</time></trkpt><trkpt lat="43.69116135595487" lon="11.809612307056133"><ele>321.5</ele><time>2026-04-19T11:08:33Z</time></trkpt><trkpt lat="43.691048167939186" lon="11.80990022437359"><ele>321.0</ele><time>2026-04-19T11:08:34Z</time></trkpt><trkpt lat="43.6909254938099" lon="11.810181416306838"><ele>321.0</ele><time>2026-04-19T11:08:35Z</time></trkpt><trkpt lat="43.69079332934166" lon="11.810458289196738"><ele>321.0</ele><time>2026-04-19T11:08:36Z</time></trkpt><trkpt lat="43.69065015823127" lon="11.810723718841142"><ele>321.0</ele><time>2026-04-19T11:08:37Z</time></trkpt><trkpt lat="43.69049815352932" lon="11.810981948362295"><ele>321.0</ele><time>2026-04-19T11:08:38Z</time></trkpt><trkpt lat="43.69033768577491" lon="11.811230132836744"><ele>319.5</ele><time>2026-04-19T11:08:39Z</time></trkpt><trkpt lat="43.69017463164878" lon="11.811477163036548"><ele>318.0</ele><time>2026-04-19T11:08:40Z</time></trkpt><trkpt lat="43.69002221507319" lon="11.811725169646024"><ele>319.0</ele><time>2026-04-19T11:08:41Z</time></trkpt><trkpt lat="43.6898807935943" lon="11.81197503011773"><ele>320.0</ele><time>2026-04-19T11:08:42Z</time></trkpt><trkpt lat="43.68975142194575" lon="11.812235777300703"><ele>320.0</ele><time>2026-04-19T11:08:43Z</time></trkpt><trkpt lat="43.68963493632922" lon="11.812507838308889"><ele>320.0</ele><time>2026-04-19T11:08:44Z</time></trkpt><trkpt lat="43.68953356651132" lon="11.812790189059754"><ele>319.5</ele><time>2026-04-19T11:08:45Z</time></trkpt><trkpt lat="43.68944905796212" lon="11.813081289658625"><ele>319.0</ele><time>2026-04-19T11:08:46Z</time></trkpt><trkpt lat="43.689385514817694" lon="11.813379982237727"><ele>319.3333333333333</ele><time>2026-04-19T11:08:47Z</time></trkpt><trkpt lat="43.689335066635834" lon="11.813681526064348"><ele>319.6666666666667</ele><time>2026-04-19T11:08:48Z</time></trkpt><trkpt lat="43.68930262182291" lon="11.813984737129825"><ele>320.0</ele><time>2026-04-19T11:08:49Z</time></trkpt><trkpt lat="43.689282846856834" lon="11.814287865979036"><ele>320.33333333333337</ele><time>2026-04-19T11:08:50Z</time></trkpt><trkpt lat="43.68928045908519" lon="11.814588941573357"><ele>320.6666666666667</ele><time>2026-04-19T11:08:51Z</time></trkpt><trkpt lat="43.68929622172534" lon="11.814888819608953"><ele>321.0</ele><time>2026-04-19T11:08:52Z</time></trkpt><trkpt lat="43.68932854312779" lon="11.815189023795188"><ele>319.5</ele><time>2026-04-19T11:08:53Z</time></trkpt><trkpt lat="43.6893763308516" lon="11.815490895916538"><ele>318.0</ele><time>2026-04-19T11:08:54Z</time></trkpt><trkpt lat="43.689434558359046" lon="11.81579672504041"><ele>319.0</ele><time>2026-04-19T11:08:55Z</time></trkpt><trkpt lat="43.689495196804934" lon="11.816101576733399"><ele>320.0</ele><time>2026-04-19T11:08:55.999Z</time></trkpt><trkpt lat="43.689555666055114" lon="11.81640625350032"><ele>320.0</ele><time>2026-04-19T11:08:56.999Z</time></trkpt><trkpt lat="43.68961433486572" lon="11.816709550879818"><ele>320.0</ele><time>2026-04-19T11:08:57.999Z</time></trkpt><trkpt lat="43.68967158441655" lon="11.817010162503188"><ele>319.6666666666667</ele><time>2026-04-19T11:08:58.999Z</time></trkpt><trkpt lat="43.68972884940912" lon="11.817307198994806"><ele>319.3333333333333</ele><time>2026-04-19T11:08:59.999Z</time></trkpt><trkpt lat="43.68978724764501" lon="11.817599986983792"><ele>319.0</ele><time>2026-04-19T11:09:00.999Z</time></trkpt><trkpt lat="43.68984218756298" lon="11.817880140879579"><ele>319.0</ele><time>2026-04-19T11:09:01.999Z</time></trkpt><trkpt lat="43.68989171270502" lon="11.818137093964502"><ele>319.0</ele><time>2026-04-19T11:09:02.999Z</time></trkpt><trkpt lat="43.68994160286027" lon="11.81837618205646"><ele>319.0</ele><time>2026-04-19T11:09:03.999Z</time></trkpt><trkpt lat="43.68999453875515" lon="11.818589529301905"><ele>319.0</ele><time>2026-04-19T11:09:04.999Z</time></trkpt><trkpt lat="43.690022475140296" lon="11.818786739063118"><ele>319.0</ele><time>2026-04-19T11:09:05.999Z</time></trkpt><trkpt lat="43.690130552441836" lon="11.81892854095278"><ele>319.0</ele><time>2026-04-19T11:09:06.999Z</time></trkpt><trkpt lat="43.69019754616147" lon="11.819079774303352"><ele>319.0</ele><time>2026-04-19T11:09:07.999Z</time></trkpt><trkpt lat="43.69025316957355" lon="11.819228656589335"><ele>322.79999999999995</ele><time>2026-04-19T11:09:08.999Z</time></trkpt><trkpt lat="43.6902943287511" lon="11.819369989618421"><ele>326.59999999999997</ele><time>2026-04-19T11:09:09.999Z</time></trkpt><trkpt lat="43.690329885916846" lon="11.819513058554142"><ele>330.4</ele><time>2026-04-19T11:09:10.999Z</time></trkpt><trkpt lat="43.6903717896227" lon="11.819653186598144"><ele>334.2</ele><time>2026-04-19T11:09:11.999Z</time></trkpt><trkpt lat="43.69043265239967" lon="11.819777809157394"><ele>338.0</ele><time>2026-04-19T11:09:12.999Z</time></trkpt><trkpt lat="43.69050318272924" lon="11.819874178340184"><ele>338.0</ele><time>2026-04-19T11:09:13.999Z</time></trkpt><trkpt lat="43.690569653869865" lon="11.819962273900979"><ele>338.0</ele><time>2026-04-19T11:09:14.999Z</time></trkpt><trkpt lat="43.69061567951704" lon="11.820082573780684"><ele>338.0</ele><time>2026-04-19T11:09:15.999Z</time></trkpt><trkpt lat="43.69062593240438" lon="11.820222898228371"><ele>338.0</ele><time>2026-04-19T11:09:16.999Z</time></trkpt><trkpt lat="43.690610680794286" lon="11.820369010833586"><ele>338.0</ele><time>2026-04-19T11:09:17.999Z</time></trkpt><trkpt lat="43.690576980240444" lon="11.820511974143455"><ele>341.0</ele><time>2026-04-19T11:09:18.999Z</time></trkpt><trkpt lat="43.690543498868344" lon="11.820633623581315"><ele>344.0</ele><time>2026-04-19T11:09:19.999Z</time></trkpt><trkpt lat="43.690501099513355" lon="11.820760090724306"><ele>347.0</ele><time>2026-04-19T11:09:20.999Z</time></trkpt><trkpt lat="43.690443312185714" lon="11.820890094842714"><ele>350.0</ele><time>2026-04-19T11:09:21.999Z</time></trkpt><trkpt lat="43.690365397932744" lon="11.821022283506647"><ele>353.0</ele><time>2026-04-19T11:09:22.999Z</time></trkpt><trkpt lat="43.69027657344807" lon="11.821171437684825"><ele>346.33333333333337</ele><time>2026-04-19T11:09:23.999Z</time></trkpt><trkpt lat="43.690179693961745" lon="11.821348402634666"><ele>339.6666666666667</ele><time>2026-04-19T11:09:24.999Z</time></trkpt><trkpt lat="43.6900611075347" lon="11.821537264752356"><ele>333.0</ele><time>2026-04-19T11:09:25.999Z</time></trkpt><trkpt lat="43.6899229025786" lon="11.821717796297182"><ele>338.6666666666667</ele><time>2026-04-19T11:09:26.999Z</time></trkpt><trkpt lat="43.68979440698656" lon="11.821897130109958"><ele>344.33333333333337</ele><time>2026-04-19T11:09:27.999Z</time></trkpt><trkpt lat="43.6896732772825" lon="11.822089641039163"><ele>350.0</ele><time>2026-04-19T11:09:28.999Z</time></trkpt><trkpt lat="43.68955135478352" lon="11.82228309739457"><ele>350.0</ele><time>2026-04-19T11:09:29.999Z</time></trkpt><trkpt lat="43.68942826251061" lon="11.822479103380502"><ele>350.0</ele><time>2026-04-19T11:09:30.999Z</time></trkpt><trkpt lat="43.68930885205752" lon="11.822672195788336"><ele>350.0</ele><time>2026-04-19T11:09:31.999Z</time></trkpt><trkpt lat="43.68919003674319" lon="11.822862130165882"><ele>344.0</ele><time>2026-04-19T11:09:32.999Z</time></trkpt><trkpt lat="43.689077612033415" lon="11.823043886472796"><ele>338.0</ele><time>2026-04-19T11:09:33.999Z</time></trkpt><trkpt lat="43.688971571773884" lon="11.823217981894134"><ele>332.0</ele><time>2026-04-19T11:09:34.999Z</time></trkpt><trkpt lat="43.68887043980491" lon="11.823379091580179"><ele>334.0</ele><time>2026-04-19T11:09:35.999Z</time></trkpt><trkpt lat="43.688772776180436" lon="11.823530988594317"><ele>336.0</ele><time>2026-04-19T11:09:36.999Z</time></trkpt><trkpt lat="43.688682509275345" lon="11.823675597135892"><ele>338.0</ele><time>2026-04-19T11:09:37.999Z</time></trkpt><trkpt lat="43.688595907015305" lon="11.823812010729922"><ele>340.0</ele><time>2026-04-19T11:09:38.999Z</time></trkpt><trkpt lat="43.688513458139276" lon="11.82394065793267"><ele>336.5</ele><time>2026-04-19T11:09:39.999Z</time></trkpt><trkpt lat="43.68843769184799" lon="11.82406206517007"><ele>333.0</ele><time>2026-04-19T11:09:40.999Z</time></trkpt><trkpt lat="43.68836431564192" lon="11.824180597565036"><ele>329.5</ele><time>2026-04-19T11:09:41.999Z</time></trkpt><trkpt lat="43.68828611364789" lon="11.824307972859392"><ele>326.0</ele><time>2026-04-19T11:09:42.999Z</time></trkpt><trkpt lat="43.68820630452636" lon="11.824437416449562"><ele>326.0</ele><time>2026-04-19T11:09:43.999Z</time></trkpt><trkpt lat="43.68812250376886" lon="11.824573873856444"><ele>326.0</ele><time>2026-04-19T11:09:44.999Z</time></trkpt><trkpt lat="43.68803217315004" lon="11.824719223555416"><ele>326.0</ele><time>2026-04-19T11:09:45.999Z</time></trkpt><trkpt lat="43.68794324751036" lon="11.824860797944163"><ele>326.0</ele><time>2026-04-19T11:09:46.999Z</time></trkpt><trkpt lat="43.687862009564256" lon="11.824990048355582"><ele>326.0</ele><time>2026-04-19T11:09:47.999Z</time></trkpt><trkpt lat="43.68778480672165" lon="11.825113332566563"><ele>326.0</ele><time>2026-04-19T11:09:48.999Z</time></trkpt><trkpt lat="43.68770609188448" lon="11.825227308797334"><ele>326.0</ele><time>2026-04-19T11:09:49.998Z</time></trkpt><trkpt lat="43.687610025145105" lon="11.825315615275029"><ele>326.0</ele><time>2026-04-19T11:09:50.998Z</time></trkpt><trkpt lat="43.687505145521435" lon="11.825379984434317"><ele>324.8</ele><time>2026-04-19T11:09:51.998Z</time></trkpt><trkpt lat="43.68741145573712" lon="11.825458217745433"><ele>323.6</ele><time>2026-04-19T11:09:52.998Z</time></trkpt><trkpt lat="43.687337404368435" lon="11.82557439732387"><ele>322.4</ele><time>2026-04-19T11:09:53.998Z</time></trkpt><trkpt lat="43.687280820365444" lon="11.825704396008122"><ele>321.2</ele><time>2026-04-19T11:09:54.998Z</time></trkpt><trkpt lat="43.6871979928256" lon="11.825818518759103"><ele>320.0</ele><time>2026-04-19T11:09:55.998Z</time></trkpt><trkpt lat="43.68708456670921" lon="11.825881465913591"><ele>320.0</ele><time>2026-04-19T11:09:56.998Z</time></trkpt><trkpt lat="43.68694440945095" lon="11.825923402842811"><ele>320.0</ele><time>2026-04-19T11:09:57.998Z</time></trkpt><trkpt lat="43.686789419202455" lon="11.825961898794242"><ele>320.0</ele><time>2026-04-19T11:09:58.998Z</time></trkpt><trkpt lat="43.68662523432178" lon="11.826011336612412"><ele>325.0</ele><time>2026-04-19T11:09:59.998Z</time></trkpt><trkpt lat="43.68645704508174" lon="11.826063857425602"><ele>330.0</ele><time>2026-04-19T11:10:00.998Z</time></trkpt><trkpt lat="43.6862926592573" lon="11.826111168941052"><ele>335.0</ele><time>2026-04-19T11:10:01.998Z</time></trkpt><trkpt lat="43.68612672250053" lon="11.826168279150652"><ele>335.0</ele><time>2026-04-19T11:10:02.998Z</time></trkpt><trkpt lat="43.68596061847427" lon="11.826224927666097"><ele>335.0</ele><time>2026-04-19T11:10:03.998Z</time></trkpt><trkpt lat="43.68579230526764" lon="11.826286423446609"><ele>335.0</ele><time>2026-04-19T11:10:04.998Z</time></trkpt><trkpt lat="43.68561386551785" lon="11.826338360724192"><ele>335.0</ele><time>2026-04-19T11:10:05.998Z</time></trkpt><trkpt lat="43.68542558872632" lon="11.826365678675769"><ele>335.0</ele><time>2026-04-19T11:10:06.998Z</time></trkpt><trkpt lat="43.685234771470135" lon="11.826394268856562"><ele>335.0</ele><time>2026-04-19T11:10:07.998Z</time></trkpt><trkpt lat="43.68503884975994" lon="11.826456158452952"><ele>332.0</ele><time>2026-04-19T11:10:08.998Z</time></trkpt><trkpt lat="43.68484361975238" lon="11.8265452518701"><ele>329.0</ele><time>2026-04-19T11:10:09.998Z</time></trkpt><trkpt lat="43.68465396107105" lon="11.826649729720765"><ele>326.0</ele><time>2026-04-19T11:10:10.998Z</time></trkpt><trkpt lat="43.684471890916555" lon="11.826765923059787"><ele>325.6666666666667</ele><time>2026-04-19T11:10:11.998Z</time></trkpt><trkpt lat="43.684297661765484" lon="11.826877136829193"><ele>325.3333333333333</ele><time>2026-04-19T11:10:12.998Z</time></trkpt><trkpt lat="43.68412645748842" lon="11.826976872469498"><ele>325.0</ele><time>2026-04-19T11:10:13.998Z</time></trkpt><trkpt lat="43.68396645663089" lon="11.82706926948907"><ele>325.0</ele><time>2026-04-19T11:10:14.998Z</time></trkpt><trkpt lat="43.68381990509502" lon="11.827163176406984"><ele>325.0</ele><time>2026-04-19T11:10:15.998Z</time></trkpt><trkpt lat="43.683686148855124" lon="11.827261627684917"><ele>325.0</ele><time>2026-04-19T11:10:16.998Z</time></trkpt><trkpt lat="43.68355520299923" lon="11.827371742866557"><ele>326.0</ele><time>2026-04-19T11:10:17.998Z</time></trkpt><trkpt lat="43.683427053739756" lon="11.827491290695692"><ele>327.0</ele><time>2026-04-19T11:10:18.998Z</time></trkpt><trkpt lat="43.68330119826528" lon="11.827617113084358"><ele>328.0</ele><time>2026-04-19T11:10:19.998Z</time></trkpt><trkpt lat="43.68318278005491" lon="11.82775492279377"><ele>328.0</ele><time>2026-04-19T11:10:20.998Z</time></trkpt><trkpt lat="43.68306872955278" lon="11.827898558914262"><ele>328.0</ele><time>2026-04-19T11:10:21.998Z</time></trkpt><trkpt lat="43.6829602884488" lon="11.828048546072807"><ele>328.0</ele><time>2026-04-19T11:10:22.998Z</time></trkpt><trkpt lat="43.682852161873875" lon="11.828200969267357"><ele>327.5</ele><time>2026-04-19T11:10:23.998Z</time></trkpt><trkpt lat="43.682752832695364" lon="11.828359159433692"><ele>327.0</ele><time>2026-04-19T11:10:24.998Z</time></trkpt><trkpt lat="43.68266397731878" lon="11.828519372509342"><ele>326.5</ele><time>2026-04-19T11:10:25.998Z</time></trkpt><trkpt lat="43.68258877302775" lon="11.828670798762486"><ele>326.0</ele><time>2026-04-19T11:10:26.998Z</time></trkpt><trkpt lat="43.68251071070125" lon="11.828819620606536"><ele>326.0</ele><time>2026-04-19T11:10:27.998Z</time></trkpt><trkpt lat="43.68243240877437" lon="11.828962281473554"><ele>326.0</ele><time>2026-04-19T11:10:28.998Z</time></trkpt><trkpt lat="43.68234398458311" lon="11.829102819067467"><ele>326.0</ele><time>2026-04-19T11:10:29.998Z</time></trkpt><trkpt lat="43.68223143626535" lon="11.829224967188546"><ele>326.0</ele><time>2026-04-19T11:10:30.998Z</time></trkpt><trkpt lat="43.682104439331404" lon="11.82932260988104"><ele>326.25</ele><time>2026-04-19T11:10:31.998Z</time></trkpt><trkpt lat="43.68197902236048" lon="11.829389710483584"><ele>326.5</ele><time>2026-04-19T11:10:32.998Z</time></trkpt><trkpt lat="43.68186559568254" lon="11.829452579312315"><ele>326.75</ele><time>2026-04-19T11:10:33.998Z</time></trkpt><trkpt lat="43.68176442015839" lon="11.829516131950374"><ele>327.0</ele><time>2026-04-19T11:10:35Z</time></trkpt><trkpt lat="43.68167093228984" lon="11.829572933871448"><ele>326.0</ele><time>2026-04-19T11:10:36Z</time></trkpt><trkpt lat="43.68158824298012" lon="11.829627051216603"><ele>325.0</ele><time>2026-04-19T11:10:37Z</time></trkpt><trkpt lat="43.68150491905946" lon="11.829651913766348"><ele>324.0</ele><time>2026-04-19T11:10:38Z</time></trkpt><trkpt lat="43.681442401120016" lon="11.829687724608679"><ele>323.0</ele><time>2026-04-19T11:10:39Z</time></trkpt><trkpt lat="43.681369746058344" lon="11.829730178495492"><ele>322.0</ele><time>2026-04-19T11:10:41Z</time></trkpt><trkpt lat="43.681315032467275" lon="11.829792513058077"><ele>321.0</ele><time>2026-04-19T11:10:44Z</time></trkpt><trkpt lat="43.68124065914623" lon="11.829806023214434"><ele>321.0</ele><time>2026-04-19T11:10:46Z</time></trkpt><trkpt lat="43.681302600837995" lon="11.829982892600823"><ele>321.0</ele><time>2026-04-19T11:10:47Z</time></trkpt><trkpt lat="43.68132343824206" lon="11.830093641090796"><ele>321.0</ele><time>2026-04-19T11:10:48Z</time></trkpt><trkpt lat="43.681372763978246" lon="11.830201828246974"><ele>321.0</ele><time>2026-04-19T11:10:49Z</time></trkpt><trkpt lat="43.681419219561135" lon="11.830346612399097"><ele>321.0</ele><time>2026-04-19T11:10:50Z</time></trkpt><trkpt lat="43.68144896759993" lon="11.830506334125841"><ele>321.5</ele><time>2026-04-19T11:10:51Z</time></trkpt><trkpt lat="43.681478652639946" lon="11.830682248057466"><ele>322.0</ele><time>2026-04-19T11:10:52Z</time></trkpt><trkpt lat="43.681513040757885" lon="11.830878623548328"><ele>322.5</ele><time>2026-04-19T11:10:53Z</time></trkpt><trkpt lat="43.68154774459589" lon="11.831067146269065"><ele>323.0</ele><time>2026-04-19T11:10:54Z</time></trkpt><trkpt lat="43.681584413649624" lon="11.831257640871412"><ele>323.0</ele><time>2026-04-19T11:10:55Z</time></trkpt><trkpt lat="43.68162319931357" lon="11.831450930888726"><ele>323.0</ele><time>2026-04-19T11:10:56Z</time></trkpt><trkpt lat="43.68165833590366" lon="11.83164647070801"><ele>323.0</ele><time>2026-04-19T11:10:57Z</time></trkpt><trkpt lat="43.68169222799889" lon="11.831846449916865"><ele>323.0</ele><time>2026-04-19T11:10:58Z</time></trkpt><trkpt lat="43.68173321056522" lon="11.832047957064624"><ele>323.0</ele><time>2026-04-19T11:10:59Z</time></trkpt><trkpt lat="43.681774366628545" lon="11.832251232171679"><ele>323.0</ele><time>2026-04-19T11:11:00Z</time></trkpt><trkpt lat="43.68181320284228" lon="11.832455533737987"><ele>323.0</ele><time>2026-04-19T11:11:01Z</time></trkpt><trkpt lat="43.68184958106425" lon="11.832661950497519"><ele>323.25</ele><time>2026-04-19T11:11:02Z</time></trkpt><trkpt lat="43.68188715790691" lon="11.83286561172049"><ele>323.5</ele><time>2026-04-19T11:11:03Z</time></trkpt><trkpt lat="43.68192504378176" lon="11.833066676997616"><ele>323.75</ele><time>2026-04-19T11:11:04Z</time></trkpt><trkpt lat="43.68196306951249" lon="11.833260093124524"><ele>324.0</ele><time>2026-04-19T11:11:05Z</time></trkpt><trkpt lat="43.68200050670663" lon="11.833447398437325"><ele>325.75</ele><time>2026-04-19T11:11:06Z</time></trkpt><trkpt lat="43.68203443710864" lon="11.833633640202656"><ele>327.5</ele><time>2026-04-19T11:11:07Z</time></trkpt><trkpt lat="43.68206889936015" lon="11.83382112521717"><ele>329.25</ele><time>2026-04-19T11:11:08Z</time></trkpt><trkpt lat="43.68210464476657" lon="11.83400744808689"><ele>331.0</ele><time>2026-04-19T11:11:09Z</time></trkpt><trkpt lat="43.682148512135406" lon="11.834193569076394"><ele>330.75</ele><time>2026-04-19T11:11:09.999Z</time></trkpt><trkpt lat="43.68220700532628" lon="11.834377189615807"><ele>330.5</ele><time>2026-04-19T11:11:10.999Z</time></trkpt><trkpt lat="43.68227940677549" lon="11.83455916241279"><ele>330.25</ele><time>2026-04-19T11:11:11.999Z</time></trkpt><trkpt lat="43.68235055410188" lon="11.83474634970889"><ele>330.0</ele><time>2026-04-19T11:11:12.999Z</time></trkpt><trkpt lat="43.682419908610974" lon="11.834937873669176"><ele>330.0</ele><time>2026-04-19T11:11:13.999Z</time></trkpt><trkpt lat="43.682490627158366" lon="11.835131004616933"><ele>330.0</ele><time>2026-04-19T11:11:14.999Z</time></trkpt><trkpt lat="43.682560392874045" lon="11.835327614163496"><ele>330.0</ele><time>2026-04-19T11:11:15.999Z</time></trkpt><trkpt lat="43.682627786818465" lon="11.83552420634764"><ele>330.6666666666667</ele><time>2026-04-19T11:11:16.999Z</time></trkpt><trkpt lat="43.6827008346278" lon="11.835718205884382"><ele>331.33333333333337</ele><time>2026-04-19T11:11:17.999Z</time></trkpt><trkpt lat="43.682776511083325" lon="11.835911586236149"><ele>332.0</ele><time>2026-04-19T11:11:18.999Z</time></trkpt><trkpt lat="43.682851841853555" lon="11.836106534343976"><ele>332.0</ele><time>2026-04-19T11:11:19.999Z</time></trkpt><trkpt lat="43.682923848575875" lon="11.836305167535023"><ele>332.0</ele><time>2026-04-19T11:11:20.999Z</time></trkpt><trkpt lat="43.68299675427994" lon="11.83650501163913"><ele>332.0</ele><time>2026-04-19T11:11:21.999Z</time></trkpt><trkpt lat="43.68307016449797" lon="11.836706337559173"><ele>331.0</ele><time>2026-04-19T11:11:22.999Z</time></trkpt><trkpt lat="43.6831388393238" lon="11.836905729735047"><ele>330.0</ele><time>2026-04-19T11:11:23.999Z</time></trkpt><trkpt lat="43.68320839668252" lon="11.837101801069814"><ele>329.0</ele><time>2026-04-19T11:11:24.999Z</time></trkpt><trkpt lat="43.68327832114491" lon="11.837294988187903"><ele>329.0</ele><time>2026-04-19T11:11:25.999Z</time></trkpt><trkpt lat="43.68334575195424" lon="11.837487325449164"><ele>329.0</ele><time>2026-04-19T11:11:26.999Z</time></trkpt><trkpt lat="43.68341312044112" lon="11.837678010466151"><ele>329.0</ele><time>2026-04-19T11:11:27.999Z</time></trkpt><trkpt lat="43.68348407960972" lon="11.837863225557122"><ele>329.0</ele><time>2026-04-19T11:11:28.999Z</time></trkpt><trkpt lat="43.68355249509421" lon="11.838044785149755"><ele>329.0</ele><time>2026-04-19T11:11:29.999Z</time></trkpt><trkpt lat="43.683616804534665" lon="11.838228129300195"><ele>329.0</ele><time>2026-04-19T11:11:30.999Z</time></trkpt><trkpt lat="43.68368023492675" lon="11.8384158796309"><ele>329.0</ele><time>2026-04-19T11:11:31.999Z</time></trkpt><trkpt lat="43.683747030850014" lon="11.838595157170632"><ele>329.5</ele><time>2026-04-19T11:11:32.999Z</time></trkpt><trkpt lat="43.683818687941674" lon="11.838760681785834"><ele>330.0</ele><time>2026-04-19T11:11:33.999Z</time></trkpt><trkpt lat="43.68389949815937" lon="11.838902105134576"><ele>330.5</ele><time>2026-04-19T11:11:34.999Z</time></trkpt><trkpt lat="43.683999924061304" lon="11.839017243573503"><ele>331.0</ele><time>2026-04-19T11:11:35.999Z</time></trkpt><trkpt lat="43.68411781067384" lon="11.83910254970352"><ele>331.0</ele><time>2026-04-19T11:11:36.999Z</time></trkpt><trkpt lat="43.6842517378078" lon="11.83916885593408"><ele>331.0</ele><time>2026-04-19T11:11:37.999Z</time></trkpt><trkpt lat="43.68439764462227" lon="11.839206714592416"><ele>331.0</ele><time>2026-04-19T11:11:38.999Z</time></trkpt><trkpt lat="43.684540663834646" lon="11.839229405172404"><ele>331.0</ele><time>2026-04-19T11:11:39.999Z</time></trkpt><trkpt lat="43.68466858208303" lon="11.83924880528499"><ele>332.0</ele><time>2026-04-19T11:11:40.999Z</time></trkpt><trkpt lat="43.68478781090392" lon="11.839239913953008"><ele>333.0</ele><time>2026-04-19T11:11:41.999Z</time></trkpt><trkpt lat="43.684896329956096" lon="11.839192964799194"><ele>334.0</ele><time>2026-04-19T11:11:42.999Z</time></trkpt><trkpt lat="43.68498275706052" lon="11.839135405695371"><ele>335.0</ele><time>2026-04-19T11:11:43.999Z</time></trkpt><trkpt lat="43.68506455501972" lon="11.839105946766908"><ele>336.0</ele><time>2026-04-19T11:11:44.999Z</time></trkpt><trkpt lat="43.6851486422806" lon="11.83913154259373"><ele>336.0</ele><time>2026-04-19T11:11:45.999Z</time></trkpt><trkpt lat="43.6852308249181" lon="11.839199388649892"><ele>336.0</ele><time>2026-04-19T11:11:46.999Z</time></trkpt><trkpt lat="43.685314874520785" lon="11.839299551180755"><ele>336.0</ele><time>2026-04-19T11:11:47.999Z</time></trkpt><trkpt lat="43.68540017546203" lon="11.839408772459858"><ele>336.0</ele><time>2026-04-19T11:11:48.999Z</time></trkpt><trkpt lat="43.6854862477018" lon="11.8395189054509"><ele>336.0</ele><time>2026-04-19T11:11:49.999Z</time></trkpt><trkpt lat="43.685576522481945" lon="11.839630133079188"><ele>336.0</ele><time>2026-04-19T11:11:50.999Z</time></trkpt><trkpt lat="43.685668620689114" lon="11.83974370949706"><ele>336.0</ele><time>2026-04-19T11:11:51.999Z</time></trkpt><trkpt lat="43.68575820770641" lon="11.839863077801654"><ele>336.0</ele><time>2026-04-19T11:11:52.999Z</time></trkpt><trkpt lat="43.6858309778864" lon="11.840002823179415"><ele>336.0</ele><time>2026-04-19T11:11:53.999Z</time></trkpt><trkpt lat="43.68589457633832" lon="11.840156041295717"><ele>336.0</ele><time>2026-04-19T11:11:54.999Z</time></trkpt><trkpt lat="43.68595830766468" lon="11.840312184580702"><ele>336.0</ele><time>2026-04-19T11:11:55.999Z</time></trkpt><trkpt lat="43.68602005642753" lon="11.840474960719384"><ele>336.0</ele><time>2026-04-19T11:11:56.999Z</time></trkpt><trkpt lat="43.68607732650912" lon="11.840637666397077"><ele>336.0</ele><time>2026-04-19T11:11:57.999Z</time></trkpt><trkpt lat="43.68613189871221" lon="11.840802828591205"><ele>337.5</ele><time>2026-04-19T11:11:58.999Z</time></trkpt><trkpt lat="43.68617358141845" lon="11.840972140277673"><ele>339.0</ele><time>2026-04-19T11:11:59.999Z</time></trkpt><trkpt lat="43.6862096274543" lon="11.841151364119282"><ele>340.5</ele><time>2026-04-19T11:12:00.999Z</time></trkpt><trkpt lat="43.68623786342668" lon="11.841331905401573"><ele>342.0</ele><time>2026-04-19T11:12:01.999Z</time></trkpt><trkpt lat="43.686259299547814" lon="11.84151635410218"><ele>342.0</ele><time>2026-04-19T11:12:02.998Z</time></trkpt><trkpt lat="43.68627197815081" lon="11.84170031053059"><ele>342.0</ele><time>2026-04-19T11:12:03.998Z</time></trkpt><trkpt lat="43.68628337950947" lon="11.841884575934666"><ele>342.0</ele><time>2026-04-19T11:12:04.998Z</time></trkpt><trkpt lat="43.68627768969281" lon="11.842069823737152"><ele>342.0</ele><time>2026-04-19T11:12:05.998Z</time></trkpt><trkpt lat="43.68629681949596" lon="11.842250633315361"><ele>340.5</ele><time>2026-04-19T11:12:06.998Z</time></trkpt><trkpt lat="43.68633711971075" lon="11.84242413518291"><ele>339.0</ele><time>2026-04-19T11:12:07.998Z</time></trkpt><trkpt lat="43.68636600183658" lon="11.842598096505167"><ele>337.5</ele><time>2026-04-19T11:12:08.998Z</time></trkpt><trkpt lat="43.68638354820849" lon="11.842776507001528"><ele>336.0</ele><time>2026-04-19T11:12:09.998Z</time></trkpt><trkpt lat="43.686420437369776" lon="11.84294850324418"><ele>335.5</ele><time>2026-04-19T11:12:10.998Z</time></trkpt><trkpt lat="43.68647373939943" lon="11.843117843038725"><ele>335.0</ele><time>2026-04-19T11:12:11.998Z</time></trkpt><trkpt lat="43.686511356105456" lon="11.843293474842275"><ele>334.5</ele><time>2026-04-19T11:12:12.998Z</time></trkpt><trkpt lat="43.68653336902536" lon="11.843475126465366"><ele>334.0</ele><time>2026-04-19T11:12:13.998Z</time></trkpt><trkpt lat="43.68658737874443" lon="11.843648977011654"><ele>334.0</ele><time>2026-04-19T11:12:14.998Z</time></trkpt><trkpt lat="43.68662471935407" lon="11.843833330792792"><ele>334.0</ele><time>2026-04-19T11:12:15.998Z</time></trkpt><trkpt lat="43.68666703877086" lon="11.844021655917787"><ele>334.0</ele><time>2026-04-19T11:12:16.998Z</time></trkpt><trkpt lat="43.686718493176116" lon="11.84421784497918"><ele>334.0</ele><time>2026-04-19T11:12:17.998Z</time></trkpt><trkpt lat="43.686767127350066" lon="11.844416980831793"><ele>334.25</ele><time>2026-04-19T11:12:18.998Z</time></trkpt><trkpt lat="43.68681412576574" lon="11.844611560922942"><ele>334.5</ele><time>2026-04-19T11:12:19.998Z</time></trkpt><trkpt lat="43.686860829373906" lon="11.844806100969608"><ele>334.75</ele><time>2026-04-19T11:12:20.998Z</time></trkpt><trkpt lat="43.68690733850506" lon="11.845002584534846"><ele>335.0</ele><time>2026-04-19T11:12:21.998Z</time></trkpt><trkpt lat="43.68695291107753" lon="11.845201402839294"><ele>335.75</ele><time>2026-04-19T11:12:22.998Z</time></trkpt><trkpt lat="43.68699535625542" lon="11.845402035211006"><ele>336.5</ele><time>2026-04-19T11:12:23.998Z</time></trkpt><trkpt lat="43.68703322823667" lon="11.845592051596636"><ele>337.25</ele><time>2026-04-19T11:12:24.998Z</time></trkpt><trkpt lat="43.68706479428305" lon="11.845756638971022"><ele>338.0</ele><time>2026-04-19T11:12:25.998Z</time></trkpt><trkpt lat="43.68708989559445" lon="11.84589696724423"><ele>337.83333333333337</ele><time>2026-04-19T11:12:26.998Z</time></trkpt><trkpt lat="43.687108912952" lon="11.846021345278064"><ele>337.6666666666667</ele><time>2026-04-19T11:12:27.998Z</time></trkpt><trkpt lat="43.68712209372804" lon="11.846134560401508"><ele>337.5</ele><time>2026-04-19T11:12:28.998Z</time></trkpt><trkpt lat="43.687128601773274" lon="11.846234873481576"><ele>337.3333333333333</ele><time>2026-04-19T11:12:29.998Z</time></trkpt><trkpt lat="43.68712934345543" lon="11.846322540260823"><ele>337.16666666666663</ele><time>2026-04-19T11:12:30.998Z</time></trkpt><trkpt lat="43.687104067327226" lon="11.846457428464355"><ele>337.0</ele><time>2026-04-19T11:12:32.998Z</time></trkpt><trkpt lat="43.68710285012731" lon="11.846558234547196"><ele>337.00000000000006</ele><time>2026-04-19T11:12:34.998Z</time></trkpt><trkpt lat="43.68714034615408" lon="11.846629619624416"><ele>337.0</ele><time>2026-04-19T11:12:36.998Z</time></trkpt><trkpt lat="43.68715945704981" lon="11.846746159116904"><ele>337.0</ele><time>2026-04-19T11:12:39.998Z</time></trkpt><trkpt lat="43.68716417000741" lon="11.846847954283993"><ele>337.0</ele><time>2026-04-19T11:12:42Z</time></trkpt><trkpt lat="43.68716355008949" lon="11.846940709580428"><ele>337.0</ele><time>2026-04-19T11:12:44Z</time></trkpt><trkpt lat="43.687179442417026" lon="11.847061873502126"><ele>337.00000000000006</ele><time>2026-04-19T11:12:47Z</time></trkpt><trkpt lat="43.6871872863394" lon="11.847150384991975"><ele>337.0</ele><time>2026-04-19T11:12:50Z</time></trkpt><trkpt lat="43.6872090110699" lon="11.847234741485872"><ele>336.8333333333333</ele><time>2026-04-19T11:12:53Z</time></trkpt><trkpt lat="43.687247030799966" lon="11.847339672642107"><ele>336.66666666666663</ele><time>2026-04-19T11:12:55Z</time></trkpt><trkpt lat="43.68727749469186" lon="11.847456889730339"><ele>336.5</ele><time>2026-04-19T11:12:57Z</time></trkpt><trkpt lat="43.68730890591634" lon="11.847554015907834"><ele>336.3333333333333</ele><time>2026-04-19T11:12:59Z</time></trkpt><trkpt lat="43.68736789877646" lon="11.847621222690146"><ele>336.1666666666667</ele><time>2026-04-19T11:13:02Z</time></trkpt><trkpt lat="43.687429587071875" lon="11.847695358942891"><ele>336.0</ele><time>2026-04-19T11:13:05Z</time></trkpt><trkpt lat="43.68748941483798" lon="11.847779619382269"><ele>336.2857142857143</ele><time>2026-04-19T11:13:21Z</time></trkpt><trkpt lat="43.687531103310036" lon="11.847853582747717"><ele>336.57142857142856</ele><time>2026-04-19T11:13:28.999Z</time></trkpt><trkpt lat="43.687591250627726" lon="11.847975438419915"><ele>336.8571428571429</ele><time>2026-04-19T11:13:30.999Z</time></trkpt><trkpt lat="43.68763773367649" lon="11.848042972873468"><ele>337.1428571428571</ele><time>2026-04-19T11:13:31.999Z</time></trkpt><trkpt lat="43.68768144337266" lon="11.848108958030085"><ele>337.42857142857144</ele><time>2026-04-19T11:13:32.999Z</time></trkpt><trkpt lat="43.68772415453578" lon="11.848182354375336"><ele>337.7142857142857</ele><time>2026-04-19T11:13:33.999Z</time></trkpt><trkpt lat="43.68775988079438" lon="11.848257187659062"><ele>338.0</ele><time>2026-04-19T11:13:34.999Z</time></trkpt><trkpt lat="43.6878046905442" lon="11.848326754174755"><ele>338.0</ele><time>2026-04-19T11:13:35.999Z</time></trkpt><trkpt lat="43.687847400646085" lon="11.848394931239215"><ele>338.0</ele><time>2026-04-19T11:13:36.999Z</time></trkpt><trkpt lat="43.68788569144226" lon="11.848466352410165"><ele>338.0</ele><time>2026-04-19T11:13:37.999Z</time></trkpt><trkpt lat="43.68796558417643" lon="11.848599363829752"><ele>338.0</ele><time>2026-04-19T11:13:39.999Z</time></trkpt><trkpt lat="43.68803196557161" lon="11.848725521552678"><ele>338.0</ele><time>2026-04-19T11:13:41.999Z</time></trkpt><trkpt lat="43.688093095354944" lon="11.84882723601826"><ele>338.42857142857144</ele><time>2026-04-19T11:13:43.999Z</time></trkpt><trkpt lat="43.68814661029077" lon="11.848918273202038"><ele>338.85714285714283</ele><time>2026-04-19T11:13:45.999Z</time></trkpt><trkpt lat="43.68819650271489" lon="11.848999467910442"><ele>339.2857142857143</ele><time>2026-04-19T11:13:47.999Z</time></trkpt><trkpt lat="43.68823495386616" lon="11.849074032386236"><ele>339.7142857142857</ele><time>2026-04-19T11:13:49.999Z</time></trkpt><trkpt lat="43.68826580854675" lon="11.849165952579796"><ele>340.14285714285717</ele><time>2026-04-19T11:13:52.999Z</time></trkpt><trkpt lat="43.68831546614014" lon="11.849230192610001"><ele>340.57142857142856</ele><time>2026-04-19T11:13:56.999Z</time></trkpt><trkpt lat="43.68836581126033" lon="11.849285420839973"><ele>341.0</ele><time>2026-04-19T11:16:26.999Z</time></trkpt><trkpt lat="43.68841732264969" lon="11.849339844386979"><ele>341.57142857142856</ele><time>2026-04-19T11:16:35.998Z</time></trkpt><trkpt lat="43.68836956514581" lon="11.849453273409187"><ele>342.14285714285717</ele><time>2026-04-19T11:16:54Z</time></trkpt><trkpt lat="43.688302152067244" lon="11.849495455617644"><ele>342.7142857142857</ele><time>2026-04-19T11:17:03Z</time></trkpt><trkpt lat="43.68824097639829" lon="11.849533895539997"><ele>343.2857142857143</ele><time>2026-04-19T11:17:12Z</time></trkpt><trkpt lat="43.68818675982192" lon="11.849580076769463"><ele>343.85714285714283</ele><time>2026-04-19T11:17:20Z</time></trkpt><trkpt lat="43.68813905440501" lon="11.849651052530609"><ele>344.42857142857144</ele><time>2026-04-19T11:17:32Z</time></trkpt><trkpt lat="43.68819900409187" lon="11.849624213766033"><ele>345.0</ele><time>2026-04-19T11:23:14.999Z</time></trkpt><trkpt lat="43.688280823774924" lon="11.849592314322393"><ele>345.0</ele><time>2026-04-19T11:23:30.999Z</time></trkpt><trkpt lat="43.68832466660632" lon="11.849662934334992"><ele>345.0</ele><time>2026-04-19T11:23:39.999Z</time></trkpt><trkpt lat="43.68830319517117" lon="11.849571431266442"><ele>345.0</ele><time>2026-04-19T11:23:48.999Z</time></trkpt><trkpt lat="43.68831326949302" lon="11.849484783625272"><ele>345.0</ele><time>2026-04-19T11:23:56.999Z</time></trkpt><trkpt lat="43.688378163029114" lon="11.849481190285015"><ele>345.0</ele><time>2026-04-19T11:24:07.999Z</time></trkpt><trkpt lat="43.68840008438203" lon="11.84939162432136"><ele>345.0</ele><time>2026-04-19T11:24:16.999Z</time></trkpt><trkpt lat="43.68835457132675" lon="11.849322309205048"><ele>345.0</ele><time>2026-04-19T11:24:23.999Z</time></trkpt><trkpt lat="43.68842645962667" lon="11.849300164135672"><ele>345.0</ele><time>2026-04-19T11:28:23Z</time></trkpt><trkpt lat="43.68850923228262" lon="11.849377775609783"><ele>345.0</ele><time>2026-04-19T11:28:25Z</time></trkpt><trkpt lat="43.68860878239728" lon="11.849464869862079"><ele>345.0</ele><time>2026-04-19T11:28:27Z</time></trkpt><trkpt lat="43.68870341463608" lon="11.849584744414118"><ele>345.0</ele><time>2026-04-19T11:28:28.999Z</time></trkpt><trkpt lat="43.6887594567129" lon="11.84963776407347"><ele>345.0</ele><time>2026-04-19T11:28:29.999Z</time></trkpt><trkpt lat="43.68882645333303" lon="11.849685294235254"><ele>344.8333333333333</ele><time>2026-04-19T11:28:30.999Z</time></trkpt><trkpt lat="43.6888845006476" lon="11.849761038528504"><ele>344.6666666666667</ele><time>2026-04-19T11:28:31.999Z</time></trkpt><trkpt lat="43.68893842647167" lon="11.849841388936373"><ele>344.5</ele><time>2026-04-19T11:28:32.999Z</time></trkpt><trkpt lat="43.688994748238315" lon="11.849918022599429"><ele>344.33333333333337</ele><time>2026-04-19T11:28:33.999Z</time></trkpt><trkpt lat="43.68903913530983" lon="11.850010352660775"><ele>344.1666666666667</ele><time>2026-04-19T11:28:34.999Z</time></trkpt><trkpt lat="43.68909211112375" lon="11.850088290135519"><ele>344.0</ele><time>2026-04-19T11:28:35.999Z</time></trkpt><trkpt lat="43.68915457778131" lon="11.850155644997495"><ele>344.0</ele><time>2026-04-19T11:28:36.999Z</time></trkpt><trkpt lat="43.689204762431146" lon="11.850240992548164"><ele>344.0</ele><time>2026-04-19T11:28:37.999Z</time></trkpt><trkpt lat="43.689255587958726" lon="11.850332057104714"><ele>344.0</ele><time>2026-04-19T11:28:38.999Z</time></trkpt><trkpt lat="43.68930489687069" lon="11.850428330862885"><ele>344.0</ele><time>2026-04-19T11:28:39.999Z</time></trkpt><trkpt lat="43.68936054094744" lon="11.850527391815657"><ele>344.0</ele><time>2026-04-19T11:28:40.999Z</time></trkpt><trkpt lat="43.689425332650984" lon="11.850623916558433"><ele>344.0</ele><time>2026-04-19T11:28:41.999Z</time></trkpt><trkpt lat="43.689508063627216" lon="11.850722615267056"><ele>343.75</ele><time>2026-04-19T11:28:42.999Z</time></trkpt><trkpt lat="43.68959177983102" lon="11.850836462835845"><ele>343.5</ele><time>2026-04-19T11:28:43.999Z</time></trkpt><trkpt lat="43.68969287798024" lon="11.850914988020731"><ele>343.25</ele><time>2026-04-19T11:28:44.999Z</time></trkpt><trkpt lat="43.689782344604524" lon="11.851015421523998"><ele>343.0</ele><time>2026-04-19T11:28:45.999Z</time></trkpt><trkpt lat="43.689874502138736" lon="11.85111730160442"><ele>343.0</ele><time>2026-04-19T11:28:46.999Z</time></trkpt><trkpt lat="43.689964113067504" lon="11.85122633460072"><ele>343.0</ele><time>2026-04-19T11:28:47.999Z</time></trkpt><trkpt lat="43.690054138331966" lon="11.851337846612504"><ele>343.0</ele><time>2026-04-19T11:28:48.999Z</time></trkpt><trkpt lat="43.690143499362605" lon="11.851457912338537"><ele>343.0</ele><time>2026-04-19T11:28:49.999Z</time></trkpt><trkpt lat="43.69023297436099" lon="11.851582517005566"><ele>343.0</ele><time>2026-04-19T11:28:50.999Z</time></trkpt><trkpt lat="43.690324402119174" lon="11.851711608793222"><ele>343.0</ele><time>2026-04-19T11:28:51.999Z</time></trkpt><trkpt lat="43.6904184903135" lon="11.851843124221812"><ele>343.0</ele><time>2026-04-19T11:28:52.999Z</time></trkpt><trkpt lat="43.69051600412853" lon="11.851977953185436"><ele>343.0</ele><time>2026-04-19T11:28:53.999Z</time></trkpt><trkpt lat="43.69061754620169" lon="11.852110661769492"><ele>343.25</ele><time>2026-04-19T11:28:54.999Z</time></trkpt><trkpt lat="43.69072084108663" lon="11.85224272175583"><ele>343.5</ele><time>2026-04-19T11:28:55.999Z</time></trkpt><trkpt lat="43.69082446314756" lon="11.852382006002495"><ele>343.75</ele><time>2026-04-19T11:28:56.999Z</time></trkpt><trkpt lat="43.69091974102101" lon="11.852526890975513"><ele>344.0</ele><time>2026-04-19T11:28:57.999Z</time></trkpt><trkpt lat="43.691015336934655" lon="11.852674053627464"><ele>345.0</ele><time>2026-04-19T11:28:58.999Z</time></trkpt><trkpt lat="43.69111509771814" lon="11.852820976612934"><ele>346.0</ele><time>2026-04-19T11:28:59.999Z</time></trkpt><trkpt lat="43.69121629957087" lon="11.852969554723217"><ele>347.0</ele><time>2026-04-19T11:29:00.999Z</time></trkpt><trkpt lat="43.691318174052476" lon="11.853118572488356"><ele>348.0</ele><time>2026-04-19T11:29:01.999Z</time></trkpt><trkpt lat="43.6914244806614" lon="11.853262360770158"><ele>348.0</ele><time>2026-04-19T11:29:02.999Z</time></trkpt><trkpt lat="43.69153929293614" lon="11.853396249182572"><ele>348.0</ele><time>2026-04-19T11:29:03.999Z</time></trkpt><trkpt lat="43.691657078586296" lon="11.853521555343985"><ele>348.0</ele><time>2026-04-19T11:29:04.999Z</time></trkpt><trkpt lat="43.691776328348226" lon="11.853644485819967"><ele>348.0</ele><time>2026-04-19T11:29:05.999Z</time></trkpt><trkpt lat="43.69189422760362" lon="11.853771040045807"><ele>348.6666666666667</ele><time>2026-04-19T11:29:06.999Z</time></trkpt><trkpt lat="43.69200675864125" lon="11.853910228373616"><ele>349.33333333333337</ele><time>2026-04-19T11:29:07.999Z</time></trkpt><trkpt lat="43.69211600338686" lon="11.854050234145523"><ele>350.0</ele><time>2026-04-19T11:29:08.999Z</time></trkpt><trkpt lat="43.692230529982325" lon="11.85418404873229"><ele>352.6666666666667</ele><time>2026-04-19T11:29:09.999Z</time></trkpt><trkpt lat="43.69235672631355" lon="11.85430213203126"><ele>355.3333333333333</ele><time>2026-04-19T11:29:10.999Z</time></trkpt><trkpt lat="43.69249068703655" lon="11.854396275378829"><ele>358.0</ele><time>2026-04-19T11:29:11.999Z</time></trkpt><trkpt lat="43.69262315393095" lon="11.854491467667406"><ele>358.0</ele><time>2026-04-19T11:29:12.999Z</time></trkpt><trkpt lat="43.69275195232755" lon="11.854584603127748"><ele>358.0</ele><time>2026-04-19T11:29:13.999Z</time></trkpt><trkpt lat="43.6928693969838" lon="11.854664476454415"><ele>358.0</ele><time>2026-04-19T11:29:14.999Z</time></trkpt><trkpt lat="43.69297070840866" lon="11.85473855821101"><ele>358.0</ele><time>2026-04-19T11:29:15.999Z</time></trkpt><trkpt lat="43.693063083784175" lon="11.854808336501746"><ele>355.75</ele><time>2026-04-19T11:29:16.999Z</time></trkpt><trkpt lat="43.693156716657114" lon="11.854851153993474"><ele>353.5</ele><time>2026-04-19T11:29:17.999Z</time></trkpt><trkpt lat="43.693266891902205" lon="11.85486329507008"><ele>351.25</ele><time>2026-04-19T11:29:18.999Z</time></trkpt><trkpt lat="43.69338504852953" lon="11.854840440404292"><ele>349.0</ele><time>2026-04-19T11:29:19.999Z</time></trkpt><trkpt lat="43.693505557198534" lon="11.854783876431126"><ele>349.0</ele><time>2026-04-19T11:29:20.999Z</time></trkpt><trkpt lat="43.69362586687538" lon="11.854704183301028"><ele>349.0</ele><time>2026-04-19T11:29:21.999Z</time></trkpt><trkpt lat="43.693749782604286" lon="11.854624508269792"><ele>349.0</ele><time>2026-04-19T11:29:22.999Z</time></trkpt><trkpt lat="43.6938630561391" lon="11.854558506125668"><ele>349.0</ele><time>2026-04-19T11:29:23.999Z</time></trkpt><trkpt lat="43.69396250910416" lon="11.854500818157389"><ele>349.0</ele><time>2026-04-19T11:29:24.999Z</time></trkpt><trkpt lat="43.6940580643411" lon="11.85446399641734"><ele>349.0</ele><time>2026-04-19T11:29:25.999Z</time></trkpt><trkpt lat="43.69415957717332" lon="11.854466501364762"><ele>349.0</ele><time>2026-04-19T11:29:26.999Z</time></trkpt><trkpt lat="43.694258307211946" lon="11.854521156998906"><ele>349.0</ele><time>2026-04-19T11:29:28.001Z</time></trkpt><trkpt lat="43.69434581406995" lon="11.854620957178671"><ele>349.0</ele><time>2026-04-19T11:29:29.001Z</time></trkpt><trkpt lat="43.6944326222082" lon="11.854739087099727"><ele>349.5</ele><time>2026-04-19T11:29:30.001Z</time></trkpt><trkpt lat="43.694532889228825" lon="11.85486574057052"><ele>350.0</ele><time>2026-04-19T11:29:31.001Z</time></trkpt><trkpt lat="43.69463818415692" lon="11.855008618773203"><ele>350.5</ele><time>2026-04-19T11:29:32.001Z</time></trkpt><trkpt lat="43.694742955906264" lon="11.855144461619972"><ele>351.0</ele><time>2026-04-19T11:29:33.001Z</time></trkpt><trkpt lat="43.69485221920034" lon="11.855280853717549"><ele>351.0</ele><time>2026-04-19T11:29:34.001Z</time></trkpt><trkpt lat="43.69496415807295" lon="11.855419554459333"><ele>351.0</ele><time>2026-04-19T11:29:35.001Z</time></trkpt><trkpt lat="43.695083302699075" lon="11.855552596483342"><ele>351.0</ele><time>2026-04-19T11:29:36.001Z</time></trkpt><trkpt lat="43.695215560277774" lon="11.855669554917215"><ele>352.0</ele><time>2026-04-19T11:29:37.001Z</time></trkpt><trkpt lat="43.695348661915766" lon="11.855781943122402"><ele>353.0</ele><time>2026-04-19T11:29:38.001Z</time></trkpt><trkpt lat="43.695484605430906" lon="11.855886941172141"><ele>354.0</ele><time>2026-04-19T11:29:39.001Z</time></trkpt><trkpt lat="43.69562451075365" lon="11.855979771199394"><ele>354.0</ele><time>2026-04-19T11:29:40.001Z</time></trkpt><trkpt lat="43.695771840122696" lon="11.856051290156763"><ele>354.0</ele><time>2026-04-19T11:29:41.001Z</time></trkpt><trkpt lat="43.69592095433769" lon="11.856113207067525"><ele>354.0</ele><time>2026-04-19T11:29:42.001Z</time></trkpt><trkpt lat="43.69606325577026" lon="11.856194550075045"><ele>355.5</ele><time>2026-04-19T11:29:43.001Z</time></trkpt><trkpt lat="43.69619659722016" lon="11.856295499468382"><ele>357.0</ele><time>2026-04-19T11:29:44.001Z</time></trkpt><trkpt lat="43.69631503433667" lon="11.856393817045696"><ele>358.5</ele><time>2026-04-19T11:29:45.001Z</time></trkpt><trkpt lat="43.69642981234794" lon="11.85648028733229"><ele>360.0</ele><time>2026-04-19T11:29:46.001Z</time></trkpt><trkpt lat="43.69654633355491" lon="11.856563144246566"><ele>360.0</ele><time>2026-04-19T11:29:47.001Z</time></trkpt><trkpt lat="43.69665048707086" lon="11.856636188526462"><ele>360.0</ele><time>2026-04-19T11:29:48Z</time></trkpt><trkpt lat="43.696735499157924" lon="11.856687564951663"><ele>360.0</ele><time>2026-04-19T11:29:49Z</time></trkpt><trkpt lat="43.69680490267637" lon="11.856715052222418"><ele>360.0</ele><time>2026-04-19T11:29:50Z</time></trkpt><trkpt lat="43.696921058622934" lon="11.856674917708382"><ele>360.0</ele><time>2026-04-19T11:29:52Z</time></trkpt><trkpt lat="43.696974103638716" lon="11.856610450647626"><ele>359.8</ele><time>2026-04-19T11:29:53Z</time></trkpt><trkpt lat="43.697031097585196" lon="11.856520014477542"><ele>359.6</ele><time>2026-04-19T11:29:54Z</time></trkpt><trkpt lat="43.697096133891684" lon="11.85641622168589"><ele>359.4</ele><time>2026-04-19T11:29:55Z</time></trkpt><trkpt lat="43.697170136049806" lon="11.856311527527426"><ele>359.2</ele><time>2026-04-19T11:29:56Z</time></trkpt><trkpt lat="43.6972515266094" lon="11.856207236695473"><ele>359.0</ele><time>2026-04-19T11:29:57Z</time></trkpt><trkpt lat="43.69733628015943" lon="11.85610196569413"><ele>359.0</ele><time>2026-04-19T11:29:58Z</time></trkpt><trkpt lat="43.69740617876899" lon="11.856011075237687"><ele>359.0</ele><time>2026-04-19T11:29:59Z</time></trkpt><trkpt lat="43.6974742335028" lon="11.855937786148141"><ele>359.0</ele><time>2026-04-19T11:30:00Z</time></trkpt><trkpt lat="43.69754258177648" lon="11.85588817195931"><ele>359.0</ele><time>2026-04-19T11:30:01Z</time></trkpt><trkpt lat="43.69762250727154" lon="11.85586934266807"><ele>359.0</ele><time>2026-04-19T11:30:02Z</time></trkpt><trkpt lat="43.697711848771704" lon="11.855885812439597"><ele>359.0</ele><time>2026-04-19T11:30:03Z</time></trkpt><trkpt lat="43.69779444475836" lon="11.855947324254853"><ele>359.4</ele><time>2026-04-19T11:30:04Z</time></trkpt><trkpt lat="43.69787482494329" lon="11.856036156150072"><ele>359.79999999999995</ele><time>2026-04-19T11:30:05Z</time></trkpt><trkpt lat="43.69795226413382" lon="11.856144491249013"><ele>360.20000000000005</ele><time>2026-04-19T11:30:06Z</time></trkpt><trkpt lat="43.69803736389206" lon="11.856252782972735"><ele>360.6</ele><time>2026-04-19T11:30:07Z</time></trkpt><trkpt lat="43.69812543578164" lon="11.856353874132544"><ele>361.0</ele><time>2026-04-19T11:30:08Z</time></trkpt><trkpt lat="43.69821593908579" lon="11.856458959267634"><ele>361.0</ele><time>2026-04-19T11:30:09Z</time></trkpt><trkpt lat="43.698302932971295" lon="11.856562288810784"><ele>361.0</ele><time>2026-04-19T11:30:10Z</time></trkpt><trkpt lat="43.69838553348134" lon="11.856653814041238"><ele>361.0</ele><time>2026-04-19T11:30:11Z</time></trkpt><trkpt lat="43.69847374221816" lon="11.856738767008443"><ele>361.0</ele><time>2026-04-19T11:30:12Z</time></trkpt><trkpt lat="43.698563965243494" lon="11.856822237996722"><ele>361.0</ele><time>2026-04-19T11:30:13Z</time></trkpt><trkpt lat="43.698639657218415" lon="11.856897500167527"><ele>361.5</ele><time>2026-04-19T11:30:14Z</time></trkpt><trkpt lat="43.698699936160466" lon="11.856965357117652"><ele>362.0</ele><time>2026-04-19T11:30:15Z</time></trkpt><trkpt lat="43.698748459218606" lon="11.857032551687379"><ele>362.5</ele><time>2026-04-19T11:30:16Z</time></trkpt><trkpt lat="43.69884094778848" lon="11.857161500369253"><ele>363.0</ele><time>2026-04-19T11:30:18Z</time></trkpt><trkpt lat="43.69889199297125" lon="11.857239521050493"><ele>363.5</ele><time>2026-04-19T11:30:19Z</time></trkpt><trkpt lat="43.69894177241133" lon="11.857322060644337"><ele>364.0</ele><time>2026-04-19T11:30:20Z</time></trkpt><trkpt lat="43.69898297528179" lon="11.857401573820367"><ele>364.0</ele><time>2026-04-19T11:30:21Z</time></trkpt><trkpt lat="43.69902024066394" lon="11.857492641696906"><ele>364.0</ele><time>2026-04-19T11:30:22Z</time></trkpt><trkpt lat="43.699058206998046" lon="11.857577275471886"><ele>364.0</ele><time>2026-04-19T11:30:23Z</time></trkpt><trkpt lat="43.69911324369507" lon="11.857643828471415"><ele>364.0</ele><time>2026-04-19T11:30:24Z</time></trkpt><trkpt lat="43.699189090071094" lon="11.857696580543292"><ele>364.0</ele><time>2026-04-19T11:30:25Z</time></trkpt><trkpt lat="43.699279398694635" lon="11.85773912420071"><ele>364.0</ele><time>2026-04-19T11:30:26Z</time></trkpt><trkpt lat="43.699375575107375" lon="11.85778758948419"><ele>363.5</ele><time>2026-04-19T11:30:27Z</time></trkpt><trkpt lat="43.69947510245004" lon="11.857843219891768"><ele>363.0</ele><time>2026-04-19T11:30:28Z</time></trkpt><trkpt lat="43.69957703905068" lon="11.857909037036748"><ele>362.5</ele><time>2026-04-19T11:30:29Z</time></trkpt><trkpt lat="43.69968383601066" lon="11.857977800590344"><ele>362.0</ele><time>2026-04-19T11:30:30Z</time></trkpt><trkpt lat="43.699793277763945" lon="11.858053818061425"><ele>362.0</ele><time>2026-04-19T11:30:31Z</time></trkpt><trkpt lat="43.6999049466205" lon="11.858133647367548"><ele>362.0</ele><time>2026-04-19T11:30:32Z</time></trkpt><trkpt lat="43.700020820589806" lon="11.858211979984162"><ele>362.0</ele><time>2026-04-19T11:30:33Z</time></trkpt><trkpt lat="43.70013513010416" lon="11.858293371201874"><ele>362.0</ele><time>2026-04-19T11:30:34Z</time></trkpt><trkpt lat="43.700249035749245" lon="11.858369949414701"><ele>362.25</ele><time>2026-04-19T11:30:35Z</time></trkpt><trkpt lat="43.70036906460618" lon="11.85843460611047"><ele>362.5</ele><time>2026-04-19T11:30:36Z</time></trkpt><trkpt lat="43.700489075697455" lon="11.858495145263358"><ele>362.75</ele><time>2026-04-19T11:30:37Z</time></trkpt><trkpt lat="43.700605881518314" lon="11.85855920792119"><ele>363.0</ele><time>2026-04-19T11:30:38Z</time></trkpt><trkpt lat="43.700715943748605" lon="11.858628131704808"><ele>363.0</ele><time>2026-04-19T11:30:39Z</time></trkpt><trkpt lat="43.70081965329705" lon="11.858698323114288"><ele>363.0</ele><time>2026-04-19T11:30:40Z</time></trkpt><trkpt lat="43.70091373832514" lon="11.858765564672005"><ele>363.0</ele><time>2026-04-19T11:30:41Z</time></trkpt><trkpt lat="43.70099529043702" lon="11.858829306268248"><ele>363.0</ele><time>2026-04-19T11:30:42Z</time></trkpt><trkpt lat="43.70106221298469" lon="11.858882611422457"><ele>363.0</ele><time>2026-04-19T11:30:43Z</time></trkpt><trkpt lat="43.70112150961516" lon="11.858917058505375"><ele>363.3333333333333</ele><time>2026-04-19T11:30:44Z</time></trkpt><trkpt lat="43.70118805307619" lon="11.858926296883745"><ele>363.6666666666667</ele><time>2026-04-19T11:30:45Z</time></trkpt><trkpt lat="43.701249171685475" lon="11.858901503868847"><ele>364.0</ele><time>2026-04-19T11:30:46Z</time></trkpt><trkpt lat="43.70130498900133" lon="11.858845956765586"><ele>364.33333333333337</ele><time>2026-04-19T11:30:47Z</time></trkpt><trkpt lat="43.701356304061584" lon="11.858760148320513"><ele>364.6666666666667</ele><time>2026-04-19T11:30:47.999Z</time></trkpt><trkpt lat="43.701405618588815" lon="11.858657572258398"><ele>365.0</ele><time>2026-04-19T11:30:48.999Z</time></trkpt><trkpt lat="43.70145603580083" lon="11.858544620185995"><ele>367.33333333333337</ele><time>2026-04-19T11:30:49.999Z</time></trkpt><trkpt lat="43.70150522127192" lon="11.858438095517831"><ele>369.6666666666667</ele><time>2026-04-19T11:30:50.999Z</time></trkpt><trkpt lat="43.70156003859684" lon="11.858344535706296"><ele>372.0</ele><time>2026-04-19T11:30:51.999Z</time></trkpt><trkpt lat="43.70162639660775" lon="11.858282420602885"><ele>374.3333333333333</ele><time>2026-04-19T11:30:52.999Z</time></trkpt><trkpt lat="43.701703187496754" lon="11.858245688213406"><ele>376.66666666666663</ele><time>2026-04-19T11:30:53.999Z</time></trkpt><trkpt lat="43.70178778407918" lon="11.858240173045596"><ele>379.0</ele><time>2026-04-19T11:30:54.999Z</time></trkpt><trkpt lat="43.70188198313308" lon="11.858271709031186"><ele>380.4</ele><time>2026-04-19T11:30:55.999Z</time></trkpt><trkpt lat="43.701987047705714" lon="11.858318939703254"><ele>381.79999999999995</ele><time>2026-04-19T11:30:56.999Z</time></trkpt><trkpt lat="43.7020932602688" lon="11.858369676808653"><ele>383.20000000000005</ele><time>2026-04-19T11:30:57.999Z</time></trkpt><trkpt lat="43.702202523750294" lon="11.858417368203227"><ele>384.6</ele><time>2026-04-19T11:30:58.999Z</time></trkpt><trkpt lat="43.70230792316415" lon="11.85846288500047"><ele>386.0</ele><time>2026-04-19T11:30:59.999Z</time></trkpt><trkpt lat="43.702395143381764" lon="11.85850230195282"><ele>386.20000000000005</ele><time>2026-04-19T11:31:00.999Z</time></trkpt><trkpt lat="43.702479591550684" lon="11.85851331678329"><ele>386.40000000000003</ele><time>2026-04-19T11:31:01.999Z</time></trkpt><trkpt lat="43.702586124890956" lon="11.858499637017912"><ele>386.6</ele><time>2026-04-19T11:31:02.999Z</time></trkpt><trkpt lat="43.702680996374916" lon="11.858500543973477"><ele>386.8</ele><time>2026-04-19T11:31:03.999Z</time></trkpt><trkpt lat="43.70276503870007" lon="11.85854413125173"><ele>387.0</ele><time>2026-04-19T11:31:04.999Z</time></trkpt><trkpt lat="43.70284198589931" lon="11.858628970278136"><ele>387.0</ele><time>2026-04-19T11:31:05.999Z</time></trkpt><trkpt lat="43.70289771056596" lon="11.858729211390022"><ele>387.0</ele><time>2026-04-19T11:31:06.999Z</time></trkpt><trkpt lat="43.702929254640786" lon="11.858809287890745"><ele>387.0</ele><time>2026-04-19T11:31:07.999Z</time></trkpt><trkpt lat="43.70296097221209" lon="11.858886946930873"><ele>387.0</ele><time>2026-04-19T11:31:08.999Z</time></trkpt><trkpt lat="43.70299183548707" lon="11.858963183825152"><ele>387.0</ele><time>2026-04-19T11:31:09.999Z</time></trkpt><trkpt lat="43.703069825289006" lon="11.85910929805671"><ele>387.0</ele><time>2026-04-19T11:31:11.999Z</time></trkpt><trkpt lat="43.70312179836134" lon="11.859173248119523"><ele>387.0</ele><time>2026-04-19T11:31:12.999Z</time></trkpt><trkpt lat="43.70318118204049" lon="11.85923320907318"><ele>387.0</ele><time>2026-04-19T11:31:13.999Z</time></trkpt><trkpt lat="43.70324585005826" lon="11.85929300188784"><ele>387.0</ele><time>2026-04-19T11:31:14.999Z</time></trkpt><trkpt lat="43.703312593733926" lon="11.859352362337676"><ele>387.0</ele><time>2026-04-19T11:31:15.999Z</time></trkpt><trkpt lat="43.703379675961365" lon="11.859416278440536"><ele>387.0</ele><time>2026-04-19T11:31:16.999Z</time></trkpt><trkpt lat="43.7034450786086" lon="11.859487506234043"><ele>387.0</ele><time>2026-04-19T11:31:17.999Z</time></trkpt><trkpt lat="43.70351145568624" lon="11.85955644199266"><ele>386.0</ele><time>2026-04-19T11:31:18.999Z</time></trkpt><trkpt lat="43.70357947215028" lon="11.859623901224172"><ele>385.0</ele><time>2026-04-19T11:31:19.999Z</time></trkpt><trkpt lat="43.7036499087656" lon="11.85968522592299"><ele>384.0</ele><time>2026-04-19T11:31:20.999Z</time></trkpt><trkpt lat="43.70372011336496" lon="11.859742641368573"><ele>383.0</ele><time>2026-04-19T11:31:21.999Z</time></trkpt><trkpt lat="43.70379021457535" lon="11.859794523819252"><ele>382.0</ele><time>2026-04-19T11:31:22.999Z</time></trkpt><trkpt lat="43.703857988874894" lon="11.859841351977893"><ele>381.0</ele><time>2026-04-19T11:31:23.999Z</time></trkpt><trkpt lat="43.70392667962089" lon="11.859881547603166"><ele>381.0</ele><time>2026-04-19T11:31:24.999Z</time></trkpt><trkpt lat="43.70399295381935" lon="11.859922923347291"><ele>381.0</ele><time>2026-04-19T11:31:25.999Z</time></trkpt><trkpt lat="43.70405679628417" lon="11.859961467179007"><ele>381.0</ele><time>2026-04-19T11:31:26.999Z</time></trkpt><trkpt lat="43.70411644272182" lon="11.860000880325508"><ele>381.0</ele><time>2026-04-19T11:31:27.999Z</time></trkpt><trkpt lat="43.704175824477566" lon="11.860036948033763"><ele>381.0</ele><time>2026-04-19T11:31:28.999Z</time></trkpt><trkpt lat="43.704236562655424" lon="11.860069087440182"><ele>381.0</ele><time>2026-04-19T11:31:29.999Z</time></trkpt><trkpt lat="43.70429848815869" lon="11.860096641835222"><ele>381.0</ele><time>2026-04-19T11:31:30.999Z</time></trkpt><trkpt lat="43.70436134268438" lon="11.860124022234086"><ele>380.8333333333333</ele><time>2026-04-19T11:31:31.999Z</time></trkpt><trkpt lat="43.70442560309119" lon="11.860153700001792"><ele>380.6666666666667</ele><time>2026-04-19T11:31:32.999Z</time></trkpt><trkpt lat="43.70448284096051" lon="11.860191382460238"><ele>380.5</ele><time>2026-04-19T11:31:34.001Z</time></trkpt><trkpt lat="43.70457584615236" lon="11.86031015154836"><ele>380.33333333333337</ele><time>2026-04-19T11:31:36.001Z</time></trkpt><trkpt lat="43.70462524694222" lon="11.860370247611629"><ele>380.1666666666667</ele><time>2026-04-19T11:31:37.001Z</time></trkpt><trkpt lat="43.70468232020276" lon="11.860419980037056"><ele>380.0</ele><time>2026-04-19T11:31:38.001Z</time></trkpt><trkpt lat="43.70474281886534" lon="11.860463669199127"><ele>380.0</ele><time>2026-04-19T11:31:39.001Z</time></trkpt><trkpt lat="43.704806564836055" lon="11.860503864228084"><ele>380.0</ele><time>2026-04-19T11:31:40.001Z</time></trkpt><trkpt lat="43.70487234702688" lon="11.860538000813307"><ele>380.0</ele><time>2026-04-19T11:31:41.001Z</time></trkpt><trkpt lat="43.70493854059426" lon="11.860572529920846"><ele>380.0</ele><time>2026-04-19T11:31:42.001Z</time></trkpt><trkpt lat="43.70500249778531" lon="11.86060924816556"><ele>380.0</ele><time>2026-04-19T11:31:43.001Z</time></trkpt><trkpt lat="43.70506532396374" lon="11.860651537558647"><ele>380.0</ele><time>2026-04-19T11:31:44.001Z</time></trkpt><trkpt lat="43.7051297572096" lon="11.86068372741474"><ele>380.0</ele><time>2026-04-19T11:31:45.001Z</time></trkpt><trkpt lat="43.705190275461206" lon="11.860717699240155"><ele>378.83333333333337</ele><time>2026-04-19T11:31:46.001Z</time></trkpt><trkpt lat="43.70525146244319" lon="11.860746279001749"><ele>377.6666666666667</ele><time>2026-04-19T11:31:47.001Z</time></trkpt><trkpt lat="43.70536597179259" lon="11.860800380593485"><ele>376.5</ele><time>2026-04-19T11:31:49.001Z</time></trkpt><trkpt lat="43.705463710459576" lon="11.860902271392545"><ele>375.3333333333333</ele><time>2026-04-19T11:31:51.001Z</time></trkpt><trkpt lat="43.705511724775015" lon="11.860960616575085"><ele>374.16666666666663</ele><time>2026-04-19T11:31:52.001Z</time></trkpt><trkpt lat="43.7055639494857" lon="11.86102197865742"><ele>373.0</ele><time>2026-04-19T11:31:53.001Z</time></trkpt><trkpt lat="43.70561883031791" lon="11.861077256656092"><ele>373.0</ele><time>2026-04-19T11:31:54.001Z</time></trkpt><trkpt lat="43.70568695156378" lon="11.861119337406034"><ele>373.0</ele><time>2026-04-19T11:31:55.001Z</time></trkpt><trkpt lat="43.70575855182073" lon="11.861151705486604"><ele>373.0</ele><time>2026-04-19T11:31:56.001Z</time></trkpt><trkpt lat="43.705826412518576" lon="11.861185007700781"><ele>373.0</ele><time>2026-04-19T11:31:57.001Z</time></trkpt><trkpt lat="43.70589192345345" lon="11.861215349350235"><ele>373.0</ele><time>2026-04-19T11:31:58.001Z</time></trkpt><trkpt lat="43.7059589187648" lon="11.86124655276398"><ele>373.0</ele><time>2026-04-19T11:31:59Z</time></trkpt><trkpt lat="43.70602245653218" lon="11.861284020174226"><ele>373.0</ele><time>2026-04-19T11:32:00Z</time></trkpt><trkpt lat="43.706085393817006" lon="11.861328277092024"><ele>374.2857142857143</ele><time>2026-04-19T11:32:00.999Z</time></trkpt><trkpt lat="43.70614419712395" lon="11.86137876481541"><ele>375.57142857142856</ele><time>2026-04-19T11:32:01.999Z</time></trkpt><trkpt lat="43.706201717999804" lon="11.861431390628098"><ele>376.8571428571429</ele><time>2026-04-19T11:32:02.999Z</time></trkpt><trkpt lat="43.70625697394001" lon="11.861482994625854"><ele>378.1428571428571</ele><time>2026-04-19T11:32:03.999Z</time></trkpt><trkpt lat="43.70631515766141" lon="11.861526437834723"><ele>379.4285714285714</ele><time>2026-04-19T11:32:04.999Z</time></trkpt><trkpt lat="43.70637491207905" lon="11.861557826512252"><ele>380.7142857142857</ele><time>2026-04-19T11:32:05.999Z</time></trkpt><trkpt lat="43.706439339753246" lon="11.861577977212615"><ele>382.0</ele><time>2026-04-19T11:32:06.999Z</time></trkpt><trkpt lat="43.706503898554466" lon="11.861588616941797"><ele>382.0</ele><time>2026-04-19T11:32:07.999Z</time></trkpt><trkpt lat="43.706568936715925" lon="11.861590178228596"><ele>382.0</ele><time>2026-04-19T11:32:08.999Z</time></trkpt><trkpt lat="43.70663323312037" lon="11.86158939542885"><ele>382.0</ele><time>2026-04-19T11:32:09.999Z</time></trkpt><trkpt lat="43.706700322458126" lon="11.86159322836401"><ele>382.0</ele><time>2026-04-19T11:32:10.999Z</time></trkpt><trkpt lat="43.70676569311515" lon="11.861603517821917"><ele>382.0</ele><time>2026-04-19T11:32:11.999Z</time></trkpt><trkpt lat="43.706833619376724" lon="11.861628983313791"><ele>382.0</ele><time>2026-04-19T11:32:12.999Z</time></trkpt><trkpt lat="43.70690485096716" lon="11.861649388109383"><ele>382.0</ele><time>2026-04-19T11:32:13.999Z</time></trkpt><trkpt lat="43.70697908068628" lon="11.861674571960348"><ele>381.3333333333333</ele><time>2026-04-19T11:32:14.999Z</time></trkpt><trkpt lat="43.707056764343854" lon="11.861697819479378"><ele>380.66666666666663</ele><time>2026-04-19T11:32:15.999Z</time></trkpt><trkpt lat="43.70713199333843" lon="11.861719950017267"><ele>380.0</ele><time>2026-04-19T11:32:16.999Z</time></trkpt><trkpt lat="43.70720783059893" lon="11.861742658833302"><ele>379.3333333333333</ele><time>2026-04-19T11:32:17.999Z</time></trkpt><trkpt lat="43.7072802582163" lon="11.861763414476933"><ele>378.6666666666667</ele><time>2026-04-19T11:32:18.999Z</time></trkpt><trkpt lat="43.70735106674665" lon="11.861781949916553"><ele>378.0</ele><time>2026-04-19T11:32:19.999Z</time></trkpt><trkpt lat="43.70742000590705" lon="11.861801488522271"><ele>378.0</ele><time>2026-04-19T11:32:20.999Z</time></trkpt><trkpt lat="43.70748368260493" lon="11.861830831128751"><ele>378.0</ele><time>2026-04-19T11:32:21.999Z</time></trkpt><trkpt lat="43.70754145981399" lon="11.861873468607053"><ele>378.0</ele><time>2026-04-19T11:32:22.999Z</time></trkpt><trkpt lat="43.70759734696689" lon="11.861929999542005"><ele>378.0</ele><time>2026-04-19T11:32:23.999Z</time></trkpt><trkpt lat="43.707655902526334" lon="11.86198264698551"><ele>378.0</ele><time>2026-04-19T11:32:24.999Z</time></trkpt><trkpt lat="43.70771737433953" lon="11.862031568988035"><ele>378.0</ele><time>2026-04-19T11:32:25.999Z</time></trkpt><trkpt lat="43.70778109506668" lon="11.862074839753436"><ele>378.0</ele><time>2026-04-19T11:32:26.999Z</time></trkpt><trkpt lat="43.70784599098671" lon="11.862107105055527"><ele>378.57142857142856</ele><time>2026-04-19T11:32:27.999Z</time></trkpt><trkpt lat="43.70791460266652" lon="11.862132444354982"><ele>379.1428571428571</ele><time>2026-04-19T11:32:28.999Z</time></trkpt><trkpt lat="43.70798302167348" lon="11.862149892774715"><ele>379.7142857142857</ele><time>2026-04-19T11:32:29.999Z</time></trkpt><trkpt lat="43.70804892195804" lon="11.862163331384005"><ele>380.2857142857143</ele><time>2026-04-19T11:32:30.999Z</time></trkpt><trkpt lat="43.70811583238468" lon="11.86217600539346"><ele>380.85714285714283</ele><time>2026-04-19T11:32:31.999Z</time></trkpt><trkpt lat="43.70818137967565" lon="11.862190201977091"><ele>381.42857142857144</ele><time>2026-04-19T11:32:32.999Z</time></trkpt><trkpt lat="43.70824451815426" lon="11.862206796607092"><ele>382.0</ele><time>2026-04-19T11:32:33.999Z</time></trkpt><trkpt lat="43.70836010936504" lon="11.862244870115852"><ele>382.0</ele><time>2026-04-19T11:32:35.999Z</time></trkpt><trkpt lat="43.70847312137606" lon="11.862275317070392"><ele>382.0</ele><time>2026-04-19T11:32:37.999Z</time></trkpt><trkpt lat="43.708586634602675" lon="11.862293735806533"><ele>382.0</ele><time>2026-04-19T11:32:39.999Z</time></trkpt><trkpt lat="43.708698871819884" lon="11.862275751346276"><ele>382.0</ele><time>2026-04-19T11:32:41.999Z</time></trkpt><trkpt lat="43.70880305253618" lon="11.862214093475375"><ele>382.25</ele><time>2026-04-19T11:32:43.999Z</time></trkpt><trkpt lat="43.70890843908875" lon="11.86217090976882"><ele>382.5</ele><time>2026-04-19T11:32:45.999Z</time></trkpt><trkpt lat="43.70902353074862" lon="11.862210977412017"><ele>382.75</ele><time>2026-04-19T11:32:47.999Z</time></trkpt><trkpt lat="43.70912830375201" lon="11.862258753151165"><ele>383.0</ele><time>2026-04-19T11:32:49.999Z</time></trkpt><trkpt lat="43.7092401594198" lon="11.86230053473477"><ele>383.0</ele><time>2026-04-19T11:32:51.999Z</time></trkpt><trkpt lat="43.70934917331455" lon="11.862337495327486"><ele>383.0</ele><time>2026-04-19T11:32:53.999Z</time></trkpt><trkpt lat="43.70943726809448" lon="11.862386796979143"><ele>383.0</ele><time>2026-04-19T11:32:55.999Z</time></trkpt><trkpt lat="43.70954006346535" lon="11.862423092576396"><ele>383.0</ele><time>2026-04-19T11:32:57.998Z</time></trkpt><trkpt lat="43.709651653291665" lon="11.862451498815192"><ele>383.0</ele><time>2026-04-19T11:32:59.998Z</time></trkpt><trkpt lat="43.70971673896413" lon="11.862466462971536"><ele>384.0</ele><time>2026-04-19T11:33:00.998Z</time></trkpt><trkpt lat="43.70978273267971" lon="11.86247526397683"><ele>385.0</ele><time>2026-04-19T11:33:01.998Z</time></trkpt><trkpt lat="43.70989657259799" lon="11.862485146482353"><ele>386.0</ele><time>2026-04-19T11:33:03.998Z</time></trkpt><trkpt lat="43.710002631436694" lon="11.862483125677198"><ele>387.0</ele><time>2026-04-19T11:33:05.998Z</time></trkpt><trkpt lat="43.71011833711999" lon="11.86247576106275"><ele>388.0</ele><time>2026-04-19T11:33:07.998Z</time></trkpt><trkpt lat="43.710245436835976" lon="11.862500009299373"><ele>388.57142857142856</ele><time>2026-04-19T11:33:09.998Z</time></trkpt><trkpt lat="43.710311976895284" lon="11.862527638917129"><ele>389.14285714285717</ele><time>2026-04-19T11:33:10.998Z</time></trkpt><trkpt lat="43.710377355434744" lon="11.862549541117922"><ele>389.7142857142857</ele><time>2026-04-19T11:33:11.998Z</time></trkpt><trkpt lat="43.71044334230648" lon="11.862564783188263"><ele>390.2857142857143</ele><time>2026-04-19T11:33:12.998Z</time></trkpt><trkpt lat="43.71051151634345" lon="11.862572335630444"><ele>390.8571428571429</ele><time>2026-04-19T11:33:13.998Z</time></trkpt><trkpt lat="43.710579170068506" lon="11.862577188860795"><ele>391.42857142857144</ele><time>2026-04-19T11:33:14.998Z</time></trkpt><trkpt lat="43.71064371626902" lon="11.862584653227305"><ele>392.0</ele><time>2026-04-19T11:33:15.998Z</time></trkpt><trkpt lat="43.71075679781045" lon="11.862612428412193"><ele>391.5</ele><time>2026-04-19T11:33:17.998Z</time></trkpt><trkpt lat="43.710869661131376" lon="11.8626397400272"><ele>391.0</ele><time>2026-04-19T11:33:19.998Z</time></trkpt><trkpt lat="43.71098609306911" lon="11.86265083715039"><ele>390.5</ele><time>2026-04-19T11:33:21.998Z</time></trkpt><trkpt lat="43.711107547027055" lon="11.862665434990959"><ele>390.0</ele><time>2026-04-19T11:33:23.998Z</time></trkpt><trkpt lat="43.711220423422084" lon="11.862677642880472"><ele>390.0</ele><time>2026-04-19T11:33:25.998Z</time></trkpt><trkpt lat="43.71132523413333" lon="11.862702582949558"><ele>390.0</ele><time>2026-04-19T11:33:27.998Z</time></trkpt><trkpt lat="43.711433724522884" lon="11.862761030823014"><ele>390.0</ele><time>2026-04-19T11:33:29.998Z</time></trkpt><trkpt lat="43.711536269495454" lon="11.862844752067561"><ele>390.0</ele><time>2026-04-19T11:33:31.998Z</time></trkpt><trkpt lat="43.711640099190966" lon="11.862925351862188"><ele>390.0</ele><time>2026-04-19T11:33:33.998Z</time></trkpt><trkpt lat="43.711757452122384" lon="11.862984762627471"><ele>390.0</ele><time>2026-04-19T11:33:35.998Z</time></trkpt><trkpt lat="43.71187233227077" lon="11.863040441789936"><ele>390.0</ele><time>2026-04-19T11:33:37.998Z</time></trkpt><trkpt lat="43.71197892840372" lon="11.863099323774424"><ele>390.0</ele><time>2026-04-19T11:33:40Z</time></trkpt><trkpt lat="43.712081113657284" lon="11.863165061451582"><ele>391.3333333333333</ele><time>2026-04-19T11:33:42Z</time></trkpt><trkpt lat="43.71217918954649" lon="11.863269629950501"><ele>392.66666666666663</ele><time>2026-04-19T11:33:44Z</time></trkpt><trkpt lat="43.71225100052737" lon="11.863409073638937"><ele>394.0</ele><time>2026-04-19T11:33:46Z</time></trkpt><trkpt lat="43.71228848297382" lon="11.863480547701837"><ele>395.3333333333333</ele><time>2026-04-19T11:33:47Z</time></trkpt><trkpt lat="43.71232811976899" lon="11.863556004174171"><ele>396.66666666666663</ele><time>2026-04-19T11:33:48Z</time></trkpt><trkpt lat="43.712362910960316" lon="11.863630599742068"><ele>398.0</ele><time>2026-04-19T11:33:49Z</time></trkpt><trkpt lat="43.712395992734756" lon="11.863715651160023"><ele>397.99999999999994</ele><time>2026-04-19T11:33:50Z</time></trkpt><trkpt lat="43.71242732493886" lon="11.863794129954353"><ele>398.0</ele><time>2026-04-19T11:33:51Z</time></trkpt><trkpt lat="43.71246029045195" lon="11.863877144352623"><ele>398.0</ele><time>2026-04-19T11:33:52Z</time></trkpt><trkpt lat="43.712495231875245" lon="11.863954051068477"><ele>398.0</ele><time>2026-04-19T11:33:53Z</time></trkpt><trkpt lat="43.71253242334608" lon="11.864029601011351"><ele>398.0</ele><time>2026-04-19T11:33:54Z</time></trkpt><trkpt lat="43.71257235458071" lon="11.864109141002661"><ele>397.99999999999994</ele><time>2026-04-19T11:33:55Z</time></trkpt><trkpt lat="43.71261508469678" lon="11.864189015490965"><ele>398.0</ele><time>2026-04-19T11:33:56Z</time></trkpt><trkpt lat="43.71265895516192" lon="11.86426948088408"><ele>398.59999999999997</ele><time>2026-04-19T11:33:57Z</time></trkpt><trkpt lat="43.71270044939816" lon="11.86434879671258"><ele>399.2</ele><time>2026-04-19T11:33:58Z</time></trkpt><trkpt lat="43.71277598867794" lon="11.864481047797142"><ele>399.8</ele><time>2026-04-19T11:34:00Z</time></trkpt><trkpt lat="43.712869813489526" lon="11.86459042109631"><ele>400.4</ele><time>2026-04-19T11:34:02Z</time></trkpt><trkpt lat="43.71298049646963" lon="11.86466787223051"><ele>401.0</ele><time>2026-04-19T11:34:04Z</time></trkpt><trkpt lat="43.713085648586016" lon="11.864739768208954"><ele>400.99999999999994</ele><time>2026-04-19T11:34:06Z</time></trkpt><trkpt lat="43.71315713502673" lon="11.864854748477565"><ele>401.0</ele><time>2026-04-19T11:34:08Z</time></trkpt><trkpt lat="43.7132028088327" lon="11.865000493911976"><ele>401.0</ele><time>2026-04-19T11:34:10Z</time></trkpt><trkpt lat="43.71323202380071" lon="11.865079250469632"><ele>401.0</ele><time>2026-04-19T11:34:10.999Z</time></trkpt><trkpt lat="43.71326608210886" lon="11.865154025387527"><ele>400.99999999999994</ele><time>2026-04-19T11:34:11.999Z</time></trkpt><trkpt lat="43.71330804127686" lon="11.86522423290788"><ele>401.0</ele><time>2026-04-19T11:34:12.999Z</time></trkpt><trkpt lat="43.713406775915935" lon="11.86533613912461"><ele>399.8571428571429</ele><time>2026-04-19T11:34:14.999Z</time></trkpt><trkpt lat="43.71346635852286" lon="11.865389490511095"><ele>398.7142857142857</ele><time>2026-04-19T11:34:15.999Z</time></trkpt><trkpt lat="43.71351908689045" lon="11.865440651464002"><ele>397.57142857142856</ele><time>2026-04-19T11:34:16.999Z</time></trkpt><trkpt lat="43.713576005514334" lon="11.86549285784967"><ele>396.42857142857144</ele><time>2026-04-19T11:34:17.999Z</time></trkpt><trkpt lat="43.71362986554443" lon="11.865545346928222"><ele>395.2857142857143</ele><time>2026-04-19T11:34:18.999Z</time></trkpt><trkpt lat="43.71368625286648" lon="11.86560058823975"><ele>394.14285714285717</ele><time>2026-04-19T11:34:19.999Z</time></trkpt><trkpt lat="43.713740666049624" lon="11.865665271906202"><ele>393.0</ele><time>2026-04-19T11:34:20.999Z</time></trkpt><trkpt lat="43.713795633801624" lon="11.86573436322911"><ele>393.7142857142857</ele><time>2026-04-19T11:34:21.999Z</time></trkpt><trkpt lat="43.713841632253036" lon="11.865812009020235"><ele>394.42857142857144</ele><time>2026-04-19T11:34:22.999Z</time></trkpt><trkpt lat="43.71388205262641" lon="11.86589236958286"><ele>395.1428571428571</ele><time>2026-04-19T11:34:23.999Z</time></trkpt><trkpt lat="43.71392070606396" lon="11.865972513218441"><ele>395.8571428571429</ele><time>2026-04-19T11:34:24.999Z</time></trkpt><trkpt lat="43.713958957570085" lon="11.866048452189062"><ele>396.57142857142856</ele><time>2026-04-19T11:34:25.999Z</time></trkpt><trkpt lat="43.714003588664" lon="11.866118464603488"><ele>397.2857142857143</ele><time>2026-04-19T11:34:26.999Z</time></trkpt><trkpt lat="43.714051876612174" lon="11.866190096447335"><ele>398.0</ele><time>2026-04-19T11:34:27.999Z</time></trkpt><trkpt lat="43.7141064510961" lon="11.86626072055442"><ele>397.99999999999994</ele><time>2026-04-19T11:34:28.999Z</time></trkpt><trkpt lat="43.71415739915908" lon="11.866339698667598"><ele>398.0</ele><time>2026-04-19T11:34:29.999Z</time></trkpt><trkpt lat="43.71420439288819" lon="11.866420516232708"><ele>398.0</ele><time>2026-04-19T11:34:30.999Z</time></trkpt><trkpt lat="43.71424228593127" lon="11.866508444662855"><ele>398.0</ele><time>2026-04-19T11:34:31.999Z</time></trkpt><trkpt lat="43.71427582640628" lon="11.866592725352538"><ele>398.0</ele><time>2026-04-19T11:34:32.999Z</time></trkpt><trkpt lat="43.714310008363434" lon="11.866668018266035"><ele>397.99999999999994</ele><time>2026-04-19T11:34:33.999Z</time></trkpt><trkpt lat="43.71434701512324" lon="11.866741840229057"><ele>398.0</ele><time>2026-04-19T11:34:34.999Z</time></trkpt><trkpt lat="43.71438865027672" lon="11.86681235734041"><ele>398.99999999999994</ele><time>2026-04-19T11:34:35.999Z</time></trkpt><trkpt lat="43.71443153876012" lon="11.866886363453931"><ele>400.0</ele><time>2026-04-19T11:34:36.999Z</time></trkpt><trkpt lat="43.714474125639896" lon="11.866963900776945"><ele>401.0</ele><time>2026-04-19T11:34:37.999Z</time></trkpt><trkpt lat="43.71451499633829" lon="11.867041638543624"><ele>402.0</ele><time>2026-04-19T11:34:38.999Z</time></trkpt><trkpt lat="43.71455540553087" lon="11.867123212033308"><ele>403.0</ele><time>2026-04-19T11:34:39.999Z</time></trkpt><trkpt lat="43.714594779249495" lon="11.867203170730646"><ele>403.99999999999994</ele><time>2026-04-19T11:34:40.999Z</time></trkpt><trkpt lat="43.71463392866976" lon="11.867279119831478"><ele>405.0</ele><time>2026-04-19T11:34:41.999Z</time></trkpt><trkpt lat="43.71467246197264" lon="11.86735007022275"><ele>404.99999999999994</ele><time>2026-04-19T11:34:42.999Z</time></trkpt><trkpt lat="43.71470983696818" lon="11.867421366034705"><ele>405.0</ele><time>2026-04-19T11:34:43.999Z</time></trkpt><trkpt lat="43.71474586587074" lon="11.867497357667228"><ele>405.0</ele><time>2026-04-19T11:34:44.999Z</time></trkpt><trkpt lat="43.71478247676079" lon="11.867573865775194"><ele>405.0</ele><time>2026-04-19T11:34:45.999Z</time></trkpt><trkpt lat="43.714823063188945" lon="11.867646105086509"><ele>405.0</ele><time>2026-04-19T11:34:46.999Z</time></trkpt><trkpt lat="43.714870767855906" lon="11.867715620296957"><ele>404.99999999999994</ele><time>2026-04-19T11:34:47.999Z</time></trkpt><trkpt lat="43.71492202536603" lon="11.867783326998913"><ele>405.0</ele><time>2026-04-19T11:34:48.999Z</time></trkpt><trkpt lat="43.7149737883578" lon="11.867850044744108"><ele>404.0</ele><time>2026-04-19T11:34:49.999Z</time></trkpt><trkpt lat="43.715026714260844" lon="11.867918883273338"><ele>403.0</ele><time>2026-04-19T11:34:50.999Z</time></trkpt><trkpt lat="43.71507755278274" lon="11.867989690573484"><ele>402.0</ele><time>2026-04-19T11:34:51.999Z</time></trkpt><trkpt lat="43.71516408233449" lon="11.868103626853282"><ele>401.0</ele><time>2026-04-19T11:34:53.999Z</time></trkpt><trkpt lat="43.71525909633935" lon="11.868189455395362"><ele>400.0</ele><time>2026-04-19T11:34:55.999Z</time></trkpt><trkpt lat="43.715355413872125" lon="11.868289390474297"><ele>401.42857142857144</ele><time>2026-04-19T11:34:57.999Z</time></trkpt><trkpt lat="43.71540016056876" lon="11.868352156118185"><ele>402.8571428571429</ele><time>2026-04-19T11:34:58.999Z</time></trkpt><trkpt lat="43.7154826214674" lon="11.868474606306068"><ele>404.28571428571433</ele><time>2026-04-19T11:35:00.999Z</time></trkpt><trkpt lat="43.7155271096866" lon="11.868539164148677"><ele>405.7142857142857</ele><time>2026-04-19T11:35:01.999Z</time></trkpt><trkpt lat="43.7155737111859" lon="11.868605337023508"><ele>407.1428571428571</ele><time>2026-04-19T11:35:02.999Z</time></trkpt><trkpt lat="43.71561602621567" lon="11.868675559166544"><ele>408.5714285714286</ele><time>2026-04-19T11:35:03.999Z</time></trkpt><trkpt lat="43.71565816734886" lon="11.86874758013801"><ele>410.0</ele><time>2026-04-19T11:35:04.999Z</time></trkpt><trkpt lat="43.71570022025254" lon="11.868817879670692"><ele>410.0</ele><time>2026-04-19T11:35:05.999Z</time></trkpt><trkpt lat="43.71574050714886" lon="11.868888396032439"><ele>410.0</ele><time>2026-04-19T11:35:06.999Z</time></trkpt><trkpt lat="43.71577886888757" lon="11.868959441303408"><ele>410.0</ele><time>2026-04-19T11:35:07.998Z</time></trkpt><trkpt lat="43.71583229890471" lon="11.869115196583339"><ele>410.0</ele><time>2026-04-19T11:35:09.998Z</time></trkpt><trkpt lat="43.71584578925062" lon="11.869280151839746"><ele>410.0</ele><time>2026-04-19T11:35:11.998Z</time></trkpt><trkpt lat="43.71585574799165" lon="11.869444650458313"><ele>408.4</ele><time>2026-04-19T11:35:13.998Z</time></trkpt><trkpt lat="43.71587277401913" lon="11.869610638029076"><ele>406.8</ele><time>2026-04-19T11:35:15.998Z</time></trkpt><trkpt lat="43.71589461445148" lon="11.869772752169343"><ele>405.20000000000005</ele><time>2026-04-19T11:35:17.998Z</time></trkpt><trkpt lat="43.71594483172501" lon="11.869923397501516"><ele>403.6</ele><time>2026-04-19T11:35:19.998Z</time></trkpt><trkpt lat="43.71597874960901" lon="11.869997103852551"><ele>402.0</ele><time>2026-04-19T11:35:20.998Z</time></trkpt><trkpt lat="43.716019591947244" lon="11.870070590784858"><ele>401.4285714285714</ele><time>2026-04-19T11:35:21.998Z</time></trkpt><trkpt lat="43.716065700672516" lon="11.870148460354125"><ele>400.8571428571429</ele><time>2026-04-19T11:35:22.998Z</time></trkpt><trkpt lat="43.716111548783566" lon="11.870228023463852"><ele>400.2857142857143</ele><time>2026-04-19T11:35:23.998Z</time></trkpt><trkpt lat="43.716155654579474" lon="11.870312467558303"><ele>399.71428571428567</ele><time>2026-04-19T11:35:24.998Z</time></trkpt><trkpt lat="43.71619598273612" lon="11.87039591092964"><ele>399.1428571428571</ele><time>2026-04-19T11:35:25.998Z</time></trkpt><trkpt lat="43.71623500606263" lon="11.870474207580255"><ele>398.57142857142856</ele><time>2026-04-19T11:35:26.998Z</time></trkpt><trkpt lat="43.71627391210269" lon="11.870549288013052"><ele>398.0</ele><time>2026-04-19T11:35:27.998Z</time></trkpt><trkpt lat="43.71635724859759" lon="11.870678631974512"><ele>399.79999999999995</ele><time>2026-04-19T11:35:29.998Z</time></trkpt><trkpt lat="43.716399430583856" lon="11.870744580339819"><ele>401.6</ele><time>2026-04-19T11:35:30.998Z</time></trkpt><trkpt lat="43.71647607886183" lon="11.870873564128551"><ele>403.4</ele><time>2026-04-19T11:35:32.998Z</time></trkpt><trkpt lat="43.71654020903966" lon="11.871000876878929"><ele>405.20000000000005</ele><time>2026-04-19T11:35:34.998Z</time></trkpt><trkpt lat="43.71660544897959" lon="11.871128976264972"><ele>407.0</ele><time>2026-04-19T11:35:36.998Z</time></trkpt><trkpt lat="43.71661843413897" lon="11.871215534288062"><ele>407.0</ele><time>2026-04-19T11:35:37.998Z</time></trkpt><trkpt lat="43.716626873392784" lon="11.871382507652239"><ele>407.0</ele><time>2026-04-19T11:35:39.998Z</time></trkpt><trkpt lat="43.716643993777794" lon="11.871537349420217"><ele>407.0</ele><time>2026-04-19T11:35:41.998Z</time></trkpt><trkpt lat="43.716678424182156" lon="11.871689933446282"><ele>407.0</ele><time>2026-04-19T11:35:43.998Z</time></trkpt><trkpt lat="43.71671160541075" lon="11.871808206502179"><ele>407.0</ele><time>2026-04-19T11:35:46Z</time></trkpt><trkpt lat="43.71674594669044" lon="11.871883205071898"><ele>406.8333333333333</ele><time>2026-04-19T11:35:48Z</time></trkpt><trkpt lat="43.716800635495915" lon="11.871928658841288"><ele>406.66666666666663</ele><time>2026-04-19T11:35:50Z</time></trkpt><trkpt lat="43.716866232157614" lon="11.872028783934743"><ele>406.5</ele><time>2026-04-19T11:35:52Z</time></trkpt><trkpt lat="43.71688395213652" lon="11.872131494418225"><ele>406.33333333333337</ele><time>2026-04-19T11:35:53Z</time></trkpt><trkpt lat="43.71689970352888" lon="11.872239112271316"><ele>406.1666666666667</ele><time>2026-04-19T11:35:54Z</time></trkpt><trkpt lat="43.71691626532572" lon="11.872355533062777"><ele>406.0</ele><time>2026-04-19T11:35:55Z</time></trkpt><trkpt lat="43.71693491149412" lon="11.872474301873973"><ele>406.00000000000006</ele><time>2026-04-19T11:35:56Z</time></trkpt><trkpt lat="43.71695795878878" lon="11.872593134825324"><ele>406.0</ele><time>2026-04-19T11:35:57Z</time></trkpt><trkpt lat="43.716977866465434" lon="11.872708830398755"><ele>406.0</ele><time>2026-04-19T11:35:58Z</time></trkpt><trkpt lat="43.716993673993265" lon="11.872828246744163"><ele>406.0</ele><time>2026-04-19T11:35:59Z</time></trkpt><trkpt lat="43.71699809803877" lon="11.872950205302475"><ele>406.00000000000006</ele><time>2026-04-19T11:36:00Z</time></trkpt><trkpt lat="43.71698849663062" lon="11.873072639462983"><ele>406.0</ele><time>2026-04-19T11:36:01Z</time></trkpt><trkpt lat="43.71695759898109" lon="11.873194335227172"><ele>406.0</ele><time>2026-04-19T11:36:02Z</time></trkpt><trkpt lat="43.71691013008232" lon="11.873310160836223"><ele>406.0</ele><time>2026-04-19T11:36:03Z</time></trkpt><trkpt lat="43.716843538718805" lon="11.8734101620999"><ele>406.0</ele><time>2026-04-19T11:36:04Z</time></trkpt><trkpt lat="43.716760186022675" lon="11.873485656739216"><ele>406.0</ele><time>2026-04-19T11:36:05Z</time></trkpt><trkpt lat="43.71666314429507" lon="11.873539034346807"><ele>406.0</ele><time>2026-04-19T11:36:06Z</time></trkpt><trkpt lat="43.71656068045754" lon="11.873578829134859"><ele>409.75</ele><time>2026-04-19T11:36:07Z</time></trkpt><trkpt lat="43.71645481244077" lon="11.873626536563018"><ele>413.5</ele><time>2026-04-19T11:36:08Z</time></trkpt><trkpt lat="43.716346040464295" lon="11.87368409919122"><ele>417.25</ele><time>2026-04-19T11:36:09Z</time></trkpt><trkpt lat="43.71624223770485" lon="11.873751874353271"><ele>421.0</ele><time>2026-04-19T11:36:10Z</time></trkpt><trkpt lat="43.716141051082914" lon="11.8738248941628"><ele>420.8</ele><time>2026-04-19T11:36:11Z</time></trkpt><trkpt lat="43.716051647958025" lon="11.873908568947614"><ele>420.6</ele><time>2026-04-19T11:36:12Z</time></trkpt><trkpt lat="43.71597365335462" lon="11.874003752790188"><ele>420.4</ele><time>2026-04-19T11:36:13Z</time></trkpt><trkpt lat="43.71591617370598" lon="11.874117243166594"><ele>420.2</ele><time>2026-04-19T11:36:14Z</time></trkpt><trkpt lat="43.71587892387685" lon="11.874241988391471"><ele>420.0</ele><time>2026-04-19T11:36:15Z</time></trkpt><trkpt lat="43.71586648133333" lon="11.874374477092559"><ele>420.0</ele><time>2026-04-19T11:36:16Z</time></trkpt><trkpt lat="43.715877682880155" lon="11.874512177017689"><ele>420.0</ele><time>2026-04-19T11:36:17Z</time></trkpt><trkpt lat="43.715906661692195" lon="11.874656485634928"><ele>420.0</ele><time>2026-04-19T11:36:18Z</time></trkpt><trkpt lat="43.715942570814526" lon="11.874815146492992"><ele>420.0</ele><time>2026-04-19T11:36:19Z</time></trkpt><trkpt lat="43.71597970118495" lon="11.874985272612975"><ele>421.0</ele><time>2026-04-19T11:36:20Z</time></trkpt><trkpt lat="43.71601084545069" lon="11.875155786094536"><ele>422.0</ele><time>2026-04-19T11:36:21Z</time></trkpt><trkpt lat="43.71603105940781" lon="11.875335701430231"><ele>423.0</ele><time>2026-04-19T11:36:21.999Z</time></trkpt><trkpt lat="43.71603700040954" lon="11.87551605154399"><ele>424.0</ele><time>2026-04-19T11:36:22.999Z</time></trkpt><trkpt lat="43.716025598729544" lon="11.875688230374035"><ele>424.0</ele><time>2026-04-19T11:36:23.999Z</time></trkpt><trkpt lat="43.715993895314135" lon="11.87584688534838"><ele>424.0</ele><time>2026-04-19T11:36:24.999Z</time></trkpt><trkpt lat="43.71592185976892" lon="11.875993245134481"><ele>424.0</ele><time>2026-04-19T11:36:25.999Z</time></trkpt><trkpt lat="43.71583321471944" lon="11.876136721661231"><ele>424.0</ele><time>2026-04-19T11:36:26.999Z</time></trkpt><trkpt lat="43.715731805667716" lon="11.876276162774381"><ele>427.0</ele><time>2026-04-19T11:36:27.999Z</time></trkpt><trkpt lat="43.71562080733729" lon="11.876378287224563"><ele>430.0</ele><time>2026-04-19T11:36:28.999Z</time></trkpt><trkpt lat="43.71552009398299" lon="11.8764560339308"><ele>433.0</ele><time>2026-04-19T11:36:29.999Z</time></trkpt><trkpt lat="43.71544305918123" lon="11.876564497857686"><ele>436.0</ele><time>2026-04-19T11:36:30.999Z</time></trkpt><trkpt lat="43.71539026956413" lon="11.876704181495038"><ele>437.4</ele><time>2026-04-19T11:36:31.999Z</time></trkpt><trkpt lat="43.71535652820121" lon="11.876833419747191"><ele>438.8</ele><time>2026-04-19T11:36:32.999Z</time></trkpt><trkpt lat="43.715319075810065" lon="11.87691590958603"><ele>440.19999999999993</ele><time>2026-04-19T11:36:33.999Z</time></trkpt><trkpt lat="43.71517899445813" lon="11.876942222900068"><ele>441.59999999999997</ele><time>2026-04-19T11:36:35.999Z</time></trkpt><trkpt lat="43.71509569053158" lon="11.876882032687108"><ele>443.0</ele><time>2026-04-19T11:36:36.999Z</time></trkpt><trkpt lat="43.71503505041278" lon="11.876811707595715"><ele>442.49999999999994</ele><time>2026-04-19T11:36:37.999Z</time></trkpt><trkpt lat="43.714995722979516" lon="11.87672886108508"><ele>442.0</ele><time>2026-04-19T11:36:38.999Z</time></trkpt><trkpt lat="43.71499166043755" lon="11.876616305743358"><ele>441.5</ele><time>2026-04-19T11:36:39.999Z</time></trkpt><trkpt lat="43.71502684129044" lon="11.876501715681291"><ele>441.0</ele><time>2026-04-19T11:36:40.999Z</time></trkpt><trkpt lat="43.715079716844876" lon="11.876383430346817"><ele>440.49999999999994</ele><time>2026-04-19T11:36:41.999Z</time></trkpt><trkpt lat="43.715133739256906" lon="11.876257962859487"><ele>440.0</ele><time>2026-04-19T11:36:42.999Z</time></trkpt><trkpt lat="43.71518414129134" lon="11.876125413239377"><ele>439.0</ele><time>2026-04-19T11:36:43.999Z</time></trkpt><trkpt lat="43.71523793257253" lon="11.875986234619267"><ele>438.0</ele><time>2026-04-19T11:36:44.999Z</time></trkpt><trkpt lat="43.71529201060057" lon="11.875843024752584"><ele>437.0</ele><time>2026-04-19T11:36:45.999Z</time></trkpt><trkpt lat="43.71533522544817" lon="11.875698105953276"><ele>436.0</ele><time>2026-04-19T11:36:46.999Z</time></trkpt><trkpt lat="43.71534966342346" lon="11.875546366855202"><ele>433.0</ele><time>2026-04-19T11:36:47.999Z</time></trkpt><trkpt lat="43.715332449457506" lon="11.875388036497792"><ele>430.0</ele><time>2026-04-19T11:36:48.999Z</time></trkpt><trkpt lat="43.71528807497543" lon="11.875219883869123"><ele>427.0</ele><time>2026-04-19T11:36:49.999Z</time></trkpt><trkpt lat="43.71522569993204" lon="11.875040576844839"><ele>424.0</ele><time>2026-04-19T11:36:50.999Z</time></trkpt><trkpt lat="43.71516152773417" lon="11.874855566241184"><ele>429.25</ele><time>2026-04-19T11:36:51.999Z</time></trkpt><trkpt lat="43.71510579566905" lon="11.874675921296825"><ele>434.5</ele><time>2026-04-19T11:36:52.999Z</time></trkpt><trkpt lat="43.71505465504864" lon="11.87448688777182"><ele>439.75</ele><time>2026-04-19T11:36:53.999Z</time></trkpt><trkpt lat="43.71502546043315" lon="11.874306244844984"><ele>445.0</ele><time>2026-04-19T11:36:54.999Z</time></trkpt><trkpt lat="43.71500215564746" lon="11.874139581291606"><ele>445.0</ele><time>2026-04-19T11:36:55.999Z</time></trkpt><trkpt lat="43.71495127057934" lon="11.873985198907658"><ele>445.0</ele><time>2026-04-19T11:36:56.999Z</time></trkpt><trkpt lat="43.714865997799734" lon="11.873844272672278"><ele>445.0</ele><time>2026-04-19T11:36:57.999Z</time></trkpt><trkpt lat="43.71475980700103" lon="11.87371133497607"><ele>445.0</ele><time>2026-04-19T11:36:58.999Z</time></trkpt><trkpt lat="43.714660731632044" lon="11.873586155290031"><ele>445.0</ele><time>2026-04-19T11:36:59.999Z</time></trkpt><trkpt lat="43.71457201147263" lon="11.873480942713197"><ele>445.0</ele><time>2026-04-19T11:37:00.999Z</time></trkpt><trkpt lat="43.71446153653933" lon="11.873408552084243"><ele>445.0</ele><time>2026-04-19T11:37:01.999Z</time></trkpt><trkpt lat="43.71433371084631" lon="11.873379344310347"><ele>445.0</ele><time>2026-04-19T11:37:02.999Z</time></trkpt><trkpt lat="43.714200113866184" lon="11.873393797408113"><ele>447.0</ele><time>2026-04-19T11:37:03.999Z</time></trkpt><trkpt lat="43.71407357396526" lon="11.873410666554532"><ele>449.0</ele><time>2026-04-19T11:37:04.999Z</time></trkpt><trkpt lat="43.71395728696383" lon="11.873360637473185"><ele>451.0</ele><time>2026-04-19T11:37:05.999Z</time></trkpt><trkpt lat="43.71384703749483" lon="11.873258275650047"><ele>453.0</ele><time>2026-04-19T11:37:06.999Z</time></trkpt><trkpt lat="43.7137480933416" lon="11.873135762980981"><ele>453.0</ele><time>2026-04-19T11:37:07.999Z</time></trkpt><trkpt lat="43.71363016721963" lon="11.873032730735936"><ele>453.0</ele><time>2026-04-19T11:37:08.999Z</time></trkpt><trkpt lat="43.71348393259345" lon="11.872965366235706"><ele>453.0</ele><time>2026-04-19T11:37:09.999Z</time></trkpt><trkpt lat="43.71331547463933" lon="11.872916428363917"><ele>455.66666666666663</ele><time>2026-04-19T11:37:10.999Z</time></trkpt><trkpt lat="43.71314314865439" lon="11.872861860294329"><ele>458.3333333333333</ele><time>2026-04-19T11:37:11.999Z</time></trkpt><trkpt lat="43.71298036039261" lon="11.872779488899038"><ele>461.0</ele><time>2026-04-19T11:37:12.999Z</time></trkpt><trkpt lat="43.712826811987675" lon="11.872681706952253"><ele>460.0</ele><time>2026-04-19T11:37:13.999Z</time></trkpt><trkpt lat="43.71266448245365" lon="11.872604711490554"><ele>459.0</ele><time>2026-04-19T11:37:14.999Z</time></trkpt><trkpt lat="43.71248768713454" lon="11.872555168123363"><ele>458.0</ele><time>2026-04-19T11:37:15.999Z</time></trkpt><trkpt lat="43.71231325422731" lon="11.87251378180857"><ele>458.0</ele><time>2026-04-19T11:37:16.999Z</time></trkpt><trkpt lat="43.712158550317966" lon="11.872467481098097"><ele>458.0</ele><time>2026-04-19T11:37:17.999Z</time></trkpt><trkpt lat="43.71202017746669" lon="11.872429604734402"><ele>458.0</ele><time>2026-04-19T11:37:18.999Z</time></trkpt><trkpt lat="43.71190326265642" lon="11.872416012288706"><ele>458.0</ele><time>2026-04-19T11:37:19.998Z</time></trkpt><trkpt lat="43.71178223440307" lon="11.87234997459338"><ele>460.59999999999997</ele><time>2026-04-19T11:37:20.998Z</time></trkpt><trkpt lat="43.71167740992578" lon="11.87235513941872"><ele>463.19999999999993</ele><time>2026-04-19T11:37:21.998Z</time></trkpt><trkpt lat="43.71158180825055" lon="11.872359849811499"><ele>465.8</ele><time>2026-04-19T11:37:22.998Z</time></trkpt><trkpt lat="43.71149479629816" lon="11.872297850575231"><ele>468.4</ele><time>2026-04-19T11:37:24.998Z</time></trkpt><trkpt lat="43.71148105973193" lon="11.872172938061881"><ele>471.0</ele><time>2026-04-19T11:37:26.998Z</time></trkpt><trkpt lat="43.711494096583316" lon="11.872073111189358"><ele>471.0</ele><time>2026-04-19T11:37:27.998Z</time></trkpt><trkpt lat="43.711518929310635" lon="11.87191803485961"><ele>471.0</ele><time>2026-04-19T11:37:28.998Z</time></trkpt><trkpt lat="43.711535708571255" lon="11.871757208083443"><ele>471.0</ele><time>2026-04-19T11:37:29.998Z</time></trkpt><trkpt lat="43.71154831600138" lon="11.871615957406538"><ele>471.0</ele><time>2026-04-19T11:37:30.998Z</time></trkpt><trkpt lat="43.711552249434405" lon="11.871486919390952"><ele>471.0</ele><time>2026-04-19T11:37:31.998Z</time></trkpt><trkpt lat="43.711553879253465" lon="11.871351609776099"><ele>473.5</ele><time>2026-04-19T11:37:32.998Z</time></trkpt><trkpt lat="43.71151160541398" lon="11.871270418893436"><ele>476.0</ele><time>2026-04-19T11:37:33.998Z</time></trkpt><trkpt lat="43.71106991916541" lon="11.87137265776568"><ele>476.0</ele><time>2026-04-19T11:37:34.998Z</time></trkpt><trkpt lat="43.71094835997082" lon="11.871418694264182"><ele>476.0</ele><time>2026-04-19T11:37:35.998Z</time></trkpt><trkpt lat="43.710823815151755" lon="11.8715001014294"><ele>476.0</ele><time>2026-04-19T11:37:36.998Z</time></trkpt><trkpt lat="43.710702228123814" lon="11.871606280256566"><ele>476.0</ele><time>2026-04-19T11:37:37.998Z</time></trkpt><trkpt lat="43.710586486798604" lon="11.87172589128336"><ele>480.25</ele><time>2026-04-19T11:37:38.998Z</time></trkpt><trkpt lat="43.71048626119488" lon="11.87184890065505"><ele>484.5</ele><time>2026-04-19T11:37:39.998Z</time></trkpt><trkpt lat="43.71040487132856" lon="11.872000035316553"><ele>488.75</ele><time>2026-04-19T11:37:40.998Z</time></trkpt><trkpt lat="43.71035065950777" lon="11.872153202950548"><ele>493.0</ele><time>2026-04-19T11:37:41.998Z</time></trkpt><trkpt lat="43.710293606733785" lon="11.872279481240179"><ele>494.75</ele><time>2026-04-19T11:37:42.998Z</time></trkpt><trkpt lat="43.71019746946709" lon="11.872378651442695"><ele>496.5</ele><time>2026-04-19T11:37:43.998Z</time></trkpt><trkpt lat="43.71007239397924" lon="11.872459206794936"><ele>498.25</ele><time>2026-04-19T11:37:44.998Z</time></trkpt><trkpt lat="43.70993695430439" lon="11.872541221672407"><ele>500.0</ele><time>2026-04-19T11:37:45.998Z</time></trkpt><trkpt lat="43.70980155723862" lon="11.872617741257265"><ele>500.0</ele><time>2026-04-19T11:37:46.998Z</time></trkpt><trkpt lat="43.709648959019574" lon="11.872676190467534"><ele>500.0</ele><time>2026-04-19T11:37:47.998Z</time></trkpt><trkpt lat="43.70948853703398" lon="11.872684086271825"><ele>500.0</ele><time>2026-04-19T11:37:48.998Z</time></trkpt><trkpt lat="43.7093374522574" lon="11.872684049596497"><ele>499.25</ele><time>2026-04-19T11:37:49.998Z</time></trkpt><trkpt lat="43.70920328658627" lon="11.872737858258372"><ele>498.5</ele><time>2026-04-19T11:37:50.998Z</time></trkpt><trkpt lat="43.709090618701524" lon="11.87282334033128"><ele>497.75</ele><time>2026-04-19T11:37:52Z</time></trkpt><trkpt lat="43.70900759971796" lon="11.872945366352216"><ele>497.0</ele><time>2026-04-19T11:37:53Z</time></trkpt><trkpt lat="43.70893943822494" lon="11.873102663517638"><ele>497.0</ele><time>2026-04-19T11:37:54Z</time></trkpt><trkpt lat="43.70888178031613" lon="11.873256429735108"><ele>497.0</ele><time>2026-04-19T11:37:55Z</time></trkpt><trkpt lat="43.708794283163" lon="11.873382616197064"><ele>497.0</ele><time>2026-04-19T11:37:56Z</time></trkpt><trkpt lat="43.70867434151002" lon="11.873460503452508"><ele>497.0</ele><time>2026-04-19T11:37:57Z</time></trkpt><trkpt lat="43.708536040861084" lon="11.873504909257143"><ele>498.75</ele><time>2026-04-19T11:37:58Z</time></trkpt><trkpt lat="43.708393950728414" lon="11.873540917767356"><ele>500.5</ele><time>2026-04-19T11:37:59Z</time></trkpt><trkpt lat="43.7082718104898" lon="11.873578426688109"><ele>502.25</ele><time>2026-04-19T11:38:00Z</time></trkpt><trkpt lat="43.70815861006468" lon="11.873606897069887"><ele>504.0</ele><time>2026-04-19T11:38:01Z</time></trkpt><trkpt lat="43.70806884654896" lon="11.873717031740744"><ele>504.0</ele><time>2026-04-19T11:38:02Z</time></trkpt><trkpt lat="43.70800089069077" lon="11.873886249807585"><ele>504.0</ele><time>2026-04-19T11:38:03Z</time></trkpt><trkpt lat="43.7079493288345" lon="11.874068744836341"><ele>504.0</ele><time>2026-04-19T11:38:04Z</time></trkpt><trkpt lat="43.70789597661426" lon="11.8742563194038"><ele>504.0</ele><time>2026-04-19T11:38:05Z</time></trkpt><trkpt lat="43.707848601360304" lon="11.874398619746906"><ele>505.5</ele><time>2026-04-19T11:38:06Z</time></trkpt><trkpt lat="43.707794445191126" lon="11.874521584137376"><ele>507.0</ele><time>2026-04-19T11:38:07Z</time></trkpt><trkpt lat="43.707724573290605" lon="11.874591662353618"><ele>508.5</ele><time>2026-04-19T11:38:08Z</time></trkpt><trkpt lat="43.707609347843864" lon="11.874659924906624"><ele>510.0</ele><time>2026-04-19T11:38:09Z</time></trkpt><trkpt lat="43.70747192479678" lon="11.874679409333314"><ele>510.0</ele><time>2026-04-19T11:38:10Z</time></trkpt><trkpt lat="43.7073414226008" lon="11.874722897922652"><ele>510.0</ele><time>2026-04-19T11:38:11Z</time></trkpt><trkpt lat="43.70721386208485" lon="11.874825997708742"><ele>510.0</ele><time>2026-04-19T11:38:12Z</time></trkpt><trkpt lat="43.707114088679866" lon="11.874981241020372"><ele>510.0</ele><time>2026-04-19T11:38:13Z</time></trkpt><trkpt lat="43.70702002198175" lon="11.87509180751704"><ele>509.5</ele><time>2026-04-19T11:38:14Z</time></trkpt><trkpt lat="43.706931270555515" lon="11.875229452243614"><ele>509.0</ele><time>2026-04-19T11:38:15Z</time></trkpt><trkpt lat="43.70684863879074" lon="11.875405294165544"><ele>508.5</ele><time>2026-04-19T11:38:16Z</time></trkpt><trkpt lat="43.706784598211634" lon="11.875588693765584"><ele>508.0</ele><time>2026-04-19T11:38:17Z</time></trkpt><trkpt lat="43.70674130496352" lon="11.875769877417243"><ele>509.0</ele><time>2026-04-19T11:38:18Z</time></trkpt><trkpt lat="43.70672452986013" lon="11.875968770770397"><ele>510.0</ele><time>2026-04-19T11:38:19Z</time></trkpt><trkpt lat="43.70674454587837" lon="11.876179061804491"><ele>511.0</ele><time>2026-04-19T11:38:20Z</time></trkpt><trkpt lat="43.70679388793671" lon="11.876374790075161"><ele>512.0</ele><time>2026-04-19T11:38:21Z</time></trkpt><trkpt lat="43.706824938810215" lon="11.876549189450563"><ele>512.0</ele><time>2026-04-19T11:38:22Z</time></trkpt><trkpt lat="43.706818375909904" lon="11.8767364326185"><ele>512.0</ele><time>2026-04-19T11:38:23Z</time></trkpt><trkpt lat="43.70676990084978" lon="11.876931231171161"><ele>512.0</ele><time>2026-04-19T11:38:24Z</time></trkpt><trkpt lat="43.70671455930764" lon="11.877138199809888"><ele>512.0</ele><time>2026-04-19T11:38:25Z</time></trkpt><trkpt lat="43.706678435483106" lon="11.877350287072536"><ele>514.0</ele><time>2026-04-19T11:38:26Z</time></trkpt><trkpt lat="43.70666158513526" lon="11.877570483053782"><ele>516.0</ele><time>2026-04-19T11:38:27Z</time></trkpt><trkpt lat="43.706671904876266" lon="11.877793992581925"><ele>518.0</ele><time>2026-04-19T11:38:28Z</time></trkpt><trkpt lat="43.70666804635469" lon="11.87799015239447"><ele>519.0</ele><time>2026-04-19T11:38:29Z</time></trkpt><trkpt lat="43.706666609332416" lon="11.878160159530992"><ele>520.0</ele><time>2026-04-19T11:38:30Z</time></trkpt><trkpt lat="43.70665261520936" lon="11.878315762068569"><ele>521.0</ele><time>2026-04-19T11:38:31Z</time></trkpt><trkpt lat="43.70662912816723" lon="11.878457370489636"><ele>522.0</ele><time>2026-04-19T11:38:32Z</time></trkpt><trkpt lat="43.70653679641006" lon="11.878571330687041"><ele>522.4</ele><time>2026-04-19T11:38:32.999Z</time></trkpt><trkpt lat="43.70643133055365" lon="11.87868689184526"><ele>522.8000000000001</ele><time>2026-04-19T11:38:33.999Z</time></trkpt><trkpt lat="43.70633267542424" lon="11.878795849330343"><ele>523.2</ele><time>2026-04-19T11:38:34.999Z</time></trkpt><trkpt lat="43.706252075728315" lon="11.878881085758065"><ele>523.6</ele><time>2026-04-19T11:38:35.999Z</time></trkpt><trkpt lat="43.706185578477076" lon="11.878926041042805"><ele>524.0</ele><time>2026-04-19T11:38:36.999Z</time></trkpt><trkpt lat="43.706100484223114" lon="11.878936626758048"><ele>527.25</ele><time>2026-04-19T11:38:37.999Z</time></trkpt><trkpt lat="43.705994862640694" lon="11.878867844592053"><ele>530.5</ele><time>2026-04-19T11:38:38.999Z</time></trkpt><trkpt lat="43.70591134556936" lon="11.878730868725954"><ele>533.75</ele><time>2026-04-19T11:38:39.999Z</time></trkpt><trkpt lat="43.705813224215625" lon="11.878630550948174"><ele>537.0</ele><time>2026-04-19T11:38:40.999Z</time></trkpt><trkpt lat="43.705727892733584" lon="11.878539331395496"><ele>537.0</ele><time>2026-04-19T11:38:41.999Z</time></trkpt><trkpt lat="43.70562068422216" lon="11.878487657441271"><ele>537.0</ele><time>2026-04-19T11:38:42.999Z</time></trkpt><trkpt lat="43.70550075037931" lon="11.878495316779214"><ele>537.0</ele><time>2026-04-19T11:38:43.999Z</time></trkpt><trkpt lat="43.70538436201547" lon="11.878533757668402"><ele>537.0</ele><time>2026-04-19T11:38:44.999Z</time></trkpt><trkpt lat="43.705275334864865" lon="11.878530263571069"><ele>536.0</ele><time>2026-04-19T11:38:45.999Z</time></trkpt><trkpt lat="43.70516749783799" lon="11.878456810592354"><ele>535.0</ele><time>2026-04-19T11:38:46.999Z</time></trkpt><trkpt lat="43.70506053006571" lon="11.878331960573107"><ele>534.0</ele><time>2026-04-19T11:38:47.999Z</time></trkpt><trkpt lat="43.70494652732661" lon="11.878178344171088"><ele>533.0</ele><time>2026-04-19T11:38:48.999Z</time></trkpt><trkpt lat="43.70481596275611" lon="11.878028873025366"><ele>533.0</ele><time>2026-04-19T11:38:49.999Z</time></trkpt><trkpt lat="43.70468996869493" lon="11.877880005289686"><ele>533.0</ele><time>2026-04-19T11:38:50.999Z</time></trkpt><trkpt lat="43.7045697469099" lon="11.87773054094666"><ele>533.0</ele><time>2026-04-19T11:38:51.999Z</time></trkpt><trkpt lat="43.70446912477064" lon="11.877590344918968"><ele>533.25</ele><time>2026-04-19T11:38:52.999Z</time></trkpt><trkpt lat="43.704369745908735" lon="11.877485862749388"><ele>533.5</ele><time>2026-04-19T11:38:53.999Z</time></trkpt><trkpt lat="43.704267859080296" lon="11.877428196662851"><ele>533.75</ele><time>2026-04-19T11:38:54.999Z</time></trkpt><trkpt lat="43.70415448750494" lon="11.87741956777405"><ele>534.0</ele><time>2026-04-19T11:38:55.999Z</time></trkpt><trkpt lat="43.70403191148377" lon="11.877464895841985"><ele>534.0</ele><time>2026-04-19T11:38:56.999Z</time></trkpt><trkpt lat="43.70390928296214" lon="11.877500911209454"><ele>534.0</ele><time>2026-04-19T11:38:57.999Z</time></trkpt><trkpt lat="43.70380421043386" lon="11.877529892136819"><ele>534.0</ele><time>2026-04-19T11:38:58.999Z</time></trkpt><trkpt lat="43.70369017809909" lon="11.877536444971582"><ele>534.0</ele><time>2026-04-19T11:38:59.999Z</time></trkpt><trkpt lat="43.70356918799896" lon="11.87746059461974"><ele>536.5</ele><time>2026-04-19T11:39:00.999Z</time></trkpt><trkpt lat="43.703456383391675" lon="11.877342573091893"><ele>539.0</ele><time>2026-04-19T11:39:01.999Z</time></trkpt><trkpt lat="43.70333339007332" lon="11.87722871065927"><ele>541.5</ele><time>2026-04-19T11:39:02.999Z</time></trkpt><trkpt lat="43.70319581440925" lon="11.877142980452506"><ele>544.0</ele><time>2026-04-19T11:39:03.999Z</time></trkpt><trkpt lat="43.703037301235064" lon="11.877065731260604"><ele>544.0</ele><time>2026-04-19T11:39:04.999Z</time></trkpt><trkpt lat="43.702869404567586" lon="11.876966437208022"><ele>544.0</ele><time>2026-04-19T11:39:05.999Z</time></trkpt><trkpt lat="43.7026832316337" lon="11.876901394585522"><ele>544.0</ele><time>2026-04-19T11:39:06.999Z</time></trkpt><trkpt lat="43.7025056286185" lon="11.876817372993601"><ele>543.3333333333334</ele><time>2026-04-19T11:39:07.999Z</time></trkpt><trkpt lat="43.702339662063245" lon="11.876737267523591"><ele>542.6666666666666</ele><time>2026-04-19T11:39:08.999Z</time></trkpt><trkpt lat="43.70219123706121" lon="11.876667994131509"><ele>542.0</ele><time>2026-04-19T11:39:09.999Z</time></trkpt><trkpt lat="43.70205460311681" lon="11.876601761536854"><ele>542.0</ele><time>2026-04-19T11:39:10.999Z</time></trkpt><trkpt lat="43.70192320729594" lon="11.87653255836101"><ele>542.0</ele><time>2026-04-19T11:39:11.999Z</time></trkpt><trkpt lat="43.70180423222326" lon="11.876478617118952"><ele>542.0</ele><time>2026-04-19T11:39:12.999Z</time></trkpt><trkpt lat="43.701701010739136" lon="11.876430449707012"><ele>542.0</ele><time>2026-04-19T11:39:13.999Z</time></trkpt><trkpt lat="43.70158733888919" lon="11.876439264894973"><ele>544.0</ele><time>2026-04-19T11:39:14.999Z</time></trkpt><trkpt lat="43.7014705680306" lon="11.876501410815619"><ele>546.0</ele><time>2026-04-19T11:39:15.999Z</time></trkpt><trkpt lat="43.70136422075119" lon="11.876632453345346"><ele>548.0</ele><time>2026-04-19T11:39:16.999Z</time></trkpt><trkpt lat="43.701257747079445" lon="11.876770588229855"><ele>550.0</ele><time>2026-04-19T11:39:17.999Z</time></trkpt><trkpt lat="43.701155440084314" lon="11.8769091222062"><ele>550.75</ele><time>2026-04-19T11:39:18.999Z</time></trkpt><trkpt lat="43.70109405524343" lon="11.877084325413366"><ele>551.5</ele><time>2026-04-19T11:39:19.999Z</time></trkpt><trkpt lat="43.7010382036998" lon="11.87727193626756"><ele>552.25</ele><time>2026-04-19T11:39:20.999Z</time></trkpt><trkpt lat="43.700973260298" lon="11.877474997508042"><ele>553.0</ele><time>2026-04-19T11:39:21.999Z</time></trkpt><trkpt lat="43.70091990566757" lon="11.87768562086439"><ele>554.0</ele><time>2026-04-19T11:39:22.999Z</time></trkpt><trkpt lat="43.70088901507264" lon="11.877879876194385"><ele>555.0</ele><time>2026-04-19T11:39:23.999Z</time></trkpt><trkpt lat="43.700855379160195" lon="11.878049678866407"><ele>556.0</ele><time>2026-04-19T11:39:24.999Z</time></trkpt><trkpt lat="43.70084878974314" lon="11.878221604319721"><ele>557.0</ele><time>2026-04-19T11:39:25.999Z</time></trkpt><trkpt lat="43.70088461586987" lon="11.878402025021789"><ele>557.3333333333333</ele><time>2026-04-19T11:39:26.999Z</time></trkpt><trkpt lat="43.700958249194926" lon="11.878582899908789"><ele>557.6666666666666</ele><time>2026-04-19T11:39:27.999Z</time></trkpt><trkpt lat="43.70104851912228" lon="11.878774289841658"><ele>558.0</ele><time>2026-04-19T11:39:28.999Z</time></trkpt><trkpt lat="43.70111903386223" lon="11.87900323833095"><ele>563.6666666666666</ele><time>2026-04-19T11:39:29.998Z</time></trkpt><trkpt lat="43.701173397762155" lon="11.879261926038954"><ele>569.3333333333333</ele><time>2026-04-19T11:39:30.998Z</time></trkpt><trkpt lat="43.70123443259849" lon="11.879534919301477"><ele>575.0</ele><time>2026-04-19T11:39:31.998Z</time></trkpt><trkpt lat="43.701286439161535" lon="11.87980799787978"><ele>575.3333333333333</ele><time>2026-04-19T11:39:32.998Z</time></trkpt><trkpt lat="43.701338706643384" lon="11.880059041207428"><ele>575.6666666666666</ele><time>2026-04-19T11:39:33.998Z</time></trkpt><trkpt lat="43.70138801750049" lon="11.88029074036253"><ele>576.0</ele><time>2026-04-19T11:39:34.998Z</time></trkpt><trkpt lat="43.7014391112757" lon="11.880501114538582"><ele>576.0</ele><time>2026-04-19T11:39:35.998Z</time></trkpt><trkpt lat="43.70150735728718" lon="11.880697328258648"><ele>576.0</ele><time>2026-04-19T11:39:36.998Z</time></trkpt><trkpt lat="43.70160527408257" lon="11.88087556569312"><ele>576.0</ele><time>2026-04-19T11:39:37.998Z</time></trkpt><trkpt lat="43.70172606686019" lon="11.881020698107356"><ele>576.0</ele><time>2026-04-19T11:39:38.998Z</time></trkpt><trkpt lat="43.701837000496894" lon="11.881181228130355"><ele>576.0</ele><time>2026-04-19T11:39:39.998Z</time></trkpt><trkpt lat="43.70192250380575" lon="11.88136909491336"><ele>576.0</ele><time>2026-04-19T11:39:40.998Z</time></trkpt><trkpt lat="43.701982277372714" lon="11.881550935708002"><ele>579.0</ele><time>2026-04-19T11:39:41.998Z</time></trkpt><trkpt lat="43.70200707586867" lon="11.881700942736984"><ele>582.0</ele><time>2026-04-19T11:39:42.998Z</time></trkpt><trkpt lat="43.70200200130304" lon="11.881834566188308"><ele>585.0</ele><time>2026-04-19T11:39:43.998Z</time></trkpt><trkpt lat="43.70193612118405" lon="11.881946137412541"><ele>588.0</ele><time>2026-04-19T11:39:44.998Z</time></trkpt><trkpt lat="43.70185590086413" lon="11.882045011467369"><ele>591.0</ele><time>2026-04-19T11:39:45.998Z</time></trkpt><trkpt lat="43.701755360987455" lon="11.882092018299783"><ele>591.25</ele><time>2026-04-19T11:39:46.998Z</time></trkpt><trkpt lat="43.70164437067616" lon="11.882075516256354"><ele>591.5</ele><time>2026-04-19T11:39:47.998Z</time></trkpt><trkpt lat="43.70151608298033" lon="11.882066811004401"><ele>591.75</ele><time>2026-04-19T11:39:48.998Z</time></trkpt><trkpt lat="43.70138247791482" lon="11.882076399945582"><ele>592.0</ele><time>2026-04-19T11:39:49.998Z</time></trkpt><trkpt lat="43.701247607718386" lon="11.88214073635634"><ele>592.0</ele><time>2026-04-19T11:39:50.998Z</time></trkpt><trkpt lat="43.70112613867191" lon="11.882245686142591"><ele>592.0</ele><time>2026-04-19T11:39:51.998Z</time></trkpt><trkpt lat="43.70102870860787" lon="11.882387647802545"><ele>592.0</ele><time>2026-04-19T11:39:52.998Z</time></trkpt><trkpt lat="43.70095566783938" lon="11.882547318797885"><ele>592.0</ele><time>2026-04-19T11:39:53.998Z</time></trkpt><trkpt lat="43.7009508320551" lon="11.882730935597415"><ele>593.8000000000001</ele><time>2026-04-19T11:39:54.998Z</time></trkpt><trkpt lat="43.70090547687724" lon="11.882849092099095"><ele>595.6</ele><time>2026-04-19T11:39:55.998Z</time></trkpt><trkpt lat="43.70085647648315" lon="11.882934019857135"><ele>597.4000000000001</ele><time>2026-04-19T11:39:56.998Z</time></trkpt><trkpt lat="43.700789613695456" lon="11.883017278485854"><ele>599.2</ele><time>2026-04-19T11:39:58Z</time></trkpt><trkpt lat="43.70069168823902" lon="11.883001221896244"><ele>601.0</ele><time>2026-04-19T11:39:59Z</time></trkpt><trkpt lat="43.700616061506224" lon="11.882931739816403"><ele>601.0</ele><time>2026-04-19T11:40:00Z</time></trkpt><trkpt lat="43.700536405102724" lon="11.882831089621938"><ele>601.0</ele><time>2026-04-19T11:40:01Z</time></trkpt><trkpt lat="43.70042424724315" lon="11.882754107087083"><ele>601.0</ele><time>2026-04-19T11:40:02Z</time></trkpt><trkpt lat="43.700280979005896" lon="11.882728769758769"><ele>601.0</ele><time>2026-04-19T11:40:03Z</time></trkpt><trkpt lat="43.70015336071486" lon="11.88273731792263"><ele>602.0</ele><time>2026-04-19T11:40:04Z</time></trkpt><trkpt lat="43.700030448390535" lon="11.882774000896834"><ele>603.0</ele><time>2026-04-19T11:40:05Z</time></trkpt><trkpt lat="43.6999061817412" lon="11.882891754913883"><ele>604.0</ele><time>2026-04-19T11:40:06Z</time></trkpt><trkpt lat="43.69978746972375" lon="11.883007484816432"><ele>605.0</ele><time>2026-04-19T11:40:07Z</time></trkpt><trkpt lat="43.69964899751518" lon="11.883079802882502"><ele>605.0</ele><time>2026-04-19T11:40:08Z</time></trkpt><trkpt lat="43.69950843619992" lon="11.883107521760662"><ele>605.0</ele><time>2026-04-19T11:40:09Z</time></trkpt><trkpt lat="43.69940404204961" lon="11.883135589357847"><ele>605.0</ele><time>2026-04-19T11:40:10Z</time></trkpt><trkpt lat="43.69931730091688" lon="11.883194532473635"><ele>605.0</ele><time>2026-04-19T11:40:11Z</time></trkpt><trkpt lat="43.699254300024876" lon="11.883366597491971"><ele>605.75</ele><time>2026-04-19T11:40:12Z</time></trkpt><trkpt lat="43.69920816220179" lon="11.883543786810217"><ele>606.5</ele><time>2026-04-19T11:40:13Z</time></trkpt><trkpt lat="43.69916182444791" lon="11.883722188523981"><ele>607.25</ele><time>2026-04-19T11:40:14Z</time></trkpt><trkpt lat="43.69912511650076" lon="11.883894806270249"><ele>608.0</ele><time>2026-04-19T11:40:15Z</time></trkpt><trkpt lat="43.6991228643591" lon="11.88406722556292"><ele>608.0</ele><time>2026-04-19T11:40:16Z</time></trkpt><trkpt lat="43.69918175849595" lon="11.88424256389365"><ele>608.0</ele><time>2026-04-19T11:40:17Z</time></trkpt><trkpt lat="43.699239964157194" lon="11.884404442287076"><ele>608.0</ele><time>2026-04-19T11:40:18Z</time></trkpt><trkpt lat="43.69924658450383" lon="11.884577411141608"><ele>608.0</ele><time>2026-04-19T11:40:19Z</time></trkpt><trkpt lat="43.69922788306728" lon="11.884769091415881"><ele>609.0</ele><time>2026-04-19T11:40:20Z</time></trkpt><trkpt lat="43.69918653926585" lon="11.88497377501673"><ele>610.0</ele><time>2026-04-19T11:40:21Z</time></trkpt><trkpt lat="43.69915895973046" lon="11.88518457257705"><ele>611.0</ele><time>2026-04-19T11:40:22Z</time></trkpt><trkpt lat="43.699094811681356" lon="11.885369008094644"><ele>611.5</ele><time>2026-04-19T11:40:23Z</time></trkpt><trkpt lat="43.69906158124733" lon="11.885543245154393"><ele>612.0</ele><time>2026-04-19T11:40:24Z</time></trkpt><trkpt lat="43.69905175089032" lon="11.885729027208905"><ele>612.5</ele><time>2026-04-19T11:40:25Z</time></trkpt><trkpt lat="43.69909624354929" lon="11.885916084216761"><ele>613.0</ele><time>2026-04-19T11:40:26Z</time></trkpt><trkpt lat="43.69915030677785" lon="11.886117607911428"><ele>613.6666666666667</ele><time>2026-04-19T11:40:27Z</time></trkpt><trkpt lat="43.69920854997371" lon="11.886318115931607"><ele>614.3333333333334</ele><time>2026-04-19T11:40:28Z</time></trkpt><trkpt lat="43.69925394394345" lon="11.886526080458143"><ele>615.0</ele><time>2026-04-19T11:40:29Z</time></trkpt><trkpt lat="43.69927771517256" lon="11.886754351436418"><ele>617.0</ele><time>2026-04-19T11:40:30Z</time></trkpt><trkpt lat="43.69924567455354" lon="11.886988170517972"><ele>619.0</ele><time>2026-04-19T11:40:31Z</time></trkpt><trkpt lat="43.69922356498673" lon="11.887233712076688"><ele>621.0</ele><time>2026-04-19T11:40:32Z</time></trkpt><trkpt lat="43.69920569811717" lon="11.88746639944007"><ele>624.3333333333334</ele><time>2026-04-19T11:40:33Z</time></trkpt><trkpt lat="43.699164759134085" lon="11.88768554734401"><ele>627.6666666666667</ele><time>2026-04-19T11:40:34Z</time></trkpt><trkpt lat="43.6990962863297" lon="11.887884172295749"><ele>631.0</ele><time>2026-04-19T11:40:35Z</time></trkpt><trkpt lat="43.69900959105322" lon="11.888050717459167"><ele>631.0</ele><time>2026-04-19T11:40:36Z</time></trkpt><trkpt lat="43.69893990824376" lon="11.888221011824669"><ele>631.0</ele><time>2026-04-19T11:40:37Z</time></trkpt><trkpt lat="43.69894477486248" lon="11.888432523822749"><ele>631.0</ele><time>2026-04-19T11:40:38Z</time></trkpt><trkpt lat="43.69891026620015" lon="11.888622188462731"><ele>631.0</ele><time>2026-04-19T11:40:39Z</time></trkpt><trkpt lat="43.69888677811468" lon="11.88878790123603"><ele>633.25</ele><time>2026-04-19T11:40:40Z</time></trkpt><trkpt lat="43.698870350403666" lon="11.88894553364479"><ele>635.5</ele><time>2026-04-19T11:40:41Z</time></trkpt><trkpt lat="43.698887004484924" lon="11.889119759176873"><ele>637.75</ele><time>2026-04-19T11:40:42Z</time></trkpt><trkpt lat="43.6989595043514" lon="11.889281422296682"><ele>640.0</ele><time>2026-04-19T11:40:43Z</time></trkpt><trkpt lat="43.699030563063225" lon="11.889436351387833"><ele>640.5</ele><time>2026-04-19T11:40:44Z</time></trkpt><trkpt lat="43.699055346740735" lon="11.889604955946547"><ele>641.0</ele><time>2026-04-19T11:40:45Z</time></trkpt><trkpt lat="43.69905275887859" lon="11.889771153588006"><ele>641.5</ele><time>2026-04-19T11:40:46Z</time></trkpt><trkpt lat="43.69900247685602" lon="11.889940292565422"><ele>642.0</ele><time>2026-04-19T11:40:46.999Z</time></trkpt><trkpt lat="43.69894447163561" lon="11.890133672040147"><ele>644.6666666666666</ele><time>2026-04-19T11:40:47.999Z</time></trkpt><trkpt lat="43.69888061705845" lon="11.890346555094249"><ele>647.3333333333333</ele><time>2026-04-19T11:40:48.999Z</time></trkpt><trkpt lat="43.698810231347146" lon="11.890577896716248"><ele>650.0</ele><time>2026-04-19T11:40:49.999Z</time></trkpt><trkpt lat="43.69873144091866" lon="11.89081310831799"><ele>652.3333333333333</ele><time>2026-04-19T11:40:50.999Z</time></trkpt><trkpt lat="43.69863306037927" lon="11.891029713836689"><ele>654.6666666666666</ele><time>2026-04-19T11:40:51.999Z</time></trkpt><trkpt lat="43.69853792294181" lon="11.891232868672324"><ele>657.0</ele><time>2026-04-19T11:40:52.999Z</time></trkpt><trkpt lat="43.69845723882923" lon="11.891396025217535"><ele>653.25</ele><time>2026-04-19T11:40:53.999Z</time></trkpt><trkpt lat="43.69839914173089" lon="11.89153909071251"><ele>649.5</ele><time>2026-04-19T11:40:54.999Z</time></trkpt><trkpt lat="43.6983652212963" lon="11.891669708444745"><ele>645.75</ele><time>2026-04-19T11:40:55.999Z</time></trkpt><trkpt lat="43.69839257909473" lon="11.891828625702688"><ele>642.0</ele><time>2026-04-19T11:40:56.999Z</time></trkpt><trkpt lat="43.698472331838516" lon="11.891969627818469"><ele>642.0</ele><time>2026-04-19T11:40:57.999Z</time></trkpt><trkpt lat="43.69854203317954" lon="11.892116369448063"><ele>642.0</ele><time>2026-04-19T11:40:58.999Z</time></trkpt><trkpt lat="43.69856268924395" lon="11.892284360876294"><ele>642.0</ele><time>2026-04-19T11:40:59.999Z</time></trkpt><trkpt lat="43.69855041995619" lon="11.892441266961763"><ele>642.0</ele><time>2026-04-19T11:41:00.999Z</time></trkpt><trkpt lat="43.69851062814477" lon="11.892604323707923"><ele>641.8</ele><time>2026-04-19T11:41:01.999Z</time></trkpt><trkpt lat="43.698489596318815" lon="11.892760710937944"><ele>641.6</ele><time>2026-04-19T11:41:02.999Z</time></trkpt><trkpt lat="43.698472142499256" lon="11.892900830757934"><ele>641.4</ele><time>2026-04-19T11:41:03.999Z</time></trkpt><trkpt lat="43.698488243583974" lon="11.893051369948502"><ele>641.1999999999999</ele><time>2026-04-19T11:41:04.999Z</time></trkpt><trkpt lat="43.69853955630479" lon="11.89319231333204"><ele>641.0</ele><time>2026-04-19T11:41:05.999Z</time></trkpt><trkpt lat="43.698626699627525" lon="11.893323241575484"><ele>645.6666666666666</ele><time>2026-04-19T11:41:06.999Z</time></trkpt><trkpt lat="43.69873022337309" lon="11.893457791079673"><ele>650.3333333333334</ele><time>2026-04-19T11:41:07.999Z</time></trkpt><trkpt lat="43.6988332792211" lon="11.893617155688318"><ele>655.0</ele><time>2026-04-19T11:41:08.999Z</time></trkpt><trkpt lat="43.698923394182" lon="11.893812033712939"><ele>655.0</ele><time>2026-04-19T11:41:09.999Z</time></trkpt><trkpt lat="43.698997164305815" lon="11.894039393551013"><ele>655.0</ele><time>2026-04-19T11:41:10.999Z</time></trkpt><trkpt lat="43.69908165177834" lon="11.894278017075345"><ele>655.0</ele><time>2026-04-19T11:41:11.999Z</time></trkpt><trkpt lat="43.69917396258331" lon="11.894514810121928"><ele>655.0</ele><time>2026-04-19T11:41:12.999Z</time></trkpt><trkpt lat="43.6992794785411" lon="11.894756689025659"><ele>655.0</ele><time>2026-04-19T11:41:13.999Z</time></trkpt><trkpt lat="43.699381496844964" lon="11.89498905793697"><ele>655.0</ele><time>2026-04-19T11:41:14.999Z</time></trkpt><trkpt lat="43.69946457355089" lon="11.89522015275198"><ele>662.3333333333334</ele><time>2026-04-19T11:41:15.999Z</time></trkpt><trkpt lat="43.699514459130775" lon="11.895462904897773"><ele>669.6666666666666</ele><time>2026-04-19T11:41:16.999Z</time></trkpt><trkpt lat="43.69952023729221" lon="11.89570276847247"><ele>677.0</ele><time>2026-04-19T11:41:17.999Z</time></trkpt><trkpt lat="43.6995280878736" lon="11.895912711723824"><ele>678.6</ele><time>2026-04-19T11:41:18.999Z</time></trkpt><trkpt lat="43.699551480597364" lon="11.896087235376397"><ele>680.2</ele><time>2026-04-19T11:41:19.999Z</time></trkpt><trkpt lat="43.69955716101751" lon="11.896238550640959"><ele>681.8</ele><time>2026-04-19T11:41:20.999Z</time></trkpt><trkpt lat="43.69955753867824" lon="11.896369802474945"><ele>683.4</ele><time>2026-04-19T11:41:21.999Z</time></trkpt><trkpt lat="43.699535030414594" lon="11.896473972464797"><ele>685.0</ele><time>2026-04-19T11:41:22.999Z</time></trkpt><trkpt lat="43.69947445648359" lon="11.896564667003233"><ele>681.75</ele><time>2026-04-19T11:41:23.999Z</time></trkpt><trkpt lat="43.69936878118555" lon="11.896591161671463"><ele>678.5</ele><time>2026-04-19T11:41:24.999Z</time></trkpt><trkpt lat="43.69925560767421" lon="11.89661023404887"><ele>675.25</ele><time>2026-04-19T11:41:25.999Z</time></trkpt><trkpt lat="43.69911911226044" lon="11.896611754499144"><ele>672.0</ele><time>2026-04-19T11:41:26.999Z</time></trkpt><trkpt lat="43.69897017858989" lon="11.896618792974126"><ele>672.0</ele><time>2026-04-19T11:41:27.999Z</time></trkpt><trkpt lat="43.69881939744882" lon="11.896632540795634"><ele>672.0</ele><time>2026-04-19T11:41:28.999Z</time></trkpt><trkpt lat="43.69867576839395" lon="11.896654419154293"><ele>672.0</ele><time>2026-04-19T11:41:29.999Z</time></trkpt><trkpt lat="43.6985449212274" lon="11.896691707051112"><ele>672.0</ele><time>2026-04-19T11:41:30.999Z</time></trkpt><trkpt lat="43.69842349581356" lon="11.896755500328673"><ele>673.4000000000001</ele><time>2026-04-19T11:41:31.999Z</time></trkpt><trkpt lat="43.698327371868004" lon="11.89683905397455"><ele>674.8000000000001</ele><time>2026-04-19T11:41:32.999Z</time></trkpt><trkpt lat="43.69826694614444" lon="11.89696978667142"><ele>676.2</ele><time>2026-04-19T11:41:33.999Z</time></trkpt><trkpt lat="43.69821557083962" lon="11.89708508124752"><ele>677.6</ele><time>2026-04-19T11:41:34.999Z</time></trkpt><trkpt lat="43.69819377656479" lon="11.897219550518024"><ele>679.0</ele><time>2026-04-19T11:41:35.999Z</time></trkpt><trkpt lat="43.698205775755135" lon="11.897356354923964"><ele>679.0</ele><time>2026-04-19T11:41:36.999Z</time></trkpt><trkpt lat="43.69824626484974" lon="11.89748459393725"><ele>679.0</ele><time>2026-04-19T11:41:37.999Z</time></trkpt><trkpt lat="43.69831259360455" lon="11.89758561470943"><ele>679.0</ele><time>2026-04-19T11:41:38.999Z</time></trkpt><trkpt lat="43.69839994383833" lon="11.897655921062979"><ele>679.0</ele><time>2026-04-19T11:41:39.999Z</time></trkpt><trkpt lat="43.69850336296521" lon="11.897693368376279"><ele>679.0</ele><time>2026-04-19T11:41:40.999Z</time></trkpt><trkpt lat="43.69862385778334" lon="11.897699405544525"><ele>683.0</ele><time>2026-04-19T11:41:41.999Z</time></trkpt><trkpt lat="43.69875588720088" lon="11.897685797682884"><ele>687.0</ele><time>2026-04-19T11:41:42.999Z</time></trkpt><trkpt lat="43.69887943642026" lon="11.8976709261701"><ele>691.0</ele><time>2026-04-19T11:41:43.999Z</time></trkpt><trkpt lat="43.699007805615004" lon="11.89769293997863"><ele>695.0</ele><time>2026-04-19T11:41:44.999Z</time></trkpt><trkpt lat="43.699124988231084" lon="11.897757329070876"><ele>695.0</ele><time>2026-04-19T11:41:45.999Z</time></trkpt><trkpt lat="43.69921542049969" lon="11.897829444723598"><ele>695.0</ele><time>2026-04-19T11:41:46.998Z</time></trkpt><trkpt lat="43.69930438984194" lon="11.897860030890566"><ele>695.0</ele><time>2026-04-19T11:41:47.998Z</time></trkpt><trkpt lat="43.699405475184385" lon="11.897832807510722"><ele>695.0</ele><time>2026-04-19T11:41:48.998Z</time></trkpt><trkpt lat="43.69951782835046" lon="11.89776369155581"><ele>695.0</ele><time>2026-04-19T11:41:49.998Z</time></trkpt><trkpt lat="43.69964334239208" lon="11.89768947286747"><ele>695.25</ele><time>2026-04-19T11:41:50.998Z</time></trkpt><trkpt lat="43.69976300259187" lon="11.89761869579529"><ele>695.5</ele><time>2026-04-19T11:41:51.998Z</time></trkpt><trkpt lat="43.699869759789784" lon="11.897538143338242"><ele>695.75</ele><time>2026-04-19T11:41:52.998Z</time></trkpt><trkpt lat="43.69996489022563" lon="11.897409184583951"><ele>696.0</ele><time>2026-04-19T11:41:53.998Z</time></trkpt><trkpt lat="43.70006343612969" lon="11.897248706116855"><ele>696.0</ele><time>2026-04-19T11:41:54.998Z</time></trkpt><trkpt lat="43.70016401299285" lon="11.897088605675487"><ele>696.0</ele><time>2026-04-19T11:41:55.998Z</time></trkpt><trkpt lat="43.70026401337211" lon="11.89690801378396"><ele>696.0</ele><time>2026-04-19T11:41:56.998Z</time></trkpt><trkpt lat="43.700356358476064" lon="11.896697966103781"><ele>701.6666666666666</ele><time>2026-04-19T11:41:57.998Z</time></trkpt><trkpt lat="43.70043678417819" lon="11.896472215752103"><ele>707.3333333333333</ele><time>2026-04-19T11:41:58.998Z</time></trkpt><trkpt lat="43.700512059785964" lon="11.896256278692867"><ele>713.0</ele><time>2026-04-19T11:41:59.998Z</time></trkpt><trkpt lat="43.7005893668587" lon="11.896065394881006"><ele>709.6666666666666</ele><time>2026-04-19T11:42:00.998Z</time></trkpt><trkpt lat="43.700683839355364" lon="11.895884795641456"><ele>706.3333333333334</ele><time>2026-04-19T11:42:01.998Z</time></trkpt><trkpt lat="43.70079944292098" lon="11.895720177700882"><ele>703.0</ele><time>2026-04-19T11:42:02.998Z</time></trkpt><trkpt lat="43.700919461011864" lon="11.895545418386543"><ele>703.0</ele><time>2026-04-19T11:42:04Z</time></trkpt><trkpt lat="43.70102554804545" lon="11.895372746971798"><ele>703.0</ele><time>2026-04-19T11:42:05Z</time></trkpt><trkpt lat="43.701117440553865" lon="11.89521860120286"><ele>703.0</ele><time>2026-04-19T11:42:06Z</time></trkpt><trkpt lat="43.70119730944643" lon="11.895075985940958"><ele>703.0</ele><time>2026-04-19T11:42:07Z</time></trkpt><trkpt lat="43.70125310244817" lon="11.894913697779929"><ele>710.6666666666667</ele><time>2026-04-19T11:42:08Z</time></trkpt><trkpt lat="43.70128153794217" lon="11.89471363709425"><ele>718.3333333333334</ele><time>2026-04-19T11:42:09Z</time></trkpt><trkpt lat="43.701294659481356" lon="11.894494612072597"><ele>726.0</ele><time>2026-04-19T11:42:10Z</time></trkpt><trkpt lat="43.70132659239198" lon="11.894289999887157"><ele>725.0</ele><time>2026-04-19T11:42:11Z</time></trkpt><trkpt lat="43.70137990409497" lon="11.894115898733553"><ele>724.0</ele><time>2026-04-19T11:42:12Z</time></trkpt><trkpt lat="43.70142805749259" lon="11.89398196696133"><ele>723.0</ele><time>2026-04-19T11:42:13Z</time></trkpt><trkpt lat="43.70143164555346" lon="11.893854015945475"><ele>722.0</ele><time>2026-04-19T11:42:14Z</time></trkpt><trkpt lat="43.7013963099881" lon="11.893712274515027"><ele>721.0</ele><time>2026-04-19T11:42:15Z</time></trkpt><trkpt lat="43.70133445229959" lon="11.89355556907025"><ele>721.5</ele><time>2026-04-19T11:42:16Z</time></trkpt><trkpt lat="43.70127885318588" lon="11.893401383288245"><ele>722.0</ele><time>2026-04-19T11:42:17Z</time></trkpt><trkpt lat="43.70125209154472" lon="11.893244245134694"><ele>722.5</ele><time>2026-04-19T11:42:18Z</time></trkpt><trkpt lat="43.70126018671488" lon="11.893090244809498"><ele>723.0</ele><time>2026-04-19T11:42:19Z</time></trkpt><trkpt lat="43.70130568997625" lon="11.892947309514526"><ele>723.0</ele><time>2026-04-19T11:42:20Z</time></trkpt><trkpt lat="43.70137944560296" lon="11.89280190982168"><ele>723.0</ele><time>2026-04-19T11:42:21Z</time></trkpt><trkpt lat="43.70146839976835" lon="11.892647379499511"><ele>723.0</ele><time>2026-04-19T11:42:22Z</time></trkpt><trkpt lat="43.70156125275725" lon="11.892473744996023"><ele>723.0</ele><time>2026-04-19T11:42:23Z</time></trkpt><trkpt lat="43.701662624828955" lon="11.892290623901838"><ele>721.5</ele><time>2026-04-19T11:42:24Z</time></trkpt><trkpt lat="43.70175618099141" lon="11.892115388769211"><ele>720.0</ele><time>2026-04-19T11:42:25Z</time></trkpt><trkpt lat="43.70183128487296" lon="11.891966296638396"><ele>718.5</ele><time>2026-04-19T11:42:26Z</time></trkpt><trkpt lat="43.70188187416581" lon="11.891824097688142"><ele>717.0</ele><time>2026-04-19T11:42:27Z</time></trkpt><trkpt lat="43.70189688272212" lon="11.891664443268308"><ele>716.0</ele><time>2026-04-19T11:42:28Z</time></trkpt><trkpt lat="43.70188511101239" lon="11.891481286313264"><ele>715.0</ele><time>2026-04-19T11:42:29Z</time></trkpt><trkpt lat="43.701866468419304" lon="11.891313639424355"><ele>714.0</ele><time>2026-04-19T11:42:30Z</time></trkpt><trkpt lat="43.70187623472835" lon="11.891143805374421"><ele>713.0</ele><time>2026-04-19T11:42:31Z</time></trkpt><trkpt lat="43.70192192744062" lon="11.890978847633448"><ele>714.8</ele><time>2026-04-19T11:42:32Z</time></trkpt><trkpt lat="43.701976320400725" lon="11.890846169717923"><ele>716.5999999999999</ele><time>2026-04-19T11:42:33Z</time></trkpt><trkpt lat="43.7020458388277" lon="11.89074572944994"><ele>718.4000000000001</ele><time>2026-04-19T11:42:34Z</time></trkpt><trkpt lat="43.70213851107596" lon="11.890677050493743"><ele>720.2</ele><time>2026-04-19T11:42:35Z</time></trkpt><trkpt lat="43.70224723545504" lon="11.89065771774501"><ele>722.0</ele><time>2026-04-19T11:42:36Z</time></trkpt><trkpt lat="43.702358936493845" lon="11.890685261439206"><ele>722.0</ele><time>2026-04-19T11:42:37Z</time></trkpt><trkpt lat="43.70246445044032" lon="11.890753723007444"><ele>722.0</ele><time>2026-04-19T11:42:38Z</time></trkpt><trkpt lat="43.70255550526977" lon="11.890862608918232"><ele>722.0</ele><time>2026-04-19T11:42:39Z</time></trkpt><trkpt lat="43.70259843306798" lon="11.891019349418357"><ele>722.0</ele><time>2026-04-19T11:42:40Z</time></trkpt><trkpt lat="43.70261880630527" lon="11.891179711557413"><ele>722.75</ele><time>2026-04-19T11:42:41Z</time></trkpt><trkpt lat="43.70259607552243" lon="11.891336001022525"><ele>723.5</ele><time>2026-04-19T11:42:42Z</time></trkpt><trkpt lat="43.702536695447236" lon="11.891482721468538"><ele>724.25</ele><time>2026-04-19T11:42:43Z</time></trkpt><trkpt lat="43.702460578480526" lon="11.891642628185684"><ele>725.0</ele><time>2026-04-19T11:42:44Z</time></trkpt><trkpt lat="43.70238517385554" lon="11.891817823070035"><ele>725.3333333333333</ele><time>2026-04-19T11:42:45Z</time></trkpt><trkpt lat="43.70233510605321" lon="11.892001117580808"><ele>725.6666666666666</ele><time>2026-04-19T11:42:46Z</time></trkpt><trkpt lat="43.702327760339216" lon="11.892210948528223"><ele>726.0</ele><time>2026-04-19T11:42:47Z</time></trkpt><trkpt lat="43.702318146785416" lon="11.892430947399232"><ele>727.6666666666666</ele><time>2026-04-19T11:42:48Z</time></trkpt><trkpt lat="43.70231855512102" lon="11.892648401253107"><ele>729.3333333333333</ele><time>2026-04-19T11:42:49Z</time></trkpt><trkpt lat="43.70233638182165" lon="11.89286536525169"><ele>731.0</ele><time>2026-04-19T11:42:50Z</time></trkpt><trkpt lat="43.70238384698624" lon="11.893072275314395"><ele>731.0</ele><time>2026-04-19T11:42:51Z</time></trkpt><trkpt lat="43.70243544082803" lon="11.893273267521748"><ele>731.0</ele><time>2026-04-19T11:42:52Z</time></trkpt><trkpt lat="43.70243724573119" lon="11.893488997193337"><ele>731.0</ele><time>2026-04-19T11:42:53Z</time></trkpt><trkpt lat="43.702435540219334" lon="11.893701563553185"><ele>732.25</ele><time>2026-04-19T11:42:54Z</time></trkpt><trkpt lat="43.702411354993416" lon="11.89388759212143"><ele>733.5</ele><time>2026-04-19T11:42:55Z</time></trkpt><trkpt lat="43.70236295124455" lon="11.894041456312253"><ele>734.75</ele><time>2026-04-19T11:42:56Z</time></trkpt><trkpt lat="43.70227902830107" lon="11.894179099578505"><ele>736.0</ele><time>2026-04-19T11:42:57Z</time></trkpt><trkpt lat="43.70217920684001" lon="11.894326592725372"><ele>739.3333333333334</ele><time>2026-04-19T11:42:58Z</time></trkpt><trkpt lat="43.7021140334864" lon="11.894520052124017"><ele>742.6666666666666</ele><time>2026-04-19T11:42:59Z</time></trkpt><trkpt lat="43.70205243455259" lon="11.894719317680883"><ele>746.0</ele><time>2026-04-19T11:43:00Z</time></trkpt><trkpt lat="43.702008534908785" lon="11.89490247266231"><ele>746.0</ele><time>2026-04-19T11:43:01Z</time></trkpt><trkpt lat="43.701961397905" lon="11.895081011894915"><ele>746.0</ele><time>2026-04-19T11:43:02Z</time></trkpt><trkpt lat="43.70198602234498" lon="11.895288843265716"><ele>746.0</ele><time>2026-04-19T11:43:03Z</time></trkpt><trkpt lat="43.7020113937861" lon="11.895484805267003"><ele>746.0</ele><time>2026-04-19T11:43:03.999Z</time></trkpt><trkpt lat="43.70198514199013" lon="11.895685049337692"><ele>745.0</ele><time>2026-04-19T11:43:04.999Z</time></trkpt><trkpt lat="43.701945156867396" lon="11.895900309280469"><ele>744.0</ele><time>2026-04-19T11:43:05.999Z</time></trkpt><trkpt lat="43.70192159330042" lon="11.896133064043115"><ele>743.0</ele><time>2026-04-19T11:43:06.999Z</time></trkpt><trkpt lat="43.70190947805699" lon="11.896360073014215"><ele>750.0</ele><time>2026-04-19T11:43:07.999Z</time></trkpt><trkpt lat="43.70191613973063" lon="11.896594168829749"><ele>757.0</ele><time>2026-04-19T11:43:08.999Z</time></trkpt><trkpt lat="43.70193761431904" lon="11.896850258019246"><ele>764.0</ele><time>2026-04-19T11:43:09.999Z</time></trkpt><trkpt lat="43.70196004602084" lon="11.897099629932212"><ele>765.6666666666666</ele><time>2026-04-19T11:43:10.999Z</time></trkpt><trkpt lat="43.70198311154985" lon="11.89733422429927"><ele>767.3333333333333</ele><time>2026-04-19T11:43:11.999Z</time></trkpt><trkpt lat="43.70200296944368" lon="11.897550119031054"><ele>769.0</ele><time>2026-04-19T11:43:12.999Z</time></trkpt><trkpt lat="43.702028647423106" lon="11.897756562186686"><ele>770.0</ele><time>2026-04-19T11:43:13.999Z</time></trkpt><trkpt lat="43.70207360187828" lon="11.897965051263483"><ele>771.0</ele><time>2026-04-19T11:43:14.999Z</time></trkpt><trkpt lat="43.70213823548022" lon="11.898173344234882"><ele>772.0</ele><time>2026-04-19T11:43:15.999Z</time></trkpt><trkpt lat="43.70220689520047" lon="11.89835430600245"><ele>772.25</ele><time>2026-04-19T11:43:16.999Z</time></trkpt><trkpt lat="43.70226637352451" lon="11.898523835028575"><ele>772.5</ele><time>2026-04-19T11:43:17.999Z</time></trkpt><trkpt lat="43.70227115127627" lon="11.898714956360275"><ele>772.75</ele><time>2026-04-19T11:43:18.999Z</time></trkpt><trkpt lat="43.70226866987229" lon="11.89892246094596"><ele>773.0</ele><time>2026-04-19T11:43:19.999Z</time></trkpt><trkpt lat="43.70230234745737" lon="11.899125916070341"><ele>773.5</ele><time>2026-04-19T11:43:20.999Z</time></trkpt><trkpt lat="43.70232665943103" lon="11.899298943535301"><ele>774.0</ele><time>2026-04-19T11:43:21.999Z</time></trkpt><trkpt lat="43.70231861087215" lon="11.899455869665982"><ele>774.5</ele><time>2026-04-19T11:43:22.999Z</time></trkpt><trkpt lat="43.70225031986206" lon="11.899585966850886"><ele>775.0</ele><time>2026-04-19T11:43:23.999Z</time></trkpt><trkpt lat="43.702223356465105" lon="11.899711084721822"><ele>775.0</ele><time>2026-04-19T11:43:24.999Z</time></trkpt><trkpt lat="43.70222048819074" lon="11.899856280670404"><ele>775.0</ele><time>2026-04-19T11:43:25.999Z</time></trkpt><trkpt lat="43.70228685004681" lon="11.900010146099373"><ele>775.0</ele><time>2026-04-19T11:43:26.999Z</time></trkpt><trkpt lat="43.70234306041763" lon="11.900156163472213"><ele>775.0</ele><time>2026-04-19T11:43:27.999Z</time></trkpt><trkpt lat="43.70235102287161" lon="11.900323505703167"><ele>776.0</ele><time>2026-04-19T11:43:28.999Z</time></trkpt><trkpt lat="43.702339977489416" lon="11.900502387265249"><ele>777.0</ele><time>2026-04-19T11:43:29.999Z</time></trkpt><trkpt lat="43.70228924797564" lon="11.900677501764731"><ele>778.0</ele><time>2026-04-19T11:43:30.999Z</time></trkpt><trkpt lat="43.70227135208863" lon="11.900860293560562"><ele>779.0</ele><time>2026-04-19T11:43:31.999Z</time></trkpt><trkpt lat="43.702262837303344" lon="11.901018047763154"><ele>778.4000000000001</ele><time>2026-04-19T11:43:32.999Z</time></trkpt><trkpt lat="43.70224371612747" lon="11.901148413868121"><ele>777.8</ele><time>2026-04-19T11:43:33.999Z</time></trkpt><trkpt lat="43.70220073374811" lon="11.901275918978618"><ele>777.2</ele><time>2026-04-19T11:43:34.999Z</time></trkpt><trkpt lat="43.70208242481059" lon="11.90130797018011"><ele>776.5999999999999</ele><time>2026-04-19T11:43:35.999Z</time></trkpt><trkpt lat="43.70197357979738" lon="11.901343175115269"><ele>776.0</ele><time>2026-04-19T11:43:36.999Z</time></trkpt><trkpt lat="43.70187671435987" lon="11.901409059297611"><ele>776.0</ele><time>2026-04-19T11:43:37.999Z</time></trkpt><trkpt lat="43.70180932563609" lon="11.90155887649766"><ele>776.0</ele><time>2026-04-19T11:43:38.999Z</time></trkpt><trkpt lat="43.701762151024" lon="11.901728304136075"><ele>776.0</ele><time>2026-04-19T11:43:39.999Z</time></trkpt><trkpt lat="43.70169295815432" lon="11.901896367956788"><ele>776.0</ele><time>2026-04-19T11:43:40.999Z</time></trkpt><trkpt lat="43.70159364019718" lon="11.902064158811692"><ele>779.25</ele><time>2026-04-19T11:43:41.999Z</time></trkpt><trkpt lat="43.70149459054038" lon="11.902240145192449"><ele>782.5</ele><time>2026-04-19T11:43:42.999Z</time></trkpt><trkpt lat="43.701406964491675" lon="11.902388645906788"><ele>785.75</ele><time>2026-04-19T11:43:43.999Z</time></trkpt><trkpt lat="43.70131327540849" lon="11.902500541914936"><ele>789.0</ele><time>2026-04-19T11:43:44.999Z</time></trkpt><trkpt lat="43.70119983038786" lon="11.902566997682863"><ele>788.75</ele><time>2026-04-19T11:43:45.999Z</time></trkpt><trkpt lat="43.70107564477511" lon="11.90260641096679"><ele>788.5</ele><time>2026-04-19T11:43:46.999Z</time></trkpt><trkpt lat="43.70095330598796" lon="11.90263196734505"><ele>788.25</ele><time>2026-04-19T11:43:47.999Z</time></trkpt><trkpt lat="43.7008355075877" lon="11.902611929362113"><ele>788.0</ele><time>2026-04-19T11:43:48.999Z</time></trkpt><trkpt lat="43.70072214812195" lon="11.902527606221964"><ele>788.0</ele><time>2026-04-19T11:43:49.999Z</time></trkpt><trkpt lat="43.70060835191875" lon="11.902427806234186"><ele>788.0</ele><time>2026-04-19T11:43:50.999Z</time></trkpt><trkpt lat="43.7004950414853" lon="11.90236771965759"><ele>788.0</ele><time>2026-04-19T11:43:51.999Z</time></trkpt><trkpt lat="43.70038265067204" lon="11.902321630570134"><ele>788.0</ele><time>2026-04-19T11:43:52.999Z</time></trkpt><trkpt lat="43.700264226509965" lon="11.902333617868365"><ele>787.75</ele><time>2026-04-19T11:43:53.999Z</time></trkpt><trkpt lat="43.70015976978596" lon="11.902377116197757"><ele>787.5</ele><time>2026-04-19T11:43:54.999Z</time></trkpt><trkpt lat="43.700101247596926" lon="11.902514760950154"><ele>787.25</ele><time>2026-04-19T11:43:55.999Z</time></trkpt><trkpt lat="43.700073775406985" lon="11.902668555262649"><ele>787.0</ele><time>2026-04-19T11:43:56.999Z</time></trkpt><trkpt lat="43.70008191358428" lon="11.902830207706046"><ele>788.5</ele><time>2026-04-19T11:43:57.999Z</time></trkpt><trkpt lat="43.70013381517332" lon="11.90299039412012"><ele>790.0</ele><time>2026-04-19T11:43:58.999Z</time></trkpt><trkpt lat="43.70023334551932" lon="11.903149210028591"><ele>791.5</ele><time>2026-04-19T11:43:59.999Z</time></trkpt><trkpt lat="43.70029947504459" lon="11.903311730395423"><ele>793.0</ele><time>2026-04-19T11:44:00.999Z</time></trkpt><trkpt lat="43.70034641758545" lon="11.90347138944693"><ele>797.8</ele><time>2026-04-19T11:44:01.999Z</time></trkpt><trkpt lat="43.70041032671048" lon="11.903606345017895"><ele>802.5999999999999</ele><time>2026-04-19T11:44:02.998Z</time></trkpt><trkpt lat="43.700436974913046" lon="11.903737489496901"><ele>807.4000000000001</ele><time>2026-04-19T11:44:03.998Z</time></trkpt><trkpt lat="43.70043401879418" lon="11.903861467779533"><ele>812.2</ele><time>2026-04-19T11:44:04.998Z</time></trkpt><trkpt lat="43.700365193094825" lon="11.903965066148075"><ele>817.0</ele><time>2026-04-19T11:44:05.998Z</time></trkpt><trkpt lat="43.70028116483248" lon="11.904069725764066"><ele>817.5</ele><time>2026-04-19T11:44:06.998Z</time></trkpt><trkpt lat="43.700197530558505" lon="11.90421230289927"><ele>818.0</ele><time>2026-04-19T11:44:07.998Z</time></trkpt><trkpt lat="43.70008298320523" lon="11.904346330363744"><ele>818.5</ele><time>2026-04-19T11:44:09Z</time></trkpt><trkpt lat="43.69998840765688" lon="11.904490541877845"><ele>819.0</ele><time>2026-04-19T11:44:10Z</time></trkpt><trkpt lat="43.6999073032786" lon="11.90460700508247"><ele>819.0</ele><time>2026-04-19T11:44:11Z</time></trkpt><trkpt lat="43.699812402179646" lon="11.90467511803903"><ele>819.0</ele><time>2026-04-19T11:44:12Z</time></trkpt><trkpt lat="43.699690188782924" lon="11.90469585061384"><ele>819.0</ele><time>2026-04-19T11:44:13Z</time></trkpt><trkpt lat="43.699551066114594" lon="11.90471588996782"><ele>819.0</ele><time>2026-04-19T11:44:14Z</time></trkpt><trkpt lat="43.69941799054053" lon="11.904794320251684"><ele>820.75</ele><time>2026-04-19T11:44:15Z</time></trkpt><trkpt lat="43.699292832637354" lon="11.904889403038778"><ele>822.5</ele><time>2026-04-19T11:44:16Z</time></trkpt><trkpt lat="43.699192538472964" lon="11.90503952303679"><ele>824.25</ele><time>2026-04-19T11:44:17Z</time></trkpt><trkpt lat="43.699125591835816" lon="11.905180268850875"><ele>826.0</ele><time>2026-04-19T11:44:18Z</time></trkpt><trkpt lat="43.69906411497668" lon="11.905287942219024"><ele>826.0</ele><time>2026-04-19T11:44:19Z</time></trkpt><trkpt lat="43.698970272867896" lon="11.905338221815716"><ele>826.0</ele><time>2026-04-19T11:44:20Z</time></trkpt><trkpt lat="43.69885358922569" lon="11.905344113710568"><ele>826.0</ele><time>2026-04-19T11:44:21Z</time></trkpt><trkpt lat="43.69874196193752" lon="11.905366017570467"><ele>826.0</ele><time>2026-04-19T11:44:22Z</time></trkpt><trkpt lat="43.69865773559577" lon="11.905398995617714"><ele>826.0</ele><time>2026-04-19T11:44:23Z</time></trkpt><trkpt lat="43.69860591499366" lon="11.905481959523074"><ele>826.0</ele><time>2026-04-19T11:44:24Z</time></trkpt><trkpt lat="43.69857587253387" lon="11.905584168520775"><ele>826.0</ele><time>2026-04-19T11:44:25Z</time></trkpt><trkpt lat="43.69861760510972" lon="11.905706437819182"><ele>826.0</ele><time>2026-04-19T11:44:26Z</time></trkpt><trkpt lat="43.69871030505545" lon="11.905764746220589"><ele>826.0</ele><time>2026-04-19T11:44:27Z</time></trkpt><trkpt lat="43.698809616906765" lon="11.905773480461459"><ele>826.0</ele><time>2026-04-19T11:44:28Z</time></trkpt><trkpt lat="43.698923574822366" lon="11.90573415617149"><ele>826.0</ele><time>2026-04-19T11:44:29Z</time></trkpt><trkpt lat="43.69905039041799" lon="11.905669485611272"><ele>826.0</ele><time>2026-04-19T11:44:30Z</time></trkpt><trkpt lat="43.69917934820005" lon="11.905592398402431"><ele>826.0</ele><time>2026-04-19T11:44:31Z</time></trkpt><trkpt lat="43.69930258896675" lon="11.905479461036407"><ele>826.0</ele><time>2026-04-19T11:44:32Z</time></trkpt><trkpt lat="43.69942085710099" lon="11.905371193637327"><ele>830.6666666666666</ele><time>2026-04-19T11:44:33Z</time></trkpt><trkpt lat="43.69956600487457" lon="11.90531130046751"><ele>835.3333333333333</ele><time>2026-04-19T11:44:34Z</time></trkpt><trkpt lat="43.69972879275528" lon="11.905295363169811"><ele>840.0</ele><time>2026-04-19T11:44:35Z</time></trkpt><trkpt lat="43.69989266147248" lon="11.905281525565485"><ele>840.0</ele><time>2026-04-19T11:44:36Z</time></trkpt><trkpt lat="43.700062217850416" lon="11.905255378385034"><ele>840.0</ele><time>2026-04-19T11:44:37Z</time></trkpt><trkpt lat="43.70023802031508" lon="11.905234971394778"><ele>840.0</ele><time>2026-04-19T11:44:38Z</time></trkpt><trkpt lat="43.700396640665254" lon="11.905218796877367"><ele>842.75</ele><time>2026-04-19T11:44:39Z</time></trkpt><trkpt lat="43.70053872400908" lon="11.905200019627728"><ele>845.5</ele><time>2026-04-19T11:44:40Z</time></trkpt><trkpt lat="43.700665044546014" lon="11.905187731296666"><ele>848.25</ele><time>2026-04-19T11:44:41Z</time></trkpt><trkpt lat="43.70077636904314" lon="11.905161254898049"><ele>851.0</ele><time>2026-04-19T11:44:42Z</time></trkpt><trkpt lat="43.70086834196264" lon="11.905097542301803"><ele>849.8</ele><time>2026-04-19T11:44:43Z</time></trkpt><trkpt lat="43.70093626413196" lon="11.904984525673484"><ele>848.5999999999999</ele><time>2026-04-19T11:44:44Z</time></trkpt><trkpt lat="43.70096913747423" lon="11.904841920842692"><ele>847.4</ele><time>2026-04-19T11:44:45Z</time></trkpt><trkpt lat="43.70099129552006" lon="11.904712257253442"><ele>846.2</ele><time>2026-04-19T11:44:46Z</time></trkpt><trkpt lat="43.70104455232309" lon="11.904596754560615"><ele>845.0</ele><time>2026-04-19T11:44:47Z</time></trkpt><trkpt lat="43.701128841314684" lon="11.904507648169522"><ele>845.0</ele><time>2026-04-19T11:44:48Z</time></trkpt><trkpt lat="43.70124010203147" lon="11.904463910996528"><ele>845.0</ele><time>2026-04-19T11:44:49Z</time></trkpt><trkpt lat="43.701365496604595" lon="11.904447169946131"><ele>845.0</ele><time>2026-04-19T11:44:50Z</time></trkpt><trkpt lat="43.701504886605626" lon="11.904440830293638"><ele>845.0</ele><time>2026-04-19T11:44:51Z</time></trkpt><trkpt lat="43.7016421550876" lon="11.90443977364611"><ele>845.0</ele><time>2026-04-19T11:44:52Z</time></trkpt><trkpt lat="43.70176735789286" lon="11.90443653842178"><ele>845.0</ele><time>2026-04-19T11:44:53Z</time></trkpt><trkpt lat="43.701882425963404" lon="11.904469174555787"><ele>845.0</ele><time>2026-04-19T11:44:54Z</time></trkpt><trkpt lat="43.70199530299695" lon="11.904552415264153"><ele>845.0</ele><time>2026-04-19T11:44:55Z</time></trkpt><trkpt lat="43.702095846095794" lon="11.904678274390331"><ele>843.6666666666667</ele><time>2026-04-19T11:44:56Z</time></trkpt><trkpt lat="43.70220074858252" lon="11.904826718148426"><ele>842.3333333333333</ele><time>2026-04-19T11:44:57Z</time></trkpt><trkpt lat="43.70233073811886" lon="11.904971028561755"><ele>841.0</ele><time>2026-04-19T11:44:58Z</time></trkpt><trkpt lat="43.702491702849514" lon="11.905109878378235"><ele>845.3333333333333</ele><time>2026-04-19T11:44:59Z</time></trkpt><trkpt lat="43.702658026934124" lon="11.905234521402793"><ele>849.6666666666667</ele><time>2026-04-19T11:45:00Z</time></trkpt><trkpt lat="43.702799146805894" lon="11.90534219251693"><ele>854.0</ele><time>2026-04-19T11:45:01Z</time></trkpt><trkpt lat="43.70292786893195" lon="11.905441152041593"><ele>854.0</ele><time>2026-04-19T11:45:02Z</time></trkpt><trkpt lat="43.70306447850023" lon="11.905523092382573"><ele>854.0</ele><time>2026-04-19T11:45:03Z</time></trkpt><trkpt lat="43.703208024004745" lon="11.90556700870217"><ele>854.0</ele><time>2026-04-19T11:45:04Z</time></trkpt><trkpt lat="43.70335592272096" lon="11.905555855257704"><ele>854.0</ele><time>2026-04-19T11:45:05Z</time></trkpt><trkpt lat="43.70348888274498" lon="11.905555514501842"><ele>853.25</ele><time>2026-04-19T11:45:06Z</time></trkpt><trkpt lat="43.70361855648939" lon="11.90562198560734"><ele>852.5</ele><time>2026-04-19T11:45:07Z</time></trkpt><trkpt lat="43.703743094239364" lon="11.90572032152981"><ele>851.75</ele><time>2026-04-19T11:45:08Z</time></trkpt><trkpt lat="43.703848197507824" lon="11.905849850387382"><ele>851.0</ele><time>2026-04-19T11:45:09Z</time></trkpt><trkpt lat="43.703911637248474" lon="11.906008082180884"><ele>851.0</ele><time>2026-04-19T11:45:10Z</time></trkpt><trkpt lat="43.7039326048335" lon="11.906197364207603"><ele>851.0</ele><time>2026-04-19T11:45:11Z</time></trkpt><trkpt lat="43.7038940891284" lon="11.90639917180719"><ele>851.0</ele><time>2026-04-19T11:45:12Z</time></trkpt><trkpt lat="43.70384310766528" lon="11.90662162525163"><ele>852.6666666666667</ele><time>2026-04-19T11:45:13Z</time></trkpt><trkpt lat="43.70379080137395" lon="11.90687522490308"><ele>854.3333333333333</ele><time>2026-04-19T11:45:14Z</time></trkpt><trkpt lat="43.70372813939408" lon="11.907129336546978"><ele>856.0</ele><time>2026-04-19T11:45:14.999Z</time></trkpt><trkpt lat="43.703684397280554" lon="11.90735731299087"><ele>858.3333333333333</ele><time>2026-04-19T11:45:15.999Z</time></trkpt><trkpt lat="43.70366547837931" lon="11.907578667751467"><ele>860.6666666666667</ele><time>2026-04-19T11:45:16.999Z</time></trkpt><trkpt lat="43.703677483813365" lon="11.907806322058986"><ele>863.0</ele><time>2026-04-19T11:45:17.999Z</time></trkpt><trkpt lat="43.703718573388144" lon="11.908029119461567"><ele>863.0</ele><time>2026-04-19T11:45:18.999Z</time></trkpt><trkpt lat="43.703796963062466" lon="11.908238913202839"><ele>863.0</ele><time>2026-04-19T11:45:19.999Z</time></trkpt><trkpt lat="43.70390925018986" lon="11.908443529635347"><ele>863.0</ele><time>2026-04-19T11:45:20.999Z</time></trkpt><trkpt lat="43.704027015142856" lon="11.908645738312382"><ele>865.3333333333334</ele><time>2026-04-19T11:45:21.999Z</time></trkpt><trkpt lat="43.70414305593851" lon="11.908861420035796"><ele>867.6666666666667</ele><time>2026-04-19T11:45:22.999Z</time></trkpt><trkpt lat="43.70425034981546" lon="11.909057798172459"><ele>870.0</ele><time>2026-04-19T11:45:23.999Z</time></trkpt><trkpt lat="43.704349593999176" lon="11.909230081293648"><ele>871.0</ele><time>2026-04-19T11:45:24.999Z</time></trkpt><trkpt lat="43.70443692258242" lon="11.909389977447116"><ele>872.0</ele><time>2026-04-19T11:45:25.999Z</time></trkpt><trkpt lat="43.70450815240712" lon="11.909558151574917"><ele>873.0</ele><time>2026-04-19T11:45:26.999Z</time></trkpt><trkpt lat="43.70454858477976" lon="11.909744048418117"><ele>874.0</ele><time>2026-04-19T11:45:27.999Z</time></trkpt><trkpt lat="43.70455399163133" lon="11.909915537683537"><ele>876.25</ele><time>2026-04-19T11:45:28.999Z</time></trkpt><trkpt lat="43.70452737248346" lon="11.910085787980572"><ele>878.5</ele><time>2026-04-19T11:45:29.999Z</time></trkpt><trkpt lat="43.70446284092232" lon="11.910245878594719"><ele>880.75</ele><time>2026-04-19T11:45:30.999Z</time></trkpt><trkpt lat="43.70434955810446" lon="11.91036352182366"><ele>883.0</ele><time>2026-04-19T11:45:31.999Z</time></trkpt><trkpt lat="43.70422034714471" lon="11.910459133901448"><ele>884.6666666666666</ele><time>2026-04-19T11:45:32.999Z</time></trkpt><trkpt lat="43.70407299016184" lon="11.910554889487848"><ele>886.3333333333333</ele><time>2026-04-19T11:45:33.999Z</time></trkpt><trkpt lat="43.70391972456373" lon="11.91064991414048"><ele>888.0</ele><time>2026-04-19T11:45:34.999Z</time></trkpt><trkpt lat="43.70375209706284" lon="11.910725282593877"><ele>888.0</ele><time>2026-04-19T11:45:35.999Z</time></trkpt><trkpt lat="43.70356793310467" lon="11.9107639572417"><ele>888.0</ele><time>2026-04-19T11:45:36.998Z</time></trkpt><trkpt lat="43.70337332994981" lon="11.910770063596086"><ele>888.0</ele><time>2026-04-19T11:45:37.998Z</time></trkpt><trkpt lat="43.703180989269164" lon="11.910723055975055"><ele>888.0</ele><time>2026-04-19T11:45:38.998Z</time></trkpt><trkpt lat="43.70298500370623" lon="11.910647342869474"><ele>888.0</ele><time>2026-04-19T11:45:39.998Z</time></trkpt><trkpt lat="43.70278790992835" lon="11.910587676274684"><ele>888.0</ele><time>2026-04-19T11:45:40.998Z</time></trkpt><trkpt lat="43.702600369267884" lon="11.91051168843094"><ele>890.3333333333333</ele><time>2026-04-19T11:45:41.998Z</time></trkpt><trkpt lat="43.70241884492184" lon="11.910430445988826"><ele>892.6666666666666</ele><time>2026-04-19T11:45:42.998Z</time></trkpt><trkpt lat="43.70222220459499" lon="11.910407316439704"><ele>895.0</ele><time>2026-04-19T11:45:43.998Z</time></trkpt><trkpt lat="43.702014092795054" lon="11.910434948357086"><ele>897.0</ele><time>2026-04-19T11:45:44.998Z</time></trkpt><trkpt lat="43.70180546865787" lon="11.910468564540965"><ele>899.0</ele><time>2026-04-19T11:45:45.998Z</time></trkpt><trkpt lat="43.701603708130904" lon="11.910502514964959"><ele>901.0</ele><time>2026-04-19T11:45:46.998Z</time></trkpt><trkpt lat="43.70141323666433" lon="11.91055729160449"><ele>901.0</ele><time>2026-04-19T11:45:47.998Z</time></trkpt><trkpt lat="43.70122807016123" lon="11.910582885494689"><ele>901.0</ele><time>2026-04-19T11:45:48.998Z</time></trkpt><trkpt lat="43.70105117895362" lon="11.910618189865236"><ele>901.0</ele><time>2026-04-19T11:45:49.998Z</time></trkpt><trkpt lat="43.7008750732512" lon="11.910626693474844"><ele>902.0</ele><time>2026-04-19T11:45:50.998Z</time></trkpt><trkpt lat="43.700712483568246" lon="11.910655316425503"><ele>903.0</ele><time>2026-04-19T11:45:51.998Z</time></trkpt><trkpt lat="43.70056854118737" lon="11.910699036736592"><ele>904.0</ele><time>2026-04-19T11:45:52.998Z</time></trkpt><trkpt lat="43.70043127548708" lon="11.910714513518414"><ele>905.0</ele><time>2026-04-19T11:45:53.998Z</time></trkpt><trkpt lat="43.700293709433524" lon="11.910738977723812"><ele>905.5</ele><time>2026-04-19T11:45:54.998Z</time></trkpt><trkpt lat="43.700157403650785" lon="11.910771102186612"><ele>906.0</ele><time>2026-04-19T11:45:55.998Z</time></trkpt><trkpt lat="43.70001713056978" lon="11.910817246288572"><ele>906.5</ele><time>2026-04-19T11:45:56.998Z</time></trkpt><trkpt lat="43.69987760654239" lon="11.910892491814705"><ele>907.0</ele><time>2026-04-19T11:45:57.998Z</time></trkpt><trkpt lat="43.69975106847508" lon="11.910997279395174"><ele>908.25</ele><time>2026-04-19T11:45:58.998Z</time></trkpt><trkpt lat="43.69963676407328" lon="11.911127405776417"><ele>909.5</ele><time>2026-04-19T11:45:59.998Z</time></trkpt><trkpt lat="43.69953872438383" lon="11.911275713817824"><ele>910.75</ele><time>2026-04-19T11:46:00.998Z</time></trkpt><trkpt lat="43.69945594662051" lon="11.911440095656427"><ele>912.0</ele><time>2026-04-19T11:46:01.998Z</time></trkpt><trkpt lat="43.699390078399226" lon="11.911615080203289"><ele>914.75</ele><time>2026-04-19T11:46:02.998Z</time></trkpt><trkpt lat="43.699333812382825" lon="11.911793220407585"><ele>917.5</ele><time>2026-04-19T11:46:03.998Z</time></trkpt><trkpt lat="43.69927487761516" lon="11.911964370309278"><ele>920.25</ele><time>2026-04-19T11:46:04.998Z</time></trkpt><trkpt lat="43.69920480010858" lon="11.9121237609948"><ele>923.0</ele><time>2026-04-19T11:46:05.998Z</time></trkpt><trkpt lat="43.699126796989816" lon="11.912249177667137"><ele>923.0</ele><time>2026-04-19T11:46:06.998Z</time></trkpt><trkpt lat="43.699050625896675" lon="11.91235293406413"><ele>923.0</ele><time>2026-04-19T11:46:07.998Z</time></trkpt><trkpt lat="43.69897962931967" lon="11.912445655320878"><ele>923.0</ele><time>2026-04-19T11:46:08.998Z</time></trkpt><trkpt lat="43.69892065409358" lon="11.912533343098906"><ele>923.0</ele><time>2026-04-19T11:46:09.998Z</time></trkpt><trkpt lat="43.69886948879957" lon="11.912632091704982"><ele>923.0</ele><time>2026-04-19T11:46:10.998Z</time></trkpt><trkpt lat="43.69884667785169" lon="11.91274615525527"><ele>925.5999999999999</ele><time>2026-04-19T11:46:11.998Z</time></trkpt><trkpt lat="43.698865457340524" lon="11.912862299197027"><ele>928.1999999999999</ele><time>2026-04-19T11:46:12.997Z</time></trkpt><trkpt lat="43.69892297230496" lon="11.912952374439211"><ele>930.8</ele><time>2026-04-19T11:46:13.997Z</time></trkpt><trkpt lat="43.69900839059678" lon="11.912995831434094"><ele>933.4</ele><time>2026-04-19T11:46:15Z</time></trkpt><trkpt lat="43.69911024166282" lon="11.912992275901324"><ele>936.0</ele><time>2026-04-19T11:46:16Z</time></trkpt><trkpt lat="43.699218549815456" lon="11.912940997586027"><ele>936.0</ele><time>2026-04-19T11:46:16.999Z</time></trkpt><trkpt lat="43.69932429741183" lon="11.912840450368773"><ele>936.0</ele><time>2026-04-19T11:46:18Z</time></trkpt><trkpt lat="43.699429225348" lon="11.912722084637998"><ele>936.0</ele><time>2026-04-19T11:46:19Z</time></trkpt><trkpt lat="43.699530973032594" lon="11.912616672904578"><ele>936.0</ele><time>2026-04-19T11:46:20Z</time></trkpt><trkpt lat="43.699631132236235" lon="11.9125235404315"><ele>935.25</ele><time>2026-04-19T11:46:21Z</time></trkpt><trkpt lat="43.69973632813104" lon="11.912436107293875"><ele>934.5</ele><time>2026-04-19T11:46:22Z</time></trkpt><trkpt lat="43.69985200473495" lon="11.912368592597455"><ele>933.75</ele><time>2026-04-19T11:46:23Z</time></trkpt><trkpt lat="43.69997868795566" lon="11.912337079137297"><ele>933.0</ele><time>2026-04-19T11:46:24Z</time></trkpt><trkpt lat="43.700113424066956" lon="11.912345089769072"><ele>933.0</ele><time>2026-04-19T11:46:25Z</time></trkpt><trkpt lat="43.70024578610683" lon="11.91239722194519"><ele>933.0</ele><time>2026-04-19T11:46:26Z</time></trkpt><trkpt lat="43.700363092111566" lon="11.912495515095104"><ele>933.0</ele><time>2026-04-19T11:46:27Z</time></trkpt><trkpt lat="43.70046815505694" lon="11.912634529422352"><ele>933.0</ele><time>2026-04-19T11:46:28Z</time></trkpt><trkpt lat="43.70057211922638" lon="11.912807514173034"><ele>934.6666666666667</ele><time>2026-04-19T11:46:29Z</time></trkpt><trkpt lat="43.700678564246324" lon="11.912989114572971"><ele>936.3333333333334</ele><time>2026-04-19T11:46:30Z</time></trkpt><trkpt lat="43.70078619279638" lon="11.913169814100375"><ele>938.0</ele><time>2026-04-19T11:46:31Z</time></trkpt><trkpt lat="43.70089712990517" lon="11.913350997262716"><ele>939.3333333333334</ele><time>2026-04-19T11:46:31.999Z</time></trkpt><trkpt lat="43.701015134105994" lon="11.91356326774218"><ele>940.6666666666667</ele><time>2026-04-19T11:46:32.999Z</time></trkpt><trkpt lat="43.70115397504383" lon="11.913796962569686"><ele>942.0</ele><time>2026-04-19T11:46:33.999Z</time></trkpt><trkpt lat="43.70130573086818" lon="11.914024103417324"><ele>947.0</ele><time>2026-04-19T11:46:34.999Z</time></trkpt><trkpt lat="43.70142779716391" lon="11.914259671473092"><ele>952.0</ele><time>2026-04-19T11:46:35.999Z</time></trkpt><trkpt lat="43.70155626341015" lon="11.914476709415505"><ele>957.0</ele><time>2026-04-19T11:46:36.999Z</time></trkpt><trkpt lat="43.70168360920114" lon="11.914681230654097"><ele>957.0</ele><time>2026-04-19T11:46:37.999Z</time></trkpt><trkpt lat="43.70182772966902" lon="11.914865846832893"><ele>957.0</ele><time>2026-04-19T11:46:38.999Z</time></trkpt><trkpt lat="43.70199345019913" lon="11.915026355445043"><ele>957.0</ele><time>2026-04-19T11:46:39.999Z</time></trkpt><trkpt lat="43.70215440766519" lon="11.915151494435918"><ele>958.3333333333333</ele><time>2026-04-19T11:46:40.999Z</time></trkpt><trkpt lat="43.702301102527976" lon="11.915246165467432"><ele>959.6666666666666</ele><time>2026-04-19T11:46:41.999Z</time></trkpt><trkpt lat="43.70243276475308" lon="11.915346556400698"><ele>961.0</ele><time>2026-04-19T11:46:42.999Z</time></trkpt><trkpt lat="43.70255248991019" lon="11.915492933282748"><ele>961.0</ele><time>2026-04-19T11:46:43.999Z</time></trkpt><trkpt lat="43.702648185413246" lon="11.915674320943854"><ele>961.0</ele><time>2026-04-19T11:46:44.999Z</time></trkpt><trkpt lat="43.702702471876435" lon="11.915879517046358"><ele>961.0</ele><time>2026-04-19T11:46:45.999Z</time></trkpt><trkpt lat="43.70273040679242" lon="11.916114517223003"><ele>963.0</ele><time>2026-04-19T11:46:46.999Z</time></trkpt><trkpt lat="43.702735415318564" lon="11.916371803793707"><ele>965.0</ele><time>2026-04-19T11:46:47.999Z</time></trkpt><trkpt lat="43.70273727657525" lon="11.916641750027802"><ele>967.0</ele><time>2026-04-19T11:46:48.999Z</time></trkpt><trkpt lat="43.70273781935316" lon="11.916890655292207"><ele>970.0</ele><time>2026-04-19T11:46:49.999Z</time></trkpt><trkpt lat="43.702738941674845" lon="11.917110736133933"><ele>973.0</ele><time>2026-04-19T11:46:50.999Z</time></trkpt><trkpt lat="43.7027401713206" lon="11.917305191490458"><ele>976.0</ele><time>2026-04-19T11:46:51.999Z</time></trkpt><trkpt lat="43.702740690295116" lon="11.917474300662558"><ele>979.0</ele><time>2026-04-19T11:46:52.999Z</time></trkpt><trkpt lat="43.70275619704811" lon="11.917638603237707"><ele>980.25</ele><time>2026-04-19T11:46:53.999Z</time></trkpt><trkpt lat="43.70280519131365" lon="11.917788651414744"><ele>981.5</ele><time>2026-04-19T11:46:54.999Z</time></trkpt><trkpt lat="43.702891583183515" lon="11.917912260504117"><ele>982.75</ele><time>2026-04-19T11:46:55.999Z</time></trkpt><trkpt lat="43.703008128427996" lon="11.917993981797796"><ele>984.0</ele><time>2026-04-19T11:46:56.999Z</time></trkpt><trkpt lat="43.703150899755734" lon="11.918043739111864"><ele>984.0</ele><time>2026-04-19T11:46:57.999Z</time></trkpt><trkpt lat="43.70330739863628" lon="11.918091074557795"><ele>984.0</ele><time>2026-04-19T11:46:58.999Z</time></trkpt><trkpt lat="43.703465034807444" lon="11.91816245800233"><ele>984.0</ele><time>2026-04-19T11:46:59.999Z</time></trkpt><trkpt lat="43.70361773562229" lon="11.91825796267656"><ele>984.0</ele><time>2026-04-19T11:47:00.999Z</time></trkpt><trkpt lat="43.703764327033696" lon="11.918367633455645"><ele>984.0</ele><time>2026-04-19T11:47:01.999Z</time></trkpt><trkpt lat="43.70390319361912" lon="11.918509005507534"><ele>984.0</ele><time>2026-04-19T11:47:02.999Z</time></trkpt><trkpt lat="43.70402427769692" lon="11.91869441714347"><ele>984.0</ele><time>2026-04-19T11:47:03.999Z</time></trkpt><trkpt lat="43.704123822358106" lon="11.918910731466537"><ele>984.0</ele><time>2026-04-19T11:47:04.999Z</time></trkpt><trkpt lat="43.704164431477054" lon="11.919137522666926"><ele>984.0</ele><time>2026-04-19T11:47:05.999Z</time></trkpt><trkpt lat="43.70420918321012" lon="11.919376864151639"><ele>986.6666666666667</ele><time>2026-04-19T11:47:06.999Z</time></trkpt><trkpt lat="43.7042288091559" lon="11.919642685045721"><ele>989.3333333333334</ele><time>2026-04-19T11:47:07.999Z</time></trkpt><trkpt lat="43.70426725265265" lon="11.9199110952369"><ele>992.0</ele><time>2026-04-19T11:47:08.999Z</time></trkpt><trkpt lat="43.70430249292937" lon="11.920146552218906"><ele>992.0</ele><time>2026-04-19T11:47:09.999Z</time></trkpt><trkpt lat="43.70433682013458" lon="11.920378167914741"><ele>992.0</ele><time>2026-04-19T11:47:10.999Z</time></trkpt><trkpt lat="43.70438421708062" lon="11.9205952620261"><ele>992.0</ele><time>2026-04-19T11:47:11.999Z</time></trkpt><trkpt lat="43.704462011540805" lon="11.920811819398763"><ele>994.0</ele><time>2026-04-19T11:47:12.999Z</time></trkpt><trkpt lat="43.704567476913844" lon="11.921028181917858"><ele>996.0</ele><time>2026-04-19T11:47:13.999Z</time></trkpt><trkpt lat="43.704696181228655" lon="11.921248684747255"><ele>998.0</ele><time>2026-04-19T11:47:14.999Z</time></trkpt><trkpt lat="43.70483526966381" lon="11.92148189193316"><ele>998.0</ele><time>2026-04-19T11:47:15.999Z</time></trkpt><trkpt lat="43.70498586781179" lon="11.921723787134178"><ele>998.0</ele><time>2026-04-19T11:47:16.999Z</time></trkpt><trkpt lat="43.70513544846933" lon="11.92197208479318"><ele>998.6666666666667</ele><time>2026-04-19T11:47:17.999Z</time></trkpt><trkpt lat="43.705271525691614" lon="11.922205583986205"><ele>999.3333333333333</ele><time>2026-04-19T11:47:18.999Z</time></trkpt><trkpt lat="43.70540020116189" lon="11.922421414482058"><ele>1000.0</ele><time>2026-04-19T11:47:19.999Z</time></trkpt><trkpt lat="43.70552903483524" lon="11.922628802486939"><ele>1002.0</ele><time>2026-04-19T11:47:20.999Z</time></trkpt><trkpt lat="43.70565552810789" lon="11.922827305332529"><ele>1004.0</ele><time>2026-04-19T11:47:21.999Z</time></trkpt><trkpt lat="43.70577431327454" lon="11.923019261685607"><ele>1006.0</ele><time>2026-04-19T11:47:22.999Z</time></trkpt><trkpt lat="43.70587840960167" lon="11.923196742205903"><ele>1006.0</ele><time>2026-04-19T11:47:23.999Z</time></trkpt><trkpt lat="43.705962902040575" lon="11.923384652951803"><ele>1006.0</ele><time>2026-04-19T11:47:24.999Z</time></trkpt><trkpt lat="43.70602389073693" lon="11.92359403379679"><ele>1006.0</ele><time>2026-04-19T11:47:25.999Z</time></trkpt><trkpt lat="43.70606357075784" lon="11.923821638662865"><ele>1009.0</ele><time>2026-04-19T11:47:26.999Z</time></trkpt><trkpt lat="43.70608265024883" lon="11.924059864083144"><ele>1012.0</ele><time>2026-04-19T11:47:27.999Z</time></trkpt><trkpt lat="43.70607394694311" lon="11.924299899733713"><ele>1015.0</ele><time>2026-04-19T11:47:28.998Z</time></trkpt><trkpt lat="43.70603405759434" lon="11.924538789469269"><ele>1015.0</ele><time>2026-04-19T11:47:29.998Z</time></trkpt><trkpt lat="43.70596220911945" lon="11.924776128927725"><ele>1015.0</ele><time>2026-04-19T11:47:30.998Z</time></trkpt><trkpt lat="43.7058576577628" lon="11.92501746338729"><ele>1015.0</ele><time>2026-04-19T11:47:31.998Z</time></trkpt><trkpt lat="43.705730790237524" lon="11.925258189404895"><ele>1018.3333333333333</ele><time>2026-04-19T11:47:32.998Z</time></trkpt><trkpt lat="43.70559961954772" lon="11.92550895485965"><ele>1021.6666666666667</ele><time>2026-04-19T11:47:33.998Z</time></trkpt><trkpt lat="43.70547916229568" lon="11.925759366095217"><ele>1025.0</ele><time>2026-04-19T11:47:34.998Z</time></trkpt><trkpt lat="43.705358411405555" lon="11.926012137914158"><ele>1024.0</ele><time>2026-04-19T11:47:35.998Z</time></trkpt><trkpt lat="43.70523730324032" lon="11.926263010663163"><ele>1023.0</ele><time>2026-04-19T11:47:36.998Z</time></trkpt><trkpt lat="43.70511635287816" lon="11.926512172629993"><ele>1022.0</ele><time>2026-04-19T11:47:37.998Z</time></trkpt><trkpt lat="43.70499402917511" lon="11.9267619482702"><ele>1024.0</ele><time>2026-04-19T11:47:38.998Z</time></trkpt><trkpt lat="43.7048739304337" lon="11.927013011904537"><ele>1026.0</ele><time>2026-04-19T11:47:39.998Z</time></trkpt><trkpt lat="43.70475498185172" lon="11.927260492864502"><ele>1028.0</ele><time>2026-04-19T11:47:40.998Z</time></trkpt><trkpt lat="43.704635574770506" lon="11.927508789605733"><ele>1029.3333333333335</ele><time>2026-04-19T11:47:41.998Z</time></trkpt><trkpt lat="43.704505101246454" lon="11.927736542362872"><ele>1030.6666666666667</ele><time>2026-04-19T11:47:42.998Z</time></trkpt><trkpt lat="43.7043957506579" lon="11.927967970056196"><ele>1032.0</ele><time>2026-04-19T11:47:43.998Z</time></trkpt><trkpt lat="43.704290072377766" lon="11.92818810149615"><ele>1029.0</ele><time>2026-04-19T11:47:44.998Z</time></trkpt><trkpt lat="43.704190260020845" lon="11.928391697878684"><ele>1026.0</ele><time>2026-04-19T11:47:45.998Z</time></trkpt><trkpt lat="43.70410001424366" lon="11.928574471999204"><ele>1023.0</ele><time>2026-04-19T11:47:46.998Z</time></trkpt><trkpt lat="43.703972940203904" lon="11.92868926433927"><ele>1023.0</ele><time>2026-04-19T11:47:47.998Z</time></trkpt><trkpt lat="43.70384037679053" lon="11.928795427204546"><ele>1023.0</ele><time>2026-04-19T11:47:48.998Z</time></trkpt><trkpt lat="43.70369891464128" lon="11.928852061768346"><ele>1023.0</ele><time>2026-04-19T11:47:49.998Z</time></trkpt><trkpt lat="43.703536736803706" lon="11.928888742214703"><ele>1019.6666666666667</ele><time>2026-04-19T11:47:50.998Z</time></trkpt><trkpt lat="43.703355807972926" lon="11.92891780004008"><ele>1016.3333333333334</ele><time>2026-04-19T11:47:51.998Z</time></trkpt><trkpt lat="43.703149362200904" lon="11.928950079288295"><ele>1013.0</ele><time>2026-04-19T11:47:52.998Z</time></trkpt><trkpt lat="43.702926504755006" lon="11.92898763475451"><ele>1010.0</ele><time>2026-04-19T11:47:53.998Z</time></trkpt><trkpt lat="43.70272204657649" lon="11.929022089181766"><ele>1007.0</ele><time>2026-04-19T11:47:54.998Z</time></trkpt><trkpt lat="43.702535474033155" lon="11.929075986553578"><ele>1004.0</ele><time>2026-04-19T11:47:55.998Z</time></trkpt><trkpt lat="43.70235663169468" lon="11.929103949815826"><ele>1004.0</ele><time>2026-04-19T11:47:56.998Z</time></trkpt><trkpt lat="43.70219379229739" lon="11.92913030397136"><ele>1004.0</ele><time>2026-04-19T11:47:57.998Z</time></trkpt><trkpt lat="43.70204997534323" lon="11.929155283002173"><ele>1004.0</ele><time>2026-04-19T11:47:58.998Z</time></trkpt><trkpt lat="43.70191976082967" lon="11.92920573261553"><ele>1004.0</ele><time>2026-04-19T11:47:59.998Z</time></trkpt><trkpt lat="43.70180241990711" lon="11.929301949362928"><ele>1003.0</ele><time>2026-04-19T11:48:00.998Z</time></trkpt><trkpt lat="43.70171385769794" lon="11.929440563702133"><ele>1002.0</ele><time>2026-04-19T11:48:01.998Z</time></trkpt><trkpt lat="43.701650609420234" lon="11.92962230548918"><ele>1001.0</ele><time>2026-04-19T11:48:02.998Z</time></trkpt><trkpt lat="43.70162256828764" lon="11.929815804033375"><ele>1000.0</ele><time>2026-04-19T11:48:03.998Z</time></trkpt><trkpt lat="43.70163607420016" lon="11.930001060271438"><ele>997.3333333333333</ele><time>2026-04-19T11:48:04.998Z</time></trkpt><trkpt lat="43.70169470689814" lon="11.930193409841513"><ele>994.6666666666667</ele><time>2026-04-19T11:48:05.998Z</time></trkpt><trkpt lat="43.70178553612051" lon="11.93038992781322"><ele>992.0</ele><time>2026-04-19T11:48:06.998Z</time></trkpt><trkpt lat="43.701878114558426" lon="11.930600191070189"><ele>995.3333333333334</ele><time>2026-04-19T11:48:07.998Z</time></trkpt><trkpt lat="43.70195697196203" lon="11.930802638741197"><ele>998.6666666666667</ele><time>2026-04-19T11:48:08.998Z</time></trkpt><trkpt lat="43.70202034261947" lon="11.931003208765329"><ele>1002.0</ele><time>2026-04-19T11:48:09.998Z</time></trkpt><trkpt lat="43.70205830744967" lon="11.931209314017032"><ele>1002.3333333333333</ele><time>2026-04-19T11:48:10.998Z</time></trkpt><trkpt lat="43.70206874672731" lon="11.931427035304761"><ele>1002.6666666666666</ele><time>2026-04-19T11:48:11.998Z</time></trkpt><trkpt lat="43.70203552667924" lon="11.931655809922692"><ele>1003.0</ele><time>2026-04-19T11:48:12.998Z</time></trkpt><trkpt lat="43.70199636483478" lon="11.93186656409343"><ele>1004.0</ele><time>2026-04-19T11:48:13.998Z</time></trkpt><trkpt lat="43.70196174809418" lon="11.932045472644882"><ele>1005.0</ele><time>2026-04-19T11:48:14.998Z</time></trkpt><trkpt lat="43.70194404313014" lon="11.932214273097834"><ele>1006.0</ele><time>2026-04-19T11:48:15.998Z</time></trkpt><trkpt lat="43.70190697629863" lon="11.932355372444789"><ele>1007.0</ele><time>2026-04-19T11:48:16.998Z</time></trkpt><trkpt lat="43.70183813446975" lon="11.932454449333147"><ele>1003.6</ele><time>2026-04-19T11:48:17.998Z</time></trkpt><trkpt lat="43.7017762108526" lon="11.932537885333714"><ele>1000.2</ele><time>2026-04-19T11:48:18.998Z</time></trkpt><trkpt lat="43.70169038251143" lon="11.9325419446147"><ele>996.8</ele><time>2026-04-19T11:48:19.998Z</time></trkpt><trkpt lat="43.70160392286264" lon="11.932493264143119"><ele>993.4</ele><time>2026-04-19T11:48:21Z</time></trkpt><trkpt lat="43.701548881737295" lon="11.932373622329155"><ele>990.0</ele><time>2026-04-19T11:48:22Z</time></trkpt><trkpt lat="43.70149344212484" lon="11.932237325198185"><ele>990.0</ele><time>2026-04-19T11:48:23Z</time></trkpt><trkpt lat="43.701471755208566" lon="11.932057196922768"><ele>990.0</ele><time>2026-04-19T11:48:24Z</time></trkpt><trkpt lat="43.70143062206726" lon="11.931890204536503"><ele>990.0</ele><time>2026-04-19T11:48:25Z</time></trkpt><trkpt lat="43.70137411767167" lon="11.931748946980358"><ele>990.0</ele><time>2026-04-19T11:48:26Z</time></trkpt><trkpt lat="43.70130636242335" lon="11.931644278381162"><ele>989.6</ele><time>2026-04-19T11:48:27Z</time></trkpt><trkpt lat="43.70123066103428" lon="11.931577152840358"><ele>989.2</ele><time>2026-04-19T11:48:28Z</time></trkpt><trkpt lat="43.701134162249815" lon="11.931568107113458"><ele>988.8</ele><time>2026-04-19T11:48:29Z</time></trkpt><trkpt lat="43.701031648675986" lon="11.931631578035995"><ele>988.4</ele><time>2026-04-19T11:48:30Z</time></trkpt><trkpt lat="43.70096229675153" lon="11.931750878539432"><ele>988.0</ele><time>2026-04-19T11:48:31Z</time></trkpt><trkpt lat="43.70094532701077" lon="11.931913056114976"><ele>985.0</ele><time>2026-04-19T11:48:32Z</time></trkpt><trkpt lat="43.7009796556236" lon="11.932075592350321"><ele>982.0</ele><time>2026-04-19T11:48:33Z</time></trkpt><trkpt lat="43.70100644992757" lon="11.932266909505692"><ele>979.0</ele><time>2026-04-19T11:48:34Z</time></trkpt><trkpt lat="43.701018383873524" lon="11.932465616390086"><ele>976.0</ele><time>2026-04-19T11:48:35Z</time></trkpt><trkpt lat="43.70104350213994" lon="11.932649270286053"><ele>974.6666666666666</ele><time>2026-04-19T11:48:36Z</time></trkpt><trkpt lat="43.70100911707968" lon="11.93285943219345"><ele>973.3333333333333</ele><time>2026-04-19T11:48:37Z</time></trkpt><trkpt lat="43.70097882443412" lon="11.933074380037466"><ele>972.0</ele><time>2026-04-19T11:48:38Z</time></trkpt><trkpt lat="43.70093358763612" lon="11.93328945211237"><ele>973.3333333333333</ele><time>2026-04-19T11:48:39Z</time></trkpt><trkpt lat="43.70087317575377" lon="11.933497925193938"><ele>974.6666666666666</ele><time>2026-04-19T11:48:40Z</time></trkpt><trkpt lat="43.70079377671457" lon="11.933705658022028"><ele>976.0</ele><time>2026-04-19T11:48:41Z</time></trkpt><trkpt lat="43.70069793839962" lon="11.933906267817369"><ele>976.0</ele><time>2026-04-19T11:48:42Z</time></trkpt><trkpt lat="43.700615330990296" lon="11.934107097136554"><ele>976.0</ele><time>2026-04-19T11:48:43Z</time></trkpt><trkpt lat="43.700498263895355" lon="11.934269321939654"><ele>976.0</ele><time>2026-04-19T11:48:44Z</time></trkpt><trkpt lat="43.70036440921712" lon="11.934413563919565"><ele>974.0</ele><time>2026-04-19T11:48:45Z</time></trkpt><trkpt lat="43.70022511164627" lon="11.934541423070621"><ele>972.0</ele><time>2026-04-19T11:48:46Z</time></trkpt><trkpt lat="43.700089366713215" lon="11.934662013090028"><ele>970.0</ele><time>2026-04-19T11:48:46.999Z</time></trkpt><trkpt lat="43.69994172316437" lon="11.93474296217872"><ele>970.0</ele><time>2026-04-19T11:48:47.999Z</time></trkpt><trkpt lat="43.69980935331576" lon="11.93485630034374"><ele>970.0</ele><time>2026-04-19T11:48:48.999Z</time></trkpt><trkpt lat="43.69968209729592" lon="11.93496564951758"><ele>970.0</ele><time>2026-04-19T11:48:49.999Z</time></trkpt><trkpt lat="43.69955849012494" lon="11.935072325977124"><ele>968.0</ele><time>2026-04-19T11:48:50.999Z</time></trkpt><trkpt lat="43.699439601026185" lon="11.935175199767098"><ele>966.0</ele><time>2026-04-19T11:48:51.999Z</time></trkpt><trkpt lat="43.69933051477423" lon="11.935267973092756"><ele>964.0</ele><time>2026-04-19T11:48:52.999Z</time></trkpt><trkpt lat="43.69923024796155" lon="11.935359887735393"><ele>962.0</ele><time>2026-04-19T11:48:53.999Z</time></trkpt><trkpt lat="43.69914271055014" lon="11.935463983806597"><ele>962.0</ele><time>2026-04-19T11:48:54.999Z</time></trkpt><trkpt lat="43.699071250444995" lon="11.935578661407927"><ele>962.0</ele><time>2026-04-19T11:48:55.999Z</time></trkpt><trkpt lat="43.699012409029976" lon="11.93569976240902"><ele>962.0</ele><time>2026-04-19T11:48:56.999Z</time></trkpt><trkpt lat="43.698953679121686" lon="11.93583340682044"><ele>962.0</ele><time>2026-04-19T11:48:57.999Z</time></trkpt><trkpt lat="43.698894307292655" lon="11.935967904926994"><ele>962.0</ele><time>2026-04-19T11:48:58.999Z</time></trkpt><trkpt lat="43.69882927070762" lon="11.936115235875588"><ele>968.0</ele><time>2026-04-19T11:48:59.999Z</time></trkpt><trkpt lat="43.69875570756211" lon="11.93628221911086"><ele>974.0</ele><time>2026-04-19T11:49:00.999Z</time></trkpt><trkpt lat="43.698675013239615" lon="11.936468928146448"><ele>980.0</ele><time>2026-04-19T11:49:01.999Z</time></trkpt><trkpt lat="43.69858990022679" lon="11.936665787192839"><ele>978.3333333333334</ele><time>2026-04-19T11:49:02.999Z</time></trkpt><trkpt lat="43.69853066195933" lon="11.936870960025153"><ele>976.6666666666667</ele><time>2026-04-19T11:49:03.999Z</time></trkpt><trkpt lat="43.698432265499754" lon="11.937034692249938"><ele>975.0</ele><time>2026-04-19T11:49:04.999Z</time></trkpt><trkpt lat="43.69831108788819" lon="11.93716043372244"><ele>975.0</ele><time>2026-04-19T11:49:05.999Z</time></trkpt><trkpt lat="43.69815942265152" lon="11.937240186393689"><ele>975.0</ele><time>2026-04-19T11:49:06.999Z</time></trkpt><trkpt lat="43.69799556762427" lon="11.93727699779334"><ele>975.0</ele><time>2026-04-19T11:49:07.999Z</time></trkpt><trkpt lat="43.69783647960961" lon="11.937316003154935"><ele>971.5</ele><time>2026-04-19T11:49:08.999Z</time></trkpt><trkpt lat="43.697687095388" lon="11.93735839345038"><ele>968.0</ele><time>2026-04-19T11:49:09.999Z</time></trkpt><trkpt lat="43.697554707378096" lon="11.93740004569283"><ele>964.5</ele><time>2026-04-19T11:49:10.999Z</time></trkpt><trkpt lat="43.6974315622026" lon="11.937438003421724"><ele>961.0</ele><time>2026-04-19T11:49:11.999Z</time></trkpt><trkpt lat="43.69732345638656" lon="11.937546417649255"><ele>962.1999999999999</ele><time>2026-04-19T11:49:12.999Z</time></trkpt><trkpt lat="43.69723974601423" lon="11.937699734559615"><ele>963.3999999999999</ele><time>2026-04-19T11:49:13.999Z</time></trkpt><trkpt lat="43.69718030841432" lon="11.93783054665273"><ele>964.6</ele><time>2026-04-19T11:49:14.999Z</time></trkpt><trkpt lat="43.697137186724035" lon="11.937937589160862"><ele>965.8</ele><time>2026-04-19T11:49:15.999Z</time></trkpt><trkpt lat="43.697115949200295" lon="11.938051859973134"><ele>967.0</ele><time>2026-04-19T11:49:16.999Z</time></trkpt><trkpt lat="43.69715901604474" lon="11.938183150401569"><ele>967.0</ele><time>2026-04-19T11:49:17.999Z</time></trkpt><trkpt lat="43.69722244227272" lon="11.938281725761081"><ele>967.0</ele><time>2026-04-19T11:49:18.999Z</time></trkpt><trkpt lat="43.69731416461854" lon="11.93833724226931"><ele>967.0</ele><time>2026-04-19T11:49:19.999Z</time></trkpt><trkpt lat="43.697423744039554" lon="11.938349226228233"><ele>967.0</ele><time>2026-04-19T11:49:20.999Z</time></trkpt><trkpt lat="43.69754005912637" lon="11.93835256798947"><ele>967.0</ele><time>2026-04-19T11:49:21.999Z</time></trkpt><trkpt lat="43.69765765465448" lon="11.938366715695626"><ele>968.75</ele><time>2026-04-19T11:49:22.999Z</time></trkpt><trkpt lat="43.6977839079962" lon="11.938384268964864"><ele>970.5</ele><time>2026-04-19T11:49:23.999Z</time></trkpt><trkpt lat="43.697915191491546" lon="11.938402175566512"><ele>972.25</ele><time>2026-04-19T11:49:24.999Z</time></trkpt><trkpt lat="43.698046522902345" lon="11.938420190620281"><ele>974.0</ele><time>2026-04-19T11:49:25.999Z</time></trkpt><trkpt lat="43.69818126946138" lon="11.93844398912982"><ele>972.25</ele><time>2026-04-19T11:49:26.999Z</time></trkpt><trkpt lat="43.698319726079724" lon="11.938469476669162"><ele>970.5</ele><time>2026-04-19T11:49:27.999Z</time></trkpt><trkpt lat="43.698461771453026" lon="11.938492967364956"><ele>968.75</ele><time>2026-04-19T11:49:28.999Z</time></trkpt><trkpt lat="43.69858609659248" lon="11.938517231569469"><ele>967.0</ele><time>2026-04-19T11:49:29.999Z</time></trkpt><trkpt lat="43.69869648725109" lon="11.938549131729523"><ele>967.0</ele><time>2026-04-19T11:49:30.999Z</time></trkpt><trkpt lat="43.69879162831943" lon="11.938591546175045"><ele>967.0</ele><time>2026-04-19T11:49:31.999Z</time></trkpt><trkpt lat="43.69887059726135" lon="11.938638024324613"><ele>967.0</ele><time>2026-04-19T11:49:32.999Z</time></trkpt><trkpt lat="43.69895974178681" lon="11.938663294380824"><ele>967.0</ele><time>2026-04-19T11:49:33.999Z</time></trkpt><trkpt lat="43.69905534693543" lon="11.938656213572136"><ele>967.0</ele><time>2026-04-19T11:49:34.999Z</time></trkpt><trkpt lat="43.69915860438366" lon="11.938657432040538"><ele>967.0</ele><time>2026-04-19T11:49:35.999Z</time></trkpt><trkpt lat="43.69927455137827" lon="11.938699614873075"><ele>967.0</ele><time>2026-04-19T11:49:36.999Z</time></trkpt><trkpt lat="43.699388298047744" lon="11.938780197976653"><ele>967.0</ele><time>2026-04-19T11:49:37.999Z</time></trkpt><trkpt lat="43.69950467012209" lon="11.938889131176674"><ele>967.0</ele><time>2026-04-19T11:49:38.999Z</time></trkpt><trkpt lat="43.69962290613047" lon="11.938998404672695"><ele>964.25</ele><time>2026-04-19T11:49:39.999Z</time></trkpt><trkpt lat="43.69973931907769" lon="11.939108393144206"><ele>961.5</ele><time>2026-04-19T11:49:40.999Z</time></trkpt><trkpt lat="43.69986444985093" lon="11.939200402654285"><ele>958.75</ele><time>2026-04-19T11:49:41.999Z</time></trkpt><trkpt lat="43.70000196462179" lon="11.93926863512905"><ele>956.0</ele><time>2026-04-19T11:49:42.999Z</time></trkpt><trkpt lat="43.70015007859733" lon="11.939296488477206"><ele>957.6666666666667</ele><time>2026-04-19T11:49:43.999Z</time></trkpt><trkpt lat="43.70031565633103" lon="11.93928702071425"><ele>959.3333333333333</ele><time>2026-04-19T11:49:44.999Z</time></trkpt><trkpt lat="43.70048579232289" lon="11.939269925288084"><ele>961.0</ele><time>2026-04-19T11:49:45.999Z</time></trkpt><trkpt lat="43.70064260516189" lon="11.93925695505227"><ele>961.0</ele><time>2026-04-19T11:49:46.999Z</time></trkpt><trkpt lat="43.70078092207227" lon="11.939249223186408"><ele>960.9999999999999</ele><time>2026-04-19T11:49:47.998Z</time></trkpt><trkpt lat="43.70089898668903" lon="11.939236634794176"><ele>960.9999999999999</ele><time>2026-04-19T11:49:48.998Z</time></trkpt><trkpt lat="43.70099540054046" lon="11.939227506584885"><ele>961.0</ele><time>2026-04-19T11:49:49.998Z</time></trkpt><trkpt lat="43.7010727616764" lon="11.93919654191361"><ele>961.0</ele><time>2026-04-19T11:49:50.998Z</time></trkpt><trkpt lat="43.70114508298217" lon="11.939116289572638"><ele>966.5999999999999</ele><time>2026-04-19T11:49:51.998Z</time></trkpt><trkpt lat="43.70118266875937" lon="11.939001129054375"><ele>972.1999999999999</ele><time>2026-04-19T11:49:52.998Z</time></trkpt><trkpt lat="43.701199830392504" lon="11.93887764469123"><ele>977.8000000000001</ele><time>2026-04-19T11:49:53.998Z</time></trkpt><trkpt lat="43.70114817455541" lon="11.938746786780321"><ele>983.4000000000001</ele><time>2026-04-19T11:49:54.998Z</time></trkpt><trkpt lat="43.70105932391005" lon="11.93866570940626"><ele>989.0</ele><time>2026-04-19T11:49:55.998Z</time></trkpt><trkpt lat="43.7009596305442" lon="11.938605061346772"><ele>989.0</ele><time>2026-04-19T11:49:56.998Z</time></trkpt><trkpt lat="43.700845285099355" lon="11.938539142549306"><ele>989.0</ele><time>2026-04-19T11:49:57.998Z</time></trkpt><trkpt lat="43.70071004382686" lon="11.93846013475558"><ele>989.0</ele><time>2026-04-19T11:49:58.998Z</time></trkpt><trkpt lat="43.70055635238575" lon="11.938368275381482"><ele>989.0</ele><time>2026-04-19T11:49:59.998Z</time></trkpt><trkpt lat="43.70039129348217" lon="11.938283652164618"><ele>991.6666666666667</ele><time>2026-04-19T11:50:00.998Z</time></trkpt><trkpt lat="43.700222809221444" lon="11.938190339783608"><ele>994.3333333333333</ele><time>2026-04-19T11:50:01.998Z</time></trkpt><trkpt lat="43.700053707055694" lon="11.938082441337249"><ele>997.0</ele><time>2026-04-19T11:50:02.998Z</time></trkpt><trkpt lat="43.69990208151497" lon="11.937979919825173"><ele>997.0</ele><time>2026-04-19T11:50:03.998Z</time></trkpt><trkpt lat="43.699763179512225" lon="11.93789975240117"><ele>997.0</ele><time>2026-04-19T11:50:04.998Z</time></trkpt><trkpt lat="43.69964046832385" lon="11.937828657558127"><ele>997.0</ele><time>2026-04-19T11:50:05.998Z</time></trkpt><trkpt lat="43.699535816533164" lon="11.93776689180901"><ele>997.0</ele><time>2026-04-19T11:50:06.998Z</time></trkpt><trkpt lat="43.69944404311294" lon="11.937736055698064"><ele>995.8333333333333</ele><time>2026-04-19T11:50:07.998Z</time></trkpt><trkpt lat="43.69937580198877" lon="11.93767149355624"><ele>994.6666666666666</ele><time>2026-04-19T11:50:08.998Z</time></trkpt><trkpt lat="43.69934299121681" lon="11.93757185749791"><ele>993.5</ele><time>2026-04-19T11:50:09.998Z</time></trkpt><trkpt lat="43.6993596598521" lon="11.937452328094711"><ele>992.3333333333333</ele><time>2026-04-19T11:50:10.998Z</time></trkpt><trkpt lat="43.69941970054134" lon="11.937375697685603"><ele>991.1666666666666</ele><time>2026-04-19T11:50:11.998Z</time></trkpt><trkpt lat="43.699504101988076" lon="11.937362502501076"><ele>990.0</ele><time>2026-04-19T11:50:12.998Z</time></trkpt><trkpt lat="43.69959199364755" lon="11.937410866839933"><ele>991.75</ele><time>2026-04-19T11:50:13.998Z</time></trkpt><trkpt lat="43.69968763439188" lon="11.937491057397388"><ele>993.5</ele><time>2026-04-19T11:50:14.998Z</time></trkpt><trkpt lat="43.699807126751715" lon="11.937556060170634"><ele>995.25</ele><time>2026-04-19T11:50:15.998Z</time></trkpt><trkpt lat="43.69994284441323" lon="11.937634516537537"><ele>997.0</ele><time>2026-04-19T11:50:16.998Z</time></trkpt><trkpt lat="43.700090022070974" lon="11.937704764259808"><ele>1000.6666666666666</ele><time>2026-04-19T11:50:17.998Z</time></trkpt><trkpt lat="43.700251505881454" lon="11.937742419118546"><ele>1004.3333333333333</ele><time>2026-04-19T11:50:18.998Z</time></trkpt><trkpt lat="43.70042953593426" lon="11.937760219508586"><ele>1008.0</ele><time>2026-04-19T11:50:19.998Z</time></trkpt><trkpt lat="43.700612726207886" lon="11.937776978055851"><ele>1008.0</ele><time>2026-04-19T11:50:20.998Z</time></trkpt><trkpt lat="43.70079759633681" lon="11.937821155992944"><ele>1008.0</ele><time>2026-04-19T11:50:21.998Z</time></trkpt><trkpt lat="43.70098254664675" lon="11.937886447953687"><ele>1008.0</ele><time>2026-04-19T11:50:22.998Z</time></trkpt><trkpt lat="43.701165424899266" lon="11.937958189768302"><ele>1012.0</ele><time>2026-04-19T11:50:23.998Z</time></trkpt><trkpt lat="43.701350075195116" lon="11.938032624154047"><ele>1016.0</ele><time>2026-04-19T11:50:24.998Z</time></trkpt><trkpt lat="43.7015312765232" lon="11.938111662577874"><ele>1020.0</ele><time>2026-04-19T11:50:25.998Z</time></trkpt><trkpt lat="43.70171073923754" lon="11.938191487350734"><ele>1020.0</ele><time>2026-04-19T11:50:27Z</time></trkpt><trkpt lat="43.70188860147274" lon="11.938271113630144"><ele>1020.0</ele><time>2026-04-19T11:50:28Z</time></trkpt><trkpt lat="43.70206354285503" lon="11.93834905678897"><ele>1020.0</ele><time>2026-04-19T11:50:29Z</time></trkpt><trkpt lat="43.70223920249184" lon="11.938433152403222"><ele>1021.0</ele><time>2026-04-19T11:50:30Z</time></trkpt><trkpt lat="43.70241299567233" lon="11.938514522012122"><ele>1022.0</ele><time>2026-04-19T11:50:31Z</time></trkpt><trkpt lat="43.70258717653498" lon="11.938589632799784"><ele>1023.0</ele><time>2026-04-19T11:50:32Z</time></trkpt><trkpt lat="43.702755573702866" lon="11.938666624752493"><ele>1023.0</ele><time>2026-04-19T11:50:33Z</time></trkpt><trkpt lat="43.70290451816505" lon="11.93873805734857"><ele>1023.0</ele><time>2026-04-19T11:50:34Z</time></trkpt><trkpt lat="43.703027665375025" lon="11.938804622621007"><ele>1023.0</ele><time>2026-04-19T11:50:35Z</time></trkpt><trkpt lat="43.703124917505875" lon="11.938885938221878"><ele>1023.0</ele><time>2026-04-19T11:50:36Z</time></trkpt><trkpt lat="43.703207860183944" lon="11.938976891886536"><ele>1023.0</ele><time>2026-04-19T11:50:37Z</time></trkpt><trkpt lat="43.703275674519276" lon="11.93904104309159"><ele>1023.0</ele><time>2026-04-19T11:50:38Z</time></trkpt><trkpt lat="43.70334686580862" lon="11.939043511310459"><ele>1023.0</ele><time>2026-04-19T11:50:39Z</time></trkpt><trkpt lat="43.70340329416007" lon="11.938984680644616"><ele>1023.0</ele><time>2026-04-19T11:50:40Z</time></trkpt><trkpt lat="43.70343040204125" lon="11.93888997036314"><ele>1023.0</ele><time>2026-04-19T11:50:41Z</time></trkpt><trkpt lat="43.70341646401854" lon="11.938796361995228"><ele>1023.0</ele><time>2026-04-19T11:50:42Z</time></trkpt><trkpt lat="43.70335808818004" lon="11.938719613548326"><ele>1023.0</ele><time>2026-04-19T11:50:43Z</time></trkpt><trkpt lat="43.70325917246238" lon="11.93868388259867"><ele>1023.0</ele><time>2026-04-19T11:50:44Z</time></trkpt><trkpt lat="43.70314143450593" lon="11.938651170601464"><ele>1023.0</ele><time>2026-04-19T11:50:45Z</time></trkpt><trkpt lat="43.70300722412973" lon="11.938578416359494"><ele>1023.0</ele><time>2026-04-19T11:50:46Z</time></trkpt><trkpt lat="43.702857458713225" lon="11.938461193274007"><ele>1023.0</ele><time>2026-04-19T11:50:47Z</time></trkpt><trkpt lat="43.70270392357862" lon="11.938331382978573"><ele>1025.3333333333333</ele><time>2026-04-19T11:50:48Z</time></trkpt><trkpt lat="43.70254485114382" lon="11.938200767261614"><ele>1027.6666666666665</ele><time>2026-04-19T11:50:49Z</time></trkpt><trkpt lat="43.70238876619087" lon="11.938073638386097"><ele>1030.0</ele><time>2026-04-19T11:50:50Z</time></trkpt><trkpt lat="43.70224057631224" lon="11.937948178377269"><ele>1030.0</ele><time>2026-04-19T11:50:51Z</time></trkpt><trkpt lat="43.70210038354062" lon="11.937805938134293"><ele>1030.0</ele><time>2026-04-19T11:50:52Z</time></trkpt><trkpt lat="43.70197707659062" lon="11.937659614190789"><ele>1030.0</ele><time>2026-04-19T11:50:53Z</time></trkpt><trkpt lat="43.70187308527315" lon="11.937525052306555"><ele>1030.6</ele><time>2026-04-19T11:50:54Z</time></trkpt><trkpt lat="43.7017840316314" lon="11.937399449038306"><ele>1031.2</ele><time>2026-04-19T11:50:55Z</time></trkpt><trkpt lat="43.701710597109994" lon="11.937289778747669"><ele>1031.8</ele><time>2026-04-19T11:50:56Z</time></trkpt><trkpt lat="43.70165425108713" lon="11.937186328340704"><ele>1032.4</ele><time>2026-04-19T11:50:57Z</time></trkpt><trkpt lat="43.70162642203248" lon="11.93707772442004"><ele>1033.0</ele><time>2026-04-19T11:50:58Z</time></trkpt><trkpt lat="43.70163820474957" lon="11.936955429335491"><ele>1033.0</ele><time>2026-04-19T11:50:59Z</time></trkpt><trkpt lat="43.701689658288025" lon="11.93684546636052"><ele>1033.0</ele><time>2026-04-19T11:51:00Z</time></trkpt><trkpt lat="43.701779243074945" lon="11.936768931430915"><ele>1033.0</ele><time>2026-04-19T11:51:00.999Z</time></trkpt><trkpt lat="43.70187561880059" lon="11.936748078978624"><ele>1033.0</ele><time>2026-04-19T11:51:01.999Z</time></trkpt><trkpt lat="43.7019845027984" lon="11.936781021865556"><ele>1033.0</ele><time>2026-04-19T11:51:02.999Z</time></trkpt><trkpt lat="43.70209773201804" lon="11.936847773313536"><ele>1036.0</ele><time>2026-04-19T11:51:03.999Z</time></trkpt><trkpt lat="43.7022258475951" lon="11.936926043531185"><ele>1039.0</ele><time>2026-04-19T11:51:04.999Z</time></trkpt><trkpt lat="43.702369012494195" lon="11.937010788744493"><ele>1042.0</ele><time>2026-04-19T11:51:05.999Z</time></trkpt><trkpt lat="43.70253153752551" lon="11.937099168499799"><ele>1042.0</ele><time>2026-04-19T11:51:06.999Z</time></trkpt><trkpt lat="43.7026918102788" lon="11.937187906321208"><ele>1042.0</ele><time>2026-04-19T11:51:07.999Z</time></trkpt><trkpt lat="43.702859670290444" lon="11.937267611986515"><ele>1042.0</ele><time>2026-04-19T11:51:08.999Z</time></trkpt><trkpt lat="43.70304536487383" lon="11.937321461247397"><ele>1045.0</ele><time>2026-04-19T11:51:09.999Z</time></trkpt><trkpt lat="43.70323871058955" lon="11.93735730191708"><ele>1048.0</ele><time>2026-04-19T11:51:10.999Z</time></trkpt><trkpt lat="43.70341131225957" lon="11.937384927156623"><ele>1051.0</ele><time>2026-04-19T11:51:11.999Z</time></trkpt><trkpt lat="43.70357078899905" lon="11.937403840701837"><ele>1053.25</ele><time>2026-04-19T11:51:12.999Z</time></trkpt><trkpt lat="43.70371639076562" lon="11.93742047606547"><ele>1055.5</ele><time>2026-04-19T11:51:13.999Z</time></trkpt><trkpt lat="43.703846388942885" lon="11.937434593687602"><ele>1057.75</ele><time>2026-04-19T11:51:14.999Z</time></trkpt><trkpt lat="43.70396071191665" lon="11.937447180881406"><ele>1060.0</ele><time>2026-04-19T11:51:15.999Z</time></trkpt><trkpt lat="43.70405521702605" lon="11.937440537874693"><ele>1060.0</ele><time>2026-04-19T11:51:16.999Z</time></trkpt><trkpt lat="43.704128958385866" lon="11.937395909135684"><ele>1060.0</ele><time>2026-04-19T11:51:17.999Z</time></trkpt><trkpt lat="43.70418553864963" lon="11.937308721674126"><ele>1060.0</ele><time>2026-04-19T11:51:18.999Z</time></trkpt><trkpt lat="43.704208489550055" lon="11.937188126960875"><ele>1060.0</ele><time>2026-04-19T11:51:19.999Z</time></trkpt><trkpt lat="43.70418417121751" lon="11.937077472369094"><ele>1060.0</ele><time>2026-04-19T11:51:20.999Z</time></trkpt><trkpt lat="43.704114095598584" lon="11.9369835696359"><ele>1060.0</ele><time>2026-04-19T11:51:21.999Z</time></trkpt><trkpt lat="43.704018171451835" lon="11.936899795252883"><ele>1060.0</ele><time>2026-04-19T11:51:22.999Z</time></trkpt><trkpt lat="43.70390451439016" lon="11.936807748352049"><ele>1060.0</ele><time>2026-04-19T11:51:23.999Z</time></trkpt><trkpt lat="43.70378620183995" lon="11.936692118730779"><ele>1060.0</ele><time>2026-04-19T11:51:24.999Z</time></trkpt><trkpt lat="43.7036768842844" lon="11.936560295230976"><ele>1060.0</ele><time>2026-04-19T11:51:25.999Z</time></trkpt><trkpt lat="43.70357660524851" lon="11.936401416406936"><ele>1058.8</ele><time>2026-04-19T11:51:26.999Z</time></trkpt><trkpt lat="43.70349038499364" lon="11.936237296757913"><ele>1057.6</ele><time>2026-04-19T11:51:27.999Z</time></trkpt><trkpt lat="43.70341719659226" lon="11.936105309034822"><ele>1056.4</ele><time>2026-04-19T11:51:28.999Z</time></trkpt><trkpt lat="43.703365046923075" lon="11.935999298582109"><ele>1055.2</ele><time>2026-04-19T11:51:29.999Z</time></trkpt><trkpt lat="43.70334922597327" lon="11.935904750746369"><ele>1054.0</ele><time>2026-04-19T11:51:30.999Z</time></trkpt><trkpt lat="43.70337643629757" lon="11.935820471749231"><ele>1054.0</ele><time>2026-04-19T11:51:31.999Z</time></trkpt><trkpt lat="43.70344507478586" lon="11.935769913051555"><ele>1054.0</ele><time>2026-04-19T11:51:32.999Z</time></trkpt><trkpt lat="43.70352168544093" lon="11.93578411127046"><ele>1054.0</ele><time>2026-04-19T11:51:33.999Z</time></trkpt><trkpt lat="43.7035660372936" lon="11.935879263672783"><ele>1054.0</ele><time>2026-04-19T11:51:34.999Z</time></trkpt><trkpt lat="43.70358602757518" lon="11.935988865035378"><ele>1054.0</ele><time>2026-04-19T11:51:35.999Z</time></trkpt><trkpt lat="43.703628249073226" lon="11.936118591074186"><ele>1054.0</ele><time>2026-04-19T11:51:36.999Z</time></trkpt><trkpt lat="43.7036757196565" lon="11.936253196726485"><ele>1056.5</ele><time>2026-04-19T11:51:37.999Z</time></trkpt><trkpt lat="43.70375560194544" lon="11.936377872641177"><ele>1059.0</ele><time>2026-04-19T11:51:38.999Z</time></trkpt><trkpt lat="43.70387317829812" lon="11.936474141091319"><ele>1061.5</ele><time>2026-04-19T11:51:39.999Z</time></trkpt><trkpt lat="43.70401498437818" lon="11.936555090622269"><ele>1064.0</ele><time>2026-04-19T11:51:40.999Z</time></trkpt><trkpt lat="43.70418027748499" lon="11.936637286588134"><ele>1064.0</ele><time>2026-04-19T11:51:41.999Z</time></trkpt><trkpt lat="43.7043396034316" lon="11.936716445855371"><ele>1064.0</ele><time>2026-04-19T11:51:42.999Z</time></trkpt><trkpt lat="43.704517085035505" lon="11.936783914725856"><ele>1064.0</ele><time>2026-04-19T11:51:43.999Z</time></trkpt><trkpt lat="43.70469669812474" lon="11.936842952934684"><ele>1068.6666666666667</ele><time>2026-04-19T11:51:44.999Z</time></trkpt><trkpt lat="43.70487184705106" lon="11.936896768817597"><ele>1073.3333333333333</ele><time>2026-04-19T11:51:45.999Z</time></trkpt><trkpt lat="43.70502348552358" lon="11.936944703319732"><ele>1078.0</ele><time>2026-04-19T11:51:46.999Z</time></trkpt><trkpt lat="43.70514738780894" lon="11.936978167796088"><ele>1078.0</ele><time>2026-04-19T11:51:47.999Z</time></trkpt><trkpt lat="43.7052452408287" lon="11.937002701682252"><ele>1078.0</ele><time>2026-04-19T11:51:48.999Z</time></trkpt><trkpt lat="43.70532696447468" lon="11.93705370574963"><ele>1078.0</ele><time>2026-04-19T11:51:49.999Z</time></trkpt><trkpt lat="43.70537737371079" lon="11.93714051524672"><ele>1078.0</ele><time>2026-04-19T11:51:50.999Z</time></trkpt><trkpt lat="43.70538040564703" lon="11.937259177763984"><ele>1078.0</ele><time>2026-04-19T11:51:51.999Z</time></trkpt><trkpt lat="43.70531896022942" lon="11.93734257926821"><ele>1078.0</ele><time>2026-04-19T11:51:52.999Z</time></trkpt><trkpt lat="43.70524388702228" lon="11.937375492433015"><ele>1078.0</ele><time>2026-04-19T11:51:53.999Z</time></trkpt><trkpt lat="43.705146917251035" lon="11.937438288145204"><ele>1078.0</ele><time>2026-04-19T11:51:54.999Z</time></trkpt><trkpt lat="43.70506757230433" lon="11.937510367526748"><ele>1078.0</ele><time>2026-04-19T11:51:55.999Z</time></trkpt><trkpt lat="43.70498023103283" lon="11.93756965494012"><ele>1078.0</ele><time>2026-04-19T11:51:56.999Z</time></trkpt><trkpt lat="43.70493029050635" lon="11.937669585569061"><ele>1078.0</ele><time>2026-04-19T11:51:57.999Z</time></trkpt><trkpt lat="43.70495480066271" lon="11.93779564323501"><ele>1077.0</ele><time>2026-04-19T11:51:58.999Z</time></trkpt><trkpt lat="43.70499570838175" lon="11.93790155144613"><ele>1076.0</ele><time>2026-04-19T11:51:59.998Z</time></trkpt><trkpt lat="43.70506881702976" lon="11.937982371228374"><ele>1075.0</ele><time>2026-04-19T11:52:00.998Z</time></trkpt><trkpt lat="43.70516411240586" lon="11.938039477055595"><ele>1074.0</ele><time>2026-04-19T11:52:01.998Z</time></trkpt><trkpt lat="43.70527140533862" lon="11.938099981207003"><ele>1073.0</ele><time>2026-04-19T11:52:02.998Z</time></trkpt><trkpt lat="43.70540222742915" lon="11.938177562344407"><ele>1074.3333333333335</ele><time>2026-04-19T11:52:03.998Z</time></trkpt><trkpt lat="43.70554572946562" lon="11.938281124164629"><ele>1075.6666666666667</ele><time>2026-04-19T11:52:04.998Z</time></trkpt><trkpt lat="43.70568251774375" lon="11.93838102590799"><ele>1077.0</ele><time>2026-04-19T11:52:05.998Z</time></trkpt><trkpt lat="43.70581921517554" lon="11.93850098021631"><ele>1077.0</ele><time>2026-04-19T11:52:06.998Z</time></trkpt><trkpt lat="43.70593038569296" lon="11.938631735479948"><ele>1077.0</ele><time>2026-04-19T11:52:07.998Z</time></trkpt><trkpt lat="43.706015198713594" lon="11.938767213105374"><ele>1077.0</ele><time>2026-04-19T11:52:08.998Z</time></trkpt><trkpt lat="43.70607953530659" lon="11.938886771889932"><ele>1077.0</ele><time>2026-04-19T11:52:09.998Z</time></trkpt><trkpt lat="43.70614630982701" lon="11.938963666684382"><ele>1079.1666666666667</ele><time>2026-04-19T11:52:10.998Z</time></trkpt><trkpt lat="43.706222735233524" lon="11.938990526131683"><ele>1081.3333333333333</ele><time>2026-04-19T11:52:11.998Z</time></trkpt><trkpt lat="43.70629142138361" lon="11.938952911225249"><ele>1083.5</ele><time>2026-04-19T11:52:12.998Z</time></trkpt><trkpt lat="43.70633795271646" lon="11.938860508184073"><ele>1085.6666666666665</ele><time>2026-04-19T11:52:13.998Z</time></trkpt><trkpt lat="43.70634064619685" lon="11.938753380354465"><ele>1087.8333333333333</ele><time>2026-04-19T11:52:14.998Z</time></trkpt><trkpt lat="43.70629588377103" lon="11.938649729812859"><ele>1090.0</ele><time>2026-04-19T11:52:15.998Z</time></trkpt><trkpt lat="43.70620634200305" lon="11.938570359404915"><ele>1090.0</ele><time>2026-04-19T11:52:16.998Z</time></trkpt><trkpt lat="43.706092700205716" lon="11.93850150842644"><ele>1090.0</ele><time>2026-04-19T11:52:17.998Z</time></trkpt><trkpt lat="43.706007472765094" lon="11.93839795786357"><ele>1090.0</ele><time>2026-04-19T11:52:18.998Z</time></trkpt><trkpt lat="43.70593156386815" lon="11.938257282256346"><ele>1090.0</ele><time>2026-04-19T11:52:19.998Z</time></trkpt><trkpt lat="43.70587443133385" lon="11.938101195520229"><ele>1090.3333333333333</ele><time>2026-04-19T11:52:20.998Z</time></trkpt><trkpt lat="43.70582574992264" lon="11.937965974305685"><ele>1090.6666666666665</ele><time>2026-04-19T11:52:21.998Z</time></trkpt><trkpt lat="43.70579002554733" lon="11.937857510985744"><ele>1091.0</ele><time>2026-04-19T11:52:22.998Z</time></trkpt><trkpt lat="43.70578262205526" lon="11.937762884228995"><ele>1091.3333333333333</ele><time>2026-04-19T11:52:23.998Z</time></trkpt><trkpt lat="43.705815946589695" lon="11.937687082431653"><ele>1091.6666666666667</ele><time>2026-04-19T11:52:24.998Z</time></trkpt><trkpt lat="43.70588287719208" lon="11.937626289526563"><ele>1092.0</ele><time>2026-04-19T11:52:25.998Z</time></trkpt><trkpt lat="43.705962075525896" lon="11.937619009790732"><ele>1092.0</ele><time>2026-04-19T11:52:26.998Z</time></trkpt><trkpt lat="43.70603325778308" lon="11.937665531692211"><ele>1092.0</ele><time>2026-04-19T11:52:27.998Z</time></trkpt><trkpt lat="43.706070411659134" lon="11.937744565823873"><ele>1092.0</ele><time>2026-04-19T11:52:28.998Z</time></trkpt><trkpt lat="43.70604866027907" lon="11.937842770363988"><ele>1092.0</ele><time>2026-04-19T11:52:29.998Z</time></trkpt><trkpt lat="43.706069887966365" lon="11.937943171924818"><ele>1092.0</ele><time>2026-04-19T11:52:30.998Z</time></trkpt><trkpt lat="43.706123427341375" lon="11.938055769705974"><ele>1092.0</ele><time>2026-04-19T11:52:31.998Z</time></trkpt><trkpt lat="43.706195935199545" lon="11.938168112675127"><ele>1091.5</ele><time>2026-04-19T11:52:33Z</time></trkpt><trkpt lat="43.70630411186783" lon="11.938251668166217"><ele>1091.0</ele><time>2026-04-19T11:52:34Z</time></trkpt><trkpt lat="43.70641433004149" lon="11.93832085761971"><ele>1090.5</ele><time>2026-04-19T11:52:35Z</time></trkpt><trkpt lat="43.706523892394735" lon="11.93838366980123"><ele>1090.0</ele><time>2026-04-19T11:52:36Z</time></trkpt><trkpt lat="43.70663261288822" lon="11.93842883002114"><ele>1090.0</ele><time>2026-04-19T11:52:37Z</time></trkpt><trkpt lat="43.70674965272363" lon="11.93843074785962"><ele>1090.0</ele><time>2026-04-19T11:52:38Z</time></trkpt><trkpt lat="43.706878495178195" lon="11.93838765802289"><ele>1090.0</ele><time>2026-04-19T11:52:39Z</time></trkpt><trkpt lat="43.70700820191901" lon="11.938302163052303"><ele>1090.0</ele><time>2026-04-19T11:52:40Z</time></trkpt><trkpt lat="43.70712678048318" lon="11.938197342797604"><ele>1094.8</ele><time>2026-04-19T11:52:41Z</time></trkpt><trkpt lat="43.707224022757295" lon="11.938104437222394"><ele>1099.6</ele><time>2026-04-19T11:52:42Z</time></trkpt><trkpt lat="43.707312079365764" lon="11.938028270138242"><ele>1104.4</ele><time>2026-04-19T11:52:43Z</time></trkpt><trkpt lat="43.70739678184131" lon="11.937966083789515"><ele>1109.2</ele><time>2026-04-19T11:52:44Z</time></trkpt><trkpt lat="43.70748512026919" lon="11.937914543183314"><ele>1114.0</ele><time>2026-04-19T11:52:45Z</time></trkpt><trkpt lat="43.70757318745011" lon="11.937880242507754"><ele>1114.0</ele><time>2026-04-19T11:52:46Z</time></trkpt><trkpt lat="43.7076637769572" lon="11.93788328016018"><ele>1114.0</ele><time>2026-04-19T11:52:47Z</time></trkpt><trkpt lat="43.7077555447028" lon="11.93793486368351"><ele>1114.0</ele><time>2026-04-19T11:52:48Z</time></trkpt><trkpt lat="43.70784446307509" lon="11.938033833942997"><ele>1114.0</ele><time>2026-04-19T11:52:49Z</time></trkpt><trkpt lat="43.707922554109196" lon="11.938167727804199"><ele>1114.0</ele><time>2026-04-19T11:52:50Z</time></trkpt><trkpt lat="43.70799599578144" lon="11.938320619572213"><ele>1115.4</ele><time>2026-04-19T11:52:51Z</time></trkpt><trkpt lat="43.70807381122558" lon="11.938452615685657"><ele>1116.8000000000002</ele><time>2026-04-19T11:52:52Z</time></trkpt><trkpt lat="43.7081159899256" lon="11.938598244472733"><ele>1118.1999999999998</ele><time>2026-04-19T11:52:53Z</time></trkpt><trkpt lat="43.708170390889826" lon="11.938706080684524"><ele>1119.6</ele><time>2026-04-19T11:52:54Z</time></trkpt><trkpt lat="43.708216131943516" lon="11.938790322130027"><ele>1121.0</ele><time>2026-04-19T11:52:55Z</time></trkpt><trkpt lat="43.70827653080376" lon="11.938834960252661"><ele>1121.0</ele><time>2026-04-19T11:52:56Z</time></trkpt><trkpt lat="43.70839741756063" lon="11.93878582242617"><ele>1121.0</ele><time>2026-04-19T11:52:58Z</time></trkpt><trkpt lat="43.708433064855136" lon="11.938698011768135"><ele>1121.0</ele><time>2026-04-19T11:52:59Z</time></trkpt><trkpt lat="43.70843018367711" lon="11.938608371253153"><ele>1121.0</ele><time>2026-04-19T11:53:00Z</time></trkpt><trkpt lat="43.70841786660222" lon="11.938507957676523"><ele>1121.0</ele><time>2026-04-19T11:53:01Z</time></trkpt><trkpt lat="43.70834934894101" lon="11.938429091112711"><ele>1121.0</ele><time>2026-04-19T11:53:02Z</time></trkpt><trkpt lat="43.70827470262435" lon="11.938379428733116"><ele>1123.8333333333335</ele><time>2026-04-19T11:53:03Z</time></trkpt><trkpt lat="43.70821829558884" lon="11.938301939751671"><ele>1126.6666666666667</ele><time>2026-04-19T11:53:04Z</time></trkpt><trkpt lat="43.708168698623304" lon="11.938215259489928"><ele>1129.5</ele><time>2026-04-19T11:53:05Z</time></trkpt><trkpt lat="43.708114211243114" lon="11.938114999636213"><ele>1132.3333333333333</ele><time>2026-04-19T11:53:06Z</time></trkpt><trkpt lat="43.70806282399886" lon="11.938020014532233"><ele>1135.1666666666665</ele><time>2026-04-19T11:53:07Z</time></trkpt><trkpt lat="43.70800841008625" lon="11.937919434852335"><ele>1138.0</ele><time>2026-04-19T11:53:08Z</time></trkpt><trkpt lat="43.70795505816962" lon="11.937820818339455"><ele>1138.0</ele><time>2026-04-19T11:53:09Z</time></trkpt><trkpt lat="43.70790410127788" lon="11.937725503521204"><ele>1138.0</ele><time>2026-04-19T11:53:10Z</time></trkpt><trkpt lat="43.7078542443242" lon="11.937641693824277"><ele>1138.0</ele><time>2026-04-19T11:53:11Z</time></trkpt><trkpt lat="43.70780850354904" lon="11.937567823879105"><ele>1138.0</ele><time>2026-04-19T11:53:12Z</time></trkpt><trkpt lat="43.70776715590036" lon="11.93750104898241"><ele>1138.0</ele><time>2026-04-19T11:53:13Z</time></trkpt><trkpt lat="43.70770526438264" lon="11.937392925645515"><ele>1138.0</ele><time>2026-04-19T11:53:15Z</time></trkpt><trkpt lat="43.70767176909491" lon="11.937308353381392"><ele>1135.8</ele><time>2026-04-19T11:53:17Z</time></trkpt><trkpt lat="43.707637119842055" lon="11.937226851656737"><ele>1133.6</ele><time>2026-04-19T11:53:18.999Z</time></trkpt><trkpt lat="43.70763477807686" lon="11.937139407737671"><ele>1131.4</ele><time>2026-04-19T11:53:20.999Z</time></trkpt><trkpt lat="43.7076162919766" lon="11.93703274770985"><ele>1129.2</ele><time>2026-04-19T11:53:23.999Z</time></trkpt><trkpt lat="43.707483675838404" lon="11.937105851991037"><ele>1127.0</ele><time>2026-04-19T11:53:25.999Z</time></trkpt><trkpt lat="43.70738219780876" lon="11.937123434291632"><ele>1127.0</ele><time>2026-04-19T11:53:27.999Z</time></trkpt><trkpt lat="43.7073140336987" lon="11.937159517221357"><ele>1127.0</ele><time>2026-04-19T11:53:29.999Z</time></trkpt><trkpt lat="43.7072205337753" lon="11.937176647597926"><ele>1127.0</ele><time>2026-04-19T11:53:32.999Z</time></trkpt><trkpt lat="43.707140604164735" lon="11.93718925849765"><ele>1127.0</ele><time>2026-04-19T11:53:34.999Z</time></trkpt><trkpt lat="43.70703070788492" lon="11.937179495025005"><ele>1127.0</ele><time>2026-04-19T11:53:36.999Z</time></trkpt><trkpt lat="43.7069187952199" lon="11.937176418580462"><ele>1127.0</ele><time>2026-04-19T11:53:38.999Z</time></trkpt><trkpt lat="43.70685316418857" lon="11.937227833189374"><ele>1127.0</ele><time>2026-04-19T11:53:40.999Z</time></trkpt><trkpt lat="43.70680680536577" lon="11.937300164191601"><ele>1127.0</ele><time>2026-04-19T11:53:42.999Z</time></trkpt><trkpt lat="43.70683303949724" lon="11.937381796142345"><ele>1127.0</ele><time>2026-04-19T11:53:44.999Z</time></trkpt><trkpt lat="43.70696332604629" lon="11.937336894323014"><ele>1127.0</ele><time>2026-04-19T11:53:46.999Z</time></trkpt><trkpt lat="43.70703772739195" lon="11.93729601364516"><ele>1127.0</ele><time>2026-04-19T11:53:48.999Z</time></trkpt><trkpt lat="43.70710488626618" lon="11.937280188608764"><ele>1127.0</ele><time>2026-04-19T11:53:50.999Z</time></trkpt><trkpt lat="43.70717336662205" lon="11.937280439045676"><ele>1127.0</ele><time>2026-04-19T11:53:52.999Z</time></trkpt><trkpt lat="43.70725689061822" lon="11.937247052617046"><ele>1127.0</ele><time>2026-04-19T11:53:55.999Z</time></trkpt><trkpt lat="43.70718694120972" lon="11.937262234546372"><ele>1127.0</ele><time>2026-04-19T11:54:39Z</time></trkpt><trkpt lat="43.70719907663228" lon="11.937121064853825"><ele>1127.0</ele><time>2026-04-19T11:58:17.999Z</time></trkpt><trkpt lat="43.70725523788875" lon="11.93716301697321"><ele>1127.0</ele><time>2026-04-19T11:59:33.999Z</time></trkpt><trkpt lat="43.70732102174173" lon="11.9371864423095"><ele>1127.0</ele><time>2026-04-19T11:59:40.999Z</time></trkpt><trkpt lat="43.70738926416914" lon="11.937192933857377"><ele>1127.0</ele><time>2026-04-19T11:59:49.999Z</time></trkpt><trkpt lat="43.70745637229105" lon="11.937164991337186"><ele>1127.0</ele><time>2026-04-19T11:59:56.999Z</time></trkpt><trkpt lat="43.70752047684964" lon="11.937140518226851"><ele>1127.0</ele><time>2026-04-19T12:00:02.999Z</time></trkpt><trkpt lat="43.707584894163695" lon="11.937151802983776"><ele>1127.0</ele><time>2026-04-19T12:00:10.998Z</time></trkpt><trkpt lat="43.707606882455785" lon="11.937246952257986"><ele>1127.0</ele><time>2026-04-19T12:00:17.998Z</time></trkpt><trkpt lat="43.707604274720495" lon="11.937153700881797"><ele>1127.0</ele><time>2026-04-19T12:26:24.001Z</time></trkpt><trkpt lat="43.70758576349639" lon="11.937052735354863"><ele>1127.0</ele><time>2026-04-19T12:26:32Z</time></trkpt><trkpt lat="43.707578092171545" lon="11.936961348996832"><ele>1127.0</ele><time>2026-04-19T12:26:39.999Z</time></trkpt><trkpt lat="43.707569651880924" lon="11.936872711478388"><ele>1127.0</ele><time>2026-04-19T12:26:46.999Z</time></trkpt><trkpt lat="43.707554861425294" lon="11.93678745153966"><ele>1127.0</ele><time>2026-04-19T12:26:53.999Z</time></trkpt><trkpt lat="43.707538599704684" lon="11.93668958581064"><ele>1127.0</ele><time>2026-04-19T12:27:07.999Z</time></trkpt><trkpt lat="43.707515693030736" lon="11.936607133916027"><ele>1127.0</ele><time>2026-04-19T12:27:15.999Z</time></trkpt><trkpt lat="43.70749762649282" lon="11.93651701670854"><ele>1127.0</ele><time>2026-04-19T12:27:22.999Z</time></trkpt><trkpt lat="43.7074770019135" lon="11.93642087908076"><ele>1127.4285714285713</ele><time>2026-04-19T12:27:29.999Z</time></trkpt><trkpt lat="43.70744241271276" lon="11.936337974482988"><ele>1127.857142857143</ele><time>2026-04-19T12:27:37.998Z</time></trkpt><trkpt lat="43.70744168533225" lon="11.93623983511657"><ele>1128.2857142857142</ele><time>2026-04-19T12:27:45.998Z</time></trkpt><trkpt lat="43.70746231147932" lon="11.936148459336529"><ele>1128.7142857142858</ele><time>2026-04-19T12:27:51.998Z</time></trkpt><trkpt lat="43.707480659687114" lon="11.936064008993679"><ele>1129.142857142857</ele><time>2026-04-19T12:28:00.998Z</time></trkpt><trkpt lat="43.70750027205837" lon="11.935971123249466"><ele>1129.5714285714284</ele><time>2026-04-19T12:28:06.998Z</time></trkpt><trkpt lat="43.70755553764003" lon="11.935911570059945"><ele>1130.0</ele><time>2026-04-19T12:28:13Z</time></trkpt><trkpt lat="43.70759452816689" lon="11.93582695294491"><ele>1130.2857142857142</ele><time>2026-04-19T12:28:20Z</time></trkpt><trkpt lat="43.707638922135615" lon="11.935757202638769"><ele>1130.5714285714284</ele><time>2026-04-19T12:28:25Z</time></trkpt><trkpt lat="43.70767008750905" lon="11.935680095167857"><ele>1130.857142857143</ele><time>2026-04-19T12:28:31Z</time></trkpt><trkpt lat="43.707705841899305" lon="11.935601686037698"><ele>1131.142857142857</ele><time>2026-04-19T12:28:36Z</time></trkpt><trkpt lat="43.70773625207213" lon="11.935524720332351"><ele>1131.4285714285716</ele><time>2026-04-19T12:28:44Z</time></trkpt><trkpt lat="43.70779656106821" lon="11.93549205592142"><ele>1131.7142857142858</ele><time>2026-04-19T12:29:34.999Z</time></trkpt><trkpt lat="43.70781413323087" lon="11.93539234578395"><ele>1132.0</ele><time>2026-04-19T12:29:42.999Z</time></trkpt><trkpt lat="43.70784434856721" lon="11.935313332505164"><ele>1133.7142857142858</ele><time>2026-04-19T12:29:49.998Z</time></trkpt><trkpt lat="43.70781201681669" lon="11.935237141467207"><ele>1135.4285714285716</ele><time>2026-04-19T12:29:55.998Z</time></trkpt><trkpt lat="43.70788252364654" lon="11.935215670623712"><ele>1137.142857142857</ele><time>2026-04-19T12:30:08.998Z</time></trkpt><trkpt lat="43.70791631413888" lon="11.935132278290723"><ele>1138.857142857143</ele><time>2026-04-19T12:30:16.998Z</time></trkpt><trkpt lat="43.70794294599352" lon="11.93503820779841"><ele>1140.5714285714284</ele><time>2026-04-19T12:30:25Z</time></trkpt><trkpt lat="43.70799478279332" lon="11.93498233548632"><ele>1142.2857142857142</ele><time>2026-04-19T12:30:30Z</time></trkpt><trkpt lat="43.70799537819927" lon="11.934884716356"><ele>1144.0</ele><time>2026-04-19T12:30:37Z</time></trkpt><trkpt lat="43.70794834751836" lon="11.934805460633683"><ele>1143.9999999999998</ele><time>2026-04-19T12:30:44Z</time></trkpt><trkpt lat="43.707925795887625" lon="11.934722304013937"><ele>1144.0</ele><time>2026-04-19T12:30:51Z</time></trkpt><trkpt lat="43.7078707629406" lon="11.934677401476568"><ele>1144.0</ele><time>2026-04-19T12:30:57Z</time></trkpt><trkpt lat="43.70782999067571" lon="11.934606543692789"><ele>1144.0</ele><time>2026-04-19T12:31:02.999Z</time></trkpt><trkpt lat="43.70779842723221" lon="11.934514654048721"><ele>1144.0</ele><time>2026-04-19T12:31:09.999Z</time></trkpt><trkpt lat="43.7077453601118" lon="11.934453315966632"><ele>1143.9999999999998</ele><time>2026-04-19T12:31:16.999Z</time></trkpt><trkpt lat="43.70770742231315" lon="11.934373940495412"><ele>1144.0</ele><time>2026-04-19T12:31:23.999Z</time></trkpt><trkpt lat="43.707675342562425" lon="11.934288180334278"><ele>1142.4285714285713</ele><time>2026-04-19T12:31:30.999Z</time></trkpt><trkpt lat="43.70762154564382" lon="11.934222001649355"><ele>1140.857142857143</ele><time>2026-04-19T12:31:38.999Z</time></trkpt><trkpt lat="43.7075952750644" lon="11.934133831990108"><ele>1139.2857142857142</ele><time>2026-04-19T12:31:47.999Z</time></trkpt><trkpt lat="43.70754371480961" lon="11.934060348203726"><ele>1137.7142857142858</ele><time>2026-04-19T12:31:55.999Z</time></trkpt><trkpt lat="43.70751623690885" lon="11.933977495330968"><ele>1136.142857142857</ele><time>2026-04-19T12:32:02.998Z</time></trkpt><trkpt lat="43.70747475390406" lon="11.933907051644006"><ele>1134.5714285714284</ele><time>2026-04-19T12:32:10.998Z</time></trkpt><trkpt lat="43.707424463727335" lon="11.933845838238502"><ele>1133.0</ele><time>2026-04-19T12:32:16.998Z</time></trkpt><trkpt lat="43.70736632579002" lon="11.933782753834981"><ele>1133.0</ele><time>2026-04-19T12:32:22.998Z</time></trkpt><trkpt lat="43.70731147352511" lon="11.933738310582042"><ele>1133.0</ele><time>2026-04-19T12:32:29Z</time></trkpt><trkpt lat="43.70725819324298" lon="11.933672012663246"><ele>1133.0</ele><time>2026-04-19T12:32:37Z</time></trkpt><trkpt lat="43.707212321132445" lon="11.933599279577827"><ele>1133.0</ele><time>2026-04-19T12:32:46Z</time></trkpt><trkpt lat="43.707145215997215" lon="11.933543316214646"><ele>1133.0</ele><time>2026-04-19T12:32:52Z</time></trkpt><trkpt lat="43.70715570571614" lon="11.933423962424081"><ele>1133.0</ele><time>2026-04-19T12:33:08Z</time></trkpt><trkpt lat="43.70711874746909" lon="11.933338821826723"><ele>1133.0</ele><time>2026-04-19T12:33:13Z</time></trkpt><trkpt lat="43.70711074527005" lon="11.93325184945474"><ele>1135.142857142857</ele><time>2026-04-19T12:33:21.999Z</time></trkpt><trkpt lat="43.70710450667603" lon="11.933155676874675"><ele>1137.2857142857142</ele><time>2026-04-19T12:33:29.999Z</time></trkpt><trkpt lat="43.70709137998003" lon="11.933059710542851"><ele>1139.4285714285716</ele><time>2026-04-19T12:33:35.999Z</time></trkpt><trkpt lat="43.70712383821347" lon="11.932981382397921"><ele>1141.5714285714284</ele><time>2026-04-19T12:33:43.999Z</time></trkpt><trkpt lat="43.70714393557742" lon="11.932895702293052"><ele>1143.7142857142858</ele><time>2026-04-19T12:33:49.999Z</time></trkpt><trkpt lat="43.70719091812703" lon="11.932803916995045"><ele>1145.857142857143</ele><time>2026-04-19T12:33:56.999Z</time></trkpt><trkpt lat="43.7072213324767" lon="11.932714895684645"><ele>1148.0</ele><time>2026-04-19T12:34:03.999Z</time></trkpt><trkpt lat="43.707270683910636" lon="11.932653368664852"><ele>1148.0</ele><time>2026-04-19T12:34:11.998Z</time></trkpt><trkpt lat="43.707270557444836" lon="11.932560553054886"><ele>1148.0</ele><time>2026-04-19T12:34:17.998Z</time></trkpt><trkpt lat="43.70729076209872" lon="11.932475085117295"><ele>1148.0</ele><time>2026-04-19T12:34:25.998Z</time></trkpt><trkpt lat="43.70729365146501" lon="11.93238493172788"><ele>1148.0</ele><time>2026-04-19T12:34:35Z</time></trkpt><trkpt lat="43.7073169999006" lon="11.932302360999797"><ele>1148.0</ele><time>2026-04-19T12:34:44Z</time></trkpt><trkpt lat="43.707346090174255" lon="11.932221343816991"><ele>1148.0</ele><time>2026-04-19T12:34:52Z</time></trkpt><trkpt lat="43.707376370575616" lon="11.932141051384283"><ele>1148.0</ele><time>2026-04-19T12:35:01Z</time></trkpt><trkpt lat="43.70741636667479" lon="11.932072159085466"><ele>1147.2</ele><time>2026-04-19T12:35:09Z</time></trkpt><trkpt lat="43.70745534912285" lon="11.931989502507285"><ele>1146.4</ele><time>2026-04-19T12:35:17Z</time></trkpt><trkpt lat="43.70753658678833" lon="11.931956303538605"><ele>1145.6000000000001</ele><time>2026-04-19T12:35:29.999Z</time></trkpt><trkpt lat="43.7075944399907" lon="11.931917231811745"><ele>1144.8</ele><time>2026-04-19T12:35:37.999Z</time></trkpt><trkpt lat="43.70761083733874" lon="11.931810622068268"><ele>1144.0</ele><time>2026-04-19T12:35:42.07Z</time></trkpt><trkpt lat="43.70778789211447" lon="11.931758948797075"><ele>1146.2857142857142</ele><time>2026-04-19T12:36:01.999Z</time></trkpt><trkpt lat="43.707859332998076" lon="11.931755736774404"><ele>1148.5714285714284</ele><time>2026-04-19T12:36:08.999Z</time></trkpt><trkpt lat="43.70788818704904" lon="11.931677354590638"><ele>1150.857142857143</ele><time>2026-04-19T12:36:15.999Z</time></trkpt><trkpt lat="43.70792653299863" lon="11.931592811441341"><ele>1153.142857142857</ele><time>2026-04-19T12:36:24.998Z</time></trkpt><trkpt lat="43.70792744331105" lon="11.931489490485202"><ele>1155.4285714285716</ele><time>2026-04-19T12:36:30.998Z</time></trkpt><trkpt lat="43.70788148583884" lon="11.931416880363738"><ele>1157.7142857142858</ele><time>2026-04-19T12:36:39Z</time></trkpt><trkpt lat="43.70781967608306" lon="11.931381719253366"><ele>1160.0</ele><time>2026-04-19T12:36:45Z</time></trkpt><trkpt lat="43.70775157488763" lon="11.931372875236363"><ele>1156.2857142857142</ele><time>2026-04-19T12:36:51Z</time></trkpt><trkpt lat="43.70768282488495" lon="11.931340394908865"><ele>1152.5714285714287</ele><time>2026-04-19T12:36:58Z</time></trkpt><trkpt lat="43.70761241147989" lon="11.931311098593907"><ele>1148.857142857143</ele><time>2026-04-19T12:37:08Z</time></trkpt><trkpt lat="43.707546836397846" lon="11.931299241962945"><ele>1145.142857142857</ele><time>2026-04-19T12:37:14Z</time></trkpt><trkpt lat="43.70747136702471" lon="11.931279928852968"><ele>1141.4285714285716</ele><time>2026-04-19T12:37:23Z</time></trkpt><trkpt lat="43.70744363830685" lon="11.931185319843918"><ele>1137.7142857142858</ele><time>2026-04-19T12:37:31.999Z</time></trkpt><trkpt lat="43.70743982773996" lon="11.931086149223352"><ele>1134.0</ele><time>2026-04-19T12:37:39.999Z</time></trkpt><trkpt lat="43.70745228864681" lon="11.930989368838144"><ele>1134.0</ele><time>2026-04-19T12:37:48.999Z</time></trkpt><trkpt lat="43.70744073096232" lon="11.930894180202772"><ele>1134.0</ele><time>2026-04-19T12:37:56.999Z</time></trkpt><trkpt lat="43.70743524197649" lon="11.93080670486223"><ele>1134.0</ele><time>2026-04-19T12:38:03.999Z</time></trkpt><trkpt lat="43.70740647456917" lon="11.930714904894659"><ele>1134.0</ele><time>2026-04-19T12:38:10.999Z</time></trkpt><trkpt lat="43.70737321708737" lon="11.930626857770067"><ele>1134.0</ele><time>2026-04-19T12:38:16.999Z</time></trkpt><trkpt lat="43.70735575779723" lon="11.930536486727739"><ele>1134.0</ele><time>2026-04-19T12:38:23.998Z</time></trkpt><trkpt lat="43.7073220415577" lon="11.930460339237031"><ele>1134.0</ele><time>2026-04-19T12:38:30.998Z</time></trkpt><trkpt lat="43.707288789637765" lon="11.9303812884358"><ele>1136.25</ele><time>2026-04-19T12:38:36.998Z</time></trkpt><trkpt lat="43.707242293372985" lon="11.930297578890816"><ele>1138.5</ele><time>2026-04-19T12:38:54Z</time></trkpt><trkpt lat="43.70718177058616" lon="11.930364891541922"><ele>1140.75</ele><time>2026-04-19T12:39:02Z</time></trkpt><trkpt lat="43.70711673805936" lon="11.930342818735872"><ele>1143.0</ele><time>2026-04-19T12:39:08Z</time></trkpt><trkpt lat="43.70713440169953" lon="11.930771760491844"><ele>1143.0</ele><time>2026-04-19T12:39:36.029Z</time></trkpt><trkpt lat="43.70716468540618" lon="11.930904799638112"><ele>1143.0</ele><time>2026-04-19T12:39:39.029Z</time></trkpt><trkpt lat="43.70715447310001" lon="11.931000586183323"><ele>1143.0</ele><time>2026-04-19T12:39:42.031Z</time></trkpt><trkpt lat="43.70708256518996" lon="11.930556585285645"><ele>1143.0</ele><time>2026-04-19T12:40:12.955Z</time></trkpt><trkpt lat="43.70720258909985" lon="11.930404437864068"><ele>1143.0</ele><time>2026-04-19T12:42:29.015Z</time></trkpt><trkpt lat="43.707116263378985" lon="11.930418676753964"><ele>1143.0</ele><time>2026-04-19T12:42:34.996Z</time></trkpt><trkpt lat="43.70705825562012" lon="11.930455944001563"><ele>1143.0</ele><time>2026-04-19T12:42:46Z</time></trkpt><trkpt lat="43.70701644412868" lon="11.9305217723845"><ele>1143.0</ele><time>2026-04-19T12:42:52Z</time></trkpt><trkpt lat="43.706968081013315" lon="11.930583525836278"><ele>1143.0</ele><time>2026-04-19T12:43:02.999Z</time></trkpt><trkpt lat="43.70695228760008" lon="11.930681613628256"><ele>1143.0</ele><time>2026-04-19T12:43:12.999Z</time></trkpt><trkpt lat="43.70697915666353" lon="11.93076446012499"><ele>1143.0</ele><time>2026-04-19T12:43:17.999Z</time></trkpt><trkpt lat="43.706977137343394" lon="11.93085394073205"><ele>1143.0</ele><time>2026-04-19T12:43:25.999Z</time></trkpt><trkpt lat="43.70698627072389" lon="11.930954219191504"><ele>1143.0</ele><time>2026-04-19T12:43:30.999Z</time></trkpt><trkpt lat="43.70691728980025" lon="11.931016618493977"><ele>1143.0</ele><time>2026-04-19T12:43:34.999Z</time></trkpt><trkpt lat="43.706858726303984" lon="11.930977767022245"><ele>1143.0</ele><time>2026-04-19T12:43:43.065Z</time></trkpt><trkpt lat="43.70694870066527" lon="11.93103279806094"><ele>1143.0</ele><time>2026-04-19T12:43:55.023Z</time></trkpt><trkpt lat="43.70706744807362" lon="11.930896233886306"><ele>1143.0</ele><time>2026-04-19T12:45:52.013Z</time></trkpt><trkpt lat="43.707050983068655" lon="11.930807902066075"><ele>1143.0</ele><time>2026-04-19T12:47:45.011Z</time></trkpt><trkpt lat="43.70703843236173" lon="11.930719877421312"><ele>1143.0</ele><time>2026-04-19T12:49:21.999Z</time></trkpt><trkpt lat="43.707026911444345" lon="11.93062767228922"><ele>1143.0</ele><time>2026-04-19T12:49:31.999Z</time></trkpt><trkpt lat="43.70700260251262" lon="11.930547019586955"><ele>1143.0</ele><time>2026-04-19T12:49:45.998Z</time></trkpt><trkpt lat="43.70694992468858" lon="11.93049299447136"><ele>1143.0</ele><time>2026-04-19T12:49:53.998Z</time></trkpt><trkpt lat="43.7069944111364" lon="11.930417475304685"><ele>1143.0</ele><time>2026-04-19T12:52:42Z</time></trkpt><trkpt lat="43.70705284749989" lon="11.930373052086237"><ele>1143.0</ele><time>2026-04-19T12:52:49Z</time></trkpt><trkpt lat="43.70712038080719" lon="11.93035211290792"><ele>1143.0</ele><time>2026-04-19T12:52:56Z</time></trkpt><trkpt lat="43.70722227464444" lon="11.930338880645031"><ele>1143.0</ele><time>2026-04-19T12:53:09Z</time></trkpt><trkpt lat="43.70727240202999" lon="11.930282073214522"><ele>1143.0</ele><time>2026-04-19T12:53:17.999Z</time></trkpt><trkpt lat="43.70723167357676" lon="11.930353581382168"><ele>1143.0</ele><time>2026-04-19T12:53:29.999Z</time></trkpt><trkpt lat="43.707238802587796" lon="11.930442180927306"><ele>1143.0</ele><time>2026-04-19T12:53:42.998Z</time></trkpt><trkpt lat="43.70728741832382" lon="11.930511844776811"><ele>1143.0</ele><time>2026-04-19T12:53:50.998Z</time></trkpt><trkpt lat="43.70734028531999" lon="11.930583050245025"><ele>1143.0</ele><time>2026-04-19T12:53:57.998Z</time></trkpt><trkpt lat="43.70738228415008" lon="11.930667100273503"><ele>1143.0</ele><time>2026-04-19T12:54:04.998Z</time></trkpt><trkpt lat="43.707420315040025" lon="11.930741628322304"><ele>1143.0</ele><time>2026-04-19T12:54:10.998Z</time></trkpt><trkpt lat="43.707411137357056" lon="11.930840283844887"><ele>1143.0</ele><time>2026-04-19T12:54:18Z</time></trkpt><trkpt lat="43.707422070327056" lon="11.930934628310176"><ele>1143.0</ele><time>2026-04-19T12:54:28Z</time></trkpt><trkpt lat="43.70744013328663" lon="11.931020871623586"><ele>1143.0</ele><time>2026-04-19T12:54:34Z</time></trkpt><trkpt lat="43.70743103091587" lon="11.931113661281515"><ele>1143.0</ele><time>2026-04-19T12:54:41.999Z</time></trkpt><trkpt lat="43.70743693536571" lon="11.9312107052116"><ele>1141.7142857142858</ele><time>2026-04-19T12:54:50.999Z</time></trkpt><trkpt lat="43.707495787318294" lon="11.93129172877153"><ele>1140.4285714285713</ele><time>2026-04-19T12:55:01.999Z</time></trkpt><trkpt lat="43.70755713815848" lon="11.931323962086601"><ele>1139.142857142857</ele><time>2026-04-19T12:55:07.999Z</time></trkpt><trkpt lat="43.70762214132875" lon="11.931335148851925"><ele>1137.857142857143</ele><time>2026-04-19T12:55:16.999Z</time></trkpt><trkpt lat="43.707689707810715" lon="11.931375007459744"><ele>1136.5714285714284</ele><time>2026-04-19T12:55:25.999Z</time></trkpt><trkpt lat="43.70775851037864" lon="11.93137664160381"><ele>1135.2857142857142</ele><time>2026-04-19T12:55:32.999Z</time></trkpt><trkpt lat="43.707841165195106" lon="11.93141369323139"><ele>1134.0</ele><time>2026-04-19T12:55:39.999Z</time></trkpt><trkpt lat="43.707880362339665" lon="11.931486355172531"><ele>1135.4285714285713</ele><time>2026-04-19T12:55:44.998Z</time></trkpt><trkpt lat="43.70785608220479" lon="11.931578166710619"><ele>1136.857142857143</ele><time>2026-04-19T12:55:51.998Z</time></trkpt><trkpt lat="43.70780758381715" lon="11.931643533569884"><ele>1138.2857142857142</ele><time>2026-04-19T12:55:59.998Z</time></trkpt><trkpt lat="43.70775356122292" lon="11.931698496637866"><ele>1139.7142857142858</ele><time>2026-04-19T12:56:06.998Z</time></trkpt><trkpt lat="43.70771075446462" lon="11.931772399114172"><ele>1141.142857142857</ele><time>2026-04-19T12:56:12.998Z</time></trkpt><trkpt lat="43.707666376176924" lon="11.931858072480017"><ele>1142.5714285714284</ele><time>2026-04-19T12:56:22Z</time></trkpt><trkpt lat="43.70760032144076" lon="11.9318354464777"><ele>1144.0</ele><time>2026-04-19T12:56:25Z</time></trkpt><trkpt lat="43.70752874698956" lon="11.931819163573001"><ele>1143.9999999999998</ele><time>2026-04-19T12:56:28.068Z</time></trkpt><trkpt lat="43.70745316850502" lon="11.931852698910166"><ele>1144.0</ele><time>2026-04-19T12:56:31.067Z</time></trkpt><trkpt lat="43.70739409323928" lon="11.931931447626363"><ele>1144.0</ele><time>2026-04-19T12:56:39Z</time></trkpt><trkpt lat="43.7073932193794" lon="11.932028984133082"><ele>1144.0</ele><time>2026-04-19T12:56:41Z</time></trkpt><trkpt lat="43.707376644583185" lon="11.932119182099031"><ele>1144.0</ele><time>2026-04-19T12:56:54Z</time></trkpt><trkpt lat="43.70734165699436" lon="11.932208797345943"><ele>1143.9999999999998</ele><time>2026-04-19T12:57:01.999Z</time></trkpt><trkpt lat="43.707299740008665" lon="11.932289343608417"><ele>1144.0</ele><time>2026-04-19T12:57:08.999Z</time></trkpt><trkpt lat="43.707288275334406" lon="11.932378448523442"><ele>1143.9999999999998</ele><time>2026-04-19T12:57:15.999Z</time></trkpt><trkpt lat="43.70725285206225" lon="11.93246579976489"><ele>1144.0</ele><time>2026-04-19T12:57:21.999Z</time></trkpt><trkpt lat="43.70723516499131" lon="11.932557154537779"><ele>1144.0</ele><time>2026-04-19T12:57:29.999Z</time></trkpt><trkpt lat="43.7072069071758" lon="11.932637737257684"><ele>1144.0</ele><time>2026-04-19T12:57:35.999Z</time></trkpt><trkpt lat="43.70717330967534" lon="11.93271317958529"><ele>1144.0</ele><time>2026-04-19T12:57:40.999Z</time></trkpt><trkpt lat="43.707147822373315" lon="11.932797052976586"><ele>1143.9999999999998</ele><time>2026-04-19T12:57:47.999Z</time></trkpt><trkpt lat="43.70713605607269" lon="11.93290244991424"><ele>1144.0</ele><time>2026-04-19T12:57:53.999Z</time></trkpt><trkpt lat="43.70710629695346" lon="11.932982571104423"><ele>1144.5714285714284</ele><time>2026-04-19T12:57:59.999Z</time></trkpt><trkpt lat="43.70708517950653" lon="11.93306995731125"><ele>1145.142857142857</ele><time>2026-04-19T12:58:05.998Z</time></trkpt><trkpt lat="43.707075150922364" lon="11.933165903673117"><ele>1145.7142857142858</ele><time>2026-04-19T12:58:13.998Z</time></trkpt><trkpt lat="43.707074425040524" lon="11.933258648504129"><ele>1146.2857142857142</ele><time>2026-04-19T12:58:21.998Z</time></trkpt><trkpt lat="43.70709597667101" lon="11.93335429510171"><ele>1146.857142857143</ele><time>2026-04-19T12:58:29Z</time></trkpt><trkpt lat="43.707131626891545" lon="11.933426450654274"><ele>1147.4285714285713</ele><time>2026-04-19T12:58:34Z</time></trkpt><trkpt lat="43.70716558738842" lon="11.93351294991433"><ele>1148.0</ele><time>2026-04-19T12:58:40Z</time></trkpt><trkpt lat="43.7072022814201" lon="11.933584188622312"><ele>1145.857142857143</ele><time>2026-04-19T12:58:47Z</time></trkpt><trkpt lat="43.70723642549456" lon="11.933666514316224"><ele>1143.7142857142858</ele><time>2026-04-19T12:58:53Z</time></trkpt><trkpt lat="43.70728051911519" lon="11.933739064036255"><ele>1141.5714285714284</ele><time>2026-04-19T12:59:01Z</time></trkpt><trkpt lat="43.70733314509716" lon="11.93379779647607"><ele>1139.4285714285716</ele><time>2026-04-19T12:59:07Z</time></trkpt><trkpt lat="43.70738691602217" lon="11.933843919137946"><ele>1137.2857142857142</ele><time>2026-04-19T12:59:12Z</time></trkpt><trkpt lat="43.707447708444064" lon="11.933906558286406"><ele>1135.142857142857</ele><time>2026-04-19T12:59:18Z</time></trkpt><trkpt lat="43.70750147151717" lon="11.933965203289672"><ele>1133.0</ele><time>2026-04-19T12:59:24.999Z</time></trkpt><trkpt lat="43.70754757169661" lon="11.93402832364989"><ele>1133.0</ele><time>2026-04-19T12:59:32.999Z</time></trkpt><trkpt lat="43.70759500970823" lon="11.934096032354736"><ele>1133.0</ele><time>2026-04-19T12:59:38.999Z</time></trkpt><trkpt lat="43.70763309699192" lon="11.934165537646798"><ele>1133.0</ele><time>2026-04-19T12:59:44.999Z</time></trkpt><trkpt lat="43.70765867033799" lon="11.934250770846248"><ele>1133.0</ele><time>2026-04-19T12:59:52.999Z</time></trkpt><trkpt lat="43.70771205431222" lon="11.934304294819018"><ele>1133.0</ele><time>2026-04-19T12:59:59.999Z</time></trkpt><trkpt lat="43.70774971712964" lon="11.934377200997703"><ele>1133.0</ele><time>2026-04-19T13:00:05.999Z</time></trkpt><trkpt lat="43.70779982940502" lon="11.934438249729077"><ele>1133.0</ele><time>2026-04-19T13:00:11.999Z</time></trkpt><trkpt lat="43.70783263792337" lon="11.934529799973028"><ele>1134.5714285714284</ele><time>2026-04-19T13:00:17.998Z</time></trkpt><trkpt lat="43.70787597476372" lon="11.934606178417367"><ele>1136.142857142857</ele><time>2026-04-19T13:00:22.998Z</time></trkpt><trkpt lat="43.70792791358247" lon="11.934681022759769"><ele>1137.7142857142858</ele><time>2026-04-19T13:00:28.998Z</time></trkpt><trkpt lat="43.707949247349895" lon="11.93477160412795"><ele>1139.2857142857142</ele><time>2026-04-19T13:00:35.001Z</time></trkpt><trkpt lat="43.70798502703881" lon="11.93485050587577"><ele>1140.857142857143</ele><time>2026-04-19T13:00:40Z</time></trkpt><trkpt lat="43.70797560362435" lon="11.934944769390208"><ele>1142.4285714285713</ele><time>2026-04-19T13:00:46Z</time></trkpt><trkpt lat="43.707945399844704" lon="11.935022440370266"><ele>1144.0</ele><time>2026-04-19T13:00:51Z</time></trkpt><trkpt lat="43.70791716555265" lon="11.935105687700638"><ele>1144.8571428571427</ele><time>2026-04-19T13:00:56Z</time></trkpt><trkpt lat="43.70787670343643" lon="11.935184347146064"><ele>1145.7142857142858</ele><time>2026-04-19T13:01:03Z</time></trkpt><trkpt lat="43.70782587502531" lon="11.935243795043755"><ele>1146.5714285714284</ele><time>2026-04-19T13:01:09Z</time></trkpt><trkpt lat="43.7077945928186" lon="11.93533003005331"><ele>1147.4285714285713</ele><time>2026-04-19T13:01:15Z</time></trkpt><trkpt lat="43.707752207407424" lon="11.935413989050868"><ele>1148.2857142857142</ele><time>2026-04-19T13:01:21Z</time></trkpt><trkpt lat="43.70772152987583" lon="11.93550215224351"><ele>1149.142857142857</ele><time>2026-04-19T13:01:26.999Z</time></trkpt><trkpt lat="43.7076935588952" lon="11.935586142702302"><ele>1150.0</ele><time>2026-04-19T13:01:31.999Z</time></trkpt><trkpt lat="43.70768055412625" lon="11.935678588090443"><ele>1147.4285714285713</ele><time>2026-04-19T13:01:37.999Z</time></trkpt><trkpt lat="43.70763489375497" lon="11.935770555870604"><ele>1144.8571428571427</ele><time>2026-04-19T13:01:45.999Z</time></trkpt><trkpt lat="43.70757819888402" lon="11.93581217624787"><ele>1142.2857142857142</ele><time>2026-04-19T13:01:52.999Z</time></trkpt><trkpt lat="43.707514775213035" lon="11.935878169802306"><ele>1139.7142857142858</ele><time>2026-04-19T13:01:58.999Z</time></trkpt><trkpt lat="43.70749890849129" lon="11.93597336931814"><ele>1137.1428571428573</ele><time>2026-04-19T13:02:03.999Z</time></trkpt><trkpt lat="43.70747233370551" lon="11.936056827998335"><ele>1134.5714285714287</ele><time>2026-04-19T13:02:09.999Z</time></trkpt><trkpt lat="43.707456297629705" lon="11.936145434200425"><ele>1132.0</ele><time>2026-04-19T13:02:15.999Z</time></trkpt><trkpt lat="43.707435223576205" lon="11.936247273327616"><ele>1131.7142857142858</ele><time>2026-04-19T13:02:23.998Z</time></trkpt><trkpt lat="43.707437815007275" lon="11.936340635130877"><ele>1131.4285714285716</ele><time>2026-04-19T13:02:30.998Z</time></trkpt><trkpt lat="43.70747265092032" lon="11.936422318512626"><ele>1131.142857142857</ele><time>2026-04-19T13:02:39Z</time></trkpt><trkpt lat="43.70749735233717" lon="11.936509822687084"><ele>1130.857142857143</ele><time>2026-04-19T13:02:46Z</time></trkpt><trkpt lat="43.707509315387846" lon="11.936598786537994"><ele>1130.5714285714284</ele><time>2026-04-19T13:02:51Z</time></trkpt><trkpt lat="43.70752156429439" lon="11.936689392046775"><ele>1130.2857142857142</ele><time>2026-04-19T13:02:58Z</time></trkpt><trkpt lat="43.70753520908088" lon="11.936784285148425"><ele>1130.0</ele><time>2026-04-19T13:03:05Z</time></trkpt><trkpt lat="43.70754610224686" lon="11.93688304115339"><ele>1129.5714285714284</ele><time>2026-04-19T13:03:11Z</time></trkpt><trkpt lat="43.70752065069277" lon="11.936976072693549"><ele>1129.142857142857</ele><time>2026-04-19T13:03:17Z</time></trkpt><trkpt lat="43.70747849238076" lon="11.937048244461991"><ele>1128.7142857142858</ele><time>2026-04-19T13:03:28Z</time></trkpt><trkpt lat="43.707417910421725" lon="11.937084144890314"><ele>1128.2857142857142</ele><time>2026-04-19T13:03:32Z</time></trkpt><trkpt lat="43.7073638247809" lon="11.937136296430518"><ele>1127.857142857143</ele><time>2026-04-19T13:03:36Z</time></trkpt><trkpt lat="43.70730676124228" lon="11.937175687293154"><ele>1127.4285714285713</ele><time>2026-04-19T13:03:40.999Z</time></trkpt><trkpt lat="43.70724202351506" lon="11.937211564888935"><ele>1127.0</ele><time>2026-04-19T13:03:47.999Z</time></trkpt><trkpt lat="43.70717995288038" lon="11.937156307424386"><ele>1127.0</ele><time>2026-04-19T13:09:01.999Z</time></trkpt><trkpt lat="43.707089077039235" lon="11.937159447560443"><ele>1127.0</ele><time>2026-04-19T13:15:09.998Z</time></trkpt><trkpt lat="43.70699897433755" lon="11.937153404659098"><ele>1127.0</ele><time>2026-04-19T13:15:11.998Z</time></trkpt><trkpt lat="43.70691487142434" lon="11.937157762225484"><ele>1127.0</ele><time>2026-04-19T13:15:14Z</time></trkpt><trkpt lat="43.70685589248629" lon="11.937215957312597"><ele>1127.0</ele><time>2026-04-19T13:15:16Z</time></trkpt><trkpt lat="43.706890397939006" lon="11.937324484329887"><ele>1127.0</ele><time>2026-04-19T13:15:19Z</time></trkpt><trkpt lat="43.706964470439445" lon="11.937322836664544"><ele>1127.0</ele><time>2026-04-19T13:15:21Z</time></trkpt><trkpt lat="43.707032128828146" lon="11.937302410943119"><ele>1127.0</ele><time>2026-04-19T13:15:23Z</time></trkpt><trkpt lat="43.70710989683344" lon="11.937283562027137"><ele>1127.0</ele><time>2026-04-19T13:15:25Z</time></trkpt><trkpt lat="43.70719432585656" lon="11.937265123703146"><ele>1127.0</ele><time>2026-04-19T13:15:27Z</time></trkpt><trkpt lat="43.70726320420123" lon="11.937246899355788"><ele>1127.0</ele><time>2026-04-19T13:15:29Z</time></trkpt><trkpt lat="43.707277280281765" lon="11.937132279094373"><ele>1127.0</ele><time>2026-04-19T13:15:32Z</time></trkpt><trkpt lat="43.707203828088524" lon="11.937048987013359"><ele>1127.0</ele><time>2026-04-19T13:15:34Z</time></trkpt><trkpt lat="43.70708243426614" lon="11.937002256128006"><ele>1127.0</ele><time>2026-04-19T13:15:36Z</time></trkpt><trkpt lat="43.70695806335244" lon="11.937000883596793"><ele>1127.0</ele><time>2026-04-19T13:15:38Z</time></trkpt><trkpt lat="43.706839793948554" lon="11.936988735853413"><ele>1127.0</ele><time>2026-04-19T13:15:40Z</time></trkpt><trkpt lat="43.70673881748003" lon="11.936978399124298"><ele>1125.0</ele><time>2026-04-19T13:15:42Z</time></trkpt><trkpt lat="43.70666271266395" lon="11.937048540589636"><ele>1123.0</ele><time>2026-04-19T13:15:44Z</time></trkpt><trkpt lat="43.70658263595001" lon="11.937112860741248"><ele>1121.0</ele><time>2026-04-19T13:15:45Z</time></trkpt><trkpt lat="43.70657463764113" lon="11.937220484059802"><ele>1119.0</ele><time>2026-04-19T13:15:46Z</time></trkpt><trkpt lat="43.706573352234194" lon="11.937320020981442"><ele>1117.0</ele><time>2026-04-19T13:15:47Z</time></trkpt><trkpt lat="43.706580764326006" lon="11.937421870546572"><ele>1115.0</ele><time>2026-04-19T13:15:48Z</time></trkpt><trkpt lat="43.706606850326956" lon="11.937536200722327"><ele>1114.8333333333335</ele><time>2026-04-19T13:15:49Z</time></trkpt><trkpt lat="43.706656106800985" lon="11.937646501344382"><ele>1114.6666666666667</ele><time>2026-04-19T13:15:50Z</time></trkpt><trkpt lat="43.70671143547771" lon="11.937737638856948"><ele>1114.5</ele><time>2026-04-19T13:15:51Z</time></trkpt><trkpt lat="43.70677515135812" lon="11.93782135775023"><ele>1114.3333333333333</ele><time>2026-04-19T13:15:52Z</time></trkpt><trkpt lat="43.70684750531149" lon="11.937884114674711"><ele>1114.1666666666665</ele><time>2026-04-19T13:15:53Z</time></trkpt><trkpt lat="43.706927370659436" lon="11.937924416712137"><ele>1114.0</ele><time>2026-04-19T13:15:54Z</time></trkpt><trkpt lat="43.70699763353233" lon="11.937943827215253"><ele>1114.0</ele><time>2026-04-19T13:15:55Z</time></trkpt><trkpt lat="43.70706427169266" lon="11.937929517047213"><ele>1114.0</ele><time>2026-04-19T13:15:56Z</time></trkpt><trkpt lat="43.70711849039902" lon="11.937883621674779"><ele>1114.0</ele><time>2026-04-19T13:15:56.999Z</time></trkpt><trkpt lat="43.70721433182128" lon="11.937812910989384"><ele>1114.0</ele><time>2026-04-19T13:15:58.999Z</time></trkpt><trkpt lat="43.70729574744211" lon="11.9377266202026"><ele>1114.0</ele><time>2026-04-19T13:16:00.999Z</time></trkpt><trkpt lat="43.70738326738135" lon="11.937663322968751"><ele>1114.0</ele><time>2026-04-19T13:16:02.999Z</time></trkpt><trkpt lat="43.707463382541086" lon="11.937668338238574"><ele>1114.0</ele><time>2026-04-19T13:16:04.999Z</time></trkpt><trkpt lat="43.707500254553906" lon="11.937767939655446"><ele>1114.0</ele><time>2026-04-19T13:16:06.999Z</time></trkpt><trkpt lat="43.707504364290465" lon="11.937875641082618"><ele>1114.0</ele><time>2026-04-19T13:16:08.999Z</time></trkpt><trkpt lat="43.707384932285635" lon="11.937915996981099"><ele>1114.0</ele><time>2026-04-19T13:16:09.999Z</time></trkpt><trkpt lat="43.70732577646254" lon="11.937987713296337"><ele>1114.0</ele><time>2026-04-19T13:16:10.999Z</time></trkpt><trkpt lat="43.70724072812686" lon="11.938051816028795"><ele>1114.0</ele><time>2026-04-19T13:16:11.999Z</time></trkpt><trkpt lat="43.70714723235273" lon="11.938126455377597"><ele>1114.0</ele><time>2026-04-19T13:16:12.999Z</time></trkpt><trkpt lat="43.707052208782294" lon="11.93820725622853"><ele>1114.0</ele><time>2026-04-19T13:16:13.999Z</time></trkpt><trkpt lat="43.70695373342406" lon="11.938292204695802"><ele>1114.0</ele><time>2026-04-19T13:16:14.999Z</time></trkpt><trkpt lat="43.706844879924006" lon="11.938359261807141"><ele>1112.75</ele><time>2026-04-19T13:16:15.999Z</time></trkpt><trkpt lat="43.706729022244964" lon="11.93840321813253"><ele>1111.5</ele><time>2026-04-19T13:16:16.999Z</time></trkpt><trkpt lat="43.70660731747655" lon="11.938362371586166"><ele>1110.25</ele><time>2026-04-19T13:16:17.999Z</time></trkpt><trkpt lat="43.706492503129816" lon="11.93830689015536"><ele>1109.0</ele><time>2026-04-19T13:16:18.999Z</time></trkpt><trkpt lat="43.7063883950069" lon="11.938245731543953"><ele>1109.0</ele><time>2026-04-19T13:16:19.999Z</time></trkpt><trkpt lat="43.70629698006612" lon="11.938186741433233"><ele>1109.0</ele><time>2026-04-19T13:16:20.999Z</time></trkpt><trkpt lat="43.70621881850603" lon="11.938147011434992"><ele>1109.0</ele><time>2026-04-19T13:16:21.999Z</time></trkpt><trkpt lat="43.706161858935126" lon="11.938069173176972"><ele>1109.0</ele><time>2026-04-19T13:16:22.999Z</time></trkpt><trkpt lat="43.706121907041805" lon="11.937976419121851"><ele>1109.0</ele><time>2026-04-19T13:16:23.999Z</time></trkpt><trkpt lat="43.706098083108515" lon="11.937883058162466"><ele>1109.0</ele><time>2026-04-19T13:16:24.999Z</time></trkpt><trkpt lat="43.70608048046846" lon="11.93772560875764"><ele>1106.6666666666667</ele><time>2026-04-19T13:16:26.999Z</time></trkpt><trkpt lat="43.70603859105482" lon="11.937614714493542"><ele>1104.3333333333335</ele><time>2026-04-19T13:16:28.999Z</time></trkpt><trkpt lat="43.70596433736129" lon="11.93754615097199"><ele>1102.0</ele><time>2026-04-19T13:16:30.999Z</time></trkpt><trkpt lat="43.7058882885529" lon="11.937538057208663"><ele>1099.6666666666667</ele><time>2026-04-19T13:16:31.999Z</time></trkpt><trkpt lat="43.705819259662874" lon="11.937576017711452"><ele>1097.3333333333333</ele><time>2026-04-19T13:16:32.999Z</time></trkpt><trkpt lat="43.705769084451674" lon="11.93765275658668"><ele>1095.0</ele><time>2026-04-19T13:16:33.999Z</time></trkpt><trkpt lat="43.705745677647755" lon="11.937759054493844"><ele>1094.4</ele><time>2026-04-19T13:16:34.999Z</time></trkpt><trkpt lat="43.705765007760085" lon="11.937877630803339"><ele>1093.8</ele><time>2026-04-19T13:16:35.999Z</time></trkpt><trkpt lat="43.70581834983555" lon="11.937993145323897"><ele>1093.2</ele><time>2026-04-19T13:16:36.999Z</time></trkpt><trkpt lat="43.705858121114424" lon="11.938120620175035"><ele>1092.6</ele><time>2026-04-19T13:16:37.999Z</time></trkpt><trkpt lat="43.705906992773684" lon="11.938246236283067"><ele>1092.0</ele><time>2026-04-19T13:16:38.999Z</time></trkpt><trkpt lat="43.705954636983364" lon="11.93835866701849"><ele>1091.6666666666667</ele><time>2026-04-19T13:16:39.999Z</time></trkpt><trkpt lat="43.706012600681646" lon="11.93844914438702"><ele>1091.3333333333333</ele><time>2026-04-19T13:16:40.999Z</time></trkpt><trkpt lat="43.70607609482052" lon="11.93851656650734"><ele>1091.0</ele><time>2026-04-19T13:16:41.999Z</time></trkpt><trkpt lat="43.70613927903232" lon="11.938570594702314"><ele>1090.6666666666665</ele><time>2026-04-19T13:16:42.999Z</time></trkpt><trkpt lat="43.70619980609838" lon="11.938615698751518"><ele>1090.3333333333333</ele><time>2026-04-19T13:16:43.999Z</time></trkpt><trkpt lat="43.70625690623605" lon="11.938657267081249"><ele>1090.0</ele><time>2026-04-19T13:16:44.999Z</time></trkpt><trkpt lat="43.70632767661589" lon="11.938777853465282"><ele>1090.0</ele><time>2026-04-19T13:16:46.999Z</time></trkpt><trkpt lat="43.706272307494245" lon="11.93892185351372"><ele>1090.0</ele><time>2026-04-19T13:16:48.999Z</time></trkpt><trkpt lat="43.706163715493844" lon="11.938953302321671"><ele>1090.0</ele><time>2026-04-19T13:16:50.999Z</time></trkpt><trkpt lat="43.70611263002562" lon="11.93889148973975"><ele>1090.0</ele><time>2026-04-19T13:16:51.999Z</time></trkpt><trkpt lat="43.70606916660197" lon="11.938811847105432"><ele>1090.0</ele><time>2026-04-19T13:16:52.998Z</time></trkpt><trkpt lat="43.70601763354092" lon="11.938723545067369"><ele>1090.5</ele><time>2026-04-19T13:16:53.998Z</time></trkpt><trkpt lat="43.70596163268411" lon="11.938619681849222"><ele>1091.0</ele><time>2026-04-19T13:16:54.998Z</time></trkpt><trkpt lat="43.70587854274315" lon="11.93850973336604"><ele>1091.5</ele><time>2026-04-19T13:16:55.998Z</time></trkpt><trkpt lat="43.70577980761327" lon="11.938405337981571"><ele>1092.0</ele><time>2026-04-19T13:16:56.998Z</time></trkpt><trkpt lat="43.70566788285296" lon="11.938309443581467"><ele>1092.0</ele><time>2026-04-19T13:16:57.998Z</time></trkpt><trkpt lat="43.7055419445407" lon="11.93822104521434"><ele>1092.0</ele><time>2026-04-19T13:16:58.998Z</time></trkpt><trkpt lat="43.70542437545825" lon="11.938144871135444"><ele>1092.0</ele><time>2026-04-19T13:16:59.998Z</time></trkpt><trkpt lat="43.705311444228286" lon="11.938076883119944"><ele>1092.0</ele><time>2026-04-19T13:17:00.998Z</time></trkpt><trkpt lat="43.705216386779426" lon="11.938019572108315"><ele>1088.8333333333333</ele><time>2026-04-19T13:17:01.998Z</time></trkpt><trkpt lat="43.705125993716464" lon="11.937989451194975"><ele>1085.6666666666667</ele><time>2026-04-19T13:17:02.998Z</time></trkpt><trkpt lat="43.70505517214205" lon="11.937938812659322"><ele>1082.5</ele><time>2026-04-19T13:17:03.998Z</time></trkpt><trkpt lat="43.705004996419696" lon="11.93786387432504"><ele>1079.3333333333335</ele><time>2026-04-19T13:17:04.998Z</time></trkpt><trkpt lat="43.70498368811778" lon="11.937775950216254"><ele>1076.1666666666667</ele><time>2026-04-19T13:17:05.998Z</time></trkpt><trkpt lat="43.705000224388236" lon="11.937667176598065"><ele>1073.0</ele><time>2026-04-19T13:17:06.998Z</time></trkpt><trkpt lat="43.70505144319074" lon="11.937576786016635"><ele>1073.8333333333335</ele><time>2026-04-19T13:17:07.998Z</time></trkpt><trkpt lat="43.70513330612091" lon="11.937516680448645"><ele>1074.6666666666667</ele><time>2026-04-19T13:17:08.998Z</time></trkpt><trkpt lat="43.70522849137223" lon="11.937462772847443"><ele>1075.5</ele><time>2026-04-19T13:17:09.998Z</time></trkpt><trkpt lat="43.70530897877841" lon="11.93741276842689"><ele>1076.3333333333333</ele><time>2026-04-19T13:17:10.998Z</time></trkpt><trkpt lat="43.70537190589793" lon="11.937352997819668"><ele>1077.1666666666665</ele><time>2026-04-19T13:17:11.998Z</time></trkpt><trkpt lat="43.70541352590424" lon="11.937279270221968"><ele>1078.0</ele><time>2026-04-19T13:17:12.998Z</time></trkpt><trkpt lat="43.70539797132281" lon="11.937106625606592"><ele>1078.0</ele><time>2026-04-19T13:17:14.998Z</time></trkpt><trkpt lat="43.70534726468576" lon="11.937009865882438"><ele>1078.0</ele><time>2026-04-19T13:17:15.998Z</time></trkpt><trkpt lat="43.70524005503567" lon="11.936973451507706"><ele>1078.0</ele><time>2026-04-19T13:17:16.998Z</time></trkpt><trkpt lat="43.70512142612776" lon="11.936935302434184"><ele>1078.0</ele><time>2026-04-19T13:17:18Z</time></trkpt><trkpt lat="43.705001096413326" lon="11.936875742958941"><ele>1078.0</ele><time>2026-04-19T13:17:19Z</time></trkpt><trkpt lat="43.70485975176061" lon="11.93683064509465"><ele>1078.0</ele><time>2026-04-19T13:17:20Z</time></trkpt><trkpt lat="43.70470794161895" lon="11.93678283481802"><ele>1078.0</ele><time>2026-04-19T13:17:21Z</time></trkpt><trkpt lat="43.70455271995928" lon="11.936733950087719"><ele>1078.0</ele><time>2026-04-19T13:17:22Z</time></trkpt><trkpt lat="43.70440052182582" lon="11.936681725859643"><ele>1074.5</ele><time>2026-04-19T13:17:23Z</time></trkpt><trkpt lat="43.70425397032774" lon="11.936639624781876"><ele>1071.0</ele><time>2026-04-19T13:17:24Z</time></trkpt><trkpt lat="43.70412348749415" lon="11.936576180091377"><ele>1067.5</ele><time>2026-04-19T13:17:25Z</time></trkpt><trkpt lat="43.70400619998672" lon="11.936516257590501"><ele>1064.0</ele><time>2026-04-19T13:17:26Z</time></trkpt><trkpt lat="43.70389905593614" lon="11.9364585288233"><ele>1064.0</ele><time>2026-04-19T13:17:27Z</time></trkpt><trkpt lat="43.70380267028825" lon="11.936385706197552"><ele>1064.0</ele><time>2026-04-19T13:17:28Z</time></trkpt><trkpt lat="43.70372203986535" lon="11.936275460154926"><ele>1064.0</ele><time>2026-04-19T13:17:29Z</time></trkpt><trkpt lat="43.70366196518094" lon="11.936134410741435"><ele>1064.0</ele><time>2026-04-19T13:17:30Z</time></trkpt><trkpt lat="43.70362374233297" lon="11.935993037754018"><ele>1064.0</ele><time>2026-04-19T13:17:31Z</time></trkpt><trkpt lat="43.703597786775894" lon="11.935870545937442"><ele>1064.0</ele><time>2026-04-19T13:17:32Z</time></trkpt><trkpt lat="43.70355431949649" lon="11.9357802230436"><ele>1064.0</ele><time>2026-04-19T13:17:33Z</time></trkpt><trkpt lat="43.70349061895386" lon="11.935740287202085"><ele>1064.0</ele><time>2026-04-19T13:17:34Z</time></trkpt><trkpt lat="43.7034241971688" lon="11.935747848159671"><ele>1064.0</ele><time>2026-04-19T13:17:35Z</time></trkpt><trkpt lat="43.703353429248466" lon="11.935770015874516"><ele>1064.0</ele><time>2026-04-19T13:17:36Z</time></trkpt><trkpt lat="43.703313600059914" lon="11.935877661453373"><ele>1064.0</ele><time>2026-04-19T13:17:37Z</time></trkpt><trkpt lat="43.70334474432006" lon="11.936000894719689"><ele>1064.0</ele><time>2026-04-19T13:17:38Z</time></trkpt><trkpt lat="43.70338677982666" lon="11.936103020030968"><ele>1064.0</ele><time>2026-04-19T13:17:39Z</time></trkpt><trkpt lat="43.70344904504927" lon="11.936214958036656"><ele>1064.0</ele><time>2026-04-19T13:17:40Z</time></trkpt><trkpt lat="43.70352216863667" lon="11.936345078208792"><ele>1064.0</ele><time>2026-04-19T13:17:41Z</time></trkpt><trkpt lat="43.70359643698442" lon="11.936484822652591"><ele>1064.0</ele><time>2026-04-19T13:17:42Z</time></trkpt><trkpt lat="43.70368428970512" lon="11.936617823254435"><ele>1064.0</ele><time>2026-04-19T13:17:43Z</time></trkpt><trkpt lat="43.70378349498474" lon="11.936725347889489"><ele>1064.0</ele><time>2026-04-19T13:17:44Z</time></trkpt><trkpt lat="43.70387840296755" lon="11.936817791072349"><ele>1064.0</ele><time>2026-04-19T13:17:45Z</time></trkpt><trkpt lat="43.70396662081914" lon="11.936897204971817"><ele>1063.3333333333335</ele><time>2026-04-19T13:17:46Z</time></trkpt><trkpt lat="43.70404464554425" lon="11.936963089844957"><ele>1062.6666666666667</ele><time>2026-04-19T13:17:47Z</time></trkpt><trkpt lat="43.70411134684335" lon="11.937026411360112"><ele>1062.0</ele><time>2026-04-19T13:17:48Z</time></trkpt><trkpt lat="43.704163487455894" lon="11.937095454725982"><ele>1061.3333333333333</ele><time>2026-04-19T13:17:49Z</time></trkpt><trkpt lat="43.70418695712272" lon="11.93718169752069"><ele>1060.6666666666665</ele><time>2026-04-19T13:17:50Z</time></trkpt><trkpt lat="43.704173013116815" lon="11.9372768810429"><ele>1060.0</ele><time>2026-04-19T13:17:51Z</time></trkpt><trkpt lat="43.704123788597116" lon="11.937361673035694"><ele>1060.0</ele><time>2026-04-19T13:17:52Z</time></trkpt><trkpt lat="43.70404140834659" lon="11.937410588205118"><ele>1060.0</ele><time>2026-04-19T13:17:53Z</time></trkpt><trkpt lat="43.7039379485107" lon="11.93741824152005"><ele>1060.0</ele><time>2026-04-19T13:17:54Z</time></trkpt><trkpt lat="43.703816515700645" lon="11.93739997994498"><ele>1060.0</ele><time>2026-04-19T13:17:55Z</time></trkpt><trkpt lat="43.703687527725336" lon="11.937379611987192"><ele>1060.0</ele><time>2026-04-19T13:17:56Z</time></trkpt><trkpt lat="43.70355194573692" lon="11.937362524375319"><ele>1057.75</ele><time>2026-04-19T13:17:57Z</time></trkpt><trkpt lat="43.70341036930969" lon="11.937347963149847"><ele>1055.5</ele><time>2026-04-19T13:17:58Z</time></trkpt><trkpt lat="43.703260698184245" lon="11.937334309425562"><ele>1053.25</ele><time>2026-04-19T13:17:59Z</time></trkpt><trkpt lat="43.70310678840981" lon="11.937288452268243"><ele>1051.0</ele><time>2026-04-19T13:18:00Z</time></trkpt><trkpt lat="43.70294689791819" lon="11.937249086225806"><ele>1051.0</ele><time>2026-04-19T13:18:01Z</time></trkpt><trkpt lat="43.70279029897762" lon="11.937208671195078"><ele>1051.0</ele><time>2026-04-19T13:18:02Z</time></trkpt><trkpt lat="43.7026492083943" lon="11.937115992222715"><ele>1051.0</ele><time>2026-04-19T13:18:03Z</time></trkpt><trkpt lat="43.702508344818895" lon="11.937057418434337"><ele>1048.75</ele><time>2026-04-19T13:18:04Z</time></trkpt><trkpt lat="43.70237950155157" lon="11.936978245091318"><ele>1046.5</ele><time>2026-04-19T13:18:05Z</time></trkpt><trkpt lat="43.702253557881114" lon="11.936910788465354"><ele>1044.25</ele><time>2026-04-19T13:18:06Z</time></trkpt><trkpt lat="43.702145434683786" lon="11.936823289229569"><ele>1042.0</ele><time>2026-04-19T13:18:07Z</time></trkpt><trkpt lat="43.70203523200011" lon="11.936761148170199"><ele>1041.2</ele><time>2026-04-19T13:18:08Z</time></trkpt><trkpt lat="43.70192636599699" lon="11.936704444349182"><ele>1040.4</ele><time>2026-04-19T13:18:09Z</time></trkpt><trkpt lat="43.701841118329604" lon="11.93669404264825"><ele>1039.6</ele><time>2026-04-19T13:18:10Z</time></trkpt><trkpt lat="43.70173326800468" lon="11.936682965667556"><ele>1038.8</ele><time>2026-04-19T13:18:11Z</time></trkpt><trkpt lat="43.701635590375346" lon="11.9367758387285"><ele>1038.0</ele><time>2026-04-19T13:18:11.999Z</time></trkpt><trkpt lat="43.70156381610183" lon="11.936949185492304"><ele>1037.0</ele><time>2026-04-19T13:18:13.999Z</time></trkpt><trkpt lat="43.70156041149809" lon="11.937088160829397"><ele>1036.0</ele><time>2026-04-19T13:18:14.999Z</time></trkpt><trkpt lat="43.70158903461521" lon="11.937210131154172"><ele>1035.0</ele><time>2026-04-19T13:18:15.999Z</time></trkpt><trkpt lat="43.70167115808344" lon="11.937304881860449"><ele>1034.0</ele><time>2026-04-19T13:18:16.999Z</time></trkpt><trkpt lat="43.70175428865145" lon="11.937436183069513"><ele>1033.0</ele><time>2026-04-19T13:18:17.999Z</time></trkpt><trkpt lat="43.70185427664159" lon="11.937577274937542"><ele>1032.0</ele><time>2026-04-19T13:18:18.999Z</time></trkpt><trkpt lat="43.701965675983296" lon="11.93773169867905"><ele>1031.0</ele><time>2026-04-19T13:18:19.999Z</time></trkpt><trkpt lat="43.70209040608822" lon="11.937869041204111"><ele>1030.0</ele><time>2026-04-19T13:18:20.999Z</time></trkpt><trkpt lat="43.70222641651864" lon="11.937994717351943"><ele>1030.0</ele><time>2026-04-19T13:18:21.999Z</time></trkpt><trkpt lat="43.70237211586526" lon="11.93813076092912"><ele>1030.0</ele><time>2026-04-19T13:18:22.999Z</time></trkpt><trkpt lat="43.702508380578934" lon="11.938245592074203"><ele>1030.0</ele><time>2026-04-19T13:18:23.999Z</time></trkpt><trkpt lat="43.70263912432865" lon="11.938346453638111"><ele>1028.25</ele><time>2026-04-19T13:18:24.999Z</time></trkpt><trkpt lat="43.70275774219185" lon="11.938444303576423"><ele>1026.5</ele><time>2026-04-19T13:18:25.999Z</time></trkpt><trkpt lat="43.702863711599115" lon="11.93853603914981"><ele>1024.75</ele><time>2026-04-19T13:18:26.999Z</time></trkpt><trkpt lat="43.70296289558516" lon="11.938622001382857"><ele>1023.0</ele><time>2026-04-19T13:18:27.999Z</time></trkpt><trkpt lat="43.70305623633961" lon="11.938685820475172"><ele>1023.0</ele><time>2026-04-19T13:18:28.999Z</time></trkpt><trkpt lat="43.70315594638595" lon="11.93872618029657"><ele>1023.0</ele><time>2026-04-19T13:18:29.999Z</time></trkpt><trkpt lat="43.70323824762572" lon="11.938744128318538"><ele>1023.0</ele><time>2026-04-19T13:18:30.999Z</time></trkpt><trkpt lat="43.70331106813733" lon="11.938745429367861"><ele>1023.0</ele><time>2026-04-19T13:18:31.999Z</time></trkpt><trkpt lat="43.70341275184715" lon="11.938825733041858"><ele>1023.0</ele><time>2026-04-19T13:18:33.999Z</time></trkpt><trkpt lat="43.7033493914346" lon="11.938997995852151"><ele>1023.0</ele><time>2026-04-19T13:18:35.999Z</time></trkpt><trkpt lat="43.70327922621977" lon="11.939035846661408"><ele>1023.0</ele><time>2026-04-19T13:18:36.999Z</time></trkpt><trkpt lat="43.70320882760514" lon="11.93899750942642"><ele>1023.0</ele><time>2026-04-19T13:18:37.999Z</time></trkpt><trkpt lat="43.7031621537547" lon="11.938867726834362"><ele>1023.0</ele><time>2026-04-19T13:18:38.999Z</time></trkpt><trkpt lat="43.703073528378894" lon="11.93878214604356"><ele>1023.0</ele><time>2026-04-19T13:18:39.999Z</time></trkpt><trkpt lat="43.70295641740279" lon="11.938714653117152"><ele>1023.0</ele><time>2026-04-19T13:18:40.999Z</time></trkpt><trkpt lat="43.702829415673214" lon="11.938652914576638"><ele>1023.0</ele><time>2026-04-19T13:18:41.999Z</time></trkpt><trkpt lat="43.702690775583676" lon="11.938587043883038"><ele>1023.0</ele><time>2026-04-19T13:18:42.999Z</time></trkpt><trkpt lat="43.70253770069043" lon="11.9385152659996"><ele>1023.0</ele><time>2026-04-19T13:18:43.999Z</time></trkpt><trkpt lat="43.702381516911394" lon="11.938442030359145"><ele>1022.0</ele><time>2026-04-19T13:18:44.999Z</time></trkpt><trkpt lat="43.702206366131946" lon="11.938383455271664"><ele>1021.0</ele><time>2026-04-19T13:18:45.999Z</time></trkpt><trkpt lat="43.70203083998653" lon="11.93829456052848"><ele>1020.0</ele><time>2026-04-19T13:18:46.999Z</time></trkpt><trkpt lat="43.701856954584294" lon="11.938213222162236"><ele>1020.0</ele><time>2026-04-19T13:18:47.999Z</time></trkpt><trkpt lat="43.701683233603156" lon="11.938136601345267"><ele>1020.0</ele><time>2026-04-19T13:18:48.999Z</time></trkpt><trkpt lat="43.70151262656487" lon="11.938060748108159"><ele>1020.0</ele><time>2026-04-19T13:18:49.999Z</time></trkpt><trkpt lat="43.70135055480575" lon="11.937961804598306"><ele>1020.0</ele><time>2026-04-19T13:18:50.999Z</time></trkpt><trkpt lat="43.701192209671795" lon="11.937890744821742"><ele>1020.0</ele><time>2026-04-19T13:18:51.999Z</time></trkpt><trkpt lat="43.701040186457995" lon="11.937827416438942"><ele>1020.0</ele><time>2026-04-19T13:18:52.999Z</time></trkpt><trkpt lat="43.700885398995304" lon="11.937776768267273"><ele>1016.0</ele><time>2026-04-19T13:18:53.999Z</time></trkpt><trkpt lat="43.700719091629864" lon="11.937757620209554"><ele>1012.0</ele><time>2026-04-19T13:18:54.999Z</time></trkpt><trkpt lat="43.70055549488261" lon="11.937737075396585"><ele>1008.0</ele><time>2026-04-19T13:18:55.999Z</time></trkpt><trkpt lat="43.70039843670612" lon="11.937706988171671"><ele>1008.5</ele><time>2026-04-19T13:18:56.999Z</time></trkpt><trkpt lat="43.700249726838976" lon="11.937696070311658"><ele>1009.0</ele><time>2026-04-19T13:18:57.999Z</time></trkpt><trkpt lat="43.700107018969284" lon="11.937651703170117"><ele>1009.5</ele><time>2026-04-19T13:18:58.999Z</time></trkpt><trkpt lat="43.699964356792144" lon="11.937582924609515"><ele>1010.0</ele><time>2026-04-19T13:18:59.999Z</time></trkpt><trkpt lat="43.69982718391062" lon="11.937498136974723"><ele>1010.0</ele><time>2026-04-19T13:19:00.999Z</time></trkpt><trkpt lat="43.69969713537109" lon="11.937440550863295"><ele>1010.0</ele><time>2026-04-19T13:19:01.999Z</time></trkpt><trkpt lat="43.69959321725698" lon="11.937372491481295"><ele>1010.0</ele><time>2026-04-19T13:19:02.999Z</time></trkpt><trkpt lat="43.69951233087142" lon="11.93733118098772"><ele>1010.0</ele><time>2026-04-19T13:19:03.999Z</time></trkpt><trkpt lat="43.699444755777144" lon="11.93731158851851"><ele>1010.0</ele><time>2026-04-19T13:19:04.999Z</time></trkpt><trkpt lat="43.69931294754599" lon="11.93740694773364"><ele>1007.4</ele><time>2026-04-19T13:19:06.999Z</time></trkpt><trkpt lat="43.69930664925316" lon="11.937553321412562"><ele>1004.8</ele><time>2026-04-19T13:19:07.999Z</time></trkpt><trkpt lat="43.699330197593376" lon="11.937667598361925"><ele>1002.2</ele><time>2026-04-19T13:19:08.998Z</time></trkpt><trkpt lat="43.69939627558812" lon="11.937758056985768"><ele>999.6</ele><time>2026-04-19T13:19:09.998Z</time></trkpt><trkpt lat="43.69949110500225" lon="11.937818421718953"><ele>997.0</ele><time>2026-04-19T13:19:10.998Z</time></trkpt><trkpt lat="43.699607811669985" lon="11.9378727005851"><ele>997.0</ele><time>2026-04-19T13:19:11.998Z</time></trkpt><trkpt lat="43.699737320213245" lon="11.937934955575555"><ele>997.0</ele><time>2026-04-19T13:19:12.998Z</time></trkpt><trkpt lat="43.699868812798755" lon="11.93801054811312"><ele>997.0</ele><time>2026-04-19T13:19:13.998Z</time></trkpt><trkpt lat="43.700009776142885" lon="11.938094764247941"><ele>997.0</ele><time>2026-04-19T13:19:14.998Z</time></trkpt><trkpt lat="43.70016656451614" lon="11.938190181070723"><ele>994.3333333333333</ele><time>2026-04-19T13:19:15.998Z</time></trkpt><trkpt lat="43.7003227487021" lon="11.938277478407915"><ele>991.6666666666667</ele><time>2026-04-19T13:19:16.998Z</time></trkpt><trkpt lat="43.70046096949671" lon="11.938365798739541"><ele>989.0</ele><time>2026-04-19T13:19:17.998Z</time></trkpt><trkpt lat="43.70058966472549" lon="11.938447489579097"><ele>989.0</ele><time>2026-04-19T13:19:18.998Z</time></trkpt><trkpt lat="43.70071646100992" lon="11.93851878892837"><ele>989.0000000000001</ele><time>2026-04-19T13:19:19.998Z</time></trkpt><trkpt lat="43.70082562447154" lon="11.938578942110158"><ele>989.0000000000001</ele><time>2026-04-19T13:19:20.998Z</time></trkpt><trkpt lat="43.70091848219853" lon="11.938631331957541"><ele>989.0</ele><time>2026-04-19T13:19:21.998Z</time></trkpt><trkpt lat="43.70099398890825" lon="11.93869234271408"><ele>989.0</ele><time>2026-04-19T13:19:22.998Z</time></trkpt><trkpt lat="43.701071245767146" lon="11.938741605237542"><ele>989.0000000000001</ele><time>2026-04-19T13:19:24Z</time></trkpt><trkpt lat="43.70113712805331" lon="11.938807457303708"><ele>989.0</ele><time>2026-04-19T13:19:25Z</time></trkpt><trkpt lat="43.70117028763658" lon="11.9389061258705"><ele>989.0</ele><time>2026-04-19T13:19:26Z</time></trkpt><trkpt lat="43.701156445537926" lon="11.939020265329075"><ele>989.0</ele><time>2026-04-19T13:19:27Z</time></trkpt><trkpt lat="43.7011036968866" lon="11.939136566304423"><ele>989.0000000000001</ele><time>2026-04-19T13:19:28Z</time></trkpt><trkpt lat="43.70102803563717" lon="11.939213294500655"><ele>989.0</ele><time>2026-04-19T13:19:29Z</time></trkpt><trkpt lat="43.70091876749108" lon="11.939178077492215"><ele>989.0</ele><time>2026-04-19T13:19:30Z</time></trkpt><trkpt lat="43.70078353555022" lon="11.939208881658379"><ele>989.0</ele><time>2026-04-19T13:19:31Z</time></trkpt><trkpt lat="43.70063789075701" lon="11.939206003961186"><ele>989.0</ele><time>2026-04-19T13:19:32Z</time></trkpt><trkpt lat="43.70049081997599" lon="11.939231705554993"><ele>989.0</ele><time>2026-04-19T13:19:33Z</time></trkpt><trkpt lat="43.70034854652884" lon="11.939252509778653"><ele>987.25</ele><time>2026-04-19T13:19:34Z</time></trkpt><trkpt lat="43.70021257287797" lon="11.939255482035609"><ele>985.5</ele><time>2026-04-19T13:19:35Z</time></trkpt><trkpt lat="43.70008076306522" lon="11.939237617253442"><ele>983.75</ele><time>2026-04-19T13:19:36Z</time></trkpt><trkpt lat="43.69995154509198" lon="11.939202906917593"><ele>982.0</ele><time>2026-04-19T13:19:37Z</time></trkpt><trkpt lat="43.6998253261564" lon="11.939121428400577"><ele>982.0</ele><time>2026-04-19T13:19:38Z</time></trkpt><trkpt lat="43.69970202164976" lon="11.939019803743058"><ele>982.0</ele><time>2026-04-19T13:19:39Z</time></trkpt><trkpt lat="43.699579462970156" lon="11.938930835485682"><ele>982.0</ele><time>2026-04-19T13:19:40Z</time></trkpt><trkpt lat="43.69947907000154" lon="11.938826966919601"><ele>982.0</ele><time>2026-04-19T13:19:41Z</time></trkpt><trkpt lat="43.69937636453429" lon="11.938742167060843"><ele>979.0</ele><time>2026-04-19T13:19:42Z</time></trkpt><trkpt lat="43.69927640115132" lon="11.938671468930057"><ele>976.0</ele><time>2026-04-19T13:19:43Z</time></trkpt><trkpt lat="43.69918543305744" lon="11.938610325636176"><ele>973.0</ele><time>2026-04-19T13:19:44Z</time></trkpt><trkpt lat="43.69909836725431" lon="11.938574552086475"><ele>970.0</ele><time>2026-04-19T13:19:45Z</time></trkpt><trkpt lat="43.69902051014085" lon="11.938561615913969"><ele>967.0</ele><time>2026-04-19T13:19:46Z</time></trkpt><trkpt lat="43.698941069827434" lon="11.93855910185522"><ele>967.0</ele><time>2026-04-19T13:19:47Z</time></trkpt><trkpt lat="43.698842358564775" lon="11.93854668378885"><ele>967.0</ele><time>2026-04-19T13:19:48Z</time></trkpt><trkpt lat="43.6987192336605" lon="11.938518504375935"><ele>967.0</ele><time>2026-04-19T13:19:49Z</time></trkpt><trkpt lat="43.69857392666296" lon="11.93848445082566"><ele>967.0</ele><time>2026-04-19T13:19:50Z</time></trkpt><trkpt lat="43.69842426096351" lon="11.938453603553915"><ele>969.3333333333333</ele><time>2026-04-19T13:19:51Z</time></trkpt><trkpt lat="43.698257298214635" lon="11.93842698635"><ele>971.6666666666667</ele><time>2026-04-19T13:19:52Z</time></trkpt><trkpt lat="43.69807401445036" lon="11.938380276545871"><ele>974.0</ele><time>2026-04-19T13:19:53Z</time></trkpt><trkpt lat="43.697893304261726" lon="11.938351064265305"><ele>971.6666666666667</ele><time>2026-04-19T13:19:54Z</time></trkpt><trkpt lat="43.697727001800196" lon="11.93832819636769"><ele>969.3333333333333</ele><time>2026-04-19T13:19:55Z</time></trkpt><trkpt lat="43.69757313533544" lon="11.938307484528384"><ele>967.0</ele><time>2026-04-19T13:19:56Z</time></trkpt><trkpt lat="43.697440889036564" lon="11.938286764976308"><ele>967.0</ele><time>2026-04-19T13:19:57Z</time></trkpt><trkpt lat="43.69732697343543" lon="11.938266848821124"><ele>967.0</ele><time>2026-04-19T13:19:58Z</time></trkpt><trkpt lat="43.697235336245754" lon="11.938232713216678"><ele>967.0</ele><time>2026-04-19T13:19:59Z</time></trkpt><trkpt lat="43.69717095298943" lon="11.938170973379878"><ele>967.0</ele><time>2026-04-19T13:20:00Z</time></trkpt><trkpt lat="43.697132659368194" lon="11.938072329962656"><ele>967.0</ele><time>2026-04-19T13:20:01Z</time></trkpt><trkpt lat="43.69715019211404" lon="11.937937504737084"><ele>967.0</ele><time>2026-04-19T13:20:02Z</time></trkpt><trkpt lat="43.697214663043965" lon="11.937808316031006"><ele>967.0</ele><time>2026-04-19T13:20:03Z</time></trkpt><trkpt lat="43.69729522492882" lon="11.93767901210638"><ele>967.0</ele><time>2026-04-19T13:20:04Z</time></trkpt><trkpt lat="43.697366819809766" lon="11.937556969467902"><ele>967.0</ele><time>2026-04-19T13:20:05Z</time></trkpt><trkpt lat="43.69744699653497" lon="11.937467260922205"><ele>965.5</ele><time>2026-04-19T13:20:06Z</time></trkpt><trkpt lat="43.6975606921741" lon="11.93742301308656"><ele>964.0</ele><time>2026-04-19T13:20:07Z</time></trkpt><trkpt lat="43.69770694669236" lon="11.937405933110824"><ele>962.5</ele><time>2026-04-19T13:20:08Z</time></trkpt><trkpt lat="43.69785853675142" lon="11.937359949013857"><ele>961.0</ele><time>2026-04-19T13:20:09Z</time></trkpt><trkpt lat="43.698003977513075" lon="11.93731401367499"><ele>964.5</ele><time>2026-04-19T13:20:10Z</time></trkpt><trkpt lat="43.69814236079599" lon="11.937281806908736"><ele>968.0</ele><time>2026-04-19T13:20:11Z</time></trkpt><trkpt lat="43.698268359031395" lon="11.937237027371964"><ele>971.5</ele><time>2026-04-19T13:20:12Z</time></trkpt><trkpt lat="43.69838009886572" lon="11.937157566423647"><ele>975.0</ele><time>2026-04-19T13:20:13Z</time></trkpt><trkpt lat="43.69847234570223" lon="11.937043108907673"><ele>975.0</ele><time>2026-04-19T13:20:14Z</time></trkpt><trkpt lat="43.698547190524145" lon="11.936902740155258"><ele>975.0</ele><time>2026-04-19T13:20:15Z</time></trkpt><trkpt lat="43.69861128061164" lon="11.936741070496444"><ele>975.0</ele><time>2026-04-19T13:20:16Z</time></trkpt><trkpt lat="43.69867504946608" lon="11.936577514096529"><ele>975.0</ele><time>2026-04-19T13:20:17Z</time></trkpt><trkpt lat="43.698740936050115" lon="11.93641672551167"><ele>976.25</ele><time>2026-04-19T13:20:18Z</time></trkpt><trkpt lat="43.69880562678549" lon="11.93627216802549"><ele>977.5</ele><time>2026-04-19T13:20:19Z</time></trkpt><trkpt lat="43.69886647880314" lon="11.936134384181283"><ele>978.75</ele><time>2026-04-19T13:20:20Z</time></trkpt><trkpt lat="43.6989268334447" lon="11.93599032531119"><ele>980.0</ele><time>2026-04-19T13:20:21Z</time></trkpt><trkpt lat="43.69898979906196" lon="11.935847661107571"><ele>976.4</ele><time>2026-04-19T13:20:22Z</time></trkpt><trkpt lat="43.69904905682633" lon="11.935723024013537"><ele>972.8</ele><time>2026-04-19T13:20:23Z</time></trkpt><trkpt lat="43.699103330953584" lon="11.93561423390159"><ele>969.2</ele><time>2026-04-19T13:20:24Z</time></trkpt><trkpt lat="43.69915452754159" lon="11.935524113717214"><ele>965.6</ele><time>2026-04-19T13:20:24.999Z</time></trkpt><trkpt lat="43.69920159253629" lon="11.935458763860785"><ele>962.0</ele><time>2026-04-19T13:20:25.999Z</time></trkpt><trkpt lat="43.69927681890059" lon="11.93533897089541"><ele>962.0</ele><time>2026-04-19T13:20:27.999Z</time></trkpt><trkpt lat="43.69926906401932" lon="11.935221664760597"><ele>962.0</ele><time>2026-04-19T13:20:28.999Z</time></trkpt><trkpt lat="43.6992403665162" lon="11.935090446200581"><ele>962.0</ele><time>2026-04-19T13:20:29.999Z</time></trkpt><trkpt lat="43.69920834384725" lon="11.934943757355429"><ele>962.0</ele><time>2026-04-19T13:20:30.999Z</time></trkpt><trkpt lat="43.699196391687515" lon="11.934801036855605"><ele>962.0</ele><time>2026-04-19T13:20:31.999Z</time></trkpt><trkpt lat="43.69919086860639" lon="11.934678421988897"><ele>960.6666666666667</ele><time>2026-04-19T13:20:32.999Z</time></trkpt><trkpt lat="43.6991652144124" lon="11.934574585375737"><ele>959.3333333333334</ele><time>2026-04-19T13:20:33.999Z</time></trkpt><trkpt lat="43.69911108578501" lon="11.934502061890097"><ele>958.0</ele><time>2026-04-19T13:20:34.999Z</time></trkpt><trkpt lat="43.699038109892406" lon="11.934475385372082"><ele>956.6666666666667</ele><time>2026-04-19T13:20:35.999Z</time></trkpt><trkpt lat="43.69895500632283" lon="11.934475854222232"><ele>955.3333333333334</ele><time>2026-04-19T13:20:36.999Z</time></trkpt><trkpt lat="43.6988836199099" lon="11.934571333496306"><ele>954.0</ele><time>2026-04-19T13:20:37.999Z</time></trkpt><trkpt lat="43.698814131849375" lon="11.934664799224704"><ele>954.0</ele><time>2026-04-19T13:20:38.999Z</time></trkpt><trkpt lat="43.69879622134295" lon="11.934825109132813"><ele>954.0</ele><time>2026-04-19T13:20:39.999Z</time></trkpt><trkpt lat="43.6987815751459" lon="11.93498647190654"><ele>954.0</ele><time>2026-04-19T13:20:40.999Z</time></trkpt><trkpt lat="43.69872860185557" lon="11.935135853962775"><ele>954.0</ele><time>2026-04-19T13:20:41.999Z</time></trkpt><trkpt lat="43.698668557657676" lon="11.935270600385092"><ele>951.5</ele><time>2026-04-19T13:20:42.999Z</time></trkpt><trkpt lat="43.69858132409269" lon="11.935387070073377"><ele>949.0</ele><time>2026-04-19T13:20:43.999Z</time></trkpt><trkpt lat="43.698480440467115" lon="11.935509386446006"><ele>946.5</ele><time>2026-04-19T13:20:44.999Z</time></trkpt><trkpt lat="43.698375000964205" lon="11.93562880264988"><ele>944.0</ele><time>2026-04-19T13:20:45.999Z</time></trkpt><trkpt lat="43.698285913587966" lon="11.935752718334925"><ele>944.0</ele><time>2026-04-19T13:20:46.999Z</time></trkpt><trkpt lat="43.698191119039635" lon="11.935862806340959"><ele>944.0</ele><time>2026-04-19T13:20:47.999Z</time></trkpt><trkpt lat="43.69808633403871" lon="11.935950198662052"><ele>944.0</ele><time>2026-04-19T13:20:48.998Z</time></trkpt><trkpt lat="43.69799413385132" lon="11.936050873288544"><ele>944.0</ele><time>2026-04-19T13:20:49.998Z</time></trkpt><trkpt lat="43.697901829553246" lon="11.936146212687094"><ele>943.0</ele><time>2026-04-19T13:20:50.998Z</time></trkpt><trkpt lat="43.69780094305458" lon="11.936232963466077"><ele>942.0</ele><time>2026-04-19T13:20:51.998Z</time></trkpt><trkpt lat="43.69768684817319" lon="11.93631180966161"><ele>941.0</ele><time>2026-04-19T13:20:52.998Z</time></trkpt><trkpt lat="43.69756783310164" lon="11.936384207018321"><ele>940.0</ele><time>2026-04-19T13:20:53.998Z</time></trkpt><trkpt lat="43.697451219638616" lon="11.936477320296307"><ele>940.0</ele><time>2026-04-19T13:20:54.998Z</time></trkpt><trkpt lat="43.69732879702195" lon="11.936563902152232"><ele>940.0</ele><time>2026-04-19T13:20:55.998Z</time></trkpt><trkpt lat="43.69720322084063" lon="11.93665809374562"><ele>940.0</ele><time>2026-04-19T13:20:56.998Z</time></trkpt><trkpt lat="43.69707767444207" lon="11.936754510291193"><ele>940.0</ele><time>2026-04-19T13:20:57.998Z</time></trkpt><trkpt lat="43.6969454658676" lon="11.936828139155075"><ele>939.5</ele><time>2026-04-19T13:20:58.998Z</time></trkpt><trkpt lat="43.696827004786414" lon="11.936918128228637"><ele>939.0</ele><time>2026-04-19T13:20:59.998Z</time></trkpt><trkpt lat="43.69671339351661" lon="11.937006870741033"><ele>938.5</ele><time>2026-04-19T13:21:00.998Z</time></trkpt><trkpt lat="43.696602026574205" lon="11.937095402729536"><ele>938.0</ele><time>2026-04-19T13:21:01.998Z</time></trkpt><trkpt lat="43.69649388102144" lon="11.93718425095059"><ele>938.0</ele><time>2026-04-19T13:21:02.998Z</time></trkpt><trkpt lat="43.69638968574311" lon="11.937273254135253"><ele>938.0</ele><time>2026-04-19T13:21:03.998Z</time></trkpt><trkpt lat="43.69628446427472" lon="11.937364235109518"><ele>938.0</ele><time>2026-04-19T13:21:04.998Z</time></trkpt><trkpt lat="43.696176758506475" lon="11.937451326081831"><ele>938.0</ele><time>2026-04-19T13:21:05.998Z</time></trkpt><trkpt lat="43.69606563244411" lon="11.937535329757875"><ele>936.5</ele><time>2026-04-19T13:21:06.998Z</time></trkpt><trkpt lat="43.695956052982176" lon="11.937625740215285"><ele>935.0</ele><time>2026-04-19T13:21:07.998Z</time></trkpt><trkpt lat="43.6958357209371" lon="11.937661324995426"><ele>933.5</ele><time>2026-04-19T13:21:08.998Z</time></trkpt><trkpt lat="43.69573583994234" lon="11.937735611510327"><ele>932.0</ele><time>2026-04-19T13:21:09.998Z</time></trkpt><trkpt lat="43.69563076365894" lon="11.937775733773506"><ele>932.0</ele><time>2026-04-19T13:21:10.998Z</time></trkpt><trkpt lat="43.69554189102429" lon="11.937856256855325"><ele>932.0</ele><time>2026-04-19T13:21:11.998Z</time></trkpt><trkpt lat="43.69547190131581" lon="11.937972888273542"><ele>932.0</ele><time>2026-04-19T13:21:12.998Z</time></trkpt><trkpt lat="43.69543886906176" lon="11.93813382173055"><ele>932.0</ele><time>2026-04-19T13:21:13.998Z</time></trkpt><trkpt lat="43.69538118551609" lon="11.938278072812533"><ele>932.0</ele><time>2026-04-19T13:21:14.998Z</time></trkpt><trkpt lat="43.69533847505499" lon="11.938419025270113"><ele>932.0</ele><time>2026-04-19T13:21:15.998Z</time></trkpt><trkpt lat="43.69530228530757" lon="11.938529685206277"><ele>932.0</ele><time>2026-04-19T13:21:16.998Z</time></trkpt><trkpt lat="43.69522808532107" lon="11.938592011721274"><ele>932.0</ele><time>2026-04-19T13:21:17.998Z</time></trkpt><trkpt lat="43.69514271816422" lon="11.938608118201433"><ele>932.0</ele><time>2026-04-19T13:21:18.998Z</time></trkpt><trkpt lat="43.69506150730002" lon="11.938578743831085"><ele>928.1666666666667</ele><time>2026-04-19T13:21:19.998Z</time></trkpt><trkpt lat="43.69500117296345" lon="11.938508229120224"><ele>924.3333333333334</ele><time>2026-04-19T13:21:20.998Z</time></trkpt><trkpt lat="43.69496807056266" lon="11.938413767002933"><ele>920.5</ele><time>2026-04-19T13:21:21.998Z</time></trkpt><trkpt lat="43.69496736207054" lon="11.938300531096333"><ele>916.6666666666667</ele><time>2026-04-19T13:21:22.998Z</time></trkpt><trkpt lat="43.695006660357954" lon="11.93817586610354"><ele>912.8333333333334</ele><time>2026-04-19T13:21:23.997Z</time></trkpt><trkpt lat="43.69504623111641" lon="11.93803404073395"><ele>909.0</ele><time>2026-04-19T13:21:24.997Z</time></trkpt><trkpt lat="43.69508243437712" lon="11.937872873001185"><ele>909.0</ele><time>2026-04-19T13:21:25.997Z</time></trkpt><trkpt lat="43.69512296521741" lon="11.93769864928995"><ele>909.0</ele><time>2026-04-19T13:21:26.997Z</time></trkpt><trkpt lat="43.69516418499072" lon="11.937507871246012"><ele>909.0</ele><time>2026-04-19T13:21:27.997Z</time></trkpt><trkpt lat="43.69519707058164" lon="11.937313333391744"><ele>909.0</ele><time>2026-04-19T13:21:28.997Z</time></trkpt><trkpt lat="43.695221766425114" lon="11.937107881286826"><ele>908.0</ele><time>2026-04-19T13:21:29.999Z</time></trkpt><trkpt lat="43.69523788672489" lon="11.936890852123902"><ele>907.0</ele><time>2026-04-19T13:21:30.999Z</time></trkpt><trkpt lat="43.695244648035676" lon="11.936686957256399"><ele>906.0</ele><time>2026-04-19T13:21:31.999Z</time></trkpt><trkpt lat="43.69524674879521" lon="11.936492321938314"><ele>905.0</ele><time>2026-04-19T13:21:32.999Z</time></trkpt><trkpt lat="43.69524936058536" lon="11.936309188894672"><ele>904.0</ele><time>2026-04-19T13:21:33.999Z</time></trkpt><trkpt lat="43.69525487488654" lon="11.936141154793393"><ele>903.0</ele><time>2026-04-19T13:21:34.999Z</time></trkpt><trkpt lat="43.695253812194004" lon="11.935976237392556"><ele>902.0</ele><time>2026-04-19T13:21:35.999Z</time></trkpt><trkpt lat="43.69523407333297" lon="11.935809222914585"><ele>901.0</ele><time>2026-04-19T13:21:36.999Z</time></trkpt><trkpt lat="43.69517868461993" lon="11.935645272430515"><ele>900.0</ele><time>2026-04-19T13:21:37.999Z</time></trkpt><trkpt lat="43.695089035970895" lon="11.935486153350443"><ele>899.0</ele><time>2026-04-19T13:21:38.999Z</time></trkpt><trkpt lat="43.69497277135441" lon="11.935327659615918"><ele>898.0</ele><time>2026-04-19T13:21:39.999Z</time></trkpt><trkpt lat="43.69483651078853" lon="11.935161337716533"><ele>898.3333333333333</ele><time>2026-04-19T13:21:40.999Z</time></trkpt><trkpt lat="43.694698775589984" lon="11.934993145232482"><ele>898.6666666666667</ele><time>2026-04-19T13:21:41.999Z</time></trkpt><trkpt lat="43.69456218196855" lon="11.934820587070009"><ele>899.0</ele><time>2026-04-19T13:21:42.999Z</time></trkpt><trkpt lat="43.69442936433642" lon="11.934659370363853"><ele>896.5</ele><time>2026-04-19T13:21:43.999Z</time></trkpt><trkpt lat="43.694306109012985" lon="11.93450814451714"><ele>894.0</ele><time>2026-04-19T13:21:44.999Z</time></trkpt><trkpt lat="43.69419911681754" lon="11.934382945663753"><ele>891.5</ele><time>2026-04-19T13:21:45.999Z</time></trkpt><trkpt lat="43.69409652276109" lon="11.934282091994024"><ele>889.0</ele><time>2026-04-19T13:21:46.999Z</time></trkpt><trkpt lat="43.69398448484173" lon="11.934213674309781"><ele>889.0</ele><time>2026-04-19T13:21:47.999Z</time></trkpt><trkpt lat="43.693862582765284" lon="11.934189207953194"><ele>889.0</ele><time>2026-04-19T13:21:48.999Z</time></trkpt><trkpt lat="43.693725420679584" lon="11.934179775716455"><ele>889.0</ele><time>2026-04-19T13:21:49.999Z</time></trkpt><trkpt lat="43.69359538310386" lon="11.934225615708561"><ele>889.0</ele><time>2026-04-19T13:21:50.999Z</time></trkpt><trkpt lat="43.69347858391452" lon="11.934317019957032"><ele>886.5</ele><time>2026-04-19T13:21:51.999Z</time></trkpt><trkpt lat="43.693374824463895" lon="11.934447393499603"><ele>884.0</ele><time>2026-04-19T13:21:52.999Z</time></trkpt><trkpt lat="43.69329936701524" lon="11.934595774436868"><ele>881.5</ele><time>2026-04-19T13:21:53.999Z</time></trkpt><trkpt lat="43.693246401569205" lon="11.9347820940668"><ele>879.0</ele><time>2026-04-19T13:21:54.999Z</time></trkpt><trkpt lat="43.69323326227295" lon="11.93499828407199"><ele>879.0</ele><time>2026-04-19T13:21:55.999Z</time></trkpt><trkpt lat="43.69321700447379" lon="11.935215119330122"><ele>879.0</ele><time>2026-04-19T13:21:56.999Z</time></trkpt><trkpt lat="43.693213650898514" lon="11.935400798633196"><ele>879.0</ele><time>2026-04-19T13:21:57.999Z</time></trkpt><trkpt lat="43.69321230536713" lon="11.935551626112852"><ele>879.0</ele><time>2026-04-19T13:21:58.999Z</time></trkpt><trkpt lat="43.69319979545999" lon="11.935676393376403"><ele>879.0</ele><time>2026-04-19T13:21:59.999Z</time></trkpt><trkpt lat="43.69316013586073" lon="11.935780796851702"><ele>879.0000000000001</ele><time>2026-04-19T13:22:00.999Z</time></trkpt><trkpt lat="43.6930881917639" lon="11.935870494581728"><ele>879.0000000000001</ele><time>2026-04-19T13:22:01.999Z</time></trkpt><trkpt lat="43.69299342417808" lon="11.935914830223714"><ele>879.0</ele><time>2026-04-19T13:22:02.999Z</time></trkpt><trkpt lat="43.692899264084176" lon="11.935906772408948"><ele>879.0</ele><time>2026-04-19T13:22:03.999Z</time></trkpt><trkpt lat="43.69279576936708" lon="11.935853644968713"><ele>875.75</ele><time>2026-04-19T13:22:04.999Z</time></trkpt><trkpt lat="43.692688825601216" lon="11.935743867481735"><ele>872.5</ele><time>2026-04-19T13:22:05.999Z</time></trkpt><trkpt lat="43.692578993279376" lon="11.935598640481885"><ele>869.25</ele><time>2026-04-19T13:22:06.999Z</time></trkpt><trkpt lat="43.69247319879395" lon="11.935475975171334"><ele>866.0</ele><time>2026-04-19T13:22:07.999Z</time></trkpt><trkpt lat="43.692359865105146" lon="11.935351457375496"><ele>866.0</ele><time>2026-04-19T13:22:08.999Z</time></trkpt><trkpt lat="43.692253831015336" lon="11.93520063700777"><ele>866.0</ele><time>2026-04-19T13:22:09.999Z</time></trkpt><trkpt lat="43.69216648957906" lon="11.9350262125236"><ele>866.0</ele><time>2026-04-19T13:22:10.999Z</time></trkpt><trkpt lat="43.6921026704065" lon="11.93484761009289"><ele>866.75</ele><time>2026-04-19T13:22:11.999Z</time></trkpt><trkpt lat="43.69204233657808" lon="11.934674863469759"><ele>867.5</ele><time>2026-04-19T13:22:12.999Z</time></trkpt><trkpt lat="43.69197902606911" lon="11.934515537839507"><ele>868.25</ele><time>2026-04-19T13:22:13.999Z</time></trkpt><trkpt lat="43.69192974994115" lon="11.934360386984661"><ele>869.0</ele><time>2026-04-19T13:22:14.999Z</time></trkpt><trkpt lat="43.69191702723799" lon="11.934206113843091"><ele>869.25</ele><time>2026-04-19T13:22:15.999Z</time></trkpt><trkpt lat="43.6919527657545" lon="11.934060319932998"><ele>869.5</ele><time>2026-04-19T13:22:16.999Z</time></trkpt><trkpt lat="43.69202211308629" lon="11.933919532317551"><ele>869.75</ele><time>2026-04-19T13:22:17.999Z</time></trkpt><trkpt lat="43.692073529263375" lon="11.933786725021683"><ele>870.0</ele><time>2026-04-19T13:22:18.999Z</time></trkpt><trkpt lat="43.692093888434876" lon="11.933638229792932"><ele>870.0</ele><time>2026-04-19T13:22:19.999Z</time></trkpt><trkpt lat="43.69207087784403" lon="11.933489410103727"><ele>870.0</ele><time>2026-04-19T13:22:20.999Z</time></trkpt><trkpt lat="43.69201427450904" lon="11.93333718434652"><ele>870.0</ele><time>2026-04-19T13:22:21.999Z</time></trkpt><trkpt lat="43.69192565600218" lon="11.933199486501515"><ele>870.0</ele><time>2026-04-19T13:22:22.999Z</time></trkpt><trkpt lat="43.6918173248969" lon="11.933042634467446"><ele>864.3333333333333</ele><time>2026-04-19T13:22:23.999Z</time></trkpt><trkpt lat="43.69171199041603" lon="11.932867225773188"><ele>858.6666666666666</ele><time>2026-04-19T13:22:24.999Z</time></trkpt><trkpt lat="43.6916127921796" lon="11.932701180850437"><ele>853.0</ele><time>2026-04-19T13:22:25.999Z</time></trkpt><trkpt lat="43.69152629941254" lon="11.932555973370853"><ele>853.0</ele><time>2026-04-19T13:22:26.999Z</time></trkpt><trkpt lat="43.69145138148048" lon="11.932425869201474"><ele>853.0</ele><time>2026-04-19T13:22:27.999Z</time></trkpt><trkpt lat="43.691384924905165" lon="11.93232227487641"><ele>853.0</ele><time>2026-04-19T13:22:28.999Z</time></trkpt><trkpt lat="43.69130209336527" lon="11.932275409537528"><ele>853.0</ele><time>2026-04-19T13:22:29.999Z</time></trkpt><trkpt lat="43.69121169880828" lon="11.932266452220867"><ele>853.0</ele><time>2026-04-19T13:22:30.999Z</time></trkpt><trkpt lat="43.6911197654374" lon="11.932316080603572"><ele>850.5999999999999</ele><time>2026-04-19T13:22:31.999Z</time></trkpt><trkpt lat="43.69103576262246" lon="11.932390564955314"><ele>848.1999999999999</ele><time>2026-04-19T13:22:32.999Z</time></trkpt><trkpt lat="43.69100239795512" lon="11.932523144462651"><ele>845.8</ele><time>2026-04-19T13:22:33.999Z</time></trkpt><trkpt lat="43.69100946713537" lon="11.932678815970194"><ele>843.4</ele><time>2026-04-19T13:22:34.999Z</time></trkpt><trkpt lat="43.69104064176305" lon="11.93284069167755"><ele>841.0</ele><time>2026-04-19T13:22:35.999Z</time></trkpt><trkpt lat="43.69108649386315" lon="11.932982511168726"><ele>841.1666666666666</ele><time>2026-04-19T13:22:36.999Z</time></trkpt><trkpt lat="43.691114348138846" lon="11.93311906125032"><ele>841.3333333333333</ele><time>2026-04-19T13:22:37.999Z</time></trkpt><trkpt lat="43.6911006514674" lon="11.933249437983957"><ele>841.5</ele><time>2026-04-19T13:22:38.999Z</time></trkpt><trkpt lat="43.69107644283119" lon="11.933360191436035"><ele>841.6666666666667</ele><time>2026-04-19T13:22:39.999Z</time></trkpt><trkpt lat="43.691030850644246" lon="11.933442444363608"><ele>841.8333333333334</ele><time>2026-04-19T13:22:40.999Z</time></trkpt><trkpt lat="43.69096263550307" lon="11.933521856916824"><ele>842.0</ele><time>2026-04-19T13:22:41.999Z</time></trkpt><trkpt lat="43.69086895267854" lon="11.933550593077765"><ele>842.0</ele><time>2026-04-19T13:22:42.998Z</time></trkpt><trkpt lat="43.69077246175351" lon="11.933563034641184"><ele>842.0</ele><time>2026-04-19T13:22:43.998Z</time></trkpt><trkpt lat="43.6906795058127" lon="11.933580939953618"><ele>842.0</ele><time>2026-04-19T13:22:44.998Z</time></trkpt><trkpt lat="43.69059016889253" lon="11.933588981166032"><ele>842.0</ele><time>2026-04-19T13:22:45.998Z</time></trkpt><trkpt lat="43.6905044564067" lon="11.93359543719187"><ele>842.0</ele><time>2026-04-19T13:22:46.998Z</time></trkpt><trkpt lat="43.690418529701915" lon="11.933603466480363"><ele>842.0</ele><time>2026-04-19T13:22:47.998Z</time></trkpt><trkpt lat="43.69032366796421" lon="11.933609091294295"><ele>842.0</ele><time>2026-04-19T13:22:48.998Z</time></trkpt><trkpt lat="43.69022636997682" lon="11.933612891521701"><ele>842.0</ele><time>2026-04-19T13:22:49.998Z</time></trkpt><trkpt lat="43.69013412638848" lon="11.933614465693953"><ele>842.0</ele><time>2026-04-19T13:22:50.998Z</time></trkpt><trkpt lat="43.69004711955571" lon="11.93362372008176"><ele>842.0</ele><time>2026-04-19T13:22:51.998Z</time></trkpt><trkpt lat="43.689967243529935" lon="11.93364558138246"><ele>840.6666666666667</ele><time>2026-04-19T13:22:52.998Z</time></trkpt><trkpt lat="43.68989787171146" lon="11.933689612273387"><ele>839.3333333333334</ele><time>2026-04-19T13:22:53.998Z</time></trkpt><trkpt lat="43.68984148104936" lon="11.933755989211067"><ele>838.0</ele><time>2026-04-19T13:22:54.998Z</time></trkpt><trkpt lat="43.68979471749654" lon="11.933856956085068"><ele>836.6666666666667</ele><time>2026-04-19T13:22:55.998Z</time></trkpt><trkpt lat="43.689767352347594" lon="11.933984644699795"><ele>835.3333333333334</ele><time>2026-04-19T13:22:56.998Z</time></trkpt><trkpt lat="43.68974816315545" lon="11.93411607249819"><ele>834.0</ele><time>2026-04-19T13:22:57.998Z</time></trkpt><trkpt lat="43.689703495061586" lon="11.934233942367154"><ele>833.8000000000001</ele><time>2026-04-19T13:22:58.998Z</time></trkpt><trkpt lat="43.68966414758264" lon="11.934350490377154"><ele>833.6</ele><time>2026-04-19T13:22:59.998Z</time></trkpt><trkpt lat="43.68963307680699" lon="11.934474184345381"><ele>833.4</ele><time>2026-04-19T13:23:00.998Z</time></trkpt><trkpt lat="43.689591299643546" lon="11.934582478952525"><ele>833.2</ele><time>2026-04-19T13:23:01.998Z</time></trkpt><trkpt lat="43.689555594936536" lon="11.934696331190537"><ele>833.0</ele><time>2026-04-19T13:23:02.998Z</time></trkpt><trkpt lat="43.68952294154898" lon="11.934809036716953"><ele>833.0000000000001</ele><time>2026-04-19T13:23:03.998Z</time></trkpt><trkpt lat="43.68949394636598" lon="11.934918893235999"><ele>833.0</ele><time>2026-04-19T13:23:04.998Z</time></trkpt><trkpt lat="43.689465020891625" lon="11.935026682652344"><ele>833.0</ele><time>2026-04-19T13:23:05.998Z</time></trkpt><trkpt lat="43.68943058754955" lon="11.935145847649414"><ele>833.0</ele><time>2026-04-19T13:23:06.998Z</time></trkpt><trkpt lat="43.68939756906087" lon="11.935259584323564"><ele>833.0000000000001</ele><time>2026-04-19T13:23:07.998Z</time></trkpt><trkpt lat="43.689374824256134" lon="11.935373033487245"><ele>833.0</ele><time>2026-04-19T13:23:08.998Z</time></trkpt><trkpt lat="43.68935733821757" lon="11.935470934300444"><ele>832.5714285714286</ele><time>2026-04-19T13:23:09.998Z</time></trkpt><trkpt lat="43.689348546648965" lon="11.93556185524753"><ele>832.1428571428571</ele><time>2026-04-19T13:23:10.998Z</time></trkpt><trkpt lat="43.689354353313185" lon="11.935650477302236"><ele>831.7142857142858</ele><time>2026-04-19T13:23:11.998Z</time></trkpt><trkpt lat="43.68938946108863" lon="11.935730186767737"><ele>831.2857142857142</ele><time>2026-04-19T13:23:12.998Z</time></trkpt><trkpt lat="43.6894465403278" lon="11.93580499462089"><ele>830.8571428571429</ele><time>2026-04-19T13:23:13.998Z</time></trkpt><trkpt lat="43.689512312245114" lon="11.935859674357902"><ele>830.4285714285714</ele><time>2026-04-19T13:23:14.998Z</time></trkpt><trkpt lat="43.68955981289413" lon="11.935929094745898"><ele>830.0</ele><time>2026-04-19T13:23:15.998Z</time></trkpt><trkpt lat="43.689640214042896" lon="11.93604983224004"><ele>830.0</ele><time>2026-04-19T13:23:17.998Z</time></trkpt><trkpt lat="43.689593042214376" lon="11.936206007048726"><ele>830.0</ele><time>2026-04-19T13:23:19.998Z</time></trkpt><trkpt lat="43.68951143245868" lon="11.936244526276104"><ele>830.0</ele><time>2026-04-19T13:23:20.998Z</time></trkpt><trkpt lat="43.68941441837851" lon="11.936236033379872"><ele>830.0</ele><time>2026-04-19T13:23:21.998Z</time></trkpt><trkpt lat="43.689311084892005" lon="11.936210776727226"><ele>830.0</ele><time>2026-04-19T13:23:22.998Z</time></trkpt><trkpt lat="43.68921138061571" lon="11.936188159147827"><ele>826.3333333333334</ele><time>2026-04-19T13:23:23.998Z</time></trkpt><trkpt lat="43.68912238592294" lon="11.936174816206892"><ele>822.6666666666667</ele><time>2026-04-19T13:23:24.998Z</time></trkpt><trkpt lat="43.68904202048723" lon="11.936159872953013"><ele>819.0</ele><time>2026-04-19T13:23:25.998Z</time></trkpt><trkpt lat="43.688963932397634" lon="11.936144640931674"><ele>815.3333333333333</ele><time>2026-04-19T13:23:26.998Z</time></trkpt><trkpt lat="43.688889960344646" lon="11.936123373320102"><ele>811.6666666666666</ele><time>2026-04-19T13:23:27.998Z</time></trkpt><trkpt lat="43.68881697812496" lon="11.936084475168833"><ele>808.0</ele><time>2026-04-19T13:23:28.998Z</time></trkpt><trkpt lat="43.68874320523298" lon="11.936020463102512"><ele>807.9999999999999</ele><time>2026-04-19T13:23:29.998Z</time></trkpt><trkpt lat="43.688683825260874" lon="11.935932822058987"><ele>808.0</ele><time>2026-04-19T13:23:30.998Z</time></trkpt><trkpt lat="43.68864423291866" lon="11.935834110448821"><ele>808.0</ele><time>2026-04-19T13:23:31.998Z</time></trkpt><trkpt lat="43.68861496684919" lon="11.935737264273843"><ele>808.0</ele><time>2026-04-19T13:23:32.998Z</time></trkpt><trkpt lat="43.688571381361676" lon="11.93565314238251"><ele>807.9999999999999</ele><time>2026-04-19T13:23:33.998Z</time></trkpt><trkpt lat="43.688501864269845" lon="11.93558553568655"><ele>808.0</ele><time>2026-04-19T13:23:34.998Z</time></trkpt><trkpt lat="43.688415352972974" lon="11.935538144696416"><ele>806.5999999999999</ele><time>2026-04-19T13:23:36Z</time></trkpt><trkpt lat="43.68832594885818" lon="11.935513971724614"><ele>805.1999999999999</ele><time>2026-04-19T13:23:37Z</time></trkpt><trkpt lat="43.688243982473736" lon="11.935476611122517"><ele>803.8</ele><time>2026-04-19T13:23:38Z</time></trkpt><trkpt lat="43.68817658244068" lon="11.935394817455432"><ele>802.4</ele><time>2026-04-19T13:23:39Z</time></trkpt><trkpt lat="43.688126190153916" lon="11.935279325391667"><ele>801.0</ele><time>2026-04-19T13:23:40Z</time></trkpt><trkpt lat="43.68808284709605" lon="11.935169974002427"><ele>802.4</ele><time>2026-04-19T13:23:41Z</time></trkpt><trkpt lat="43.68804307387394" lon="11.935047052377456"><ele>803.8</ele><time>2026-04-19T13:23:42Z</time></trkpt><trkpt lat="43.688011782882214" lon="11.934921012843988"><ele>805.1999999999999</ele><time>2026-04-19T13:23:43Z</time></trkpt><trkpt lat="43.687987721643445" lon="11.9347924555839"><ele>806.5999999999999</ele><time>2026-04-19T13:23:44Z</time></trkpt><trkpt lat="43.687965915008995" lon="11.934655401400631"><ele>808.0</ele><time>2026-04-19T13:23:45Z</time></trkpt><trkpt lat="43.68794059824028" lon="11.934511923759393"><ele>808.0</ele><time>2026-04-19T13:23:46Z</time></trkpt><trkpt lat="43.68791534305712" lon="11.934371330483073"><ele>808.0</ele><time>2026-04-19T13:23:47Z</time></trkpt><trkpt lat="43.6878914396827" lon="11.934237785974725"><ele>808.0</ele><time>2026-04-19T13:23:48Z</time></trkpt><trkpt lat="43.68786871657216" lon="11.93411078818461"><ele>808.0</ele><time>2026-04-19T13:23:49Z</time></trkpt><trkpt lat="43.687847074907374" lon="11.933988044629622"><ele>808.0</ele><time>2026-04-19T13:23:50Z</time></trkpt><trkpt lat="43.687826719924516" lon="11.933863164393113"><ele>807.8333333333333</ele><time>2026-04-19T13:23:51Z</time></trkpt><trkpt lat="43.68780739621031" lon="11.933733040994673"><ele>807.6666666666666</ele><time>2026-04-19T13:23:52Z</time></trkpt><trkpt lat="43.68778581552127" lon="11.933613800250543"><ele>807.5</ele><time>2026-04-19T13:23:53Z</time></trkpt><trkpt lat="43.68775416598373" lon="11.933506093162398"><ele>807.3333333333333</ele><time>2026-04-19T13:23:54Z</time></trkpt><trkpt lat="43.68770013653908" lon="11.93341874861579"><ele>807.1666666666666</ele><time>2026-04-19T13:23:55Z</time></trkpt><trkpt lat="43.68762921584843" lon="11.93335424754269"><ele>807.0</ele><time>2026-04-19T13:23:56Z</time></trkpt><trkpt lat="43.68754627900838" lon="11.933292692066571"><ele>804.6666666666666</ele><time>2026-04-19T13:23:57Z</time></trkpt><trkpt lat="43.687447570592774" lon="11.933282626563852"><ele>802.3333333333333</ele><time>2026-04-19T13:23:58Z</time></trkpt><trkpt lat="43.68735874493437" lon="11.933279079880213"><ele>800.0</ele><time>2026-04-19T13:23:59Z</time></trkpt><trkpt lat="43.68727815989318" lon="11.933280757386141"><ele>797.6666666666666</ele><time>2026-04-19T13:24:00Z</time></trkpt><trkpt lat="43.68720489910717" lon="11.933273075838416"><ele>795.3333333333333</ele><time>2026-04-19T13:24:01Z</time></trkpt><trkpt lat="43.687133613447045" lon="11.933247493870908"><ele>793.0</ele><time>2026-04-19T13:24:01.999Z</time></trkpt><trkpt lat="43.68708327612955" lon="11.933167206465756"><ele>792.9999999999999</ele><time>2026-04-19T13:24:02.999Z</time></trkpt><trkpt lat="43.6870666277801" lon="11.933069167550237"><ele>793.0</ele><time>2026-04-19T13:24:03.999Z</time></trkpt><trkpt lat="43.68706693594518" lon="11.932947969249136"><ele>793.0</ele><time>2026-04-19T13:24:04.999Z</time></trkpt><trkpt lat="43.68708161316254" lon="11.932829526983767"><ele>793.0</ele><time>2026-04-19T13:24:05.999Z</time></trkpt><trkpt lat="43.68712252695017" lon="11.932732163665063"><ele>792.9999999999999</ele><time>2026-04-19T13:24:06.999Z</time></trkpt><trkpt lat="43.68718078075777" lon="11.932655871364727"><ele>793.0</ele><time>2026-04-19T13:24:07.999Z</time></trkpt><trkpt lat="43.687233790062" lon="11.932580341906853"><ele>793.4285714285714</ele><time>2026-04-19T13:24:08.999Z</time></trkpt><trkpt lat="43.68727434802865" lon="11.93249408659334"><ele>793.8571428571429</ele><time>2026-04-19T13:24:09.999Z</time></trkpt><trkpt lat="43.68729586799429" lon="11.932398905676026"><ele>794.2857142857142</ele><time>2026-04-19T13:24:10.999Z</time></trkpt><trkpt lat="43.687293913970166" lon="11.932300803509342"><ele>794.7142857142858</ele><time>2026-04-19T13:24:11.999Z</time></trkpt><trkpt lat="43.68726001877908" lon="11.932218266939191"><ele>795.1428571428571</ele><time>2026-04-19T13:24:12.999Z</time></trkpt><trkpt lat="43.68720180130639" lon="11.93216388013753"><ele>795.5714285714286</ele><time>2026-04-19T13:24:13.999Z</time></trkpt><trkpt lat="43.68713788123738" lon="11.932122213933969"><ele>796.0</ele><time>2026-04-19T13:24:14.999Z</time></trkpt><trkpt lat="43.68705701516247" lon="11.932209006060816"><ele>796.0</ele><time>2026-04-19T13:24:15.999Z</time></trkpt><trkpt lat="43.68698690628293" lon="11.932283561809973"><ele>796.0</ele><time>2026-04-19T13:24:16.999Z</time></trkpt><trkpt lat="43.68689688900688" lon="11.932348585640216"><ele>796.0</ele><time>2026-04-19T13:24:17.999Z</time></trkpt><trkpt lat="43.686793203165486" lon="11.93232765461656"><ele>796.0</ele><time>2026-04-19T13:24:18.999Z</time></trkpt><trkpt lat="43.68669640720088" lon="11.932294321420716"><ele>796.0</ele><time>2026-04-19T13:24:19.999Z</time></trkpt><trkpt lat="43.686608883385404" lon="11.932289655157058"><ele>793.4285714285713</ele><time>2026-04-19T13:24:20.999Z</time></trkpt><trkpt lat="43.68653617590427" lon="11.932290162898457"><ele>790.8571428571429</ele><time>2026-04-19T13:24:21.999Z</time></trkpt><trkpt lat="43.68646936563234" lon="11.932298432523293"><ele>788.2857142857142</ele><time>2026-04-19T13:24:22.999Z</time></trkpt><trkpt lat="43.68641558196259" lon="11.932364508958928"><ele>785.7142857142857</ele><time>2026-04-19T13:24:23.999Z</time></trkpt><trkpt lat="43.68639816176313" lon="11.932466309264507"><ele>783.1428571428571</ele><time>2026-04-19T13:24:24.999Z</time></trkpt><trkpt lat="43.68642378763189" lon="11.932548592472015"><ele>780.5714285714286</ele><time>2026-04-19T13:24:25.999Z</time></trkpt><trkpt lat="43.68641391357945" lon="11.932678897095899"><ele>778.0</ele><time>2026-04-19T13:24:27.999Z</time></trkpt><trkpt lat="43.686363161915075" lon="11.932756934530126"><ele>777.9999999999999</ele><time>2026-04-19T13:24:29.999Z</time></trkpt><trkpt lat="43.686301898611156" lon="11.932723613831831"><ele>778.0</ele><time>2026-04-19T13:24:30.999Z</time></trkpt><trkpt lat="43.68627495727293" lon="11.932638408324351"><ele>778.0</ele><time>2026-04-19T13:24:31.999Z</time></trkpt><trkpt lat="43.686278165242314" lon="11.932520168712383"><ele>778.0</ele><time>2026-04-19T13:24:32.999Z</time></trkpt><trkpt lat="43.68628576276446" lon="11.932400884173894"><ele>777.9999999999999</ele><time>2026-04-19T13:24:33.999Z</time></trkpt><trkpt lat="43.686286576296496" lon="11.932293932394929"><ele>778.0</ele><time>2026-04-19T13:24:34.999Z</time></trkpt><trkpt lat="43.6862856208459" lon="11.932183551126752"><ele>777.9999999999999</ele><time>2026-04-19T13:24:35.999Z</time></trkpt><trkpt lat="43.68628313729638" lon="11.932063552422145"><ele>778.0</ele><time>2026-04-19T13:24:36.999Z</time></trkpt><trkpt lat="43.686282589244314" lon="11.931943518165825"><ele>778.0</ele><time>2026-04-19T13:24:37.999Z</time></trkpt><trkpt lat="43.6862878134061" lon="11.931825492166308"><ele>778.0</ele><time>2026-04-19T13:24:38.999Z</time></trkpt><trkpt lat="43.68629675624585" lon="11.93170983387199"><ele>777.9999999999999</ele><time>2026-04-19T13:24:39.999Z</time></trkpt><trkpt lat="43.68631430007392" lon="11.931599001093918"><ele>778.0</ele><time>2026-04-19T13:24:40.999Z</time></trkpt><trkpt lat="43.68635486064873" lon="11.93150299455937"><ele>777.6666666666666</ele><time>2026-04-19T13:24:41.999Z</time></trkpt><trkpt lat="43.68640877768497" lon="11.93142459833957"><ele>777.3333333333333</ele><time>2026-04-19T13:24:42.999Z</time></trkpt><trkpt lat="43.68647585767947" lon="11.931363614639666"><ele>777.0</ele><time>2026-04-19T13:24:43.999Z</time></trkpt><trkpt lat="43.68654663226418" lon="11.931317572790054"><ele>776.6666666666667</ele><time>2026-04-19T13:24:44.999Z</time></trkpt><trkpt lat="43.68661840323266" lon="11.931289540041593"><ele>776.3333333333334</ele><time>2026-04-19T13:24:45.999Z</time></trkpt><trkpt lat="43.68667919142959" lon="11.931244122351627"><ele>776.0</ele><time>2026-04-19T13:24:46.999Z</time></trkpt><trkpt lat="43.686720230059755" lon="11.931160270221728"><ele>776.0000000000001</ele><time>2026-04-19T13:24:47.999Z</time></trkpt><trkpt lat="43.68674121124419" lon="11.93104130924205"><ele>776.0</ele><time>2026-04-19T13:24:48.999Z</time></trkpt><trkpt lat="43.68674300978881" lon="11.930903858952528"><ele>776.0</ele><time>2026-04-19T13:24:49.999Z</time></trkpt><trkpt lat="43.686732898329616" lon="11.93078257079909"><ele>776.0</ele><time>2026-04-19T13:24:50.999Z</time></trkpt><trkpt lat="43.68672365322249" lon="11.930665707466703"><ele>776.0000000000001</ele><time>2026-04-19T13:24:51.999Z</time></trkpt><trkpt lat="43.68672370671465" lon="11.93055312451689"><ele>776.0</ele><time>2026-04-19T13:24:52.999Z</time></trkpt><trkpt lat="43.68674384015793" lon="11.930447302349204"><ele>774.6666666666667</ele><time>2026-04-19T13:24:53.999Z</time></trkpt><trkpt lat="43.68678488235229" lon="11.930360616651475"><ele>773.3333333333334</ele><time>2026-04-19T13:24:54.999Z</time></trkpt><trkpt lat="43.686826009013764" lon="11.930285316391167"><ele>772.0</ele><time>2026-04-19T13:24:55.999Z</time></trkpt><trkpt lat="43.68684987294084" lon="11.930199528795297"><ele>770.6666666666667</ele><time>2026-04-19T13:24:56.999Z</time></trkpt><trkpt lat="43.68682267792369" lon="11.930034510576917"><ele>769.3333333333334</ele><time>2026-04-19T13:24:58.999Z</time></trkpt><trkpt lat="43.686771412166706" lon="11.929977529719755"><ele>768.0</ele><time>2026-04-19T13:24:59.999Z</time></trkpt><trkpt lat="43.686702189424" lon="11.929951848152792"><ele>768.0</ele><time>2026-04-19T13:25:00.999Z</time></trkpt><trkpt lat="43.68662309235586" lon="11.92996637190345"><ele>768.0</ele><time>2026-04-19T13:25:01.999Z</time></trkpt><trkpt lat="43.686545456669855" lon="11.929990610520774"><ele>768.0</ele><time>2026-04-19T13:25:02.999Z</time></trkpt><trkpt lat="43.68648718984634" lon="11.930079589926"><ele>768.0</ele><time>2026-04-19T13:25:03.998Z</time></trkpt><trkpt lat="43.68644711388312" lon="11.930191612527066"><ele>768.0</ele><time>2026-04-19T13:25:04.998Z</time></trkpt><trkpt lat="43.68640924034118" lon="11.930300333793484"><ele>768.0</ele><time>2026-04-19T13:25:05.998Z</time></trkpt><trkpt lat="43.68636565786278" lon="11.930402054222313"><ele>768.0</ele><time>2026-04-19T13:25:06.998Z</time></trkpt><trkpt lat="43.686298926101145" lon="11.930483588418594"><ele>768.0</ele><time>2026-04-19T13:25:07.998Z</time></trkpt><trkpt lat="43.68622477265565" lon="11.930556423832716"><ele>768.0</ele><time>2026-04-19T13:25:08.998Z</time></trkpt><trkpt lat="43.686158458076925" lon="11.930641878621257"><ele>768.0</ele><time>2026-04-19T13:25:09.998Z</time></trkpt><trkpt lat="43.68607762739885" lon="11.930722634409078"><ele>768.0</ele><time>2026-04-19T13:25:10.998Z</time></trkpt><trkpt lat="43.68600645665955" lon="11.930813841630139"><ele>765.0</ele><time>2026-04-19T13:25:11.998Z</time></trkpt><trkpt lat="43.68593059514884" lon="11.930899948779281"><ele>762.0</ele><time>2026-04-19T13:25:12.998Z</time></trkpt><trkpt lat="43.68587328051113" lon="11.931010455717079"><ele>759.0</ele><time>2026-04-19T13:25:13.998Z</time></trkpt><trkpt lat="43.68582794798378" lon="11.931130846952188"><ele>756.0</ele><time>2026-04-19T13:25:14.998Z</time></trkpt><trkpt lat="43.6857952189881" lon="11.931258998412712"><ele>753.0</ele><time>2026-04-19T13:25:15.998Z</time></trkpt><trkpt lat="43.68578004071439" lon="11.931383681787379"><ele>753.0</ele><time>2026-04-19T13:25:16.998Z</time></trkpt><trkpt lat="43.685772493089466" lon="11.931489389143698"><ele>753.0</ele><time>2026-04-19T13:25:17.998Z</time></trkpt><trkpt lat="43.68576802185838" lon="11.931580710134813"><ele>753.0</ele><time>2026-04-19T13:25:18.998Z</time></trkpt><trkpt lat="43.68576505337686" lon="11.931729217719539"><ele>753.0</ele><time>2026-04-19T13:25:20.998Z</time></trkpt><trkpt lat="43.68568762149621" lon="11.931773967320204"><ele>753.0</ele><time>2026-04-19T13:25:23.998Z</time></trkpt><trkpt lat="43.685669737836015" lon="11.931593919123307"><ele>753.0</ele><time>2026-04-19T13:25:25.998Z</time></trkpt><trkpt lat="43.68569588541216" lon="11.931493057724685"><ele>753.0</ele><time>2026-04-19T13:25:26.998Z</time></trkpt><trkpt lat="43.68570573049361" lon="11.931389145313394"><ele>753.0</ele><time>2026-04-19T13:25:27.998Z</time></trkpt><trkpt lat="43.685704482062306" lon="11.9312734912558"><ele>753.0</ele><time>2026-04-19T13:25:28.998Z</time></trkpt><trkpt lat="43.68570398981046" lon="11.931150349342387"><ele>753.0</ele><time>2026-04-19T13:25:29.998Z</time></trkpt><trkpt lat="43.68570859561746" lon="11.931026204029978"><ele>753.0</ele><time>2026-04-19T13:25:30.998Z</time></trkpt><trkpt lat="43.68572005501944" lon="11.930910780790564"><ele>751.2</ele><time>2026-04-19T13:25:31.998Z</time></trkpt><trkpt lat="43.685751625348985" lon="11.93079198921469"><ele>749.4</ele><time>2026-04-19T13:25:32.998Z</time></trkpt><trkpt lat="43.685800986622695" lon="11.930686376499883"><ele>747.6</ele><time>2026-04-19T13:25:33.998Z</time></trkpt><trkpt lat="43.68586075312728" lon="11.930577929712292"><ele>745.8000000000001</ele><time>2026-04-19T13:25:34.998Z</time></trkpt><trkpt lat="43.68592098183441" lon="11.930473835197521"><ele>744.0</ele><time>2026-04-19T13:25:35.998Z</time></trkpt><trkpt lat="43.68597274417664" lon="11.930371456341419"><ele>744.0</ele><time>2026-04-19T13:25:36.998Z</time></trkpt><trkpt lat="43.68601273999036" lon="11.930263106508738"><ele>744.0</ele><time>2026-04-19T13:25:37.998Z</time></trkpt><trkpt lat="43.6860351825154" lon="11.930150738449168"><ele>744.0</ele><time>2026-04-19T13:25:38.998Z</time></trkpt><trkpt lat="43.68604278298164" lon="11.930031583270498"><ele>744.0</ele><time>2026-04-19T13:25:39.998Z</time></trkpt><trkpt lat="43.686051361162015" lon="11.929905551802943"><ele>744.0</ele><time>2026-04-19T13:25:40.998Z</time></trkpt><trkpt lat="43.68608385170529" lon="11.929781769806974"><ele>744.0</ele><time>2026-04-19T13:25:42Z</time></trkpt><trkpt lat="43.68613941106566" lon="11.92967404740047"><ele>744.6666666666666</ele><time>2026-04-19T13:25:43Z</time></trkpt><trkpt lat="43.686200745701804" lon="11.929583142786239"><ele>745.3333333333334</ele><time>2026-04-19T13:25:44Z</time></trkpt><trkpt lat="43.68625927069517" lon="11.929499289205149"><ele>746.0</ele><time>2026-04-19T13:25:45Z</time></trkpt><trkpt lat="43.68631323011481" lon="11.929415681718485"><ele>746.6666666666667</ele><time>2026-04-19T13:25:46Z</time></trkpt><trkpt lat="43.68635831128459" lon="11.929325681458787"><ele>747.3333333333334</ele><time>2026-04-19T13:25:47Z</time></trkpt><trkpt lat="43.68638644739999" lon="11.92921618801778"><ele>748.0</ele><time>2026-04-19T13:25:48Z</time></trkpt><trkpt lat="43.686384813798654" lon="11.92908157237704"><ele>748.0</ele><time>2026-04-19T13:25:49Z</time></trkpt><trkpt lat="43.686355298461486" lon="11.928943992316503"><ele>748.0</ele><time>2026-04-19T13:25:50Z</time></trkpt><trkpt lat="43.68631315000572" lon="11.928805746713657"><ele>748.0</ele><time>2026-04-19T13:25:51Z</time></trkpt><trkpt lat="43.68626921146451" lon="11.928682874365764"><ele>748.0</ele><time>2026-04-19T13:25:52Z</time></trkpt><trkpt lat="43.68620587300144" lon="11.92856069515343"><ele>748.0</ele><time>2026-04-19T13:25:53Z</time></trkpt><trkpt lat="43.68612921325051" lon="11.928452689948063"><ele>744.0</ele><time>2026-04-19T13:25:54Z</time></trkpt><trkpt lat="43.68604814309605" lon="11.92836290160561"><ele>740.0</ele><time>2026-04-19T13:25:55Z</time></trkpt><trkpt lat="43.685981847372375" lon="11.928258387449523"><ele>736.0</ele><time>2026-04-19T13:25:56Z</time></trkpt><trkpt lat="43.68590541728202" lon="11.928165501841145"><ele>732.0</ele><time>2026-04-19T13:25:57Z</time></trkpt><trkpt lat="43.68582416403125" lon="11.928054540166695"><ele>728.0</ele><time>2026-04-19T13:25:58Z</time></trkpt><trkpt lat="43.68573214032249" lon="11.927908757409996"><ele>728.0</ele><time>2026-04-19T13:25:59Z</time></trkpt><trkpt lat="43.68563738150556" lon="11.927719116104207"><ele>728.0</ele><time>2026-04-19T13:26:00Z</time></trkpt><trkpt lat="43.68553465587381" lon="11.927507504876662"><ele>728.0</ele><time>2026-04-19T13:26:01Z</time></trkpt><trkpt lat="43.68542724234582" lon="11.927297271196352"><ele>729.0</ele><time>2026-04-19T13:26:02Z</time></trkpt><trkpt lat="43.6853204905636" lon="11.927083876534967"><ele>730.0</ele><time>2026-04-19T13:26:03Z</time></trkpt><trkpt lat="43.685214681080694" lon="11.926875347978763"><ele>731.0</ele><time>2026-04-19T13:26:04Z</time></trkpt><trkpt lat="43.68511217431552" lon="11.92669105526813"><ele>729.0</ele><time>2026-04-19T13:26:05Z</time></trkpt><trkpt lat="43.68502175148264" lon="11.926527556997074"><ele>727.0</ele><time>2026-04-19T13:26:06Z</time></trkpt><trkpt lat="43.68495065529392" lon="11.926385991215799"><ele>725.0</ele><time>2026-04-19T13:26:07Z</time></trkpt><trkpt lat="43.684907672371565" lon="11.926242431604976"><ele>723.0</ele><time>2026-04-19T13:26:08Z</time></trkpt><trkpt lat="43.684898882711444" lon="11.926072096830456"><ele>723.0</ele><time>2026-04-19T13:26:09Z</time></trkpt><trkpt lat="43.68493866766859" lon="11.925900604754483"><ele>723.0</ele><time>2026-04-19T13:26:10Z</time></trkpt><trkpt lat="43.685003173397526" lon="11.925747237656925"><ele>723.0</ele><time>2026-04-19T13:26:11Z</time></trkpt><trkpt lat="43.68504648150187" lon="11.925594009354953"><ele>723.0</ele><time>2026-04-19T13:26:12Z</time></trkpt><trkpt lat="43.68505446006646" lon="11.925414487132937"><ele>723.0</ele><time>2026-04-19T13:26:13Z</time></trkpt><trkpt lat="43.685029512715815" lon="11.925230189047024"><ele>723.0</ele><time>2026-04-19T13:26:14Z</time></trkpt><trkpt lat="43.684983945448984" lon="11.925032465721712"><ele>723.0</ele><time>2026-04-19T13:26:15Z</time></trkpt><trkpt lat="43.68493504589589" lon="11.924854426958237"><ele>723.0</ele><time>2026-04-19T13:26:16Z</time></trkpt><trkpt lat="43.68489723468372" lon="11.924691534857596"><ele>722.75</ele><time>2026-04-19T13:26:17Z</time></trkpt><trkpt lat="43.68489508896513" lon="11.92451454428116"><ele>722.5</ele><time>2026-04-19T13:26:17.999Z</time></trkpt><trkpt lat="43.684933347558555" lon="11.924348018199293"><ele>722.25</ele><time>2026-04-19T13:26:18.999Z</time></trkpt><trkpt lat="43.68498167435993" lon="11.924207204058101"><ele>722.0</ele><time>2026-04-19T13:26:19.999Z</time></trkpt><trkpt lat="43.684986686244656" lon="11.924064841333307"><ele>722.0</ele><time>2026-04-19T13:26:20.999Z</time></trkpt><trkpt lat="43.68495741589884" lon="11.923897924271026"><ele>722.0</ele><time>2026-04-19T13:26:21.999Z</time></trkpt><trkpt lat="43.68490750010281" lon="11.923703793483726"><ele>722.0</ele><time>2026-04-19T13:26:22.999Z</time></trkpt><trkpt lat="43.684876415799295" lon="11.923485262953953"><ele>722.0</ele><time>2026-04-19T13:26:23.999Z</time></trkpt><trkpt lat="43.68486004367543" lon="11.923257978992263"><ele>721.6666666666666</ele><time>2026-04-19T13:26:24.999Z</time></trkpt><trkpt lat="43.684840732587354" lon="11.92302817197498"><ele>721.3333333333334</ele><time>2026-04-19T13:26:25.999Z</time></trkpt><trkpt lat="43.684802774134155" lon="11.922800849865759"><ele>721.0</ele><time>2026-04-19T13:26:26.999Z</time></trkpt><trkpt lat="43.68475516903697" lon="11.922596347652139"><ele>719.25</ele><time>2026-04-19T13:26:27.999Z</time></trkpt><trkpt lat="43.6847257704262" lon="11.922410332578963"><ele>717.5</ele><time>2026-04-19T13:26:28.999Z</time></trkpt><trkpt lat="43.68472861036302" lon="11.9222396082493"><ele>715.75</ele><time>2026-04-19T13:26:29.999Z</time></trkpt><trkpt lat="43.68476066209935" lon="11.922088503044924"><ele>714.0</ele><time>2026-04-19T13:26:30.999Z</time></trkpt><trkpt lat="43.684762824311505" lon="11.921956095248882"><ele>714.0</ele><time>2026-04-19T13:26:31.999Z</time></trkpt><trkpt lat="43.684736075579934" lon="11.921800771440585"><ele>714.0</ele><time>2026-04-19T13:26:32.999Z</time></trkpt><trkpt lat="43.68464540522977" lon="11.921658882622078"><ele>714.0</ele><time>2026-04-19T13:26:33.999Z</time></trkpt><trkpt lat="43.68453735928798" lon="11.921518204908283"><ele>714.0</ele><time>2026-04-19T13:26:34.999Z</time></trkpt><trkpt lat="43.68440516278221" lon="11.921383123393266"><ele>716.6666666666666</ele><time>2026-04-19T13:26:35.999Z</time></trkpt><trkpt lat="43.68429122295173" lon="11.921208860053929"><ele>719.3333333333333</ele><time>2026-04-19T13:26:36.999Z</time></trkpt><trkpt lat="43.68418887173144" lon="11.921006096490764"><ele>722.0</ele><time>2026-04-19T13:26:37.999Z</time></trkpt><trkpt lat="43.68406590198388" lon="11.920804781667202"><ele>722.0</ele><time>2026-04-19T13:26:38.999Z</time></trkpt><trkpt lat="43.6839483090627" lon="11.920583749605875"><ele>722.0</ele><time>2026-04-19T13:26:39.999Z</time></trkpt><trkpt lat="43.68383620189208" lon="11.920384603545546"><ele>722.0</ele><time>2026-04-19T13:26:40.999Z</time></trkpt><trkpt lat="43.683748268418476" lon="11.92019190627722"><ele>725.75</ele><time>2026-04-19T13:26:41.999Z</time></trkpt><trkpt lat="43.68364355044417" lon="11.920052955158885"><ele>729.5</ele><time>2026-04-19T13:26:42.999Z</time></trkpt><trkpt lat="43.68355959823263" lon="11.91991478308962"><ele>733.25</ele><time>2026-04-19T13:26:43.999Z</time></trkpt><trkpt lat="43.683488693377484" lon="11.919783113218578"><ele>737.0</ele><time>2026-04-19T13:26:44.999Z</time></trkpt><trkpt lat="43.68337714098685" lon="11.919705637522988"><ele>737.0</ele><time>2026-04-19T13:26:45.999Z</time></trkpt><trkpt lat="43.68327417712025" lon="11.919644615250768"><ele>737.0</ele><time>2026-04-19T13:26:46.999Z</time></trkpt><trkpt lat="43.683197919314885" lon="11.919560758528304"><ele>737.0</ele><time>2026-04-19T13:26:47.999Z</time></trkpt><trkpt lat="43.68314295849098" lon="11.919433942618449"><ele>737.0</ele><time>2026-04-19T13:26:48.999Z</time></trkpt><trkpt lat="43.68312808693934" lon="11.919277026764462"><ele>737.0</ele><time>2026-04-19T13:26:49.999Z</time></trkpt><trkpt lat="43.68308279482692" lon="11.919148089438776"><ele>737.5</ele><time>2026-04-19T13:26:50.999Z</time></trkpt><trkpt lat="43.683020829472326" lon="11.919010599205343"><ele>738.0</ele><time>2026-04-19T13:26:51.999Z</time></trkpt><trkpt lat="43.68291799880381" lon="11.91891867893069"><ele>738.5</ele><time>2026-04-19T13:26:52.999Z</time></trkpt><trkpt lat="43.682804484249644" lon="11.918856862718366"><ele>739.0</ele><time>2026-04-19T13:26:53.999Z</time></trkpt><trkpt lat="43.682683788374945" lon="11.918836158254194"><ele>739.0</ele><time>2026-04-19T13:26:54.999Z</time></trkpt><trkpt lat="43.68255932785192" lon="11.91886589710618"><ele>739.0</ele><time>2026-04-19T13:26:55.999Z</time></trkpt><trkpt lat="43.6824464999041" lon="11.918901548395645"><ele>739.0</ele><time>2026-04-19T13:26:56.999Z</time></trkpt><trkpt lat="43.68236599947682" lon="11.918925612610366"><ele>739.0</ele><time>2026-04-19T13:26:57.999Z</time></trkpt><trkpt lat="43.68224215588312" lon="11.918885560095102"><ele>739.0</ele><time>2026-04-19T13:26:59.999Z</time></trkpt><trkpt lat="43.682204151643205" lon="11.91878895962887"><ele>739.0</ele><time>2026-04-19T13:27:00.999Z</time></trkpt><trkpt lat="43.682200362678344" lon="11.91866737213528"><ele>739.0</ele><time>2026-04-19T13:27:01.999Z</time></trkpt><trkpt lat="43.68223460766658" lon="11.918544277483443"><ele>739.0</ele><time>2026-04-19T13:27:02.999Z</time></trkpt><trkpt lat="43.68229544178603" lon="11.918407207794283"><ele>739.0</ele><time>2026-04-19T13:27:03.999Z</time></trkpt><trkpt lat="43.68236033741897" lon="11.918266918668966"><ele>737.0</ele><time>2026-04-19T13:27:04.999Z</time></trkpt><trkpt lat="43.68244502939805" lon="11.91814455120577"><ele>735.0</ele><time>2026-04-19T13:27:05.999Z</time></trkpt><trkpt lat="43.68252910512006" lon="11.918044346885678"><ele>733.0</ele><time>2026-04-19T13:27:06.999Z</time></trkpt><trkpt lat="43.68258495977464" lon="11.91791829527718"><ele>731.0</ele><time>2026-04-19T13:27:07.999Z</time></trkpt><trkpt lat="43.68261069995162" lon="11.917764434845163"><ele>731.0</ele><time>2026-04-19T13:27:08.999Z</time></trkpt><trkpt lat="43.682601711879734" lon="11.917588531088354"><ele>731.0</ele><time>2026-04-19T13:27:09.999Z</time></trkpt><trkpt lat="43.68257184907343" lon="11.91739484714874"><ele>731.0</ele><time>2026-04-19T13:27:10.999Z</time></trkpt><trkpt lat="43.68253207661327" lon="11.91718545578271"><ele>731.0</ele><time>2026-04-19T13:27:11.999Z</time></trkpt><trkpt lat="43.682491630748224" lon="11.916963567303222"><ele>729.6666666666666</ele><time>2026-04-19T13:27:12.999Z</time></trkpt><trkpt lat="43.6824502511959" lon="11.916720233909642"><ele>728.3333333333334</ele><time>2026-04-19T13:27:13.999Z</time></trkpt><trkpt lat="43.682414104471746" lon="11.916479109610494"><ele>727.0</ele><time>2026-04-19T13:27:14.999Z</time></trkpt><trkpt lat="43.68238617891876" lon="11.916236234039859"><ele>727.0</ele><time>2026-04-19T13:27:15.999Z</time></trkpt><trkpt lat="43.68238153556905" lon="11.915986522665538"><ele>727.0</ele><time>2026-04-19T13:27:16.998Z</time></trkpt><trkpt lat="43.68240240592332" lon="11.9157376372032"><ele>727.0</ele><time>2026-04-19T13:27:17.998Z</time></trkpt><trkpt lat="43.68245015948296" lon="11.915515095026818"><ele>726.75</ele><time>2026-04-19T13:27:18.998Z</time></trkpt><trkpt lat="43.68249510978544" lon="11.915314417748226"><ele>726.5</ele><time>2026-04-19T13:27:19.998Z</time></trkpt><trkpt lat="43.68250228961506" lon="11.915123135000188"><ele>726.25</ele><time>2026-04-19T13:27:20.998Z</time></trkpt><trkpt lat="43.68246664273862" lon="11.914929263010679"><ele>726.0</ele><time>2026-04-19T13:27:21.998Z</time></trkpt><trkpt lat="43.68242059124707" lon="11.914745443195297"><ele>726.0</ele><time>2026-04-19T13:27:22.998Z</time></trkpt><trkpt lat="43.68241497010605" lon="11.914564002166594"><ele>726.0</ele><time>2026-04-19T13:27:23.998Z</time></trkpt><trkpt lat="43.682460425754904" lon="11.914377444443653"><ele>726.0</ele><time>2026-04-19T13:27:24.998Z</time></trkpt><trkpt lat="43.68252925134445" lon="11.9141957518647"><ele>726.0</ele><time>2026-04-19T13:27:25.998Z</time></trkpt><trkpt lat="43.68257963365228" lon="11.91400681191964"><ele>725.75</ele><time>2026-04-19T13:27:26.998Z</time></trkpt><trkpt lat="43.68259834134036" lon="11.913823108594663"><ele>725.5</ele><time>2026-04-19T13:27:27.998Z</time></trkpt><trkpt lat="43.68258531361151" lon="11.913659870360418"><ele>725.25</ele><time>2026-04-19T13:27:28.998Z</time></trkpt><trkpt lat="43.6825351103197" lon="11.913517705110856"><ele>725.0</ele><time>2026-04-19T13:27:29.998Z</time></trkpt><trkpt lat="43.682446370861975" lon="11.913389216609117"><ele>722.6666666666666</ele><time>2026-04-19T13:27:30.998Z</time></trkpt><trkpt lat="43.682330760683406" lon="11.913261178291044"><ele>720.3333333333334</ele><time>2026-04-19T13:27:31.998Z</time></trkpt><trkpt lat="43.682234402344044" lon="11.913080684379892"><ele>718.0</ele><time>2026-04-19T13:27:32.998Z</time></trkpt><trkpt lat="43.68212708880119" lon="11.912875964938411"><ele>718.0</ele><time>2026-04-19T13:27:33.998Z</time></trkpt><trkpt lat="43.682015919882694" lon="11.912649834745537"><ele>718.0</ele><time>2026-04-19T13:27:34.998Z</time></trkpt><trkpt lat="43.6819064477888" lon="11.912416552713946"><ele>718.0</ele><time>2026-04-19T13:27:35.998Z</time></trkpt><trkpt lat="43.681809250850975" lon="11.912193407165912"><ele>717.6666666666667</ele><time>2026-04-19T13:27:36.998Z</time></trkpt><trkpt lat="43.68171991230882" lon="11.911983288523013"><ele>717.3333333333334</ele><time>2026-04-19T13:27:37.998Z</time></trkpt><trkpt lat="43.681637091713334" lon="11.911801768477305"><ele>717.0</ele><time>2026-04-19T13:27:38.998Z</time></trkpt><trkpt lat="43.68156324252633" lon="11.911644331227917"><ele>717.0</ele><time>2026-04-19T13:27:39.998Z</time></trkpt><trkpt lat="43.68150660172577" lon="11.91150950273959"><ele>717.0</ele><time>2026-04-19T13:27:40.998Z</time></trkpt><trkpt lat="43.68146347843707" lon="11.91138375714887"><ele>717.0</ele><time>2026-04-19T13:27:41.998Z</time></trkpt><trkpt lat="43.68148022076605" lon="11.911218953466596"><ele>717.0</ele><time>2026-04-19T13:27:42.998Z</time></trkpt><trkpt lat="43.681536620828915" lon="11.911056795099206"><ele>716.25</ele><time>2026-04-19T13:27:43.998Z</time></trkpt><trkpt lat="43.681600878490315" lon="11.91088446031763"><ele>715.5</ele><time>2026-04-19T13:27:44.998Z</time></trkpt><trkpt lat="43.68164932686028" lon="11.910708176081025"><ele>714.75</ele><time>2026-04-19T13:27:45.998Z</time></trkpt><trkpt lat="43.681676750512835" lon="11.910529374800362"><ele>714.0</ele><time>2026-04-19T13:27:46.998Z</time></trkpt><trkpt lat="43.68168121926748" lon="11.910344192904626"><ele>714.0</ele><time>2026-04-19T13:27:48Z</time></trkpt><trkpt lat="43.681679151142234" lon="11.910174744314245"><ele>714.0</ele><time>2026-04-19T13:27:49Z</time></trkpt><trkpt lat="43.68163791915246" lon="11.910023647648716"><ele>714.0</ele><time>2026-04-19T13:27:50Z</time></trkpt><trkpt lat="43.68156763024749" lon="11.909901071825463"><ele>714.0</ele><time>2026-04-19T13:27:51Z</time></trkpt><trkpt lat="43.6814572048009" lon="11.909820048514927"><ele>712.25</ele><time>2026-04-19T13:27:52Z</time></trkpt><trkpt lat="43.68133384827959" lon="11.90977265115638"><ele>710.5</ele><time>2026-04-19T13:27:53Z</time></trkpt><trkpt lat="43.68123125185532" lon="11.909680406991228"><ele>708.75</ele><time>2026-04-19T13:27:54Z</time></trkpt><trkpt lat="43.68111912631055" lon="11.909540405513177"><ele>707.0</ele><time>2026-04-19T13:27:55Z</time></trkpt><trkpt lat="43.681005980812024" lon="11.909385039263322"><ele>710.0</ele><time>2026-04-19T13:27:56Z</time></trkpt><trkpt lat="43.68088748227294" lon="11.909214252742178"><ele>713.0</ele><time>2026-04-19T13:27:57Z</time></trkpt><trkpt lat="43.68076896816038" lon="11.909029015685794"><ele>716.0</ele><time>2026-04-19T13:27:58Z</time></trkpt><trkpt lat="43.68065416122916" lon="11.908856265548263"><ele>716.0</ele><time>2026-04-19T13:27:59Z</time></trkpt><trkpt lat="43.68056870235099" lon="11.908681427755283"><ele>716.0</ele><time>2026-04-19T13:28:00Z</time></trkpt><trkpt lat="43.680498895508684" lon="11.908520498801018"><ele>716.0</ele><time>2026-04-19T13:28:01Z</time></trkpt><trkpt lat="43.68040122644203" lon="11.908402376564332"><ele>716.0</ele><time>2026-04-19T13:28:02Z</time></trkpt><trkpt lat="43.68030407387884" lon="11.908317901830394"><ele>718.0</ele><time>2026-04-19T13:28:03Z</time></trkpt><trkpt lat="43.68021304831348" lon="11.90825536543119"><ele>720.0</ele><time>2026-04-19T13:28:04Z</time></trkpt><trkpt lat="43.68014672814711" lon="11.908182957143067"><ele>722.0</ele><time>2026-04-19T13:28:05Z</time></trkpt><trkpt lat="43.68009970439438" lon="11.908105574261633"><ele>724.0</ele><time>2026-04-19T13:28:06Z</time></trkpt><trkpt lat="43.68005762200275" lon="11.908026604390438"><ele>726.0</ele><time>2026-04-19T13:28:07Z</time></trkpt><trkpt lat="43.68006083948129" lon="11.907927090003412"><ele>728.0</ele><time>2026-04-19T13:28:08Z</time></trkpt><trkpt lat="43.68007623402044" lon="11.90780446661525"><ele>728.0</ele><time>2026-04-19T13:28:09Z</time></trkpt><trkpt lat="43.680104125442725" lon="11.907699529524034"><ele>728.0</ele><time>2026-04-19T13:28:10Z</time></trkpt><trkpt lat="43.68013279168073" lon="11.907618933545244"><ele>728.0</ele><time>2026-04-19T13:28:11Z</time></trkpt><trkpt lat="43.680183834848826" lon="11.907471102178215"><ele>728.0</ele><time>2026-04-19T13:28:13Z</time></trkpt><trkpt lat="43.68021032185233" lon="11.90739074266932"><ele>728.0</ele><time>2026-04-19T13:28:14Z</time></trkpt><trkpt lat="43.68023688255557" lon="11.907300268107846"><ele>728.0</ele><time>2026-04-19T13:28:15Z</time></trkpt><trkpt lat="43.68026344945012" lon="11.907204254846274"><ele>722.3333333333333</ele><time>2026-04-19T13:28:16Z</time></trkpt><trkpt lat="43.68028583110598" lon="11.907101323845168"><ele>716.6666666666666</ele><time>2026-04-19T13:28:17Z</time></trkpt><trkpt lat="43.680300406987506" lon="11.90699798234098"><ele>711.0</ele><time>2026-04-19T13:28:18Z</time></trkpt><trkpt lat="43.680307158193735" lon="11.906892287804826"><ele>705.3333333333334</ele><time>2026-04-19T13:28:19Z</time></trkpt><trkpt lat="43.680313050510215" lon="11.906781886409803"><ele>699.6666666666667</ele><time>2026-04-19T13:28:20Z</time></trkpt><trkpt lat="43.68031907050323" lon="11.906680569010371"><ele>694.0</ele><time>2026-04-19T13:28:21Z</time></trkpt><trkpt lat="43.680325114479025" lon="11.906590110691464"><ele>694.0</ele><time>2026-04-19T13:28:22Z</time></trkpt><trkpt lat="43.68031741433436" lon="11.906421801093737"><ele>694.0</ele><time>2026-04-19T13:28:24Z</time></trkpt><trkpt lat="43.68029403998348" lon="11.906340709300101"><ele>694.0</ele><time>2026-04-19T13:28:25Z</time></trkpt><trkpt lat="43.68027198736762" lon="11.906251943391057"><ele>694.0</ele><time>2026-04-19T13:28:26Z</time></trkpt><trkpt lat="43.68020999260269" lon="11.90619217642248"><ele>694.0</ele><time>2026-04-19T13:28:27Z</time></trkpt><trkpt lat="43.680161635515155" lon="11.906115018947052"><ele>694.0</ele><time>2026-04-19T13:28:28Z</time></trkpt><trkpt lat="43.680083686455404" lon="11.906090782346247"><ele>697.5714285714286</ele><time>2026-04-19T13:28:29Z</time></trkpt><trkpt lat="43.68002238830552" lon="11.90606263396054"><ele>701.1428571428571</ele><time>2026-04-19T13:28:30Z</time></trkpt><trkpt lat="43.67996052284985" lon="11.906030884524913"><ele>704.7142857142857</ele><time>2026-04-19T13:28:31Z</time></trkpt><trkpt lat="43.67988815946564" lon="11.906038717371985"><ele>708.2857142857142</ele><time>2026-04-19T13:28:32Z</time></trkpt><trkpt lat="43.679816853032364" lon="11.906068656423107"><ele>711.8571428571429</ele><time>2026-04-19T13:28:33Z</time></trkpt><trkpt lat="43.67975971673198" lon="11.906123640297912"><ele>715.4285714285713</ele><time>2026-04-19T13:28:34Z</time></trkpt><trkpt lat="43.67969644526809" lon="11.90613919321212"><ele>719.0</ele><time>2026-04-19T13:28:35Z</time></trkpt><trkpt lat="43.67959193820495" lon="11.906195102977335"><ele>719.0</ele><time>2026-04-19T13:28:36.999Z</time></trkpt><trkpt lat="43.67948661908362" lon="11.9061711913309"><ele>719.0</ele><time>2026-04-19T13:28:38.999Z</time></trkpt><trkpt lat="43.67940877907759" lon="11.906050563456251"><ele>719.0</ele><time>2026-04-19T13:28:40.999Z</time></trkpt><trkpt lat="43.6794023733462" lon="11.905952850715293"><ele>719.0</ele><time>2026-04-19T13:28:41.999Z</time></trkpt><trkpt lat="43.679403743409" lon="11.90584460992374"><ele>719.0</ele><time>2026-04-19T13:28:42.999Z</time></trkpt><trkpt lat="43.67940302385108" lon="11.905724390329251"><ele>719.4000000000001</ele><time>2026-04-19T13:28:43.999Z</time></trkpt><trkpt lat="43.67940377621143" lon="11.90560756963561"><ele>719.8</ele><time>2026-04-19T13:28:44.999Z</time></trkpt><trkpt lat="43.679401190727205" lon="11.905511104954142"><ele>720.2</ele><time>2026-04-19T13:28:45.999Z</time></trkpt><trkpt lat="43.67937370917239" lon="11.905348948589758"><ele>720.5999999999999</ele><time>2026-04-19T13:28:47.999Z</time></trkpt><trkpt lat="43.67933883211656" lon="11.905242403020607"><ele>721.0</ele><time>2026-04-19T13:28:48.999Z</time></trkpt><trkpt lat="43.679253590268345" lon="11.905142276598898"><ele>719.5</ele><time>2026-04-19T13:28:49.999Z</time></trkpt><trkpt lat="43.67915089292235" lon="11.905025909303449"><ele>718.0</ele><time>2026-04-19T13:28:50.999Z</time></trkpt><trkpt lat="43.67905952753862" lon="11.904872917853181"><ele>716.5</ele><time>2026-04-19T13:28:51.999Z</time></trkpt><trkpt lat="43.678973973119795" lon="11.904696142559237"><ele>715.0</ele><time>2026-04-19T13:28:52.999Z</time></trkpt><trkpt lat="43.678916280014235" lon="11.904503603182203"><ele>715.0</ele><time>2026-04-19T13:28:53.999Z</time></trkpt><trkpt lat="43.67884885049664" lon="11.904338117856161"><ele>715.0</ele><time>2026-04-19T13:28:54.999Z</time></trkpt><trkpt lat="43.67875391983852" lon="11.904205323957617"><ele>715.0</ele><time>2026-04-19T13:28:55.999Z</time></trkpt><trkpt lat="43.6786375782595" lon="11.90410853456846"><ele>715.0</ele><time>2026-04-19T13:28:56.999Z</time></trkpt><trkpt lat="43.67849998019545" lon="11.904020361490202"><ele>713.75</ele><time>2026-04-19T13:28:57.999Z</time></trkpt><trkpt lat="43.678355985717054" lon="11.903951812548025"><ele>712.5</ele><time>2026-04-19T13:28:58.999Z</time></trkpt><trkpt lat="43.67820816165598" lon="11.90391275441486"><ele>711.25</ele><time>2026-04-19T13:28:59.999Z</time></trkpt><trkpt lat="43.678076583510894" lon="11.903905628005365"><ele>710.0</ele><time>2026-04-19T13:29:00.999Z</time></trkpt><trkpt lat="43.67796804326083" lon="11.903900717309433"><ele>710.0</ele><time>2026-04-19T13:29:01.999Z</time></trkpt><trkpt lat="43.67788398673946" lon="11.903949646974313"><ele>710.0</ele><time>2026-04-19T13:29:02.999Z</time></trkpt><trkpt lat="43.677819834117535" lon="11.904055957321404"><ele>710.0</ele><time>2026-04-19T13:29:03.999Z</time></trkpt><trkpt lat="43.67778547545917" lon="11.90420224252329"><ele>710.0</ele><time>2026-04-19T13:29:04.999Z</time></trkpt><trkpt lat="43.67776539951948" lon="11.90437228076629"><ele>710.0</ele><time>2026-04-19T13:29:05.999Z</time></trkpt><trkpt lat="43.67774645114448" lon="11.90453657606052"><ele>710.6666666666666</ele><time>2026-04-19T13:29:06.999Z</time></trkpt><trkpt lat="43.67772970026925" lon="11.904681818459533"><ele>711.3333333333333</ele><time>2026-04-19T13:29:07.999Z</time></trkpt><trkpt lat="43.67771171456639" lon="11.904795478452046"><ele>712.0</ele><time>2026-04-19T13:29:08.999Z</time></trkpt><trkpt lat="43.67770189277777" lon="11.904892423506414"><ele>712.6666666666666</ele><time>2026-04-19T13:29:09.999Z</time></trkpt><trkpt lat="43.67763813332604" lon="11.904932226385883"><ele>713.3333333333334</ele><time>2026-04-19T13:29:10.999Z</time></trkpt><trkpt lat="43.677567295019166" lon="11.90491765847554"><ele>714.0</ele><time>2026-04-19T13:29:11.999Z</time></trkpt><trkpt lat="43.67750853151381" lon="11.904834315654721"><ele>714.0</ele><time>2026-04-19T13:29:12.999Z</time></trkpt><trkpt lat="43.677473185501604" lon="11.904709089537441"><ele>714.0</ele><time>2026-04-19T13:29:13.999Z</time></trkpt><trkpt lat="43.67740403888118" lon="11.904596063765316"><ele>714.0</ele><time>2026-04-19T13:29:14.999Z</time></trkpt><trkpt lat="43.67730484607378" lon="11.90449231230417"><ele>714.0</ele><time>2026-04-19T13:29:15.999Z</time></trkpt><trkpt lat="43.67721885423247" lon="11.904401424226524"><ele>714.0</ele><time>2026-04-19T13:29:16.999Z</time></trkpt><trkpt lat="43.677152192279344" lon="11.904275647898391"><ele>711.5</ele><time>2026-04-19T13:29:17.999Z</time></trkpt><trkpt lat="43.67712087294298" lon="11.904106624766449"><ele>709.0</ele><time>2026-04-19T13:29:18.999Z</time></trkpt><trkpt lat="43.67713373486298" lon="11.903920268905912"><ele>706.5</ele><time>2026-04-19T13:29:19.999Z</time></trkpt><trkpt lat="43.67712684088943" lon="11.903750208215918"><ele>704.0</ele><time>2026-04-19T13:29:20.999Z</time></trkpt><trkpt lat="43.67708244420217" lon="11.903610373727988"><ele>704.0</ele><time>2026-04-19T13:29:21.999Z</time></trkpt><trkpt lat="43.677008794916695" lon="11.903506431547209"><ele>704.0</ele><time>2026-04-19T13:29:22.999Z</time></trkpt><trkpt lat="43.6769035866382" lon="11.903441097143483"><ele>704.0</ele><time>2026-04-19T13:29:23.999Z</time></trkpt><trkpt lat="43.67678145866867" lon="11.903396219298578"><ele>704.0</ele><time>2026-04-19T13:29:24.999Z</time></trkpt><trkpt lat="43.676655509016705" lon="11.903358669612523"><ele>703.5</ele><time>2026-04-19T13:29:25.999Z</time></trkpt><trkpt lat="43.67654355484584" lon="11.903330071880374"><ele>703.0</ele><time>2026-04-19T13:29:26.999Z</time></trkpt><trkpt lat="43.67642363640633" lon="11.903391789941681"><ele>702.5</ele><time>2026-04-19T13:29:27.999Z</time></trkpt><trkpt lat="43.676333568809675" lon="11.903527095743087"><ele>702.0</ele><time>2026-04-19T13:29:28.999Z</time></trkpt><trkpt lat="43.6762311336993" lon="11.90361908499493"><ele>705.0</ele><time>2026-04-19T13:29:29.999Z</time></trkpt><trkpt lat="43.676139749007284" lon="11.903686573469338"><ele>708.0</ele><time>2026-04-19T13:29:30.999Z</time></trkpt><trkpt lat="43.67604647418899" lon="11.90370149458607"><ele>711.0</ele><time>2026-04-19T13:29:31.999Z</time></trkpt><trkpt lat="43.6759503931905" lon="11.903665602361825"><ele>714.0</ele><time>2026-04-19T13:29:32.999Z</time></trkpt><trkpt lat="43.67585813722692" lon="11.90359959125827"><ele>717.0</ele><time>2026-04-19T13:29:33.999Z</time></trkpt><trkpt lat="43.67579680720104" lon="11.903466134511506"><ele>714.6666666666666</ele><time>2026-04-19T13:29:34.999Z</time></trkpt><trkpt lat="43.675769474207385" lon="11.90329104704812"><ele>712.3333333333333</ele><time>2026-04-19T13:29:35.999Z</time></trkpt><trkpt lat="43.675756440528325" lon="11.903078426777519"><ele>710.0</ele><time>2026-04-19T13:29:36.998Z</time></trkpt><trkpt lat="43.675737710702144" lon="11.902847068455944"><ele>710.0</ele><time>2026-04-19T13:29:37.998Z</time></trkpt><trkpt lat="43.67570735946815" lon="11.902623648863655"><ele>710.0</ele><time>2026-04-19T13:29:38.998Z</time></trkpt><trkpt lat="43.67566668992094" lon="11.9024156791242"><ele>710.0</ele><time>2026-04-19T13:29:39.998Z</time></trkpt><trkpt lat="43.675625264649625" lon="11.902239595955422"><ele>707.0</ele><time>2026-04-19T13:29:40.998Z</time></trkpt><trkpt lat="43.67556766126474" lon="11.902093107546003"><ele>704.0</ele><time>2026-04-19T13:29:41.998Z</time></trkpt><trkpt lat="43.67547405014334" lon="11.901980424249036"><ele>701.0</ele><time>2026-04-19T13:29:42.998Z</time></trkpt><trkpt lat="43.675342630341184" lon="11.901895967831702"><ele>698.0</ele><time>2026-04-19T13:29:43.998Z</time></trkpt><trkpt lat="43.67519790628808" lon="11.901796158535838"><ele>699.6666666666666</ele><time>2026-04-19T13:29:44.998Z</time></trkpt><trkpt lat="43.67504561687667" lon="11.901708144366577"><ele>701.3333333333334</ele><time>2026-04-19T13:29:45.998Z</time></trkpt><trkpt lat="43.67488623709805" lon="11.901656352652008"><ele>703.0</ele><time>2026-04-19T13:29:46.998Z</time></trkpt><trkpt lat="43.674749493987235" lon="11.90162956919519"><ele>703.0</ele><time>2026-04-19T13:29:47.998Z</time></trkpt><trkpt lat="43.67463823254861" lon="11.901572623839172"><ele>703.0</ele><time>2026-04-19T13:29:48.998Z</time></trkpt><trkpt lat="43.67454662571277" lon="11.901458383558898"><ele>703.0</ele><time>2026-04-19T13:29:49.998Z</time></trkpt><trkpt lat="43.67447256549765" lon="11.901292448076225"><ele>703.0</ele><time>2026-04-19T13:29:50.998Z</time></trkpt><trkpt lat="43.67440180334948" lon="11.90109957274521"><ele>703.5</ele><time>2026-04-19T13:29:51.998Z</time></trkpt><trkpt lat="43.67435044092185" lon="11.900897646724324"><ele>704.0</ele><time>2026-04-19T13:29:52.998Z</time></trkpt><trkpt lat="43.67431658332355" lon="11.900709126548424"><ele>704.5</ele><time>2026-04-19T13:29:54Z</time></trkpt><trkpt lat="43.6742690652318" lon="11.9005493953966"><ele>705.0</ele><time>2026-04-19T13:29:55Z</time></trkpt><trkpt lat="43.67419125241364" lon="11.900424316487397"><ele>705.0</ele><time>2026-04-19T13:29:56Z</time></trkpt><trkpt lat="43.67408077372329" lon="11.90033397685206"><ele>705.0</ele><time>2026-04-19T13:29:57Z</time></trkpt><trkpt lat="43.67395508050399" lon="11.900264970628768"><ele>705.0</ele><time>2026-04-19T13:29:58Z</time></trkpt><trkpt lat="43.67380620730122" lon="11.90025970767359"><ele>705.0</ele><time>2026-04-19T13:29:59Z</time></trkpt><trkpt lat="43.67366075658511" lon="11.900278854409498"><ele>705.75</ele><time>2026-04-19T13:30:00Z</time></trkpt><trkpt lat="43.673525306432694" lon="11.900305680464683"><ele>706.5</ele><time>2026-04-19T13:30:01Z</time></trkpt><trkpt lat="43.67340437517316" lon="11.900315060751018"><ele>707.25</ele><time>2026-04-19T13:30:02Z</time></trkpt><trkpt lat="43.67329246931877" lon="11.900315033892896"><ele>708.0</ele><time>2026-04-19T13:30:03Z</time></trkpt><trkpt lat="43.673200725679834" lon="11.900195093700198"><ele>704.0</ele><time>2026-04-19T13:30:04Z</time></trkpt><trkpt lat="43.67308758537141" lon="11.900079370704834"><ele>700.0</ele><time>2026-04-19T13:30:05Z</time></trkpt><trkpt lat="43.672965963322284" lon="11.899922568263337"><ele>696.0</ele><time>2026-04-19T13:30:06Z</time></trkpt><trkpt lat="43.672830209340404" lon="11.899754881907134"><ele>696.6666666666666</ele><time>2026-04-19T13:30:07Z</time></trkpt><trkpt lat="43.67269961251552" lon="11.899580086525985"><ele>697.3333333333333</ele><time>2026-04-19T13:30:08Z</time></trkpt><trkpt lat="43.67257697985023" lon="11.899416672441951"><ele>698.0</ele><time>2026-04-19T13:30:09Z</time></trkpt><trkpt lat="43.672457160951936" lon="11.899259033308091"><ele>695.75</ele><time>2026-04-19T13:30:10Z</time></trkpt><trkpt lat="43.67234432866547" lon="11.899110274527876"><ele>693.5</ele><time>2026-04-19T13:30:11Z</time></trkpt><trkpt lat="43.6722386833552" lon="11.898973321336737"><ele>691.25</ele><time>2026-04-19T13:30:12Z</time></trkpt><trkpt lat="43.672126647846575" lon="11.89885688570835"><ele>689.0</ele><time>2026-04-19T13:30:13Z</time></trkpt><trkpt lat="43.67199900288699" lon="11.898779004672251"><ele>690.0</ele><time>2026-04-19T13:30:14Z</time></trkpt><trkpt lat="43.67185780086004" lon="11.898705730245759"><ele>691.0</ele><time>2026-04-19T13:30:15Z</time></trkpt><trkpt lat="43.671725367643496" lon="11.898650663217092"><ele>692.0</ele><time>2026-04-19T13:30:16Z</time></trkpt><trkpt lat="43.67160894108653" lon="11.898612721286007"><ele>693.0</ele><time>2026-04-19T13:30:17Z</time></trkpt><trkpt lat="43.67152547454984" lon="11.898524703020877"><ele>690.4</ele><time>2026-04-19T13:30:18Z</time></trkpt><trkpt lat="43.671468451429796" lon="11.89839426224441"><ele>687.8</ele><time>2026-04-19T13:30:19Z</time></trkpt><trkpt lat="43.671428098005414" lon="11.898238616563674"><ele>685.2</ele><time>2026-04-19T13:30:20Z</time></trkpt><trkpt lat="43.67139341705991" lon="11.898103358733431"><ele>682.6</ele><time>2026-04-19T13:30:21Z</time></trkpt><trkpt lat="43.671331987467255" lon="11.89799210036925"><ele>680.0</ele><time>2026-04-19T13:30:22Z</time></trkpt><trkpt lat="43.6712461302413" lon="11.89792146441783"><ele>680.0</ele><time>2026-04-19T13:30:23Z</time></trkpt><trkpt lat="43.67113097097322" lon="11.897884688687288"><ele>680.0</ele><time>2026-04-19T13:30:24Z</time></trkpt><trkpt lat="43.670992540304944" lon="11.897871321132353"><ele>680.0</ele><time>2026-04-19T13:30:25Z</time></trkpt><trkpt lat="43.670831669038876" lon="11.897854163880673"><ele>680.0</ele><time>2026-04-19T13:30:26Z</time></trkpt><trkpt lat="43.67066576769408" lon="11.897796050908363"><ele>680.6666666666666</ele><time>2026-04-19T13:30:27Z</time></trkpt><trkpt lat="43.67049483386935" lon="11.897763568360865"><ele>681.3333333333334</ele><time>2026-04-19T13:30:28Z</time></trkpt><trkpt lat="43.6703304844444" lon="11.897693714730128"><ele>682.0</ele><time>2026-04-19T13:30:29Z</time></trkpt><trkpt lat="43.67018274839559" lon="11.897606046116264"><ele>675.3333333333334</ele><time>2026-04-19T13:30:30Z</time></trkpt><trkpt lat="43.6700365860385" lon="11.89753212970542"><ele>668.6666666666666</ele><time>2026-04-19T13:30:31Z</time></trkpt><trkpt lat="43.66987814556369" lon="11.897500063592334"><ele>662.0</ele><time>2026-04-19T13:30:32Z</time></trkpt><trkpt lat="43.6697210963487" lon="11.897492657574366"><ele>662.0</ele><time>2026-04-19T13:30:33Z</time></trkpt><trkpt lat="43.66957487978193" lon="11.897470216993575"><ele>662.0</ele><time>2026-04-19T13:30:34Z</time></trkpt><trkpt lat="43.66943394295046" lon="11.897378201531073"><ele>662.0</ele><time>2026-04-19T13:30:35Z</time></trkpt><trkpt lat="43.66928702432874" lon="11.897269962558118"><ele>663.6666666666666</ele><time>2026-04-19T13:30:36Z</time></trkpt><trkpt lat="43.66913497604782" lon="11.897167238607253"><ele>665.3333333333334</ele><time>2026-04-19T13:30:37Z</time></trkpt><trkpt lat="43.66898892699419" lon="11.89710286899983"><ele>667.0</ele><time>2026-04-19T13:30:38Z</time></trkpt><trkpt lat="43.66887406292661" lon="11.897014264370819"><ele>667.0</ele><time>2026-04-19T13:30:39Z</time></trkpt><trkpt lat="43.66877350287173" lon="11.89692325147299"><ele>667.0</ele><time>2026-04-19T13:30:40Z</time></trkpt><trkpt lat="43.66867917244365" lon="11.896855347341504"><ele>667.0</ele><time>2026-04-19T13:30:41Z</time></trkpt><trkpt lat="43.668581034412384" lon="11.896807308169445"><ele>667.0</ele><time>2026-04-19T13:30:42Z</time></trkpt><trkpt lat="43.66846752136184" lon="11.896815058900257"><ele>667.0</ele><time>2026-04-19T13:30:43Z</time></trkpt><trkpt lat="43.6683742629199" lon="11.896834876870093"><ele>667.2857142857143</ele><time>2026-04-19T13:30:44Z</time></trkpt><trkpt lat="43.668306158820364" lon="11.89684256245148"><ele>667.5714285714286</ele><time>2026-04-19T13:30:45Z</time></trkpt><trkpt lat="43.668239687765464" lon="11.896821790936013"><ele>667.8571428571429</ele><time>2026-04-19T13:30:46Z</time></trkpt><trkpt lat="43.668202505965475" lon="11.896726298471798"><ele>668.1428571428571</ele><time>2026-04-19T13:30:47Z</time></trkpt><trkpt lat="43.668202749331755" lon="11.896618283719054"><ele>668.4285714285714</ele><time>2026-04-19T13:30:47.999Z</time></trkpt><trkpt lat="43.66824384153736" lon="11.896538708371029"><ele>668.7142857142858</ele><time>2026-04-19T13:30:48.999Z</time></trkpt><trkpt lat="43.66831927111799" lon="11.896496334544937"><ele>669.0</ele><time>2026-04-19T13:30:49.999Z</time></trkpt><trkpt lat="43.66841946360971" lon="11.896498497744876"><ele>664.25</ele><time>2026-04-19T13:30:50.999Z</time></trkpt><trkpt lat="43.66852408198555" lon="11.896546748081013"><ele>659.5</ele><time>2026-04-19T13:30:51.999Z</time></trkpt><trkpt lat="43.66865314136957" lon="11.896615681071285"><ele>654.75</ele><time>2026-04-19T13:30:52.999Z</time></trkpt><trkpt lat="43.668779839166696" lon="11.896664520145427"><ele>650.0</ele><time>2026-04-19T13:30:53.999Z</time></trkpt><trkpt lat="43.66891807152117" lon="11.896711374416874"><ele>648.3333333333333</ele><time>2026-04-19T13:30:54.999Z</time></trkpt><trkpt lat="43.6690771629275" lon="11.896723834623264"><ele>646.6666666666666</ele><time>2026-04-19T13:30:55.999Z</time></trkpt><trkpt lat="43.66924981198116" lon="11.896714027407635"><ele>645.0</ele><time>2026-04-19T13:30:56.999Z</time></trkpt><trkpt lat="43.66940740843312" lon="11.89671119156422"><ele>644.5</ele><time>2026-04-19T13:30:57.999Z</time></trkpt><trkpt lat="43.66954463523269" lon="11.896723715482391"><ele>644.0</ele><time>2026-04-19T13:30:58.999Z</time></trkpt><trkpt lat="43.669662629273574" lon="11.896737054934372"><ele>643.5</ele><time>2026-04-19T13:30:59.999Z</time></trkpt><trkpt lat="43.66976705842918" lon="11.89671919785049"><ele>643.0</ele><time>2026-04-19T13:31:00.999Z</time></trkpt><trkpt lat="43.66985461901898" lon="11.896654797608171"><ele>643.0</ele><time>2026-04-19T13:31:01.999Z</time></trkpt><trkpt lat="43.66993296019931" lon="11.896546978096453"><ele>643.0</ele><time>2026-04-19T13:31:02.999Z</time></trkpt><trkpt lat="43.66999591117158" lon="11.896393253915534"><ele>643.0</ele><time>2026-04-19T13:31:03.999Z</time></trkpt><trkpt lat="43.670046124775276" lon="11.896209546455733"><ele>643.0</ele><time>2026-04-19T13:31:04.999Z</time></trkpt><trkpt lat="43.67009923453476" lon="11.896003098419285"><ele>642.6666666666667</ele><time>2026-04-19T13:31:05.999Z</time></trkpt><trkpt lat="43.670181702464134" lon="11.895783655904056"><ele>642.3333333333334</ele><time>2026-04-19T13:31:06.999Z</time></trkpt><trkpt lat="43.67028195210012" lon="11.89556256479466"><ele>642.0</ele><time>2026-04-19T13:31:07.999Z</time></trkpt><trkpt lat="43.67037539551255" lon="11.895357092943836"><ele>642.0</ele><time>2026-04-19T13:31:08.999Z</time></trkpt><trkpt lat="43.67046196690647" lon="11.895163492516811"><ele>642.0</ele><time>2026-04-19T13:31:09.999Z</time></trkpt><trkpt lat="43.67053666792856" lon="11.894987698610889"><ele>642.0</ele><time>2026-04-19T13:31:10.999Z</time></trkpt><trkpt lat="43.67059782299204" lon="11.894841467655622"><ele>642.0</ele><time>2026-04-19T13:31:11.999Z</time></trkpt><trkpt lat="43.67065149484945" lon="11.894724471540519"><ele>639.0</ele><time>2026-04-19T13:31:12.999Z</time></trkpt><trkpt lat="43.67071804362695" lon="11.89462383805059"><ele>636.0</ele><time>2026-04-19T13:31:13.999Z</time></trkpt><trkpt lat="43.67080986212123" lon="11.894561514521573"><ele>633.0</ele><time>2026-04-19T13:31:14.999Z</time></trkpt><trkpt lat="43.67092766395732" lon="11.894549648849145"><ele>630.0</ele><time>2026-04-19T13:31:15.999Z</time></trkpt><trkpt lat="43.671061255472196" lon="11.894568687128693"><ele>631.2</ele><time>2026-04-19T13:31:16.999Z</time></trkpt><trkpt lat="43.67118114521175" lon="11.894601765435716"><ele>632.4</ele><time>2026-04-19T13:31:17.999Z</time></trkpt><trkpt lat="43.67128982592291" lon="11.894618940043882"><ele>633.6</ele><time>2026-04-19T13:31:18.999Z</time></trkpt><trkpt lat="43.67139283980526" lon="11.894593222738509"><ele>634.8</ele><time>2026-04-19T13:31:19.999Z</time></trkpt><trkpt lat="43.671491549463525" lon="11.894532841294017"><ele>636.0</ele><time>2026-04-19T13:31:20.999Z</time></trkpt><trkpt lat="43.67158120572296" lon="11.894457046338934"><ele>636.0</ele><time>2026-04-19T13:31:21.999Z</time></trkpt><trkpt lat="43.67167201101081" lon="11.894396521248492"><ele>636.0</ele><time>2026-04-19T13:31:22.999Z</time></trkpt><trkpt lat="43.67177205226646" lon="11.894365316416867"><ele>636.0</ele><time>2026-04-19T13:31:23.999Z</time></trkpt><trkpt lat="43.671886816158164" lon="11.894349503497263"><ele>636.0</ele><time>2026-04-19T13:31:24.999Z</time></trkpt><trkpt lat="43.6720042068066" lon="11.894353914232905"><ele>636.0</ele><time>2026-04-19T13:31:25.999Z</time></trkpt><trkpt lat="43.67212061781769" lon="11.894356670650078"><ele>635.5</ele><time>2026-04-19T13:31:26.999Z</time></trkpt><trkpt lat="43.67224283011072" lon="11.894353833959912"><ele>635.0</ele><time>2026-04-19T13:31:27.999Z</time></trkpt><trkpt lat="43.6723624438561" lon="11.894364304118918"><ele>634.5</ele><time>2026-04-19T13:31:28.999Z</time></trkpt><trkpt lat="43.67247596611331" lon="11.894374225795552"><ele>634.0</ele><time>2026-04-19T13:31:29.999Z</time></trkpt><trkpt lat="43.67258306626476" lon="11.894408605873547"><ele>634.0</ele><time>2026-04-19T13:31:30.999Z</time></trkpt><trkpt lat="43.6726930597774" lon="11.894484390920802"><ele>634.0</ele><time>2026-04-19T13:31:31.999Z</time></trkpt><trkpt lat="43.67280826349053" lon="11.894595479688897"><ele>634.0</ele><time>2026-04-19T13:31:32.999Z</time></trkpt><trkpt lat="43.67291887942658" lon="11.894712500865221"><ele>634.0</ele><time>2026-04-19T13:31:33.999Z</time></trkpt><trkpt lat="43.673018967228614" lon="11.894827349658645"><ele>631.5</ele><time>2026-04-19T13:31:34.999Z</time></trkpt><trkpt lat="43.673102407053456" lon="11.894954704320405"><ele>629.0</ele><time>2026-04-19T13:31:35.999Z</time></trkpt><trkpt lat="43.67317056584024" lon="11.895107767117771"><ele>626.5</ele><time>2026-04-19T13:31:36.999Z</time></trkpt><trkpt lat="43.67322974573995" lon="11.89527268383369"><ele>624.0</ele><time>2026-04-19T13:31:37.999Z</time></trkpt><trkpt lat="43.673289393160005" lon="11.895420595276683"><ele>624.0</ele><time>2026-04-19T13:31:38.999Z</time></trkpt><trkpt lat="43.67336130909836" lon="11.89555548547516"><ele>624.0</ele><time>2026-04-19T13:31:39.999Z</time></trkpt><trkpt lat="43.673443503656145" lon="11.895671289367824"><ele>624.0</ele><time>2026-04-19T13:31:40.999Z</time></trkpt><trkpt lat="43.67354831496772" lon="11.895767119279862"><ele>624.0</ele><time>2026-04-19T13:31:41.999Z</time></trkpt><trkpt lat="43.67366893241359" lon="11.895834050648604"><ele>625.0</ele><time>2026-04-19T13:31:42.999Z</time></trkpt><trkpt lat="43.67378101937046" lon="11.895870489693642"><ele>626.0</ele><time>2026-04-19T13:31:43.999Z</time></trkpt><trkpt lat="43.67387617535514" lon="11.895899101412436"><ele>627.0</ele><time>2026-04-19T13:31:44.999Z</time></trkpt><trkpt lat="43.67395161943777" lon="11.895929944123488"><ele>628.0</ele><time>2026-04-19T13:31:45.999Z</time></trkpt><trkpt lat="43.67406426000842" lon="11.895923299986606"><ele>629.0</ele><time>2026-04-19T13:31:47.998Z</time></trkpt><trkpt lat="43.67408610085521" lon="11.895780666499352"><ele>623.2</ele><time>2026-04-19T13:31:49.998Z</time></trkpt><trkpt lat="43.67405582899993" lon="11.89567452946438"><ele>617.4</ele><time>2026-04-19T13:31:50.998Z</time></trkpt><trkpt lat="43.673964809235315" lon="11.895599090881175"><ele>611.6</ele><time>2026-04-19T13:31:51.998Z</time></trkpt><trkpt lat="43.67386244939063" lon="11.895550366535266"><ele>605.8</ele><time>2026-04-19T13:31:52.998Z</time></trkpt><trkpt lat="43.67375272201463" lon="11.895516540257868"><ele>600.0</ele><time>2026-04-19T13:31:53.998Z</time></trkpt><trkpt lat="43.67364958127157" lon="11.895447247718897"><ele>600.5</ele><time>2026-04-19T13:31:54.998Z</time></trkpt><trkpt lat="43.67355725989956" lon="11.895343758224183"><ele>601.0</ele><time>2026-04-19T13:31:55.998Z</time></trkpt><trkpt lat="43.67347016559748" lon="11.89521036419002"><ele>601.5</ele><time>2026-04-19T13:31:56.998Z</time></trkpt><trkpt lat="43.67341510831593" lon="11.895029795493722"><ele>602.0</ele><time>2026-04-19T13:31:57.998Z</time></trkpt><trkpt lat="43.67337920788646" lon="11.89485328178125"><ele>602.0</ele><time>2026-04-19T13:31:58.998Z</time></trkpt><trkpt lat="43.67335924198314" lon="11.894685125805255"><ele>602.0</ele><time>2026-04-19T13:32:00Z</time></trkpt><trkpt lat="43.673334381029775" lon="11.89454068943957"><ele>602.0</ele><time>2026-04-19T13:32:01Z</time></trkpt><trkpt lat="43.67328871161802" lon="11.894406952984987"><ele>602.0</ele><time>2026-04-19T13:32:02Z</time></trkpt><trkpt lat="43.67322233538596" lon="11.894287380324732"><ele>602.0</ele><time>2026-04-19T13:32:03Z</time></trkpt><trkpt lat="43.67314252862831" lon="11.894170001162665"><ele>603.5</ele><time>2026-04-19T13:32:04Z</time></trkpt><trkpt lat="43.67306416904787" lon="11.894041697574684"><ele>605.0</ele><time>2026-04-19T13:32:05Z</time></trkpt><trkpt lat="43.67296212345236" lon="11.893940620888573"><ele>606.5</ele><time>2026-04-19T13:32:06Z</time></trkpt><trkpt lat="43.672833430747936" lon="11.893876852913747"><ele>608.0</ele><time>2026-04-19T13:32:07Z</time></trkpt><trkpt lat="43.672710452613686" lon="11.893805580950051"><ele>608.0</ele><time>2026-04-19T13:32:08Z</time></trkpt><trkpt lat="43.672588311321874" lon="11.893746422113574"><ele>608.0</ele><time>2026-04-19T13:32:09Z</time></trkpt><trkpt lat="43.67246429264508" lon="11.89365937203542"><ele>608.0</ele><time>2026-04-19T13:32:10Z</time></trkpt><trkpt lat="43.67233081383315" lon="11.89358653834121"><ele>608.0</ele><time>2026-04-19T13:32:11Z</time></trkpt><trkpt lat="43.67221266175808" lon="11.893484275268598"><ele>602.5</ele><time>2026-04-19T13:32:12Z</time></trkpt><trkpt lat="43.672099929174514" lon="11.893383993062812"><ele>597.0</ele><time>2026-04-19T13:32:13Z</time></trkpt><trkpt lat="43.67199027886696" lon="11.893298519941457"><ele>591.5</ele><time>2026-04-19T13:32:14Z</time></trkpt><trkpt lat="43.67187776559599" lon="11.893225903557825"><ele>586.0</ele><time>2026-04-19T13:32:15Z</time></trkpt><trkpt lat="43.671769085243206" lon="11.89314916074028"><ele>586.0</ele><time>2026-04-19T13:32:16Z</time></trkpt><trkpt lat="43.67165765250393" lon="11.893074050801928"><ele>586.0</ele><time>2026-04-19T13:32:17Z</time></trkpt><trkpt lat="43.671548993810376" lon="11.89299081374683"><ele>586.0</ele><time>2026-04-19T13:32:18Z</time></trkpt><trkpt lat="43.67143898702554" lon="11.892905475403968"><ele>586.0</ele><time>2026-04-19T13:32:19Z</time></trkpt><trkpt lat="43.671332297572896" lon="11.892849823114762"><ele>586.0</ele><time>2026-04-19T13:32:20Z</time></trkpt><trkpt lat="43.67122623017791" lon="11.892776606279964"><ele>586.0</ele><time>2026-04-19T13:32:21Z</time></trkpt><trkpt lat="43.67109944999183" lon="11.892726625693294"><ele>586.0</ele><time>2026-04-19T13:32:22Z</time></trkpt><trkpt lat="43.67096459400627" lon="11.89270293617295"><ele>586.0</ele><time>2026-04-19T13:32:23Z</time></trkpt><trkpt lat="43.67083893475781" lon="11.892661267656187"><ele>585.0</ele><time>2026-04-19T13:32:24Z</time></trkpt><trkpt lat="43.670704768065036" lon="11.892631618390181"><ele>584.0</ele><time>2026-04-19T13:32:25Z</time></trkpt><trkpt lat="43.670557062096655" lon="11.89262538901787"><ele>583.0</ele><time>2026-04-19T13:32:26Z</time></trkpt><trkpt lat="43.67040191114518" lon="11.892627610280673"><ele>582.0</ele><time>2026-04-19T13:32:27Z</time></trkpt><trkpt lat="43.67024889989684" lon="11.892572769550831"><ele>577.5</ele><time>2026-04-19T13:32:28Z</time></trkpt><trkpt lat="43.67009909286036" lon="11.892530276531245"><ele>573.0</ele><time>2026-04-19T13:32:29Z</time></trkpt><trkpt lat="43.66996044571205" lon="11.89249365397393"><ele>568.5</ele><time>2026-04-19T13:32:30Z</time></trkpt><trkpt lat="43.66982893971538" lon="11.892460744024444"><ele>564.0</ele><time>2026-04-19T13:32:31Z</time></trkpt><trkpt lat="43.6697100395981" lon="11.89245307440167"><ele>564.0</ele><time>2026-04-19T13:32:32Z</time></trkpt><trkpt lat="43.66960977275564" lon="11.892430428760733"><ele>564.0</ele><time>2026-04-19T13:32:33Z</time></trkpt><trkpt lat="43.66951513853782" lon="11.892409626037493"><ele>564.0</ele><time>2026-04-19T13:32:34Z</time></trkpt><trkpt lat="43.66941522497813" lon="11.892392481613067"><ele>564.0</ele><time>2026-04-19T13:32:35Z</time></trkpt><trkpt lat="43.66929671224161" lon="11.892434570071254"><ele>564.0</ele><time>2026-04-19T13:32:36Z</time></trkpt><trkpt lat="43.66919794844226" lon="11.89252566337108"><ele>562.75</ele><time>2026-04-19T13:32:37Z</time></trkpt><trkpt lat="43.66909145330548" lon="11.892564484986247"><ele>561.5</ele><time>2026-04-19T13:32:38Z</time></trkpt><trkpt lat="43.66896971481606" lon="11.8925616723539"><ele>560.25</ele><time>2026-04-19T13:32:39Z</time></trkpt><trkpt lat="43.66883912811893" lon="11.892590273541016"><ele>559.0</ele><time>2026-04-19T13:32:40Z</time></trkpt><trkpt lat="43.66870658018675" lon="11.89258523411621"><ele>557.75</ele><time>2026-04-19T13:32:41Z</time></trkpt><trkpt lat="43.668582354390125" lon="11.892577808338688"><ele>556.5</ele><time>2026-04-19T13:32:42Z</time></trkpt><trkpt lat="43.66846544237419" lon="11.89256365942127"><ele>555.25</ele><time>2026-04-19T13:32:43Z</time></trkpt><trkpt lat="43.66835361089967" lon="11.892554990516729"><ele>554.0</ele><time>2026-04-19T13:32:44Z</time></trkpt><trkpt lat="43.66824538091858" lon="11.89256989972052"><ele>558.4</ele><time>2026-04-19T13:32:45Z</time></trkpt><trkpt lat="43.66814368824209" lon="11.892616967598006"><ele>562.8</ele><time>2026-04-19T13:32:46Z</time></trkpt><trkpt lat="43.66804568211199" lon="11.89265678064341"><ele>567.2</ele><time>2026-04-19T13:32:47Z</time></trkpt><trkpt lat="43.66797169732828" lon="11.892723778225173"><ele>571.6</ele><time>2026-04-19T13:32:48Z</time></trkpt><trkpt lat="43.66789798815911" lon="11.892776657241297"><ele>576.0</ele><time>2026-04-19T13:32:49Z</time></trkpt><trkpt lat="43.66782330430387" lon="11.892796762316896"><ele>575.4</ele><time>2026-04-19T13:32:50Z</time></trkpt><trkpt lat="43.667751836262475" lon="11.89274586027527"><ele>574.8</ele><time>2026-04-19T13:32:51Z</time></trkpt><trkpt lat="43.66770126506116" lon="11.892665955315868"><ele>574.1999999999999</ele><time>2026-04-19T13:32:52Z</time></trkpt><trkpt lat="43.667678168972074" lon="11.892558163945715"><ele>573.6</ele><time>2026-04-19T13:32:53Z</time></trkpt><trkpt lat="43.66768940559055" lon="11.892425016015952"><ele>573.0</ele><time>2026-04-19T13:32:54Z</time></trkpt><trkpt lat="43.66773130210093" lon="11.892269352844004"><ele>573.0</ele><time>2026-04-19T13:32:55Z</time></trkpt><trkpt lat="43.667758333127004" lon="11.89210289706748"><ele>573.0</ele><time>2026-04-19T13:32:56Z</time></trkpt><trkpt lat="43.667796405864095" lon="11.89191804984445"><ele>573.0</ele><time>2026-04-19T13:32:57Z</time></trkpt><trkpt lat="43.66782499180453" lon="11.891730980672103"><ele>573.0</ele><time>2026-04-19T13:32:58Z</time></trkpt><trkpt lat="43.66784946660045" lon="11.891530037639912"><ele>569.0</ele><time>2026-04-19T13:32:59Z</time></trkpt><trkpt lat="43.66789040578636" lon="11.891335946774927"><ele>565.0</ele><time>2026-04-19T13:33:00Z</time></trkpt><trkpt lat="43.6679580554008" lon="11.891159539903247"><ele>561.0</ele><time>2026-04-19T13:33:01Z</time></trkpt><trkpt lat="43.66806183901746" lon="11.891020451689492"><ele>557.0</ele><time>2026-04-19T13:33:02Z</time></trkpt><trkpt lat="43.668188903932176" lon="11.89092185821824"><ele>557.0</ele><time>2026-04-19T13:33:03Z</time></trkpt><trkpt lat="43.66829292969942" lon="11.890826290143035"><ele>557.0</ele><time>2026-04-19T13:33:04Z</time></trkpt><trkpt lat="43.66836765727761" lon="11.890719251635895"><ele>557.0</ele><time>2026-04-19T13:33:05Z</time></trkpt><trkpt lat="43.668408710315376" lon="11.890578686082595"><ele>557.0</ele><time>2026-04-19T13:33:05.999Z</time></trkpt><trkpt lat="43.66842779057146" lon="11.890395600662124"><ele>557.0</ele><time>2026-04-19T13:33:06.999Z</time></trkpt><trkpt lat="43.668454728851444" lon="11.89020982833946"><ele>557.0</ele><time>2026-04-19T13:33:07.999Z</time></trkpt><trkpt lat="43.668503471892215" lon="11.890042394559764"><ele>557.0</ele><time>2026-04-19T13:33:08.999Z</time></trkpt><trkpt lat="43.66856814816984" lon="11.889909713907377"><ele>557.0</ele><time>2026-04-19T13:33:09.999Z</time></trkpt><trkpt lat="43.66860755203989" lon="11.889763031143698"><ele>562.0</ele><time>2026-04-19T13:33:10.999Z</time></trkpt><trkpt lat="43.668611769388605" lon="11.889595440050488"><ele>567.0</ele><time>2026-04-19T13:33:11.999Z</time></trkpt><trkpt lat="43.668592272677145" lon="11.889410261426253"><ele>572.0</ele><time>2026-04-19T13:33:12.999Z</time></trkpt><trkpt lat="43.66856320674198" lon="11.889216799384503"><ele>577.0</ele><time>2026-04-19T13:33:13.999Z</time></trkpt><trkpt lat="43.66854855552533" lon="11.889011677715574"><ele>579.6666666666667</ele><time>2026-04-19T13:33:14.999Z</time></trkpt><trkpt lat="43.668567409951706" lon="11.888797564502449"><ele>582.3333333333334</ele><time>2026-04-19T13:33:15.999Z</time></trkpt><trkpt lat="43.6686167655137" lon="11.88857773784142"><ele>585.0</ele><time>2026-04-19T13:33:16.999Z</time></trkpt><trkpt lat="43.66867799493339" lon="11.888379651891844"><ele>571.75</ele><time>2026-04-19T13:33:17.999Z</time></trkpt><trkpt lat="43.66872760805999" lon="11.888199817343077"><ele>558.5</ele><time>2026-04-19T13:33:18.999Z</time></trkpt><trkpt lat="43.66876057652463" lon="11.888024000142394"><ele>545.25</ele><time>2026-04-19T13:33:19.999Z</time></trkpt><trkpt lat="43.66877205454948" lon="11.887854612104265"><ele>532.0</ele><time>2026-04-19T13:33:20.999Z</time></trkpt><trkpt lat="43.66876808540212" lon="11.887694822499252"><ele>534.0</ele><time>2026-04-19T13:33:21.999Z</time></trkpt><trkpt lat="43.66874851146724" lon="11.887552769321443"><ele>536.0</ele><time>2026-04-19T13:33:22.999Z</time></trkpt><trkpt lat="43.66870733622316" lon="11.887428327622034"><ele>538.0</ele><time>2026-04-19T13:33:23.999Z</time></trkpt><trkpt lat="43.668632476310606" lon="11.887321411450058"><ele>540.0</ele><time>2026-04-19T13:33:24.999Z</time></trkpt><trkpt lat="43.668528442603" lon="11.887233766259579"><ele>542.0</ele><time>2026-04-19T13:33:25.999Z</time></trkpt><trkpt lat="43.668409445261" lon="11.887158490544538"><ele>551.5</ele><time>2026-04-19T13:33:26.999Z</time></trkpt><trkpt lat="43.66828504562373" lon="11.887086964449683"><ele>561.0</ele><time>2026-04-19T13:33:27.999Z</time></trkpt><trkpt lat="43.66815486311609" lon="11.887024509065316"><ele>570.5</ele><time>2026-04-19T13:33:28.999Z</time></trkpt><trkpt lat="43.66802404731911" lon="11.886981973983778"><ele>580.0</ele><time>2026-04-19T13:33:29.999Z</time></trkpt><trkpt lat="43.66789112459173" lon="11.886967264850965"><ele>581.25</ele><time>2026-04-19T13:33:30.999Z</time></trkpt><trkpt lat="43.66776559305124" lon="11.886936584611059"><ele>582.5</ele><time>2026-04-19T13:33:31.999Z</time></trkpt><trkpt lat="43.667656692907805" lon="11.886834947583257"><ele>583.75</ele><time>2026-04-19T13:33:32.999Z</time></trkpt><trkpt lat="43.66757321056568" lon="11.886685395599953"><ele>585.0</ele><time>2026-04-19T13:33:33.999Z</time></trkpt><trkpt lat="43.667489281869265" lon="11.886547665968036"><ele>585.0</ele><time>2026-04-19T13:33:34.999Z</time></trkpt><trkpt lat="43.66738278739488" lon="11.886447544386455"><ele>585.0</ele><time>2026-04-19T13:33:35.999Z</time></trkpt><trkpt lat="43.66724954051749" lon="11.886394474073226"><ele>585.0</ele><time>2026-04-19T13:33:36.999Z</time></trkpt><trkpt lat="43.66712779812198" lon="11.886320959900413"><ele>585.0</ele><time>2026-04-19T13:33:37.999Z</time></trkpt><trkpt lat="43.667007947950616" lon="11.886256243351584"><ele>585.0</ele><time>2026-04-19T13:33:38.999Z</time></trkpt><trkpt lat="43.66693375632662" lon="11.88612442056538"><ele>585.0</ele><time>2026-04-19T13:33:39.999Z</time></trkpt><trkpt lat="43.666902853465736" lon="11.885977609853816"><ele>585.0</ele><time>2026-04-19T13:33:40.999Z</time></trkpt><trkpt lat="43.66690790367188" lon="11.885854780745165"><ele>585.0</ele><time>2026-04-19T13:33:41.999Z</time></trkpt><trkpt lat="43.66688523090563" lon="11.88574023365816"><ele>585.0</ele><time>2026-04-19T13:33:42.999Z</time></trkpt><trkpt lat="43.66681738300738" lon="11.885630006214859"><ele>585.0</ele><time>2026-04-19T13:33:43.999Z</time></trkpt><trkpt lat="43.66671670910714" lon="11.885540126260235"><ele>585.0</ele><time>2026-04-19T13:33:44.999Z</time></trkpt><trkpt lat="43.66659062575026" lon="11.885459681728918"><ele>585.0</ele><time>2026-04-19T13:33:45.999Z</time></trkpt><trkpt lat="43.666446576716254" lon="11.885370985054017"><ele>585.0</ele><time>2026-04-19T13:33:46.999Z</time></trkpt><trkpt lat="43.66630556343031" lon="11.88522167865109"><ele>583.6666666666666</ele><time>2026-04-19T13:33:47.999Z</time></trkpt><trkpt lat="43.6661630773864" lon="11.885030185544183"><ele>582.3333333333333</ele><time>2026-04-19T13:33:48.999Z</time></trkpt><trkpt lat="43.66602325142254" lon="11.884861283857406"><ele>581.0</ele><time>2026-04-19T13:33:49.999Z</time></trkpt><trkpt lat="43.665914836208295" lon="11.884689460840834"><ele>583.0</ele><time>2026-04-19T13:33:50.999Z</time></trkpt><trkpt lat="43.66581744131275" lon="11.884544770018158"><ele>585.0</ele><time>2026-04-19T13:33:51.999Z</time></trkpt><trkpt lat="43.66572632296126" lon="11.884446382850815"><ele>587.0</ele><time>2026-04-19T13:33:52.999Z</time></trkpt><trkpt lat="43.665610213970155" lon="11.884384037936647"><ele>589.0</ele><time>2026-04-19T13:33:53.999Z</time></trkpt><trkpt lat="43.665480587920364" lon="11.884329992898618"><ele>589.0</ele><time>2026-04-19T13:33:54.999Z</time></trkpt><trkpt lat="43.66535953820885" lon="11.88429147103034"><ele>589.0</ele><time>2026-04-19T13:33:55.999Z</time></trkpt><trkpt lat="43.665263724522326" lon="11.884251097347393"><ele>589.0</ele><time>2026-04-19T13:33:56.999Z</time></trkpt><trkpt lat="43.66520031704075" lon="11.884146943330219"><ele>589.0</ele><time>2026-04-19T13:33:57.999Z</time></trkpt><trkpt lat="43.665174035077804" lon="11.883997454931842"><ele>589.0</ele><time>2026-04-19T13:33:58.999Z</time></trkpt><trkpt lat="43.66517687631181" lon="11.88381529717882"><ele>589.25</ele><time>2026-04-19T13:33:59.999Z</time></trkpt><trkpt lat="43.6651676632454" lon="11.88363175801915"><ele>589.5</ele><time>2026-04-19T13:34:00.999Z</time></trkpt><trkpt lat="43.6651510985019" lon="11.883470337822068"><ele>589.75</ele><time>2026-04-19T13:34:01.999Z</time></trkpt><trkpt lat="43.66511896031399" lon="11.883300490489527"><ele>590.0</ele><time>2026-04-19T13:34:02.999Z</time></trkpt><trkpt lat="43.6650727467065" lon="11.883129852049723"><ele>590.0</ele><time>2026-04-19T13:34:03.999Z</time></trkpt><trkpt lat="43.665019917023635" lon="11.88296513179605"><ele>590.0</ele><time>2026-04-19T13:34:04.998Z</time></trkpt><trkpt lat="43.66496235511804" lon="11.88280683953437"><ele>590.0</ele><time>2026-04-19T13:34:06.001Z</time></trkpt><trkpt lat="43.664909778452476" lon="11.88266904857772"><ele>590.0</ele><time>2026-04-19T13:34:07.001Z</time></trkpt><trkpt lat="43.664862202220114" lon="11.882550568435919"><ele>589.6</ele><time>2026-04-19T13:34:08.001Z</time></trkpt><trkpt lat="43.664802592979136" lon="11.882457726225335"><ele>589.2</ele><time>2026-04-19T13:34:09.001Z</time></trkpt><trkpt lat="43.664734957028415" lon="11.882377238997544"><ele>588.8</ele><time>2026-04-19T13:34:10.001Z</time></trkpt><trkpt lat="43.66462986565375" lon="11.882358914806229"><ele>588.4</ele><time>2026-04-19T13:34:11.001Z</time></trkpt><trkpt lat="43.664520466877924" lon="11.882333678068"><ele>588.0</ele><time>2026-04-19T13:34:12.001Z</time></trkpt><trkpt lat="43.664405258616725" lon="11.882310924286303"><ele>588.0</ele><time>2026-04-19T13:34:13.001Z</time></trkpt><trkpt lat="43.66429151530934" lon="11.882281475777425"><ele>588.0</ele><time>2026-04-19T13:34:14.001Z</time></trkpt><trkpt lat="43.664193906181474" lon="11.882218997790899"><ele>588.0</ele><time>2026-04-19T13:34:15.001Z</time></trkpt><trkpt lat="43.664097696473284" lon="11.882186041034002"><ele>588.0</ele><time>2026-04-19T13:34:16.001Z</time></trkpt><trkpt lat="43.66401753122134" lon="11.882108756250357"><ele>588.0</ele><time>2026-04-19T13:34:17.001Z</time></trkpt><trkpt lat="43.66393979640062" lon="11.882006937516403"><ele>588.0</ele><time>2026-04-19T13:34:18.001Z</time></trkpt><trkpt lat="43.66386393036396" lon="11.881910489638356"><ele>588.0</ele><time>2026-04-19T13:34:19.001Z</time></trkpt><trkpt lat="43.66379077196773" lon="11.881820818647139"><ele>588.0</ele><time>2026-04-19T13:34:20.001Z</time></trkpt><trkpt lat="43.663715571512576" lon="11.881733198190076"><ele>588.0</ele><time>2026-04-19T13:34:21.001Z</time></trkpt><trkpt lat="43.66364454587045" lon="11.881638689104234"><ele>588.0</ele><time>2026-04-19T13:34:22.001Z</time></trkpt><trkpt lat="43.66357646644218" lon="11.881546990309126"><ele>587.5</ele><time>2026-04-19T13:34:23.001Z</time></trkpt><trkpt lat="43.66350598893282" lon="11.881471842277087"><ele>587.0</ele><time>2026-04-19T13:34:24.001Z</time></trkpt><trkpt lat="43.66344390676569" lon="11.88141464657697"><ele>586.5</ele><time>2026-04-19T13:34:24.999Z</time></trkpt><trkpt lat="43.6633650130591" lon="11.881319166874267"><ele>586.0</ele><time>2026-04-19T13:34:26.999Z</time></trkpt><trkpt lat="43.66330232092954" lon="11.881247344924363"><ele>585.5</ele><time>2026-04-19T13:34:28.999Z</time></trkpt><trkpt lat="43.66323628607695" lon="11.881211554026288"><ele>585.0</ele><time>2026-04-19T13:34:31.999Z</time></trkpt><trkpt lat="43.663190150872225" lon="11.881127545834511"><ele>585.0</ele><time>2026-04-19T13:34:58.999Z</time></trkpt><trkpt lat="43.663194078500126" lon="11.880977850793919"><ele>585.0</ele><time>2026-04-19T13:35:01.999Z</time></trkpt><trkpt lat="43.66328033207436" lon="11.8809441654611"><ele>585.0</ele><time>2026-04-19T13:35:04.999Z</time></trkpt><trkpt lat="43.66333528915708" lon="11.881017289867582"><ele>585.0</ele><time>2026-04-19T13:35:06.999Z</time></trkpt><trkpt lat="43.66331171814258" lon="11.88111871265115"><ele>585.0</ele><time>2026-04-19T13:35:07.999Z</time></trkpt><trkpt lat="43.663312726134606" lon="11.881229979186152"><ele>585.0</ele><time>2026-04-19T13:35:09.999Z</time></trkpt><trkpt lat="43.663256014436186" lon="11.881284670380836"><ele>585.0</ele><time>2026-04-19T13:35:11.999Z</time></trkpt><trkpt lat="43.66319204203072" lon="11.881158798773225"><ele>585.0</ele><time>2026-04-19T13:35:13.999Z</time></trkpt><trkpt lat="43.66311075031184" lon="11.881124928526441"><ele>585.0</ele><time>2026-04-19T13:35:14.999Z</time></trkpt><trkpt lat="43.663009453405465" lon="11.881162352867854"><ele>585.0</ele><time>2026-04-19T13:35:15.999Z</time></trkpt><trkpt lat="43.662913138061086" lon="11.88111483814715"><ele>585.0</ele><time>2026-04-19T13:35:16.999Z</time></trkpt><trkpt lat="43.66281446621561" lon="11.881068045911864"><ele>584.6</ele><time>2026-04-19T13:35:17.999Z</time></trkpt><trkpt lat="43.662719711047835" lon="11.88102218672345"><ele>584.2</ele><time>2026-04-19T13:35:18.999Z</time></trkpt><trkpt lat="43.66262644710159" lon="11.880982324130288"><ele>583.8</ele><time>2026-04-19T13:35:19.999Z</time></trkpt><trkpt lat="43.6625291201717" lon="11.880961575917528"><ele>583.4</ele><time>2026-04-19T13:35:20.998Z</time></trkpt><trkpt lat="43.66242479128239" lon="11.880982934102395"><ele>583.0</ele><time>2026-04-19T13:35:21.998Z</time></trkpt><trkpt lat="43.66230748776351" lon="11.88102874095858"><ele>583.0</ele><time>2026-04-19T13:35:22.998Z</time></trkpt><trkpt lat="43.66220624095367" lon="11.881149114333196"><ele>583.0</ele><time>2026-04-19T13:35:23.998Z</time></trkpt><trkpt lat="43.6621093750155" lon="11.881250906432825"><ele>583.0</ele><time>2026-04-19T13:35:24.998Z</time></trkpt><trkpt lat="43.66201187783755" lon="11.881322727430904"><ele>583.0</ele><time>2026-04-19T13:35:25.998Z</time></trkpt><trkpt lat="43.661937091297276" lon="11.881396517781353"><ele>582.1666666666667</ele><time>2026-04-19T13:35:26.998Z</time></trkpt><trkpt lat="43.66186983392723" lon="11.881455279573904"><ele>581.3333333333334</ele><time>2026-04-19T13:35:27.998Z</time></trkpt><trkpt lat="43.661804155964155" lon="11.881510733026287"><ele>580.5</ele><time>2026-04-19T13:35:28.998Z</time></trkpt><trkpt lat="43.66172478522731" lon="11.881499385167887"><ele>579.6666666666666</ele><time>2026-04-19T13:35:29.998Z</time></trkpt><trkpt lat="43.66165043423326" lon="11.881444659047144"><ele>578.8333333333333</ele><time>2026-04-19T13:35:30.998Z</time></trkpt><trkpt lat="43.66159391170575" lon="11.8813579489122"><ele>578.0</ele><time>2026-04-19T13:35:31.998Z</time></trkpt><trkpt lat="43.66155888281937" lon="11.881250579221343"><ele>578.0</ele><time>2026-04-19T13:35:32.998Z</time></trkpt><trkpt lat="43.6615508306693" lon="11.881126704164595"><ele>578.0</ele><time>2026-04-19T13:35:33.998Z</time></trkpt><trkpt lat="43.66155646800106" lon="11.880984034337418"><ele>578.0</ele><time>2026-04-19T13:35:34.998Z</time></trkpt><trkpt lat="43.66155257057127" lon="11.880830488644404"><ele>578.0</ele><time>2026-04-19T13:35:35.998Z</time></trkpt><trkpt lat="43.66153995693381" lon="11.880665249390667"><ele>578.0</ele><time>2026-04-19T13:35:36.998Z</time></trkpt><trkpt lat="43.66151717366511" lon="11.880512530937553"><ele>576.6</ele><time>2026-04-19T13:35:37.998Z</time></trkpt><trkpt lat="43.661483305443205" lon="11.880378123448187"><ele>575.1999999999999</ele><time>2026-04-19T13:35:38.998Z</time></trkpt><trkpt lat="43.661441114983816" lon="11.880266880497866"><ele>573.8</ele><time>2026-04-19T13:35:39.998Z</time></trkpt><trkpt lat="43.661378687494626" lon="11.880182433002192"><ele>572.4</ele><time>2026-04-19T13:35:40.998Z</time></trkpt><trkpt lat="43.66129721673298" lon="11.880137313466912"><ele>571.0</ele><time>2026-04-19T13:35:41.998Z</time></trkpt><trkpt lat="43.66119591286193" lon="11.88013610137132"><ele>570.75</ele><time>2026-04-19T13:35:42.998Z</time></trkpt><trkpt lat="43.66107444226893" lon="11.88013219599338"><ele>570.5</ele><time>2026-04-19T13:35:43.998Z</time></trkpt><trkpt lat="43.66095307402693" lon="11.88014523335542"><ele>570.25</ele><time>2026-04-19T13:35:44.998Z</time></trkpt><trkpt lat="43.66081936868879" lon="11.880159595993575"><ele>570.0</ele><time>2026-04-19T13:35:45.998Z</time></trkpt><trkpt lat="43.66067866417787" lon="11.880175495687014"><ele>570.0</ele><time>2026-04-19T13:35:46.998Z</time></trkpt><trkpt lat="43.660540819072146" lon="11.880194548472433"><ele>570.0</ele><time>2026-04-19T13:35:47.998Z</time></trkpt><trkpt lat="43.66041038051898" lon="11.880212502333501"><ele>570.0</ele><time>2026-04-19T13:35:48.998Z</time></trkpt><trkpt lat="43.66029368741654" lon="11.880220880542556"><ele>570.0</ele><time>2026-04-19T13:35:49.998Z</time></trkpt><trkpt lat="43.66018991306638" lon="11.880207154021695"><ele>569.75</ele><time>2026-04-19T13:35:50.998Z</time></trkpt><trkpt lat="43.660080957777815" lon="11.880146249202456"><ele>569.5</ele><time>2026-04-19T13:35:51.998Z</time></trkpt><trkpt lat="43.65995826562551" lon="11.88008939292802"><ele>569.25</ele><time>2026-04-19T13:35:52.998Z</time></trkpt><trkpt lat="43.65984087388518" lon="11.879995380277151"><ele>569.0</ele><time>2026-04-19T13:35:53.998Z</time></trkpt><trkpt lat="43.659732752613486" lon="11.87988262467705"><ele>565.8</ele><time>2026-04-19T13:35:54.998Z</time></trkpt><trkpt lat="43.659642075269474" lon="11.879785958608084"><ele>562.5999999999999</ele><time>2026-04-19T13:35:55.998Z</time></trkpt><trkpt lat="43.65956221923663" lon="11.879721646333165"><ele>559.4</ele><time>2026-04-19T13:35:56.998Z</time></trkpt><trkpt lat="43.65948332330601" lon="11.879667987218093"><ele>556.1999999999999</ele><time>2026-04-19T13:35:57.998Z</time></trkpt><trkpt lat="43.65941706771116" lon="11.879578683015334"><ele>553.0</ele><time>2026-04-19T13:35:58.998Z</time></trkpt><trkpt lat="43.65937276063161" lon="11.8794603890884"><ele>551.5</ele><time>2026-04-19T13:35:59.998Z</time></trkpt><trkpt lat="43.65935722146229" lon="11.879328863427494"><ele>550.0</ele><time>2026-04-19T13:36:00.998Z</time></trkpt><trkpt lat="43.659366868972604" lon="11.879171180628923"><ele>548.5</ele><time>2026-04-19T13:36:01.998Z</time></trkpt><trkpt lat="43.659396415927674" lon="11.878987501037457"><ele>547.0</ele><time>2026-04-19T13:36:02.998Z</time></trkpt><trkpt lat="43.65943223522494" lon="11.878797078663741"><ele>547.0</ele><time>2026-04-19T13:36:03.998Z</time></trkpt><trkpt lat="43.659458975731695" lon="11.87860455953024"><ele>547.0</ele><time>2026-04-19T13:36:04.998Z</time></trkpt><trkpt lat="43.65948405204006" lon="11.878421296288495"><ele>547.0</ele><time>2026-04-19T13:36:05.998Z</time></trkpt><trkpt lat="43.659509806548606" lon="11.878268867324278"><ele>547.0</ele><time>2026-04-19T13:36:06.998Z</time></trkpt><trkpt lat="43.65952512289828" lon="11.878124597399973"><ele>545.8000000000001</ele><time>2026-04-19T13:36:07.998Z</time></trkpt><trkpt lat="43.65951985189043" lon="11.87798313817141"><ele>544.6</ele><time>2026-04-19T13:36:08.998Z</time></trkpt><trkpt lat="43.659487668673584" lon="11.877853991833451"><ele>543.4000000000001</ele><time>2026-04-19T13:36:09.998Z</time></trkpt><trkpt lat="43.65942997076485" lon="11.877748750686601"><ele>542.2</ele><time>2026-04-19T13:36:10.998Z</time></trkpt><trkpt lat="43.659352866284735" lon="11.877684908855414"><ele>541.0</ele><time>2026-04-19T13:36:12Z</time></trkpt><trkpt lat="43.65925273251682" lon="11.87766144655708"><ele>538.0</ele><time>2026-04-19T13:36:13Z</time></trkpt><trkpt lat="43.65913398071583" lon="11.877639101357287"><ele>535.0</ele><time>2026-04-19T13:36:14Z</time></trkpt><trkpt lat="43.65899632421638" lon="11.877630311543625"><ele>532.0</ele><time>2026-04-19T13:36:15Z</time></trkpt><trkpt lat="43.65885257363142" lon="11.877621410063135"><ele>529.0</ele><time>2026-04-19T13:36:16Z</time></trkpt><trkpt lat="43.65870139674879" lon="11.877611442587186"><ele>528.6666666666667</ele><time>2026-04-19T13:36:17Z</time></trkpt><trkpt lat="43.65853705705407" lon="11.877622340243859"><ele>528.3333333333334</ele><time>2026-04-19T13:36:18Z</time></trkpt><trkpt lat="43.6583750878666" lon="11.87760855228237"><ele>528.0</ele><time>2026-04-19T13:36:19Z</time></trkpt><trkpt lat="43.658215179511366" lon="11.877594542710906"><ele>526.0</ele><time>2026-04-19T13:36:20Z</time></trkpt><trkpt lat="43.658056632432256" lon="11.877581846744231"><ele>524.0</ele><time>2026-04-19T13:36:21Z</time></trkpt><trkpt lat="43.65790262686728" lon="11.877572144285752"><ele>522.0</ele><time>2026-04-19T13:36:22Z</time></trkpt><trkpt lat="43.65774846329472" lon="11.877561049271371"><ele>521.6666666666666</ele><time>2026-04-19T13:36:23Z</time></trkpt><trkpt lat="43.65759618402121" lon="11.877553897456274"><ele>521.3333333333333</ele><time>2026-04-19T13:36:24Z</time></trkpt><trkpt lat="43.657443550246626" lon="11.877550000705183"><ele>521.0</ele><time>2026-04-19T13:36:25Z</time></trkpt><trkpt lat="43.65729079063422" lon="11.877555495994278"><ele>521.0</ele><time>2026-04-19T13:36:26Z</time></trkpt><trkpt lat="43.65713314571908" lon="11.877554172701721"><ele>521.0</ele><time>2026-04-19T13:36:27Z</time></trkpt><trkpt lat="43.65697610466094" lon="11.877545921788984"><ele>521.0</ele><time>2026-04-19T13:36:28Z</time></trkpt><trkpt lat="43.65682357030604" lon="11.877552395676597"><ele>519.0</ele><time>2026-04-19T13:36:29Z</time></trkpt><trkpt lat="43.65667178864161" lon="11.877568223388216"><ele>517.0</ele><time>2026-04-19T13:36:30Z</time></trkpt><trkpt lat="43.65651910087309" lon="11.877546675051564"><ele>515.0</ele><time>2026-04-19T13:36:31Z</time></trkpt><trkpt lat="43.656372519420025" lon="11.877545761538544"><ele>515.0</ele><time>2026-04-19T13:36:32Z</time></trkpt><trkpt lat="43.65624575566547" lon="11.877513889744598"><ele>515.0</ele><time>2026-04-19T13:36:33Z</time></trkpt><trkpt lat="43.65613333678146" lon="11.877495629117284"><ele>515.0</ele><time>2026-04-19T13:36:34Z</time></trkpt><trkpt lat="43.656035263363584" lon="11.877493589374014"><ele>515.0</ele><time>2026-04-19T13:36:35Z</time></trkpt><trkpt lat="43.65593952460958" lon="11.877501200685282"><ele>515.0</ele><time>2026-04-19T13:36:36Z</time></trkpt><trkpt lat="43.65585240130343" lon="11.87758318570384"><ele>513.25</ele><time>2026-04-19T13:36:37Z</time></trkpt><trkpt lat="43.65579005703381" lon="11.877704334135691"><ele>511.5</ele><time>2026-04-19T13:36:38Z</time></trkpt><trkpt lat="43.65574402084697" lon="11.877855268106059"><ele>509.75</ele><time>2026-04-19T13:36:38.999Z</time></trkpt><trkpt lat="43.6557217439985" lon="11.878027731387682"><ele>508.0</ele><time>2026-04-19T13:36:39.999Z</time></trkpt><trkpt lat="43.65570153383964" lon="11.878184746931655"><ele>508.0</ele><time>2026-04-19T13:36:40.999Z</time></trkpt><trkpt lat="43.65567787133815" lon="11.87832100270734"><ele>507.99999999999994</ele><time>2026-04-19T13:36:41.999Z</time></trkpt><trkpt lat="43.655636416314884" lon="11.878442708497008"><ele>507.99999999999994</ele><time>2026-04-19T13:36:42.999Z</time></trkpt><trkpt lat="43.65556647161983" lon="11.878539513017113"><ele>508.0</ele><time>2026-04-19T13:36:43.999Z</time></trkpt><trkpt lat="43.65546779525917" lon="11.878600227489207"><ele>508.0</ele><time>2026-04-19T13:36:44.999Z</time></trkpt><trkpt lat="43.6553442426929" lon="11.878623558292148"><ele>505.33333333333337</ele><time>2026-04-19T13:36:45.999Z</time></trkpt><trkpt lat="43.65519885583176" lon="11.878637082078262"><ele>502.66666666666663</ele><time>2026-04-19T13:36:46.999Z</time></trkpt><trkpt lat="43.65503385581969" lon="11.878668294416698"><ele>500.0</ele><time>2026-04-19T13:36:47.999Z</time></trkpt><trkpt lat="43.65486070530873" lon="11.878680462532222"><ele>500.0</ele><time>2026-04-19T13:36:48.999Z</time></trkpt><trkpt lat="43.65468872162258" lon="11.878697355300023"><ele>500.0</ele><time>2026-04-19T13:36:49.999Z</time></trkpt><trkpt lat="43.65451717449814" lon="11.87868765044128"><ele>500.0</ele><time>2026-04-19T13:36:50.999Z</time></trkpt><trkpt lat="43.65435556141245" lon="11.878698716604323"><ele>499.3333333333333</ele><time>2026-04-19T13:36:51.999Z</time></trkpt><trkpt lat="43.654200446205955" lon="11.878709260160642"><ele>498.66666666666663</ele><time>2026-04-19T13:36:52.999Z</time></trkpt><trkpt lat="43.65405149646996" lon="11.878746421056194"><ele>498.0</ele><time>2026-04-19T13:36:53.999Z</time></trkpt><trkpt lat="43.65389049629447" lon="11.878752717052862"><ele>498.0</ele><time>2026-04-19T13:36:54.999Z</time></trkpt><trkpt lat="43.65373513015899" lon="11.878837204804176"><ele>498.0</ele><time>2026-04-19T13:36:55.999Z</time></trkpt><trkpt lat="43.653581999502386" lon="11.878878391629929"><ele>498.0</ele><time>2026-04-19T13:36:56.999Z</time></trkpt><trkpt lat="43.653441841946446" lon="11.878928736742644"><ele>498.75</ele><time>2026-04-19T13:36:57.999Z</time></trkpt><trkpt lat="43.65329913589041" lon="11.878958717210711"><ele>499.5</ele><time>2026-04-19T13:36:58.999Z</time></trkpt><trkpt lat="43.65315350026437" lon="11.878986256106574"><ele>500.25</ele><time>2026-04-19T13:36:59.999Z</time></trkpt><trkpt lat="43.65302444015854" lon="11.878957931748813"><ele>501.0</ele><time>2026-04-19T13:37:00.999Z</time></trkpt><trkpt lat="43.65290614426294" lon="11.878904633345416"><ele>501.0</ele><time>2026-04-19T13:37:01.999Z</time></trkpt><trkpt lat="43.65280435169267" lon="11.878820000496114"><ele>501.0</ele><time>2026-04-19T13:37:02.999Z</time></trkpt><trkpt lat="43.6527342509984" lon="11.878701821493626"><ele>501.0</ele><time>2026-04-19T13:37:03.999Z</time></trkpt><trkpt lat="43.6526939365813" lon="11.878553895539008"><ele>501.0</ele><time>2026-04-19T13:37:04.999Z</time></trkpt><trkpt lat="43.65267958916188" lon="11.878383294773638"><ele>499.0</ele><time>2026-04-19T13:37:05.999Z</time></trkpt><trkpt lat="43.652699819061354" lon="11.878199424930083"><ele>497.0</ele><time>2026-04-19T13:37:06.999Z</time></trkpt><trkpt lat="43.65275833079962" lon="11.878004131376306"><ele>495.0</ele><time>2026-04-19T13:37:07.999Z</time></trkpt><trkpt lat="43.65284303903601" lon="11.877809500442394"><ele>495.0</ele><time>2026-04-19T13:37:08.999Z</time></trkpt><trkpt lat="43.65292981579521" lon="11.877609601757127"><ele>495.0</ele><time>2026-04-19T13:37:09.999Z</time></trkpt><trkpt lat="43.653008254448785" lon="11.87741889210152"><ele>495.0</ele><time>2026-04-19T13:37:10.999Z</time></trkpt><trkpt lat="43.65308263142682" lon="11.877246114315358"><ele>492.5</ele><time>2026-04-19T13:37:11.999Z</time></trkpt><trkpt lat="43.65317490837237" lon="11.877107394341676"><ele>490.0</ele><time>2026-04-19T13:37:12.999Z</time></trkpt><trkpt lat="43.65328580715593" lon="11.877003895134228"><ele>487.5</ele><time>2026-04-19T13:37:13.999Z</time></trkpt><trkpt lat="43.65341888090769" lon="11.876938860264968"><ele>485.0</ele><time>2026-04-19T13:37:14.999Z</time></trkpt><trkpt lat="43.653565658456856" lon="11.8769112555473"><ele>484.5</ele><time>2026-04-19T13:37:15.999Z</time></trkpt><trkpt lat="43.65371863030497" lon="11.87691945173643"><ele>484.0</ele><time>2026-04-19T13:37:16.999Z</time></trkpt><trkpt lat="43.65385693272367" lon="11.876935016832883"><ele>483.5</ele><time>2026-04-19T13:37:17.999Z</time></trkpt><trkpt lat="43.653978895944604" lon="11.876925976323959"><ele>483.0</ele><time>2026-04-19T13:37:18.999Z</time></trkpt><trkpt lat="43.654090146239064" lon="11.876866120855475"><ele>481.25</ele><time>2026-04-19T13:37:19.999Z</time></trkpt><trkpt lat="43.654188564192985" lon="11.876750036175393"><ele>479.5</ele><time>2026-04-19T13:37:20.999Z</time></trkpt><trkpt lat="43.654265725370266" lon="11.876603485411312"><ele>477.75</ele><time>2026-04-19T13:37:21.999Z</time></trkpt><trkpt lat="43.654332203992574" lon="11.876469690651938"><ele>476.0</ele><time>2026-04-19T13:37:22.999Z</time></trkpt><trkpt lat="43.65442426409554" lon="11.876370118296538"><ele>477.5</ele><time>2026-04-19T13:37:23.999Z</time></trkpt><trkpt lat="43.654551825931186" lon="11.876315036420777"><ele>479.0</ele><time>2026-04-19T13:37:24.999Z</time></trkpt><trkpt lat="43.65470051074996" lon="11.876304059910748"><ele>480.5</ele><time>2026-04-19T13:37:25.999Z</time></trkpt><trkpt lat="43.654853455212965" lon="11.876304759071045"><ele>482.0</ele><time>2026-04-19T13:37:26.999Z</time></trkpt><trkpt lat="43.65500202570774" lon="11.876264206082348"><ele>482.0</ele><time>2026-04-19T13:37:27.999Z</time></trkpt><trkpt lat="43.655146189755605" lon="11.8761691772356"><ele>482.0</ele><time>2026-04-19T13:37:28.999Z</time></trkpt><trkpt lat="43.655289577492056" lon="11.876019043139395"><ele>482.0</ele><time>2026-04-19T13:37:29.999Z</time></trkpt><trkpt lat="43.65543442596316" lon="11.875843219595328"><ele>478.3333333333333</ele><time>2026-04-19T13:37:30.999Z</time></trkpt><trkpt lat="43.65555705625188" lon="11.875666803227276"><ele>474.66666666666663</ele><time>2026-04-19T13:37:31.999Z</time></trkpt><trkpt lat="43.65566939021832" lon="11.875504777054509"><ele>471.0</ele><time>2026-04-19T13:37:32.999Z</time></trkpt><trkpt lat="43.65577403825109" lon="11.875362367717514"><ele>471.0</ele><time>2026-04-19T13:37:33.999Z</time></trkpt><trkpt lat="43.65586881888716" lon="11.875237040152305"><ele>471.0</ele><time>2026-04-19T13:37:34.999Z</time></trkpt><trkpt lat="43.65596351992979" lon="11.875129709549018"><ele>471.0</ele><time>2026-04-19T13:37:35.998Z</time></trkpt><trkpt lat="43.65607209618256" lon="11.875060276161925"><ele>471.0</ele><time>2026-04-19T13:37:36.998Z</time></trkpt><trkpt lat="43.65619227882404" lon="11.875054245193732"><ele>469.0</ele><time>2026-04-19T13:37:37.998Z</time></trkpt><trkpt lat="43.6563213227019" lon="11.875090202065728"><ele>467.0</ele><time>2026-04-19T13:37:38.998Z</time></trkpt><trkpt lat="43.65645291353642" lon="11.875101113351482"><ele>465.0</ele><time>2026-04-19T13:37:39.998Z</time></trkpt><trkpt lat="43.65657797755622" lon="11.87506651989635"><ele>463.0</ele><time>2026-04-19T13:37:40.998Z</time></trkpt><trkpt lat="43.65670780398056" lon="11.874978681419881"><ele>463.0</ele><time>2026-04-19T13:37:41.998Z</time></trkpt><trkpt lat="43.65684659266845" lon="11.874841098138212"><ele>463.0</ele><time>2026-04-19T13:37:42.998Z</time></trkpt><trkpt lat="43.65700274407609" lon="11.874687241584498"><ele>463.0</ele><time>2026-04-19T13:37:43.998Z</time></trkpt><trkpt lat="43.65717581742248" lon="11.874529343914624"><ele>467.33333333333337</ele><time>2026-04-19T13:37:44.998Z</time></trkpt><trkpt lat="43.65733659493321" lon="11.874382849146954"><ele>471.66666666666663</ele><time>2026-04-19T13:37:45.998Z</time></trkpt><trkpt lat="43.65748642407334" lon="11.874241396027246"><ele>476.0</ele><time>2026-04-19T13:37:46.998Z</time></trkpt><trkpt lat="43.65761990889052" lon="11.874116311091617"><ele>469.75</ele><time>2026-04-19T13:37:47.998Z</time></trkpt><trkpt lat="43.6577372877804" lon="11.874004159831589"><ele>463.5</ele><time>2026-04-19T13:37:48.998Z</time></trkpt><trkpt lat="43.657854917155" lon="11.873915147317721"><ele>457.25</ele><time>2026-04-19T13:37:49.998Z</time></trkpt><trkpt lat="43.657984652580176" lon="11.873869853824528"><ele>451.0</ele><time>2026-04-19T13:37:50.998Z</time></trkpt><trkpt lat="43.65811200756405" lon="11.873874032836307"><ele>451.0</ele><time>2026-04-19T13:37:51.998Z</time></trkpt><trkpt lat="43.65822196170489" lon="11.873886116254834"><ele>451.0</ele><time>2026-04-19T13:37:52.998Z</time></trkpt><trkpt lat="43.65832479045078" lon="11.873844073664326"><ele>451.0</ele><time>2026-04-19T13:37:53.998Z</time></trkpt><trkpt lat="43.658424508354365" lon="11.873750585787658"><ele>451.0</ele><time>2026-04-19T13:37:54.998Z</time></trkpt><trkpt lat="43.65850905955937" lon="11.873617420678718"><ele>451.0</ele><time>2026-04-19T13:37:55.998Z</time></trkpt><trkpt lat="43.658570259646666" lon="11.873469922382633"><ele>451.0</ele><time>2026-04-19T13:37:56.998Z</time></trkpt><trkpt lat="43.65860021458332" lon="11.873328680570681"><ele>451.0</ele><time>2026-04-19T13:37:57.998Z</time></trkpt><trkpt lat="43.65860090123514" lon="11.873200800728945"><ele>451.0</ele><time>2026-04-19T13:37:58.998Z</time></trkpt><trkpt lat="43.65856861797834" lon="11.8730844431405"><ele>451.0</ele><time>2026-04-19T13:37:59.998Z</time></trkpt><trkpt lat="43.65851033172204" lon="11.87299027730485"><ele>447.75</ele><time>2026-04-19T13:38:00.998Z</time></trkpt><trkpt lat="43.65842929717481" lon="11.872927361509864"><ele>444.5</ele><time>2026-04-19T13:38:01.998Z</time></trkpt><trkpt lat="43.658323955376765" lon="11.8729040210889"><ele>441.25</ele><time>2026-04-19T13:38:02.998Z</time></trkpt><trkpt lat="43.658201713772" lon="11.872932176581799"><ele>438.0</ele><time>2026-04-19T13:38:03.998Z</time></trkpt><trkpt lat="43.658069566157394" lon="11.873010704736394"><ele>438.0</ele><time>2026-04-19T13:38:04.998Z</time></trkpt><trkpt lat="43.65794327072597" lon="11.873116675734448"><ele>438.0</ele><time>2026-04-19T13:38:05.998Z</time></trkpt><trkpt lat="43.657817587280434" lon="11.873188630278621"><ele>438.0</ele><time>2026-04-19T13:38:06.998Z</time></trkpt><trkpt lat="43.657682690157976" lon="11.873204480143581"><ele>438.0</ele><time>2026-04-19T13:38:07.998Z</time></trkpt><trkpt lat="43.657540790279626" lon="11.873137477917645"><ele>436.5</ele><time>2026-04-19T13:38:08.998Z</time></trkpt><trkpt lat="43.65739824258823" lon="11.873074149406126"><ele>435.0</ele><time>2026-04-19T13:38:09.998Z</time></trkpt><trkpt lat="43.657260672719545" lon="11.873001176728716"><ele>433.5</ele><time>2026-04-19T13:38:10.998Z</time></trkpt><trkpt lat="43.65711603836276" lon="11.872980659822323"><ele>432.0</ele><time>2026-04-19T13:38:11.998Z</time></trkpt><trkpt lat="43.65699020678563" lon="11.872996045493252"><ele>430.5</ele><time>2026-04-19T13:38:12.998Z</time></trkpt><trkpt lat="43.65687704956711" lon="11.873059866372648"><ele>429.0</ele><time>2026-04-19T13:38:13.998Z</time></trkpt><trkpt lat="43.65677702070161" lon="11.873168421247748"><ele>427.5</ele><time>2026-04-19T13:38:14.998Z</time></trkpt><trkpt lat="43.65667449296235" lon="11.873251493478353"><ele>426.0</ele><time>2026-04-19T13:38:15.998Z</time></trkpt><trkpt lat="43.6565771521757" lon="11.873303880597305"><ele>426.0</ele><time>2026-04-19T13:38:16.998Z</time></trkpt><trkpt lat="43.65647589756487" lon="11.873342592235382"><ele>426.0</ele><time>2026-04-19T13:38:18Z</time></trkpt><trkpt lat="43.656364249208764" lon="11.873289073455807"><ele>426.0</ele><time>2026-04-19T13:38:19Z</time></trkpt><trkpt lat="43.65626459207153" lon="11.873178429507119"><ele>426.0</ele><time>2026-04-19T13:38:20Z</time></trkpt><trkpt lat="43.65619166654844" lon="11.873046351785385"><ele>426.0</ele><time>2026-04-19T13:38:21Z</time></trkpt><trkpt lat="43.65613810999109" lon="11.872918056402296"><ele>426.0</ele><time>2026-04-19T13:38:22Z</time></trkpt><trkpt lat="43.65605514339996" lon="11.872828230322469"><ele>426.0</ele><time>2026-04-19T13:38:23Z</time></trkpt><trkpt lat="43.655950286235395" lon="11.87278235728245"><ele>426.0</ele><time>2026-04-19T13:38:24Z</time></trkpt><trkpt lat="43.65584070472301" lon="11.872760067233049"><ele>426.0</ele><time>2026-04-19T13:38:25Z</time></trkpt><trkpt lat="43.65572697368274" lon="11.872827737707556"><ele>423.75</ele><time>2026-04-19T13:38:26Z</time></trkpt><trkpt lat="43.6556372435665" lon="11.872964769459298"><ele>421.5</ele><time>2026-04-19T13:38:27Z</time></trkpt><trkpt lat="43.65553633427662" lon="11.873087432465722"><ele>419.25</ele><time>2026-04-19T13:38:28Z</time></trkpt><trkpt lat="43.65541601566627" lon="11.873170176071492"><ele>417.0</ele><time>2026-04-19T13:38:29Z</time></trkpt><trkpt lat="43.655271558417766" lon="11.873218311737196"><ele>415.33333333333337</ele><time>2026-04-19T13:38:30Z</time></trkpt><trkpt lat="43.65510351549669" lon="11.873232772928809"><ele>413.6666666666667</ele><time>2026-04-19T13:38:31Z</time></trkpt><trkpt lat="43.654944110510215" lon="11.873239170818582"><ele>412.0</ele><time>2026-04-19T13:38:32Z</time></trkpt><trkpt lat="43.65479008567185" lon="11.873237609195526"><ele>412.0</ele><time>2026-04-19T13:38:33Z</time></trkpt><trkpt lat="43.65463356084593" lon="11.873206718842937"><ele>412.0</ele><time>2026-04-19T13:38:34Z</time></trkpt><trkpt lat="43.65447886770453" lon="11.87311880367207"><ele>412.0</ele><time>2026-04-19T13:38:35Z</time></trkpt><trkpt lat="43.65431146282129" lon="11.873016773240947"><ele>410.6666666666667</ele><time>2026-04-19T13:38:36Z</time></trkpt><trkpt lat="43.65416084619315" lon="11.872904989929484"><ele>409.33333333333337</ele><time>2026-04-19T13:38:37Z</time></trkpt><trkpt lat="43.65401508601748" lon="11.872803355765305"><ele>408.0</ele><time>2026-04-19T13:38:38Z</time></trkpt><trkpt lat="43.65387341273457" lon="11.872713478814257"><ele>408.0</ele><time>2026-04-19T13:38:39Z</time></trkpt><trkpt lat="43.653728147588005" lon="11.872655853025375"><ele>408.0</ele><time>2026-04-19T13:38:40Z</time></trkpt><trkpt lat="43.65356583735834" lon="11.872627817218358"><ele>408.0</ele><time>2026-04-19T13:38:41Z</time></trkpt><trkpt lat="43.65339571254198" lon="11.87259298865941"><ele>403.0</ele><time>2026-04-19T13:38:42Z</time></trkpt><trkpt lat="43.65322494750009" lon="11.872573348737022"><ele>398.0</ele><time>2026-04-19T13:38:43Z</time></trkpt><trkpt lat="43.653070867178016" lon="11.87257522463017"><ele>393.0</ele><time>2026-04-19T13:38:44Z</time></trkpt><trkpt lat="43.652930358200415" lon="11.872546768749535"><ele>393.0</ele><time>2026-04-19T13:38:45Z</time></trkpt><trkpt lat="43.65279074020832" lon="11.87249284678944"><ele>393.0</ele><time>2026-04-19T13:38:46Z</time></trkpt><trkpt lat="43.65265960253002" lon="11.872389120939902"><ele>393.0</ele><time>2026-04-19T13:38:47Z</time></trkpt><trkpt lat="43.652553504830095" lon="11.872243329844258"><ele>393.0</ele><time>2026-04-19T13:38:48Z</time></trkpt><trkpt lat="43.65246429341105" lon="11.872100592138736"><ele>392.75</ele><time>2026-04-19T13:38:49Z</time></trkpt><trkpt lat="43.65235406329606" lon="11.87198720486225"><ele>392.5</ele><time>2026-04-19T13:38:50Z</time></trkpt><trkpt lat="43.65222254359977" lon="11.8719135139191"><ele>392.25</ele><time>2026-04-19T13:38:50.999Z</time></trkpt><trkpt lat="43.65209448785058" lon="11.871870916343285"><ele>392.0</ele><time>2026-04-19T13:38:51.999Z</time></trkpt><trkpt lat="43.65198273219765" lon="11.871813058495825"><ele>389.8</ele><time>2026-04-19T13:38:52.999Z</time></trkpt><trkpt lat="43.65190397583902" lon="11.871699123536184"><ele>387.6</ele><time>2026-04-19T13:38:53.999Z</time></trkpt><trkpt lat="43.65183086668183" lon="11.871589809738506"><ele>385.40000000000003</ele><time>2026-04-19T13:38:54.999Z</time></trkpt><trkpt lat="43.651803081209884" lon="11.8714476848387"><ele>383.20000000000005</ele><time>2026-04-19T13:38:55.999Z</time></trkpt><trkpt lat="43.65179735996216" lon="11.871305390392042"><ele>381.0</ele><time>2026-04-19T13:38:56.999Z</time></trkpt><trkpt lat="43.651813942535576" lon="11.871159817907383"><ele>381.0</ele><time>2026-04-19T13:38:57.999Z</time></trkpt><trkpt lat="43.6518539592853" lon="11.871021679524361"><ele>381.0</ele><time>2026-04-19T13:38:58.999Z</time></trkpt><trkpt lat="43.65190971985579" lon="11.870898582675075"><ele>381.0</ele><time>2026-04-19T13:38:59.999Z</time></trkpt><trkpt lat="43.6519702756478" lon="11.870780239546352"><ele>381.0</ele><time>2026-04-19T13:39:00.999Z</time></trkpt><trkpt lat="43.6520103297026" lon="11.870642084615387"><ele>381.0</ele><time>2026-04-19T13:39:01.999Z</time></trkpt><trkpt lat="43.65203954155992" lon="11.870483846564266"><ele>379.25</ele><time>2026-04-19T13:39:02.999Z</time></trkpt><trkpt lat="43.65206663554416" lon="11.870317673096066"><ele>377.5</ele><time>2026-04-19T13:39:03.999Z</time></trkpt><trkpt lat="43.65208861633671" lon="11.870146376348115"><ele>375.75</ele><time>2026-04-19T13:39:04.999Z</time></trkpt><trkpt lat="43.652103041975735" lon="11.869972365527227"><ele>374.0</ele><time>2026-04-19T13:39:05.999Z</time></trkpt><trkpt lat="43.65210563157042" lon="11.869786417422798"><ele>374.0</ele><time>2026-04-19T13:39:06.999Z</time></trkpt><trkpt lat="43.652092258297664" lon="11.869596375684615"><ele>374.0</ele><time>2026-04-19T13:39:07.999Z</time></trkpt><trkpt lat="43.65207025226083" lon="11.869407031241682"><ele>374.0</ele><time>2026-04-19T13:39:08.999Z</time></trkpt><trkpt lat="43.652043078145496" lon="11.869219971116367"><ele>374.0</ele><time>2026-04-19T13:39:09.999Z</time></trkpt><trkpt lat="43.65199891370738" lon="11.86904075214083"><ele>376.5</ele><time>2026-04-19T13:39:10.999Z</time></trkpt><trkpt lat="43.651938360894796" lon="11.86888035632799"><ele>379.0</ele><time>2026-04-19T13:39:11.999Z</time></trkpt><trkpt lat="43.651868347234526" lon="11.86872216338404"><ele>381.5</ele><time>2026-04-19T13:39:12.999Z</time></trkpt><trkpt lat="43.651799389910515" lon="11.868561947748395"><ele>384.0</ele><time>2026-04-19T13:39:13.999Z</time></trkpt><trkpt lat="43.65172819396492" lon="11.868397414293321"><ele>384.25</ele><time>2026-04-19T13:39:14.999Z</time></trkpt><trkpt lat="43.65166103587557" lon="11.86822801217837"><ele>384.5</ele><time>2026-04-19T13:39:15.999Z</time></trkpt><trkpt lat="43.65160274395035" lon="11.868055628775299"><ele>384.75</ele><time>2026-04-19T13:39:16.999Z</time></trkpt><trkpt lat="43.651566100905306" lon="11.867863411562567"><ele>385.0</ele><time>2026-04-19T13:39:17.999Z</time></trkpt><trkpt lat="43.651557823631336" lon="11.867661462343426"><ele>385.0</ele><time>2026-04-19T13:39:18.999Z</time></trkpt><trkpt lat="43.651578854791694" lon="11.867450785028142"><ele>385.0</ele><time>2026-04-19T13:39:19.999Z</time></trkpt><trkpt lat="43.65161312554362" lon="11.867260170625705"><ele>385.0</ele><time>2026-04-19T13:39:20.999Z</time></trkpt><trkpt lat="43.65164238395927" lon="11.867077137440532"><ele>385.0</ele><time>2026-04-19T13:39:21.999Z</time></trkpt><trkpt lat="43.65166437757453" lon="11.8668989642756"><ele>384.0</ele><time>2026-04-19T13:39:22.999Z</time></trkpt><trkpt lat="43.651687822061696" lon="11.86671888132094"><ele>383.0</ele><time>2026-04-19T13:39:23.999Z</time></trkpt><trkpt lat="43.65171078056944" lon="11.866530552120729"><ele>382.0</ele><time>2026-04-19T13:39:24.999Z</time></trkpt><trkpt lat="43.6517385166932" lon="11.866340882337555"><ele>381.0</ele><time>2026-04-19T13:39:25.999Z</time></trkpt><trkpt lat="43.65176563912781" lon="11.866155410946233"><ele>381.0</ele><time>2026-04-19T13:39:26.999Z</time></trkpt><trkpt lat="43.65179109274264" lon="11.865966329779503"><ele>381.0</ele><time>2026-04-19T13:39:27.999Z</time></trkpt><trkpt lat="43.651800282454055" lon="11.86577594434067"><ele>381.0</ele><time>2026-04-19T13:39:28.999Z</time></trkpt><trkpt lat="43.65177663908871" lon="11.865595922256745"><ele>381.0</ele><time>2026-04-19T13:39:29.999Z</time></trkpt><trkpt lat="43.65172245740378" lon="11.865416798030234"><ele>380.6666666666667</ele><time>2026-04-19T13:39:30.999Z</time></trkpt><trkpt lat="43.65163669175967" lon="11.865252501344147"><ele>380.33333333333337</ele><time>2026-04-19T13:39:31.999Z</time></trkpt><trkpt lat="43.65152758739634" lon="11.865095611242461"><ele>380.0</ele><time>2026-04-19T13:39:32.999Z</time></trkpt><trkpt lat="43.65141806046044" lon="11.864935012212817"><ele>379.6666666666667</ele><time>2026-04-19T13:39:33.999Z</time></trkpt><trkpt lat="43.6513146396239" lon="11.864774474461045"><ele>379.3333333333333</ele><time>2026-04-19T13:39:34.999Z</time></trkpt><trkpt lat="43.65121338016726" lon="11.864612529054924"><ele>379.0</ele><time>2026-04-19T13:39:35.999Z</time></trkpt><trkpt lat="43.65111350844606" lon="11.864453415849447"><ele>379.0</ele><time>2026-04-19T13:39:36.999Z</time></trkpt><trkpt lat="43.65101607394751" lon="11.864305692941395"><ele>379.0</ele><time>2026-04-19T13:39:37.999Z</time></trkpt><trkpt lat="43.65091928875677" lon="11.864161405334636"><ele>379.0</ele><time>2026-04-19T13:39:38.999Z</time></trkpt><trkpt lat="43.650829241962576" lon="11.864017960191727"><ele>379.0</ele><time>2026-04-19T13:39:39.999Z</time></trkpt><trkpt lat="43.65075658003269" lon="11.863868629914846"><ele>375.5</ele><time>2026-04-19T13:39:40.999Z</time></trkpt><trkpt lat="43.65070937374389" lon="11.863703403070387"><ele>372.0</ele><time>2026-04-19T13:39:41.999Z</time></trkpt><trkpt lat="43.65067972294888" lon="11.863542507605777"><ele>368.5</ele><time>2026-04-19T13:39:42.999Z</time></trkpt><trkpt lat="43.6506364629415" lon="11.863394880210855"><ele>365.0</ele><time>2026-04-19T13:39:43.999Z</time></trkpt><trkpt lat="43.650562970334285" lon="11.863274337203913"><ele>363.25</ele><time>2026-04-19T13:39:44.999Z</time></trkpt><trkpt lat="43.65046100692072" lon="11.863169831765743"><ele>361.5</ele><time>2026-04-19T13:39:45.999Z</time></trkpt><trkpt lat="43.65034765617905" lon="11.86308069826423"><ele>359.75</ele><time>2026-04-19T13:39:46.998Z</time></trkpt><trkpt lat="43.650240276612514" lon="11.862992430615499"><ele>358.0</ele><time>2026-04-19T13:39:47.998Z</time></trkpt><trkpt lat="43.65014413053404" lon="11.86289079029743"><ele>359.5</ele><time>2026-04-19T13:39:48.998Z</time></trkpt><trkpt lat="43.650054884487595" lon="11.862751267061268"><ele>361.0</ele><time>2026-04-19T13:39:49.998Z</time></trkpt><trkpt lat="43.6499793912171" lon="11.862577418619342"><ele>362.5</ele><time>2026-04-19T13:39:50.998Z</time></trkpt><trkpt lat="43.649922442345854" lon="11.862392309644902"><ele>364.0</ele><time>2026-04-19T13:39:51.998Z</time></trkpt><trkpt lat="43.649870876393535" lon="11.862196395329429"><ele>364.0</ele><time>2026-04-19T13:39:52.998Z</time></trkpt><trkpt lat="43.649824637624654" lon="11.861998749437676"><ele>364.0</ele><time>2026-04-19T13:39:53.998Z</time></trkpt><trkpt lat="43.64978344625469" lon="11.86180574295996"><ele>364.0</ele><time>2026-04-19T13:39:54.998Z</time></trkpt><trkpt lat="43.649744244323095" lon="11.861619975052808"><ele>364.0</ele><time>2026-04-19T13:39:55.998Z</time></trkpt><trkpt lat="43.64970735654646" lon="11.861438810581284"><ele>360.75</ele><time>2026-04-19T13:39:56.998Z</time></trkpt><trkpt lat="43.64967493313244" lon="11.861259994988469"><ele>357.5</ele><time>2026-04-19T13:39:57.998Z</time></trkpt><trkpt lat="43.64965028551096" lon="11.861078376222974"><ele>354.25</ele><time>2026-04-19T13:39:58.998Z</time></trkpt><trkpt lat="43.649641972966236" lon="11.860894638343094"><ele>351.0</ele><time>2026-04-19T13:39:59.998Z</time></trkpt><trkpt lat="43.649659710125036" lon="11.86071081484934"><ele>351.0</ele><time>2026-04-19T13:40:00.998Z</time></trkpt><trkpt lat="43.64969669345053" lon="11.860524815668624"><ele>351.0</ele><time>2026-04-19T13:40:01.998Z</time></trkpt><trkpt lat="43.64974822453382" lon="11.860337310829415"><ele>351.0</ele><time>2026-04-19T13:40:02.998Z</time></trkpt><trkpt lat="43.64980928599334" lon="11.86015397703823"><ele>351.0</ele><time>2026-04-19T13:40:03.998Z</time></trkpt><trkpt lat="43.64986191875808" lon="11.859959880633587"><ele>351.0</ele><time>2026-04-19T13:40:04.998Z</time></trkpt><trkpt lat="43.64989653337058" lon="11.859754012330926"><ele>351.0</ele><time>2026-04-19T13:40:05.998Z</time></trkpt><trkpt lat="43.64991756214819" lon="11.859559264738682"><ele>351.0</ele><time>2026-04-19T13:40:06.998Z</time></trkpt><trkpt lat="43.64993128777091" lon="11.859369284667705"><ele>351.0</ele><time>2026-04-19T13:40:07.998Z</time></trkpt><trkpt lat="43.64993009152337" lon="11.859178662273498"><ele>350.75</ele><time>2026-04-19T13:40:08.998Z</time></trkpt><trkpt lat="43.64991834071932" lon="11.85899029127498"><ele>350.5</ele><time>2026-04-19T13:40:09.998Z</time></trkpt><trkpt lat="43.649904568894335" lon="11.858820759327433"><ele>350.25</ele><time>2026-04-19T13:40:10.998Z</time></trkpt><trkpt lat="43.649897449313855" lon="11.85866958517985"><ele>350.0</ele><time>2026-04-19T13:40:11.998Z</time></trkpt><trkpt lat="43.649904308535895" lon="11.8585333849148"><ele>349.5</ele><time>2026-04-19T13:40:12.998Z</time></trkpt><trkpt lat="43.64993434972456" lon="11.858413071789293"><ele>349.0</ele><time>2026-04-19T13:40:13.998Z</time></trkpt><trkpt lat="43.649982402015645" lon="11.85831372526105"><ele>348.5</ele><time>2026-04-19T13:40:14.998Z</time></trkpt><trkpt lat="43.65004750876352" lon="11.858232036591549"><ele>348.0</ele><time>2026-04-19T13:40:15.998Z</time></trkpt><trkpt lat="43.65011905859326" lon="11.85817254086004"><ele>347.5</ele><time>2026-04-19T13:40:16.998Z</time></trkpt><trkpt lat="43.65018905698984" lon="11.858132620785607"><ele>347.0</ele><time>2026-04-19T13:40:17.998Z</time></trkpt><trkpt lat="43.650250259059646" lon="11.858064322964484"><ele>347.0</ele><time>2026-04-19T13:40:18.998Z</time></trkpt><trkpt lat="43.650289629838326" lon="11.857960033407847"><ele>347.0</ele><time>2026-04-19T13:40:19.998Z</time></trkpt><trkpt lat="43.650306340224226" lon="11.857833714555037"><ele>347.0</ele><time>2026-04-19T13:40:20.998Z</time></trkpt><trkpt lat="43.65031247496607" lon="11.857690639027213"><ele>347.0</ele><time>2026-04-19T13:40:21.998Z</time></trkpt><trkpt lat="43.65032314118593" lon="11.85753370422378"><ele>347.0</ele><time>2026-04-19T13:40:22.998Z</time></trkpt><trkpt lat="43.650350955911364" lon="11.857367662458962"><ele>353.75</ele><time>2026-04-19T13:40:24Z</time></trkpt><trkpt lat="43.650395581379456" lon="11.857196752747429"><ele>360.5</ele><time>2026-04-19T13:40:25Z</time></trkpt><trkpt lat="43.65044530375771" lon="11.85702775762215"><ele>367.25</ele><time>2026-04-19T13:40:26Z</time></trkpt><trkpt lat="43.65048913452967" lon="11.856848529483209"><ele>374.0</ele><time>2026-04-19T13:40:27Z</time></trkpt><trkpt lat="43.650517278301805" lon="11.856647998782831"><ele>374.0</ele><time>2026-04-19T13:40:28Z</time></trkpt><trkpt lat="43.650521531711064" lon="11.856435814942886"><ele>374.0</ele><time>2026-04-19T13:40:29Z</time></trkpt><trkpt lat="43.65050687182177" lon="11.85622298523335"><ele>374.0</ele><time>2026-04-19T13:40:30Z</time></trkpt><trkpt lat="43.65049039729256" lon="11.856023133697237"><ele>372.25</ele><time>2026-04-19T13:40:31Z</time></trkpt><trkpt lat="43.65047334809076" lon="11.855829733674657"><ele>370.5</ele><time>2026-04-19T13:40:32Z</time></trkpt><trkpt lat="43.650448569378916" lon="11.855639953038468"><ele>368.75</ele><time>2026-04-19T13:40:33Z</time></trkpt><trkpt lat="43.65041099832076" lon="11.855445823871388"><ele>367.0</ele><time>2026-04-19T13:40:34Z</time></trkpt><trkpt lat="43.65037109813198" lon="11.855247650193437"><ele>366.3333333333333</ele><time>2026-04-19T13:40:35Z</time></trkpt><trkpt lat="43.65034649234715" lon="11.85503370123974"><ele>365.6666666666667</ele><time>2026-04-19T13:40:36Z</time></trkpt><trkpt lat="43.65035769563626" lon="11.854804961381587"><ele>365.0</ele><time>2026-04-19T13:40:37Z</time></trkpt><trkpt lat="43.65039962803669" lon="11.854579274411401"><ele>365.0</ele><time>2026-04-19T13:40:38Z</time></trkpt><trkpt lat="43.650463912029174" lon="11.854365573907339"><ele>365.0</ele><time>2026-04-19T13:40:39Z</time></trkpt><trkpt lat="43.65054181894974" lon="11.85416516262309"><ele>365.0</ele><time>2026-04-19T13:40:40Z</time></trkpt><trkpt lat="43.65062641071205" lon="11.853979085362324"><ele>359.6666666666667</ele><time>2026-04-19T13:40:41Z</time></trkpt><trkpt lat="43.650706078264754" lon="11.853793201192282"><ele>354.3333333333333</ele><time>2026-04-19T13:40:42Z</time></trkpt><trkpt lat="43.65077762095274" lon="11.853604522559507"><ele>349.0</ele><time>2026-04-19T13:40:43Z</time></trkpt><trkpt lat="43.650852313338916" lon="11.853410339398462"><ele>345.66666666666663</ele><time>2026-04-19T13:40:44Z</time></trkpt><trkpt lat="43.65092724960218" lon="11.853216801769129"><ele>342.3333333333333</ele><time>2026-04-19T13:40:45Z</time></trkpt><trkpt lat="43.650999892125256" lon="11.853023428429553"><ele>339.0</ele><time>2026-04-19T13:40:46Z</time></trkpt><trkpt lat="43.651075883270806" lon="11.85282651935597"><ele>344.3333333333333</ele><time>2026-04-19T13:40:47Z</time></trkpt><trkpt lat="43.65115371898983" lon="11.852630182620944"><ele>349.66666666666663</ele><time>2026-04-19T13:40:48Z</time></trkpt><trkpt lat="43.65123732287271" lon="11.85243539452344"><ele>355.0</ele><time>2026-04-19T13:40:49Z</time></trkpt><trkpt lat="43.6513355141513" lon="11.852244586252441"><ele>355.0</ele><time>2026-04-19T13:40:50Z</time></trkpt><trkpt lat="43.65144672887182" lon="11.852057264553833"><ele>355.0</ele><time>2026-04-19T13:40:51Z</time></trkpt><trkpt lat="43.651553828521486" lon="11.851879737673588"><ele>355.0</ele><time>2026-04-19T13:40:52Z</time></trkpt><trkpt lat="43.651649343828915" lon="11.851695594916501"><ele>350.3333333333333</ele><time>2026-04-19T13:40:53Z</time></trkpt><trkpt lat="43.65173302493985" lon="11.851491712745089"><ele>345.6666666666667</ele><time>2026-04-19T13:40:54Z</time></trkpt><trkpt lat="43.651798394354934" lon="11.851273870546194"><ele>341.0</ele><time>2026-04-19T13:40:55Z</time></trkpt><trkpt lat="43.651847148051424" lon="11.85104665599096"><ele>339.33333333333337</ele><time>2026-04-19T13:40:56Z</time></trkpt><trkpt lat="43.65187178681277" lon="11.85081384125537"><ele>337.6666666666667</ele><time>2026-04-19T13:40:57Z</time></trkpt><trkpt lat="43.65188110023457" lon="11.850577191757829"><ele>336.0</ele><time>2026-04-19T13:40:58Z</time></trkpt><trkpt lat="43.65187981027672" lon="11.850347134762176"><ele>336.0</ele><time>2026-04-19T13:40:59Z</time></trkpt><trkpt lat="43.65186975274332" lon="11.850118589535743"><ele>336.0</ele><time>2026-04-19T13:41:00Z</time></trkpt><trkpt lat="43.65185353084997" lon="11.849893076186373"><ele>336.0</ele><time>2026-04-19T13:41:01Z</time></trkpt><trkpt lat="43.65183112935721" lon="11.849670079127325"><ele>336.0</ele><time>2026-04-19T13:41:02Z</time></trkpt><trkpt lat="43.651800240919385" lon="11.849452706768087"><ele>336.0</ele><time>2026-04-19T13:41:03Z</time></trkpt><trkpt lat="43.65176041980565" lon="11.849245321777284"><ele>336.0</ele><time>2026-04-19T13:41:04Z</time></trkpt><trkpt lat="43.65171612442173" lon="11.849054598208062"><ele>335.5</ele><time>2026-04-19T13:41:04.999Z</time></trkpt><trkpt lat="43.65167486357829" lon="11.848872770614836"><ele>335.0</ele><time>2026-04-19T13:41:05.999Z</time></trkpt><trkpt lat="43.651646121267746" lon="11.84869069967801"><ele>334.5</ele><time>2026-04-19T13:41:06.999Z</time></trkpt><trkpt lat="43.651644597663726" lon="11.848495954341566"><ele>334.0</ele><time>2026-04-19T13:41:07.999Z</time></trkpt><trkpt lat="43.65166460628035" lon="11.848306686942585"><ele>332.3333333333333</ele><time>2026-04-19T13:41:08.999Z</time></trkpt><trkpt lat="43.65171945010046" lon="11.848120128860598"><ele>330.6666666666667</ele><time>2026-04-19T13:41:09.999Z</time></trkpt><trkpt lat="43.65180419737634" lon="11.847941671954354"><ele>329.0</ele><time>2026-04-19T13:41:10.999Z</time></trkpt><trkpt lat="43.6518974539919" lon="11.847755041406279"><ele>330.0</ele><time>2026-04-19T13:41:11.999Z</time></trkpt><trkpt lat="43.65199388405222" lon="11.847544291239524"><ele>331.0</ele><time>2026-04-19T13:41:12.999Z</time></trkpt><trkpt lat="43.65211696868148" lon="11.847316883242987"><ele>332.0</ele><time>2026-04-19T13:41:13.999Z</time></trkpt><trkpt lat="43.65224934615758" lon="11.847049041781611"><ele>327.5</ele><time>2026-04-19T13:41:14.999Z</time></trkpt><trkpt lat="43.65237137655986" lon="11.846766147227582"><ele>323.0</ele><time>2026-04-19T13:41:15.999Z</time></trkpt><trkpt lat="43.652504955984114" lon="11.846524686945521"><ele>323.0</ele><time>2026-04-19T13:41:16.999Z</time></trkpt><trkpt lat="43.65262350322157" lon="11.846292072180374"><ele>323.0</ele><time>2026-04-19T13:41:17.999Z</time></trkpt><trkpt lat="43.65272352678468" lon="11.84604815705272"><ele>323.0</ele><time>2026-04-19T13:41:18.999Z</time></trkpt><trkpt lat="43.652799287358086" lon="11.845763303994863"><ele>324.33333333333337</ele><time>2026-04-19T13:41:19.999Z</time></trkpt><trkpt lat="43.65285331769529" lon="11.845451882562907"><ele>325.6666666666667</ele><time>2026-04-19T13:41:20.999Z</time></trkpt><trkpt lat="43.65289431909046" lon="11.84515765309618"><ele>327.0</ele><time>2026-04-19T13:41:21.999Z</time></trkpt><trkpt lat="43.6529363615253" lon="11.844886127821352"><ele>327.0</ele><time>2026-04-19T13:41:22.999Z</time></trkpt><trkpt lat="43.65298040276413" lon="11.844631411470125"><ele>327.0</ele><time>2026-04-19T13:41:23.999Z</time></trkpt><trkpt lat="43.65301903703191" lon="11.844381789525213"><ele>327.0</ele><time>2026-04-19T13:41:24.999Z</time></trkpt><trkpt lat="43.653055191003645" lon="11.84413112263679"><ele>326.0</ele><time>2026-04-19T13:41:25.999Z</time></trkpt><trkpt lat="43.65309353668651" lon="11.843883301151228"><ele>325.0</ele><time>2026-04-19T13:41:26.999Z</time></trkpt><trkpt lat="43.65313018910209" lon="11.84363919916628"><ele>324.0</ele><time>2026-04-19T13:41:27.999Z</time></trkpt><trkpt lat="43.65316028474271" lon="11.843403256993271"><ele>322.0</ele><time>2026-04-19T13:41:28.999Z</time></trkpt><trkpt lat="43.65318619660749" lon="11.84317093740646"><ele>320.0</ele><time>2026-04-19T13:41:29.999Z</time></trkpt><trkpt lat="43.6532125625523" lon="11.842938321539517"><ele>318.0</ele><time>2026-04-19T13:41:30.999Z</time></trkpt><trkpt lat="43.653239030418476" lon="11.84271027302719"><ele>317.5</ele><time>2026-04-19T13:41:31.999Z</time></trkpt><trkpt lat="43.653259559762866" lon="11.842498742004656"><ele>317.0</ele><time>2026-04-19T13:41:32.999Z</time></trkpt><trkpt lat="43.65328000335025" lon="11.842298673524402"><ele>316.5</ele><time>2026-04-19T13:41:33.999Z</time></trkpt><trkpt lat="43.65330110182847" lon="11.842117198333645"><ele>316.0</ele><time>2026-04-19T13:41:34.999Z</time></trkpt><trkpt lat="43.65331944206578" lon="11.841957289703187"><ele>316.0</ele><time>2026-04-19T13:41:35.999Z</time></trkpt><trkpt lat="43.65333296038459" lon="11.841821102559804"><ele>316.0</ele><time>2026-04-19T13:41:36.999Z</time></trkpt><trkpt lat="43.653344569749116" lon="11.841702010974963"><ele>316.0</ele><time>2026-04-19T13:41:37.999Z</time></trkpt><trkpt lat="43.65335819023917" lon="11.841599242879823"><ele>316.0</ele><time>2026-04-19T13:41:38.999Z</time></trkpt><trkpt lat="43.653377069652464" lon="11.841458145324223"><ele>316.0</ele><time>2026-04-19T13:41:40.999Z</time></trkpt><trkpt lat="43.653389498215056" lon="11.84135679974619"><ele>316.0</ele><time>2026-04-19T13:41:44.999Z</time></trkpt><trkpt lat="43.65340492416926" lon="11.841228438206446"><ele>315.8</ele><time>2026-04-19T13:42:06.998Z</time></trkpt><trkpt lat="43.65341323725128" lon="11.841052873350598"><ele>315.6</ele><time>2026-04-19T13:42:08.998Z</time></trkpt><trkpt lat="43.65341704052808" lon="11.840957547518967"><ele>315.4</ele><time>2026-04-19T13:42:09.998Z</time></trkpt><trkpt lat="43.65342357480873" lon="11.840851065412838"><ele>315.2</ele><time>2026-04-19T13:42:10.998Z</time></trkpt><trkpt lat="43.653437594486284" lon="11.840734358934524"><ele>315.0</ele><time>2026-04-19T13:42:11.998Z</time></trkpt><trkpt lat="43.653454739342955" lon="11.840609437140872"><ele>315.0</ele><time>2026-04-19T13:42:12.998Z</time></trkpt><trkpt lat="43.65347470189802" lon="11.840485452392993"><ele>315.0</ele><time>2026-04-19T13:42:13.998Z</time></trkpt><trkpt lat="43.65349336075574" lon="11.840359706397674"><ele>315.0</ele><time>2026-04-19T13:42:14.998Z</time></trkpt><trkpt lat="43.65350279100293" lon="11.840224131010713"><ele>315.0</ele><time>2026-04-19T13:42:15.998Z</time></trkpt><trkpt lat="43.653494670776944" lon="11.840082778532414"><ele>315.0</ele><time>2026-04-19T13:42:16.998Z</time></trkpt><trkpt lat="43.653469728964346" lon="11.839948655079333"><ele>314.2</ele><time>2026-04-19T13:42:17.998Z</time></trkpt><trkpt lat="43.65343344341072" lon="11.83982482805942"><ele>313.4</ele><time>2026-04-19T13:42:18.998Z</time></trkpt><trkpt lat="43.65339526510723" lon="11.839706822562333"><ele>312.6</ele><time>2026-04-19T13:42:19.998Z</time></trkpt><trkpt lat="43.65336657732178" lon="11.839590307100424"><ele>311.8</ele><time>2026-04-19T13:42:20.998Z</time></trkpt><trkpt lat="43.653363574992085" lon="11.839472499049627"><ele>311.0</ele><time>2026-04-19T13:42:21.998Z</time></trkpt><trkpt lat="43.65339457190305" lon="11.839355971523315"><ele>310.40000000000003</ele><time>2026-04-19T13:42:22.998Z</time></trkpt><trkpt lat="43.653455493437015" lon="11.839234739100874"><ele>309.8</ele><time>2026-04-19T13:42:23.998Z</time></trkpt><trkpt lat="43.65351369206839" lon="11.839106032924887"><ele>309.20000000000005</ele><time>2026-04-19T13:42:24.998Z</time></trkpt><trkpt lat="43.6535684900753" lon="11.838984002816897"><ele>308.6</ele><time>2026-04-19T13:42:25.998Z</time></trkpt><trkpt lat="43.653615751454986" lon="11.838877161516805"><ele>308.0</ele><time>2026-04-19T13:42:26.998Z</time></trkpt><trkpt lat="43.65366353763761" lon="11.83877565129156"><ele>308.0</ele><time>2026-04-19T13:42:27.998Z</time></trkpt><trkpt lat="43.653713641958376" lon="11.838672690765266"><ele>308.0</ele><time>2026-04-19T13:42:28.998Z</time></trkpt><trkpt lat="43.653764351867544" lon="11.838566827578276"><ele>308.0</ele><time>2026-04-19T13:42:30Z</time></trkpt><trkpt lat="43.65381704171645" lon="11.838470415028397"><ele>308.0</ele><time>2026-04-19T13:42:31Z</time></trkpt><trkpt lat="43.65386702080549" lon="11.838380096042316"><ele>308.0</ele><time>2026-04-19T13:42:32Z</time></trkpt><trkpt lat="43.65391981916333" lon="11.838292564858607"><ele>308.0</ele><time>2026-04-19T13:42:33Z</time></trkpt><trkpt lat="43.65398330919419" lon="11.838204543527777"><ele>307.83333333333337</ele><time>2026-04-19T13:42:34Z</time></trkpt><trkpt lat="43.65405390563936" lon="11.83811645198497"><ele>307.6666666666667</ele><time>2026-04-19T13:42:35Z</time></trkpt><trkpt lat="43.654129259638246" lon="11.83803541929256"><ele>307.5</ele><time>2026-04-19T13:42:36Z</time></trkpt><trkpt lat="43.654199384665354" lon="11.837965060948159"><ele>307.3333333333333</ele><time>2026-04-19T13:42:37Z</time></trkpt><trkpt lat="43.654260071784435" lon="11.837899344717998"><ele>307.16666666666663</ele><time>2026-04-19T13:42:38Z</time></trkpt><trkpt lat="43.654309453896815" lon="11.837843548134066"><ele>307.0</ele><time>2026-04-19T13:42:39Z</time></trkpt><trkpt lat="43.65437362073202" lon="11.837784668447185"><ele>307.0</ele><time>2026-04-19T13:42:41Z</time></trkpt><trkpt lat="43.6544265460855" lon="11.837685653052745"><ele>307.0</ele><time>2026-04-19T13:43:06Z</time></trkpt><trkpt lat="43.65433437273207" lon="11.837496495322291"><ele>307.0</ele><time>2026-04-19T13:43:09Z</time></trkpt><trkpt lat="43.654267667088725" lon="11.837435646024964"><ele>307.0</ele><time>2026-04-19T13:43:10Z</time></trkpt><trkpt lat="43.65419333066871" lon="11.83736899321911"><ele>307.0</ele><time>2026-04-19T13:43:11Z</time></trkpt><trkpt lat="43.65411547077924" lon="11.837298169813414"><ele>306.6</ele><time>2026-04-19T13:43:12Z</time></trkpt><trkpt lat="43.654039417071616" lon="11.837228177615783"><ele>306.2</ele><time>2026-04-19T13:43:13Z</time></trkpt><trkpt lat="43.653963520621254" lon="11.837155075151838"><ele>305.8</ele><time>2026-04-19T13:43:14Z</time></trkpt><trkpt lat="43.653882466729534" lon="11.837076051484722"><ele>305.4</ele><time>2026-04-19T13:43:15Z</time></trkpt><trkpt lat="43.653796420684124" lon="11.836994304355512"><ele>305.0</ele><time>2026-04-19T13:43:15.999Z</time></trkpt><trkpt lat="43.653703240964234" lon="11.836914262598732"><ele>305.0</ele><time>2026-04-19T13:43:16.999Z</time></trkpt><trkpt lat="43.65361448171037" lon="11.83680261795051"><ele>305.0</ele><time>2026-04-19T13:43:17.999Z</time></trkpt><trkpt lat="43.653502192478626" lon="11.836722938445206"><ele>305.0</ele><time>2026-04-19T13:43:18.999Z</time></trkpt><trkpt lat="43.65340002792651" lon="11.836621831101674"><ele>305.0</ele><time>2026-04-19T13:43:19.999Z</time></trkpt><trkpt lat="43.65329537014519" lon="11.8365189938978"><ele>305.0</ele><time>2026-04-19T13:43:20.999Z</time></trkpt><trkpt lat="43.65319619953179" lon="11.836420431312307"><ele>305.0</ele><time>2026-04-19T13:43:21.999Z</time></trkpt><trkpt lat="43.65309842791087" lon="11.8363306713167"><ele>305.0</ele><time>2026-04-19T13:43:22.999Z</time></trkpt><trkpt lat="43.65300516647384" lon="11.836240290760099"><ele>305.0</ele><time>2026-04-19T13:43:23.999Z</time></trkpt><trkpt lat="43.65291071905669" lon="11.836150072780212"><ele>305.0</ele><time>2026-04-19T13:43:24.999Z</time></trkpt><trkpt lat="43.65281180182678" lon="11.836063328015829"><ele>305.0</ele><time>2026-04-19T13:43:25.999Z</time></trkpt><trkpt lat="43.65271256909966" lon="11.835975809039544"><ele>305.0</ele><time>2026-04-19T13:43:26.999Z</time></trkpt><trkpt lat="43.65261138283512" lon="11.83589376775589"><ele>305.0</ele><time>2026-04-19T13:43:27.999Z</time></trkpt><trkpt lat="43.65251184564891" lon="11.835825139285602"><ele>305.5</ele><time>2026-04-19T13:43:28.999Z</time></trkpt><trkpt lat="43.65241749418472" lon="11.835764768684554"><ele>306.0</ele><time>2026-04-19T13:43:29.999Z</time></trkpt><trkpt lat="43.65233085002488" lon="11.835711642488906"><ele>306.5</ele><time>2026-04-19T13:43:30.999Z</time></trkpt><trkpt lat="43.652247519909096" lon="11.835665365581828"><ele>307.0</ele><time>2026-04-19T13:43:31.999Z</time></trkpt><trkpt lat="43.65216996390442" lon="11.83562982926327"><ele>307.5</ele><time>2026-04-19T13:43:32.999Z</time></trkpt><trkpt lat="43.65210057733917" lon="11.835598779177293"><ele>308.0</ele><time>2026-04-19T13:43:33.999Z</time></trkpt><trkpt lat="43.651992135036515" lon="11.83554867921035"><ele>307.6</ele><time>2026-04-19T13:43:35.999Z</time></trkpt><trkpt lat="43.65190544555768" lon="11.835492849784828"><ele>307.20000000000005</ele><time>2026-04-19T13:43:37.999Z</time></trkpt><trkpt lat="43.65184230176897" lon="11.835446426566483"><ele>306.8</ele><time>2026-04-19T13:43:38.999Z</time></trkpt><trkpt lat="43.65175642831887" lon="11.835410464735512"><ele>306.40000000000003</ele><time>2026-04-19T13:43:39.999Z</time></trkpt><trkpt lat="43.65165550056071" lon="11.835371803392896"><ele>306.0</ele><time>2026-04-19T13:43:40.999Z</time></trkpt><trkpt lat="43.651553129440515" lon="11.83532296498993"><ele>306.0</ele><time>2026-04-19T13:43:41.999Z</time></trkpt><trkpt lat="43.65144489947765" lon="11.83527537401607"><ele>306.0</ele><time>2026-04-19T13:43:42.999Z</time></trkpt><trkpt lat="43.651336517468984" lon="11.835224425817836"><ele>306.0</ele><time>2026-04-19T13:43:43.999Z</time></trkpt><trkpt lat="43.651236304477045" lon="11.835180768650442"><ele>306.0</ele><time>2026-04-19T13:43:44.999Z</time></trkpt><trkpt lat="43.65115274683449" lon="11.835141079662284"><ele>306.0</ele><time>2026-04-19T13:43:45.999Z</time></trkpt><trkpt lat="43.65108266616218" lon="11.835105651914834"><ele>305.5</ele><time>2026-04-19T13:43:46.999Z</time></trkpt><trkpt lat="43.65102839956799" lon="11.835059492508298"><ele>305.0</ele><time>2026-04-19T13:43:47.999Z</time></trkpt><trkpt lat="43.6509879295434" lon="11.8349762833377"><ele>304.5</ele><time>2026-04-19T13:43:48.999Z</time></trkpt><trkpt lat="43.65099318402874" lon="11.83484940000306"><ele>304.0</ele><time>2026-04-19T13:43:49.999Z</time></trkpt><trkpt lat="43.65099601859314" lon="11.834742888196216"><ele>303.5</ele><time>2026-04-19T13:43:50.999Z</time></trkpt><trkpt lat="43.651017179224404" lon="11.834610564135897"><ele>303.0</ele><time>2026-04-19T13:43:51.999Z</time></trkpt><trkpt lat="43.65103974131981" lon="11.83446690900116"><ele>303.0</ele><time>2026-04-19T13:43:52.999Z</time></trkpt><trkpt lat="43.65105150131844" lon="11.834297512924742"><ele>303.0</ele><time>2026-04-19T13:43:53.999Z</time></trkpt><trkpt lat="43.65106663959094" lon="11.834122044192867"><ele>303.0</ele><time>2026-04-19T13:43:54.999Z</time></trkpt><trkpt lat="43.65108075554468" lon="11.833950739715233"><ele>303.0</ele><time>2026-04-19T13:43:55.999Z</time></trkpt><trkpt lat="43.65109715041483" lon="11.833775683703712"><ele>303.0</ele><time>2026-04-19T13:43:56.999Z</time></trkpt><trkpt lat="43.65111774224473" lon="11.833606744926495"><ele>303.0</ele><time>2026-04-19T13:43:57.999Z</time></trkpt><trkpt lat="43.651143267013595" lon="11.833443095609587"><ele>303.0</ele><time>2026-04-19T13:43:58.999Z</time></trkpt><trkpt lat="43.65117321264643" lon="11.833280770747855"><ele>303.0</ele><time>2026-04-19T13:43:59.999Z</time></trkpt><trkpt lat="43.65120231443267" lon="11.833114069865434"><ele>303.4</ele><time>2026-04-19T13:44:00.999Z</time></trkpt><trkpt lat="43.6512278056362" lon="11.832958578616926"><ele>303.8</ele><time>2026-04-19T13:44:01.999Z</time></trkpt><trkpt lat="43.65125034287827" lon="11.832817951085797"><ele>304.2</ele><time>2026-04-19T13:44:02.999Z</time></trkpt><trkpt lat="43.651266710021815" lon="11.832688141922196"><ele>304.6</ele><time>2026-04-19T13:44:03.999Z</time></trkpt><trkpt lat="43.65128440593885" lon="11.832568098080525"><ele>305.0</ele><time>2026-04-19T13:44:04.999Z</time></trkpt><trkpt lat="43.65130022056315" lon="11.832459353495512"><ele>305.0</ele><time>2026-04-19T13:44:05.999Z</time></trkpt><trkpt lat="43.65131623774013" lon="11.83236005133195"><ele>305.0</ele><time>2026-04-19T13:44:06.999Z</time></trkpt><trkpt lat="43.651323369287404" lon="11.83226758901751"><ele>305.0</ele><time>2026-04-19T13:44:07.999Z</time></trkpt><trkpt lat="43.651280507861934" lon="11.832097017407806"><ele>305.0</ele><time>2026-04-19T13:44:09.999Z</time></trkpt><trkpt lat="43.65119514181101" lon="11.832054021298829"><ele>305.0</ele><time>2026-04-19T13:44:10.999Z</time></trkpt><trkpt lat="43.65110031852594" lon="11.832016874135881"><ele>304.0</ele><time>2026-04-19T13:44:11.999Z</time></trkpt><trkpt lat="43.650988818808585" lon="11.831993108558336"><ele>303.0</ele><time>2026-04-19T13:44:12.998Z</time></trkpt><trkpt lat="43.65086195809407" lon="11.831966016011377"><ele>302.0</ele><time>2026-04-19T13:44:13.998Z</time></trkpt><trkpt lat="43.65073684498051" lon="11.831943400152605"><ele>301.0</ele><time>2026-04-19T13:44:14.998Z</time></trkpt><trkpt lat="43.650610490752214" lon="11.83189314159816"><ele>301.0</ele><time>2026-04-19T13:44:15.998Z</time></trkpt><trkpt lat="43.65048335958137" lon="11.831864239736115"><ele>301.0</ele><time>2026-04-19T13:44:16.998Z</time></trkpt><trkpt lat="43.65036156140704" lon="11.831836550469315"><ele>301.0</ele><time>2026-04-19T13:44:17.998Z</time></trkpt><trkpt lat="43.650249920917105" lon="11.831811785466998"><ele>301.0</ele><time>2026-04-19T13:44:18.998Z</time></trkpt><trkpt lat="43.65014358263416" lon="11.831790550429169"><ele>302.75</ele><time>2026-04-19T13:44:19.998Z</time></trkpt><trkpt lat="43.650030764252044" lon="11.83177077989504"><ele>304.5</ele><time>2026-04-19T13:44:20.998Z</time></trkpt><trkpt lat="43.64991413868616" lon="11.831754961541751"><ele>306.25</ele><time>2026-04-19T13:44:21.998Z</time></trkpt><trkpt lat="43.64979342210687" lon="11.831737969387415"><ele>308.0</ele><time>2026-04-19T13:44:22.998Z</time></trkpt><trkpt lat="43.649669801563405" lon="11.83172103096709"><ele>308.0</ele><time>2026-04-19T13:44:23.998Z</time></trkpt><trkpt lat="43.64954488635686" lon="11.831695670646203"><ele>308.0</ele><time>2026-04-19T13:44:24.998Z</time></trkpt><trkpt lat="43.64942400209236" lon="11.831643621987611"><ele>308.0</ele><time>2026-04-19T13:44:25.998Z</time></trkpt><trkpt lat="43.649297750195814" lon="11.83156988324373"><ele>308.0</ele><time>2026-04-19T13:44:26.998Z</time></trkpt><trkpt lat="43.649169059840034" lon="11.831493500026506"><ele>306.75</ele><time>2026-04-19T13:44:27.998Z</time></trkpt><trkpt lat="43.64903068296833" lon="11.83143625005052"><ele>305.5</ele><time>2026-04-19T13:44:28.998Z</time></trkpt><trkpt lat="43.648900053768514" lon="11.831359952894891"><ele>304.25</ele><time>2026-04-19T13:44:29.998Z</time></trkpt><trkpt lat="43.648769087289544" lon="11.831284390445505"><ele>303.0</ele><time>2026-04-19T13:44:30.998Z</time></trkpt><trkpt lat="43.64864301092641" lon="11.83120977922912"><ele>302.25</ele><time>2026-04-19T13:44:31.998Z</time></trkpt><trkpt lat="43.648514826644316" lon="11.831138847320592"><ele>301.5</ele><time>2026-04-19T13:44:32.998Z</time></trkpt><trkpt lat="43.648374225133715" lon="11.831083646646375"><ele>300.75</ele><time>2026-04-19T13:44:33.998Z</time></trkpt><trkpt lat="43.648223636271425" lon="11.83105357982026"><ele>300.0</ele><time>2026-04-19T13:44:35Z</time></trkpt><trkpt lat="43.64807092103505" lon="11.831027024627092"><ele>300.0</ele><time>2026-04-19T13:44:36Z</time></trkpt><trkpt lat="43.64791528263417" lon="11.830996460631114"><ele>300.0</ele><time>2026-04-19T13:44:37Z</time></trkpt><trkpt lat="43.64776002093894" lon="11.83096339928316"><ele>300.0</ele><time>2026-04-19T13:44:38Z</time></trkpt><trkpt lat="43.647598801059814" lon="11.83093114910672"><ele>300.3333333333333</ele><time>2026-04-19T13:44:39Z</time></trkpt><trkpt lat="43.647439189193946" lon="11.830901840620605"><ele>300.66666666666663</ele><time>2026-04-19T13:44:40Z</time></trkpt><trkpt lat="43.64728410540067" lon="11.830869028385274"><ele>301.0</ele><time>2026-04-19T13:44:41Z</time></trkpt><trkpt lat="43.64712962814133" lon="11.830833057316415"><ele>301.0</ele><time>2026-04-19T13:44:42Z</time></trkpt><trkpt lat="43.64696863631317" lon="11.830800123038566"><ele>301.0</ele><time>2026-04-19T13:44:43Z</time></trkpt><trkpt lat="43.64680594058654" lon="11.830768872885605"><ele>301.0</ele><time>2026-04-19T13:44:44Z</time></trkpt><trkpt lat="43.64663461543859" lon="11.830734810074043"><ele>300.0</ele><time>2026-04-19T13:44:45Z</time></trkpt><trkpt lat="43.64645559720128" lon="11.830698491976047"><ele>299.0</ele><time>2026-04-19T13:44:46Z</time></trkpt><trkpt lat="43.646268580969725" lon="11.830662599266805"><ele>298.0</ele><time>2026-04-19T13:44:47Z</time></trkpt><trkpt lat="43.64607707179639" lon="11.83062517082221"><ele>298.0</ele><time>2026-04-19T13:44:48Z</time></trkpt><trkpt lat="43.645882285339994" lon="11.830585829880533"><ele>298.0</ele><time>2026-04-19T13:44:49Z</time></trkpt><trkpt lat="43.64568707393755" lon="11.830545857869396"><ele>298.0</ele><time>2026-04-19T13:44:50Z</time></trkpt><trkpt lat="43.645491391574986" lon="11.83047867272933"><ele>297.66666666666663</ele><time>2026-04-19T13:44:51Z</time></trkpt><trkpt lat="43.64529202472218" lon="11.830436109677963"><ele>297.3333333333333</ele><time>2026-04-19T13:44:52Z</time></trkpt><trkpt lat="43.645091739845334" lon="11.830411671187742"><ele>297.0</ele><time>2026-04-19T13:44:53Z</time></trkpt><trkpt lat="43.64489829448483" lon="11.830365091555521"><ele>297.0</ele><time>2026-04-19T13:44:54Z</time></trkpt><trkpt lat="43.64471658198513" lon="11.830323409336296"><ele>297.0</ele><time>2026-04-19T13:44:55Z</time></trkpt><trkpt lat="43.64454555365754" lon="11.830286653285546"><ele>297.0</ele><time>2026-04-19T13:44:56Z</time></trkpt><trkpt lat="43.64437529698807" lon="11.83027390689774"><ele>296.3333333333333</ele><time>2026-04-19T13:44:57Z</time></trkpt><trkpt lat="43.64420297241769" lon="11.83029888723064"><ele>295.66666666666663</ele><time>2026-04-19T13:44:58Z</time></trkpt><trkpt lat="43.64402610145064" lon="11.830350283267878"><ele>295.0</ele><time>2026-04-19T13:44:59Z</time></trkpt><trkpt lat="43.6438478179894" lon="11.830376298693833"><ele>295.0</ele><time>2026-04-19T13:45:00Z</time></trkpt><trkpt lat="43.643678727135864" lon="11.830438712818067"><ele>295.0</ele><time>2026-04-19T13:45:01Z</time></trkpt><trkpt lat="43.643517410643646" lon="11.830465312449114"><ele>295.0</ele><time>2026-04-19T13:45:02Z</time></trkpt><trkpt lat="43.64336510379496" lon="11.830464166447285"><ele>295.5</ele><time>2026-04-19T13:45:03Z</time></trkpt><trkpt lat="43.64323087188079" lon="11.830402501284112"><ele>296.0</ele><time>2026-04-19T13:45:04Z</time></trkpt><trkpt lat="43.643094909764386" lon="11.830348065608767"><ele>296.5</ele><time>2026-04-19T13:45:05Z</time></trkpt><trkpt lat="43.6429670904883" lon="11.830260260180966"><ele>297.0</ele><time>2026-04-19T13:45:06Z</time></trkpt><trkpt lat="43.6428375878538" lon="11.830197612946474"><ele>297.25</ele><time>2026-04-19T13:45:07Z</time></trkpt><trkpt lat="43.64270468957037" lon="11.83016154890906"><ele>297.5</ele><time>2026-04-19T13:45:08Z</time></trkpt><trkpt lat="43.64256032960344" lon="11.830166439452272"><ele>297.75</ele><time>2026-04-19T13:45:09Z</time></trkpt><trkpt lat="43.642403144966536" lon="11.830218360818606"><ele>298.0</ele><time>2026-04-19T13:45:10Z</time></trkpt><trkpt lat="43.642227413023626" lon="11.830282728582624"><ele>298.0</ele><time>2026-04-19T13:45:11Z</time></trkpt><trkpt lat="43.642036499400476" lon="11.830338807626447"><ele>298.0</ele><time>2026-04-19T13:45:12Z</time></trkpt><trkpt lat="43.64183877739" lon="11.830395081734459"><ele>298.0</ele><time>2026-04-19T13:45:13Z</time></trkpt><trkpt lat="43.64162902089904" lon="11.830453288823346"><ele>297.66666666666663</ele><time>2026-04-19T13:45:14Z</time></trkpt><trkpt lat="43.64141733161806" lon="11.830504368262783"><ele>297.3333333333333</ele><time>2026-04-19T13:45:15Z</time></trkpt><trkpt lat="43.6411999988146" lon="11.830540316780212"><ele>297.0</ele><time>2026-04-19T13:45:16Z</time></trkpt><trkpt lat="43.64098083246478" lon="11.830565319960977"><ele>296.3333333333333</ele><time>2026-04-19T13:45:17Z</time></trkpt><trkpt lat="43.640759269760544" lon="11.830581568083224"><ele>295.66666666666663</ele><time>2026-04-19T13:45:18Z</time></trkpt><trkpt lat="43.64053472031556" lon="11.830595805305643"><ele>295.0</ele><time>2026-04-19T13:45:19Z</time></trkpt><trkpt lat="43.64030781392659" lon="11.830614812069836"><ele>295.0</ele><time>2026-04-19T13:45:20Z</time></trkpt><trkpt lat="43.640083582586975" lon="11.83062962879049"><ele>295.0</ele><time>2026-04-19T13:45:21Z</time></trkpt><trkpt lat="43.639876853115595" lon="11.830642907163291"><ele>295.0</ele><time>2026-04-19T13:45:22Z</time></trkpt><trkpt lat="43.63969996831766" lon="11.830658435107624"><ele>295.0</ele><time>2026-04-19T13:45:23Z</time></trkpt><trkpt lat="43.6395479571133" lon="11.830685510666452"><ele>295.0</ele><time>2026-04-19T13:45:24Z</time></trkpt><trkpt lat="43.63941907766103" lon="11.830735580672513"><ele>295.0</ele><time>2026-04-19T13:45:25Z</time></trkpt><trkpt lat="43.639308584007" lon="11.830829668724501"><ele>295.0</ele><time>2026-04-19T13:45:26Z</time></trkpt><trkpt lat="43.63921770056948" lon="11.830972586780916"><ele>295.66666666666663</ele><time>2026-04-19T13:45:27Z</time></trkpt><trkpt lat="43.63914079176424" lon="11.831143671761462"><ele>296.3333333333333</ele><time>2026-04-19T13:45:28Z</time></trkpt><trkpt lat="43.639060593201194" lon="11.831321719342148"><ele>297.0</ele><time>2026-04-19T13:45:29Z</time></trkpt><trkpt lat="43.63895098409796" lon="11.831481759928126"><ele>297.0</ele><time>2026-04-19T13:45:30Z</time></trkpt><trkpt lat="43.63881700663818" lon="11.831628523120937"><ele>297.0</ele><time>2026-04-19T13:45:31Z</time></trkpt><trkpt lat="43.63866952559863" lon="11.831760792378072"><ele>297.0</ele><time>2026-04-19T13:45:32Z</time></trkpt><trkpt lat="43.63852418001199" lon="11.831900555063243"><ele>296.6666666666667</ele><time>2026-04-19T13:45:33Z</time></trkpt><trkpt lat="43.63838276009583" lon="11.832079961363496"><ele>296.33333333333337</ele><time>2026-04-19T13:45:34Z</time></trkpt><trkpt lat="43.63823792916655" lon="11.832290890527794"><ele>296.0</ele><time>2026-04-19T13:45:35Z</time></trkpt><trkpt lat="43.638095572986586" lon="11.832514791657674"><ele>296.0</ele><time>2026-04-19T13:45:35.999Z</time></trkpt><trkpt lat="43.63795947242954" lon="11.832726402214474"><ele>296.0</ele><time>2026-04-19T13:45:36.999Z</time></trkpt><trkpt lat="43.63782978429399" lon="11.832927569068813"><ele>296.0</ele><time>2026-04-19T13:45:37.999Z</time></trkpt><trkpt lat="43.63771223177544" lon="11.833116244774299"><ele>295.6666666666667</ele><time>2026-04-19T13:45:38.999Z</time></trkpt><trkpt lat="43.637601796827276" lon="11.83328449961409"><ele>295.3333333333333</ele><time>2026-04-19T13:45:39.999Z</time></trkpt><trkpt lat="43.637490348366896" lon="11.833436359764367"><ele>295.0</ele><time>2026-04-19T13:45:40.999Z</time></trkpt><trkpt lat="43.6373591828095" lon="11.833530941260635"><ele>295.0</ele><time>2026-04-19T13:45:41.999Z</time></trkpt><trkpt lat="43.63721427067149" lon="11.83360325097575"><ele>295.0</ele><time>2026-04-19T13:45:42.999Z</time></trkpt><trkpt lat="43.637051148193315" lon="11.83366900451651"><ele>295.0</ele><time>2026-04-19T13:45:43.999Z</time></trkpt><trkpt lat="43.63687151129525" lon="11.833714148019201"><ele>296.66666666666663</ele><time>2026-04-19T13:45:44.999Z</time></trkpt><trkpt lat="43.6366915722801" lon="11.83377104101628"><ele>298.3333333333333</ele><time>2026-04-19T13:45:45.999Z</time></trkpt><trkpt lat="43.63651166849018" lon="11.833831749913186"><ele>300.0</ele><time>2026-04-19T13:45:46.999Z</time></trkpt><trkpt lat="43.636334412102855" lon="11.833887614786168"><ele>300.0</ele><time>2026-04-19T13:45:47.999Z</time></trkpt><trkpt lat="43.6361563534534" lon="11.833951438168016"><ele>300.0</ele><time>2026-04-19T13:45:48.999Z</time></trkpt><trkpt lat="43.635978325290004" lon="11.834041056032216"><ele>300.0</ele><time>2026-04-19T13:45:49.999Z</time></trkpt><trkpt lat="43.63580034323804" lon="11.83414230135558"><ele>300.3333333333333</ele><time>2026-04-19T13:45:50.999Z</time></trkpt><trkpt lat="43.63562421657433" lon="11.83423976937125"><ele>300.66666666666663</ele><time>2026-04-19T13:45:51.999Z</time></trkpt><trkpt lat="43.63545235279913" lon="11.834336344472653"><ele>301.0</ele><time>2026-04-19T13:45:52.999Z</time></trkpt><trkpt lat="43.635292754387415" lon="11.834454466577263"><ele>301.0</ele><time>2026-04-19T13:45:53.999Z</time></trkpt><trkpt lat="43.635160231245564" lon="11.83459826328428"><ele>301.0</ele><time>2026-04-19T13:45:54.999Z</time></trkpt><trkpt lat="43.63504196951136" lon="11.834729587433884"><ele>301.0</ele><time>2026-04-19T13:45:55.999Z</time></trkpt><trkpt lat="43.63491954956416" lon="11.834835030310519"><ele>301.0</ele><time>2026-04-19T13:45:56.999Z</time></trkpt><trkpt lat="43.63478214457923" lon="11.834907790383072"><ele>301.0</ele><time>2026-04-19T13:45:57.999Z</time></trkpt><trkpt lat="43.63462121682256" lon="11.834955862758596"><ele>301.0</ele><time>2026-04-19T13:45:58.999Z</time></trkpt><trkpt lat="43.63445048466842" lon="11.83498987849612"><ele>301.3333333333333</ele><time>2026-04-19T13:45:59.999Z</time></trkpt><trkpt lat="43.6342665119044" lon="11.83500550339731"><ele>301.6666666666667</ele><time>2026-04-19T13:46:00.999Z</time></trkpt><trkpt lat="43.63407623384476" lon="11.835013793533307"><ele>302.0</ele><time>2026-04-19T13:46:01.999Z</time></trkpt><trkpt lat="43.63388378012581" lon="11.835003424789086"><ele>302.0</ele><time>2026-04-19T13:46:02.999Z</time></trkpt><trkpt lat="43.63370332600562" lon="11.83498301281574"><ele>302.0</ele><time>2026-04-19T13:46:03.999Z</time></trkpt><trkpt lat="43.63352928945774" lon="11.834963089100869"><ele>302.0</ele><time>2026-04-19T13:46:04.999Z</time></trkpt><trkpt lat="43.63336715127791" lon="11.83493887237907"><ele>302.0</ele><time>2026-04-19T13:46:05.999Z</time></trkpt><trkpt lat="43.63322498613956" lon="11.834882837710648"><ele>302.0</ele><time>2026-04-19T13:46:06.999Z</time></trkpt><trkpt lat="43.63310014305294" lon="11.83479352586994"><ele>302.0</ele><time>2026-04-19T13:46:07.999Z</time></trkpt><trkpt lat="43.632988103567996" lon="11.834667326025734"><ele>302.0</ele><time>2026-04-19T13:46:08.999Z</time></trkpt><trkpt lat="43.632881522900426" lon="11.834508208128522"><ele>301.33333333333337</ele><time>2026-04-19T13:46:09.999Z</time></trkpt><trkpt lat="43.6327686093218" lon="11.834338574926809"><ele>300.6666666666667</ele><time>2026-04-19T13:46:10.999Z</time></trkpt><trkpt lat="43.632642637439254" lon="11.834173819962201"><ele>300.0</ele><time>2026-04-19T13:46:11.999Z</time></trkpt><trkpt lat="43.63252723098238" lon="11.834020758441484"><ele>301.5</ele><time>2026-04-19T13:46:12.999Z</time></trkpt><trkpt lat="43.6324243822955" lon="11.833886207816239"><ele>303.0</ele><time>2026-04-19T13:46:13.999Z</time></trkpt><trkpt lat="43.632311314301255" lon="11.833765888279716"><ele>304.5</ele><time>2026-04-19T13:46:14.999Z</time></trkpt><trkpt lat="43.63217654407422" lon="11.833658103482026"><ele>306.0</ele><time>2026-04-19T13:46:15.999Z</time></trkpt><trkpt lat="43.63201563170112" lon="11.833578661035789"><ele>306.6666666666667</ele><time>2026-04-19T13:46:16.999Z</time></trkpt><trkpt lat="43.63183959211041" lon="11.833530275350057"><ele>307.33333333333337</ele><time>2026-04-19T13:46:17.999Z</time></trkpt><trkpt lat="43.63166537788236" lon="11.833488247589727"><ele>308.0</ele><time>2026-04-19T13:46:18.999Z</time></trkpt><trkpt lat="43.63149969027127" lon="11.83344473833974"><ele>308.0</ele><time>2026-04-19T13:46:19.999Z</time></trkpt><trkpt lat="43.631332629371165" lon="11.83339121626533"><ele>308.0</ele><time>2026-04-19T13:46:20.999Z</time></trkpt><trkpt lat="43.631167057976334" lon="11.833318744972571"><ele>308.0</ele><time>2026-04-19T13:46:21.999Z</time></trkpt><trkpt lat="43.631002663219355" lon="11.833223209748782"><ele>305.33333333333337</ele><time>2026-04-19T13:46:22.999Z</time></trkpt><trkpt lat="43.63083492319398" lon="11.833129613780772"><ele>302.6666666666667</ele><time>2026-04-19T13:46:23.999Z</time></trkpt><trkpt lat="43.63067630733611" lon="11.833032370776396"><ele>300.0</ele><time>2026-04-19T13:46:24.999Z</time></trkpt><trkpt lat="43.63052835624296" lon="11.832939439951877"><ele>300.0</ele><time>2026-04-19T13:46:25.999Z</time></trkpt><trkpt lat="43.63037576459184" lon="11.832875485235215"><ele>300.0</ele><time>2026-04-19T13:46:26.999Z</time></trkpt><trkpt lat="43.63022680622128" lon="11.832848386096364"><ele>300.0</ele><time>2026-04-19T13:46:27.999Z</time></trkpt><trkpt lat="43.63009271771953" lon="11.832818835092167"><ele>300.0</ele><time>2026-04-19T13:46:28.999Z</time></trkpt><trkpt lat="43.62997449676085" lon="11.832757169074954"><ele>300.75</ele><time>2026-04-19T13:46:29.999Z</time></trkpt><trkpt lat="43.62987333433714" lon="11.832651649015757"><ele>301.5</ele><time>2026-04-19T13:46:30.999Z</time></trkpt><trkpt lat="43.629786290842276" lon="11.832494448580716"><ele>302.25</ele><time>2026-04-19T13:46:31.999Z</time></trkpt><trkpt lat="43.62969482880915" lon="11.832319715263813"><ele>303.0</ele><time>2026-04-19T13:46:32.998Z</time></trkpt><trkpt lat="43.62958359646392" lon="11.832147828631527"><ele>302.0</ele><time>2026-04-19T13:46:33.998Z</time></trkpt><trkpt lat="43.62944576992647" lon="11.831980304061153"><ele>301.0</ele><time>2026-04-19T13:46:34.998Z</time></trkpt><trkpt lat="43.62928693397336" lon="11.831822576150115"><ele>300.0</ele><time>2026-04-19T13:46:35.998Z</time></trkpt><trkpt lat="43.62913701679491" lon="11.831679898920253"><ele>300.0</ele><time>2026-04-19T13:46:36.998Z</time></trkpt><trkpt lat="43.62899603935934" lon="11.831560540201608"><ele>300.0</ele><time>2026-04-19T13:46:37.998Z</time></trkpt><trkpt lat="43.62885081430216" lon="11.831463971082044"><ele>300.0</ele><time>2026-04-19T13:46:38.998Z</time></trkpt><trkpt lat="43.62869472026557" lon="11.831396259054017"><ele>299.6666666666667</ele><time>2026-04-19T13:46:40.001Z</time></trkpt><trkpt lat="43.628531034938824" lon="11.831354445337084"><ele>299.33333333333337</ele><time>2026-04-19T13:46:41.001Z</time></trkpt><trkpt lat="43.62835561298611" lon="11.831354269044024"><ele>299.0</ele><time>2026-04-19T13:46:42.001Z</time></trkpt><trkpt lat="43.62818690874581" lon="11.831383716134336"><ele>299.0</ele><time>2026-04-19T13:46:43.001Z</time></trkpt><trkpt lat="43.6280409835309" lon="11.831431380806853"><ele>299.0</ele><time>2026-04-19T13:46:44.001Z</time></trkpt><trkpt lat="43.62791208146358" lon="11.831468431378152"><ele>299.0</ele><time>2026-04-19T13:46:45.001Z</time></trkpt><trkpt lat="43.62779066733566" lon="11.831448801441839"><ele>299.0</ele><time>2026-04-19T13:46:46.001Z</time></trkpt><trkpt lat="43.627679993776326" lon="11.831372487975289"><ele>298.6666666666667</ele><time>2026-04-19T13:46:47.001Z</time></trkpt><trkpt lat="43.62757210983081" lon="11.831242644863575"><ele>298.3333333333333</ele><time>2026-04-19T13:46:48.001Z</time></trkpt><trkpt lat="43.6274616782627" lon="11.831084836719354"><ele>298.0</ele><time>2026-04-19T13:46:49.001Z</time></trkpt><trkpt lat="43.62733185514365" lon="11.830909364524285"><ele>298.0</ele><time>2026-04-19T13:46:50.001Z</time></trkpt><trkpt lat="43.6271952587281" lon="11.830726385649317"><ele>298.0</ele><time>2026-04-19T13:46:51.001Z</time></trkpt><trkpt lat="43.62705328858926" lon="11.830540740067132"><ele>298.0</ele><time>2026-04-19T13:46:52.001Z</time></trkpt><trkpt lat="43.62690943021474" lon="11.830353588244764"><ele>298.0</ele><time>2026-04-19T13:46:53.001Z</time></trkpt><trkpt lat="43.62677042764245" lon="11.830165674642135"><ele>298.0</ele><time>2026-04-19T13:46:54.001Z</time></trkpt><trkpt lat="43.62663850688562" lon="11.829983762484114"><ele>298.0</ele><time>2026-04-19T13:46:55Z</time></trkpt><trkpt lat="43.626512689747535" lon="11.829798352855246"><ele>299.66666666666663</ele><time>2026-04-19T13:46:56Z</time></trkpt><trkpt lat="43.62640256294272" lon="11.829588216277097"><ele>301.3333333333333</ele><time>2026-04-19T13:46:57Z</time></trkpt><trkpt lat="43.626325567253154" lon="11.82932744454987"><ele>303.0</ele><time>2026-04-19T13:46:58Z</time></trkpt><trkpt lat="43.62622371012768" lon="11.82905368193175"><ele>300.5</ele><time>2026-04-19T13:46:59Z</time></trkpt><trkpt lat="43.62612734924119" lon="11.828739437194978"><ele>298.0</ele><time>2026-04-19T13:47:00Z</time></trkpt><trkpt lat="43.62601537344463" lon="11.82840742489836"><ele>298.0</ele><time>2026-04-19T13:47:01Z</time></trkpt><trkpt lat="43.6259005885835" lon="11.828078062256512"><ele>298.0</ele><time>2026-04-19T13:47:02Z</time></trkpt><trkpt lat="43.62579296305406" lon="11.827773748769465"><ele>300.0</ele><time>2026-04-19T13:47:03Z</time></trkpt><trkpt lat="43.62569479978412" lon="11.827492769335558"><ele>302.0</ele><time>2026-04-19T13:47:04Z</time></trkpt><trkpt lat="43.625600484122586" lon="11.827230391622445"><ele>304.0</ele><time>2026-04-19T13:47:05Z</time></trkpt><trkpt lat="43.62551270388757" lon="11.826980931778367"><ele>303.0</ele><time>2026-04-19T13:47:06Z</time></trkpt><trkpt lat="43.6254285553524" lon="11.826733092934045"><ele>302.0</ele><time>2026-04-19T13:47:07Z</time></trkpt><trkpt lat="43.6253517424136" lon="11.826488137376458"><ele>301.0</ele><time>2026-04-19T13:47:08Z</time></trkpt><trkpt lat="43.6252843278476" lon="11.826233668178086"><ele>301.66666666666663</ele><time>2026-04-19T13:47:09Z</time></trkpt><trkpt lat="43.62523268766693" lon="11.825969128360422"><ele>302.3333333333333</ele><time>2026-04-19T13:47:10Z</time></trkpt><trkpt lat="43.625186284109745" lon="11.825700375734824"><ele>303.0</ele><time>2026-04-19T13:47:11Z</time></trkpt><trkpt lat="43.625140856756396" lon="11.825440290632978"><ele>303.0</ele><time>2026-04-19T13:47:12Z</time></trkpt><trkpt lat="43.625093373868765" lon="11.825179271357396"><ele>303.0</ele><time>2026-04-19T13:47:13Z</time></trkpt><trkpt lat="43.625044654199314" lon="11.824921633585198"><ele>303.0</ele><time>2026-04-19T13:47:14Z</time></trkpt><trkpt lat="43.6249968476974" lon="11.824666024328348"><ele>302.0</ele><time>2026-04-19T13:47:15Z</time></trkpt><trkpt lat="43.624949292728644" lon="11.824417354856747"><ele>301.0</ele><time>2026-04-19T13:47:16Z</time></trkpt><trkpt lat="43.624900807949714" lon="11.824175404267322"><ele>300.0</ele><time>2026-04-19T13:47:17Z</time></trkpt><trkpt lat="43.62485397404129" lon="11.82393398434299"><ele>300.0</ele><time>2026-04-19T13:47:18Z</time></trkpt><trkpt lat="43.62480068352506" lon="11.8236914525433"><ele>300.0</ele><time>2026-04-19T13:47:19Z</time></trkpt><trkpt lat="43.624733503616554" lon="11.823454095915043"><ele>300.0</ele><time>2026-04-19T13:47:20Z</time></trkpt><trkpt lat="43.62464596652605" lon="11.823224174186835"><ele>299.3333333333333</ele><time>2026-04-19T13:47:21Z</time></trkpt><trkpt lat="43.624546066356686" lon="11.822996817160089"><ele>298.66666666666663</ele><time>2026-04-19T13:47:22Z</time></trkpt><trkpt lat="43.62443994992699" lon="11.822774770445733"><ele>298.0</ele><time>2026-04-19T13:47:23Z</time></trkpt><trkpt lat="43.624327762701775" lon="11.822554961999533"><ele>299.3333333333333</ele><time>2026-04-19T13:47:24Z</time></trkpt><trkpt lat="43.62421720816418" lon="11.822332867980089"><ele>300.6666666666667</ele><time>2026-04-19T13:47:25Z</time></trkpt><trkpt lat="43.624108942045254" lon="11.82211070896839"><ele>302.0</ele><time>2026-04-19T13:47:26Z</time></trkpt><trkpt lat="43.62400369077739" lon="11.82189063085103"><ele>304.6666666666667</ele><time>2026-04-19T13:47:27Z</time></trkpt><trkpt lat="43.623894997428444" lon="11.821677512089193"><ele>307.3333333333333</ele><time>2026-04-19T13:47:28Z</time></trkpt><trkpt lat="43.623783015136546" lon="11.821465527174995"><ele>310.0</ele><time>2026-04-19T13:47:29Z</time></trkpt><trkpt lat="43.62366784946771" lon="11.821247628313094"><ele>309.66666666666663</ele><time>2026-04-19T13:47:30Z</time></trkpt><trkpt lat="43.623550446358685" lon="11.821024050714946"><ele>309.3333333333333</ele><time>2026-04-19T13:47:31Z</time></trkpt><trkpt lat="43.6234333073457" lon="11.82079785811962"><ele>309.0</ele><time>2026-04-19T13:47:32Z</time></trkpt><trkpt lat="43.623315610997565" lon="11.820568523709294"><ele>309.0</ele><time>2026-04-19T13:47:33Z</time></trkpt><trkpt lat="43.62319644051445" lon="11.820334904113848"><ele>309.0</ele><time>2026-04-19T13:47:34Z</time></trkpt><trkpt lat="43.62307540826208" lon="11.820099614738059"><ele>309.0</ele><time>2026-04-19T13:47:35Z</time></trkpt><trkpt lat="43.622956658279996" lon="11.819861046515593"><ele>309.0</ele><time>2026-04-19T13:47:36Z</time></trkpt><trkpt lat="43.62283986981213" lon="11.81962384522202"><ele>309.0</ele><time>2026-04-19T13:47:37Z</time></trkpt><trkpt lat="43.622720655294586" lon="11.819385481059111"><ele>309.0</ele><time>2026-04-19T13:47:38Z</time></trkpt><trkpt lat="43.62260390366698" lon="11.819147892870857"><ele>309.0</ele><time>2026-04-19T13:47:39Z</time></trkpt><trkpt lat="43.622487542914364" lon="11.818912351096852"><ele>309.0</ele><time>2026-04-19T13:47:40Z</time></trkpt><trkpt lat="43.622371767398775" lon="11.818678242200109"><ele>309.0</ele><time>2026-04-19T13:47:41Z</time></trkpt><trkpt lat="43.62225292767115" lon="11.818449817258273"><ele>309.3333333333333</ele><time>2026-04-19T13:47:42Z</time></trkpt><trkpt lat="43.622122228556755" lon="11.818234323152632"><ele>309.66666666666663</ele><time>2026-04-19T13:47:43Z</time></trkpt><trkpt lat="43.62198343919685" lon="11.81803434857868"><ele>310.0</ele><time>2026-04-19T13:47:44Z</time></trkpt><trkpt lat="43.62184043752062" lon="11.817853402367895"><ele>310.3333333333333</ele><time>2026-04-19T13:47:44.999Z</time></trkpt><trkpt lat="43.621707493572195" lon="11.817687025564366"><ele>310.6666666666667</ele><time>2026-04-19T13:47:45.999Z</time></trkpt><trkpt lat="43.62158448693753" lon="11.817527122409855"><ele>311.0</ele><time>2026-04-19T13:47:46.999Z</time></trkpt><trkpt lat="43.62146916891336" lon="11.817379914532896"><ele>311.0</ele><time>2026-04-19T13:47:47.999Z</time></trkpt><trkpt lat="43.62135995482464" lon="11.817241221390466"><ele>311.0</ele><time>2026-04-19T13:47:48.999Z</time></trkpt><trkpt lat="43.62126153573143" lon="11.817109546630755"><ele>311.0</ele><time>2026-04-19T13:47:49.999Z</time></trkpt><trkpt lat="43.62116691636745" lon="11.816988842475034"><ele>311.0</ele><time>2026-04-19T13:47:50.999Z</time></trkpt><trkpt lat="43.621070887909276" lon="11.816865457170882"><ele>311.25</ele><time>2026-04-19T13:47:51.999Z</time></trkpt><trkpt lat="43.6209742222214" lon="11.816742596330796"><ele>311.5</ele><time>2026-04-19T13:47:52.999Z</time></trkpt><trkpt lat="43.62087799933217" lon="11.816619808676387"><ele>311.75</ele><time>2026-04-19T13:47:53.999Z</time></trkpt><trkpt lat="43.620787436202946" lon="11.816505325620426"><ele>312.0</ele><time>2026-04-19T13:47:54.999Z</time></trkpt><trkpt lat="43.62070438379434" lon="11.816399369385287"><ele>312.0</ele><time>2026-04-19T13:47:55.999Z</time></trkpt><trkpt lat="43.62062788238653" lon="11.816301082144596"><ele>312.0</ele><time>2026-04-19T13:47:56.999Z</time></trkpt><trkpt lat="43.620555830994164" lon="11.816207093703369"><ele>312.0</ele><time>2026-04-19T13:47:57.999Z</time></trkpt><trkpt lat="43.62049390834873" lon="11.816125408877824"><ele>312.0</ele><time>2026-04-19T13:47:58.999Z</time></trkpt><trkpt lat="43.62043729931125" lon="11.816048065665301"><ele>312.0</ele><time>2026-04-19T13:47:59.999Z</time></trkpt><trkpt lat="43.62038328510541" lon="11.81597967997613"><ele>312.0</ele><time>2026-04-19T13:48:00.998Z</time></trkpt><trkpt lat="43.62032693545905" lon="11.8159136681998"><ele>312.0</ele><time>2026-04-19T13:48:01.998Z</time></trkpt><trkpt lat="43.62026800704736" lon="11.815839280066985"><ele>312.0</ele><time>2026-04-19T13:48:02.998Z</time></trkpt><trkpt lat="43.62019925079595" lon="11.81575108007623"><ele>312.0</ele><time>2026-04-19T13:48:03.998Z</time></trkpt><trkpt lat="43.62011999506528" lon="11.815647645168928"><ele>312.0</ele><time>2026-04-19T13:48:04.998Z</time></trkpt><trkpt lat="43.62002689190995" lon="11.815529269167229"><ele>312.0</ele><time>2026-04-19T13:48:05.998Z</time></trkpt><trkpt lat="43.61992866180136" lon="11.815404564630423"><ele>312.0</ele><time>2026-04-19T13:48:06.998Z</time></trkpt><trkpt lat="43.61982066836389" lon="11.815268346672443"><ele>312.0</ele><time>2026-04-19T13:48:07.998Z</time></trkpt><trkpt lat="43.61970425052292" lon="11.815125299376177"><ele>312.0</ele><time>2026-04-19T13:48:08.998Z</time></trkpt><trkpt lat="43.61959436245399" lon="11.814987054865027"><ele>312.25</ele><time>2026-04-19T13:48:09.998Z</time></trkpt><trkpt lat="43.61949155644791" lon="11.814852953413597"><ele>312.5</ele><time>2026-04-19T13:48:10.998Z</time></trkpt><trkpt lat="43.61938561470674" lon="11.814715718877299"><ele>312.75</ele><time>2026-04-19T13:48:11.998Z</time></trkpt><trkpt lat="43.61927991884226" lon="11.814580302790887"><ele>313.0</ele><time>2026-04-19T13:48:12.998Z</time></trkpt><trkpt lat="43.61917100416691" lon="11.814442652218526"><ele>314.0</ele><time>2026-04-19T13:48:13.998Z</time></trkpt><trkpt lat="43.61906321761564" lon="11.814304806068705"><ele>315.0</ele><time>2026-04-19T13:48:14.998Z</time></trkpt><trkpt lat="43.61896520817169" lon="11.814148809258048"><ele>316.0</ele><time>2026-04-19T13:48:15.998Z</time></trkpt><trkpt lat="43.618844882276285" lon="11.814025252881331"><ele>317.0</ele><time>2026-04-19T13:48:16.998Z</time></trkpt><trkpt lat="43.61873566127063" lon="11.813883296205148"><ele>317.25</ele><time>2026-04-19T13:48:17.998Z</time></trkpt><trkpt lat="43.61862630292416" lon="11.813745189507571"><ele>317.5</ele><time>2026-04-19T13:48:18.998Z</time></trkpt><trkpt lat="43.61852264735537" lon="11.81361339393646"><ele>317.75</ele><time>2026-04-19T13:48:19.998Z</time></trkpt><trkpt lat="43.61842442334654" lon="11.813488867805575"><ele>318.0</ele><time>2026-04-19T13:48:20.998Z</time></trkpt><trkpt lat="43.61834306814635" lon="11.813352230409725"><ele>318.0</ele><time>2026-04-19T13:48:21.998Z</time></trkpt><trkpt lat="43.61825782118287" lon="11.81324028020211"><ele>318.0</ele><time>2026-04-19T13:48:22.998Z</time></trkpt><trkpt lat="43.61816230138709" lon="11.813148093126294"><ele>318.0</ele><time>2026-04-19T13:48:23.998Z</time></trkpt><trkpt lat="43.618083279251195" lon="11.813033682541493"><ele>318.0</ele><time>2026-04-19T13:48:24.998Z</time></trkpt><trkpt lat="43.61801971539533" lon="11.812902972641307"><ele>318.0</ele><time>2026-04-19T13:48:25.998Z</time></trkpt><trkpt lat="43.617971755103156" lon="11.812741701074989"><ele>318.0</ele><time>2026-04-19T13:48:26.998Z</time></trkpt><trkpt lat="43.61792352442584" lon="11.81258431310669"><ele>318.0</ele><time>2026-04-19T13:48:27.998Z</time></trkpt><trkpt lat="43.61787564847155" lon="11.812403056379235"><ele>318.0</ele><time>2026-04-19T13:48:28.998Z</time></trkpt><trkpt lat="43.617821299421585" lon="11.812221852359672"><ele>317.6666666666667</ele><time>2026-04-19T13:48:29.998Z</time></trkpt><trkpt lat="43.617768248531604" lon="11.812037813099662"><ele>317.33333333333337</ele><time>2026-04-19T13:48:30.998Z</time></trkpt><trkpt lat="43.617657674713044" lon="11.811874652086352"><ele>317.0</ele><time>2026-04-19T13:48:31.998Z</time></trkpt><trkpt lat="43.61753663236131" lon="11.81170291784679"><ele>317.0</ele><time>2026-04-19T13:48:32.998Z</time></trkpt><trkpt lat="43.61740036327089" lon="11.81154261853691"><ele>317.0</ele><time>2026-04-19T13:48:33.998Z</time></trkpt><trkpt lat="43.61727423292661" lon="11.8114034551547"><ele>317.0</ele><time>2026-04-19T13:48:34.998Z</time></trkpt><trkpt lat="43.61716081176514" lon="11.811275799912762"><ele>317.0</ele><time>2026-04-19T13:48:35.998Z</time></trkpt><trkpt lat="43.617054544564056" lon="11.811154880234461"><ele>317.0</ele><time>2026-04-19T13:48:36.998Z</time></trkpt><trkpt lat="43.616903528607736" lon="11.811118779558663"><ele>317.0</ele><time>2026-04-19T13:48:37.998Z</time></trkpt><trkpt lat="43.61675538086524" lon="11.811056671391231"><ele>317.0</ele><time>2026-04-19T13:48:38.998Z</time></trkpt><trkpt lat="43.616604370337015" lon="11.81101512763086"><ele>316.25</ele><time>2026-04-19T13:48:39.998Z</time></trkpt><trkpt lat="43.61645535897231" lon="11.810964050183282"><ele>315.5</ele><time>2026-04-19T13:48:40.997Z</time></trkpt><trkpt lat="43.61631149989279" lon="11.810916809976346"><ele>314.75</ele><time>2026-04-19T13:48:41.997Z</time></trkpt><trkpt lat="43.61618159898669" lon="11.810821686258123"><ele>314.0</ele><time>2026-04-19T13:48:42.997Z</time></trkpt><trkpt lat="43.61605830715839" lon="11.81070106827526"><ele>314.0</ele><time>2026-04-19T13:48:43.997Z</time></trkpt><trkpt lat="43.615954183950414" lon="11.810568395225557"><ele>314.0</ele><time>2026-04-19T13:48:44.997Z</time></trkpt><trkpt lat="43.615884274664005" lon="11.810395480420144"><ele>314.0</ele><time>2026-04-19T13:48:46Z</time></trkpt><trkpt lat="43.615817703377" lon="11.810213184952127"><ele>314.0</ele><time>2026-04-19T13:48:47Z</time></trkpt><trkpt lat="43.61573600009292" lon="11.81002441894764"><ele>315.6666666666667</ele><time>2026-04-19T13:48:48Z</time></trkpt><trkpt lat="43.61567113363412" lon="11.809827263221807"><ele>317.3333333333333</ele><time>2026-04-19T13:48:49Z</time></trkpt><trkpt lat="43.6156026633265" lon="11.809630372504241"><ele>319.0</ele><time>2026-04-19T13:48:50Z</time></trkpt><trkpt lat="43.61553452363005" lon="11.809428362428006"><ele>321.3333333333333</ele><time>2026-04-19T13:48:51Z</time></trkpt><trkpt lat="43.6154777786051" lon="11.809210206136717"><ele>323.6666666666667</ele><time>2026-04-19T13:48:52Z</time></trkpt><trkpt lat="43.61542714753748" lon="11.808968672062639"><ele>326.0</ele><time>2026-04-19T13:48:53Z</time></trkpt><trkpt lat="43.615383665082604" lon="11.808717264003931"><ele>326.0</ele><time>2026-04-19T13:48:54Z</time></trkpt><trkpt lat="43.61535241532717" lon="11.808497374109532"><ele>326.0</ele><time>2026-04-19T13:48:55Z</time></trkpt><trkpt lat="43.61532528157178" lon="11.808290922112999"><ele>326.0</ele><time>2026-04-19T13:48:56Z</time></trkpt><trkpt lat="43.61529876775237" lon="11.808099675596829"><ele>323.75</ele><time>2026-04-19T13:48:57Z</time></trkpt><trkpt lat="43.61527369580564" lon="11.807916447175705"><ele>321.5</ele><time>2026-04-19T13:48:58Z</time></trkpt><trkpt lat="43.61524753492171" lon="11.807736067164896"><ele>319.25</ele><time>2026-04-19T13:48:59Z</time></trkpt><trkpt lat="43.61522119736656" lon="11.807550378983716"><ele>317.0</ele><time>2026-04-19T13:49:00Z</time></trkpt><trkpt lat="43.61519261375025" lon="11.807357571880079"><ele>317.0</ele><time>2026-04-19T13:49:01Z</time></trkpt><trkpt lat="43.61516149918505" lon="11.807153762226251"><ele>317.0</ele><time>2026-04-19T13:49:02Z</time></trkpt><trkpt lat="43.61512096015643" lon="11.806935507133996"><ele>317.0</ele><time>2026-04-19T13:49:03Z</time></trkpt><trkpt lat="43.61506462011321" lon="11.806702154152525"><ele>317.6666666666667</ele><time>2026-04-19T13:49:04Z</time></trkpt><trkpt lat="43.615003220177265" lon="11.806447621796375"><ele>318.3333333333333</ele><time>2026-04-19T13:49:05Z</time></trkpt><trkpt lat="43.61494347174297" lon="11.806190930487672"><ele>319.0</ele><time>2026-04-19T13:49:06Z</time></trkpt><trkpt lat="43.61488287518583" lon="11.805931897903516"><ele>321.3333333333333</ele><time>2026-04-19T13:49:06.999Z</time></trkpt><trkpt lat="43.61482249458102" lon="11.805660814552326"><ele>323.6666666666667</ele><time>2026-04-19T13:49:07.999Z</time></trkpt><trkpt lat="43.61476632152168" lon="11.805373077155286"><ele>326.0</ele><time>2026-04-19T13:49:08.999Z</time></trkpt><trkpt lat="43.614710474859635" lon="11.805073297644896"><ele>329.5</ele><time>2026-04-19T13:49:09.999Z</time></trkpt><trkpt lat="43.61465335758575" lon="11.804772328456222"><ele>333.0</ele><time>2026-04-19T13:49:10.999Z</time></trkpt><trkpt lat="43.614593374099236" lon="11.804470912024408"><ele>334.0</ele><time>2026-04-19T13:49:11.999Z</time></trkpt><trkpt lat="43.61453173409138" lon="11.804173129041613"><ele>335.0</ele><time>2026-04-19T13:49:12.999Z</time></trkpt><trkpt lat="43.61446537868394" lon="11.803879221468028"><ele>336.0</ele><time>2026-04-19T13:49:13.999Z</time></trkpt><trkpt lat="43.61439881844464" lon="11.80358700812168"><ele>331.3333333333333</ele><time>2026-04-19T13:49:14.999Z</time></trkpt><trkpt lat="43.614339571130834" lon="11.803309006974038"><ele>326.66666666666663</ele><time>2026-04-19T13:49:15.999Z</time></trkpt><trkpt lat="43.61428934445522" lon="11.803057956008388"><ele>322.0</ele><time>2026-04-19T13:49:16.999Z</time></trkpt><trkpt lat="43.61424829625373" lon="11.802830208584902"><ele>323.0</ele><time>2026-04-19T13:49:17.999Z</time></trkpt><trkpt lat="43.61421922416163" lon="11.802590131825612"><ele>324.0</ele><time>2026-04-19T13:49:18.999Z</time></trkpt><trkpt lat="43.61420871181607" lon="11.802338732319424"><ele>325.0</ele><time>2026-04-19T13:49:19.999Z</time></trkpt><trkpt lat="43.61419848813342" lon="11.802072664327495"><ele>325.66666666666663</ele><time>2026-04-19T13:49:20.999Z</time></trkpt><trkpt lat="43.61417726886706" lon="11.801802077565823"><ele>326.3333333333333</ele><time>2026-04-19T13:49:21.999Z</time></trkpt><trkpt lat="43.61415641732595" lon="11.801537875015763"><ele>327.0</ele><time>2026-04-19T13:49:22.999Z</time></trkpt><trkpt lat="43.614139568173975" lon="11.80129299293202"><ele>327.0</ele><time>2026-04-19T13:49:23.999Z</time></trkpt><trkpt lat="43.61411833645877" lon="11.801051606033248"><ele>327.0</ele><time>2026-04-19T13:49:24.999Z</time></trkpt><trkpt lat="43.61407643528935" lon="11.80080551070898"><ele>327.0</ele><time>2026-04-19T13:49:25.999Z</time></trkpt><trkpt lat="43.61400927224006" lon="11.800549102776865"><ele>329.0</ele><time>2026-04-19T13:49:26.999Z</time></trkpt><trkpt lat="43.6139353374454" lon="11.800290856548115"><ele>331.0</ele><time>2026-04-19T13:49:27.999Z</time></trkpt><trkpt lat="43.61386944740427" lon="11.800052654472228"><ele>333.0</ele><time>2026-04-19T13:49:28.999Z</time></trkpt><trkpt lat="43.61380753272671" lon="11.799834227142055"><ele>333.3333333333333</ele><time>2026-04-19T13:49:29.999Z</time></trkpt><trkpt lat="43.61375043476907" lon="11.799620979916407"><ele>333.66666666666663</ele><time>2026-04-19T13:49:30.999Z</time></trkpt><trkpt lat="43.61370070923498" lon="11.799392934985496"><ele>334.0</ele><time>2026-04-19T13:49:31.999Z</time></trkpt><trkpt lat="43.61366464342133" lon="11.799144842611177"><ele>330.66666666666663</ele><time>2026-04-19T13:49:32.999Z</time></trkpt><trkpt lat="43.613647981953264" lon="11.79888438412386"><ele>327.3333333333333</ele><time>2026-04-19T13:49:33.999Z</time></trkpt><trkpt lat="43.61365200693112" lon="11.79862698641298"><ele>324.0</ele><time>2026-04-19T13:49:34.999Z</time></trkpt><trkpt lat="43.613651738632946" lon="11.798363176998478"><ele>324.0</ele><time>2026-04-19T13:49:35.999Z</time></trkpt><trkpt lat="43.61365329717856" lon="11.798096277728009"><ele>324.0</ele><time>2026-04-19T13:49:36.999Z</time></trkpt><trkpt lat="43.61365637576898" lon="11.797835515437272"><ele>324.0</ele><time>2026-04-19T13:49:37.999Z</time></trkpt><trkpt lat="43.613657509266034" lon="11.797584340034179"><ele>330.5</ele><time>2026-04-19T13:49:38.999Z</time></trkpt><trkpt lat="43.6136574655053" lon="11.797358888234884"><ele>337.0</ele><time>2026-04-19T13:49:39.999Z</time></trkpt><trkpt lat="43.613658789182416" lon="11.797154294022231"><ele>343.5</ele><time>2026-04-19T13:49:40.999Z</time></trkpt><trkpt lat="43.61366136892976" lon="11.79697216707912"><ele>350.0</ele><time>2026-04-19T13:49:41.999Z</time></trkpt><trkpt lat="43.61366464217043" lon="11.796806620679684"><ele>345.75</ele><time>2026-04-19T13:49:42.999Z</time></trkpt><trkpt lat="43.613644870790786" lon="11.796640547293004"><ele>341.5</ele><time>2026-04-19T13:49:43.999Z</time></trkpt><trkpt lat="43.61359362302246" lon="11.796475921312242"><ele>337.25</ele><time>2026-04-19T13:49:44.999Z</time></trkpt><trkpt lat="43.61354993636534" lon="11.796306361872759"><ele>333.0</ele><time>2026-04-19T13:49:45.999Z</time></trkpt><trkpt lat="43.613557050077425" lon="11.796122964386777"><ele>333.5</ele><time>2026-04-19T13:49:46.999Z</time></trkpt><trkpt lat="43.613548140354126" lon="11.795919576157058"><ele>334.0</ele><time>2026-04-19T13:49:47.999Z</time></trkpt><trkpt lat="43.61356378324705" lon="11.79573530164161"><ele>334.5</ele><time>2026-04-19T13:49:48.999Z</time></trkpt><trkpt lat="43.61358683488319" lon="11.795578149786714"><ele>335.0</ele><time>2026-04-19T13:49:49.999Z</time></trkpt><trkpt lat="43.61361560532925" lon="11.795440824593346"><ele>335.0</ele><time>2026-04-19T13:49:50.999Z</time></trkpt><trkpt lat="43.61361637615998" lon="11.795321681375906"><ele>335.0</ele><time>2026-04-19T13:49:51.999Z</time></trkpt><trkpt lat="43.61358170852523" lon="11.795215871660181"><ele>335.0</ele><time>2026-04-19T13:49:52.999Z</time></trkpt><trkpt lat="43.61351844072778" lon="11.795127539487579"><ele>335.0</ele><time>2026-04-19T13:49:53.999Z</time></trkpt><trkpt lat="43.61343413193998" lon="11.795058392956566"><ele>335.0</ele><time>2026-04-19T13:49:54.999Z</time></trkpt><trkpt lat="43.613329939043496" lon="11.795037990642378"><ele>336.0</ele><time>2026-04-19T13:49:55.999Z</time></trkpt><trkpt lat="43.613219555939736" lon="11.795061495851183"><ele>337.0</ele><time>2026-04-19T13:49:56.999Z</time></trkpt><trkpt lat="43.61309045242627" lon="11.795112884790774"><ele>338.0</ele><time>2026-04-19T13:49:57.999Z</time></trkpt><trkpt lat="43.6129391245354" lon="11.795170606280022"><ele>339.0</ele><time>2026-04-19T13:49:58.999Z</time></trkpt><trkpt lat="43.612787886376715" lon="11.795221710865459"><ele>335.6666666666667</ele><time>2026-04-19T13:49:59.999Z</time></trkpt><trkpt lat="43.61261950210651" lon="11.795276667560099"><ele>332.33333333333337</ele><time>2026-04-19T13:50:00.998Z</time></trkpt><trkpt lat="43.612439775518624" lon="11.795339138481467"><ele>329.0</ele><time>2026-04-19T13:50:01.998Z</time></trkpt><trkpt lat="43.612263825985025" lon="11.795394807318548"><ele>329.0</ele><time>2026-04-19T13:50:02.998Z</time></trkpt><trkpt lat="43.612087472871934" lon="11.795453678505117"><ele>329.0</ele><time>2026-04-19T13:50:03.998Z</time></trkpt><trkpt lat="43.61190788123061" lon="11.795517964338893"><ele>329.0</ele><time>2026-04-19T13:50:04.998Z</time></trkpt><trkpt lat="43.61172449940005" lon="11.795583062256618"><ele>330.33333333333337</ele><time>2026-04-19T13:50:05.998Z</time></trkpt><trkpt lat="43.61154747946398" lon="11.795650130063711"><ele>331.6666666666667</ele><time>2026-04-19T13:50:06.998Z</time></trkpt><trkpt lat="43.61138654643445" lon="11.795714751071628"><ele>333.0</ele><time>2026-04-19T13:50:07.998Z</time></trkpt><trkpt lat="43.61124395988548" lon="11.795772611630726"><ele>334.5</ele><time>2026-04-19T13:50:08.998Z</time></trkpt><trkpt lat="43.61110962051887" lon="11.79581901509735"><ele>336.0</ele><time>2026-04-19T13:50:09.998Z</time></trkpt><trkpt lat="43.610968986315854" lon="11.795832749927758"><ele>337.5</ele><time>2026-04-19T13:50:10.998Z</time></trkpt><trkpt lat="43.61082456510689" lon="11.7957934804145"><ele>339.0</ele><time>2026-04-19T13:50:11.998Z</time></trkpt><trkpt lat="43.610688873655874" lon="11.795707197666125"><ele>339.0</ele><time>2026-04-19T13:50:12.998Z</time></trkpt><trkpt lat="43.61055099512318" lon="11.795594377476785"><ele>339.0</ele><time>2026-04-19T13:50:13.998Z</time></trkpt><trkpt lat="43.61040156229933" lon="11.795480529530725"><ele>339.0</ele><time>2026-04-19T13:50:14.998Z</time></trkpt><trkpt lat="43.610258191892044" lon="11.795352940931094"><ele>338.0</ele><time>2026-04-19T13:50:15.998Z</time></trkpt><trkpt lat="43.61010193349906" lon="11.79523404810648"><ele>337.0</ele><time>2026-04-19T13:50:16.998Z</time></trkpt><trkpt lat="43.6099243366792" lon="11.795134147500452"><ele>336.0</ele><time>2026-04-19T13:50:17.998Z</time></trkpt><trkpt lat="43.6097377533683" lon="11.795051129920498"><ele>335.0</ele><time>2026-04-19T13:50:18.998Z</time></trkpt><trkpt lat="43.60955526770132" lon="11.79494461413996"><ele>334.0</ele><time>2026-04-19T13:50:19.998Z</time></trkpt><trkpt lat="43.6093877127181" lon="11.794808096712613"><ele>333.0</ele><time>2026-04-19T13:50:20.998Z</time></trkpt><trkpt lat="43.60921968241218" lon="11.794670887399661"><ele>333.0</ele><time>2026-04-19T13:50:21.998Z</time></trkpt><trkpt lat="43.609038165938486" lon="11.794569199716287"><ele>333.0</ele><time>2026-04-19T13:50:22.998Z</time></trkpt><trkpt lat="43.60885120770331" lon="11.794496540549343"><ele>333.0</ele><time>2026-04-19T13:50:23.998Z</time></trkpt><trkpt lat="43.608672603125" lon="11.794417795397134"><ele>335.6666666666667</ele><time>2026-04-19T13:50:24.998Z</time></trkpt><trkpt lat="43.60851934691195" lon="11.794322075149303"><ele>338.33333333333337</ele><time>2026-04-19T13:50:25.998Z</time></trkpt><trkpt lat="43.608393085210146" lon="11.794212815956042"><ele>341.0</ele><time>2026-04-19T13:50:26.998Z</time></trkpt><trkpt lat="43.60829622454884" lon="11.79405646164198"><ele>341.0</ele><time>2026-04-19T13:50:27.998Z</time></trkpt><trkpt lat="43.608200599088875" lon="11.793894265284122"><ele>341.0</ele><time>2026-04-19T13:50:28.998Z</time></trkpt><trkpt lat="43.60810289549775" lon="11.793732082673975"><ele>341.0</ele><time>2026-04-19T13:50:29.998Z</time></trkpt><trkpt lat="43.6079711727204" lon="11.793596478792036"><ele>343.0</ele><time>2026-04-19T13:50:30.998Z</time></trkpt><trkpt lat="43.60780801665589" lon="11.793501538605648"><ele>345.0</ele><time>2026-04-19T13:50:31.998Z</time></trkpt><trkpt lat="43.60764461397732" lon="11.793414891722243"><ele>347.0</ele><time>2026-04-19T13:50:32.998Z</time></trkpt><trkpt lat="43.607484228784536" lon="11.793305448183665"><ele>347.0</ele><time>2026-04-19T13:50:33.998Z</time></trkpt><trkpt lat="43.60733891484537" lon="11.793162981741682"><ele>347.0</ele><time>2026-04-19T13:50:34.998Z</time></trkpt><trkpt lat="43.607200931349944" lon="11.793000433603698"><ele>347.0</ele><time>2026-04-19T13:50:35.998Z</time></trkpt><trkpt lat="43.6070687022433" lon="11.792816515538096"><ele>346.0</ele><time>2026-04-19T13:50:36.998Z</time></trkpt><trkpt lat="43.60695085555304" lon="11.792631959121636"><ele>345.0</ele><time>2026-04-19T13:50:37.998Z</time></trkpt><trkpt lat="43.60684600585175" lon="11.792453286483362"><ele>344.0</ele><time>2026-04-19T13:50:38.998Z</time></trkpt><trkpt lat="43.60675247774909" lon="11.792278224711534"><ele>344.0</ele><time>2026-04-19T13:50:39.998Z</time></trkpt><trkpt lat="43.6066749391521" lon="11.792098619755649"><ele>344.0</ele><time>2026-04-19T13:50:40.998Z</time></trkpt><trkpt lat="43.60658682584406" lon="11.791931799564003"><ele>344.0</ele><time>2026-04-19T13:50:41.998Z</time></trkpt><trkpt lat="43.60646633100301" lon="11.791790088828176"><ele>346.0</ele><time>2026-04-19T13:50:42.998Z</time></trkpt><trkpt lat="43.606328018042674" lon="11.79168007069895"><ele>348.0</ele><time>2026-04-19T13:50:43.998Z</time></trkpt><trkpt lat="43.60616855896222" lon="11.791601514881155"><ele>350.0</ele><time>2026-04-19T13:50:44.998Z</time></trkpt><trkpt lat="43.60598911280125" lon="11.79154564882215"><ele>350.0</ele><time>2026-04-19T13:50:45.998Z</time></trkpt><trkpt lat="43.60579795379026" lon="11.79149581362361"><ele>350.0</ele><time>2026-04-19T13:50:46.998Z</time></trkpt><trkpt lat="43.605606269403886" lon="11.791448145269891"><ele>350.0</ele><time>2026-04-19T13:50:47.998Z</time></trkpt><trkpt lat="43.60541285190214" lon="11.791416614092805"><ele>347.6666666666667</ele><time>2026-04-19T13:50:48.998Z</time></trkpt><trkpt lat="43.60522609591707" lon="11.791400949228258"><ele>345.3333333333333</ele><time>2026-04-19T13:50:49.998Z</time></trkpt><trkpt lat="43.605054925439035" lon="11.79137656111359"><ele>343.0</ele><time>2026-04-19T13:50:50.998Z</time></trkpt><trkpt lat="43.604893952064174" lon="11.791317801751177"><ele>343.0</ele><time>2026-04-19T13:50:52Z</time></trkpt><trkpt lat="43.604735138889474" lon="11.791224318534127"><ele>343.0</ele><time>2026-04-19T13:50:53Z</time></trkpt><trkpt lat="43.60459497250226" lon="11.791128379301389"><ele>343.0</ele><time>2026-04-19T13:50:54Z</time></trkpt><trkpt lat="43.60446831425087" lon="11.791040561038203"><ele>344.5</ele><time>2026-04-19T13:50:55Z</time></trkpt><trkpt lat="43.604354081639094" lon="11.790953831405774"><ele>346.0</ele><time>2026-04-19T13:50:56Z</time></trkpt><trkpt lat="43.60425581284447" lon="11.790848950607957"><ele>347.5</ele><time>2026-04-19T13:50:57Z</time></trkpt><trkpt lat="43.60417619478567" lon="11.79069871513355"><ele>349.0</ele><time>2026-04-19T13:50:58Z</time></trkpt><trkpt lat="43.60411187997439" lon="11.790514059895216"><ele>349.0</ele><time>2026-04-19T13:50:59Z</time></trkpt><trkpt lat="43.604040248411614" lon="11.790332020931745"><ele>349.0</ele><time>2026-04-19T13:51:00Z</time></trkpt><trkpt lat="43.60395895027876" lon="11.790145900521386"><ele>349.0</ele><time>2026-04-19T13:51:01Z</time></trkpt><trkpt lat="43.603879175030954" lon="11.78996291376949"><ele>348.0</ele><time>2026-04-19T13:51:02Z</time></trkpt><trkpt lat="43.60380697470094" lon="11.789795803126431"><ele>347.0</ele><time>2026-04-19T13:51:03Z</time></trkpt><trkpt lat="43.603739167561464" lon="11.789642854422162"><ele>346.0</ele><time>2026-04-19T13:51:04Z</time></trkpt><trkpt lat="43.603676037103774" lon="11.789500853916042"><ele>345.0</ele><time>2026-04-19T13:51:05Z</time></trkpt><trkpt lat="43.603619695589806" lon="11.789369289338252"><ele>346.8</ele><time>2026-04-19T13:51:06Z</time></trkpt><trkpt lat="43.603563513843184" lon="11.789242608709639"><ele>348.6</ele><time>2026-04-19T13:51:07Z</time></trkpt><trkpt lat="43.60349876977096" lon="11.789128325896021"><ele>350.4</ele><time>2026-04-19T13:51:08Z</time></trkpt><trkpt lat="43.60341737419825" lon="11.78904626764075"><ele>352.2</ele><time>2026-04-19T13:51:09Z</time></trkpt><trkpt lat="43.60332186964707" lon="11.789000286171557"><ele>354.0</ele><time>2026-04-19T13:51:10Z</time></trkpt><trkpt lat="43.60321509577982" lon="11.788981629484807"><ele>354.0</ele><time>2026-04-19T13:51:11Z</time></trkpt><trkpt lat="43.6031077287829" lon="11.788986572795274"><ele>354.0</ele><time>2026-04-19T13:51:12Z</time></trkpt><trkpt lat="43.60299834266342" lon="11.788990764764982"><ele>354.0</ele><time>2026-04-19T13:51:13Z</time></trkpt><trkpt lat="43.602885953730684" lon="11.788986713386706"><ele>354.0</ele><time>2026-04-19T13:51:14Z</time></trkpt><trkpt lat="43.60277229356225" lon="11.788982163147518"><ele>354.0</ele><time>2026-04-19T13:51:15Z</time></trkpt><trkpt lat="43.60265699404405" lon="11.788980987474444"><ele>353.0</ele><time>2026-04-19T13:51:16Z</time></trkpt><trkpt lat="43.60254583127364" lon="11.788979758913367"><ele>352.0</ele><time>2026-04-19T13:51:17Z</time></trkpt><trkpt lat="43.6024405930982" lon="11.788974070380485"><ele>351.0</ele><time>2026-04-19T13:51:18Z</time></trkpt><trkpt lat="43.60234290920168" lon="11.788970126926232"><ele>350.0</ele><time>2026-04-19T13:51:19Z</time></trkpt><trkpt lat="43.60225375107398" lon="11.788968327417637"><ele>349.0</ele><time>2026-04-19T13:51:20Z</time></trkpt><trkpt lat="43.60217129318387" lon="11.788959725782158"><ele>348.99999999999994</ele><time>2026-04-19T13:51:21Z</time></trkpt><trkpt lat="43.6020941126046" lon="11.788954122323744"><ele>349.0</ele><time>2026-04-19T13:51:21.999Z</time></trkpt><trkpt lat="43.60202168890876" lon="11.788943562517613"><ele>349.0</ele><time>2026-04-19T13:51:22.999Z</time></trkpt><trkpt lat="43.60195087955357" lon="11.788934194123764"><ele>349.0</ele><time>2026-04-19T13:51:23.999Z</time></trkpt><trkpt lat="43.601878867117684" lon="11.788927821878625"><ele>349.0</ele><time>2026-04-19T13:51:24.999Z</time></trkpt><trkpt lat="43.60181123293341" lon="11.788921134963212"><ele>348.99999999999994</ele><time>2026-04-19T13:51:25.999Z</time></trkpt><trkpt lat="43.601748241791434" lon="11.788912538158817"><ele>349.0</ele><time>2026-04-19T13:51:26.999Z</time></trkpt><trkpt lat="43.601627260376915" lon="11.788901637547218"><ele>349.0</ele><time>2026-04-19T13:51:28.999Z</time></trkpt><trkpt lat="43.60151940639445" lon="11.788846654944246"><ele>349.0</ele><time>2026-04-19T13:51:30.999Z</time></trkpt><trkpt lat="43.601429895868236" lon="11.788766759787105"><ele>349.0</ele><time>2026-04-19T13:51:32.999Z</time></trkpt><trkpt lat="43.601370708304096" lon="11.7886588767222"><ele>349.0</ele><time>2026-04-19T13:51:34.999Z</time></trkpt><trkpt lat="43.6013033872598" lon="11.788524145492236"><ele>349.0</ele><time>2026-04-19T13:51:36.999Z</time></trkpt><trkpt lat="43.60127270773863" lon="11.78844800652149"><ele>349.16666666666663</ele><time>2026-04-19T13:51:37.999Z</time></trkpt><trkpt lat="43.601241689180924" lon="11.788365698586613"><ele>349.3333333333333</ele><time>2026-04-19T13:51:38.999Z</time></trkpt><trkpt lat="43.601210981932084" lon="11.788274021807005"><ele>349.5</ele><time>2026-04-19T13:51:39.999Z</time></trkpt><trkpt lat="43.60120069224072" lon="11.788184308516483"><ele>349.6666666666667</ele><time>2026-04-19T13:51:40.999Z</time></trkpt><trkpt lat="43.601163264695174" lon="11.788047328912613"><ele>349.83333333333337</ele><time>2026-04-19T13:51:42.999Z</time></trkpt><trkpt lat="43.60117190366504" lon="11.787918151336488"><ele>350.0</ele><time>2026-04-19T13:51:44.999Z</time></trkpt><trkpt lat="43.6012058118995" lon="11.787795429026417"><ele>350.0</ele><time>2026-04-19T13:51:46.999Z</time></trkpt><trkpt lat="43.60123597018981" lon="11.787698726723786"><ele>350.0</ele><time>2026-04-19T13:51:48.999Z</time></trkpt><trkpt lat="43.60107067900476" lon="11.787645824289092"><ele>350.0</ele><time>2026-04-19T13:51:50.999Z</time></trkpt><trkpt lat="43.60098094956586" lon="11.787645086530638"><ele>350.0</ele><time>2026-04-19T13:51:51.999Z</time></trkpt><trkpt lat="43.60088422048474" lon="11.787661358162417"><ele>350.0</ele><time>2026-04-19T13:51:52.999Z</time></trkpt><trkpt lat="43.60078195941112" lon="11.787681779926956"><ele>350.2</ele><time>2026-04-19T13:51:53.999Z</time></trkpt><trkpt lat="43.6006837242634" lon="11.787718941540032"><ele>350.4</ele><time>2026-04-19T13:51:54.999Z</time></trkpt><trkpt lat="43.6005767037648" lon="11.787728212181316"><ele>350.6</ele><time>2026-04-19T13:51:55.999Z</time></trkpt><trkpt lat="43.60046583597854" lon="11.787715772170877"><ele>350.8</ele><time>2026-04-19T13:51:56.999Z</time></trkpt><trkpt lat="43.60035659831564" lon="11.787663782393293"><ele>351.0</ele><time>2026-04-19T13:51:57.999Z</time></trkpt><trkpt lat="43.60025863003488" lon="11.787584605568679"><ele>351.0</ele><time>2026-04-19T13:51:58.999Z</time></trkpt><trkpt lat="43.60016861142817" lon="11.78747901833086"><ele>351.0</ele><time>2026-04-19T13:51:59.999Z</time></trkpt><trkpt lat="43.600107351919846" lon="11.787336403571157"><ele>351.0</ele><time>2026-04-19T13:52:00.999Z</time></trkpt><trkpt lat="43.600039839316096" lon="11.78719649691404"><ele>351.0</ele><time>2026-04-19T13:52:01.999Z</time></trkpt><trkpt lat="43.5999554655618" lon="11.787056359305627"><ele>351.0</ele><time>2026-04-19T13:52:02.999Z</time></trkpt><trkpt lat="43.599881604349356" lon="11.786893894641404"><ele>351.0</ele><time>2026-04-19T13:52:03.999Z</time></trkpt><trkpt lat="43.599804041759576" lon="11.78672717132063"><ele>351.0</ele><time>2026-04-19T13:52:04.999Z</time></trkpt><trkpt lat="43.5997206118108" lon="11.786548748366526"><ele>351.0</ele><time>2026-04-19T13:52:05.999Z</time></trkpt><trkpt lat="43.59963395745972" lon="11.78636734172782"><ele>351.6666666666667</ele><time>2026-04-19T13:52:06.999Z</time></trkpt><trkpt lat="43.59954921654325" lon="11.786185105062824"><ele>352.33333333333337</ele><time>2026-04-19T13:52:07.999Z</time></trkpt><trkpt lat="43.59946732213319" lon="11.786000295081294"><ele>353.0</ele><time>2026-04-19T13:52:08.999Z</time></trkpt><trkpt lat="43.59938127489714" lon="11.785811533833414"><ele>353.6666666666667</ele><time>2026-04-19T13:52:09.999Z</time></trkpt><trkpt lat="43.59929292616451" lon="11.785622160800788"><ele>354.3333333333333</ele><time>2026-04-19T13:52:10.999Z</time></trkpt><trkpt lat="43.59920511140916" lon="11.785437750265167"><ele>355.0</ele><time>2026-04-19T13:52:11.999Z</time></trkpt><trkpt lat="43.5991247825346" lon="11.7852617337598"><ele>357.0</ele><time>2026-04-19T13:52:12.999Z</time></trkpt><trkpt lat="43.599049974186734" lon="11.785104689718613"><ele>359.0</ele><time>2026-04-19T13:52:13.999Z</time></trkpt><trkpt lat="43.598958917214055" lon="11.784961089986291"><ele>361.0</ele><time>2026-04-19T13:52:14.999Z</time></trkpt><trkpt lat="43.598841042492005" lon="11.78483679547125"><ele>363.0</ele><time>2026-04-19T13:52:15.999Z</time></trkpt><trkpt lat="43.59870453757225" lon="11.784722408109442"><ele>360.3333333333333</ele><time>2026-04-19T13:52:16.998Z</time></trkpt><trkpt lat="43.59856223330303" lon="11.784609264666033"><ele>357.66666666666663</ele><time>2026-04-19T13:52:17.998Z</time></trkpt><trkpt lat="43.598435520865884" lon="11.78448068000095"><ele>355.0</ele><time>2026-04-19T13:52:18.998Z</time></trkpt><trkpt lat="43.59831588218221" lon="11.78437751486534"><ele>359.75</ele><time>2026-04-19T13:52:19.998Z</time></trkpt><trkpt lat="43.59821097077538" lon="11.784303301734296"><ele>364.5</ele><time>2026-04-19T13:52:20.998Z</time></trkpt><trkpt lat="43.598131065733746" lon="11.784190884252933"><ele>369.25</ele><time>2026-04-19T13:52:21.998Z</time></trkpt><trkpt lat="43.59807021257681" lon="11.784039901053239"><ele>374.0</ele><time>2026-04-19T13:52:22.998Z</time></trkpt><trkpt lat="43.59803684041816" lon="11.783858388387271"><ele>374.0</ele><time>2026-04-19T13:52:23.998Z</time></trkpt><trkpt lat="43.59801414438562" lon="11.7836620019814"><ele>374.0</ele><time>2026-04-19T13:52:24.998Z</time></trkpt><trkpt lat="43.59798676527157" lon="11.783469597155152"><ele>374.0</ele><time>2026-04-19T13:52:25.998Z</time></trkpt><trkpt lat="43.59794863651134" lon="11.783297645841806"><ele>374.0</ele><time>2026-04-19T13:52:26.998Z</time></trkpt><trkpt lat="43.59791188420081" lon="11.783158153848275"><ele>375.5</ele><time>2026-04-19T13:52:27.998Z</time></trkpt><trkpt lat="43.597871048656096" lon="11.78304911558443"><ele>377.0</ele><time>2026-04-19T13:52:28.998Z</time></trkpt><trkpt lat="43.59783022748386" lon="11.782958386819008"><ele>378.5</ele><time>2026-04-19T13:52:29.998Z</time></trkpt><trkpt lat="43.597745484667165" lon="11.78290609807132"><ele>380.0</ele><time>2026-04-19T13:52:30.998Z</time></trkpt><trkpt lat="43.59767428481923" lon="11.782894580011732"><ele>381.5</ele><time>2026-04-19T13:52:31.998Z</time></trkpt><trkpt lat="43.5976096168927" lon="11.7830194642486"><ele>383.0</ele><time>2026-04-19T13:52:32.998Z</time></trkpt><trkpt lat="43.59758085591507" lon="11.78313123775469"><ele>383.0</ele><time>2026-04-19T13:52:33.998Z</time></trkpt><trkpt lat="43.597585296014884" lon="11.783277943982386"><ele>383.0</ele><time>2026-04-19T13:52:34.998Z</time></trkpt><trkpt lat="43.59757134103967" lon="11.783441900448969"><ele>383.0</ele><time>2026-04-19T13:52:35.998Z</time></trkpt><trkpt lat="43.597573699447636" lon="11.783625423193351"><ele>383.0</ele><time>2026-04-19T13:52:36.998Z</time></trkpt><trkpt lat="43.597587570408514" lon="11.783800096406587"><ele>380.75</ele><time>2026-04-19T13:52:37.998Z</time></trkpt><trkpt lat="43.597564283422656" lon="11.783949558212129"><ele>378.5</ele><time>2026-04-19T13:52:38.998Z</time></trkpt><trkpt lat="43.59748604876286" lon="11.784052853355886"><ele>376.25</ele><time>2026-04-19T13:52:39.998Z</time></trkpt><trkpt lat="43.59738736109446" lon="11.784106646913633"><ele>374.0</ele><time>2026-04-19T13:52:40.998Z</time></trkpt><trkpt lat="43.597275254463" lon="11.784206469020006"><ele>374.0</ele><time>2026-04-19T13:52:41.998Z</time></trkpt><trkpt lat="43.59714064370726" lon="11.784296710056267"><ele>374.0</ele><time>2026-04-19T13:52:42.998Z</time></trkpt><trkpt lat="43.597015467709035" lon="11.78442490352114"><ele>374.0</ele><time>2026-04-19T13:52:43.998Z</time></trkpt><trkpt lat="43.59690314399397" lon="11.784590742298112"><ele>376.6666666666667</ele><time>2026-04-19T13:52:44.998Z</time></trkpt><trkpt lat="43.596765550095476" lon="11.784748502414878"><ele>379.3333333333333</ele><time>2026-04-19T13:52:45.998Z</time></trkpt><trkpt lat="43.59664427318628" lon="11.784933065519235"><ele>382.0</ele><time>2026-04-19T13:52:46.998Z</time></trkpt><trkpt lat="43.59653327418911" lon="11.785134711414505"><ele>376.0</ele><time>2026-04-19T13:52:47.998Z</time></trkpt><trkpt lat="43.59641126632978" lon="11.78531298558495"><ele>370.0</ele><time>2026-04-19T13:52:48.998Z</time></trkpt><trkpt lat="43.59628863168555" lon="11.785473285273008"><ele>364.0</ele><time>2026-04-19T13:52:49.998Z</time></trkpt><trkpt lat="43.59617966492005" lon="11.785640200545544"><ele>364.75</ele><time>2026-04-19T13:52:50.998Z</time></trkpt><trkpt lat="43.596083546450515" lon="11.785793334482857"><ele>365.5</ele><time>2026-04-19T13:52:51.998Z</time></trkpt><trkpt lat="43.59600113075148" lon="11.785920847690278"><ele>366.25</ele><time>2026-04-19T13:52:52.998Z</time></trkpt><trkpt lat="43.59593752682475" lon="11.78603714577818"><ele>367.0</ele><time>2026-04-19T13:52:53.998Z</time></trkpt><trkpt lat="43.59585468803089" lon="11.786101883569984"><ele>367.0</ele><time>2026-04-19T13:52:54.998Z</time></trkpt><trkpt lat="43.595766358734906" lon="11.78610518491006"><ele>367.0</ele><time>2026-04-19T13:52:55.998Z</time></trkpt><trkpt lat="43.59568503401276" lon="11.786048167523479"><ele>367.0</ele><time>2026-04-19T13:52:56.998Z</time></trkpt><trkpt lat="43.59562357952312" lon="11.785934075534884"><ele>367.0</ele><time>2026-04-19T13:52:58Z</time></trkpt><trkpt lat="43.595588651501906" lon="11.785793409288551"><ele>367.0</ele><time>2026-04-19T13:52:59Z</time></trkpt><trkpt lat="43.59559131555822" lon="11.78566066582412"><ele>370.0</ele><time>2026-04-19T13:53:00Z</time></trkpt><trkpt lat="43.59561917253787" lon="11.78553178979621"><ele>373.0</ele><time>2026-04-19T13:53:01Z</time></trkpt><trkpt lat="43.595654092553175" lon="11.785410169182507"><ele>376.0</ele><time>2026-04-19T13:53:02Z</time></trkpt><trkpt lat="43.59568248918365" lon="11.785311143160566"><ele>379.0</ele><time>2026-04-19T13:53:03Z</time></trkpt><trkpt lat="43.595692123760536" lon="11.785210144333975"><ele>382.00000000000006</ele><time>2026-04-19T13:53:04Z</time></trkpt><trkpt lat="43.59568214038433" lon="11.785106638261938"><ele>385.0</ele><time>2026-04-19T13:53:05Z</time></trkpt><trkpt lat="43.59564993966955" lon="11.785029009850597"><ele>385.6666666666667</ele><time>2026-04-19T13:53:06Z</time></trkpt><trkpt lat="43.59559446359833" lon="11.78498192428108"><ele>386.33333333333337</ele><time>2026-04-19T13:53:07Z</time></trkpt><trkpt lat="43.59553119418873" lon="11.784979937072764"><ele>387.0</ele><time>2026-04-19T13:53:08Z</time></trkpt><trkpt lat="43.59546470666207" lon="11.785026947171328"><ele>387.66666666666663</ele><time>2026-04-19T13:53:09Z</time></trkpt><trkpt lat="43.595390417748" lon="11.78511087433503"><ele>388.3333333333333</ele><time>2026-04-19T13:53:10Z</time></trkpt><trkpt lat="43.595302304394025" lon="11.785202694915952"><ele>389.0</ele><time>2026-04-19T13:53:11Z</time></trkpt><trkpt lat="43.595207250251605" lon="11.785292473491753"><ele>389.0</ele><time>2026-04-19T13:53:12Z</time></trkpt><trkpt lat="43.59511257292569" lon="11.785383220083949"><ele>389.0</ele><time>2026-04-19T13:53:13Z</time></trkpt><trkpt lat="43.59501570519458" lon="11.785472423936548"><ele>389.0</ele><time>2026-04-19T13:53:14Z</time></trkpt><trkpt lat="43.59491447133608" lon="11.785557815491979"><ele>389.0</ele><time>2026-04-19T13:53:15Z</time></trkpt><trkpt lat="43.59481328816703" lon="11.785652831901842"><ele>389.0</ele><time>2026-04-19T13:53:16Z</time></trkpt><trkpt lat="43.594713013629345" lon="11.785750157426945"><ele>389.0</ele><time>2026-04-19T13:53:17Z</time></trkpt><trkpt lat="43.594602821546964" lon="11.785824868233073"><ele>389.0</ele><time>2026-04-19T13:53:18Z</time></trkpt><trkpt lat="43.59448036910644" lon="11.785865994422958"><ele>389.0</ele><time>2026-04-19T13:53:19Z</time></trkpt><trkpt lat="43.59434339650848" lon="11.785893425257328"><ele>394.0</ele><time>2026-04-19T13:53:20Z</time></trkpt><trkpt lat="43.59420424090644" lon="11.785909335102764"><ele>399.0</ele><time>2026-04-19T13:53:21Z</time></trkpt><trkpt lat="43.59406985813718" lon="11.785932162385842"><ele>404.0</ele><time>2026-04-19T13:53:22Z</time></trkpt><trkpt lat="43.59394139675563" lon="11.785967640273421"><ele>409.0</ele><time>2026-04-19T13:53:23Z</time></trkpt><trkpt lat="43.59381471338886" lon="11.785989053092877"><ele>409.0</ele><time>2026-04-19T13:53:24Z</time></trkpt><trkpt lat="43.59368175930319" lon="11.78597576037615"><ele>409.0</ele><time>2026-04-19T13:53:25Z</time></trkpt><trkpt lat="43.59355419019635" lon="11.78591927062047"><ele>409.0</ele><time>2026-04-19T13:53:26Z</time></trkpt><trkpt lat="43.593430897311094" lon="11.78585943506543"><ele>409.0</ele><time>2026-04-19T13:53:27Z</time></trkpt><trkpt lat="43.59330321467623" lon="11.785824040548926"><ele>409.75</ele><time>2026-04-19T13:53:28Z</time></trkpt><trkpt lat="43.59316956936697" lon="11.785814311833523"><ele>410.5</ele><time>2026-04-19T13:53:29Z</time></trkpt><trkpt lat="43.59304677270839" lon="11.785798553796758"><ele>411.25</ele><time>2026-04-19T13:53:30Z</time></trkpt><trkpt lat="43.59293306966857" lon="11.78574393743108"><ele>412.0</ele><time>2026-04-19T13:53:31Z</time></trkpt><trkpt lat="43.59283361208205" lon="11.785650534144636"><ele>412.0</ele><time>2026-04-19T13:53:32Z</time></trkpt><trkpt lat="43.59274814179164" lon="11.785527286292618"><ele>412.0</ele><time>2026-04-19T13:53:33Z</time></trkpt><trkpt lat="43.59267320218936" lon="11.785380827379125"><ele>412.0</ele><time>2026-04-19T13:53:34Z</time></trkpt><trkpt lat="43.592597863920325" lon="11.78523980042086"><ele>412.0</ele><time>2026-04-19T13:53:35Z</time></trkpt><trkpt lat="43.59251931815994" lon="11.785102004539072"><ele>416.0</ele><time>2026-04-19T13:53:35.999Z</time></trkpt><trkpt lat="43.59243968742758" lon="11.784971208463368"><ele>420.0</ele><time>2026-04-19T13:53:36.999Z</time></trkpt><trkpt lat="43.592351359821855" lon="11.784858143779621"><ele>424.0</ele><time>2026-04-19T13:53:37.999Z</time></trkpt><trkpt lat="43.59224475255375" lon="11.784783144917542"><ele>428.0</ele><time>2026-04-19T13:53:38.999Z</time></trkpt><trkpt lat="43.59212925632598" lon="11.784749006777192"><ele>428.0</ele><time>2026-04-19T13:53:39.999Z</time></trkpt><trkpt lat="43.592008680983085" lon="11.784747330899375"><ele>428.0</ele><time>2026-04-19T13:53:40.999Z</time></trkpt><trkpt lat="43.59188232729336" lon="11.784771967578203"><ele>428.0</ele><time>2026-04-19T13:53:41.999Z</time></trkpt><trkpt lat="43.59175849118701" lon="11.784827021444588"><ele>428.0</ele><time>2026-04-19T13:53:42.999Z</time></trkpt><trkpt lat="43.59164759127124" lon="11.784928189778196"><ele>427.5</ele><time>2026-04-19T13:53:43.999Z</time></trkpt><trkpt lat="43.59152816826477" lon="11.78501541205208"><ele>427.0</ele><time>2026-04-19T13:53:44.999Z</time></trkpt><trkpt lat="43.591423056296485" lon="11.785108686636786"><ele>426.5</ele><time>2026-04-19T13:53:45.999Z</time></trkpt><trkpt lat="43.59133750581874" lon="11.785210774628416"><ele>426.0</ele><time>2026-04-19T13:53:46.999Z</time></trkpt><trkpt lat="43.59124849572348" lon="11.785284894490163"><ele>426.20000000000005</ele><time>2026-04-19T13:53:47.999Z</time></trkpt><trkpt lat="43.59116142539579" lon="11.785364777541314"><ele>426.40000000000003</ele><time>2026-04-19T13:53:48.999Z</time></trkpt><trkpt lat="43.591075560772865" lon="11.785437790253939"><ele>426.6</ele><time>2026-04-19T13:53:49.999Z</time></trkpt><trkpt lat="43.59098237402794" lon="11.785489659628128"><ele>426.8</ele><time>2026-04-19T13:53:50.999Z</time></trkpt><trkpt lat="43.5908905675073" lon="11.785500742639243"><ele>427.0</ele><time>2026-04-19T13:53:51.999Z</time></trkpt><trkpt lat="43.590802120437935" lon="11.785479317858913"><ele>427.0</ele><time>2026-04-19T13:53:52.999Z</time></trkpt><trkpt lat="43.590723119689024" lon="11.78540555685722"><ele>427.00000000000006</ele><time>2026-04-19T13:53:53.999Z</time></trkpt><trkpt lat="43.59067126363805" lon="11.785293171053041"><ele>427.00000000000006</ele><time>2026-04-19T13:53:54.999Z</time></trkpt><trkpt lat="43.59065790261342" lon="11.785161229001195"><ele>427.0</ele><time>2026-04-19T13:53:55.999Z</time></trkpt><trkpt lat="43.5906748132962" lon="11.78501912810041"><ele>427.0</ele><time>2026-04-19T13:53:56.999Z</time></trkpt><trkpt lat="43.590706287382005" lon="11.784870543382631"><ele>428.25</ele><time>2026-04-19T13:53:57.999Z</time></trkpt><trkpt lat="43.59075153975262" lon="11.784699244470463"><ele>429.5</ele><time>2026-04-19T13:53:58.999Z</time></trkpt><trkpt lat="43.5908028161292" lon="11.784532518262425"><ele>430.75</ele><time>2026-04-19T13:53:59.999Z</time></trkpt><trkpt lat="43.59084772484821" lon="11.784375267459843"><ele>432.0</ele><time>2026-04-19T13:54:00.999Z</time></trkpt><trkpt lat="43.590881156162304" lon="11.784229203266364"><ele>434.0</ele><time>2026-04-19T13:54:01.999Z</time></trkpt><trkpt lat="43.59090861724975" lon="11.784086816687925"><ele>436.00000000000006</ele><time>2026-04-19T13:54:02.999Z</time></trkpt><trkpt lat="43.59091552651947" lon="11.783948257837844"><ele>438.00000000000006</ele><time>2026-04-19T13:54:03.999Z</time></trkpt><trkpt lat="43.590887396848096" lon="11.783817878481996"><ele>440.0</ele><time>2026-04-19T13:54:04.999Z</time></trkpt><trkpt lat="43.59082381818203" lon="11.783712254152048"><ele>442.0</ele><time>2026-04-19T13:54:05.999Z</time></trkpt><trkpt lat="43.59073802216309" lon="11.783635291060783"><ele>442.0</ele><time>2026-04-19T13:54:06.999Z</time></trkpt><trkpt lat="43.59063931740149" lon="11.78359150838003"><ele>442.0</ele><time>2026-04-19T13:54:07.999Z</time></trkpt><trkpt lat="43.59053375018314" lon="11.783583752481686"><ele>442.0</ele><time>2026-04-19T13:54:08.999Z</time></trkpt><trkpt lat="43.5904179360808" lon="11.783620384832673"><ele>442.0</ele><time>2026-04-19T13:54:09.999Z</time></trkpt><trkpt lat="43.59028696861984" lon="11.78367121674981"><ele>443.0</ele><time>2026-04-19T13:54:10.999Z</time></trkpt><trkpt lat="43.5901749748121" lon="11.783784244517326"><ele>444.0</ele><time>2026-04-19T13:54:11.999Z</time></trkpt><trkpt lat="43.59005518801965" lon="11.78389521660286"><ele>445.0</ele><time>2026-04-19T13:54:12.999Z</time></trkpt><trkpt lat="43.589933710843894" lon="11.783992563300734"><ele>446.0</ele><time>2026-04-19T13:54:13.999Z</time></trkpt><trkpt lat="43.58980611972895" lon="11.784086243754707"><ele>446.0</ele><time>2026-04-19T13:54:14.999Z</time></trkpt><trkpt lat="43.58968808612259" lon="11.784193323933964"><ele>446.0</ele><time>2026-04-19T13:54:15.999Z</time></trkpt><trkpt lat="43.58958185840516" lon="11.784318955037694"><ele>446.0</ele><time>2026-04-19T13:54:16.999Z</time></trkpt><trkpt lat="43.589489250008086" lon="11.784463050958923"><ele>446.0</ele><time>2026-04-19T13:54:17.999Z</time></trkpt><trkpt lat="43.58941276294659" lon="11.784612687276185"><ele>449.0</ele><time>2026-04-19T13:54:18.999Z</time></trkpt><trkpt lat="43.58934598573688" lon="11.784772825791107"><ele>452.0</ele><time>2026-04-19T13:54:19.999Z</time></trkpt><trkpt lat="43.589267903200586" lon="11.784920933289252"><ele>455.0</ele><time>2026-04-19T13:54:20.999Z</time></trkpt><trkpt lat="43.58920217609642" lon="11.785067706940913"><ele>458.0</ele><time>2026-04-19T13:54:21.999Z</time></trkpt><trkpt lat="43.58913934740982" lon="11.785178334900367"><ele>454.5</ele><time>2026-04-19T13:54:22.999Z</time></trkpt><trkpt lat="43.589059726229074" lon="11.78527680050864"><ele>451.0</ele><time>2026-04-19T13:54:23.999Z</time></trkpt><trkpt lat="43.58894684010641" lon="11.785309782003099"><ele>447.5</ele><time>2026-04-19T13:54:24.999Z</time></trkpt><trkpt lat="43.58883011210876" lon="11.785277034315003"><ele>444.0</ele><time>2026-04-19T13:54:25.999Z</time></trkpt><trkpt lat="43.58870403128769" lon="11.785217391923165"><ele>448.0</ele><time>2026-04-19T13:54:26.999Z</time></trkpt><trkpt lat="43.58858208428131" lon="11.785155307555344"><ele>452.0</ele><time>2026-04-19T13:54:27.999Z</time></trkpt><trkpt lat="43.58846172378974" lon="11.785092959703313"><ele>456.0</ele><time>2026-04-19T13:54:28.998Z</time></trkpt><trkpt lat="43.58834118096735" lon="11.785032868298844"><ele>460.0</ele><time>2026-04-19T13:54:29.998Z</time></trkpt><trkpt lat="43.58821808224006" lon="11.784974373354377"><ele>460.0</ele><time>2026-04-19T13:54:30.998Z</time></trkpt><trkpt lat="43.58809801486221" lon="11.784916280645986"><ele>460.0</ele><time>2026-04-19T13:54:31.998Z</time></trkpt><trkpt lat="43.587982133808346" lon="11.784845037459197"><ele>460.0</ele><time>2026-04-19T13:54:32.998Z</time></trkpt><trkpt lat="43.58787557481199" lon="11.784746215786507"><ele>460.0</ele><time>2026-04-19T13:54:33.998Z</time></trkpt><trkpt lat="43.58779120173977" lon="11.784610303894723"><ele>457.25</ele><time>2026-04-19T13:54:34.998Z</time></trkpt><trkpt lat="43.58772093015534" lon="11.784460193794896"><ele>454.5</ele><time>2026-04-19T13:54:35.998Z</time></trkpt><trkpt lat="43.5876492419238" lon="11.784309574626523"><ele>451.75</ele><time>2026-04-19T13:54:36.998Z</time></trkpt><trkpt lat="43.58757378593645" lon="11.784159757442724"><ele>449.0</ele><time>2026-04-19T13:54:37.998Z</time></trkpt><trkpt lat="43.58748293470739" lon="11.784024515952536"><ele>454.75</ele><time>2026-04-19T13:54:38.998Z</time></trkpt><trkpt lat="43.58736772781693" lon="11.783922615585537"><ele>460.5</ele><time>2026-04-19T13:54:39.998Z</time></trkpt><trkpt lat="43.58724403483189" lon="11.78385231594906"><ele>466.25</ele><time>2026-04-19T13:54:40.998Z</time></trkpt><trkpt lat="43.58713088579019" lon="11.783792347413078"><ele>472.0</ele><time>2026-04-19T13:54:41.998Z</time></trkpt><trkpt lat="43.58702694717331" lon="11.783706956784544"><ele>474.5</ele><time>2026-04-19T13:54:42.998Z</time></trkpt><trkpt lat="43.58694380291682" lon="11.783586983991544"><ele>477.0</ele><time>2026-04-19T13:54:43.998Z</time></trkpt><trkpt lat="43.586878206759444" lon="11.783440822675464"><ele>479.5</ele><time>2026-04-19T13:54:44.998Z</time></trkpt><trkpt lat="43.58679836577447" lon="11.783305674201193"><ele>482.0</ele><time>2026-04-19T13:54:45.998Z</time></trkpt><trkpt lat="43.5866995880307" lon="11.783197070190832"><ele>482.0</ele><time>2026-04-19T13:54:46.998Z</time></trkpt><trkpt lat="43.58658918030172" lon="11.783117006772276"><ele>482.0</ele><time>2026-04-19T13:54:47.998Z</time></trkpt><trkpt lat="43.58647564592215" lon="11.783045263581018"><ele>482.0</ele><time>2026-04-19T13:54:48.998Z</time></trkpt><trkpt lat="43.58635272761637" lon="11.782997329567317"><ele>482.0</ele><time>2026-04-19T13:54:49.998Z</time></trkpt><trkpt lat="43.586230020664" lon="11.782952871341093"><ele>483.5</ele><time>2026-04-19T13:54:50.998Z</time></trkpt><trkpt lat="43.586113568050315" lon="11.782887755670037"><ele>485.0</ele><time>2026-04-19T13:54:51.998Z</time></trkpt><trkpt lat="43.58601195482546" lon="11.782787722105684"><ele>486.5</ele><time>2026-04-19T13:54:52.998Z</time></trkpt><trkpt lat="43.58592821466758" lon="11.782656159948532"><ele>488.0</ele><time>2026-04-19T13:54:53.998Z</time></trkpt><trkpt lat="43.585860138047515" lon="11.782496963651168"><ele>488.0</ele><time>2026-04-19T13:54:54.998Z</time></trkpt><trkpt lat="43.58579467341037" lon="11.782322269108853"><ele>488.0</ele><time>2026-04-19T13:54:55.998Z</time></trkpt><trkpt lat="43.58573303454846" lon="11.782141311658034"><ele>488.0</ele><time>2026-04-19T13:54:56.998Z</time></trkpt><trkpt lat="43.585672137402355" lon="11.781964405172387"><ele>488.0</ele><time>2026-04-19T13:54:57.998Z</time></trkpt><trkpt lat="43.585614118212206" lon="11.781804047149873"><ele>491.75</ele><time>2026-04-19T13:54:58.998Z</time></trkpt><trkpt lat="43.58555821781224" lon="11.78165808135494"><ele>495.5</ele><time>2026-04-19T13:54:59.998Z</time></trkpt><trkpt lat="43.58550470985433" lon="11.781523448345123"><ele>499.25</ele><time>2026-04-19T13:55:00.998Z</time></trkpt><trkpt lat="43.585439878042926" lon="11.781389282836045"><ele>503.0</ele><time>2026-04-19T13:55:01.998Z</time></trkpt><trkpt lat="43.58536017655943" lon="11.781264482861356"><ele>499.75</ele><time>2026-04-19T13:55:02.998Z</time></trkpt><trkpt lat="43.58526968224631" lon="11.781152048429062"><ele>496.5</ele><time>2026-04-19T13:55:04Z</time></trkpt><trkpt lat="43.58517461186566" lon="11.781049084950661"><ele>493.25</ele><time>2026-04-19T13:55:05Z</time></trkpt><trkpt lat="43.58508323527804" lon="11.780942589879704"><ele>490.0</ele><time>2026-04-19T13:55:06Z</time></trkpt><trkpt lat="43.58501091323117" lon="11.78082926630867"><ele>490.0</ele><time>2026-04-19T13:55:07Z</time></trkpt><trkpt lat="43.58497378749176" lon="11.780685553718069"><ele>490.0</ele><time>2026-04-19T13:55:08Z</time></trkpt><trkpt lat="43.58497393307583" lon="11.780525133661342"><ele>490.0</ele><time>2026-04-19T13:55:09Z</time></trkpt><trkpt lat="43.584964988925556" lon="11.780369325163125"><ele>490.0</ele><time>2026-04-19T13:55:10Z</time></trkpt><trkpt lat="43.584920353501644" lon="11.780209528687456"><ele>492.25</ele><time>2026-04-19T13:55:11Z</time></trkpt><trkpt lat="43.584847750733914" lon="11.780044429045283"><ele>494.5</ele><time>2026-04-19T13:55:12Z</time></trkpt><trkpt lat="43.58476158386088" lon="11.779883246965792"><ele>496.75</ele><time>2026-04-19T13:55:13Z</time></trkpt><trkpt lat="43.58466803607896" lon="11.77972579256424"><ele>499.0</ele><time>2026-04-19T13:55:14Z</time></trkpt><trkpt lat="43.584575905942565" lon="11.779570362629354"><ele>499.0</ele><time>2026-04-19T13:55:15Z</time></trkpt><trkpt lat="43.584491927711085" lon="11.779415426508695"><ele>499.0</ele><time>2026-04-19T13:55:16Z</time></trkpt><trkpt lat="43.58441749683974" lon="11.779279804108842"><ele>499.0</ele><time>2026-04-19T13:55:17Z</time></trkpt><trkpt lat="43.584354530662765" lon="11.779150411612012"><ele>499.0</ele><time>2026-04-19T13:55:18Z</time></trkpt><trkpt lat="43.58432144514541" lon="11.778995545479786"><ele>499.0</ele><time>2026-04-19T13:55:19Z</time></trkpt><trkpt lat="43.58432178290727" lon="11.778823770768664"><ele>499.0</ele><time>2026-04-19T13:55:20Z</time></trkpt><trkpt lat="43.58431633031666" lon="11.778649068093488"><ele>499.0</ele><time>2026-04-19T13:55:21Z</time></trkpt><trkpt lat="43.58427601269872" lon="11.778484744030749"><ele>499.0</ele><time>2026-04-19T13:55:22Z</time></trkpt><trkpt lat="43.5842157574797" lon="11.778331875312798"><ele>499.5</ele><time>2026-04-19T13:55:23Z</time></trkpt><trkpt lat="43.584151297347034" lon="11.778181014811242"><ele>500.0</ele><time>2026-04-19T13:55:24Z</time></trkpt><trkpt lat="43.58409572761889" lon="11.77803101429931"><ele>500.5</ele><time>2026-04-19T13:55:25Z</time></trkpt><trkpt lat="43.584052017535704" lon="11.777893443870855"><ele>501.0</ele><time>2026-04-19T13:55:26Z</time></trkpt><trkpt lat="43.58403117335419" lon="11.777763183406387"><ele>502.6</ele><time>2026-04-19T13:55:27Z</time></trkpt><trkpt lat="43.5840405089355" lon="11.777621550708691"><ele>504.20000000000005</ele><time>2026-04-19T13:55:28Z</time></trkpt><trkpt lat="43.58407898494023" lon="11.777495407871173"><ele>505.79999999999995</ele><time>2026-04-19T13:55:29Z</time></trkpt><trkpt lat="43.58412424514485" lon="11.777377824715364"><ele>507.4</ele><time>2026-04-19T13:55:30Z</time></trkpt><trkpt lat="43.58416295173207" lon="11.777248533251775"><ele>509.0</ele><time>2026-04-19T13:55:31Z</time></trkpt><trkpt lat="43.58418489609066" lon="11.777108564506843"><ele>509.0</ele><time>2026-04-19T13:55:32Z</time></trkpt><trkpt lat="43.58417470468304" lon="11.776955713897797"><ele>509.0</ele><time>2026-04-19T13:55:33Z</time></trkpt><trkpt lat="43.58413617809783" lon="11.776804432317547"><ele>509.0</ele><time>2026-04-19T13:55:34Z</time></trkpt><trkpt lat="43.58406992450405" lon="11.776660172705625"><ele>509.0</ele><time>2026-04-19T13:55:35Z</time></trkpt><trkpt lat="43.58398342967987" lon="11.776524338061224"><ele>512.0</ele><time>2026-04-19T13:55:36Z</time></trkpt><trkpt lat="43.583887990810865" lon="11.776398808717708"><ele>515.0</ele><time>2026-04-19T13:55:37Z</time></trkpt><trkpt lat="43.58379263732246" lon="11.776275026308474"><ele>518.0</ele><time>2026-04-19T13:55:38Z</time></trkpt><trkpt lat="43.58369838483462" lon="11.776149265785346"><ele>521.0</ele><time>2026-04-19T13:55:39Z</time></trkpt><trkpt lat="43.58360187106919" lon="11.77601714361146"><ele>521.0</ele><time>2026-04-19T13:55:40Z</time></trkpt><trkpt lat="43.58350794210854" lon="11.775887227543372"><ele>521.0</ele><time>2026-04-19T13:55:41Z</time></trkpt><trkpt lat="43.58341580185302" lon="11.775758359972112"><ele>521.0</ele><time>2026-04-19T13:55:42Z</time></trkpt><trkpt lat="43.583325399677804" lon="11.775633084734196"><ele>521.0</ele><time>2026-04-19T13:55:43Z</time></trkpt><trkpt lat="43.583238876075484" lon="11.775510799950442"><ele>521.0</ele><time>2026-04-19T13:55:44Z</time></trkpt><trkpt lat="43.583158772700536" lon="11.775394465491303"><ele>521.0</ele><time>2026-04-19T13:55:45Z</time></trkpt><trkpt lat="43.58309008632304" lon="11.775273391465289"><ele>521.0</ele><time>2026-04-19T13:55:46Z</time></trkpt><trkpt lat="43.583051920372434" lon="11.77513073460167"><ele>521.0</ele><time>2026-04-19T13:55:47Z</time></trkpt><trkpt lat="43.58303962777996" lon="11.774980495716543"><ele>521.0</ele><time>2026-04-19T13:55:48Z</time></trkpt><trkpt lat="43.583052646214995" lon="11.774831774089204"><ele>524.75</ele><time>2026-04-19T13:55:49Z</time></trkpt><trkpt lat="43.58307094235343" lon="11.774682605674233"><ele>528.5</ele><time>2026-04-19T13:55:49.999Z</time></trkpt><trkpt lat="43.583060982741166" lon="11.774526900654218"><ele>532.25</ele><time>2026-04-19T13:55:50.999Z</time></trkpt><trkpt lat="43.58301004079976" lon="11.774368182126572"><ele>536.0</ele><time>2026-04-19T13:55:51.999Z</time></trkpt><trkpt lat="43.58294465141894" lon="11.774210540375893"><ele>537.75</ele><time>2026-04-19T13:55:52.999Z</time></trkpt><trkpt lat="43.58287567879655" lon="11.774059642340745"><ele>539.5</ele><time>2026-04-19T13:55:53.999Z</time></trkpt><trkpt lat="43.582808859658854" lon="11.773909313282338"><ele>541.25</ele><time>2026-04-19T13:55:54.999Z</time></trkpt><trkpt lat="43.5827489143872" lon="11.773757944756973"><ele>543.0</ele><time>2026-04-19T13:55:55.999Z</time></trkpt><trkpt lat="43.58270510901713" lon="11.773600472311188"><ele>540.5</ele><time>2026-04-19T13:55:56.999Z</time></trkpt><trkpt lat="43.582682002782875" lon="11.773436140565755"><ele>538.0</ele><time>2026-04-19T13:55:57.999Z</time></trkpt><trkpt lat="43.58268058689758" lon="11.773267156910057"><ele>535.5</ele><time>2026-04-19T13:55:58.999Z</time></trkpt><trkpt lat="43.58269442115441" lon="11.77309344432209"><ele>533.0</ele><time>2026-04-19T13:55:59.999Z</time></trkpt><trkpt lat="43.58271195457556" lon="11.772921875132582"><ele>533.0</ele><time>2026-04-19T13:56:00.999Z</time></trkpt><trkpt lat="43.58272707062688" lon="11.772749521965007"><ele>533.0</ele><time>2026-04-19T13:56:01.999Z</time></trkpt><trkpt lat="43.582740527941674" lon="11.772584608979596"><ele>533.0</ele><time>2026-04-19T13:56:02.999Z</time></trkpt><trkpt lat="43.58275026895145" lon="11.772442983720737"><ele>533.0</ele><time>2026-04-19T13:56:03.999Z</time></trkpt><trkpt lat="43.58274465155804" lon="11.772311756880608"><ele>533.0</ele><time>2026-04-19T13:56:04.999Z</time></trkpt><trkpt lat="43.58270117900201" lon="11.772184444885822"><ele>534.75</ele><time>2026-04-19T13:56:05.999Z</time></trkpt><trkpt lat="43.58262658827618" lon="11.772063263718834"><ele>536.5</ele><time>2026-04-19T13:56:06.999Z</time></trkpt><trkpt lat="43.58253675056159" lon="11.771946214147516"><ele>538.25</ele><time>2026-04-19T13:56:07.999Z</time></trkpt><trkpt lat="43.58244521344953" lon="11.771829463456893"><ele>540.0</ele><time>2026-04-19T13:56:08.999Z</time></trkpt><trkpt lat="43.582350571994475" lon="11.771702917585616"><ele>540.25</ele><time>2026-04-19T13:56:09.999Z</time></trkpt><trkpt lat="43.582255812518774" lon="11.771573061040916"><ele>540.5</ele><time>2026-04-19T13:56:10.999Z</time></trkpt><trkpt lat="43.582159779062934" lon="11.771447823749549"><ele>540.75</ele><time>2026-04-19T13:56:11.999Z</time></trkpt><trkpt lat="43.58206328744713" lon="11.771325960684973"><ele>541.0</ele><time>2026-04-19T13:56:12.999Z</time></trkpt><trkpt lat="43.58196750602571" lon="11.771206548535615"><ele>541.0</ele><time>2026-04-19T13:56:13.999Z</time></trkpt><trkpt lat="43.58187251081212" lon="11.771087476172443"><ele>541.0</ele><time>2026-04-19T13:56:14.999Z</time></trkpt><trkpt lat="43.58178605685583" lon="11.770961783559057"><ele>541.0</ele><time>2026-04-19T13:56:15.999Z</time></trkpt><trkpt lat="43.581719329075824" lon="11.770820540702761"><ele>541.0</ele><time>2026-04-19T13:56:16.999Z</time></trkpt><trkpt lat="43.581665145080024" lon="11.77066549323758"><ele>544.0</ele><time>2026-04-19T13:56:17.999Z</time></trkpt><trkpt lat="43.58161958579501" lon="11.770505437779331"><ele>547.0</ele><time>2026-04-19T13:56:18.999Z</time></trkpt><trkpt lat="43.5815753720374" lon="11.770342356700422"><ele>550.0</ele><time>2026-04-19T13:56:19.999Z</time></trkpt><trkpt lat="43.581529304936396" lon="11.770176285640815"><ele>553.0</ele><time>2026-04-19T13:56:20.999Z</time></trkpt><trkpt lat="43.58148425156777" lon="11.770009972735265"><ele>554.25</ele><time>2026-04-19T13:56:21.999Z</time></trkpt><trkpt lat="43.58143961673473" lon="11.769841211079957"><ele>555.5</ele><time>2026-04-19T13:56:22.999Z</time></trkpt><trkpt lat="43.58139203771444" lon="11.76967372157008"><ele>556.75</ele><time>2026-04-19T13:56:23.999Z</time></trkpt><trkpt lat="43.58134330854299" lon="11.769504927118293"><ele>558.0</ele><time>2026-04-19T13:56:24.999Z</time></trkpt><trkpt lat="43.58130156242944" lon="11.769328914401651"><ele>559.75</ele><time>2026-04-19T13:56:25.999Z</time></trkpt><trkpt lat="43.581279507404474" lon="11.769145002089848"><ele>561.5</ele><time>2026-04-19T13:56:26.999Z</time></trkpt><trkpt lat="43.581276135307974" lon="11.768957509354161"><ele>563.25</ele><time>2026-04-19T13:56:27.999Z</time></trkpt><trkpt lat="43.58129209068048" lon="11.768775296147652"><ele>565.0</ele><time>2026-04-19T13:56:28.999Z</time></trkpt><trkpt lat="43.58133224447263" lon="11.76860374221719"><ele>563.75</ele><time>2026-04-19T13:56:29.999Z</time></trkpt><trkpt lat="43.58138943006124" lon="11.768443967608324"><ele>562.5</ele><time>2026-04-19T13:56:30.999Z</time></trkpt><trkpt lat="43.58145709386817" lon="11.768295918641588"><ele>561.25</ele><time>2026-04-19T13:56:31.999Z</time></trkpt><trkpt lat="43.581541138491644" lon="11.768167129437128"><ele>560.0</ele><time>2026-04-19T13:56:32.999Z</time></trkpt><trkpt lat="43.58163442908777" lon="11.768056574458571"><ele>560.0</ele><time>2026-04-19T13:56:33.999Z</time></trkpt><trkpt lat="43.581735328311574" lon="11.767959141311461"><ele>560.0</ele><time>2026-04-19T13:56:34.999Z</time></trkpt><trkpt lat="43.58183969986759" lon="11.767876639963367"><ele>560.0</ele><time>2026-04-19T13:56:35.999Z</time></trkpt><trkpt lat="43.58194633351238" lon="11.767799665156744"><ele>560.0</ele><time>2026-04-19T13:56:36.999Z</time></trkpt><trkpt lat="43.58205271124142" lon="11.767726223686829"><ele>561.2</ele><time>2026-04-19T13:56:37.999Z</time></trkpt><trkpt lat="43.58215715942253" lon="11.767650179139135"><ele>562.4</ele><time>2026-04-19T13:56:38.999Z</time></trkpt><trkpt lat="43.582257463421236" lon="11.767579865405132"><ele>563.6</ele><time>2026-04-19T13:56:39.999Z</time></trkpt><trkpt lat="43.58234882711944" lon="11.76752211565834"><ele>564.8</ele><time>2026-04-19T13:56:40.999Z</time></trkpt><trkpt lat="43.58243716246121" lon="11.767455463794981"><ele>566.0</ele><time>2026-04-19T13:56:41.999Z</time></trkpt><trkpt lat="43.58250372722967" lon="11.76735762145704"><ele>566.0</ele><time>2026-04-19T13:56:42.998Z</time></trkpt><trkpt lat="43.58253348818264" lon="11.767232188593548"><ele>566.0</ele><time>2026-04-19T13:56:43.998Z</time></trkpt><trkpt lat="43.58252903726478" lon="11.767091374031416"><ele>566.0</ele><time>2026-04-19T13:56:44.998Z</time></trkpt><trkpt lat="43.582508145898714" lon="11.766941013217055"><ele>566.0</ele><time>2026-04-19T13:56:45.998Z</time></trkpt><trkpt lat="43.58248005314564" lon="11.76677556905612"><ele>566.0</ele><time>2026-04-19T13:56:46.998Z</time></trkpt><trkpt lat="43.58245886413302" lon="11.76660222449908"><ele>567.0</ele><time>2026-04-19T13:56:47.998Z</time></trkpt><trkpt lat="43.58243753443491" lon="11.766427476589667"><ele>568.0</ele><time>2026-04-19T13:56:48.998Z</time></trkpt><trkpt lat="43.582421359201355" lon="11.766249798534254"><ele>569.0</ele><time>2026-04-19T13:56:49.998Z</time></trkpt><trkpt lat="43.58240221744122" lon="11.766071333485295"><ele>570.0</ele><time>2026-04-19T13:56:50.998Z</time></trkpt><trkpt lat="43.582379840156264" lon="11.765895648784184"><ele>571.4</ele><time>2026-04-19T13:56:51.998Z</time></trkpt><trkpt lat="43.58236334135358" lon="11.765727451774877"><ele>572.8</ele><time>2026-04-19T13:56:52.998Z</time></trkpt><trkpt lat="43.58234470703703" lon="11.76558066539325"><ele>574.2</ele><time>2026-04-19T13:56:53.998Z</time></trkpt><trkpt lat="43.58231484527629" lon="11.765457937206833"><ele>575.6</ele><time>2026-04-19T13:56:54.998Z</time></trkpt><trkpt lat="43.58227709787311" lon="11.765345283965503"><ele>577.0</ele><time>2026-04-19T13:56:55.998Z</time></trkpt><trkpt lat="43.58217909578931" lon="11.765283222119727"><ele>577.0</ele><time>2026-04-19T13:56:56.998Z</time></trkpt><trkpt lat="43.58208411629653" lon="11.765226551593228"><ele>577.0</ele><time>2026-04-19T13:56:57.998Z</time></trkpt><trkpt lat="43.58198417591876" lon="11.765177546285974"><ele>577.0</ele><time>2026-04-19T13:56:58.998Z</time></trkpt><trkpt lat="43.58189978347042" lon="11.765089425500275"><ele>577.0</ele><time>2026-04-19T13:56:59.998Z</time></trkpt><trkpt lat="43.581828714761244" lon="11.764991544404113"><ele>577.0</ele><time>2026-04-19T13:57:00.998Z</time></trkpt><trkpt lat="43.58177659159887" lon="11.764859506044466"><ele>577.5</ele><time>2026-04-19T13:57:01.998Z</time></trkpt><trkpt lat="43.58175701969136" lon="11.764702440387095"><ele>578.0</ele><time>2026-04-19T13:57:02.998Z</time></trkpt><trkpt lat="43.58174802283284" lon="11.764531358768238"><ele>578.5</ele><time>2026-04-19T13:57:03.998Z</time></trkpt><trkpt lat="43.58173752031939" lon="11.764363932830392"><ele>579.0</ele><time>2026-04-19T13:57:04.998Z</time></trkpt><trkpt lat="43.58172223920765" lon="11.764197440048543"><ele>579.0</ele><time>2026-04-19T13:57:05.998Z</time></trkpt><trkpt lat="43.58169015594159" lon="11.764036911523348"><ele>579.0</ele><time>2026-04-19T13:57:06.998Z</time></trkpt><trkpt lat="43.58163953223832" lon="11.763887332026197"><ele>579.0</ele><time>2026-04-19T13:57:07.998Z</time></trkpt><trkpt lat="43.581577015936695" lon="11.763750570803689"><ele>579.0</ele><time>2026-04-19T13:57:08.998Z</time></trkpt><trkpt lat="43.581520163065996" lon="11.763613965610924"><ele>581.0</ele><time>2026-04-19T13:57:10Z</time></trkpt><trkpt lat="43.581478427673495" lon="11.763470399455839"><ele>583.0</ele><time>2026-04-19T13:57:11Z</time></trkpt><trkpt lat="43.581465325114074" lon="11.763313486457124"><ele>585.0</ele><time>2026-04-19T13:57:12Z</time></trkpt><trkpt lat="43.58148191798679" lon="11.763159769263192"><ele>587.0</ele><time>2026-04-19T13:57:13Z</time></trkpt><trkpt lat="43.58150555617756" lon="11.763009219220036"><ele>587.0</ele><time>2026-04-19T13:57:14Z</time></trkpt><trkpt lat="43.58151345356301" lon="11.762858541365855"><ele>587.0</ele><time>2026-04-19T13:57:15Z</time></trkpt><trkpt lat="43.5814965011829" lon="11.762705029322067"><ele>587.0</ele><time>2026-04-19T13:57:16Z</time></trkpt><trkpt lat="43.58146189370865" lon="11.762547026884214"><ele>587.0</ele><time>2026-04-19T13:57:17Z</time></trkpt><trkpt lat="43.58140856908774" lon="11.762392238437656"><ele>588.5</ele><time>2026-04-19T13:57:18Z</time></trkpt><trkpt lat="43.58134659765387" lon="11.762250426841657"><ele>590.0</ele><time>2026-04-19T13:57:19Z</time></trkpt><trkpt lat="43.581284095766094" lon="11.76210455096547"><ele>591.5</ele><time>2026-04-19T13:57:20Z</time></trkpt><trkpt lat="43.581226557555816" lon="11.761958656869382"><ele>593.0</ele><time>2026-04-19T13:57:21Z</time></trkpt><trkpt lat="43.581162555031746" lon="11.761821921330192"><ele>593.0</ele><time>2026-04-19T13:57:22Z</time></trkpt><trkpt lat="43.5810765961233" lon="11.761708630589194"><ele>593.0</ele><time>2026-04-19T13:57:23Z</time></trkpt><trkpt lat="43.580979585636726" lon="11.761612011749975"><ele>593.0</ele><time>2026-04-19T13:57:24Z</time></trkpt><trkpt lat="43.580863705909444" lon="11.761553528650671"><ele>593.0</ele><time>2026-04-19T13:57:25Z</time></trkpt><trkpt lat="43.58075098201235" lon="11.761521825311762"><ele>593.0</ele><time>2026-04-19T13:57:26Z</time></trkpt><trkpt lat="43.58063104396484" lon="11.761496071718396"><ele>593.0</ele><time>2026-04-19T13:57:27Z</time></trkpt><trkpt lat="43.58051269786349" lon="11.761471711583395"><ele>593.0</ele><time>2026-04-19T13:57:28Z</time></trkpt><trkpt lat="43.580396048028085" lon="11.761447700614044"><ele>593.0</ele><time>2026-04-19T13:57:29Z</time></trkpt><trkpt lat="43.58028151278168" lon="11.76142446639331"><ele>592.8</ele><time>2026-04-19T13:57:30Z</time></trkpt><trkpt lat="43.58017375952078" lon="11.761422010743496"><ele>592.5999999999999</ele><time>2026-04-19T13:57:31Z</time></trkpt><trkpt lat="43.58006783751318" lon="11.76137292684347"><ele>592.4000000000001</ele><time>2026-04-19T13:57:32Z</time></trkpt><trkpt lat="43.579964637181774" lon="11.761342463663665"><ele>592.2</ele><time>2026-04-19T13:57:33Z</time></trkpt><trkpt lat="43.579889102636955" lon="11.761254905565345"><ele>592.0</ele><time>2026-04-19T13:57:34Z</time></trkpt><trkpt lat="43.579821208075636" lon="11.761182883469445"><ele>592.0</ele><time>2026-04-19T13:57:35Z</time></trkpt><trkpt lat="43.57974363673256" lon="11.761122907880175"><ele>592.0</ele><time>2026-04-19T13:57:36Z</time></trkpt><trkpt lat="43.57964604413955" lon="11.76111472839345"><ele>592.0</ele><time>2026-04-19T13:57:37Z</time></trkpt><trkpt lat="43.579547147976285" lon="11.761185310084816"><ele>592.0</ele><time>2026-04-19T13:57:38Z</time></trkpt><trkpt lat="43.579473224068174" lon="11.761284604367997"><ele>592.0</ele><time>2026-04-19T13:57:39Z</time></trkpt><trkpt lat="43.579390127734044" lon="11.761375428367199"><ele>593.2</ele><time>2026-04-19T13:57:40Z</time></trkpt><trkpt lat="43.57930212043961" lon="11.761448319725895"><ele>594.4000000000001</ele><time>2026-04-19T13:57:41Z</time></trkpt><trkpt lat="43.5791934422609" lon="11.761440309258662"><ele>595.5999999999999</ele><time>2026-04-19T13:57:42Z</time></trkpt><trkpt lat="43.57908610796969" lon="11.761435390784909"><ele>596.8</ele><time>2026-04-19T13:57:43Z</time></trkpt><trkpt lat="43.57897916531939" lon="11.761445746191669"><ele>598.0</ele><time>2026-04-19T13:57:44Z</time></trkpt><trkpt lat="43.57887782246321" lon="11.761466229873516"><ele>598.0</ele><time>2026-04-19T13:57:45Z</time></trkpt><trkpt lat="43.57879079260881" lon="11.76153852342838"><ele>598.0</ele><time>2026-04-19T13:57:46Z</time></trkpt><trkpt lat="43.57872240052283" lon="11.76164316139153"><ele>598.0</ele><time>2026-04-19T13:57:47Z</time></trkpt><trkpt lat="43.578648071333106" lon="11.761733270345866"><ele>598.0</ele><time>2026-04-19T13:57:48Z</time></trkpt><trkpt lat="43.57857503688959" lon="11.761802473642577"><ele>598.0</ele><time>2026-04-19T13:57:49Z</time></trkpt><trkpt lat="43.578488031416214" lon="11.761844512298074"><ele>596.4</ele><time>2026-04-19T13:57:50Z</time></trkpt><trkpt lat="43.57839422955093" lon="11.761887805320638"><ele>594.8</ele><time>2026-04-19T13:57:51Z</time></trkpt><trkpt lat="43.57828936151814" lon="11.761860457837923"><ele>593.2</ele><time>2026-04-19T13:57:52Z</time></trkpt><trkpt lat="43.578184750467024" lon="11.76188096716813"><ele>591.6</ele><time>2026-04-19T13:57:53Z</time></trkpt><trkpt lat="43.57808795382842" lon="11.761886877886909"><ele>590.0</ele><time>2026-04-19T13:57:54Z</time></trkpt><trkpt lat="43.57799669561777" lon="11.761919913838353"><ele>590.0</ele><time>2026-04-19T13:57:55Z</time></trkpt><trkpt lat="43.57790998691306" lon="11.761967169299949"><ele>590.0</ele><time>2026-04-19T13:57:56Z</time></trkpt><trkpt lat="43.577845782914004" lon="11.762069489001258"><ele>590.0</ele><time>2026-04-19T13:57:57Z</time></trkpt><trkpt lat="43.57781575091719" lon="11.762204188614495"><ele>590.0</ele><time>2026-04-19T13:57:58Z</time></trkpt><trkpt lat="43.57777020097511" lon="11.76232099424316"><ele>590.0</ele><time>2026-04-19T13:57:59Z</time></trkpt><trkpt lat="43.57769914541373" lon="11.762403400916225"><ele>592.1666666666666</ele><time>2026-04-19T13:58:00Z</time></trkpt><trkpt lat="43.57764126669339" lon="11.762470410561141"><ele>594.3333333333333</ele><time>2026-04-19T13:58:01Z</time></trkpt><trkpt lat="43.57758173828544" lon="11.762525473994046"><ele>596.5</ele><time>2026-04-19T13:58:02Z</time></trkpt><trkpt lat="43.57746641186144" lon="11.762582036852738"><ele>598.6666666666666</ele><time>2026-04-19T13:58:03.999Z</time></trkpt><trkpt lat="43.5774047361673" lon="11.762532270765847"><ele>600.8333333333334</ele><time>2026-04-19T13:58:04.999Z</time></trkpt><trkpt lat="43.57736404422799" lon="11.762435713476279"><ele>603.0</ele><time>2026-04-19T13:58:05.999Z</time></trkpt><trkpt lat="43.57735870258714" lon="11.762312865569976"><ele>603.0</ele><time>2026-04-19T13:58:06.999Z</time></trkpt><trkpt lat="43.57737907049402" lon="11.762176347398054"><ele>603.0</ele><time>2026-04-19T13:58:07.999Z</time></trkpt><trkpt lat="43.577391314780265" lon="11.762017995596137"><ele>603.0</ele><time>2026-04-19T13:58:08.999Z</time></trkpt><trkpt lat="43.57739877576041" lon="11.761846977819578"><ele>603.0</ele><time>2026-04-19T13:58:09.999Z</time></trkpt><trkpt lat="43.577403688728396" lon="11.761683127663108"><ele>604.25</ele><time>2026-04-19T13:58:10.999Z</time></trkpt><trkpt lat="43.57742134620109" lon="11.761519329804528"><ele>605.5</ele><time>2026-04-19T13:58:11.999Z</time></trkpt><trkpt lat="43.57748052663463" lon="11.76138074630102"><ele>606.75</ele><time>2026-04-19T13:58:12.999Z</time></trkpt><trkpt lat="43.57756889849483" lon="11.76127488273395"><ele>608.0</ele><time>2026-04-19T13:58:13.999Z</time></trkpt><trkpt lat="43.57766817879428" lon="11.761183780014697"><ele>608.0</ele><time>2026-04-19T13:58:14.999Z</time></trkpt><trkpt lat="43.5777629243037" lon="11.761083377975371"><ele>608.0</ele><time>2026-04-19T13:58:15.999Z</time></trkpt><trkpt lat="43.577844259217265" lon="11.76095320381887"><ele>608.0</ele><time>2026-04-19T13:58:16.999Z</time></trkpt><trkpt lat="43.57790714157388" lon="11.760805457603649"><ele>608.0</ele><time>2026-04-19T13:58:17.999Z</time></trkpt><trkpt lat="43.577967033403496" lon="11.760651974157142"><ele>611.3333333333333</ele><time>2026-04-19T13:58:18.999Z</time></trkpt><trkpt lat="43.57803525453047" lon="11.760481967349268"><ele>614.6666666666666</ele><time>2026-04-19T13:58:19.999Z</time></trkpt><trkpt lat="43.57813161440881" lon="11.760309839170457"><ele>618.0</ele><time>2026-04-19T13:58:20.999Z</time></trkpt><trkpt lat="43.578226476054695" lon="11.760095231780491"><ele>618.0</ele><time>2026-04-19T13:58:21.999Z</time></trkpt><trkpt lat="43.57831453821563" lon="11.759864162034658"><ele>618.0</ele><time>2026-04-19T13:58:22.999Z</time></trkpt><trkpt lat="43.578423325558255" lon="11.75965338081054"><ele>618.0</ele><time>2026-04-19T13:58:23.999Z</time></trkpt><trkpt lat="43.578519543913785" lon="11.759438425935311"><ele>616.3333333333334</ele><time>2026-04-19T13:58:24.999Z</time></trkpt><trkpt lat="43.57861352425656" lon="11.759226065185976"><ele>614.6666666666667</ele><time>2026-04-19T13:58:25.999Z</time></trkpt><trkpt lat="43.578702533518" lon="11.759038061821762"><ele>613.0</ele><time>2026-04-19T13:58:26.999Z</time></trkpt><trkpt lat="43.578775405050045" lon="11.758854288508198"><ele>617.0</ele><time>2026-04-19T13:58:27.999Z</time></trkpt><trkpt lat="43.57882901311843" lon="11.758657915492583"><ele>621.0</ele><time>2026-04-19T13:58:28.999Z</time></trkpt><trkpt lat="43.57884867580395" lon="11.758466144253482"><ele>625.0</ele><time>2026-04-19T13:58:29.999Z</time></trkpt><trkpt lat="43.57884524793833" lon="11.758271186149837"><ele>629.0</ele><time>2026-04-19T13:58:30.999Z</time></trkpt><trkpt lat="43.57880979856341" lon="11.75807748909808"><ele>630.6666666666666</ele><time>2026-04-19T13:58:31.999Z</time></trkpt><trkpt lat="43.578745222789244" lon="11.757892780311762"><ele>632.3333333333334</ele><time>2026-04-19T13:58:32.999Z</time></trkpt><trkpt lat="43.57864669359508" lon="11.757720297007683"><ele>634.0</ele><time>2026-04-19T13:58:33.999Z</time></trkpt><trkpt lat="43.578563271935394" lon="11.757556740253701"><ele>630.5</ele><time>2026-04-19T13:58:34.999Z</time></trkpt><trkpt lat="43.57847808917983" lon="11.757439587144365"><ele>627.0</ele><time>2026-04-19T13:58:35.999Z</time></trkpt><trkpt lat="43.57843635597082" lon="11.75730745343355"><ele>623.5</ele><time>2026-04-19T13:58:36.999Z</time></trkpt><trkpt lat="43.57843945416164" lon="11.757148841570354"><ele>620.0</ele><time>2026-04-19T13:58:37.999Z</time></trkpt><trkpt lat="43.57848444977808" lon="11.756988013480322"><ele>621.75</ele><time>2026-04-19T13:58:38.999Z</time></trkpt><trkpt lat="43.57855320902654" lon="11.75683188379041"><ele>623.5</ele><time>2026-04-19T13:58:39.999Z</time></trkpt><trkpt lat="43.57860976301507" lon="11.756677746406902"><ele>625.25</ele><time>2026-04-19T13:58:40.999Z</time></trkpt><trkpt lat="43.578639859642905" lon="11.756524989684463"><ele>627.0</ele><time>2026-04-19T13:58:41.999Z</time></trkpt><trkpt lat="43.57862986282494" lon="11.756348538103564"><ele>627.0</ele><time>2026-04-19T13:58:42.999Z</time></trkpt><trkpt lat="43.57858032121008" lon="11.756167096941283"><ele>627.0</ele><time>2026-04-19T13:58:43.999Z</time></trkpt><trkpt lat="43.5785038427955" lon="11.755991914840976"><ele>627.0</ele><time>2026-04-19T13:58:44.999Z</time></trkpt><trkpt lat="43.5784517304421" lon="11.755809813963415"><ele>627.0</ele><time>2026-04-19T13:58:45.999Z</time></trkpt><trkpt lat="43.57844053587987" lon="11.755607325244794"><ele>628.5</ele><time>2026-04-19T13:58:46.999Z</time></trkpt><trkpt lat="43.57846244737822" lon="11.755420002514263"><ele>630.0</ele><time>2026-04-19T13:58:47.999Z</time></trkpt><trkpt lat="43.5784792081558" lon="11.755244598221712"><ele>631.5</ele><time>2026-04-19T13:58:48.999Z</time></trkpt><trkpt lat="43.57845216967489" lon="11.755057340708458"><ele>633.0</ele><time>2026-04-19T13:58:49.999Z</time></trkpt><trkpt lat="43.578393692087545" lon="11.754874755963773"><ele>633.5</ele><time>2026-04-19T13:58:50.999Z</time></trkpt><trkpt lat="43.57833077824269" lon="11.75471535704965"><ele>634.0</ele><time>2026-04-19T13:58:51.999Z</time></trkpt><trkpt lat="43.57829862103431" lon="11.754549959284773"><ele>634.5</ele><time>2026-04-19T13:58:52.999Z</time></trkpt><trkpt lat="43.57830002886384" lon="11.754360201475496"><ele>635.0</ele><time>2026-04-19T13:58:53.999Z</time></trkpt><trkpt lat="43.57834634561869" lon="11.754164440156767"><ele>636.0</ele><time>2026-04-19T13:58:54.999Z</time></trkpt><trkpt lat="43.57839637677142" lon="11.753986175254946"><ele>637.0</ele><time>2026-04-19T13:58:55.999Z</time></trkpt><trkpt lat="43.57843159011819" lon="11.753823089824422"><ele>638.0</ele><time>2026-04-19T13:58:56.998Z</time></trkpt><trkpt lat="43.57843598285016" lon="11.753647907779655"><ele>639.0</ele><time>2026-04-19T13:58:57.998Z</time></trkpt><trkpt lat="43.578413802270575" lon="11.753467167953342"><ele>640.0</ele><time>2026-04-19T13:58:58.998Z</time></trkpt><trkpt lat="43.57838053391484" lon="11.753308932099708"><ele>641.0</ele><time>2026-04-19T13:58:59.998Z</time></trkpt><trkpt lat="43.578361838379244" lon="11.753160902320609"><ele>642.0</ele><time>2026-04-19T13:59:00.998Z</time></trkpt><trkpt lat="43.57836741437235" lon="11.753006437194683"><ele>643.0</ele><time>2026-04-19T13:59:01.998Z</time></trkpt><trkpt lat="43.578408214547764" lon="11.752839979379809"><ele>644.4</ele><time>2026-04-19T13:59:02.998Z</time></trkpt><trkpt lat="43.57845736228809" lon="11.752687716638304"><ele>645.8</ele><time>2026-04-19T13:59:03.998Z</time></trkpt><trkpt lat="43.57848583116717" lon="11.75254134636966"><ele>647.2</ele><time>2026-04-19T13:59:04.998Z</time></trkpt><trkpt lat="43.578532013353204" lon="11.752415967613336"><ele>648.6</ele><time>2026-04-19T13:59:05.998Z</time></trkpt><trkpt lat="43.57861422427671" lon="11.752321165084602"><ele>650.0</ele><time>2026-04-19T13:59:06.998Z</time></trkpt><trkpt lat="43.57872431948123" lon="11.752271704458188"><ele>644.6</ele><time>2026-04-19T13:59:07.998Z</time></trkpt><trkpt lat="43.57883564754586" lon="11.752253001317158"><ele>639.2</ele><time>2026-04-19T13:59:08.998Z</time></trkpt><trkpt lat="43.578931890196145" lon="11.752221166371168"><ele>633.8</ele><time>2026-04-19T13:59:09.998Z</time></trkpt><trkpt lat="43.57900142186567" lon="11.752155894334322"><ele>628.4</ele><time>2026-04-19T13:59:10.998Z</time></trkpt><trkpt lat="43.57903145982055" lon="11.752055756123235"><ele>623.0</ele><time>2026-04-19T13:59:11.998Z</time></trkpt><trkpt lat="43.579022421746366" lon="11.751927216567129"><ele>624.1999999999999</ele><time>2026-04-19T13:59:12.998Z</time></trkpt><trkpt lat="43.578976087477834" lon="11.751799323581801"><ele>625.4</ele><time>2026-04-19T13:59:13.998Z</time></trkpt><trkpt lat="43.578908491790955" lon="11.751699248855823"><ele>626.5999999999999</ele><time>2026-04-19T13:59:14.998Z</time></trkpt><trkpt lat="43.57884920387694" lon="11.751596678533167"><ele>627.8</ele><time>2026-04-19T13:59:16Z</time></trkpt><trkpt lat="43.57881665001865" lon="11.751487316623"><ele>629.0</ele><time>2026-04-19T13:59:17Z</time></trkpt><trkpt lat="43.57882351459458" lon="11.75137093347598"><ele>629.0</ele><time>2026-04-19T13:59:18Z</time></trkpt><trkpt lat="43.57887957915202" lon="11.751262906627666"><ele>629.0</ele><time>2026-04-19T13:59:19Z</time></trkpt><trkpt lat="43.578969221005146" lon="11.751181314430621"><ele>629.0</ele><time>2026-04-19T13:59:20Z</time></trkpt><trkpt lat="43.57904740697616" lon="11.751093569070306"><ele>629.0</ele><time>2026-04-19T13:59:21Z</time></trkpt><trkpt lat="43.579098122122005" lon="11.750994644014357"><ele>629.0</ele><time>2026-04-19T13:59:22Z</time></trkpt><trkpt lat="43.57910973302121" lon="11.750892981077019"><ele>629.8</ele><time>2026-04-19T13:59:23Z</time></trkpt><trkpt lat="43.57911578791222" lon="11.750782630696541"><ele>630.5999999999999</ele><time>2026-04-19T13:59:24Z</time></trkpt><trkpt lat="43.579078353547416" lon="11.75066430998099"><ele>631.4</ele><time>2026-04-19T13:59:25Z</time></trkpt><trkpt lat="43.57902518656454" lon="11.750527754281727"><ele>632.1999999999999</ele><time>2026-04-19T13:59:26Z</time></trkpt><trkpt lat="43.57896380321376" lon="11.750400933868509"><ele>633.0</ele><time>2026-04-19T13:59:27Z</time></trkpt><trkpt lat="43.5788870050831" lon="11.750278554290624"><ele>633.5</ele><time>2026-04-19T13:59:28Z</time></trkpt><trkpt lat="43.57881745307081" lon="11.750189342776702"><ele>634.0</ele><time>2026-04-19T13:59:29Z</time></trkpt><trkpt lat="43.57875146511731" lon="11.750113419060119"><ele>634.5</ele><time>2026-04-19T13:59:30Z</time></trkpt><trkpt lat="43.578705680464466" lon="11.750039813800576"><ele>635.0</ele><time>2026-04-19T13:59:31Z</time></trkpt><trkpt lat="43.578687750128836" lon="11.749946229378578"><ele>635.5</ele><time>2026-04-19T13:59:32Z</time></trkpt><trkpt lat="43.578697048729985" lon="11.749818394461062"><ele>636.0</ele><time>2026-04-19T13:59:33Z</time></trkpt><trkpt lat="43.57872854845946" lon="11.74968864712105"><ele>636.0</ele><time>2026-04-19T13:59:34Z</time></trkpt><trkpt lat="43.57879174902447" lon="11.74957508931623"><ele>636.0</ele><time>2026-04-19T13:59:35Z</time></trkpt><trkpt lat="43.57888019796501" lon="11.749483315825996"><ele>636.0</ele><time>2026-04-19T13:59:36Z</time></trkpt><trkpt lat="43.57898654378659" lon="11.749419044154063"><ele>636.0</ele><time>2026-04-19T13:59:37Z</time></trkpt><trkpt lat="43.57911590153361" lon="11.749400828257478"><ele>636.0</ele><time>2026-04-19T13:59:38Z</time></trkpt><trkpt lat="43.57926029082444" lon="11.749413549262615"><ele>636.0</ele><time>2026-04-19T13:59:39Z</time></trkpt><trkpt lat="43.57940559112065" lon="11.749444233492525"><ele>636.0</ele><time>2026-04-19T13:59:40Z</time></trkpt><trkpt lat="43.57954761311086" lon="11.749457947803641"><ele>636.0</ele><time>2026-04-19T13:59:41Z</time></trkpt><trkpt lat="43.57969421946269" lon="11.749462328774898"><ele>634.75</ele><time>2026-04-19T13:59:42Z</time></trkpt><trkpt lat="43.57984176440603" lon="11.749473301561633"><ele>633.5</ele><time>2026-04-19T13:59:43Z</time></trkpt><trkpt lat="43.5799752224371" lon="11.749482712944948"><ele>632.25</ele><time>2026-04-19T13:59:44Z</time></trkpt><trkpt lat="43.58009375364457" lon="11.749477535791243"><ele>631.0</ele><time>2026-04-19T13:59:45Z</time></trkpt><trkpt lat="43.580202228206566" lon="11.74943350990917"><ele>631.0</ele><time>2026-04-19T13:59:46Z</time></trkpt><trkpt lat="43.580302280416085" lon="11.74934247600098"><ele>631.0</ele><time>2026-04-19T13:59:47Z</time></trkpt><trkpt lat="43.58039585982841" lon="11.74923430586333"><ele>631.0</ele><time>2026-04-19T13:59:48Z</time></trkpt><trkpt lat="43.58046449812486" lon="11.74913848778999"><ele>631.0</ele><time>2026-04-19T13:59:49Z</time></trkpt><trkpt lat="43.580520367038375" lon="11.74903976969389"><ele>631.0</ele><time>2026-04-19T13:59:50Z</time></trkpt><trkpt lat="43.58056389370116" lon="11.748923730512049"><ele>631.0</ele><time>2026-04-19T13:59:51Z</time></trkpt><trkpt lat="43.58058108204914" lon="11.748791669115976"><ele>631.0</ele><time>2026-04-19T13:59:52Z</time></trkpt><trkpt lat="43.58057230919412" lon="11.748645305629642"><ele>631.0</ele><time>2026-04-19T13:59:53Z</time></trkpt><trkpt lat="43.580534422265096" lon="11.748497509077177"><ele>631.0</ele><time>2026-04-19T13:59:54Z</time></trkpt><trkpt lat="43.58048924484901" lon="11.748341595195305"><ele>631.0</ele><time>2026-04-19T13:59:55Z</time></trkpt><trkpt lat="43.58044868235631" lon="11.748191574999742"><ele>632.3333333333334</ele><time>2026-04-19T13:59:56Z</time></trkpt><trkpt lat="43.58043836965609" lon="11.748055891205128"><ele>633.6666666666667</ele><time>2026-04-19T13:59:57Z</time></trkpt><trkpt lat="43.58041692919427" lon="11.747952278020982"><ele>635.0</ele><time>2026-04-19T13:59:58Z</time></trkpt><trkpt lat="43.58044588302436" lon="11.747856585787773"><ele>636.3333333333334</ele><time>2026-04-19T13:59:59Z</time></trkpt><trkpt lat="43.58051786340816" lon="11.747790558301505"><ele>637.6666666666666</ele><time>2026-04-19T14:00:00Z</time></trkpt><trkpt lat="43.58060643735516" lon="11.747757939190842"><ele>639.0</ele><time>2026-04-19T14:00:01Z</time></trkpt><trkpt lat="43.58071464173044" lon="11.74774726822446"><ele>639.0</ele><time>2026-04-19T14:00:02Z</time></trkpt><trkpt lat="43.58084153907938" lon="11.747741848351554"><ele>639.0</ele><time>2026-04-19T14:00:03Z</time></trkpt><trkpt lat="43.580981509385836" lon="11.747753865735632"><ele>639.0</ele><time>2026-04-19T14:00:04Z</time></trkpt><trkpt lat="43.58111076710959" lon="11.74777978295715"><ele>639.0</ele><time>2026-04-19T14:00:05Z</time></trkpt><trkpt lat="43.5812281673624" lon="11.747800028194705"><ele>638.6</ele><time>2026-04-19T14:00:06Z</time></trkpt><trkpt lat="43.581335575111495" lon="11.747807526303607"><ele>638.2</ele><time>2026-04-19T14:00:07Z</time></trkpt><trkpt lat="43.58143222501976" lon="11.747792536763209"><ele>637.8000000000001</ele><time>2026-04-19T14:00:08Z</time></trkpt><trkpt lat="43.58152323817062" lon="11.747722214380063"><ele>637.4</ele><time>2026-04-19T14:00:09Z</time></trkpt><trkpt lat="43.58160266034042" lon="11.747621222908169"><ele>637.0</ele><time>2026-04-19T14:00:10Z</time></trkpt><trkpt lat="43.58164858824321" lon="11.74750757611268"><ele>637.0</ele><time>2026-04-19T14:00:11Z</time></trkpt><trkpt lat="43.581666578374396" lon="11.74737940620809"><ele>637.0</ele><time>2026-04-19T14:00:12Z</time></trkpt><trkpt lat="43.58164858163058" lon="11.74724083042638"><ele>637.0</ele><time>2026-04-19T14:00:13Z</time></trkpt><trkpt lat="43.581591429121836" lon="11.74711726388299"><ele>637.0</ele><time>2026-04-19T14:00:13.999Z</time></trkpt><trkpt lat="43.58150742721846" lon="11.747005271099448"><ele>637.0</ele><time>2026-04-19T14:00:14.999Z</time></trkpt><trkpt lat="43.581417716130616" lon="11.74687411030236"><ele>635.25</ele><time>2026-04-19T14:00:15.999Z</time></trkpt><trkpt lat="43.58130727481528" lon="11.746742973229082"><ele>633.5</ele><time>2026-04-19T14:00:16.999Z</time></trkpt><trkpt lat="43.58118623638936" lon="11.746633521786437"><ele>631.75</ele><time>2026-04-19T14:00:17.999Z</time></trkpt><trkpt lat="43.58105617352037" lon="11.74650785893651"><ele>630.0</ele><time>2026-04-19T14:00:18.999Z</time></trkpt><trkpt lat="43.58093837729171" lon="11.746372353719256"><ele>634.25</ele><time>2026-04-19T14:00:19.999Z</time></trkpt><trkpt lat="43.58082961606624" lon="11.746274604674268"><ele>638.5</ele><time>2026-04-19T14:00:20.999Z</time></trkpt><trkpt lat="43.580730450694816" lon="11.746179951111522"><ele>642.75</ele><time>2026-04-19T14:00:21.999Z</time></trkpt><trkpt lat="43.58062991773101" lon="11.746094489205383"><ele>647.0</ele><time>2026-04-19T14:00:22.999Z</time></trkpt><trkpt lat="43.580556597446595" lon="11.74594557168392"><ele>647.0</ele><time>2026-04-19T14:00:23.999Z</time></trkpt><trkpt lat="43.580509846210795" lon="11.745763458558523"><ele>647.0</ele><time>2026-04-19T14:00:24.999Z</time></trkpt><trkpt lat="43.5804527237806" lon="11.745583558687793"><ele>647.0</ele><time>2026-04-19T14:00:25.999Z</time></trkpt><trkpt lat="43.58038776320096" lon="11.745427182203262"><ele>647.0</ele><time>2026-04-19T14:00:26.999Z</time></trkpt><trkpt lat="43.58034363396181" lon="11.74527080514388"><ele>646.75</ele><time>2026-04-19T14:00:27.999Z</time></trkpt><trkpt lat="43.58032415232113" lon="11.745129041254662"><ele>646.5</ele><time>2026-04-19T14:00:28.999Z</time></trkpt><trkpt lat="43.58035120875852" lon="11.744983692688026"><ele>646.25</ele><time>2026-04-19T14:00:29.999Z</time></trkpt><trkpt lat="43.58040188379199" lon="11.744834094955822"><ele>646.0</ele><time>2026-04-19T14:00:30.999Z</time></trkpt><trkpt lat="43.58048343535991" lon="11.744697032786346"><ele>646.0</ele><time>2026-04-19T14:00:31.999Z</time></trkpt><trkpt lat="43.58058222906547" lon="11.74459321444577"><ele>646.0</ele><time>2026-04-19T14:00:32.999Z</time></trkpt><trkpt lat="43.58067857194873" lon="11.744486580768111"><ele>646.0</ele><time>2026-04-19T14:00:33.999Z</time></trkpt><trkpt lat="43.58075241771224" lon="11.744372657271436"><ele>646.0</ele><time>2026-04-19T14:00:34.999Z</time></trkpt><trkpt lat="43.58082265401334" lon="11.744234815263498"><ele>648.0</ele><time>2026-04-19T14:00:35.999Z</time></trkpt><trkpt lat="43.58086307581341" lon="11.744071360362524"><ele>650.0</ele><time>2026-04-19T14:00:36.999Z</time></trkpt><trkpt lat="43.580881206202946" lon="11.743890449039549"><ele>652.0</ele><time>2026-04-19T14:00:37.999Z</time></trkpt><trkpt lat="43.580878289262294" lon="11.743684618964634"><ele>654.0</ele><time>2026-04-19T14:00:38.999Z</time></trkpt><trkpt lat="43.58087382755406" lon="11.743462869420929"><ele>654.75</ele><time>2026-04-19T14:00:39.999Z</time></trkpt><trkpt lat="43.58087992105605" lon="11.743241754099662"><ele>655.5</ele><time>2026-04-19T14:00:40.999Z</time></trkpt><trkpt lat="43.58087971579393" lon="11.743038318519435"><ele>656.25</ele><time>2026-04-19T14:00:41.999Z</time></trkpt><trkpt lat="43.580876449805416" lon="11.742851738777444"><ele>657.0</ele><time>2026-04-19T14:00:42.999Z</time></trkpt><trkpt lat="43.58087350649047" lon="11.742676649081702"><ele>657.0</ele><time>2026-04-19T14:00:43.999Z</time></trkpt><trkpt lat="43.580853258018486" lon="11.742501741423833"><ele>657.0</ele><time>2026-04-19T14:00:44.999Z</time></trkpt><trkpt lat="43.58080904602765" lon="11.74232427235551"><ele>657.0</ele><time>2026-04-19T14:00:45.999Z</time></trkpt><trkpt lat="43.5807456282813" lon="11.742153708515255"><ele>657.0</ele><time>2026-04-19T14:00:46.999Z</time></trkpt><trkpt lat="43.580663204958434" lon="11.741992375582777"><ele>658.5</ele><time>2026-04-19T14:00:47.999Z</time></trkpt><trkpt lat="43.58056406220091" lon="11.741845334532677"><ele>660.0</ele><time>2026-04-19T14:00:48.999Z</time></trkpt><trkpt lat="43.58045805012279" lon="11.741710857854406"><ele>661.5</ele><time>2026-04-19T14:00:49.999Z</time></trkpt><trkpt lat="43.580339746507825" lon="11.741601893966369"><ele>663.0</ele><time>2026-04-19T14:00:50.999Z</time></trkpt><trkpt lat="43.58021858046734" lon="11.741502184529523"><ele>663.0</ele><time>2026-04-19T14:00:51.999Z</time></trkpt><trkpt lat="43.580068072328515" lon="11.741469955906824"><ele>663.0</ele><time>2026-04-19T14:00:52.999Z</time></trkpt><trkpt lat="43.579924987491815" lon="11.741419382578044"><ele>663.0</ele><time>2026-04-19T14:00:53.999Z</time></trkpt><trkpt lat="43.579781161153214" lon="11.741369110633643"><ele>663.0</ele><time>2026-04-19T14:00:54.999Z</time></trkpt><trkpt lat="43.57965026369333" lon="11.741325868020999"><ele>663.0</ele><time>2026-04-19T14:00:55.999Z</time></trkpt><trkpt lat="43.57952582603515" lon="11.741290908989965"><ele>663.0</ele><time>2026-04-19T14:00:56.999Z</time></trkpt><trkpt lat="43.57939227002813" lon="11.741279964745074"><ele>663.0</ele><time>2026-04-19T14:00:57.999Z</time></trkpt><trkpt lat="43.57924811340296" lon="11.741291765033958"><ele>663.0</ele><time>2026-04-19T14:00:58.999Z</time></trkpt><trkpt lat="43.579096104313585" lon="11.741307369360248"><ele>666.0</ele><time>2026-04-19T14:00:59.999Z</time></trkpt><trkpt lat="43.578953758108796" lon="11.741322950687449"><ele>669.0</ele><time>2026-04-19T14:01:00.999Z</time></trkpt><trkpt lat="43.57882797910021" lon="11.741340796616763"><ele>672.0</ele><time>2026-04-19T14:01:01.999Z</time></trkpt><trkpt lat="43.57871650466232" lon="11.741303368757691"><ele>675.0</ele><time>2026-04-19T14:01:02.999Z</time></trkpt><trkpt lat="43.57860669172993" lon="11.74123752944131"><ele>679.6666666666666</ele><time>2026-04-19T14:01:03.999Z</time></trkpt><trkpt lat="43.578482165487856" lon="11.74115834252941"><ele>684.3333333333333</ele><time>2026-04-19T14:01:04.999Z</time></trkpt><trkpt lat="43.578348108507726" lon="11.741043476897598"><ele>689.0</ele><time>2026-04-19T14:01:05.999Z</time></trkpt><trkpt lat="43.57820558791948" lon="11.740917582183238"><ele>683.6666666666666</ele><time>2026-04-19T14:01:06.998Z</time></trkpt><trkpt lat="43.57805575300905" lon="11.740798337224899"><ele>678.3333333333334</ele><time>2026-04-19T14:01:07.998Z</time></trkpt><trkpt lat="43.5779054989072" lon="11.740692280606392"><ele>673.0</ele><time>2026-04-19T14:01:08.998Z</time></trkpt><trkpt lat="43.57776355033837" lon="11.740579596674673"><ele>673.0</ele><time>2026-04-19T14:01:09.998Z</time></trkpt><trkpt lat="43.577630557361225" lon="11.740470332471256"><ele>673.0</ele><time>2026-04-19T14:01:10.998Z</time></trkpt><trkpt lat="43.57751461295013" lon="11.740382996252857"><ele>673.0</ele><time>2026-04-19T14:01:11.998Z</time></trkpt><trkpt lat="43.577413314208314" lon="11.740306351855258"><ele>673.0</ele><time>2026-04-19T14:01:12.998Z</time></trkpt><trkpt lat="43.577302045774125" lon="11.740316985125009"><ele>673.0</ele><time>2026-04-19T14:01:13.998Z</time></trkpt><trkpt lat="43.577186476931985" lon="11.740362344952075"><ele>673.0</ele><time>2026-04-19T14:01:14.998Z</time></trkpt><trkpt lat="43.57706732058772" lon="11.740436614417261"><ele>673.0</ele><time>2026-04-19T14:01:15.998Z</time></trkpt><trkpt lat="43.57694243646687" lon="11.740489242387833"><ele>673.0</ele><time>2026-04-19T14:01:16.998Z</time></trkpt><trkpt lat="43.57683718240102" lon="11.740542872131643"><ele>672.5</ele><time>2026-04-19T14:01:17.998Z</time></trkpt><trkpt lat="43.57672279081738" lon="11.740555960616817"><ele>672.0</ele><time>2026-04-19T14:01:18.998Z</time></trkpt><trkpt lat="43.576598791581006" lon="11.740521447741976"><ele>671.5</ele><time>2026-04-19T14:01:19.998Z</time></trkpt><trkpt lat="43.576472922843315" lon="11.74045113135748"><ele>671.0</ele><time>2026-04-19T14:01:20.998Z</time></trkpt><trkpt lat="43.57635058609834" lon="11.740400689156708"><ele>671.0</ele><time>2026-04-19T14:01:22Z</time></trkpt><trkpt lat="43.57624190947654" lon="11.740338652509523"><ele>671.0</ele><time>2026-04-19T14:01:23Z</time></trkpt><trkpt lat="43.576111021280056" lon="11.740330771136458"><ele>671.0</ele><time>2026-04-19T14:01:24Z</time></trkpt><trkpt lat="43.57598540175045" lon="11.740371222877233"><ele>671.0</ele><time>2026-04-19T14:01:25Z</time></trkpt><trkpt lat="43.57587609918079" lon="11.740416720189076"><ele>670.1999999999999</ele><time>2026-04-19T14:01:26Z</time></trkpt><trkpt lat="43.57578413656643" lon="11.740489388797966"><ele>669.4</ele><time>2026-04-19T14:01:27Z</time></trkpt><trkpt lat="43.57571007362968" lon="11.740599011404969"><ele>668.6</ele><time>2026-04-19T14:01:28Z</time></trkpt><trkpt lat="43.57566221862811" lon="11.740755467262158"><ele>667.8</ele><time>2026-04-19T14:01:29Z</time></trkpt><trkpt lat="43.5756271478712" lon="11.740888811421675"><ele>667.0</ele><time>2026-04-19T14:01:30Z</time></trkpt><trkpt lat="43.57558246570604" lon="11.740980262832148"><ele>667.0</ele><time>2026-04-19T14:01:31Z</time></trkpt><trkpt lat="43.57551421103905" lon="11.741037166817542"><ele>667.0</ele><time>2026-04-19T14:01:32Z</time></trkpt><trkpt lat="43.575424359468066" lon="11.74105731028657"><ele>667.0</ele><time>2026-04-19T14:01:33Z</time></trkpt><trkpt lat="43.575318210933204" lon="11.74107794377108"><ele>667.0</ele><time>2026-04-19T14:01:34Z</time></trkpt><trkpt lat="43.57520379310141" lon="11.74109896718583"><ele>667.0</ele><time>2026-04-19T14:01:35Z</time></trkpt><trkpt lat="43.57507673460236" lon="11.74113984095311"><ele>669.5</ele><time>2026-04-19T14:01:36Z</time></trkpt><trkpt lat="43.57495092760274" lon="11.741167563423286"><ele>672.0</ele><time>2026-04-19T14:01:37Z</time></trkpt><trkpt lat="43.57482581151797" lon="11.741196052589546"><ele>674.5</ele><time>2026-04-19T14:01:37.999Z</time></trkpt><trkpt lat="43.57469677514436" lon="11.74123162798658"><ele>677.0</ele><time>2026-04-19T14:01:38.999Z</time></trkpt><trkpt lat="43.574565557806764" lon="11.741321579534938"><ele>673.6666666666666</ele><time>2026-04-19T14:01:39.999Z</time></trkpt><trkpt lat="43.574439262748896" lon="11.741464845516054"><ele>670.3333333333334</ele><time>2026-04-19T14:01:40.999Z</time></trkpt><trkpt lat="43.57430683776995" lon="11.741585775286623"><ele>667.0</ele><time>2026-04-19T14:01:41.999Z</time></trkpt><trkpt lat="43.5741933426034" lon="11.7416948751225"><ele>667.0</ele><time>2026-04-19T14:01:42.999Z</time></trkpt><trkpt lat="43.57409464933923" lon="11.741792706568438"><ele>667.0</ele><time>2026-04-19T14:01:43.999Z</time></trkpt><trkpt lat="43.574010023396745" lon="11.74186875923875"><ele>667.0</ele><time>2026-04-19T14:01:44.999Z</time></trkpt><trkpt lat="43.57392111007431" lon="11.741913274105913"><ele>667.0</ele><time>2026-04-19T14:01:45.999Z</time></trkpt><trkpt lat="43.57382489524355" lon="11.741908145296739"><ele>667.0</ele><time>2026-04-19T14:01:46.999Z</time></trkpt><trkpt lat="43.57372073677283" lon="11.741862048525652"><ele>668.6</ele><time>2026-04-19T14:01:47.999Z</time></trkpt><trkpt lat="43.573621781731596" lon="11.741786463242427"><ele>670.2</ele><time>2026-04-19T14:01:48.999Z</time></trkpt><trkpt lat="43.57353549627038" lon="11.741702179045802"><ele>671.8</ele><time>2026-04-19T14:01:49.999Z</time></trkpt><trkpt lat="43.57346950003466" lon="11.741585695741819"><ele>673.4</ele><time>2026-04-19T14:01:50.999Z</time></trkpt><trkpt lat="43.57343779051782" lon="11.741433720864158"><ele>675.0</ele><time>2026-04-19T14:01:51.999Z</time></trkpt><trkpt lat="43.57343481015801" lon="11.741267167050953"><ele>675.0</ele><time>2026-04-19T14:01:52.999Z</time></trkpt><trkpt lat="43.57345267222272" lon="11.741106126141547"><ele>675.0</ele><time>2026-04-19T14:01:53.999Z</time></trkpt><trkpt lat="43.57349212437343" lon="11.740956689880868"><ele>675.0</ele><time>2026-04-19T14:01:54.999Z</time></trkpt><trkpt lat="43.57356888309431" lon="11.740818865418333"><ele>675.0</ele><time>2026-04-19T14:01:55.999Z</time></trkpt><trkpt lat="43.57367131580054" lon="11.740705108630927"><ele>671.25</ele><time>2026-04-19T14:01:56.999Z</time></trkpt><trkpt lat="43.57376746833841" lon="11.740582464783252"><ele>667.5</ele><time>2026-04-19T14:01:57.999Z</time></trkpt><trkpt lat="43.57383822250637" lon="11.740419134806448"><ele>663.75</ele><time>2026-04-19T14:01:58.999Z</time></trkpt><trkpt lat="43.573878665538494" lon="11.740251680265006"><ele>660.0</ele><time>2026-04-19T14:01:59.999Z</time></trkpt><trkpt lat="43.573885088481184" lon="11.74007601700784"><ele>660.0</ele><time>2026-04-19T14:02:00.999Z</time></trkpt><trkpt lat="43.57386659877524" lon="11.7398836718915"><ele>660.0</ele><time>2026-04-19T14:02:01.999Z</time></trkpt><trkpt lat="43.57383797051225" lon="11.739675983794328"><ele>660.0</ele><time>2026-04-19T14:02:02.999Z</time></trkpt><trkpt lat="43.57381347706608" lon="11.739471628504225"><ele>660.0</ele><time>2026-04-19T14:02:03.999Z</time></trkpt><trkpt lat="43.57378663525025" lon="11.739266191772897"><ele>660.0</ele><time>2026-04-19T14:02:04.999Z</time></trkpt><trkpt lat="43.573755836768136" lon="11.73906176353256"><ele>660.0</ele><time>2026-04-19T14:02:05.999Z</time></trkpt><trkpt lat="43.57372976779571" lon="11.73886342077379"><ele>660.0</ele><time>2026-04-19T14:02:06.999Z</time></trkpt><trkpt lat="43.57370602229287" lon="11.738685282788484"><ele>660.0</ele><time>2026-04-19T14:02:07.999Z</time></trkpt><trkpt lat="43.57368203305484" lon="11.738525846477039"><ele>661.1666666666666</ele><time>2026-04-19T14:02:08.999Z</time></trkpt><trkpt lat="43.57365768107729" lon="11.738375414701562"><ele>662.3333333333334</ele><time>2026-04-19T14:02:09.999Z</time></trkpt><trkpt lat="43.57363899718271" lon="11.73823854225977"><ele>663.5</ele><time>2026-04-19T14:02:10.999Z</time></trkpt><trkpt lat="43.573628907511505" lon="11.738134665334636"><ele>664.6666666666667</ele><time>2026-04-19T14:02:11.999Z</time></trkpt><trkpt lat="43.573635318765696" lon="11.738030306919358"><ele>665.8333333333334</ele><time>2026-04-19T14:02:13.999Z</time></trkpt><trkpt lat="43.57367551315478" lon="11.737928355294216"><ele>667.0</ele><time>2026-04-19T14:02:16.999Z</time></trkpt><trkpt lat="43.573691009409806" lon="11.737838899994284"><ele>667.0</ele><time>2026-04-19T14:02:18.999Z</time></trkpt><trkpt lat="43.57372508488391" lon="11.737730286944961"><ele>667.0</ele><time>2026-04-19T14:02:20.999Z</time></trkpt><trkpt lat="43.57376415973515" lon="11.737627947790529"><ele>667.0</ele><time>2026-04-19T14:02:22.999Z</time></trkpt><trkpt lat="43.57376136162447" lon="11.737521530503152"><ele>667.0</ele><time>2026-04-19T14:02:25.999Z</time></trkpt><trkpt lat="43.57368437833987" lon="11.737505945427703"><ele>667.0</ele><time>2026-04-19T14:05:11.998Z</time></trkpt><trkpt lat="43.5736943868037" lon="11.737418461446259"><ele>667.0</ele><time>2026-04-19T14:05:16.998Z</time></trkpt><trkpt lat="43.57374936192775" lon="11.737466139559949"><ele>667.0</ele><time>2026-04-19T14:08:50.998Z</time></trkpt><trkpt lat="43.57370435850148" lon="11.737550108537002"><ele>667.0</ele><time>2026-04-19T14:11:53Z</time></trkpt><trkpt lat="43.573719959718815" lon="11.737639395989113"><ele>667.0</ele><time>2026-04-19T14:12:10Z</time></trkpt><trkpt lat="43.57372907261129" lon="11.737733985849683"><ele>667.0</ele><time>2026-04-19T14:12:14Z</time></trkpt><trkpt lat="43.57368808116083" lon="11.737824660300861"><ele>667.0</ele><time>2026-04-19T14:12:18Z</time></trkpt><trkpt lat="43.5736219678212" lon="11.737874888369989"><ele>667.0</ele><time>2026-04-19T14:12:46Z</time></trkpt><trkpt lat="43.57356556316185" lon="11.737743025608577"><ele>667.1666666666667</ele><time>2026-04-19T14:12:48.999Z</time></trkpt><trkpt lat="43.57355561361915" lon="11.737648640564204"><ele>667.3333333333334</ele><time>2026-04-19T14:12:49.999Z</time></trkpt><trkpt lat="43.57354811924945" lon="11.737555755989632"><ele>667.5</ele><time>2026-04-19T14:12:50.999Z</time></trkpt><trkpt lat="43.57353568381542" lon="11.737449366875225"><ele>667.6666666666666</ele><time>2026-04-19T14:12:51.999Z</time></trkpt><trkpt lat="43.57352028704916" lon="11.737329950431306"><ele>667.8333333333333</ele><time>2026-04-19T14:12:52.999Z</time></trkpt><trkpt lat="43.573506105988415" lon="11.737204312354894"><ele>668.0</ele><time>2026-04-19T14:12:53.999Z</time></trkpt><trkpt lat="43.57348693288403" lon="11.737076892348949"><ele>668.0</ele><time>2026-04-19T14:12:54.999Z</time></trkpt><trkpt lat="43.57345788543598" lon="11.736946403536248"><ele>668.0</ele><time>2026-04-19T14:12:55.999Z</time></trkpt><trkpt lat="43.57340479332271" lon="11.73681508674224"><ele>668.0</ele><time>2026-04-19T14:12:56.999Z</time></trkpt><trkpt lat="43.57332890619694" lon="11.73669491088384"><ele>668.0</ele><time>2026-04-19T14:12:57.999Z</time></trkpt><trkpt lat="43.573238356530766" lon="11.736584519372848"><ele>668.0</ele><time>2026-04-19T14:12:58.999Z</time></trkpt><trkpt lat="43.57314207859461" lon="11.736464101691267"><ele>667.25</ele><time>2026-04-19T14:12:59.999Z</time></trkpt><trkpt lat="43.5730670324083" lon="11.736303936250684"><ele>666.5</ele><time>2026-04-19T14:13:00.999Z</time></trkpt><trkpt lat="43.57297868990616" lon="11.736150720651368"><ele>665.75</ele><time>2026-04-19T14:13:01.999Z</time></trkpt><trkpt lat="43.57291126546724" lon="11.735974717420897"><ele>665.0</ele><time>2026-04-19T14:13:02.999Z</time></trkpt><trkpt lat="43.57283760159568" lon="11.735812595785733"><ele>661.75</ele><time>2026-04-19T14:13:03.999Z</time></trkpt><trkpt lat="43.5727464408859" lon="11.735670754944513"><ele>658.5</ele><time>2026-04-19T14:13:04.999Z</time></trkpt><trkpt lat="43.57264566720595" lon="11.735538763537619"><ele>655.25</ele><time>2026-04-19T14:13:05.999Z</time></trkpt><trkpt lat="43.5725323879944" lon="11.73541126119127"><ele>652.0</ele><time>2026-04-19T14:13:06.999Z</time></trkpt><trkpt lat="43.57241160283948" lon="11.735292855207893"><ele>654.0</ele><time>2026-04-19T14:13:07.999Z</time></trkpt><trkpt lat="43.57229304872347" lon="11.735181592849397"><ele>656.0</ele><time>2026-04-19T14:13:08.999Z</time></trkpt><trkpt lat="43.572181286425476" lon="11.735075746160778"><ele>658.0</ele><time>2026-04-19T14:13:09.999Z</time></trkpt><trkpt lat="43.57207917577811" lon="11.734976287931586"><ele>660.0</ele><time>2026-04-19T14:13:10.999Z</time></trkpt><trkpt lat="43.571985578221565" lon="11.734871146839872"><ele>655.0</ele><time>2026-04-19T14:13:11.999Z</time></trkpt><trkpt lat="43.57190196618224" lon="11.734739675353296"><ele>650.0</ele><time>2026-04-19T14:13:12.999Z</time></trkpt><trkpt lat="43.571837675477695" lon="11.7345822256844"><ele>645.0</ele><time>2026-04-19T14:13:13.999Z</time></trkpt><trkpt lat="43.571783121198045" lon="11.734407962260525"><ele>640.0</ele><time>2026-04-19T14:13:14.999Z</time></trkpt><trkpt lat="43.5717423933892" lon="11.734263481829968"><ele>639.5</ele><time>2026-04-19T14:13:15.999Z</time></trkpt><trkpt lat="43.57171860921374" lon="11.734146469088044"><ele>639.0</ele><time>2026-04-19T14:13:16.999Z</time></trkpt><trkpt lat="43.57171524260522" lon="11.734041163514418"><ele>638.5</ele><time>2026-04-19T14:13:17.999Z</time></trkpt><trkpt lat="43.57173858365064" lon="11.73394553938681"><ele>638.0</ele><time>2026-04-19T14:13:18.999Z</time></trkpt><trkpt lat="43.57179217807881" lon="11.733883634441845"><ele>637.5</ele><time>2026-04-19T14:13:19.999Z</time></trkpt><trkpt lat="43.57187391573635" lon="11.733862783590089"><ele>637.0</ele><time>2026-04-19T14:13:20.999Z</time></trkpt><trkpt lat="43.57197047459978" lon="11.733882167443719"><ele>640.3333333333334</ele><time>2026-04-19T14:13:21.999Z</time></trkpt><trkpt lat="43.57206709778855" lon="11.733914142913385"><ele>643.6666666666667</ele><time>2026-04-19T14:13:22.999Z</time></trkpt><trkpt lat="43.57215929066371" lon="11.733930568027631"><ele>647.0</ele><time>2026-04-19T14:13:23.999Z</time></trkpt><trkpt lat="43.57224011534051" lon="11.733907720349752"><ele>650.3333333333334</ele><time>2026-04-19T14:13:24.999Z</time></trkpt><trkpt lat="43.57229787401429" lon="11.733841261376966"><ele>653.6666666666666</ele><time>2026-04-19T14:13:25.999Z</time></trkpt><trkpt lat="43.572333482116576" lon="11.733732377050451"><ele>657.0</ele><time>2026-04-19T14:13:26.999Z</time></trkpt><trkpt lat="43.572365128096074" lon="11.73359448347934"><ele>656.0</ele><time>2026-04-19T14:13:27.999Z</time></trkpt><trkpt lat="43.572381425726576" lon="11.733441278709558"><ele>655.0</ele><time>2026-04-19T14:13:28.999Z</time></trkpt><trkpt lat="43.57239823450187" lon="11.73328747935299"><ele>654.0</ele><time>2026-04-19T14:13:29.999Z</time></trkpt><trkpt lat="43.57240094365744" lon="11.733146985338442"><ele>653.0</ele><time>2026-04-19T14:13:30.999Z</time></trkpt><trkpt lat="43.5723761525572" lon="11.733014976540105"><ele>652.0</ele><time>2026-04-19T14:13:31.999Z</time></trkpt><trkpt lat="43.57232214633306" lon="11.73290302945178"><ele>652.0</ele><time>2026-04-19T14:13:32.999Z</time></trkpt><trkpt lat="43.57226598313369" lon="11.732803301829268"><ele>652.0</ele><time>2026-04-19T14:13:33.999Z</time></trkpt><trkpt lat="43.572235276738716" lon="11.732677303167945"><ele>652.0</ele><time>2026-04-19T14:13:34.999Z</time></trkpt><trkpt lat="43.57224617382896" lon="11.732530330892184"><ele>652.0</ele><time>2026-04-19T14:13:35.999Z</time></trkpt><trkpt lat="43.57228576979338" lon="11.732379032303994"><ele>652.0</ele><time>2026-04-19T14:13:36.999Z</time></trkpt><trkpt lat="43.57231867666781" lon="11.732216044862714"><ele>652.25</ele><time>2026-04-19T14:13:37.999Z</time></trkpt><trkpt lat="43.57233739799342" lon="11.732033891213945"><ele>652.5</ele><time>2026-04-19T14:13:38.999Z</time></trkpt><trkpt lat="43.572350226831794" lon="11.73184877841876"><ele>652.75</ele><time>2026-04-19T14:13:39.999Z</time></trkpt><trkpt lat="43.57235930338563" lon="11.731675249011568"><ele>653.0</ele><time>2026-04-19T14:13:40.999Z</time></trkpt><trkpt lat="43.57236853887976" lon="11.731507207082192"><ele>651.75</ele><time>2026-04-19T14:13:41.999Z</time></trkpt><trkpt lat="43.572380438805126" lon="11.731339342275938"><ele>650.5</ele><time>2026-04-19T14:13:42.999Z</time></trkpt><trkpt lat="43.57238577096538" lon="11.731170294421348"><ele>649.25</ele><time>2026-04-19T14:13:43.999Z</time></trkpt><trkpt lat="43.57237215623465" lon="11.731007278911989"><ele>648.0</ele><time>2026-04-19T14:13:44.999Z</time></trkpt><trkpt lat="43.572346764777365" lon="11.730852134668895"><ele>647.2</ele><time>2026-04-19T14:13:45.999Z</time></trkpt><trkpt lat="43.572313216525345" lon="11.73071254564976"><ele>646.4</ele><time>2026-04-19T14:13:46.999Z</time></trkpt><trkpt lat="43.57228767961395" lon="11.730587874503495"><ele>645.6</ele><time>2026-04-19T14:13:47.999Z</time></trkpt><trkpt lat="43.57228418312114" lon="11.7304544019036"><ele>644.8000000000001</ele><time>2026-04-19T14:13:48.999Z</time></trkpt><trkpt lat="43.572306006675674" lon="11.730311259705985"><ele>644.0</ele><time>2026-04-19T14:13:49.999Z</time></trkpt><trkpt lat="43.57235080763906" lon="11.73015915567645"><ele>642.0</ele><time>2026-04-19T14:13:50.999Z</time></trkpt><trkpt lat="43.57241865160792" lon="11.730019582194261"><ele>640.0</ele><time>2026-04-19T14:13:51.999Z</time></trkpt><trkpt lat="43.57249977855912" lon="11.729905883501178"><ele>638.0</ele><time>2026-04-19T14:13:52.999Z</time></trkpt><trkpt lat="43.57257302490321" lon="11.729809076035712"><ele>636.0</ele><time>2026-04-19T14:13:53.999Z</time></trkpt><trkpt lat="43.57262350913307" lon="11.729717914248315"><ele>634.0</ele><time>2026-04-19T14:13:54.999Z</time></trkpt><trkpt lat="43.57264684083216" lon="11.729624318047124"><ele>634.0</ele><time>2026-04-19T14:13:55.999Z</time></trkpt><trkpt lat="43.57265804751075" lon="11.72952675753089"><ele>634.0</ele><time>2026-04-19T14:13:56.999Z</time></trkpt><trkpt lat="43.57260270401854" lon="11.729436627256629"><ele>634.0</ele><time>2026-04-19T14:13:58.001Z</time></trkpt><trkpt lat="43.57254225885557" lon="11.729351599010464"><ele>634.0</ele><time>2026-04-19T14:13:59.001Z</time></trkpt><trkpt lat="43.57248590159671" lon="11.729286055344085"><ele>634.0</ele><time>2026-04-19T14:14:00.001Z</time></trkpt><trkpt lat="43.572444621479434" lon="11.729218810690158"><ele>634.0</ele><time>2026-04-19T14:14:01.001Z</time></trkpt><trkpt lat="43.572287574790536" lon="11.729267249775493"><ele>634.0</ele><time>2026-04-19T14:14:03.001Z</time></trkpt><trkpt lat="43.572202417182986" lon="11.72933523608522"><ele>634.0</ele><time>2026-04-19T14:14:04.001Z</time></trkpt><trkpt lat="43.5721093191877" lon="11.729429904222847"><ele>634.0</ele><time>2026-04-19T14:14:05.001Z</time></trkpt><trkpt lat="43.572023937404026" lon="11.729543925075193"><ele>634.0</ele><time>2026-04-19T14:14:06.001Z</time></trkpt><trkpt lat="43.57194836832754" lon="11.729692177417801"><ele>633.5</ele><time>2026-04-19T14:14:07.001Z</time></trkpt><trkpt lat="43.57188605193705" lon="11.729854916360658"><ele>633.0</ele><time>2026-04-19T14:14:08.001Z</time></trkpt><trkpt lat="43.57183222710258" lon="11.730014731092856"><ele>632.5</ele><time>2026-04-19T14:14:09.001Z</time></trkpt><trkpt lat="43.5718032468751" lon="11.730186752277485"><ele>632.0</ele><time>2026-04-19T14:14:10.001Z</time></trkpt><trkpt lat="43.57179327355107" lon="11.730357790204271"><ele>632.0</ele><time>2026-04-19T14:14:11.001Z</time></trkpt><trkpt lat="43.57178452264442" lon="11.730516331598329"><ele>632.0</ele><time>2026-04-19T14:14:12.001Z</time></trkpt><trkpt lat="43.5717508422768" lon="11.7306633909855"><ele>632.0</ele><time>2026-04-19T14:14:13.001Z</time></trkpt><trkpt lat="43.57168120908608" lon="11.730796112216186"><ele>632.0</ele><time>2026-04-19T14:14:14.001Z</time></trkpt><trkpt lat="43.57159358933716" lon="11.730897613048475"><ele>632.0</ele><time>2026-04-19T14:14:15.001Z</time></trkpt><trkpt lat="43.57152884263038" lon="11.731002485839412"><ele>632.0</ele><time>2026-04-19T14:14:16.001Z</time></trkpt><trkpt lat="43.571498878047564" lon="11.731135521874318"><ele>632.0</ele><time>2026-04-19T14:14:17.001Z</time></trkpt><trkpt lat="43.57150214616468" lon="11.7312927363387"><ele>632.0</ele><time>2026-04-19T14:14:18.001Z</time></trkpt><trkpt lat="43.57151255146255" lon="11.731455268911064"><ele>632.0</ele><time>2026-04-19T14:14:19Z</time></trkpt><trkpt lat="43.571514904480686" lon="11.73159787245252"><ele>629.25</ele><time>2026-04-19T14:14:20Z</time></trkpt><trkpt lat="43.571486175857785" lon="11.731727862384005"><ele>626.5</ele><time>2026-04-19T14:14:21Z</time></trkpt><trkpt lat="43.571427867069964" lon="11.731847188961773"><ele>623.75</ele><time>2026-04-19T14:14:22Z</time></trkpt><trkpt lat="43.57133346364476" lon="11.731954927350408"><ele>621.0</ele><time>2026-04-19T14:14:23Z</time></trkpt><trkpt lat="43.57122101747711" lon="11.73204923320871"><ele>619.5</ele><time>2026-04-19T14:14:24Z</time></trkpt><trkpt lat="43.57111051630818" lon="11.73216007965491"><ele>618.0</ele><time>2026-04-19T14:14:25Z</time></trkpt><trkpt lat="43.571021847830956" lon="11.732299113227329"><ele>616.5</ele><time>2026-04-19T14:14:26Z</time></trkpt><trkpt lat="43.570942957648796" lon="11.732434182156085"><ele>615.0</ele><time>2026-04-19T14:14:27Z</time></trkpt><trkpt lat="43.57083182246166" lon="11.73253970170339"><ele>615.0</ele><time>2026-04-19T14:14:28Z</time></trkpt><trkpt lat="43.57070037536603" lon="11.73263591970963"><ele>615.0</ele><time>2026-04-19T14:14:29Z</time></trkpt><trkpt lat="43.570560430711765" lon="11.732728101943575"><ele>615.0</ele><time>2026-04-19T14:14:30Z</time></trkpt><trkpt lat="43.57041345766442" lon="11.732818810737681"><ele>611.0</ele><time>2026-04-19T14:14:31Z</time></trkpt><trkpt lat="43.570261639990534" lon="11.732896855895651"><ele>607.0</ele><time>2026-04-19T14:14:32Z</time></trkpt><trkpt lat="43.57011514472533" lon="11.732954318145495"><ele>603.0</ele><time>2026-04-19T14:14:33Z</time></trkpt><trkpt lat="43.56997543808377" lon="11.733027972309415"><ele>603.0</ele><time>2026-04-19T14:14:34Z</time></trkpt><trkpt lat="43.569840716078176" lon="11.733076421908399"><ele>603.0</ele><time>2026-04-19T14:14:35Z</time></trkpt><trkpt lat="43.56970048293228" lon="11.733136901306592"><ele>603.0</ele><time>2026-04-19T14:14:36Z</time></trkpt><trkpt lat="43.56955699269205" lon="11.733186417086367"><ele>603.0</ele><time>2026-04-19T14:14:37Z</time></trkpt><trkpt lat="43.56941717153845" lon="11.733225572167997"><ele>603.0</ele><time>2026-04-19T14:14:38Z</time></trkpt><trkpt lat="43.56928554648526" lon="11.733239907412027"><ele>603.0</ele><time>2026-04-19T14:14:39Z</time></trkpt><trkpt lat="43.56914745345159" lon="11.733240661681341"><ele>603.0</ele><time>2026-04-19T14:14:40Z</time></trkpt><trkpt lat="43.56901566059319" lon="11.7331930455226"><ele>603.0</ele><time>2026-04-19T14:14:41Z</time></trkpt><trkpt lat="43.56888793069249" lon="11.733150503783843"><ele>603.0</ele><time>2026-04-19T14:14:42Z</time></trkpt><trkpt lat="43.56875932325768" lon="11.73313688114019"><ele>603.0</ele><time>2026-04-19T14:14:43Z</time></trkpt><trkpt lat="43.568633777435025" lon="11.73315515678417"><ele>603.0</ele><time>2026-04-19T14:14:44Z</time></trkpt><trkpt lat="43.56851534760579" lon="11.733203314806206"><ele>603.0</ele><time>2026-04-19T14:14:45Z</time></trkpt><trkpt lat="43.5683946942918" lon="11.733266688887449"><ele>603.5</ele><time>2026-04-19T14:14:46Z</time></trkpt><trkpt lat="43.568302734561506" lon="11.733411542671066"><ele>604.0</ele><time>2026-04-19T14:14:47Z</time></trkpt><trkpt lat="43.568211631848826" lon="11.733563901182835"><ele>604.5</ele><time>2026-04-19T14:14:48Z</time></trkpt><trkpt lat="43.56811470322743" lon="11.733717826815512"><ele>605.0</ele><time>2026-04-19T14:14:49Z</time></trkpt><trkpt lat="43.568009404702856" lon="11.733876142915795"><ele>604.75</ele><time>2026-04-19T14:14:50Z</time></trkpt><trkpt lat="43.567902280680286" lon="11.734030337529605"><ele>604.5</ele><time>2026-04-19T14:14:51Z</time></trkpt><trkpt lat="43.567796774004066" lon="11.73417922048703"><ele>604.25</ele><time>2026-04-19T14:14:52Z</time></trkpt><trkpt lat="43.567701954814645" lon="11.734322862496777"><ele>604.0</ele><time>2026-04-19T14:14:53Z</time></trkpt><trkpt lat="43.567599468243415" lon="11.73443320478057"><ele>601.0</ele><time>2026-04-19T14:14:54Z</time></trkpt><trkpt lat="43.56751031130536" lon="11.734544762003154"><ele>598.0</ele><time>2026-04-19T14:14:55Z</time></trkpt><trkpt lat="43.567389053309846" lon="11.734595061771403"><ele>595.0</ele><time>2026-04-19T14:14:56Z</time></trkpt><trkpt lat="43.56724907158921" lon="11.734576900836512"><ele>592.0</ele><time>2026-04-19T14:14:57Z</time></trkpt><trkpt lat="43.5670995706616" lon="11.73456304866787"><ele>590.75</ele><time>2026-04-19T14:14:58Z</time></trkpt><trkpt lat="43.56695496564821" lon="11.734563098000024"><ele>589.5</ele><time>2026-04-19T14:14:59Z</time></trkpt><trkpt lat="43.566828020849684" lon="11.734555020282167"><ele>588.25</ele><time>2026-04-19T14:15:00Z</time></trkpt><trkpt lat="43.56670486995811" lon="11.73455935680649"><ele>587.0</ele><time>2026-04-19T14:15:01Z</time></trkpt><trkpt lat="43.56659753373982" lon="11.734657968750662"><ele>587.0</ele><time>2026-04-19T14:15:02Z</time></trkpt><trkpt lat="43.566489168525166" lon="11.734773289686228"><ele>587.0</ele><time>2026-04-19T14:15:03Z</time></trkpt><trkpt lat="43.56636975524348" lon="11.734902939360301"><ele>587.0</ele><time>2026-04-19T14:15:04Z</time></trkpt><trkpt lat="43.56625196461792" lon="11.73502921488943"><ele>587.0</ele><time>2026-04-19T14:15:05Z</time></trkpt><trkpt lat="43.566146667861936" lon="11.73515083272333"><ele>586.0</ele><time>2026-04-19T14:15:06Z</time></trkpt><trkpt lat="43.566061799878725" lon="11.735279441922392"><ele>585.0</ele><time>2026-04-19T14:15:07Z</time></trkpt><trkpt lat="43.565993138412594" lon="11.73544341432124"><ele>584.0</ele><time>2026-04-19T14:15:08Z</time></trkpt><trkpt lat="43.56593421739427" lon="11.735636707288696"><ele>583.0</ele><time>2026-04-19T14:15:09Z</time></trkpt><trkpt lat="43.565876350751715" lon="11.735824098724288"><ele>583.0</ele><time>2026-04-19T14:15:10Z</time></trkpt><trkpt lat="43.56582976799063" lon="11.735992338946378"><ele>583.0</ele><time>2026-04-19T14:15:11Z</time></trkpt><trkpt lat="43.565770594521474" lon="11.736141865240086"><ele>583.0</ele><time>2026-04-19T14:15:12Z</time></trkpt><trkpt lat="43.56568721646802" lon="11.736266544191174"><ele>583.0</ele><time>2026-04-19T14:15:13Z</time></trkpt><trkpt lat="43.56556577316604" lon="11.736331852953448"><ele>582.25</ele><time>2026-04-19T14:15:14Z</time></trkpt><trkpt lat="43.56543997650827" lon="11.736371381441636"><ele>581.5</ele><time>2026-04-19T14:15:15Z</time></trkpt><trkpt lat="43.56532349967742" lon="11.736418850208494"><ele>580.75</ele><time>2026-04-19T14:15:15.999Z</time></trkpt><trkpt lat="43.56521484571104" lon="11.736480874677413"><ele>580.0</ele><time>2026-04-19T14:15:16.999Z</time></trkpt><trkpt lat="43.565113425517886" lon="11.736595725844472"><ele>580.0</ele><time>2026-04-19T14:15:17.999Z</time></trkpt><trkpt lat="43.56501591344152" lon="11.7367606885638"><ele>580.0</ele><time>2026-04-19T14:15:18.999Z</time></trkpt><trkpt lat="43.56490560192655" lon="11.736945303109422"><ele>580.0</ele><time>2026-04-19T14:15:19.999Z</time></trkpt><trkpt lat="43.56479431826603" lon="11.737130005012997"><ele>577.6666666666667</ele><time>2026-04-19T14:15:20.999Z</time></trkpt><trkpt lat="43.5646717541458" lon="11.737324636776183"><ele>575.3333333333334</ele><time>2026-04-19T14:15:21.999Z</time></trkpt><trkpt lat="43.5645600002648" lon="11.73750897661494"><ele>573.0</ele><time>2026-04-19T14:15:22.999Z</time></trkpt><trkpt lat="43.56445887545372" lon="11.737674594664863"><ele>568.0</ele><time>2026-04-19T14:15:23.999Z</time></trkpt><trkpt lat="43.56436856597564" lon="11.737816584699566"><ele>563.0</ele><time>2026-04-19T14:15:24.999Z</time></trkpt><trkpt lat="43.564284141469216" lon="11.737942775033863"><ele>558.0</ele><time>2026-04-19T14:15:25.998Z</time></trkpt><trkpt lat="43.56418318599906" lon="11.738019109239467"><ele>553.0</ele><time>2026-04-19T14:15:26.998Z</time></trkpt><trkpt lat="43.564072681455656" lon="11.738092753831623"><ele>553.0</ele><time>2026-04-19T14:15:27.998Z</time></trkpt><trkpt lat="43.56394112740835" lon="11.738070003123338"><ele>553.0</ele><time>2026-04-19T14:15:28.998Z</time></trkpt><trkpt lat="43.56382100287528" lon="11.738087008498004"><ele>553.0</ele><time>2026-04-19T14:15:29.998Z</time></trkpt><trkpt lat="43.56371231247708" lon="11.738126516749315"><ele>553.0</ele><time>2026-04-19T14:15:30.998Z</time></trkpt><trkpt lat="43.563605080719796" lon="11.738227978064963"><ele>555.6666666666667</ele><time>2026-04-19T14:15:31.998Z</time></trkpt><trkpt lat="43.563493747618345" lon="11.7383706429344"><ele>558.3333333333334</ele><time>2026-04-19T14:15:32.998Z</time></trkpt><trkpt lat="43.56338598465873" lon="11.73854383505775"><ele>561.0</ele><time>2026-04-19T14:15:33.998Z</time></trkpt><trkpt lat="43.563291775444554" lon="11.738721223900832"><ele>558.75</ele><time>2026-04-19T14:15:34.998Z</time></trkpt><trkpt lat="43.563197589620636" lon="11.738875584132472"><ele>556.5</ele><time>2026-04-19T14:15:35.998Z</time></trkpt><trkpt lat="43.56309379026315" lon="11.739008697388535"><ele>554.25</ele><time>2026-04-19T14:15:36.998Z</time></trkpt><trkpt lat="43.562960596621764" lon="11.739115328365903"><ele>552.0</ele><time>2026-04-19T14:15:37.998Z</time></trkpt><trkpt lat="43.56281407725744" lon="11.739204709496486"><ele>552.0</ele><time>2026-04-19T14:15:38.998Z</time></trkpt><trkpt lat="43.56266738008324" lon="11.739304297692106"><ele>552.0</ele><time>2026-04-19T14:15:39.998Z</time></trkpt><trkpt lat="43.56252041319912" lon="11.739441215949224"><ele>552.0</ele><time>2026-04-19T14:15:40.998Z</time></trkpt><trkpt lat="43.56239072421123" lon="11.739597992883985"><ele>547.5</ele><time>2026-04-19T14:15:41.998Z</time></trkpt><trkpt lat="43.56226579540383" lon="11.739745522861401"><ele>543.0</ele><time>2026-04-19T14:15:42.998Z</time></trkpt><trkpt lat="43.56214926034946" lon="11.739870210217338"><ele>538.5</ele><time>2026-04-19T14:15:43.998Z</time></trkpt><trkpt lat="43.5620440862887" lon="11.739983361710934"><ele>534.0</ele><time>2026-04-19T14:15:44.998Z</time></trkpt><trkpt lat="43.56195627402771" lon="11.740078780192663"><ele>534.0</ele><time>2026-04-19T14:15:45.998Z</time></trkpt><trkpt lat="43.56186296533779" lon="11.740148790234786"><ele>534.0</ele><time>2026-04-19T14:15:46.998Z</time></trkpt><trkpt lat="43.56175621033039" lon="11.74017129065363"><ele>534.0</ele><time>2026-04-19T14:15:47.998Z</time></trkpt><trkpt lat="43.5616366596704" lon="11.740143796275607"><ele>534.0</ele><time>2026-04-19T14:15:48.998Z</time></trkpt><trkpt lat="43.56152601445412" lon="11.740073945545406"><ele>534.0</ele><time>2026-04-19T14:15:49.998Z</time></trkpt><trkpt lat="43.56141092901507" lon="11.740032743177908"><ele>534.0</ele><time>2026-04-19T14:15:50.998Z</time></trkpt><trkpt lat="43.56127189499777" lon="11.740047920945681"><ele>534.0</ele><time>2026-04-19T14:15:51.998Z</time></trkpt><trkpt lat="43.56111599388233" lon="11.740094994048706"><ele>534.0</ele><time>2026-04-19T14:15:52.998Z</time></trkpt><trkpt lat="43.5609500234489" lon="11.740147798469158"><ele>531.6666666666666</ele><time>2026-04-19T14:15:53.998Z</time></trkpt><trkpt lat="43.56078456751933" lon="11.740193702735036"><ele>529.3333333333333</ele><time>2026-04-19T14:15:54.998Z</time></trkpt><trkpt lat="43.56062800583074" lon="11.740240479605214"><ele>527.0</ele><time>2026-04-19T14:15:55.998Z</time></trkpt><trkpt lat="43.560479598077315" lon="11.740286716349702"><ele>522.5</ele><time>2026-04-19T14:15:56.998Z</time></trkpt><trkpt lat="43.56033678770022" lon="11.740327422994167"><ele>518.0</ele><time>2026-04-19T14:15:57.998Z</time></trkpt><trkpt lat="43.560209021422864" lon="11.7403584308719"><ele>513.5</ele><time>2026-04-19T14:15:58.998Z</time></trkpt><trkpt lat="43.5600907635134" lon="11.74037354036359"><ele>509.0</ele><time>2026-04-19T14:15:59.998Z</time></trkpt><trkpt lat="43.5599717813227" lon="11.740364645645846"><ele>509.0</ele><time>2026-04-19T14:16:00.998Z</time></trkpt><trkpt lat="43.55985917408597" lon="11.74033398807945"><ele>509.0</ele><time>2026-04-19T14:16:01.998Z</time></trkpt><trkpt lat="43.55974936629763" lon="11.740276490162385"><ele>509.0</ele><time>2026-04-19T14:16:02.998Z</time></trkpt><trkpt lat="43.559630845675805" lon="11.740187852791994"><ele>509.0</ele><time>2026-04-19T14:16:04Z</time></trkpt><trkpt lat="43.55949858109706" lon="11.74009092103086"><ele>509.3333333333333</ele><time>2026-04-19T14:16:05Z</time></trkpt><trkpt lat="43.559364600861436" lon="11.739979141334178"><ele>509.66666666666663</ele><time>2026-04-19T14:16:06Z</time></trkpt><trkpt lat="43.55923693268092" lon="11.739882647214772"><ele>510.0</ele><time>2026-04-19T14:16:07Z</time></trkpt><trkpt lat="43.55910045639597" lon="11.739802723333616"><ele>510.0</ele><time>2026-04-19T14:16:08Z</time></trkpt><trkpt lat="43.55894716840783" lon="11.739746471819675"><ele>510.0</ele><time>2026-04-19T14:16:09Z</time></trkpt><trkpt lat="43.558793641721664" lon="11.739705258800715"><ele>510.0</ele><time>2026-04-19T14:16:10Z</time></trkpt><trkpt lat="43.558654137976916" lon="11.73966420654622"><ele>510.25</ele><time>2026-04-19T14:16:11Z</time></trkpt><trkpt lat="43.5585289094117" lon="11.739623242459746"><ele>510.5</ele><time>2026-04-19T14:16:12Z</time></trkpt><trkpt lat="43.55841447450705" lon="11.739577925550236"><ele>510.75</ele><time>2026-04-19T14:16:13Z</time></trkpt><trkpt lat="43.55831139888554" lon="11.739500296944133"><ele>511.0</ele><time>2026-04-19T14:16:14Z</time></trkpt><trkpt lat="43.5582409644178" lon="11.739368997800415"><ele>511.0</ele><time>2026-04-19T14:16:15Z</time></trkpt><trkpt lat="43.55815549867442" lon="11.739291618895322"><ele>511.0</ele><time>2026-04-19T14:16:16Z</time></trkpt><trkpt lat="43.558050439193245" lon="11.739244908352273"><ele>511.0</ele><time>2026-04-19T14:16:17Z</time></trkpt><trkpt lat="43.55792737963277" lon="11.739232675042118"><ele>511.0</ele><time>2026-04-19T14:16:18Z</time></trkpt><trkpt lat="43.55780385260998" lon="11.739235723780832"><ele>505.75</ele><time>2026-04-19T14:16:19Z</time></trkpt><trkpt lat="43.557690124126395" lon="11.739210262931268"><ele>500.5</ele><time>2026-04-19T14:16:20Z</time></trkpt><trkpt lat="43.55757551642996" lon="11.739139099705143"><ele>495.25</ele><time>2026-04-19T14:16:21Z</time></trkpt><trkpt lat="43.557480620194745" lon="11.739015754472481"><ele>490.0</ele><time>2026-04-19T14:16:22Z</time></trkpt><trkpt lat="43.5574163289801" lon="11.738867665769074"><ele>490.0</ele><time>2026-04-19T14:16:23Z</time></trkpt><trkpt lat="43.55735775752774" lon="11.738738132262318"><ele>490.0</ele><time>2026-04-19T14:16:24Z</time></trkpt><trkpt lat="43.55727925038943" lon="11.738634074247242"><ele>490.0</ele><time>2026-04-19T14:16:25Z</time></trkpt><trkpt lat="43.55718104867582" lon="11.73856306433197"><ele>490.0</ele><time>2026-04-19T14:16:26Z</time></trkpt><trkpt lat="43.55705759523796" lon="11.73852258430624"><ele>492.25</ele><time>2026-04-19T14:16:27Z</time></trkpt><trkpt lat="43.556917839212986" lon="11.738496994245551"><ele>494.5</ele><time>2026-04-19T14:16:28Z</time></trkpt><trkpt lat="43.556773879123384" lon="11.738478351109825"><ele>496.75</ele><time>2026-04-19T14:16:29Z</time></trkpt><trkpt lat="43.556637482544005" lon="11.738461956424539"><ele>499.0</ele><time>2026-04-19T14:16:30Z</time></trkpt><trkpt lat="43.5565197033634" lon="11.738457321856178"><ele>499.0</ele><time>2026-04-19T14:16:31Z</time></trkpt><trkpt lat="43.55640530713026" lon="11.738481222672508"><ele>499.0</ele><time>2026-04-19T14:16:32Z</time></trkpt><trkpt lat="43.55629340023396" lon="11.738540640209083"><ele>499.0</ele><time>2026-04-19T14:16:33Z</time></trkpt><trkpt lat="43.556184106855056" lon="11.738646548583663"><ele>499.0</ele><time>2026-04-19T14:16:34Z</time></trkpt><trkpt lat="43.556088527015845" lon="11.738776649178835"><ele>493.25</ele><time>2026-04-19T14:16:35Z</time></trkpt><trkpt lat="43.555974976824885" lon="11.738865267271375"><ele>487.5</ele><time>2026-04-19T14:16:36Z</time></trkpt><trkpt lat="43.55584007466044" lon="11.738950151109984"><ele>481.75</ele><time>2026-04-19T14:16:37Z</time></trkpt><trkpt lat="43.555697564778924" lon="11.739053333100014"><ele>476.0</ele><time>2026-04-19T14:16:38Z</time></trkpt><trkpt lat="43.555550113502164" lon="11.73913641098073"><ele>476.0</ele><time>2026-04-19T14:16:39Z</time></trkpt><trkpt lat="43.55541069810908" lon="11.739214676809869"><ele>476.0</ele><time>2026-04-19T14:16:40Z</time></trkpt><trkpt lat="43.55526576383241" lon="11.739282377350024"><ele>476.0</ele><time>2026-04-19T14:16:40.999Z</time></trkpt><trkpt lat="43.55510625843029" lon="11.739327615195712"><ele>475.0</ele><time>2026-04-19T14:16:41.999Z</time></trkpt><trkpt lat="43.55493846796676" lon="11.739338705022437"><ele>474.0</ele><time>2026-04-19T14:16:42.999Z</time></trkpt><trkpt lat="43.55476704512511" lon="11.739318805628397"><ele>473.0</ele><time>2026-04-19T14:16:43.999Z</time></trkpt><trkpt lat="43.55460175620449" lon="11.739264158433116"><ele>468.3333333333333</ele><time>2026-04-19T14:16:44.999Z</time></trkpt><trkpt lat="43.5544374701137" lon="11.739259174920665"><ele>463.66666666666663</ele><time>2026-04-19T14:16:45.999Z</time></trkpt><trkpt lat="43.55427518525372" lon="11.739226432517393"><ele>459.0</ele><time>2026-04-19T14:16:46.999Z</time></trkpt><trkpt lat="43.55411004799114" lon="11.739139033268314"><ele>459.0</ele><time>2026-04-19T14:16:47.999Z</time></trkpt><trkpt lat="43.55393479774743" lon="11.739053702964165"><ele>459.0</ele><time>2026-04-19T14:16:48.999Z</time></trkpt><trkpt lat="43.55376663085399" lon="11.738994441669238"><ele>459.0</ele><time>2026-04-19T14:16:49.999Z</time></trkpt><trkpt lat="43.553618430773646" lon="11.738931031338135"><ele>454.33333333333337</ele><time>2026-04-19T14:16:50.999Z</time></trkpt><trkpt lat="43.55347350713032" lon="11.738859840980494"><ele>449.6666666666667</ele><time>2026-04-19T14:16:51.999Z</time></trkpt><trkpt lat="43.553325484961796" lon="11.738752583304947"><ele>445.0</ele><time>2026-04-19T14:16:52.999Z</time></trkpt><trkpt lat="43.553178084658214" lon="11.738616485767434"><ele>441.6666666666667</ele><time>2026-04-19T14:16:53.999Z</time></trkpt><trkpt lat="43.553026259979895" lon="11.738464876608473"><ele>438.33333333333337</ele><time>2026-04-19T14:16:54.999Z</time></trkpt><trkpt lat="43.55287952788235" lon="11.738301254319296"><ele>435.0</ele><time>2026-04-19T14:16:55.999Z</time></trkpt><trkpt lat="43.55274193233156" lon="11.738133857205492"><ele>435.0</ele><time>2026-04-19T14:16:56.999Z</time></trkpt><trkpt lat="43.55261241153797" lon="11.73797047350473"><ele>435.0</ele><time>2026-04-19T14:16:57.999Z</time></trkpt><trkpt lat="43.552493552085906" lon="11.737813473239928"><ele>435.0</ele><time>2026-04-19T14:16:58.999Z</time></trkpt><trkpt lat="43.55238421747389" lon="11.737653258296058"><ele>439.33333333333337</ele><time>2026-04-19T14:16:59.999Z</time></trkpt><trkpt lat="43.55229200744304" lon="11.737473863742007"><ele>443.6666666666667</ele><time>2026-04-19T14:17:00.999Z</time></trkpt><trkpt lat="43.55221629560926" lon="11.737283468985138"><ele>448.0</ele><time>2026-04-19T14:17:01.999Z</time></trkpt><trkpt lat="43.55214650189165" lon="11.737098221307939"><ele>448.0</ele><time>2026-04-19T14:17:02.999Z</time></trkpt><trkpt lat="43.552067455354454" lon="11.736935142650779"><ele>448.0</ele><time>2026-04-19T14:17:03.999Z</time></trkpt><trkpt lat="43.55198682816154" lon="11.73679665038062"><ele>448.0</ele><time>2026-04-19T14:17:04.999Z</time></trkpt><trkpt lat="43.55191683916103" lon="11.736671727502586"><ele>448.0</ele><time>2026-04-19T14:17:05.999Z</time></trkpt><trkpt lat="43.551863785662874" lon="11.736561249317985"><ele>444.4</ele><time>2026-04-19T14:17:06.999Z</time></trkpt><trkpt lat="43.551835431105" lon="11.736446217158086"><ele>440.79999999999995</ele><time>2026-04-19T14:17:07.999Z</time></trkpt><trkpt lat="43.5518357816999" lon="11.736326853326297"><ele>437.2</ele><time>2026-04-19T14:17:08.999Z</time></trkpt><trkpt lat="43.55187131650145" lon="11.736207908838889"><ele>433.6</ele><time>2026-04-19T14:17:09.999Z</time></trkpt><trkpt lat="43.55194485689591" lon="11.736088059996217"><ele>430.0</ele><time>2026-04-19T14:17:10.999Z</time></trkpt><trkpt lat="43.55203621319571" lon="11.735980461847486"><ele>431.5</ele><time>2026-04-19T14:17:11.999Z</time></trkpt><trkpt lat="43.55215623906835" lon="11.735888008955918"><ele>433.0</ele><time>2026-04-19T14:17:12.999Z</time></trkpt><trkpt lat="43.55228483839976" lon="11.735802229888039"><ele>434.5</ele><time>2026-04-19T14:17:13.999Z</time></trkpt><trkpt lat="43.552428886799404" lon="11.735712734488686"><ele>436.0</ele><time>2026-04-19T14:17:14.999Z</time></trkpt><trkpt lat="43.5525885226158" lon="11.735638176558078"><ele>436.0</ele><time>2026-04-19T14:17:15.999Z</time></trkpt><trkpt lat="43.55274989675875" lon="11.735561802153041"><ele>436.0</ele><time>2026-04-19T14:17:16.999Z</time></trkpt><trkpt lat="43.55291376616158" lon="11.735469057803488"><ele>436.0</ele><time>2026-04-19T14:17:17.999Z</time></trkpt><trkpt lat="43.55306660700356" lon="11.735363763128001"><ele>432.6666666666667</ele><time>2026-04-19T14:17:18.999Z</time></trkpt><trkpt lat="43.55320432529355" lon="11.735250909736529"><ele>429.33333333333337</ele><time>2026-04-19T14:17:19.999Z</time></trkpt><trkpt lat="43.55333135000384" lon="11.735137263482061"><ele>426.0</ele><time>2026-04-19T14:17:20.999Z</time></trkpt><trkpt lat="43.55344317152997" lon="11.735013454023255"><ele>426.0</ele><time>2026-04-19T14:17:21.999Z</time></trkpt><trkpt lat="43.55353760423693" lon="11.734878978602845"><ele>426.0</ele><time>2026-04-19T14:17:22.999Z</time></trkpt><trkpt lat="43.553620386985706" lon="11.734748485099002"><ele>426.0</ele><time>2026-04-19T14:17:23.999Z</time></trkpt><trkpt lat="43.55370436409921" lon="11.734628262444899"><ele>426.0</ele><time>2026-04-19T14:17:24.999Z</time></trkpt><trkpt lat="43.55380689831507" lon="11.734541928798697"><ele>428.0</ele><time>2026-04-19T14:17:25.999Z</time></trkpt><trkpt lat="43.553909498723954" lon="11.73450745797427"><ele>430.0</ele><time>2026-04-19T14:17:26.999Z</time></trkpt><trkpt lat="43.55399887367499" lon="11.734488024386353"><ele>432.0</ele><time>2026-04-19T14:17:27.999Z</time></trkpt><trkpt lat="43.554068124380706" lon="11.734430524771483"><ele>434.0</ele><time>2026-04-19T14:17:28.999Z</time></trkpt><trkpt lat="43.554099327455624" lon="11.73433926637646"><ele>436.0</ele><time>2026-04-19T14:17:29.999Z</time></trkpt><trkpt lat="43.554097806237" lon="11.734238025108068"><ele>438.0</ele><time>2026-04-19T14:17:30.999Z</time></trkpt><trkpt lat="43.554046916110686" lon="11.73413602693998"><ele>438.0</ele><time>2026-04-19T14:17:31.999Z</time></trkpt><trkpt lat="43.55396460195058" lon="11.734048056415135"><ele>438.0</ele><time>2026-04-19T14:17:32.999Z</time></trkpt><trkpt lat="43.55385816954194" lon="11.733955709012292"><ele>438.0</ele><time>2026-04-19T14:17:33.999Z</time></trkpt><trkpt lat="43.553753937908716" lon="11.733834828517562"><ele>438.0</ele><time>2026-04-19T14:17:34.999Z</time></trkpt><trkpt lat="43.55366014588964" lon="11.73367260494279"><ele>430.0</ele><time>2026-04-19T14:17:35.999Z</time></trkpt><trkpt lat="43.553577206432266" lon="11.733468877759746"><ele>422.0</ele><time>2026-04-19T14:17:36.999Z</time></trkpt><trkpt lat="43.55349898574" lon="11.733262536435388"><ele>414.0</ele><time>2026-04-19T14:17:37.999Z</time></trkpt><trkpt lat="43.55342117048935" lon="11.733077137534643"><ele>414.0</ele><time>2026-04-19T14:17:38.999Z</time></trkpt><trkpt lat="43.55334568524008" lon="11.73292305709334"><ele>414.0</ele><time>2026-04-19T14:17:39.999Z</time></trkpt><trkpt lat="43.55325640031634" lon="11.732796986908294"><ele>414.0</ele><time>2026-04-19T14:17:40.999Z</time></trkpt><trkpt lat="43.55314214107562" lon="11.732720878919062"><ele>414.0</ele><time>2026-04-19T14:17:41.999Z</time></trkpt><trkpt lat="43.55301268843037" lon="11.732678730937545"><ele>411.5</ele><time>2026-04-19T14:17:42.999Z</time></trkpt><trkpt lat="43.55288488557632" lon="11.732630525957283"><ele>409.0</ele><time>2026-04-19T14:17:43.999Z</time></trkpt><trkpt lat="43.55277836848398" lon="11.732531411656552"><ele>406.5</ele><time>2026-04-19T14:17:44.998Z</time></trkpt><trkpt lat="43.55268657615767" lon="11.732375349418897"><ele>404.0</ele><time>2026-04-19T14:17:45.998Z</time></trkpt><trkpt lat="43.55259148392206" lon="11.732185767767922"><ele>404.0</ele><time>2026-04-19T14:17:46.998Z</time></trkpt><trkpt lat="43.55247093337647" lon="11.731982278408509"><ele>404.0</ele><time>2026-04-19T14:17:47.998Z</time></trkpt><trkpt lat="43.5523317791911" lon="11.731755918434942"><ele>404.0</ele><time>2026-04-19T14:17:48.998Z</time></trkpt><trkpt lat="43.55219962937005" lon="11.731542102957267"><ele>402.3333333333333</ele><time>2026-04-19T14:17:49.998Z</time></trkpt><trkpt lat="43.55206934627226" lon="11.731347963129366"><ele>400.66666666666663</ele><time>2026-04-19T14:17:50.998Z</time></trkpt><trkpt lat="43.55194714050835" lon="11.731159645554353"><ele>399.0</ele><time>2026-04-19T14:17:51.998Z</time></trkpt><trkpt lat="43.551830190883216" lon="11.730981688963084"><ele>399.0</ele><time>2026-04-19T14:17:52.998Z</time></trkpt><trkpt lat="43.551718752562245" lon="11.730814423615454"><ele>399.0</ele><time>2026-04-19T14:17:53.998Z</time></trkpt><trkpt lat="43.551626650205876" lon="11.730659607750061"><ele>399.0</ele><time>2026-04-19T14:17:54.998Z</time></trkpt><trkpt lat="43.55155988093383" lon="11.73051120884358"><ele>399.0</ele><time>2026-04-19T14:17:55.998Z</time></trkpt><trkpt lat="43.55151851997469" lon="11.730345652238231"><ele>398.4</ele><time>2026-04-19T14:17:56.998Z</time></trkpt><trkpt lat="43.55151021468898" lon="11.730169659550143"><ele>397.79999999999995</ele><time>2026-04-19T14:17:57.998Z</time></trkpt><trkpt lat="43.55153336267025" lon="11.730012390774165"><ele>397.20000000000005</ele><time>2026-04-19T14:17:58.998Z</time></trkpt><trkpt lat="43.55156740514363" lon="11.729887993251246"><ele>396.6</ele><time>2026-04-19T14:17:59.998Z</time></trkpt><trkpt lat="43.55158928280198" lon="11.729777637280623"><ele>396.0</ele><time>2026-04-19T14:18:00.998Z</time></trkpt><trkpt lat="43.55158162515064" lon="11.729670341662548"><ele>396.0</ele><time>2026-04-19T14:18:01.998Z</time></trkpt><trkpt lat="43.55153903031704" lon="11.729591304368924"><ele>396.0</ele><time>2026-04-19T14:18:02.998Z</time></trkpt><trkpt lat="43.55147331556063" lon="11.729557154359206"><ele>396.0</ele><time>2026-04-19T14:18:03.998Z</time></trkpt><trkpt lat="43.5513910098872" lon="11.729581857810995"><ele>396.0</ele><time>2026-04-19T14:18:04.998Z</time></trkpt><trkpt lat="43.55131643266023" lon="11.72966949858024"><ele>396.0</ele><time>2026-04-19T14:18:05.998Z</time></trkpt><trkpt lat="43.551261671595135" lon="11.729805282866854"><ele>396.0</ele><time>2026-04-19T14:18:06.998Z</time></trkpt><trkpt lat="43.551214361144496" lon="11.729981356624478"><ele>392.4</ele><time>2026-04-19T14:18:07.998Z</time></trkpt><trkpt lat="43.55116635688002" lon="11.730174098659559"><ele>388.8</ele><time>2026-04-19T14:18:08.998Z</time></trkpt><trkpt lat="43.551124878420076" lon="11.730334292581505"><ele>385.2</ele><time>2026-04-19T14:18:10Z</time></trkpt><trkpt lat="43.551074570983346" lon="11.730453845785087"><ele>381.59999999999997</ele><time>2026-04-19T14:18:11Z</time></trkpt><trkpt lat="43.55105584102778" lon="11.73055410705523"><ele>378.0</ele><time>2026-04-19T14:18:12Z</time></trkpt><trkpt lat="43.55100470030866" lon="11.730613874710794"><ele>378.0</ele><time>2026-04-19T14:18:13Z</time></trkpt><trkpt lat="43.55087742000412" lon="11.730555610408313"><ele>378.0</ele><time>2026-04-19T14:18:15Z</time></trkpt><trkpt lat="43.550834695086095" lon="11.730427791057977"><ele>378.0</ele><time>2026-04-19T14:18:16Z</time></trkpt><trkpt lat="43.55081911406912" lon="11.730265307914454"><ele>378.0</ele><time>2026-04-19T14:18:17Z</time></trkpt><trkpt lat="43.55080590197108" lon="11.730081210464643"><ele>378.0</ele><time>2026-04-19T14:18:18Z</time></trkpt><trkpt lat="43.55078766995118" lon="11.729895350469821"><ele>378.0</ele><time>2026-04-19T14:18:19Z</time></trkpt><trkpt lat="43.55077425015308" lon="11.729705860343163"><ele>378.0</ele><time>2026-04-19T14:18:20Z</time></trkpt><trkpt lat="43.55077551478009" lon="11.729528705460622"><ele>378.0</ele><time>2026-04-19T14:18:21Z</time></trkpt><trkpt lat="43.55079910804046" lon="11.729352471985083"><ele>375.5</ele><time>2026-04-19T14:18:22Z</time></trkpt><trkpt lat="43.55085552984643" lon="11.729182787842511"><ele>373.0</ele><time>2026-04-19T14:18:23Z</time></trkpt><trkpt lat="43.55094377235905" lon="11.72903873529287"><ele>370.5</ele><time>2026-04-19T14:18:24Z</time></trkpt><trkpt lat="43.55104438735878" lon="11.728924241334584"><ele>368.0</ele><time>2026-04-19T14:18:25Z</time></trkpt><trkpt lat="43.55116466433133" lon="11.728836953339723"><ele>369.0</ele><time>2026-04-19T14:18:26Z</time></trkpt><trkpt lat="43.55128440776935" lon="11.728796663470217"><ele>370.0</ele><time>2026-04-19T14:18:27Z</time></trkpt><trkpt lat="43.55139187953244" lon="11.728779311489916"><ele>371.0</ele><time>2026-04-19T14:18:28Z</time></trkpt><trkpt lat="43.551486925515185" lon="11.728741385044575"><ele>372.0</ele><time>2026-04-19T14:18:29Z</time></trkpt><trkpt lat="43.551558738674046" lon="11.728661045886657"><ele>373.0</ele><time>2026-04-19T14:18:30Z</time></trkpt><trkpt lat="43.551600488630086" lon="11.728554092511859"><ele>373.0</ele><time>2026-04-19T14:18:31Z</time></trkpt><trkpt lat="43.55159837500447" lon="11.728429439776718"><ele>373.0</ele><time>2026-04-19T14:18:32Z</time></trkpt><trkpt lat="43.55155400744481" lon="11.728295540938603"><ele>373.0</ele><time>2026-04-19T14:18:33Z</time></trkpt><trkpt lat="43.551484666448054" lon="11.728145254256335"><ele>373.0</ele><time>2026-04-19T14:18:34Z</time></trkpt><trkpt lat="43.551404178947486" lon="11.727964664917405"><ele>373.0</ele><time>2026-04-19T14:18:35Z</time></trkpt><trkpt lat="43.55131599712435" lon="11.727767586900653"><ele>373.0</ele><time>2026-04-19T14:18:36Z</time></trkpt><trkpt lat="43.55123736497932" lon="11.727580383624277"><ele>373.0</ele><time>2026-04-19T14:18:37Z</time></trkpt><trkpt lat="43.551171427048786" lon="11.72740975944201"><ele>365.0</ele><time>2026-04-19T14:18:38Z</time></trkpt><trkpt lat="43.5511216522117" lon="11.72723837167274"><ele>357.0</ele><time>2026-04-19T14:18:39Z</time></trkpt><trkpt lat="43.55110692989732" lon="11.727064898256046"><ele>349.0</ele><time>2026-04-19T14:18:40Z</time></trkpt><trkpt lat="43.55112151967439" lon="11.726897407303523"><ele>341.0</ele><time>2026-04-19T14:18:41Z</time></trkpt><trkpt lat="43.55116995151327" lon="11.726737880555278"><ele>346.6666666666667</ele><time>2026-04-19T14:18:42Z</time></trkpt><trkpt lat="43.55125562963796" lon="11.72657652108468"><ele>352.3333333333333</ele><time>2026-04-19T14:18:43Z</time></trkpt><trkpt lat="43.551365851467125" lon="11.72640982024264"><ele>358.0</ele><time>2026-04-19T14:18:44Z</time></trkpt><trkpt lat="43.551491658802746" lon="11.726220922081708"><ele>352.0</ele><time>2026-04-19T14:18:45Z</time></trkpt><trkpt lat="43.551612094970324" lon="11.726024487542878"><ele>346.0</ele><time>2026-04-19T14:18:46Z</time></trkpt><trkpt lat="43.551727304359225" lon="11.725799015924961"><ele>340.0</ele><time>2026-04-19T14:18:47Z</time></trkpt><trkpt lat="43.55183907128679" lon="11.72555731759834"><ele>340.0</ele><time>2026-04-19T14:18:48Z</time></trkpt><trkpt lat="43.551946182737474" lon="11.725326537429982"><ele>340.0</ele><time>2026-04-19T14:18:49Z</time></trkpt><trkpt lat="43.552051240307" lon="11.725105461202137"><ele>340.0</ele><time>2026-04-19T14:18:50Z</time></trkpt><trkpt lat="43.552150550293916" lon="11.724898070277199"><ele>341.0</ele><time>2026-04-19T14:18:51Z</time></trkpt><trkpt lat="43.552247157878654" lon="11.724702989517093"><ele>342.0</ele><time>2026-04-19T14:18:52Z</time></trkpt><trkpt lat="43.55234478197857" lon="11.724533168268076"><ele>343.0</ele><time>2026-04-19T14:18:53Z</time></trkpt><trkpt lat="43.55244198233915" lon="11.724383717192588"><ele>339.79999999999995</ele><time>2026-04-19T14:18:54Z</time></trkpt><trkpt lat="43.55253883884305" lon="11.72425928464639"><ele>336.6</ele><time>2026-04-19T14:18:54.999Z</time></trkpt><trkpt lat="43.552633430025296" lon="11.724166077257614"><ele>333.4</ele><time>2026-04-19T14:18:55.999Z</time></trkpt><trkpt lat="43.552722239823886" lon="11.724109166112385"><ele>330.20000000000005</ele><time>2026-04-19T14:18:56.999Z</time></trkpt><trkpt lat="43.55279977576497" lon="11.724066824566028"><ele>327.0</ele><time>2026-04-19T14:18:57.999Z</time></trkpt><trkpt lat="43.55286129035125" lon="11.724032179748653"><ele>327.6</ele><time>2026-04-19T14:18:58.999Z</time></trkpt><trkpt lat="43.55293838385204" lon="11.723986250319374"><ele>328.20000000000005</ele><time>2026-04-19T14:19:00.999Z</time></trkpt><trkpt lat="43.5530480240213" lon="11.723937228433888"><ele>328.8</ele><time>2026-04-19T14:19:02.999Z</time></trkpt><trkpt lat="43.55314329353295" lon="11.723935883385938"><ele>329.4</ele><time>2026-04-19T14:19:03.999Z</time></trkpt><trkpt lat="43.5532414859884" lon="11.72395286709835"><ele>330.0</ele><time>2026-04-19T14:19:04.999Z</time></trkpt><trkpt lat="43.553353905481536" lon="11.724000056714308"><ele>330.0</ele><time>2026-04-19T14:19:05.999Z</time></trkpt><trkpt lat="43.55346568800365" lon="11.724067212960305"><ele>330.0</ele><time>2026-04-19T14:19:06.999Z</time></trkpt><trkpt lat="43.55357765395749" lon="11.72412961646959"><ele>330.0</ele><time>2026-04-19T14:19:07.999Z</time></trkpt><trkpt lat="43.553682225246064" lon="11.724178238149069"><ele>330.0</ele><time>2026-04-19T14:19:08.999Z</time></trkpt><trkpt lat="43.55378098162475" lon="11.724202484348261"><ele>329.4</ele><time>2026-04-19T14:19:09.999Z</time></trkpt><trkpt lat="43.55387098647432" lon="11.724185657203325"><ele>328.8</ele><time>2026-04-19T14:19:10.999Z</time></trkpt><trkpt lat="43.55394808604734" lon="11.724132432813116"><ele>328.20000000000005</ele><time>2026-04-19T14:19:11.999Z</time></trkpt><trkpt lat="43.55400503813884" lon="11.724028768688722"><ele>327.6</ele><time>2026-04-19T14:19:12.999Z</time></trkpt><trkpt lat="43.55404576568554" lon="11.72387935824251"><ele>327.0</ele><time>2026-04-19T14:19:13.999Z</time></trkpt><trkpt lat="43.55408999168169" lon="11.723705622110678"><ele>325.6666666666667</ele><time>2026-04-19T14:19:14.999Z</time></trkpt><trkpt lat="43.554146241496724" lon="11.723514313537446"><ele>324.33333333333337</ele><time>2026-04-19T14:19:15.999Z</time></trkpt><trkpt lat="43.55420454227906" lon="11.72330564094816"><ele>323.0</ele><time>2026-04-19T14:19:16.999Z</time></trkpt><trkpt lat="43.55426133998351" lon="11.723102807342803"><ele>323.0</ele><time>2026-04-19T14:19:17.999Z</time></trkpt><trkpt lat="43.554319637034986" lon="11.722899101169729"><ele>323.0</ele><time>2026-04-19T14:19:18.999Z</time></trkpt><trkpt lat="43.55437471206537" lon="11.722692180585852"><ele>323.0</ele><time>2026-04-19T14:19:19.999Z</time></trkpt><trkpt lat="43.55443298460942" lon="11.722483336537882"><ele>322.6666666666667</ele><time>2026-04-19T14:19:20.999Z</time></trkpt><trkpt lat="43.55449528008972" lon="11.722275803897299"><ele>322.3333333333333</ele><time>2026-04-19T14:19:21.999Z</time></trkpt><trkpt lat="43.55456114925328" lon="11.722066788143458"><ele>322.0</ele><time>2026-04-19T14:19:22.999Z</time></trkpt><trkpt lat="43.554623951101185" lon="11.721850518366418"><ele>324.0</ele><time>2026-04-19T14:19:23.999Z</time></trkpt><trkpt lat="43.5546869552214" lon="11.721630927549676"><ele>326.0</ele><time>2026-04-19T14:19:24.999Z</time></trkpt><trkpt lat="43.55475212858061" lon="11.721409090963371"><ele>328.0</ele><time>2026-04-19T14:19:25.999Z</time></trkpt><trkpt lat="43.554817805357445" lon="11.721180319662517"><ele>325.66666666666663</ele><time>2026-04-19T14:19:26.999Z</time></trkpt><trkpt lat="43.5548821728533" lon="11.720959953049967"><ele>323.3333333333333</ele><time>2026-04-19T14:19:27.999Z</time></trkpt><trkpt lat="43.55494817729935" lon="11.720739685177426"><ele>321.0</ele><time>2026-04-19T14:19:28.999Z</time></trkpt><trkpt lat="43.55500811816533" lon="11.720517766771403"><ele>321.0</ele><time>2026-04-19T14:19:29.999Z</time></trkpt><trkpt lat="43.55506903297995" lon="11.720297300949287"><ele>321.0</ele><time>2026-04-19T14:19:30.999Z</time></trkpt><trkpt lat="43.55513569780419" lon="11.720080101934338"><ele>321.0</ele><time>2026-04-19T14:19:31.999Z</time></trkpt><trkpt lat="43.55520160450407" lon="11.719864366793704"><ele>320.0</ele><time>2026-04-19T14:19:32.999Z</time></trkpt><trkpt lat="43.55526658574547" lon="11.719650781958554"><ele>319.0</ele><time>2026-04-19T14:19:33.999Z</time></trkpt><trkpt lat="43.55532231005468" lon="11.719433865628963"><ele>318.0</ele><time>2026-04-19T14:19:34.999Z</time></trkpt><trkpt lat="43.55536233166129" lon="11.719203982130338"><ele>319.0</ele><time>2026-04-19T14:19:35.999Z</time></trkpt><trkpt lat="43.55538104178741" lon="11.718962684375532"><ele>320.0</ele><time>2026-04-19T14:19:36.999Z</time></trkpt><trkpt lat="43.55538476385706" lon="11.718710919528764"><ele>321.0</ele><time>2026-04-19T14:19:37.999Z</time></trkpt><trkpt lat="43.55538909778353" lon="11.718447996289129"><ele>321.0</ele><time>2026-04-19T14:19:38.999Z</time></trkpt><trkpt lat="43.55539793210777" lon="11.71818048624437"><ele>321.0</ele><time>2026-04-19T14:19:39.999Z</time></trkpt><trkpt lat="43.555407628550824" lon="11.717917196966404"><ele>321.0</ele><time>2026-04-19T14:19:40.999Z</time></trkpt><trkpt lat="43.55541792249849" lon="11.717672946569207"><ele>321.3333333333333</ele><time>2026-04-19T14:19:41.999Z</time></trkpt><trkpt lat="43.55542452265862" lon="11.71743875362426"><ele>321.66666666666663</ele><time>2026-04-19T14:19:42.999Z</time></trkpt><trkpt lat="43.55542961223213" lon="11.717221602337645"><ele>322.0</ele><time>2026-04-19T14:19:43.999Z</time></trkpt><trkpt lat="43.55543493157778" lon="11.717015151206919"><ele>322.0</ele><time>2026-04-19T14:19:44.999Z</time></trkpt><trkpt lat="43.55545220576642" lon="11.716807550270019"><ele>322.0</ele><time>2026-04-19T14:19:45.999Z</time></trkpt><trkpt lat="43.5554880565994" lon="11.716593808531398"><ele>322.0</ele><time>2026-04-19T14:19:46.999Z</time></trkpt><trkpt lat="43.55554380470258" lon="11.716380230575611"><ele>322.0</ele><time>2026-04-19T14:19:47.999Z</time></trkpt><trkpt lat="43.55561474010643" lon="11.716162508088702"><ele>322.0</ele><time>2026-04-19T14:19:48.999Z</time></trkpt><trkpt lat="43.55568706828254" lon="11.715938164604346"><ele>322.0</ele><time>2026-04-19T14:19:49.999Z</time></trkpt><trkpt lat="43.55575340342" lon="11.715726483054075"><ele>320.66666666666663</ele><time>2026-04-19T14:19:50.999Z</time></trkpt><trkpt lat="43.55581579326009" lon="11.715519919153133"><ele>319.3333333333333</ele><time>2026-04-19T14:19:51.999Z</time></trkpt><trkpt lat="43.55587733858834" lon="11.715327778274878"><ele>318.0</ele><time>2026-04-19T14:19:52.999Z</time></trkpt><trkpt lat="43.555939563634844" lon="11.715144710454037"><ele>317.25</ele><time>2026-04-19T14:19:53.999Z</time></trkpt><trkpt lat="43.555996977885165" lon="11.71496843692033"><ele>316.5</ele><time>2026-04-19T14:19:54.998Z</time></trkpt><trkpt lat="43.55604296485763" lon="11.71479130575468"><ele>315.75</ele><time>2026-04-19T14:19:55.998Z</time></trkpt><trkpt lat="43.55606775645066" lon="11.714607614323116"><ele>315.0</ele><time>2026-04-19T14:19:56.998Z</time></trkpt><trkpt lat="43.556062377408885" lon="11.714414129410914"><ele>314.6666666666667</ele><time>2026-04-19T14:19:57.998Z</time></trkpt><trkpt lat="43.556019016451636" lon="11.714226981913464"><ele>314.33333333333337</ele><time>2026-04-19T14:19:58.998Z</time></trkpt><trkpt lat="43.55595016018985" lon="11.714037492511286"><ele>314.0</ele><time>2026-04-19T14:19:59.998Z</time></trkpt><trkpt lat="43.55587742731536" lon="11.71383164929153"><ele>314.0</ele><time>2026-04-19T14:20:00.998Z</time></trkpt><trkpt lat="43.55580960115814" lon="11.713614411650427"><ele>314.0</ele><time>2026-04-19T14:20:01.998Z</time></trkpt><trkpt lat="43.55574580920843" lon="11.713387087036189"><ele>314.0</ele><time>2026-04-19T14:20:02.998Z</time></trkpt><trkpt lat="43.555693298571384" lon="11.713149858233455"><ele>313.33333333333337</ele><time>2026-04-19T14:20:03.998Z</time></trkpt><trkpt lat="43.55565399414691" lon="11.712902988017019"><ele>312.6666666666667</ele><time>2026-04-19T14:20:04.998Z</time></trkpt><trkpt lat="43.55562463176459" lon="11.712647140609256"><ele>312.0</ele><time>2026-04-19T14:20:05.998Z</time></trkpt><trkpt lat="43.555599175866945" lon="11.712389117519487"><ele>311.6666666666667</ele><time>2026-04-19T14:20:06.998Z</time></trkpt><trkpt lat="43.55556897796654" lon="11.712132044821761"><ele>311.33333333333337</ele><time>2026-04-19T14:20:07.998Z</time></trkpt><trkpt lat="43.55553936309159" lon="11.711892597694566"><ele>311.0</ele><time>2026-04-19T14:20:08.998Z</time></trkpt><trkpt lat="43.555511191728215" lon="11.711667613392777"><ele>310.75</ele><time>2026-04-19T14:20:09.998Z</time></trkpt><trkpt lat="43.55548639470232" lon="11.71145966625559"><ele>310.5</ele><time>2026-04-19T14:20:10.998Z</time></trkpt><trkpt lat="43.555463183590724" lon="11.711263250941778"><ele>310.25</ele><time>2026-04-19T14:20:11.998Z</time></trkpt><trkpt lat="43.55543925961892" lon="11.711075189189168"><ele>310.0</ele><time>2026-04-19T14:20:12.998Z</time></trkpt><trkpt lat="43.55542095378634" lon="11.710898650942353"><ele>310.0</ele><time>2026-04-19T14:20:13.998Z</time></trkpt><trkpt lat="43.555402838938214" lon="11.710738350553726"><ele>310.0</ele><time>2026-04-19T14:20:15Z</time></trkpt><trkpt lat="43.555367758071995" lon="11.710591266936678"><ele>310.0</ele><time>2026-04-19T14:20:16Z</time></trkpt><trkpt lat="43.555306222670744" lon="11.710468038021427"><ele>310.0</ele><time>2026-04-19T14:20:17Z</time></trkpt><trkpt lat="43.55521439224855" lon="11.710361596401992"><ele>310.5</ele><time>2026-04-19T14:20:18Z</time></trkpt><trkpt lat="43.555097264925536" lon="11.710283380999853"><ele>311.0</ele><time>2026-04-19T14:20:19Z</time></trkpt><trkpt lat="43.55495816037598" lon="11.710234589955686"><ele>311.5</ele><time>2026-04-19T14:20:20Z</time></trkpt><trkpt lat="43.55480439890588" lon="11.710207719024018"><ele>312.0</ele><time>2026-04-19T14:20:21Z</time></trkpt><trkpt lat="43.55464252770417" lon="11.710196667713037"><ele>311.0</ele><time>2026-04-19T14:20:22Z</time></trkpt><trkpt lat="43.5544893276872" lon="11.7101852036255"><ele>310.0</ele><time>2026-04-19T14:20:23Z</time></trkpt><trkpt lat="43.55434489038843" lon="11.710171249532529"><ele>309.0</ele><time>2026-04-19T14:20:24Z</time></trkpt><trkpt lat="43.554220494528614" lon="11.710161989069476"><ele>308.0</ele><time>2026-04-19T14:20:25Z</time></trkpt><trkpt lat="43.55411290629913" lon="11.710153067297512"><ele>308.0</ele><time>2026-04-19T14:20:26Z</time></trkpt><trkpt lat="43.55400838293107" lon="11.710144551672277"><ele>308.0</ele><time>2026-04-19T14:20:27Z</time></trkpt><trkpt lat="43.55390467881715" lon="11.710134202994228"><ele>308.0</ele><time>2026-04-19T14:20:28Z</time></trkpt><trkpt lat="43.55380487315819" lon="11.710124525416614"><ele>308.0</ele><time>2026-04-19T14:20:29Z</time></trkpt><trkpt lat="43.55370871504291" lon="11.71011891359207"><ele>308.0</ele><time>2026-04-19T14:20:30Z</time></trkpt><trkpt lat="43.553616145038156" lon="11.71011154449113"><ele>307.8</ele><time>2026-04-19T14:20:31Z</time></trkpt><trkpt lat="43.55352840237217" lon="11.710102647393573"><ele>307.6</ele><time>2026-04-19T14:20:32Z</time></trkpt><trkpt lat="43.55345500156349" lon="11.71009022414969"><ele>307.4</ele><time>2026-04-19T14:20:33Z</time></trkpt><trkpt lat="43.55333857460604" lon="11.710047567702961"><ele>307.2</ele><time>2026-04-19T14:20:35Z</time></trkpt><trkpt lat="43.55327602790024" lon="11.709997246501382"><ele>307.0</ele><time>2026-04-19T14:20:36Z</time></trkpt><trkpt lat="43.55318830667223" lon="11.709797912624799"><ele>307.0</ele><time>2026-04-19T14:20:38Z</time></trkpt><trkpt lat="43.553179446251114" lon="11.709660924804982"><ele>307.0</ele><time>2026-04-19T14:20:39Z</time></trkpt><trkpt lat="43.55318179550988" lon="11.709512283997434"><ele>307.0</ele><time>2026-04-19T14:20:40Z</time></trkpt><trkpt lat="43.55318532470963" lon="11.709359943395704"><ele>307.0</ele><time>2026-04-19T14:20:41Z</time></trkpt><trkpt lat="43.5531859036794" lon="11.709201220715995"><ele>307.0</ele><time>2026-04-19T14:20:42Z</time></trkpt><trkpt lat="43.55318582211951" lon="11.70905060406587"><ele>307.2</ele><time>2026-04-19T14:20:43Z</time></trkpt><trkpt lat="43.55318455237086" lon="11.708898907467223"><ele>307.4</ele><time>2026-04-19T14:20:44Z</time></trkpt><trkpt lat="43.553186824830405" lon="11.70875049137543"><ele>307.6</ele><time>2026-04-19T14:20:45Z</time></trkpt><trkpt lat="43.553196684506254" lon="11.708604927774347"><ele>307.8</ele><time>2026-04-19T14:20:46Z</time></trkpt><trkpt lat="43.55320253353549" lon="11.708463136280196"><ele>308.0</ele><time>2026-04-19T14:20:47Z</time></trkpt><trkpt lat="43.55320097588658" lon="11.708324069627826"><ele>308.0</ele><time>2026-04-19T14:20:48Z</time></trkpt><trkpt lat="43.55319377111674" lon="11.708192161072368"><ele>308.0</ele><time>2026-04-19T14:20:49Z</time></trkpt><trkpt lat="43.553181274467164" lon="11.70807485152484"><ele>308.0</ele><time>2026-04-19T14:20:50Z</time></trkpt><trkpt lat="43.553163775776916" lon="11.707968444409985"><ele>308.0</ele><time>2026-04-19T14:20:51Z</time></trkpt><trkpt lat="43.55313394025285" lon="11.707868287526093"><ele>308.0</ele><time>2026-04-19T14:20:52Z</time></trkpt><trkpt lat="43.553086076704304" lon="11.707770061798335"><ele>308.0</ele><time>2026-04-19T14:20:53Z</time></trkpt><trkpt lat="43.55302526561679" lon="11.707669769856908"><ele>308.0</ele><time>2026-04-19T14:20:54Z</time></trkpt><trkpt lat="43.552962253721056" lon="11.707546434450874"><ele>308.0</ele><time>2026-04-19T14:20:55Z</time></trkpt><trkpt lat="43.55289142151689" lon="11.7074105359737"><ele>308.0</ele><time>2026-04-19T14:20:56Z</time></trkpt><trkpt lat="43.55282128576645" lon="11.707263982893659"><ele>308.0</ele><time>2026-04-19T14:20:57Z</time></trkpt><trkpt lat="43.55274841330385" lon="11.707115455096407"><ele>307.6</ele><time>2026-04-19T14:20:58Z</time></trkpt><trkpt lat="43.552677873280935" lon="11.706969407612434"><ele>307.20000000000005</ele><time>2026-04-19T14:20:59Z</time></trkpt><trkpt lat="43.55261469770049" lon="11.706838001803822"><ele>306.8</ele><time>2026-04-19T14:21:00Z</time></trkpt><trkpt lat="43.55256152784265" lon="11.706719525975359"><ele>306.40000000000003</ele><time>2026-04-19T14:21:01Z</time></trkpt><trkpt lat="43.55251679382275" lon="11.706606241399102"><ele>306.0</ele><time>2026-04-19T14:21:02Z</time></trkpt><trkpt lat="43.5524841292535" lon="11.706489631304345"><ele>305.40000000000003</ele><time>2026-04-19T14:21:03Z</time></trkpt><trkpt lat="43.552460108152346" lon="11.706367693024154"><ele>304.8</ele><time>2026-04-19T14:21:04Z</time></trkpt><trkpt lat="43.55243428358099" lon="11.706231868714493"><ele>304.20000000000005</ele><time>2026-04-19T14:21:05Z</time></trkpt><trkpt lat="43.55240632762467" lon="11.706092150701016"><ele>303.6</ele><time>2026-04-19T14:21:05.999Z</time></trkpt><trkpt lat="43.552380649032855" lon="11.705963496986268"><ele>303.0</ele><time>2026-04-19T14:21:06.999Z</time></trkpt><trkpt lat="43.552356680386126" lon="11.705848377792522"><ele>302.6</ele><time>2026-04-19T14:21:07.999Z</time></trkpt><trkpt lat="43.5523315784004" lon="11.705737483885677"><ele>302.20000000000005</ele><time>2026-04-19T14:21:08.999Z</time></trkpt><trkpt lat="43.55230332061135" lon="11.705612370630998"><ele>301.8</ele><time>2026-04-19T14:21:09.999Z</time></trkpt><trkpt lat="43.55227166899683" lon="11.705468768438203"><ele>301.40000000000003</ele><time>2026-04-19T14:21:10.999Z</time></trkpt><trkpt lat="43.552243134384796" lon="11.705313996453052"><ele>301.0</ele><time>2026-04-19T14:21:11.999Z</time></trkpt><trkpt lat="43.552217041227976" lon="11.705155240874605"><ele>300.5</ele><time>2026-04-19T14:21:12.999Z</time></trkpt><trkpt lat="43.552186398110344" lon="11.704996809421027"><ele>300.0</ele><time>2026-04-19T14:21:13.999Z</time></trkpt><trkpt lat="43.552146243239235" lon="11.704843111566896"><ele>299.5</ele><time>2026-04-19T14:21:14.999Z</time></trkpt><trkpt lat="43.55208998725408" lon="11.704701841525033"><ele>299.0</ele><time>2026-04-19T14:21:15.999Z</time></trkpt><trkpt lat="43.55200903106095" lon="11.704585812192382"><ele>298.75</ele><time>2026-04-19T14:21:16.999Z</time></trkpt><trkpt lat="43.55190730303574" lon="11.70450514590084"><ele>298.5</ele><time>2026-04-19T14:21:17.999Z</time></trkpt><trkpt lat="43.55179134757132" lon="11.70445530812894"><ele>298.25</ele><time>2026-04-19T14:21:18.999Z</time></trkpt><trkpt lat="43.55166212625353" lon="11.704418746904281"><ele>298.0</ele><time>2026-04-19T14:21:19.999Z</time></trkpt><trkpt lat="43.551533857707945" lon="11.704380711209428"><ele>299.25</ele><time>2026-04-19T14:21:20.999Z</time></trkpt><trkpt lat="43.55141393401106" lon="11.704328304517539"><ele>300.5</ele><time>2026-04-19T14:21:21.999Z</time></trkpt><trkpt lat="43.55129982367752" lon="11.704252798830838"><ele>301.75</ele><time>2026-04-19T14:21:22.999Z</time></trkpt><trkpt lat="43.551198363566726" lon="11.704140124122523"><ele>303.0</ele><time>2026-04-19T14:21:23.999Z</time></trkpt><trkpt lat="43.551107534159584" lon="11.703998233272932"><ele>303.25</ele><time>2026-04-19T14:21:24.999Z</time></trkpt><trkpt lat="43.5510197197917" lon="11.703843538203516"><ele>303.5</ele><time>2026-04-19T14:21:25.999Z</time></trkpt><trkpt lat="43.55092531018387" lon="11.703684748997578"><ele>303.75</ele><time>2026-04-19T14:21:26.999Z</time></trkpt><trkpt lat="43.55082935780099" lon="11.703521770193595"><ele>304.0</ele><time>2026-04-19T14:21:27.999Z</time></trkpt><trkpt lat="43.55073647078963" lon="11.703347159938303"><ele>304.66666666666663</ele><time>2026-04-19T14:21:28.999Z</time></trkpt><trkpt lat="43.55064312053081" lon="11.703164556606099"><ele>305.3333333333333</ele><time>2026-04-19T14:21:29.999Z</time></trkpt><trkpt lat="43.55055159556096" lon="11.70297883088195"><ele>306.0</ele><time>2026-04-19T14:21:30.999Z</time></trkpt><trkpt lat="43.550463214011856" lon="11.702788748918094"><ele>306.3333333333333</ele><time>2026-04-19T14:21:31.999Z</time></trkpt><trkpt lat="43.5503769989185" lon="11.702593769387953"><ele>306.66666666666663</ele><time>2026-04-19T14:21:32.999Z</time></trkpt><trkpt lat="43.550295767876776" lon="11.702389905490348"><ele>307.0</ele><time>2026-04-19T14:21:33.999Z</time></trkpt><trkpt lat="43.55021695285938" lon="11.702180780704463"><ele>305.66666666666663</ele><time>2026-04-19T14:21:34.999Z</time></trkpt><trkpt lat="43.5501354163697" lon="11.701970489743866"><ele>304.3333333333333</ele><time>2026-04-19T14:21:35.999Z</time></trkpt><trkpt lat="43.550056545865075" lon="11.701760623783693"><ele>303.0</ele><time>2026-04-19T14:21:36.999Z</time></trkpt><trkpt lat="43.54998450449293" lon="11.701543206799256"><ele>303.0</ele><time>2026-04-19T14:21:37.999Z</time></trkpt><trkpt lat="43.54991772153058" lon="11.70131942696036"><ele>303.0</ele><time>2026-04-19T14:21:38.999Z</time></trkpt><trkpt lat="43.54985617176844" lon="11.701095120339625"><ele>303.0</ele><time>2026-04-19T14:21:39.999Z</time></trkpt><trkpt lat="43.549793621320354" lon="11.700887762789922"><ele>303.5</ele><time>2026-04-19T14:21:40.999Z</time></trkpt><trkpt lat="43.54973498702836" lon="11.700705916890556"><ele>304.0</ele><time>2026-04-19T14:21:41.999Z</time></trkpt><trkpt lat="43.5496876272911" lon="11.70054331276394"><ele>304.5</ele><time>2026-04-19T14:21:42.999Z</time></trkpt><trkpt lat="43.549633105548196" lon="11.700379148519348"><ele>305.0</ele><time>2026-04-19T14:21:43.999Z</time></trkpt><trkpt lat="43.54958846105571" lon="11.700184233539298"><ele>304.33333333333337</ele><time>2026-04-19T14:21:44.999Z</time></trkpt><trkpt lat="43.549518081406795" lon="11.699989843246234"><ele>303.6666666666667</ele><time>2026-04-19T14:21:45.999Z</time></trkpt><trkpt lat="43.549470894483626" lon="11.699780819388033"><ele>303.0</ele><time>2026-04-19T14:21:46.999Z</time></trkpt><trkpt lat="43.54941141187349" lon="11.699575274293302"><ele>302.6666666666667</ele><time>2026-04-19T14:21:47.999Z</time></trkpt><trkpt lat="43.549344037747346" lon="11.69936829697292"><ele>302.33333333333337</ele><time>2026-04-19T14:21:48.999Z</time></trkpt><trkpt lat="43.54928318366278" lon="11.699157564041924"><ele>302.0</ele><time>2026-04-19T14:21:49.999Z</time></trkpt><trkpt lat="43.54922490165246" lon="11.698941933626593"><ele>302.0</ele><time>2026-04-19T14:21:50.999Z</time></trkpt><trkpt lat="43.549163421817724" lon="11.698729098570087"><ele>302.0</ele><time>2026-04-19T14:21:51.999Z</time></trkpt><trkpt lat="43.5490973659505" lon="11.698516914946193"><ele>302.0</ele><time>2026-04-19T14:21:52.999Z</time></trkpt><trkpt lat="43.54903290550392" lon="11.69830677152829"><ele>302.0</ele><time>2026-04-19T14:21:53.999Z</time></trkpt><trkpt lat="43.54897215464599" lon="11.698098409659812"><ele>302.0</ele><time>2026-04-19T14:21:54.999Z</time></trkpt><trkpt lat="43.54891207990759" lon="11.69788904003662"><ele>302.0</ele><time>2026-04-19T14:21:55.999Z</time></trkpt><trkpt lat="43.54884870973336" lon="11.697682995465177"><ele>303.6666666666667</ele><time>2026-04-19T14:21:56.999Z</time></trkpt><trkpt lat="43.54878591282785" lon="11.697471659786267"><ele>305.3333333333333</ele><time>2026-04-19T14:21:57.999Z</time></trkpt><trkpt lat="43.548724040655095" lon="11.697260340275362"><ele>307.0</ele><time>2026-04-19T14:21:58.999Z</time></trkpt><trkpt lat="43.54866265798309" lon="11.697060699230102"><ele>303.75</ele><time>2026-04-19T14:21:59.999Z</time></trkpt><trkpt lat="43.548605106895536" lon="11.696872017014437"><ele>300.5</ele><time>2026-04-19T14:22:00.999Z</time></trkpt><trkpt lat="43.54855077344114" lon="11.696693437125338"><ele>297.25</ele><time>2026-04-19T14:22:01.999Z</time></trkpt><trkpt lat="43.548499531983396" lon="11.696525408098028"><ele>294.0</ele><time>2026-04-19T14:22:02.999Z</time></trkpt><trkpt lat="43.54846286734481" lon="11.696359858074905"><ele>294.0</ele><time>2026-04-19T14:22:03.998Z</time></trkpt><trkpt lat="43.54845571230268" lon="11.696180967029973"><ele>294.0</ele><time>2026-04-19T14:22:04.998Z</time></trkpt><trkpt lat="43.54848128328652" lon="11.696009145779298"><ele>294.0</ele><time>2026-04-19T14:22:05.998Z</time></trkpt><trkpt lat="43.54854081575215" lon="11.695873815875677"><ele>294.0</ele><time>2026-04-19T14:22:06.998Z</time></trkpt><trkpt lat="43.54861795385307" lon="11.695782076157565"><ele>294.5</ele><time>2026-04-19T14:22:07.998Z</time></trkpt><trkpt lat="43.548716882786415" lon="11.695738648256041"><ele>295.0</ele><time>2026-04-19T14:22:08.998Z</time></trkpt><trkpt lat="43.548828347490215" lon="11.69572715534768"><ele>295.5</ele><time>2026-04-19T14:22:09.998Z</time></trkpt><trkpt lat="43.548938705312665" lon="11.695680324025892"><ele>296.0</ele><time>2026-04-19T14:22:10.998Z</time></trkpt><trkpt lat="43.549048800590384" lon="11.69559669523741"><ele>296.0</ele><time>2026-04-19T14:22:11.998Z</time></trkpt><trkpt lat="43.549142981688696" lon="11.695493477565869"><ele>296.0</ele><time>2026-04-19T14:22:12.998Z</time></trkpt><trkpt lat="43.54921208089816" lon="11.695362224825336"><ele>296.0</ele><time>2026-04-19T14:22:13.998Z</time></trkpt><trkpt lat="43.549261049532504" lon="11.695199978378112"><ele>296.0</ele><time>2026-04-19T14:22:14.998Z</time></trkpt><trkpt lat="43.54928382944739" lon="11.695015266603702"><ele>294.0</ele><time>2026-04-19T14:22:15.998Z</time></trkpt><trkpt lat="43.549286520622815" lon="11.694801048421146"><ele>292.0</ele><time>2026-04-19T14:22:16.998Z</time></trkpt><trkpt lat="43.54929466969363" lon="11.694580606367778"><ele>290.0</ele><time>2026-04-19T14:22:17.998Z</time></trkpt><trkpt lat="43.54930177507203" lon="11.694367844399741"><ele>289.6666666666667</ele><time>2026-04-19T14:22:18.998Z</time></trkpt><trkpt lat="43.54931457346348" lon="11.694157807961833"><ele>289.3333333333333</ele><time>2026-04-19T14:22:20Z</time></trkpt><trkpt lat="43.549351638366545" lon="11.693938634992033"><ele>289.0</ele><time>2026-04-19T14:22:21Z</time></trkpt><trkpt lat="43.549423499764046" lon="11.693715685199239"><ele>287.66666666666663</ele><time>2026-04-19T14:22:22Z</time></trkpt><trkpt lat="43.54950913253993" lon="11.693492601392515"><ele>286.3333333333333</ele><time>2026-04-19T14:22:23Z</time></trkpt><trkpt lat="43.54959843171925" lon="11.693275333531597"><ele>285.0</ele><time>2026-04-19T14:22:24Z</time></trkpt><trkpt lat="43.54969702766025" lon="11.693065174233169"><ele>287.6666666666667</ele><time>2026-04-19T14:22:25Z</time></trkpt><trkpt lat="43.54981037386771" lon="11.692885884735277"><ele>290.33333333333337</ele><time>2026-04-19T14:22:26Z</time></trkpt><trkpt lat="43.54991500062515" lon="11.692717948097998"><ele>293.0</ele><time>2026-04-19T14:22:27Z</time></trkpt><trkpt lat="43.54999932667959" lon="11.692529866212857"><ele>293.0</ele><time>2026-04-19T14:22:28Z</time></trkpt><trkpt lat="43.55005417056324" lon="11.69232730985207"><ele>293.0</ele><time>2026-04-19T14:22:29Z</time></trkpt><trkpt lat="43.5500839053529" lon="11.692143403308403"><ele>293.0</ele><time>2026-04-19T14:22:30Z</time></trkpt><trkpt lat="43.55010870011295" lon="11.691974717102948"><ele>293.0</ele><time>2026-04-19T14:22:31Z</time></trkpt><trkpt lat="43.550132638426334" lon="11.691815695581111"><ele>292.75</ele><time>2026-04-19T14:22:32Z</time></trkpt><trkpt lat="43.55015331386777" lon="11.691647863505079"><ele>292.5</ele><time>2026-04-19T14:22:33Z</time></trkpt><trkpt lat="43.55018856715087" lon="11.691459906214021"><ele>292.25</ele><time>2026-04-19T14:22:34Z</time></trkpt><trkpt lat="43.550246903072306" lon="11.691275572342406"><ele>292.0</ele><time>2026-04-19T14:22:35Z</time></trkpt><trkpt lat="43.55033216710041" lon="11.691106102881083"><ele>294.0</ele><time>2026-04-19T14:22:36Z</time></trkpt><trkpt lat="43.55043557804979" lon="11.690960226752285"><ele>296.0</ele><time>2026-04-19T14:22:37Z</time></trkpt><trkpt lat="43.55053814274906" lon="11.690835696313872"><ele>298.0</ele><time>2026-04-19T14:22:38Z</time></trkpt><trkpt lat="43.55065406367694" lon="11.690727916427553"><ele>300.0</ele><time>2026-04-19T14:22:39Z</time></trkpt><trkpt lat="43.55079060222042" lon="11.690647230110782"><ele>300.0</ele><time>2026-04-19T14:22:40Z</time></trkpt><trkpt lat="43.55093236665825" lon="11.690583888191002"><ele>300.0</ele><time>2026-04-19T14:22:41Z</time></trkpt><trkpt lat="43.551057482635066" lon="11.690523330277717"><ele>300.0</ele><time>2026-04-19T14:22:42Z</time></trkpt><trkpt lat="43.551162535779554" lon="11.690455886450422"><ele>300.0</ele><time>2026-04-19T14:22:43Z</time></trkpt><trkpt lat="43.551244481967515" lon="11.690362458921948"><ele>301.2</ele><time>2026-04-19T14:22:44Z</time></trkpt><trkpt lat="43.551292922689434" lon="11.690243436446632"><ele>302.4</ele><time>2026-04-19T14:22:45Z</time></trkpt><trkpt lat="43.55130653237694" lon="11.690105180363972"><ele>303.6</ele><time>2026-04-19T14:22:46Z</time></trkpt><trkpt lat="43.55128593948653" lon="11.689956932600932"><ele>304.8</ele><time>2026-04-19T14:22:47Z</time></trkpt><trkpt lat="43.5512434554544" lon="11.689800141881799"><ele>306.0</ele><time>2026-04-19T14:22:48Z</time></trkpt><trkpt lat="43.55121863233638" lon="11.689626809034605"><ele>306.0</ele><time>2026-04-19T14:22:49Z</time></trkpt><trkpt lat="43.55123459047805" lon="11.689430514989986"><ele>306.0</ele><time>2026-04-19T14:22:50Z</time></trkpt><trkpt lat="43.55128943039945" lon="11.689225089142615"><ele>306.0</ele><time>2026-04-19T14:22:51Z</time></trkpt><trkpt lat="43.55135484115755" lon="11.68900688679034"><ele>304.0</ele><time>2026-04-19T14:22:52Z</time></trkpt><trkpt lat="43.5514176270488" lon="11.68878211662026"><ele>302.0</ele><time>2026-04-19T14:22:53Z</time></trkpt><trkpt lat="43.55149207414143" lon="11.688558817788275"><ele>300.0</ele><time>2026-04-19T14:22:54Z</time></trkpt><trkpt lat="43.5515776326628" lon="11.688347636387629"><ele>298.0</ele><time>2026-04-19T14:22:55Z</time></trkpt><trkpt lat="43.55167430071229" lon="11.68814603214709"><ele>296.0</ele><time>2026-04-19T14:22:56Z</time></trkpt><trkpt lat="43.55178014937725" lon="11.687974345782012"><ele>294.0</ele><time>2026-04-19T14:22:57Z</time></trkpt><trkpt lat="43.551890885913224" lon="11.68781466987693"><ele>293.0</ele><time>2026-04-19T14:22:58Z</time></trkpt><trkpt lat="43.55200274131797" lon="11.68764619632443"><ele>292.0</ele><time>2026-04-19T14:22:59Z</time></trkpt><trkpt lat="43.55211505082127" lon="11.687475471336523"><ele>291.0</ele><time>2026-04-19T14:23:00Z</time></trkpt><trkpt lat="43.552228386216335" lon="11.68731508316621"><ele>292.0</ele><time>2026-04-19T14:23:01Z</time></trkpt><trkpt lat="43.552330861132425" lon="11.687159198997062"><ele>293.0</ele><time>2026-04-19T14:23:02Z</time></trkpt><trkpt lat="43.552416858789194" lon="11.686984780629226"><ele>294.0</ele><time>2026-04-19T14:23:03Z</time></trkpt><trkpt lat="43.55247556045128" lon="11.686784990979623"><ele>294.0</ele><time>2026-04-19T14:23:04Z</time></trkpt><trkpt lat="43.55250384126087" lon="11.686576374404506"><ele>294.0</ele><time>2026-04-19T14:23:05Z</time></trkpt><trkpt lat="43.55251280801602" lon="11.686380480068427"><ele>294.0</ele><time>2026-04-19T14:23:06Z</time></trkpt><trkpt lat="43.552540272823435" lon="11.686215660572294"><ele>294.0</ele><time>2026-04-19T14:23:07Z</time></trkpt><trkpt lat="43.55260712021798" lon="11.686061124050129"><ele>293.3333333333333</ele><time>2026-04-19T14:23:08Z</time></trkpt><trkpt lat="43.552708787045354" lon="11.68592362074855"><ele>292.66666666666663</ele><time>2026-04-19T14:23:09Z</time></trkpt><trkpt lat="43.55281840128899" lon="11.685776094597074"><ele>292.0</ele><time>2026-04-19T14:23:10Z</time></trkpt><trkpt lat="43.55292192351423" lon="11.685594544986037"><ele>294.66666666666663</ele><time>2026-04-19T14:23:11Z</time></trkpt><trkpt lat="43.55300888899168" lon="11.68540930756953"><ele>297.3333333333333</ele><time>2026-04-19T14:23:12Z</time></trkpt><trkpt lat="43.55308733825769" lon="11.685234284000295"><ele>300.0</ele><time>2026-04-19T14:23:13Z</time></trkpt><trkpt lat="43.553164347170444" lon="11.685064534278084"><ele>300.0</ele><time>2026-04-19T14:23:14Z</time></trkpt><trkpt lat="43.55324314534321" lon="11.684895835223548"><ele>300.0</ele><time>2026-04-19T14:23:15Z</time></trkpt><trkpt lat="43.553323546416095" lon="11.684736555769389"><ele>300.0</ele><time>2026-04-19T14:23:16Z</time></trkpt><trkpt lat="43.5534180679884" lon="11.684585978228176"><ele>300.0</ele><time>2026-04-19T14:23:16.999Z</time></trkpt><trkpt lat="43.55353053273222" lon="11.684446139499425"><ele>301.0</ele><time>2026-04-19T14:23:17.999Z</time></trkpt><trkpt lat="43.55365228879825" lon="11.684317516399775"><ele>302.0</ele><time>2026-04-19T14:23:18.999Z</time></trkpt><trkpt lat="43.553771136513866" lon="11.684193056592552"><ele>303.0</ele><time>2026-04-19T14:23:19.999Z</time></trkpt><trkpt lat="43.553882137441164" lon="11.684062695233774"><ele>304.0</ele><time>2026-04-19T14:23:20.999Z</time></trkpt><trkpt lat="43.55399336078976" lon="11.683936781790232"><ele>304.0</ele><time>2026-04-19T14:23:21.999Z</time></trkpt><trkpt lat="43.554102815396554" lon="11.683804924402759"><ele>304.0</ele><time>2026-04-19T14:23:22.999Z</time></trkpt><trkpt lat="43.554196392034264" lon="11.683653973211825"><ele>304.0</ele><time>2026-04-19T14:23:23.999Z</time></trkpt><trkpt lat="43.554259512717564" lon="11.683477167220316"><ele>304.0</ele><time>2026-04-19T14:23:24.999Z</time></trkpt><trkpt lat="43.55430918286839" lon="11.683269443713662"><ele>300.66666666666663</ele><time>2026-04-19T14:23:25.999Z</time></trkpt><trkpt lat="43.55436516608358" lon="11.683038966631443"><ele>297.3333333333333</ele><time>2026-04-19T14:23:26.999Z</time></trkpt><trkpt lat="43.55445078252877" lon="11.682782805570575"><ele>294.0</ele><time>2026-04-19T14:23:27.999Z</time></trkpt><trkpt lat="43.55452781190133" lon="11.68248982275262"><ele>295.0</ele><time>2026-04-19T14:23:28.999Z</time></trkpt><trkpt lat="43.55460291354174" lon="11.682204054458573"><ele>296.0</ele><time>2026-04-19T14:23:29.999Z</time></trkpt><trkpt lat="43.55465839777314" lon="11.68193805269407"><ele>297.0</ele><time>2026-04-19T14:23:30.999Z</time></trkpt><trkpt lat="43.554724109797355" lon="11.681686515149126"><ele>297.0</ele><time>2026-04-19T14:23:31.999Z</time></trkpt><trkpt lat="43.554785391779355" lon="11.681443059646371"><ele>297.0</ele><time>2026-04-19T14:23:32.999Z</time></trkpt><trkpt lat="43.554854268126014" lon="11.681219953589155"><ele>297.0</ele><time>2026-04-19T14:23:33.999Z</time></trkpt><trkpt lat="43.55493985807472" lon="11.681016834488753"><ele>295.3333333333333</ele><time>2026-04-19T14:23:34.999Z</time></trkpt><trkpt lat="43.55504859124404" lon="11.680854639646123"><ele>293.66666666666663</ele><time>2026-04-19T14:23:35.999Z</time></trkpt><trkpt lat="43.555181770552046" lon="11.680722078247896"><ele>292.0</ele><time>2026-04-19T14:23:36.999Z</time></trkpt><trkpt lat="43.555325924963185" lon="11.680639432963616"><ele>292.3333333333333</ele><time>2026-04-19T14:23:37.999Z</time></trkpt><trkpt lat="43.55548292922923" lon="11.680599309477808"><ele>292.6666666666667</ele><time>2026-04-19T14:23:38.999Z</time></trkpt><trkpt lat="43.555626156230566" lon="11.680537668239154"><ele>293.0</ele><time>2026-04-19T14:23:39.999Z</time></trkpt><trkpt lat="43.5557510303711" lon="11.68043853591726"><ele>293.0</ele><time>2026-04-19T14:23:40.999Z</time></trkpt><trkpt lat="43.55586262192229" lon="11.680305198307046"><ele>293.0</ele><time>2026-04-19T14:23:41.999Z</time></trkpt><trkpt lat="43.55594426918555" lon="11.680138857343517"><ele>293.0</ele><time>2026-04-19T14:23:42.999Z</time></trkpt><trkpt lat="43.55599110863177" lon="11.679943961911242"><ele>293.0</ele><time>2026-04-19T14:23:43.999Z</time></trkpt><trkpt lat="43.55601759510473" lon="11.679724667884793"><ele>292.33333333333337</ele><time>2026-04-19T14:23:44.999Z</time></trkpt><trkpt lat="43.55602688165576" lon="11.67949748376571"><ele>291.6666666666667</ele><time>2026-04-19T14:23:45.999Z</time></trkpt><trkpt lat="43.556035212441756" lon="11.67929209636516"><ele>291.0</ele><time>2026-04-19T14:23:46.999Z</time></trkpt><trkpt lat="43.55606571179883" lon="11.679107705382478"><ele>291.0</ele><time>2026-04-19T14:23:47.999Z</time></trkpt><trkpt lat="43.55613188024742" lon="11.678930804950747"><ele>291.0</ele><time>2026-04-19T14:23:48.999Z</time></trkpt><trkpt lat="43.556235078127635" lon="11.6787680208212"><ele>291.0</ele><time>2026-04-19T14:23:49.999Z</time></trkpt><trkpt lat="43.55635491683731" lon="11.678606173232557"><ele>293.0</ele><time>2026-04-19T14:23:50.999Z</time></trkpt><trkpt lat="43.55649356218887" lon="11.67844380848559"><ele>295.0</ele><time>2026-04-19T14:23:51.999Z</time></trkpt><trkpt lat="43.556642933916464" lon="11.678298339459124"><ele>297.0</ele><time>2026-04-19T14:23:52.999Z</time></trkpt><trkpt lat="43.55679566624971" lon="11.67815855749104"><ele>297.0</ele><time>2026-04-19T14:23:53.999Z</time></trkpt><trkpt lat="43.55694181582463" lon="11.678013085814113"><ele>297.0</ele><time>2026-04-19T14:23:54.999Z</time></trkpt><trkpt lat="43.557080492195624" lon="11.67786258856294"><ele>297.0</ele><time>2026-04-19T14:23:55.999Z</time></trkpt><trkpt lat="43.557208888157" lon="11.67770533719528"><ele>297.3333333333333</ele><time>2026-04-19T14:23:56.999Z</time></trkpt><trkpt lat="43.5573181059069" lon="11.677514973557807"><ele>297.66666666666663</ele><time>2026-04-19T14:23:57.999Z</time></trkpt><trkpt lat="43.55740452347282" lon="11.677293032897936"><ele>298.0</ele><time>2026-04-19T14:23:58.999Z</time></trkpt><trkpt lat="43.55747108968777" lon="11.677064244289811"><ele>297.66666666666663</ele><time>2026-04-19T14:23:59.999Z</time></trkpt><trkpt lat="43.557523362870725" lon="11.67684600994382"><ele>297.3333333333333</ele><time>2026-04-19T14:24:00.999Z</time></trkpt><trkpt lat="43.55758854274765" lon="11.676639568767417"><ele>297.0</ele><time>2026-04-19T14:24:01.999Z</time></trkpt><trkpt lat="43.55768640770107" lon="11.676462363082875"><ele>297.0</ele><time>2026-04-19T14:24:02.999Z</time></trkpt><trkpt lat="43.557811164854975" lon="11.676325094591368"><ele>297.0</ele><time>2026-04-19T14:24:03.999Z</time></trkpt><trkpt lat="43.55795617013228" lon="11.67623367693842"><ele>297.0</ele><time>2026-04-19T14:24:04.999Z</time></trkpt><trkpt lat="43.55811312885507" lon="11.676176818660068"><ele>297.75</ele><time>2026-04-19T14:24:05.999Z</time></trkpt><trkpt lat="43.55826773845949" lon="11.67613404928072"><ele>298.5</ele><time>2026-04-19T14:24:06.999Z</time></trkpt><trkpt lat="43.55840868365547" lon="11.676085372908707"><ele>299.25</ele><time>2026-04-19T14:24:07.999Z</time></trkpt><trkpt lat="43.55854356491936" lon="11.6760119203058"><ele>300.0</ele><time>2026-04-19T14:24:08.999Z</time></trkpt><trkpt lat="43.55866006234419" lon="11.675906628334983"><ele>302.25</ele><time>2026-04-19T14:24:09.999Z</time></trkpt><trkpt lat="43.558741292571064" lon="11.675770577807823"><ele>304.5</ele><time>2026-04-19T14:24:10.999Z</time></trkpt><trkpt lat="43.55878905552583" lon="11.675598344286175"><ele>306.75</ele><time>2026-04-19T14:24:11.999Z</time></trkpt><trkpt lat="43.55881187404096" lon="11.67541498058743"><ele>309.0</ele><time>2026-04-19T14:24:12.998Z</time></trkpt><trkpt lat="43.55876859299442" lon="11.675245323520418"><ele>309.5</ele><time>2026-04-19T14:24:13.998Z</time></trkpt><trkpt lat="43.55873554804518" lon="11.67510213061134"><ele>310.0</ele><time>2026-04-19T14:24:14.998Z</time></trkpt><trkpt lat="43.55870605116801" lon="11.674963520603596"><ele>310.5</ele><time>2026-04-19T14:24:15.998Z</time></trkpt><trkpt lat="43.55868230213648" lon="11.67480708795046"><ele>311.0</ele><time>2026-04-19T14:24:16.998Z</time></trkpt><trkpt lat="43.558663651749015" lon="11.674627624248814"><ele>311.0</ele><time>2026-04-19T14:24:17.998Z</time></trkpt><trkpt lat="43.558654149176235" lon="11.674453904472212"><ele>311.0</ele><time>2026-04-19T14:24:18.998Z</time></trkpt><trkpt lat="43.55866061955931" lon="11.674295278683614"><ele>311.0</ele><time>2026-04-19T14:24:19.998Z</time></trkpt><trkpt lat="43.55868999683616" lon="11.674157146000711"><ele>311.0</ele><time>2026-04-19T14:24:20.998Z</time></trkpt><trkpt lat="43.558744436444584" lon="11.674027751444383"><ele>311.0</ele><time>2026-04-19T14:24:21.998Z</time></trkpt><trkpt lat="43.55883754916746" lon="11.673935848451498"><ele>311.0</ele><time>2026-04-19T14:24:22.998Z</time></trkpt><trkpt lat="43.558954537003316" lon="11.673869312912643"><ele>311.0</ele><time>2026-04-19T14:24:23.998Z</time></trkpt><trkpt lat="43.55909063973799" lon="11.67380322867109"><ele>311.0</ele><time>2026-04-19T14:24:24.998Z</time></trkpt><trkpt lat="43.55924350876029" lon="11.673754271553657"><ele>311.0</ele><time>2026-04-19T14:24:26Z</time></trkpt><trkpt lat="43.559398002029326" lon="11.673721478614658"><ele>311.0</ele><time>2026-04-19T14:24:27Z</time></trkpt><trkpt lat="43.5595663610738" lon="11.67370319322004"><ele>311.0</ele><time>2026-04-19T14:24:28Z</time></trkpt><trkpt lat="43.55973094695607" lon="11.67371633471776"><ele>312.5</ele><time>2026-04-19T14:24:29Z</time></trkpt><trkpt lat="43.55988092685717" lon="11.673741494407281"><ele>314.0</ele><time>2026-04-19T14:24:30Z</time></trkpt><trkpt lat="43.560010672404374" lon="11.673760692730049"><ele>315.5</ele><time>2026-04-19T14:24:31Z</time></trkpt><trkpt lat="43.5601260552146" lon="11.673757538886147"><ele>317.0</ele><time>2026-04-19T14:24:32Z</time></trkpt><trkpt lat="43.56022199138224" lon="11.673724355222555"><ele>317.0</ele><time>2026-04-19T14:24:33Z</time></trkpt><trkpt lat="43.5602948868429" lon="11.673650881826237"><ele>317.0</ele><time>2026-04-19T14:24:34Z</time></trkpt><trkpt lat="43.56034335889066" lon="11.673541422983597"><ele>317.0</ele><time>2026-04-19T14:24:35Z</time></trkpt><trkpt lat="43.56036003385531" lon="11.673408438196294"><ele>317.0</ele><time>2026-04-19T14:24:36Z</time></trkpt><trkpt lat="43.56034269805797" lon="11.673267601630783"><ele>317.0</ele><time>2026-04-19T14:24:37Z</time></trkpt><trkpt lat="43.56029691862333" lon="11.673114801378624"><ele>315.33333333333337</ele><time>2026-04-19T14:24:38Z</time></trkpt><trkpt lat="43.560241261083405" lon="11.672944448742166"><ele>313.6666666666667</ele><time>2026-04-19T14:24:39Z</time></trkpt><trkpt lat="43.56019057055901" lon="11.672737544320002"><ele>312.0</ele><time>2026-04-19T14:24:40Z</time></trkpt><trkpt lat="43.56015819314619" lon="11.672503010902176"><ele>312.0</ele><time>2026-04-19T14:24:41Z</time></trkpt><trkpt lat="43.5601473396619" lon="11.672247206118305"><ele>312.0</ele><time>2026-04-19T14:24:42Z</time></trkpt><trkpt lat="43.56013783740353" lon="11.672004554424174"><ele>312.0</ele><time>2026-04-19T14:24:43Z</time></trkpt><trkpt lat="43.56012592356412" lon="11.671788412739497"><ele>312.0</ele><time>2026-04-19T14:24:44Z</time></trkpt><trkpt lat="43.56011598070577" lon="11.671587097582144"><ele>312.0</ele><time>2026-04-19T14:24:45Z</time></trkpt><trkpt lat="43.56011302727834" lon="11.671398531564835"><ele>312.0</ele><time>2026-04-19T14:24:46Z</time></trkpt><trkpt lat="43.56013635314455" lon="11.671205875802277"><ele>312.0</ele><time>2026-04-19T14:24:47Z</time></trkpt><trkpt lat="43.56019861201825" lon="11.671007431797003"><ele>311.6666666666667</ele><time>2026-04-19T14:24:48Z</time></trkpt><trkpt lat="43.56029081048841" lon="11.67080829794562"><ele>311.33333333333337</ele><time>2026-04-19T14:24:49Z</time></trkpt><trkpt lat="43.56037771666827" lon="11.670610491511532"><ele>311.0</ele><time>2026-04-19T14:24:50Z</time></trkpt><trkpt lat="43.56045380684324" lon="11.67041595857499"><ele>312.75</ele><time>2026-04-19T14:24:51Z</time></trkpt><trkpt lat="43.560513367011545" lon="11.670223983043877"><ele>314.5</ele><time>2026-04-19T14:24:52Z</time></trkpt><trkpt lat="43.56054439023425" lon="11.670034482873412"><ele>316.25</ele><time>2026-04-19T14:24:53Z</time></trkpt><trkpt lat="43.560544835067994" lon="11.669834972193996"><ele>318.0</ele><time>2026-04-19T14:24:54Z</time></trkpt><trkpt lat="43.56051112874914" lon="11.669637231327902"><ele>318.0</ele><time>2026-04-19T14:24:55Z</time></trkpt><trkpt lat="43.560443347698865" lon="11.669454856740549"><ele>318.0</ele><time>2026-04-19T14:24:56Z</time></trkpt><trkpt lat="43.56036022702189" lon="11.669266801970808"><ele>318.0</ele><time>2026-04-19T14:24:57Z</time></trkpt><trkpt lat="43.560296686738575" lon="11.669055142713049"><ele>314.6666666666667</ele><time>2026-04-19T14:24:58Z</time></trkpt><trkpt lat="43.56026202885807" lon="11.668821584781883"><ele>311.33333333333337</ele><time>2026-04-19T14:24:59Z</time></trkpt><trkpt lat="43.56024794360105" lon="11.668583035927728"><ele>308.0</ele><time>2026-04-19T14:25:00Z</time></trkpt><trkpt lat="43.56025911798211" lon="11.66834156870333"><ele>308.0</ele><time>2026-04-19T14:25:01Z</time></trkpt><trkpt lat="43.56029018774489" lon="11.66808933409752"><ele>308.0</ele><time>2026-04-19T14:25:02Z</time></trkpt><trkpt lat="43.560340042648484" lon="11.667818739650027"><ele>308.0</ele><time>2026-04-19T14:25:03Z</time></trkpt><trkpt lat="43.560384049798316" lon="11.66756237493502"><ele>312.6666666666667</ele><time>2026-04-19T14:25:04Z</time></trkpt><trkpt lat="43.56041695465316" lon="11.667327590920067"><ele>317.3333333333333</ele><time>2026-04-19T14:25:05Z</time></trkpt><trkpt lat="43.56043136376306" lon="11.667100620347904"><ele>322.0</ele><time>2026-04-19T14:25:06Z</time></trkpt><trkpt lat="43.56040883979943" lon="11.666864796257574"><ele>316.3333333333333</ele><time>2026-04-19T14:25:07Z</time></trkpt><trkpt lat="43.560354491258686" lon="11.666637816269935"><ele>310.6666666666667</ele><time>2026-04-19T14:25:08Z</time></trkpt><trkpt lat="43.560307161268504" lon="11.666436971048194"><ele>305.0</ele><time>2026-04-19T14:25:09Z</time></trkpt><trkpt lat="43.560299428783935" lon="11.66623400187861"><ele>305.33333333333337</ele><time>2026-04-19T14:25:10Z</time></trkpt><trkpt lat="43.56032617173745" lon="11.666013162821214"><ele>305.6666666666667</ele><time>2026-04-19T14:25:11Z</time></trkpt><trkpt lat="43.56036882118435" lon="11.665804936339555"><ele>306.0</ele><time>2026-04-19T14:25:12Z</time></trkpt><trkpt lat="43.56041646443041" lon="11.665624850789763"><ele>307.25</ele><time>2026-04-19T14:25:13Z</time></trkpt><trkpt lat="43.56047931677911" lon="11.665469077501315"><ele>308.5</ele><time>2026-04-19T14:25:14Z</time></trkpt><trkpt lat="43.5605724654828" lon="11.665338886942253"><ele>309.75</ele><time>2026-04-19T14:25:15Z</time></trkpt><trkpt lat="43.5606927565949" lon="11.665251319087835"><ele>311.0</ele><time>2026-04-19T14:25:16Z</time></trkpt><trkpt lat="43.560830402652556" lon="11.665208181364394"><ele>311.0</ele><time>2026-04-19T14:25:17Z</time></trkpt><trkpt lat="43.56096630462151" lon="11.66518578419179"><ele>311.0</ele><time>2026-04-19T14:25:18Z</time></trkpt><trkpt lat="43.56108318635692" lon="11.665162574658963"><ele>311.0</ele><time>2026-04-19T14:25:19Z</time></trkpt><trkpt lat="43.56118665314893" lon="11.665100413945558"><ele>311.0</ele><time>2026-04-19T14:25:20Z</time></trkpt><trkpt lat="43.5612712159078" lon="11.664998559823035"><ele>313.25</ele><time>2026-04-19T14:25:21Z</time></trkpt><trkpt lat="43.561321485244015" lon="11.664851429242434"><ele>315.5</ele><time>2026-04-19T14:25:22Z</time></trkpt><trkpt lat="43.56133237738415" lon="11.664682440327153"><ele>317.75</ele><time>2026-04-19T14:25:23Z</time></trkpt><trkpt lat="43.561307142024916" lon="11.664503862674598"><ele>320.0</ele><time>2026-04-19T14:25:24Z</time></trkpt><trkpt lat="43.561275488990944" lon="11.664340260336905"><ele>320.0</ele><time>2026-04-19T14:25:25Z</time></trkpt><trkpt lat="43.56126278242098" lon="11.664190346276786"><ele>320.0</ele><time>2026-04-19T14:25:26Z</time></trkpt><trkpt lat="43.56128250959933" lon="11.664037033564073"><ele>320.0</ele><time>2026-04-19T14:25:26.999Z</time></trkpt><trkpt lat="43.56133736182071" lon="11.663909162705199"><ele>320.0</ele><time>2026-04-19T14:25:27.999Z</time></trkpt><trkpt lat="43.56143187200346" lon="11.663820773635996"><ele>320.0</ele><time>2026-04-19T14:25:28.999Z</time></trkpt><trkpt lat="43.561551279808874" lon="11.663771228934522"><ele>320.0</ele><time>2026-04-19T14:25:29.999Z</time></trkpt><trkpt lat="43.56168097506727" lon="11.663753205076578"><ele>320.0</ele><time>2026-04-19T14:25:30.999Z</time></trkpt><trkpt lat="43.561808318762814" lon="11.6637235501254"><ele>320.0</ele><time>2026-04-19T14:25:31.999Z</time></trkpt><trkpt lat="43.56191788391881" lon="11.663639528158996"><ele>320.0</ele><time>2026-04-19T14:25:32.999Z</time></trkpt><trkpt lat="43.56200219471338" lon="11.663512740422528"><ele>320.75</ele><time>2026-04-19T14:25:33.999Z</time></trkpt><trkpt lat="43.56206767274535" lon="11.663357549195313"><ele>321.5</ele><time>2026-04-19T14:25:34.999Z</time></trkpt><trkpt lat="43.56213093949198" lon="11.663202147177973"><ele>322.25</ele><time>2026-04-19T14:25:35.999Z</time></trkpt><trkpt lat="43.56222228039915" lon="11.663071967981894"><ele>323.0</ele><time>2026-04-19T14:25:36.999Z</time></trkpt><trkpt lat="43.56233901054552" lon="11.662986708527054"><ele>323.0</ele><time>2026-04-19T14:25:37.999Z</time></trkpt><trkpt lat="43.56247521002146" lon="11.6629476897629"><ele>323.0</ele><time>2026-04-19T14:25:38.999Z</time></trkpt><trkpt lat="43.562624846042745" lon="11.66293812665392"><ele>323.0</ele><time>2026-04-19T14:25:39.999Z</time></trkpt><trkpt lat="43.56277064993635" lon="11.662950503483586"><ele>323.0</ele><time>2026-04-19T14:25:40.999Z</time></trkpt><trkpt lat="43.5628939082934" lon="11.662963026408114"><ele>322.25</ele><time>2026-04-19T14:25:41.999Z</time></trkpt><trkpt lat="43.56299795524388" lon="11.662937196636898"><ele>321.5</ele><time>2026-04-19T14:25:42.999Z</time></trkpt><trkpt lat="43.5630901596105" lon="11.662859605366997"><ele>320.75</ele><time>2026-04-19T14:25:43.999Z</time></trkpt><trkpt lat="43.56315969452485" lon="11.662737052470916"><ele>320.0</ele><time>2026-04-19T14:25:44.999Z</time></trkpt><trkpt lat="43.563206767128044" lon="11.66257647191166"><ele>320.0</ele><time>2026-04-19T14:25:45.999Z</time></trkpt><trkpt lat="43.56324055640858" lon="11.662388448713067"><ele>320.0</ele><time>2026-04-19T14:25:46.999Z</time></trkpt><trkpt lat="43.56326626349077" lon="11.66218731629463"><ele>320.0</ele><time>2026-04-19T14:25:47.999Z</time></trkpt><trkpt lat="43.56329220787411" lon="11.661989001946276"><ele>320.0</ele><time>2026-04-19T14:25:48.999Z</time></trkpt><trkpt lat="43.56332442105647" lon="11.661807967367103"><ele>318.5</ele><time>2026-04-19T14:25:49.999Z</time></trkpt><trkpt lat="43.563379111281336" lon="11.66162972239308"><ele>317.0</ele><time>2026-04-19T14:25:50.999Z</time></trkpt><trkpt lat="43.56346224446655" lon="11.661459033726672"><ele>315.5</ele><time>2026-04-19T14:25:51.999Z</time></trkpt><trkpt lat="43.56356791032599" lon="11.66132004611167"><ele>314.0</ele><time>2026-04-19T14:25:52.999Z</time></trkpt><trkpt lat="43.56368371708866" lon="11.661205953621069"><ele>317.5</ele><time>2026-04-19T14:25:53.999Z</time></trkpt><trkpt lat="43.56378336774865" lon="11.661091435254807"><ele>321.0</ele><time>2026-04-19T14:25:54.999Z</time></trkpt><trkpt lat="43.56385659458832" lon="11.660944879493357"><ele>324.5</ele><time>2026-04-19T14:25:55.999Z</time></trkpt><trkpt lat="43.563889561935056" lon="11.66076225459759"><ele>328.0</ele><time>2026-04-19T14:25:56.999Z</time></trkpt><trkpt lat="43.56389844442362" lon="11.66056847076527"><ele>328.0</ele><time>2026-04-19T14:25:57.999Z</time></trkpt><trkpt lat="43.56389883193378" lon="11.660377458594741"><ele>328.0</ele><time>2026-04-19T14:25:58.999Z</time></trkpt><trkpt lat="43.56391434390543" lon="11.660203180514019"><ele>328.0</ele><time>2026-04-19T14:25:59.999Z</time></trkpt><trkpt lat="43.56395805603566" lon="11.660027776588256"><ele>328.0</ele><time>2026-04-19T14:26:00.999Z</time></trkpt><trkpt lat="43.56403387931813" lon="11.659859829454733"><ele>326.3333333333333</ele><time>2026-04-19T14:26:01.999Z</time></trkpt><trkpt lat="43.56412801962289" lon="11.659697569138935"><ele>324.6666666666667</ele><time>2026-04-19T14:26:02.999Z</time></trkpt><trkpt lat="43.56424284326492" lon="11.659552596325646"><ele>323.0</ele><time>2026-04-19T14:26:03.999Z</time></trkpt><trkpt lat="43.56438052478762" lon="11.659422104191785"><ele>322.6666666666667</ele><time>2026-04-19T14:26:04.999Z</time></trkpt><trkpt lat="43.56452905207877" lon="11.659297432259239"><ele>322.3333333333333</ele><time>2026-04-19T14:26:05.999Z</time></trkpt><trkpt lat="43.564684530822056" lon="11.65918418197546"><ele>322.0</ele><time>2026-04-19T14:26:06.999Z</time></trkpt><trkpt lat="43.56484790239091" lon="11.659069321011394"><ele>322.0</ele><time>2026-04-19T14:26:07.999Z</time></trkpt><trkpt lat="43.56500998942538" lon="11.658951151374598"><ele>322.0</ele><time>2026-04-19T14:26:08.999Z</time></trkpt><trkpt lat="43.56516733057666" lon="11.658828929221848"><ele>322.0</ele><time>2026-04-19T14:26:09.999Z</time></trkpt><trkpt lat="43.56531623741214" lon="11.658716693282896"><ele>321.0</ele><time>2026-04-19T14:26:10.999Z</time></trkpt><trkpt lat="43.565460757968516" lon="11.658627280378992"><ele>320.0</ele><time>2026-04-19T14:26:11.999Z</time></trkpt><trkpt lat="43.56560771884485" lon="11.658565388852288"><ele>319.0</ele><time>2026-04-19T14:26:12.999Z</time></trkpt><trkpt lat="43.565768443379206" lon="11.658526635578344"><ele>319.0</ele><time>2026-04-19T14:26:13.999Z</time></trkpt><trkpt lat="43.565934923677396" lon="11.658489356616913"><ele>319.0</ele><time>2026-04-19T14:26:14.999Z</time></trkpt><trkpt lat="43.566097847409154" lon="11.658461209200292"><ele>319.0</ele><time>2026-04-19T14:26:15.999Z</time></trkpt><trkpt lat="43.56625095322655" lon="11.658419121858993"><ele>320.0</ele><time>2026-04-19T14:26:16.999Z</time></trkpt><trkpt lat="43.56640308015661" lon="11.658345366588852"><ele>321.0</ele><time>2026-04-19T14:26:17.999Z</time></trkpt><trkpt lat="43.566555775019104" lon="11.658249900091581"><ele>322.0</ele><time>2026-04-19T14:26:18.999Z</time></trkpt><trkpt lat="43.5667000719388" lon="11.658130395817361"><ele>322.0</ele><time>2026-04-19T14:26:19.999Z</time></trkpt><trkpt lat="43.56683447181959" lon="11.657983259002776"><ele>322.0</ele><time>2026-04-19T14:26:20.999Z</time></trkpt><trkpt lat="43.56696138199318" lon="11.65781114230844"><ele>322.0</ele><time>2026-04-19T14:26:21.998Z</time></trkpt><trkpt lat="43.56707972858018" lon="11.65762801784388"><ele>322.0</ele><time>2026-04-19T14:26:22.998Z</time></trkpt><trkpt lat="43.56719042196156" lon="11.657430613890286"><ele>322.0</ele><time>2026-04-19T14:26:23.998Z</time></trkpt><trkpt lat="43.56727536670856" lon="11.657212179099796"><ele>322.0</ele><time>2026-04-19T14:26:24.998Z</time></trkpt><trkpt lat="43.56734808396573" lon="11.656995874500529"><ele>320.0</ele><time>2026-04-19T14:26:25.998Z</time></trkpt><trkpt lat="43.567420892459445" lon="11.6567962759331"><ele>318.0</ele><time>2026-04-19T14:26:26.998Z</time></trkpt><trkpt lat="43.567498081609486" lon="11.65661415588826"><ele>316.0</ele><time>2026-04-19T14:26:27.998Z</time></trkpt><trkpt lat="43.56759127868986" lon="11.656457128083156"><ele>316.0</ele><time>2026-04-19T14:26:28.998Z</time></trkpt><trkpt lat="43.567694857026574" lon="11.656326820229449"><ele>316.0</ele><time>2026-04-19T14:26:29.998Z</time></trkpt><trkpt lat="43.56781022107982" lon="11.656218616349465"><ele>316.0</ele><time>2026-04-19T14:26:31.001Z</time></trkpt><trkpt lat="43.56793721069838" lon="11.656150042010012"><ele>316.0</ele><time>2026-04-19T14:26:32.001Z</time></trkpt><trkpt lat="43.56807724451754" lon="11.656108561990276"><ele>315.75</ele><time>2026-04-19T14:26:33.001Z</time></trkpt><trkpt lat="43.568226912238586" lon="11.6560859645122"><ele>315.5</ele><time>2026-04-19T14:26:34.001Z</time></trkpt><trkpt lat="43.56835988484354" lon="11.656074234404196"><ele>315.25</ele><time>2026-04-19T14:26:35.001Z</time></trkpt><trkpt lat="43.568479867996544" lon="11.656045440206404"><ele>315.0</ele><time>2026-04-19T14:26:36.001Z</time></trkpt><trkpt lat="43.56858542796903" lon="11.65599532013397"><ele>315.0</ele><time>2026-04-19T14:26:37.001Z</time></trkpt><trkpt lat="43.568672770425636" lon="11.655917547468583"><ele>315.0</ele><time>2026-04-19T14:26:38.001Z</time></trkpt><trkpt lat="43.568726319687144" lon="11.65580931869611"><ele>315.0</ele><time>2026-04-19T14:26:39.001Z</time></trkpt><trkpt lat="43.56874284007503" lon="11.65567986182168"><ele>315.0</ele><time>2026-04-19T14:26:40.001Z</time></trkpt><trkpt lat="43.56874771805584" lon="11.655535384162334"><ele>315.0</ele><time>2026-04-19T14:26:41.001Z</time></trkpt><trkpt lat="43.5686752494926" lon="11.65540314920045"><ele>314.75</ele><time>2026-04-19T14:26:42.001Z</time></trkpt><trkpt lat="43.56859658111175" lon="11.655269704865525"><ele>314.5</ele><time>2026-04-19T14:26:43.001Z</time></trkpt><trkpt lat="43.56850564916557" lon="11.655125115089364"><ele>314.25</ele><time>2026-04-19T14:26:44.001Z</time></trkpt><trkpt lat="43.56841856980339" lon="11.654974149156663"><ele>314.0</ele><time>2026-04-19T14:26:45Z</time></trkpt><trkpt lat="43.568348157419216" lon="11.654813774485618"><ele>314.0</ele><time>2026-04-19T14:26:46Z</time></trkpt><trkpt lat="43.56830985439268" lon="11.654652017689024"><ele>314.0</ele><time>2026-04-19T14:26:47Z</time></trkpt><trkpt lat="43.56830404678591" lon="11.654490312803524"><ele>314.0</ele><time>2026-04-19T14:26:48Z</time></trkpt><trkpt lat="43.568333433520145" lon="11.65433084222918"><ele>314.0</ele><time>2026-04-19T14:26:49Z</time></trkpt><trkpt lat="43.568397400574234" lon="11.654174535401596"><ele>314.33333333333337</ele><time>2026-04-19T14:26:50Z</time></trkpt><trkpt lat="43.5684808894433" lon="11.654009079140858"><ele>314.6666666666667</ele><time>2026-04-19T14:26:51Z</time></trkpt><trkpt lat="43.56857647092492" lon="11.653838197177063"><ele>315.0</ele><time>2026-04-19T14:26:52Z</time></trkpt><trkpt lat="43.56867665689836" lon="11.653659065186051"><ele>316.6666666666667</ele><time>2026-04-19T14:26:53Z</time></trkpt><trkpt lat="43.568775344481644" lon="11.653488003919048"><ele>318.33333333333337</ele><time>2026-04-19T14:26:54Z</time></trkpt><trkpt lat="43.56887289041856" lon="11.653322843787981"><ele>320.0</ele><time>2026-04-19T14:26:55Z</time></trkpt><trkpt lat="43.5689590706087" lon="11.653174121438726"><ele>320.0</ele><time>2026-04-19T14:26:56Z</time></trkpt><trkpt lat="43.56903573024121" lon="11.653039987715037"><ele>320.0</ele><time>2026-04-19T14:26:57Z</time></trkpt><trkpt lat="43.56910618547527" lon="11.652915601352468"><ele>320.0</ele><time>2026-04-19T14:26:58Z</time></trkpt><trkpt lat="43.569167852722885" lon="11.652804526857963"><ele>320.0</ele><time>2026-04-19T14:26:59Z</time></trkpt><trkpt lat="43.56921881525959" lon="11.652711312144163"><ele>320.0</ele><time>2026-04-19T14:27:00Z</time></trkpt><trkpt lat="43.569261347205355" lon="11.652622323265687"><ele>319.6</ele><time>2026-04-19T14:27:01Z</time></trkpt><trkpt lat="43.56928811769005" lon="11.652517828995991"><ele>319.2</ele><time>2026-04-19T14:27:02Z</time></trkpt><trkpt lat="43.569305803633675" lon="11.652400599203853"><ele>318.8</ele><time>2026-04-19T14:27:03Z</time></trkpt><trkpt lat="43.56932520495397" lon="11.652276056823316"><ele>318.4</ele><time>2026-04-19T14:27:04Z</time></trkpt><trkpt lat="43.569314639267205" lon="11.65214588959895"><ele>318.0</ele><time>2026-04-19T14:27:05Z</time></trkpt><trkpt lat="43.56927157661099" lon="11.652025530800733"><ele>316.5</ele><time>2026-04-19T14:27:06Z</time></trkpt><trkpt lat="43.569193753013536" lon="11.651905781169194"><ele>315.0</ele><time>2026-04-19T14:27:07Z</time></trkpt><trkpt lat="43.56909212723387" lon="11.651785342284725"><ele>313.5</ele><time>2026-04-19T14:27:08Z</time></trkpt><trkpt lat="43.56897183865005" lon="11.651650134585095"><ele>312.0</ele><time>2026-04-19T14:27:09Z</time></trkpt><trkpt lat="43.56884567473087" lon="11.651508113732817"><ele>312.0</ele><time>2026-04-19T14:27:10Z</time></trkpt><trkpt lat="43.56871106722698" lon="11.651358301187532"><ele>312.0</ele><time>2026-04-19T14:27:11Z</time></trkpt><trkpt lat="43.568566031772995" lon="11.651198141933405"><ele>312.0</ele><time>2026-04-19T14:27:12Z</time></trkpt><trkpt lat="43.56842030953876" lon="11.651034577564626"><ele>309.0</ele><time>2026-04-19T14:27:13Z</time></trkpt><trkpt lat="43.56827004364774" lon="11.650867256980888"><ele>306.0</ele><time>2026-04-19T14:27:14Z</time></trkpt><trkpt lat="43.5681158662743" lon="11.650697097520831"><ele>303.0</ele><time>2026-04-19T14:27:15Z</time></trkpt><trkpt lat="43.56796099810955" lon="11.650525881849065"><ele>301.0</ele><time>2026-04-19T14:27:16Z</time></trkpt><trkpt lat="43.567804608890256" lon="11.650355992314028"><ele>299.0</ele><time>2026-04-19T14:27:17Z</time></trkpt><trkpt lat="43.56764914224329" lon="11.650186180717641"><ele>297.0</ele><time>2026-04-19T14:27:18Z</time></trkpt><trkpt lat="43.567493125414686" lon="11.650016606165032"><ele>297.0</ele><time>2026-04-19T14:27:19Z</time></trkpt><trkpt lat="43.56733893745736" lon="11.649848392094759"><ele>297.0</ele><time>2026-04-19T14:27:20Z</time></trkpt><trkpt lat="43.56718434487322" lon="11.649676623760323"><ele>297.0</ele><time>2026-04-19T14:27:21Z</time></trkpt><trkpt lat="43.56702714084631" lon="11.649505996719661"><ele>295.3333333333333</ele><time>2026-04-19T14:27:22Z</time></trkpt><trkpt lat="43.56686883344253" lon="11.649335963301954"><ele>293.66666666666663</ele><time>2026-04-19T14:27:23Z</time></trkpt><trkpt lat="43.56671253103054" lon="11.64916406467883"><ele>292.0</ele><time>2026-04-19T14:27:24Z</time></trkpt><trkpt lat="43.5665562627188" lon="11.648990580422339"><ele>292.0</ele><time>2026-04-19T14:27:25Z</time></trkpt><trkpt lat="43.56639403206674" lon="11.64881670876578"><ele>292.0</ele><time>2026-04-19T14:27:26Z</time></trkpt><trkpt lat="43.56623015046981" lon="11.648644372768242"><ele>292.0</ele><time>2026-04-19T14:27:27Z</time></trkpt><trkpt lat="43.56606470252866" lon="11.648465869207403"><ele>291.0</ele><time>2026-04-19T14:27:28Z</time></trkpt><trkpt lat="43.56589780882623" lon="11.648284067766678"><ele>290.0</ele><time>2026-04-19T14:27:29Z</time></trkpt><trkpt lat="43.56573048287782" lon="11.64809893397129"><ele>289.0</ele><time>2026-04-19T14:27:30Z</time></trkpt><trkpt lat="43.56555982592693" lon="11.647916904229888"><ele>288.0</ele><time>2026-04-19T14:27:31Z</time></trkpt><trkpt lat="43.565387199112955" lon="11.647738811216334"><ele>287.0</ele><time>2026-04-19T14:27:32Z</time></trkpt><trkpt lat="43.56521627026917" lon="11.647558215090209"><ele>286.0</ele><time>2026-04-19T14:27:33Z</time></trkpt><trkpt lat="43.56504494659418" lon="11.647377568810597"><ele>285.66666666666663</ele><time>2026-04-19T14:27:34Z</time></trkpt><trkpt lat="43.56487265033626" lon="11.647200621033523"><ele>285.3333333333333</ele><time>2026-04-19T14:27:35Z</time></trkpt><trkpt lat="43.564700791880334" lon="11.647023835571428"><ele>285.0</ele><time>2026-04-19T14:27:36Z</time></trkpt><trkpt lat="43.56453102856634" lon="11.646847075327056"><ele>283.6666666666667</ele><time>2026-04-19T14:27:36.999Z</time></trkpt><trkpt lat="43.56436222967863" lon="11.646670061392763"><ele>282.33333333333337</ele><time>2026-04-19T14:27:37.999Z</time></trkpt><trkpt lat="43.56419193237447" lon="11.64649315142604"><ele>281.0</ele><time>2026-04-19T14:27:38.999Z</time></trkpt><trkpt lat="43.56402297492686" lon="11.646319885003573"><ele>281.0</ele><time>2026-04-19T14:27:39.999Z</time></trkpt><trkpt lat="43.563854290050486" lon="11.646146286592046"><ele>281.0</ele><time>2026-04-19T14:27:40.999Z</time></trkpt><trkpt lat="43.56368661135457" lon="11.645971543332184"><ele>281.0</ele><time>2026-04-19T14:27:41.999Z</time></trkpt><trkpt lat="43.5635190117354" lon="11.6457996042458"><ele>281.0</ele><time>2026-04-19T14:27:42.999Z</time></trkpt><trkpt lat="43.563351209320565" lon="11.645628563738754"><ele>281.0</ele><time>2026-04-19T14:27:43.999Z</time></trkpt><trkpt lat="43.56318523671102" lon="11.64545843064432"><ele>281.0</ele><time>2026-04-19T14:27:44.999Z</time></trkpt><trkpt lat="43.56301977445409" lon="11.645285393183594"><ele>279.0</ele><time>2026-04-19T14:27:45.999Z</time></trkpt><trkpt lat="43.562852239012564" lon="11.64511289061603"><ele>277.0</ele><time>2026-04-19T14:27:46.999Z</time></trkpt><trkpt lat="43.5626804086085" lon="11.644937857872817"><ele>275.0</ele><time>2026-04-19T14:27:47.999Z</time></trkpt><trkpt lat="43.5625109386428" lon="11.644758268176494"><ele>275.0</ele><time>2026-04-19T14:27:48.999Z</time></trkpt><trkpt lat="43.56233756501255" lon="11.644578144388467"><ele>275.0</ele><time>2026-04-19T14:27:49.999Z</time></trkpt><trkpt lat="43.56216555391425" lon="11.644398464429429"><ele>275.0</ele><time>2026-04-19T14:27:50.999Z</time></trkpt><trkpt lat="43.56199120164819" lon="11.644220267054033"><ele>274.0</ele><time>2026-04-19T14:27:51.999Z</time></trkpt><trkpt lat="43.561820118558714" lon="11.644043406145505"><ele>273.0</ele><time>2026-04-19T14:27:52.999Z</time></trkpt><trkpt lat="43.561657715897056" lon="11.643875855139068"><ele>272.0</ele><time>2026-04-19T14:27:53.999Z</time></trkpt><trkpt lat="43.56149808660373" lon="11.643714366928513"><ele>272.0</ele><time>2026-04-19T14:27:54.999Z</time></trkpt><trkpt lat="43.56134517870809" lon="11.643556413243786"><ele>272.0</ele><time>2026-04-19T14:27:55.999Z</time></trkpt><trkpt lat="43.561202714779114" lon="11.64340619142557"><ele>272.0</ele><time>2026-04-19T14:27:56.999Z</time></trkpt><trkpt lat="43.56107109781827" lon="11.64326054675166"><ele>271.33333333333337</ele><time>2026-04-19T14:27:57.999Z</time></trkpt><trkpt lat="43.56093716818371" lon="11.643094663236733"><ele>270.6666666666667</ele><time>2026-04-19T14:27:58.999Z</time></trkpt><trkpt lat="43.56084988353101" lon="11.642933574830575"><ele>270.0</ele><time>2026-04-19T14:27:59.999Z</time></trkpt><trkpt lat="43.56076730210041" lon="11.64272405658932"><ele>269.6666666666667</ele><time>2026-04-19T14:28:00.999Z</time></trkpt><trkpt lat="43.560698346221685" lon="11.642490367250655"><ele>269.33333333333337</ele><time>2026-04-19T14:28:01.999Z</time></trkpt><trkpt lat="43.560630076217095" lon="11.64223507179706"><ele>269.0</ele><time>2026-04-19T14:28:02.999Z</time></trkpt><trkpt lat="43.56055591338432" lon="11.641961666045454"><ele>268.6666666666667</ele><time>2026-04-19T14:28:03.999Z</time></trkpt><trkpt lat="43.56048073745659" lon="11.6416877484385"><ele>268.3333333333333</ele><time>2026-04-19T14:28:04.999Z</time></trkpt><trkpt lat="43.560403917650575" lon="11.641416715765157"><ele>268.0</ele><time>2026-04-19T14:28:05.999Z</time></trkpt><trkpt lat="43.56032417226033" lon="11.641130410023958"><ele>267.5</ele><time>2026-04-19T14:28:06.999Z</time></trkpt><trkpt lat="43.56024336445162" lon="11.640835940925006"><ele>267.0</ele><time>2026-04-19T14:28:07.999Z</time></trkpt><trkpt lat="43.56016040919681" lon="11.640540392182164"><ele>266.0</ele><time>2026-04-19T14:28:08.999Z</time></trkpt><trkpt lat="43.56007919228076" lon="11.640246259678962"><ele>265.0</ele><time>2026-04-19T14:28:09.999Z</time></trkpt><trkpt lat="43.55999918124639" lon="11.63995665534656"><ele>265.0</ele><time>2026-04-19T14:28:10.999Z</time></trkpt><trkpt lat="43.559919602481244" lon="11.639675403914092"><ele>265.0</ele><time>2026-04-19T14:28:11.999Z</time></trkpt><trkpt lat="43.55984206847398" lon="11.639401839855596"><ele>265.0</ele><time>2026-04-19T14:28:12.999Z</time></trkpt><trkpt lat="43.55976552124522" lon="11.639133974712323"><ele>264.0</ele><time>2026-04-19T14:28:13.999Z</time></trkpt><trkpt lat="43.55969042103872" lon="11.638871229150423"><ele>263.0</ele><time>2026-04-19T14:28:14.999Z</time></trkpt><trkpt lat="43.559618171565674" lon="11.638609682345967"><ele>262.0</ele><time>2026-04-19T14:28:15.999Z</time></trkpt><trkpt lat="43.55954879927461" lon="11.638363557167672"><ele>262.0</ele><time>2026-04-19T14:28:16.999Z</time></trkpt><trkpt lat="43.55948539588729" lon="11.638128772761057"><ele>262.0</ele><time>2026-04-19T14:28:17.999Z</time></trkpt><trkpt lat="43.55943357565019" lon="11.637900192463281"><ele>262.0</ele><time>2026-04-19T14:28:18.999Z</time></trkpt><trkpt lat="43.55939825805477" lon="11.637676161699007"><ele>262.0</ele><time>2026-04-19T14:28:19.999Z</time></trkpt><trkpt lat="43.55938235611631" lon="11.637448443460697"><ele>262.0</ele><time>2026-04-19T14:28:20.999Z</time></trkpt><trkpt lat="43.55938119969374" lon="11.637208618176947"><ele>262.0</ele><time>2026-04-19T14:28:21.999Z</time></trkpt><trkpt lat="43.55938774102354" lon="11.636955997946364"><ele>261.66666666666663</ele><time>2026-04-19T14:28:22.999Z</time></trkpt><trkpt lat="43.559394548806" lon="11.636689196733421"><ele>261.3333333333333</ele><time>2026-04-19T14:28:23.999Z</time></trkpt><trkpt lat="43.55940284844243" lon="11.636409937628738"><ele>261.0</ele><time>2026-04-19T14:28:24.999Z</time></trkpt><trkpt lat="43.55941291768059" lon="11.636117981390779"><ele>261.0</ele><time>2026-04-19T14:28:25.999Z</time></trkpt><trkpt lat="43.559419971651685" lon="11.635817392980686"><ele>261.0</ele><time>2026-04-19T14:28:26.999Z</time></trkpt><trkpt lat="43.55942897273376" lon="11.635514153201399"><ele>261.0</ele><time>2026-04-19T14:28:27.999Z</time></trkpt><trkpt lat="43.559438896258705" lon="11.6352127886222"><ele>261.3333333333333</ele><time>2026-04-19T14:28:28.999Z</time></trkpt><trkpt lat="43.55944749809611" lon="11.634919934420147"><ele>261.66666666666663</ele><time>2026-04-19T14:28:29.999Z</time></trkpt><trkpt lat="43.559452772654375" lon="11.634628715007798"><ele>262.0</ele><time>2026-04-19T14:28:30.999Z</time></trkpt><trkpt lat="43.559459814103796" lon="11.634335365501842"><ele>261.0</ele><time>2026-04-19T14:28:31.998Z</time></trkpt><trkpt lat="43.559467085688105" lon="11.634037590185486"><ele>260.0</ele><time>2026-04-19T14:28:32.998Z</time></trkpt><trkpt lat="43.559476275581865" lon="11.63374027463283"><ele>259.0</ele><time>2026-04-19T14:28:33.998Z</time></trkpt><trkpt lat="43.55948422230572" lon="11.633440597986684"><ele>258.66666666666663</ele><time>2026-04-19T14:28:34.998Z</time></trkpt><trkpt lat="43.55949171766827" lon="11.633139385286672"><ele>258.3333333333333</ele><time>2026-04-19T14:28:36.001Z</time></trkpt><trkpt lat="43.559500152133545" lon="11.632840233353312"><ele>258.0</ele><time>2026-04-19T14:28:37.001Z</time></trkpt><trkpt lat="43.55950891283887" lon="11.63253925811775"><ele>258.0</ele><time>2026-04-19T14:28:38.001Z</time></trkpt><trkpt lat="43.55951707657205" lon="11.632239131740503"><ele>258.0</ele><time>2026-04-19T14:28:39.001Z</time></trkpt><trkpt lat="43.55952384486152" lon="11.631935663357996"><ele>258.0</ele><time>2026-04-19T14:28:40.001Z</time></trkpt><trkpt lat="43.559533397134864" lon="11.631629618167318"><ele>258.6666666666667</ele><time>2026-04-19T14:28:41.001Z</time></trkpt><trkpt lat="43.55954123697118" lon="11.631323893975987"><ele>259.33333333333337</ele><time>2026-04-19T14:28:42.001Z</time></trkpt><trkpt lat="43.55955102422874" lon="11.631018253042768"><ele>260.0</ele><time>2026-04-19T14:28:43.001Z</time></trkpt><trkpt lat="43.559561454042594" lon="11.63071223341913"><ele>260.0</ele><time>2026-04-19T14:28:44.001Z</time></trkpt><trkpt lat="43.559573463962366" lon="11.63040632837923"><ele>260.0</ele><time>2026-04-19T14:28:45.001Z</time></trkpt><trkpt lat="43.55958217751997" lon="11.63009786294154"><ele>260.0</ele><time>2026-04-19T14:28:46.001Z</time></trkpt><trkpt lat="43.55959205406263" lon="11.629791683702933"><ele>260.0</ele><time>2026-04-19T14:28:47.001Z</time></trkpt><trkpt lat="43.55960232839326" lon="11.629484754385475"><ele>260.0</ele><time>2026-04-19T14:28:48.001Z</time></trkpt><trkpt lat="43.55961453473659" lon="11.629193480302321"><ele>260.0</ele><time>2026-04-19T14:28:49.001Z</time></trkpt><trkpt lat="43.559628079249684" lon="11.628914883729115"><ele>259.0</ele><time>2026-04-19T14:28:50.001Z</time></trkpt><trkpt lat="43.55963541865679" lon="11.628649043103309"><ele>258.0</ele><time>2026-04-19T14:28:51.001Z</time></trkpt><trkpt lat="43.55963278693845" lon="11.628395608904809"><ele>257.0</ele><time>2026-04-19T14:28:52Z</time></trkpt><trkpt lat="43.55962158409945" lon="11.628150738469161"><ele>257.0</ele><time>2026-04-19T14:28:53Z</time></trkpt><trkpt lat="43.55959423598827" lon="11.627910948154302"><ele>257.0</ele><time>2026-04-19T14:28:53.999Z</time></trkpt><trkpt lat="43.55955322122342" lon="11.627668956491142"><ele>257.0</ele><time>2026-04-19T14:28:54.999Z</time></trkpt><trkpt lat="43.559494220436335" lon="11.627421800322288"><ele>257.0</ele><time>2026-04-19T14:28:55.999Z</time></trkpt><trkpt lat="43.559415931266145" lon="11.627175200545304"><ele>257.0</ele><time>2026-04-19T14:28:56.999Z</time></trkpt><trkpt lat="43.55932353223154" lon="11.626929194198468"><ele>257.0</ele><time>2026-04-19T14:28:57.999Z</time></trkpt><trkpt lat="43.55923313688566" lon="11.626684743557611"><ele>257.0</ele><time>2026-04-19T14:28:58.999Z</time></trkpt><trkpt lat="43.55915359244648" lon="11.626426618120563"><ele>257.0</ele><time>2026-04-19T14:28:59.999Z</time></trkpt><trkpt lat="43.55908154050011" lon="11.626154085031233"><ele>257.0</ele><time>2026-04-19T14:29:00.999Z</time></trkpt><trkpt lat="43.5590326406323" lon="11.625870486761196"><ele>257.0</ele><time>2026-04-19T14:29:01.999Z</time></trkpt><trkpt lat="43.5590089932512" lon="11.625588348442102"><ele>257.0</ele><time>2026-04-19T14:29:02.999Z</time></trkpt><trkpt lat="43.558999494228054" lon="11.625310707371447"><ele>257.0</ele><time>2026-04-19T14:29:03.999Z</time></trkpt><trkpt lat="43.55899451078603" lon="11.625040293995065"><ele>257.0</ele><time>2026-04-19T14:29:04.999Z</time></trkpt><trkpt lat="43.5589847055172" lon="11.62478630838726"><ele>257.0</ele><time>2026-04-19T14:29:05.999Z</time></trkpt><trkpt lat="43.55896008833354" lon="11.624549124625062"><ele>257.0</ele><time>2026-04-19T14:29:06.999Z</time></trkpt><trkpt lat="43.558917987067886" lon="11.624327050652235"><ele>257.0</ele><time>2026-04-19T14:29:07.999Z</time></trkpt><trkpt lat="43.55884175197713" lon="11.624134709402155"><ele>257.0</ele><time>2026-04-19T14:29:08.999Z</time></trkpt><trkpt lat="43.558735222813" lon="11.623966932295874"><ele>257.0</ele><time>2026-04-19T14:29:09.999Z</time></trkpt><trkpt lat="43.558602752443484" lon="11.623830089891257"><ele>256.33333333333337</ele><time>2026-04-19T14:29:10.999Z</time></trkpt><trkpt lat="43.55845081524464" lon="11.623718297066667"><ele>255.66666666666669</ele><time>2026-04-19T14:29:11.999Z</time></trkpt><trkpt lat="43.558282119031816" lon="11.623625386238357"><ele>255.0</ele><time>2026-04-19T14:29:12.999Z</time></trkpt><trkpt lat="43.55810359141263" lon="11.623525844621527"><ele>255.0</ele><time>2026-04-19T14:29:13.999Z</time></trkpt><trkpt lat="43.557933242053586" lon="11.623401452336262"><ele>255.0</ele><time>2026-04-19T14:29:14.999Z</time></trkpt><trkpt lat="43.55777849663878" lon="11.623258741878395"><ele>255.0</ele><time>2026-04-19T14:29:15.999Z</time></trkpt><trkpt lat="43.55764164285792" lon="11.623116265543093"><ele>254.33333333333331</ele><time>2026-04-19T14:29:16.999Z</time></trkpt><trkpt lat="43.557525695259464" lon="11.622962396840219"><ele>253.66666666666666</ele><time>2026-04-19T14:29:17.999Z</time></trkpt><trkpt lat="43.55742540836442" lon="11.622773122968564"><ele>253.0</ele><time>2026-04-19T14:29:18.999Z</time></trkpt><trkpt lat="43.557346520735635" lon="11.62255870989532"><ele>253.0</ele><time>2026-04-19T14:29:19.999Z</time></trkpt><trkpt lat="43.55728267939922" lon="11.622322574664787"><ele>253.0</ele><time>2026-04-19T14:29:20.999Z</time></trkpt><trkpt lat="43.55723068406787" lon="11.622076889459807"><ele>253.0</ele><time>2026-04-19T14:29:21.999Z</time></trkpt><trkpt lat="43.55719155521399" lon="11.621826170249625"><ele>253.0</ele><time>2026-04-19T14:29:22.999Z</time></trkpt><trkpt lat="43.5571693318575" lon="11.621574439279348"><ele>253.0</ele><time>2026-04-19T14:29:23.999Z</time></trkpt><trkpt lat="43.55715751630345" lon="11.621321411588223"><ele>253.0</ele><time>2026-04-19T14:29:24.999Z</time></trkpt><trkpt lat="43.55714223543163" lon="11.6210683781399"><ele>252.33333333333331</ele><time>2026-04-19T14:29:25.999Z</time></trkpt><trkpt lat="43.55711966762233" lon="11.620825205036102"><ele>251.66666666666669</ele><time>2026-04-19T14:29:26.999Z</time></trkpt><trkpt lat="43.55709919344767" lon="11.620596119178435"><ele>251.0</ele><time>2026-04-19T14:29:27.999Z</time></trkpt><trkpt lat="43.5570808960084" lon="11.620363799892857"><ele>252.0</ele><time>2026-04-19T14:29:28.999Z</time></trkpt><trkpt lat="43.5570584951574" lon="11.620142210549613"><ele>253.0</ele><time>2026-04-19T14:29:29.999Z</time></trkpt><trkpt lat="43.55703559515982" lon="11.619933915751597"><ele>254.0</ele><time>2026-04-19T14:29:30.999Z</time></trkpt><trkpt lat="43.55700527835353" lon="11.619727975191973"><ele>254.0</ele><time>2026-04-19T14:29:31.999Z</time></trkpt><trkpt lat="43.55695199344619" lon="11.619520384946025"><ele>254.0</ele><time>2026-04-19T14:29:32.999Z</time></trkpt><trkpt lat="43.55687201994136" lon="11.619312422767985"><ele>254.0</ele><time>2026-04-19T14:29:33.999Z</time></trkpt><trkpt lat="43.55677727860491" lon="11.619105472922977"><ele>254.33333333333334</ele><time>2026-04-19T14:29:34.999Z</time></trkpt><trkpt lat="43.5566821707834" lon="11.61889761232667"><ele>254.66666666666669</ele><time>2026-04-19T14:29:35.999Z</time></trkpt><trkpt lat="43.556584678766164" lon="11.618690734703822"><ele>255.0</ele><time>2026-04-19T14:29:36.999Z</time></trkpt><trkpt lat="43.55648785184448" lon="11.618485320789233"><ele>255.33333333333331</ele><time>2026-04-19T14:29:37.999Z</time></trkpt><trkpt lat="43.55639541080674" lon="11.61828195173442"><ele>255.66666666666666</ele><time>2026-04-19T14:29:38.999Z</time></trkpt><trkpt lat="43.5563009027495" lon="11.618078262775832"><ele>256.0</ele><time>2026-04-19T14:29:39.999Z</time></trkpt><trkpt lat="43.55620443605462" lon="11.617879333154148"><ele>255.0</ele><time>2026-04-19T14:29:40.999Z</time></trkpt><trkpt lat="43.55610743379862" lon="11.61768062178048"><ele>254.0</ele><time>2026-04-19T14:29:41.999Z</time></trkpt><trkpt lat="43.55601319810044" lon="11.617473325074299"><ele>253.0</ele><time>2026-04-19T14:29:42.999Z</time></trkpt><trkpt lat="43.55592194846235" lon="11.617267801730888"><ele>253.0</ele><time>2026-04-19T14:29:43.999Z</time></trkpt><trkpt lat="43.55583165526303" lon="11.617067088515862"><ele>253.0</ele><time>2026-04-19T14:29:44.999Z</time></trkpt><trkpt lat="43.55574234570104" lon="11.616873243964314"><ele>253.0</ele><time>2026-04-19T14:29:45.998Z</time></trkpt><trkpt lat="43.55565351550712" lon="11.61668045309268"><ele>253.33333333333331</ele><time>2026-04-19T14:29:46.998Z</time></trkpt><trkpt lat="43.55556344136681" lon="11.616482941406623"><ele>253.66666666666669</ele><time>2026-04-19T14:29:47.998Z</time></trkpt><trkpt lat="43.555476786378065" lon="11.616280503701645"><ele>254.0</ele><time>2026-04-19T14:29:48.998Z</time></trkpt><trkpt lat="43.55539337021226" lon="11.616070037315346"><ele>251.0</ele><time>2026-04-19T14:29:49.998Z</time></trkpt><trkpt lat="43.555305008000325" lon="11.61586316886201"><ele>248.0</ele><time>2026-04-19T14:29:50.998Z</time></trkpt><trkpt lat="43.55521609793591" lon="11.61566063610047"><ele>245.0</ele><time>2026-04-19T14:29:51.998Z</time></trkpt><trkpt lat="43.555127522737884" lon="11.615460929097512"><ele>244.33333333333334</ele><time>2026-04-19T14:29:52.998Z</time></trkpt><trkpt lat="43.55504028386961" lon="11.61526832769517"><ele>243.66666666666669</ele><time>2026-04-19T14:29:53.998Z</time></trkpt><trkpt lat="43.55494882298648" lon="11.615082922624525"><ele>243.0</ele><time>2026-04-19T14:29:54.998Z</time></trkpt><trkpt lat="43.5548423545092" lon="11.61491489846422"><ele>243.0</ele><time>2026-04-19T14:29:55.998Z</time></trkpt><trkpt lat="43.55472036317221" lon="11.614777799405136"><ele>243.0</ele><time>2026-04-19T14:29:56.998Z</time></trkpt><trkpt lat="43.55458452321477" lon="11.614668511354797"><ele>243.0</ele><time>2026-04-19T14:29:57.998Z</time></trkpt><trkpt lat="43.554432268338545" lon="11.61459055226815"><ele>241.66666666666669</ele><time>2026-04-19T14:29:58.998Z</time></trkpt><trkpt lat="43.55426912785274" lon="11.614551194975887"><ele>240.33333333333334</ele><time>2026-04-19T14:29:59.998Z</time></trkpt><trkpt lat="43.55410322337476" lon="11.614550212211977"><ele>239.0</ele><time>2026-04-19T14:30:00.998Z</time></trkpt><trkpt lat="43.55393551348436" lon="11.614586570665347"><ele>239.0</ele><time>2026-04-19T14:30:01.998Z</time></trkpt><trkpt lat="43.55377079583844" lon="11.614664372810658"><ele>239.0</ele><time>2026-04-19T14:30:02.998Z</time></trkpt><trkpt lat="43.55360888170238" lon="11.614776473665366"><ele>239.0</ele><time>2026-04-19T14:30:03.998Z</time></trkpt><trkpt lat="43.55345199400366" lon="11.61490819896643"><ele>238.66666666666669</ele><time>2026-04-19T14:30:04.998Z</time></trkpt><trkpt lat="43.55330924705883" lon="11.615039331148003"><ele>238.33333333333331</ele><time>2026-04-19T14:30:05.998Z</time></trkpt><trkpt lat="43.5531678758193" lon="11.615164280991003"><ele>238.0</ele><time>2026-04-19T14:30:06.998Z</time></trkpt><trkpt lat="43.55302065028849" lon="11.615289679834222"><ele>237.66666666666666</ele><time>2026-04-19T14:30:07.998Z</time></trkpt><trkpt lat="43.55287502675827" lon="11.615417119366324"><ele>237.33333333333331</ele><time>2026-04-19T14:30:08.998Z</time></trkpt><trkpt lat="43.5527309256576" lon="11.615548445306807"><ele>237.0</ele><time>2026-04-19T14:30:09.998Z</time></trkpt><trkpt lat="43.552582912107304" lon="11.615675886008704"><ele>237.0</ele><time>2026-04-19T14:30:10.998Z</time></trkpt><trkpt lat="43.55242601030054" lon="11.615791801436442"><ele>237.0</ele><time>2026-04-19T14:30:11.998Z</time></trkpt><trkpt lat="43.5522607159577" lon="11.615891730963913"><ele>237.0</ele><time>2026-04-19T14:30:12.998Z</time></trkpt><trkpt lat="43.55209524861932" lon="11.615981052618936"><ele>237.66666666666669</ele><time>2026-04-19T14:30:13.998Z</time></trkpt><trkpt lat="43.55193232754789" lon="11.616073889839152"><ele>238.33333333333334</ele><time>2026-04-19T14:30:14.998Z</time></trkpt><trkpt lat="43.55177428242809" lon="11.616166781632788"><ele>239.0</ele><time>2026-04-19T14:30:15.998Z</time></trkpt><trkpt lat="43.55162360716475" lon="11.61624960670583"><ele>239.0</ele><time>2026-04-19T14:30:16.998Z</time></trkpt><trkpt lat="43.55148201114841" lon="11.616323941315644"><ele>239.0</ele><time>2026-04-19T14:30:17.998Z</time></trkpt><trkpt lat="43.551347811067885" lon="11.61639944521249"><ele>239.0</ele><time>2026-04-19T14:30:18.998Z</time></trkpt><trkpt lat="43.551220287972114" lon="11.616463012015286"><ele>239.0</ele><time>2026-04-19T14:30:19.998Z</time></trkpt><trkpt lat="43.551089951058955" lon="11.616495724331035"><ele>237.5</ele><time>2026-04-19T14:30:20.998Z</time></trkpt><trkpt lat="43.55095580469537" lon="11.616491868908637"><ele>236.0</ele><time>2026-04-19T14:30:21.998Z</time></trkpt><trkpt lat="43.550826860326715" lon="11.616439912291886"><ele>234.5</ele><time>2026-04-19T14:30:22.998Z</time></trkpt><trkpt lat="43.550708828237035" lon="11.616347495514363"><ele>233.0</ele><time>2026-04-19T14:30:23.998Z</time></trkpt><trkpt lat="43.55060620684175" lon="11.61621941127"><ele>232.25</ele><time>2026-04-19T14:30:24.998Z</time></trkpt><trkpt lat="43.55053066037528" lon="11.616060548941517"><ele>231.5</ele><time>2026-04-19T14:30:25.998Z</time></trkpt><trkpt lat="43.55048487465854" lon="11.615884059177418"><ele>230.75</ele><time>2026-04-19T14:30:26.998Z</time></trkpt><trkpt lat="43.55047428271759" lon="11.61570717985605"><ele>230.0</ele><time>2026-04-19T14:30:27.998Z</time></trkpt><trkpt lat="43.550492187246974" lon="11.615519799424396"><ele>230.0</ele><time>2026-04-19T14:30:28.998Z</time></trkpt><trkpt lat="43.55053110937893" lon="11.615336763227347"><ele>230.0</ele><time>2026-04-19T14:30:29.998Z</time></trkpt><trkpt lat="43.550592495431815" lon="11.61517369733856"><ele>230.0</ele><time>2026-04-19T14:30:30.998Z</time></trkpt><trkpt lat="43.55067590192356" lon="11.615026362799167"><ele>230.0</ele><time>2026-04-19T14:30:31.998Z</time></trkpt><trkpt lat="43.550783616928214" lon="11.614896910055192"><ele>229.0</ele><time>2026-04-19T14:30:32.998Z</time></trkpt><trkpt lat="43.55090734883461" lon="11.61478212482574"><ele>228.0</ele><time>2026-04-19T14:30:33.998Z</time></trkpt><trkpt lat="43.551031386300956" lon="11.614673835404417"><ele>227.0</ele><time>2026-04-19T14:30:34.998Z</time></trkpt><trkpt lat="43.55114907981391" lon="11.614566990336016"><ele>226.0</ele><time>2026-04-19T14:30:35.998Z</time></trkpt><trkpt lat="43.551267244857314" lon="11.614456505253782"><ele>226.0</ele><time>2026-04-19T14:30:36.998Z</time></trkpt><trkpt lat="43.55139181051897" lon="11.614342670283829"><ele>226.0</ele><time>2026-04-19T14:30:37.998Z</time></trkpt><trkpt lat="43.55151487529079" lon="11.614224874312427"><ele>226.0</ele><time>2026-04-19T14:30:38.998Z</time></trkpt><trkpt lat="43.551623628724826" lon="11.614095311031472"><ele>226.0</ele><time>2026-04-19T14:30:39.997Z</time></trkpt><trkpt lat="43.551714251650296" lon="11.613936134837134"><ele>226.0</ele><time>2026-04-19T14:30:41Z</time></trkpt><trkpt lat="43.55177534073455" lon="11.613751927891842"><ele>226.0</ele><time>2026-04-19T14:30:42Z</time></trkpt><trkpt lat="43.551805143721666" lon="11.613538284570536"><ele>226.0</ele><time>2026-04-19T14:30:43Z</time></trkpt><trkpt lat="43.551819532440746" lon="11.613302892692133"><ele>222.33333333333331</ele><time>2026-04-19T14:30:44Z</time></trkpt><trkpt lat="43.551832707858125" lon="11.613051749519238"><ele>218.66666666666669</ele><time>2026-04-19T14:30:45Z</time></trkpt><trkpt lat="43.55185003155456" lon="11.612803885856058"><ele>215.0</ele><time>2026-04-19T14:30:46Z</time></trkpt><trkpt lat="43.55186859381912" lon="11.612552318098622"><ele>211.33333333333334</ele><time>2026-04-19T14:30:47Z</time></trkpt><trkpt lat="43.55188552015404" lon="11.61230866506917"><ele>207.66666666666669</ele><time>2026-04-19T14:30:48Z</time></trkpt><trkpt lat="43.55190340392924" lon="11.612064626732707"><ele>204.0</ele><time>2026-04-19T14:30:49Z</time></trkpt><trkpt lat="43.55192095444082" lon="11.611818230960143"><ele>200.66666666666669</ele><time>2026-04-19T14:30:50Z</time></trkpt><trkpt lat="43.551939985688286" lon="11.611570745732957"><ele>197.33333333333334</ele><time>2026-04-19T14:30:51Z</time></trkpt><trkpt lat="43.55196274051177" lon="11.611319850160424"><ele>194.0</ele><time>2026-04-19T14:30:52Z</time></trkpt><trkpt lat="43.55199131140441" lon="11.611070619484554"><ele>192.33333333333334</ele><time>2026-04-19T14:30:53Z</time></trkpt><trkpt lat="43.55202844171653" lon="11.61082365123928"><ele>190.66666666666669</ele><time>2026-04-19T14:30:54Z</time></trkpt><trkpt lat="43.552074709274585" lon="11.610577916763127"><ele>189.0</ele><time>2026-04-19T14:30:55Z</time></trkpt><trkpt lat="43.552124266515186" lon="11.61033335814353"><ele>194.66666666666669</ele><time>2026-04-19T14:30:56Z</time></trkpt><trkpt lat="43.55217221672634" lon="11.610096049412581"><ele>200.33333333333334</ele><time>2026-04-19T14:30:57Z</time></trkpt><trkpt lat="43.552212080068294" lon="11.609854471684782"><ele>206.0</ele><time>2026-04-19T14:30:58Z</time></trkpt><trkpt lat="43.55225625836889" lon="11.609615216360567"><ele>203.33333333333334</ele><time>2026-04-19T14:30:59Z</time></trkpt><trkpt lat="43.552301978166064" lon="11.609376263446663"><ele>200.66666666666669</ele><time>2026-04-19T14:31:00Z</time></trkpt><trkpt lat="43.552348083860885" lon="11.609138317001"><ele>198.0</ele><time>2026-04-19T14:31:01Z</time></trkpt><trkpt lat="43.552395547902016" lon="11.608900097659712"><ele>198.0</ele><time>2026-04-19T14:31:02Z</time></trkpt><trkpt lat="43.55244449520296" lon="11.608669647358639"><ele>198.0</ele><time>2026-04-19T14:31:03Z</time></trkpt><trkpt lat="43.552488756169545" lon="11.608445304990868"><ele>198.0</ele><time>2026-04-19T14:31:04Z</time></trkpt><trkpt lat="43.55253903598423" lon="11.608213201579"><ele>195.0</ele><time>2026-04-19T14:31:04.999Z</time></trkpt><trkpt lat="43.55261433176613" lon="11.607979053204167"><ele>192.0</ele><time>2026-04-19T14:31:05.999Z</time></trkpt><trkpt lat="43.55271902174325" lon="11.607756403300673"><ele>189.0</ele><time>2026-04-19T14:31:06.999Z</time></trkpt><trkpt lat="43.55283186666479" lon="11.607537435841119"><ele>191.33333333333331</ele><time>2026-04-19T14:31:07.999Z</time></trkpt><trkpt lat="43.55293941962384" lon="11.607325590080233"><ele>193.66666666666666</ele><time>2026-04-19T14:31:08.999Z</time></trkpt><trkpt lat="43.55303949097529" lon="11.607118258721885"><ele>196.0</ele><time>2026-04-19T14:31:09.999Z</time></trkpt><trkpt lat="43.55313574697247" lon="11.606905544840071"><ele>190.33333333333331</ele><time>2026-04-19T14:31:10.999Z</time></trkpt><trkpt lat="43.553225854681315" lon="11.60667548444682"><ele>184.66666666666666</ele><time>2026-04-19T14:31:11.999Z</time></trkpt><trkpt lat="43.553302097859095" lon="11.606426048447249"><ele>179.0</ele><time>2026-04-19T14:31:12.999Z</time></trkpt><trkpt lat="43.55336379298885" lon="11.606164739272028"><ele>177.66666666666666</ele><time>2026-04-19T14:31:13.999Z</time></trkpt><trkpt lat="43.553417474654815" lon="11.60591453068467"><ele>176.33333333333334</ele><time>2026-04-19T14:31:14.999Z</time></trkpt><trkpt lat="43.553471004643086" lon="11.605664191073231"><ele>175.0</ele><time>2026-04-19T14:31:15.999Z</time></trkpt><trkpt lat="43.55352395316326" lon="11.605414190741687"><ele>173.66666666666669</ele><time>2026-04-19T14:31:16.999Z</time></trkpt><trkpt lat="43.55357604028133" lon="11.605168709204916"><ele>172.33333333333334</ele><time>2026-04-19T14:31:17.999Z</time></trkpt><trkpt lat="43.553625548551175" lon="11.604924684706747"><ele>171.0</ele><time>2026-04-19T14:31:18.999Z</time></trkpt><trkpt lat="43.553673347297874" lon="11.60468034731847"><ele>173.0</ele><time>2026-04-19T14:31:19.999Z</time></trkpt><trkpt lat="43.55372454095463" lon="11.604440027042818"><ele>175.0</ele><time>2026-04-19T14:31:20.999Z</time></trkpt><trkpt lat="43.55377480096717" lon="11.604208115086848"><ele>177.0</ele><time>2026-04-19T14:31:21.999Z</time></trkpt><trkpt lat="43.55381836016037" lon="11.603980566149074"><ele>177.0</ele><time>2026-04-19T14:31:22.999Z</time></trkpt><trkpt lat="43.553858323922995" lon="11.603748709438097"><ele>177.0</ele><time>2026-04-19T14:31:23.999Z</time></trkpt><trkpt lat="43.55390153117647" lon="11.603515316349164"><ele>177.0</ele><time>2026-04-19T14:31:24.999Z</time></trkpt><trkpt lat="43.55395066416745" lon="11.603280286207202"><ele>174.66666666666666</ele><time>2026-04-19T14:31:25.999Z</time></trkpt><trkpt lat="43.553999588913726" lon="11.603051931937063"><ele>172.33333333333331</ele><time>2026-04-19T14:31:26.999Z</time></trkpt><trkpt lat="43.55404326098781" lon="11.602837283833756"><ele>170.0</ele><time>2026-04-19T14:31:27.999Z</time></trkpt><trkpt lat="43.55408433220196" lon="11.602635561520591"><ele>169.0</ele><time>2026-04-19T14:31:28.999Z</time></trkpt><trkpt lat="43.55412851772865" lon="11.602442483458843"><ele>168.0</ele><time>2026-04-19T14:31:29.999Z</time></trkpt><trkpt lat="43.5541998570497" lon="11.602255584648645"><ele>167.0</ele><time>2026-04-19T14:31:30.999Z</time></trkpt><trkpt lat="43.554302943083385" lon="11.602088004547493"><ele>166.33333333333331</ele><time>2026-04-19T14:31:31.999Z</time></trkpt><trkpt lat="43.55441484209577" lon="11.601922213637202"><ele>165.66666666666666</ele><time>2026-04-19T14:31:32.999Z</time></trkpt><trkpt lat="43.55452861497478" lon="11.601745587076953"><ele>165.0</ele><time>2026-04-19T14:31:33.999Z</time></trkpt><trkpt lat="43.554638134276644" lon="11.601566094453815"><ele>164.0</ele><time>2026-04-19T14:31:34.999Z</time></trkpt><trkpt lat="43.55474538643688" lon="11.601390736788936"><ele>163.0</ele><time>2026-04-19T14:31:35.999Z</time></trkpt><trkpt lat="43.55485016156142" lon="11.601215004768031"><ele>162.0</ele><time>2026-04-19T14:31:36.999Z</time></trkpt><trkpt lat="43.55495212419879" lon="11.601046117176825"><ele>162.0</ele><time>2026-04-19T14:31:37.999Z</time></trkpt><trkpt lat="43.555050521660185" lon="11.600892439925627"><ele>162.0</ele><time>2026-04-19T14:31:38.999Z</time></trkpt><trkpt lat="43.555148185821714" lon="11.600734713823833"><ele>162.0</ele><time>2026-04-19T14:31:39.999Z</time></trkpt><trkpt lat="43.55523850648257" lon="11.60056306102436"><ele>162.0</ele><time>2026-04-19T14:31:40.999Z</time></trkpt><trkpt lat="43.55531674182168" lon="11.600381053234749"><ele>162.0</ele><time>2026-04-19T14:31:41.999Z</time></trkpt><trkpt lat="43.555382099927876" lon="11.600193628633312"><ele>162.0</ele><time>2026-04-19T14:31:42.999Z</time></trkpt><trkpt lat="43.555427660926654" lon="11.599989059353629"><ele>160.66666666666666</ele><time>2026-04-19T14:31:43.999Z</time></trkpt><trkpt lat="43.55545737195599" lon="11.599777744872148"><ele>159.33333333333331</ele><time>2026-04-19T14:31:44.999Z</time></trkpt><trkpt lat="43.55546900410811" lon="11.599568178372497"><ele>158.0</ele><time>2026-04-19T14:31:45.999Z</time></trkpt><trkpt lat="43.555468925814324" lon="11.599371169069412"><ele>157.75</ele><time>2026-04-19T14:31:46.999Z</time></trkpt><trkpt lat="43.555459163587265" lon="11.599187593759584"><ele>157.5</ele><time>2026-04-19T14:31:47.999Z</time></trkpt><trkpt lat="43.555451168337285" lon="11.599016205421792"><ele>157.25</ele><time>2026-04-19T14:31:48.999Z</time></trkpt><trkpt lat="43.555442239431464" lon="11.598848970979574"><ele>157.0</ele><time>2026-04-19T14:31:49.999Z</time></trkpt><trkpt lat="43.55543659484286" lon="11.598688818205897"><ele>156.4</ele><time>2026-04-19T14:31:50.999Z</time></trkpt><trkpt lat="43.55543100982113" lon="11.598539636890386"><ele>155.79999999999998</ele><time>2026-04-19T14:31:51.999Z</time></trkpt><trkpt lat="43.55542195239469" lon="11.598403415622538"><ele>155.2</ele><time>2026-04-19T14:31:52.999Z</time></trkpt><trkpt lat="43.55541340730618" lon="11.598278167378428"><ele>154.6</ele><time>2026-04-19T14:31:53.999Z</time></trkpt><trkpt lat="43.55541101883196" lon="11.59815988143124"><ele>154.0</ele><time>2026-04-19T14:31:54.999Z</time></trkpt><trkpt lat="43.55541885776784" lon="11.598050486123807"><ele>154.0</ele><time>2026-04-19T14:31:55.999Z</time></trkpt><trkpt lat="43.55545195978711" lon="11.597943106790417"><ele>154.0</ele><time>2026-04-19T14:31:56.999Z</time></trkpt><trkpt lat="43.55550609065702" lon="11.597849940285178"><ele>154.0</ele><time>2026-04-19T14:31:57.999Z</time></trkpt><trkpt lat="43.55557169756343" lon="11.597757353869254"><ele>154.0</ele><time>2026-04-19T14:31:58.998Z</time></trkpt><trkpt lat="43.55562865305137" lon="11.597653959400857"><ele>154.0</ele><time>2026-04-19T14:31:59.998Z</time></trkpt><trkpt lat="43.5556631168407" lon="11.59753955721311"><ele>154.0</ele><time>2026-04-19T14:32:00.998Z</time></trkpt><trkpt lat="43.55567740083357" lon="11.597417464855992"><ele>154.0</ele><time>2026-04-19T14:32:01.998Z</time></trkpt><trkpt lat="43.555660784952074" lon="11.597297443344628"><ele>154.0</ele><time>2026-04-19T14:32:02.998Z</time></trkpt><trkpt lat="43.55562589493974" lon="11.597184647205141"><ele>154.0</ele><time>2026-04-19T14:32:03.998Z</time></trkpt><trkpt lat="43.555570306256335" lon="11.59708896950189"><ele>154.0</ele><time>2026-04-19T14:32:04.998Z</time></trkpt><trkpt lat="43.55549581130986" lon="11.597021932410678"><ele>154.0</ele><time>2026-04-19T14:32:05.998Z</time></trkpt><trkpt lat="43.555405922964916" lon="11.596983782168977"><ele>154.0</ele><time>2026-04-19T14:32:06.998Z</time></trkpt><trkpt lat="43.55530816985781" lon="11.596979546963487"><ele>154.0</ele><time>2026-04-19T14:32:07.998Z</time></trkpt><trkpt lat="43.555208119498246" lon="11.597009794385317"><ele>154.0</ele><time>2026-04-19T14:32:08.998Z</time></trkpt><trkpt lat="43.555105052761135" lon="11.597067926578083"><ele>154.0</ele><time>2026-04-19T14:32:09.998Z</time></trkpt><trkpt lat="43.55499423931144" lon="11.597121933237304"><ele>154.0</ele><time>2026-04-19T14:32:10.998Z</time></trkpt><trkpt lat="43.5548698361762" lon="11.597142253440921"><ele>154.0</ele><time>2026-04-19T14:32:11.998Z</time></trkpt><trkpt lat="43.55474297150573" lon="11.59714733818301"><ele>154.0</ele><time>2026-04-19T14:32:12.998Z</time></trkpt><trkpt lat="43.554605956343195" lon="11.597062715252761"><ele>154.0</ele><time>2026-04-19T14:32:13.998Z</time></trkpt><trkpt lat="43.55446260525707" lon="11.596991354729075"><ele>154.0</ele><time>2026-04-19T14:32:14.998Z</time></trkpt><trkpt lat="43.55430183497966" lon="11.596923321573952"><ele>153.66666666666669</ele><time>2026-04-19T14:32:15.998Z</time></trkpt><trkpt lat="43.55411265865678" lon="11.59685197340873"><ele>153.33333333333334</ele><time>2026-04-19T14:32:16.998Z</time></trkpt><trkpt lat="43.5538969614953" lon="11.59673826019198"><ele>153.0</ele><time>2026-04-19T14:32:17.998Z</time></trkpt><trkpt lat="43.55365401213665" lon="11.596630859069442"><ele>153.0</ele><time>2026-04-19T14:32:18.998Z</time></trkpt><trkpt lat="43.553405198529454" lon="11.596521283164243"><ele>153.0</ele><time>2026-04-19T14:32:19.998Z</time></trkpt><trkpt lat="43.553134922399856" lon="11.596414220249619"><ele>153.0</ele><time>2026-04-19T14:32:20.998Z</time></trkpt><trkpt lat="43.55287704373911" lon="11.596278223461601"><ele>153.0</ele><time>2026-04-19T14:32:21.998Z</time></trkpt><trkpt lat="43.55263266601603" lon="11.596168953515049"><ele>156.5</ele><time>2026-04-19T14:32:22.998Z</time></trkpt><trkpt lat="43.552410214776764" lon="11.596072381365182"><ele>160.0</ele><time>2026-04-19T14:32:23.998Z</time></trkpt><trkpt lat="43.55219760508289" lon="11.595972811312361"><ele>161.5</ele><time>2026-04-19T14:32:24.998Z</time></trkpt><trkpt lat="43.55198659603728" lon="11.595852296002953"><ele>163.0</ele><time>2026-04-19T14:32:25.998Z</time></trkpt><trkpt lat="43.55177836014579" lon="11.595716795077069"><ele>163.0</ele><time>2026-04-19T14:32:26.998Z</time></trkpt><trkpt lat="43.5515739789821" lon="11.595573626234344"><ele>163.0</ele><time>2026-04-19T14:32:27.998Z</time></trkpt><trkpt lat="43.551371500556606" lon="11.59541765131491"><ele>163.0</ele><time>2026-04-19T14:32:28.998Z</time></trkpt><trkpt lat="43.55117403127279" lon="11.59524913961922"><ele>163.0</ele><time>2026-04-19T14:32:29.998Z</time></trkpt><trkpt lat="43.550989620220626" lon="11.595080212280612"><ele>163.0</ele><time>2026-04-19T14:32:30.998Z</time></trkpt><trkpt lat="43.550825054557734" lon="11.594924777264062"><ele>163.0</ele><time>2026-04-19T14:32:31.998Z</time></trkpt><trkpt lat="43.55066615249403" lon="11.5947673314216"><ele>163.0</ele><time>2026-04-19T14:32:32.998Z</time></trkpt><trkpt lat="43.55050859981803" lon="11.594599009450443"><ele>164.33333333333334</ele><time>2026-04-19T14:32:33.998Z</time></trkpt><trkpt lat="43.55034913644464" lon="11.59443612123616"><ele>165.66666666666666</ele><time>2026-04-19T14:32:34.998Z</time></trkpt><trkpt lat="43.55018365565024" lon="11.594277118049225"><ele>167.0</ele><time>2026-04-19T14:32:35.998Z</time></trkpt><trkpt lat="43.55001576113246" lon="11.59412624176806"><ele>167.0</ele><time>2026-04-19T14:32:36.998Z</time></trkpt><trkpt lat="43.54984695787675" lon="11.593974846736408"><ele>167.0</ele><time>2026-04-19T14:32:37.998Z</time></trkpt><trkpt lat="43.549678021207846" lon="11.593816553178968"><ele>167.0</ele><time>2026-04-19T14:32:38.998Z</time></trkpt><trkpt lat="43.54950827628124" lon="11.593655692850525"><ele>165.0</ele><time>2026-04-19T14:32:39.998Z</time></trkpt><trkpt lat="43.549343917234395" lon="11.593496756430927"><ele>163.0</ele><time>2026-04-19T14:32:40.998Z</time></trkpt><trkpt lat="43.5491841794548" lon="11.593346204796289"><ele>161.0</ele><time>2026-04-19T14:32:41.998Z</time></trkpt><trkpt lat="43.549019871668655" lon="11.593191472589888"><ele>161.0</ele><time>2026-04-19T14:32:42.998Z</time></trkpt><trkpt lat="43.54885110826807" lon="11.593029860237706"><ele>161.0</ele><time>2026-04-19T14:32:43.998Z</time></trkpt><trkpt lat="43.548681173099055" lon="11.592858966507029"><ele>161.0</ele><time>2026-04-19T14:32:44.998Z</time></trkpt><trkpt lat="43.548524770325244" lon="11.59267960108968"><ele>158.0</ele><time>2026-04-19T14:32:45.998Z</time></trkpt><trkpt lat="43.54838375187969" lon="11.59248481143871"><ele>155.0</ele><time>2026-04-19T14:32:47Z</time></trkpt><trkpt lat="43.54825479337238" lon="11.592270457784835"><ele>152.0</ele><time>2026-04-19T14:32:48Z</time></trkpt><trkpt lat="43.54814020877542" lon="11.59203407477811"><ele>152.0</ele><time>2026-04-19T14:32:49Z</time></trkpt><trkpt lat="43.54804675787515" lon="11.591774247361949"><ele>152.0</ele><time>2026-04-19T14:32:50Z</time></trkpt><trkpt lat="43.54798076108809" lon="11.591505689053259"><ele>152.0</ele><time>2026-04-19T14:32:51Z</time></trkpt><trkpt lat="43.54792841191138" lon="11.591232586699507"><ele>151.66666666666666</ele><time>2026-04-19T14:32:52Z</time></trkpt><trkpt lat="43.54788033962682" lon="11.590972212687188"><ele>151.33333333333334</ele><time>2026-04-19T14:32:53Z</time></trkpt><trkpt lat="43.547837487976494" lon="11.590721552543195"><ele>151.0</ele><time>2026-04-19T14:32:54Z</time></trkpt><trkpt lat="43.54779639095286" lon="11.590466061632991"><ele>151.33333333333334</ele><time>2026-04-19T14:32:55Z</time></trkpt><trkpt lat="43.547757403841125" lon="11.590208054497108"><ele>151.66666666666666</ele><time>2026-04-19T14:32:56Z</time></trkpt><trkpt lat="43.54771589156362" lon="11.589951510819576"><ele>152.0</ele><time>2026-04-19T14:32:57Z</time></trkpt><trkpt lat="43.547670761251645" lon="11.589695466339341"><ele>152.33333333333331</ele><time>2026-04-19T14:32:58Z</time></trkpt><trkpt lat="43.547625426673896" lon="11.589450706090675"><ele>152.66666666666666</ele><time>2026-04-19T14:32:59Z</time></trkpt><trkpt lat="43.54757280405109" lon="11.589213244709436"><ele>153.0</ele><time>2026-04-19T14:33:00Z</time></trkpt><trkpt lat="43.54750344587717" lon="11.588977527689039"><ele>153.0</ele><time>2026-04-19T14:33:01Z</time></trkpt><trkpt lat="43.54741732827179" lon="11.588756490567695"><ele>153.0</ele><time>2026-04-19T14:33:02Z</time></trkpt><trkpt lat="43.54731703883954" lon="11.588557144368401"><ele>153.0</ele><time>2026-04-19T14:33:03Z</time></trkpt><trkpt lat="43.54721202210802" lon="11.588371083896087"><ele>153.0</ele><time>2026-04-19T14:33:04Z</time></trkpt><trkpt lat="43.547110400879404" lon="11.588193412815638"><ele>153.0</ele><time>2026-04-19T14:33:05Z</time></trkpt><trkpt lat="43.54701112741424" lon="11.58801776430979"><ele>153.0</ele><time>2026-04-19T14:33:06Z</time></trkpt><trkpt lat="43.546920395008385" lon="11.587837299274353"><ele>153.0</ele><time>2026-04-19T14:33:07Z</time></trkpt><trkpt lat="43.54684546043304" lon="11.587642244249354"><ele>153.0</ele><time>2026-04-19T14:33:08Z</time></trkpt><trkpt lat="43.546790630858126" lon="11.58744785157854"><ele>153.0</ele><time>2026-04-19T14:33:09Z</time></trkpt><trkpt lat="43.546746387122184" lon="11.587263517759407"><ele>153.0</ele><time>2026-04-19T14:33:10Z</time></trkpt><trkpt lat="43.54670291786377" lon="11.587088328029948"><ele>153.0</ele><time>2026-04-19T14:33:11Z</time></trkpt><trkpt lat="43.54665638015898" lon="11.58691695365014"><ele>153.0</ele><time>2026-04-19T14:33:12Z</time></trkpt><trkpt lat="43.546602645153555" lon="11.586740846543657"><ele>153.0</ele><time>2026-04-19T14:33:13Z</time></trkpt><trkpt lat="43.54653802397462" lon="11.586568383960607"><ele>152.5</ele><time>2026-04-19T14:33:14Z</time></trkpt><trkpt lat="43.54646551318656" lon="11.58639863191154"><ele>152.0</ele><time>2026-04-19T14:33:15Z</time></trkpt><trkpt lat="43.5463915309492" lon="11.586221918962808"><ele>151.5</ele><time>2026-04-19T14:33:16Z</time></trkpt><trkpt lat="43.54631912660172" lon="11.586036309979281"><ele>151.0</ele><time>2026-04-19T14:33:17Z</time></trkpt><trkpt lat="43.546245739621696" lon="11.585845709407817"><ele>151.5</ele><time>2026-04-19T14:33:18Z</time></trkpt><trkpt lat="43.546174297853995" lon="11.585656523952018"><ele>152.0</ele><time>2026-04-19T14:33:19Z</time></trkpt><trkpt lat="43.54611052986642" lon="11.585483280489365"><ele>152.5</ele><time>2026-04-19T14:33:20Z</time></trkpt><trkpt lat="43.546042847722376" lon="11.585311009359664"><ele>153.0</ele><time>2026-04-19T14:33:21Z</time></trkpt><trkpt lat="43.54597638118114" lon="11.585137849096702"><ele>153.0</ele><time>2026-04-19T14:33:21.999Z</time></trkpt><trkpt lat="43.545910969114786" lon="11.584960872752474"><ele>153.0</ele><time>2026-04-19T14:33:22.999Z</time></trkpt><trkpt lat="43.54584778839263" lon="11.584780644795908"><ele>153.0</ele><time>2026-04-19T14:33:23.999Z</time></trkpt><trkpt lat="43.54578445801153" lon="11.584597595264862"><ele>153.0</ele><time>2026-04-19T14:33:24.999Z</time></trkpt><trkpt lat="43.54571906760973" lon="11.5844178473702"><ele>151.75</ele><time>2026-04-19T14:33:25.999Z</time></trkpt><trkpt lat="43.54565787333356" lon="11.584241792048449"><ele>150.5</ele><time>2026-04-19T14:33:26.999Z</time></trkpt><trkpt lat="43.54559653924674" lon="11.584068137917903"><ele>149.25</ele><time>2026-04-19T14:33:27.999Z</time></trkpt><trkpt lat="43.545536894031414" lon="11.58389352609062"><ele>148.0</ele><time>2026-04-19T14:33:28.999Z</time></trkpt><trkpt lat="43.54548182781449" lon="11.58372313603699"><ele>148.5</ele><time>2026-04-19T14:33:29.999Z</time></trkpt><trkpt lat="43.54543222731826" lon="11.583553828398585"><ele>149.0</ele><time>2026-04-19T14:33:30.999Z</time></trkpt><trkpt lat="43.545391140091716" lon="11.58338093618935"><ele>149.5</ele><time>2026-04-19T14:33:31.999Z</time></trkpt><trkpt lat="43.54535443039544" lon="11.583206348928147"><ele>150.0</ele><time>2026-04-19T14:33:32.999Z</time></trkpt><trkpt lat="43.54532680143351" lon="11.583029659459315"><ele>150.5</ele><time>2026-04-19T14:33:33.999Z</time></trkpt><trkpt lat="43.54530877284143" lon="11.582846819533849"><ele>151.0</ele><time>2026-04-19T14:33:34.999Z</time></trkpt><trkpt lat="43.54529692203275" lon="11.582656445965442"><ele>151.5</ele><time>2026-04-19T14:33:35.999Z</time></trkpt><trkpt lat="43.54529128077998" lon="11.582460929126825"><ele>152.0</ele><time>2026-04-19T14:33:36.999Z</time></trkpt><trkpt lat="43.54529230356023" lon="11.582264743278948"><ele>152.0</ele><time>2026-04-19T14:33:37.999Z</time></trkpt><trkpt lat="43.545296772020876" lon="11.58206236633212"><ele>152.0</ele><time>2026-04-19T14:33:38.999Z</time></trkpt><trkpt lat="43.54530289992747" lon="11.58186490731716"><ele>152.0</ele><time>2026-04-19T14:33:39.999Z</time></trkpt><trkpt lat="43.54530977746676" lon="11.581680322172389"><ele>152.0</ele><time>2026-04-19T14:33:40.999Z</time></trkpt><trkpt lat="43.54531773468484" lon="11.581501147612364"><ele>152.25</ele><time>2026-04-19T14:33:41.999Z</time></trkpt><trkpt lat="43.54532834189935" lon="11.581317224888622"><ele>152.5</ele><time>2026-04-19T14:33:42.999Z</time></trkpt><trkpt lat="43.54533972045997" lon="11.581129693729352"><ele>152.75</ele><time>2026-04-19T14:33:43.999Z</time></trkpt><trkpt lat="43.54535755382621" lon="11.580955004090962"><ele>153.0</ele><time>2026-04-19T14:33:44.999Z</time></trkpt><trkpt lat="43.545384012755264" lon="11.580755045874398"><ele>152.0</ele><time>2026-04-19T14:33:45.999Z</time></trkpt><trkpt lat="43.54541411124941" lon="11.580572528040825"><ele>151.0</ele><time>2026-04-19T14:33:46.999Z</time></trkpt><trkpt lat="43.54544975437119" lon="11.580394482921834"><ele>150.0</ele><time>2026-04-19T14:33:47.999Z</time></trkpt><trkpt lat="43.545490926268286" lon="11.580221658184438"><ele>149.0</ele><time>2026-04-19T14:33:48.999Z</time></trkpt><trkpt lat="43.5455350294298" lon="11.580056303103657"><ele>149.0</ele><time>2026-04-19T14:33:49.999Z</time></trkpt><trkpt lat="43.545586004726694" lon="11.579897641778711"><ele>149.0</ele><time>2026-04-19T14:33:50.999Z</time></trkpt><trkpt lat="43.545646811247444" lon="11.57973616743509"><ele>149.0</ele><time>2026-04-19T14:33:51.999Z</time></trkpt><trkpt lat="43.54571558318536" lon="11.579585279759547"><ele>149.0</ele><time>2026-04-19T14:33:52.999Z</time></trkpt><trkpt lat="43.54579447891909" lon="11.57943643993906"><ele>148.75</ele><time>2026-04-19T14:33:53.999Z</time></trkpt><trkpt lat="43.54587891176747" lon="11.579294528749154"><ele>148.5</ele><time>2026-04-19T14:33:54.999Z</time></trkpt><trkpt lat="43.545967810327795" lon="11.579155998396844"><ele>148.25</ele><time>2026-04-19T14:33:55.999Z</time></trkpt><trkpt lat="43.54605857480735" lon="11.579028969980769"><ele>148.0</ele><time>2026-04-19T14:33:56.999Z</time></trkpt><trkpt lat="43.54614675414196" lon="11.578915510005531"><ele>146.4</ele><time>2026-04-19T14:33:57.999Z</time></trkpt><trkpt lat="43.546233236424655" lon="11.578807598051647"><ele>144.8</ele><time>2026-04-19T14:33:58.999Z</time></trkpt><trkpt lat="43.54631582370096" lon="11.578710257561708"><ele>143.2</ele><time>2026-04-19T14:33:59.999Z</time></trkpt><trkpt lat="43.54639311748304" lon="11.57861794719612"><ele>141.6</ele><time>2026-04-19T14:34:00.999Z</time></trkpt><trkpt lat="43.546469420123714" lon="11.57853272356072"><ele>140.0</ele><time>2026-04-19T14:34:01.999Z</time></trkpt><trkpt lat="43.546545353162436" lon="11.57844960826749"><ele>139.8</ele><time>2026-04-19T14:34:02.999Z</time></trkpt><trkpt lat="43.5466239444013" lon="11.578363945189066"><ele>139.6</ele><time>2026-04-19T14:34:03.999Z</time></trkpt><trkpt lat="43.54670667535446" lon="11.578278969258939"><ele>139.4</ele><time>2026-04-19T14:34:04.999Z</time></trkpt><trkpt lat="43.546786070743885" lon="11.578195782735511"><ele>139.2</ele><time>2026-04-19T14:34:05.999Z</time></trkpt><trkpt lat="43.54686094400235" lon="11.57811798278923"><ele>139.0</ele><time>2026-04-19T14:34:06.999Z</time></trkpt><trkpt lat="43.546935759383345" lon="11.57804352685726"><ele>139.0</ele><time>2026-04-19T14:34:07.999Z</time></trkpt><trkpt lat="43.54700407691342" lon="11.57798592226889"><ele>139.0</ele><time>2026-04-19T14:34:08.999Z</time></trkpt><trkpt lat="43.547065902519904" lon="11.57794883226466"><ele>139.0</ele><time>2026-04-19T14:34:09.999Z</time></trkpt><trkpt lat="43.54716841614765" lon="11.577932676880108"><ele>139.0</ele><time>2026-04-19T14:34:11.999Z</time></trkpt><trkpt lat="43.547255628265546" lon="11.577951626208492"><ele>139.0</ele><time>2026-04-19T14:34:13.999Z</time></trkpt><trkpt lat="43.54735631783051" lon="11.577996495203346"><ele>139.0</ele><time>2026-04-19T14:34:15.998Z</time></trkpt><trkpt lat="43.54743131216023" lon="11.578018587867072"><ele>139.66666666666669</ele><time>2026-04-19T14:34:16.998Z</time></trkpt><trkpt lat="43.54751523853056" lon="11.578021071928028"><ele>140.33333333333334</ele><time>2026-04-19T14:34:17.998Z</time></trkpt><trkpt lat="43.547604482601585" lon="11.578034526803403"><ele>141.0</ele><time>2026-04-19T14:34:18.998Z</time></trkpt><trkpt lat="43.54768759397416" lon="11.577998022666872"><ele>141.66666666666666</ele><time>2026-04-19T14:34:19.998Z</time></trkpt><trkpt lat="43.54776393999769" lon="11.577927339500196"><ele>142.33333333333331</ele><time>2026-04-19T14:34:20.998Z</time></trkpt><trkpt lat="43.547825110827496" lon="11.577833932810305"><ele>143.0</ele><time>2026-04-19T14:34:21.998Z</time></trkpt><trkpt lat="43.54787170270473" lon="11.577728970997502"><ele>143.0</ele><time>2026-04-19T14:34:22.998Z</time></trkpt><trkpt lat="43.54787417749107" lon="11.577574487840968"><ele>143.0</ele><time>2026-04-19T14:34:23.998Z</time></trkpt><trkpt lat="43.547856184754444" lon="11.57743405528557"><ele>143.0</ele><time>2026-04-19T14:34:24.998Z</time></trkpt><trkpt lat="43.54782543750925" lon="11.577308660864645"><ele>143.0</ele><time>2026-04-19T14:34:25.998Z</time></trkpt><trkpt lat="43.5477687949614" lon="11.577187767521943"><ele>143.0</ele><time>2026-04-19T14:34:26.998Z</time></trkpt><trkpt lat="43.547714427249915" lon="11.577069241340823"><ele>143.0</ele><time>2026-04-19T14:34:27.998Z</time></trkpt><trkpt lat="43.547645201710566" lon="11.57696621074049"><ele>143.0</ele><time>2026-04-19T14:34:28.998Z</time></trkpt><trkpt lat="43.547556726697145" lon="11.576912422568286"><ele>143.0</ele><time>2026-04-19T14:34:29.998Z</time></trkpt><trkpt lat="43.54745938336117" lon="11.576860418292027"><ele>143.0</ele><time>2026-04-19T14:34:30.998Z</time></trkpt><trkpt lat="43.54736045148139" lon="11.57679381851923"><ele>143.0</ele><time>2026-04-19T14:34:31.998Z</time></trkpt><trkpt lat="43.547279418403704" lon="11.57670484106883"><ele>143.0</ele><time>2026-04-19T14:34:32.998Z</time></trkpt><trkpt lat="43.54720072520166" lon="11.576629625946902"><ele>143.0</ele><time>2026-04-19T14:34:33.998Z</time></trkpt><trkpt lat="43.54716843503335" lon="11.576484497255546"><ele>143.0</ele><time>2026-04-19T14:34:34.998Z</time></trkpt><trkpt lat="43.54711904338989" lon="11.576375860024813"><ele>143.0</ele><time>2026-04-19T14:34:35.998Z</time></trkpt><trkpt lat="43.54706490880729" lon="11.57626152073429"><ele>143.0</ele><time>2026-04-19T14:34:36.998Z</time></trkpt><trkpt lat="43.54700876120347" lon="11.576139596830807"><ele>142.75</ele><time>2026-04-19T14:34:37.998Z</time></trkpt><trkpt lat="43.546951795520314" lon="11.576011498339867"><ele>142.5</ele><time>2026-04-19T14:34:38.998Z</time></trkpt><trkpt lat="43.54688994094234" lon="11.575881262222996"><ele>142.25</ele><time>2026-04-19T14:34:39.998Z</time></trkpt><trkpt lat="43.546825810206606" lon="11.575748006313855"><ele>142.0</ele><time>2026-04-19T14:34:40.998Z</time></trkpt><trkpt lat="43.54675873198801" lon="11.575611447885999"><ele>142.0</ele><time>2026-04-19T14:34:41.998Z</time></trkpt><trkpt lat="43.546687705812026" lon="11.57547611573115"><ele>142.0</ele><time>2026-04-19T14:34:42.998Z</time></trkpt><trkpt lat="43.54661551293675" lon="11.57533874143133"><ele>142.0</ele><time>2026-04-19T14:34:43.998Z</time></trkpt><trkpt lat="43.5465402309952" lon="11.575197301615896"><ele>142.0</ele><time>2026-04-19T14:34:44.998Z</time></trkpt><trkpt lat="43.54646465020823" lon="11.575059704051915"><ele>141.79999999999998</ele><time>2026-04-19T14:34:45.998Z</time></trkpt><trkpt lat="43.54639572273376" lon="11.5749324754376"><ele>141.6</ele><time>2026-04-19T14:34:46.998Z</time></trkpt><trkpt lat="43.54633335483951" lon="11.574818250483334"><ele>141.39999999999998</ele><time>2026-04-19T14:34:47.998Z</time></trkpt><trkpt lat="43.54627400526665" lon="11.574717312318452"><ele>141.2</ele><time>2026-04-19T14:34:48.998Z</time></trkpt><trkpt lat="43.546215663444606" lon="11.574624588295272"><ele>141.0</ele><time>2026-04-19T14:34:49.998Z</time></trkpt><trkpt lat="43.54615934295369" lon="11.574541773793968"><ele>141.0</ele><time>2026-04-19T14:34:50.998Z</time></trkpt><trkpt lat="43.546104238502174" lon="11.574460638214653"><ele>141.0</ele><time>2026-04-19T14:34:52Z</time></trkpt><trkpt lat="43.54604864389004" lon="11.574374212416618"><ele>141.0</ele><time>2026-04-19T14:34:53Z</time></trkpt><trkpt lat="43.545996548766034" lon="11.57428824666464"><ele>141.0</ele><time>2026-04-19T14:34:54Z</time></trkpt><trkpt lat="43.545949279997444" lon="11.574199349578455"><ele>141.0</ele><time>2026-04-19T14:34:55Z</time></trkpt><trkpt lat="43.54590480757611" lon="11.57408863432001"><ele>141.0</ele><time>2026-04-19T14:34:56Z</time></trkpt><trkpt lat="43.54587480798135" lon="11.573964639067894"><ele>141.0</ele><time>2026-04-19T14:34:57Z</time></trkpt><trkpt lat="43.54586400286222" lon="11.573829856582133"><ele>141.0</ele><time>2026-04-19T14:34:58Z</time></trkpt><trkpt lat="43.545873626593796" lon="11.573696342018277"><ele>141.0</ele><time>2026-04-19T14:34:59Z</time></trkpt><trkpt lat="43.54589841756712" lon="11.57355884690065"><ele>141.0</ele><time>2026-04-19T14:35:00Z</time></trkpt><trkpt lat="43.54593927966842" lon="11.573417910487134"><ele>141.0</ele><time>2026-04-19T14:35:01Z</time></trkpt><trkpt lat="43.54599255905673" lon="11.573263769613328"><ele>141.0</ele><time>2026-04-19T14:35:02Z</time></trkpt><trkpt lat="43.54604343905485" lon="11.573107706220911"><ele>141.0</ele><time>2026-04-19T14:35:03Z</time></trkpt><trkpt lat="43.546095005111404" lon="11.572940335547813"><ele>141.0</ele><time>2026-04-19T14:35:04Z</time></trkpt><trkpt lat="43.54614521554245" lon="11.57276339617195"><ele>141.0</ele><time>2026-04-19T14:35:05Z</time></trkpt><trkpt lat="43.54618868999834" lon="11.5725776732599"><ele>141.0</ele><time>2026-04-19T14:35:06Z</time></trkpt><trkpt lat="43.54622327980709" lon="11.572388176923912"><ele>141.0</ele><time>2026-04-19T14:35:07Z</time></trkpt><trkpt lat="43.54625378759276" lon="11.572202296416746"><ele>141.0</ele><time>2026-04-19T14:35:08Z</time></trkpt><trkpt lat="43.546276674114296" lon="11.572017910482108"><ele>141.0</ele><time>2026-04-19T14:35:09Z</time></trkpt><trkpt lat="43.54629406692272" lon="11.571840516481393"><ele>141.0</ele><time>2026-04-19T14:35:10Z</time></trkpt><trkpt lat="43.546311576934436" lon="11.571677465468355"><ele>141.0</ele><time>2026-04-19T14:35:11Z</time></trkpt><trkpt lat="43.546328046019994" lon="11.571526145149505"><ele>141.0</ele><time>2026-04-19T14:35:12Z</time></trkpt><trkpt lat="43.54634446118513" lon="11.571373832608952"><ele>141.0</ele><time>2026-04-19T14:35:13Z</time></trkpt><trkpt lat="43.546355068141764" lon="11.571208339360673"><ele>141.5</ele><time>2026-04-19T14:35:14Z</time></trkpt><trkpt lat="43.54636316194792" lon="11.571029764040016"><ele>142.0</ele><time>2026-04-19T14:35:15Z</time></trkpt><trkpt lat="43.54637621237948" lon="11.570834016448666"><ele>142.5</ele><time>2026-04-19T14:35:16Z</time></trkpt><trkpt lat="43.54640816795005" lon="11.570618899818214"><ele>143.0</ele><time>2026-04-19T14:35:17Z</time></trkpt><trkpt lat="43.546459150893995" lon="11.57040317087911"><ele>142.66666666666666</ele><time>2026-04-19T14:35:18Z</time></trkpt><trkpt lat="43.54651471893426" lon="11.570212765958479"><ele>142.33333333333334</ele><time>2026-04-19T14:35:19Z</time></trkpt><trkpt lat="43.54659332423623" lon="11.569996826430858"><ele>142.0</ele><time>2026-04-19T14:35:20Z</time></trkpt><trkpt lat="43.546661612681156" lon="11.569812984624454"><ele>142.0</ele><time>2026-04-19T14:35:21Z</time></trkpt><trkpt lat="43.54672975999112" lon="11.569636673747457"><ele>142.0</ele><time>2026-04-19T14:35:22Z</time></trkpt><trkpt lat="43.54679777802641" lon="11.569464929263157"><ele>142.0</ele><time>2026-04-19T14:35:23Z</time></trkpt><trkpt lat="43.54686146242367" lon="11.569305073855253"><ele>142.0</ele><time>2026-04-19T14:35:24Z</time></trkpt><trkpt lat="43.546927026901535" lon="11.56914866289365"><ele>142.25</ele><time>2026-04-19T14:35:25Z</time></trkpt><trkpt lat="43.54699257153014" lon="11.568993182296479"><ele>142.5</ele><time>2026-04-19T14:35:26Z</time></trkpt><trkpt lat="43.54705449251398" lon="11.568838895098688"><ele>142.75</ele><time>2026-04-19T14:35:27Z</time></trkpt><trkpt lat="43.54710915418725" lon="11.568693594507844"><ele>143.0</ele><time>2026-04-19T14:35:28Z</time></trkpt><trkpt lat="43.54716215040938" lon="11.568556593036599"><ele>142.6</ele><time>2026-04-19T14:35:29Z</time></trkpt><trkpt lat="43.54721657228738" lon="11.56841962824566"><ele>142.20000000000002</ele><time>2026-04-19T14:35:30Z</time></trkpt><trkpt lat="43.54726837790561" lon="11.568285889612852"><ele>141.8</ele><time>2026-04-19T14:35:31Z</time></trkpt><trkpt lat="43.547318385753826" lon="11.568147368720998"><ele>141.4</ele><time>2026-04-19T14:35:31.999Z</time></trkpt><trkpt lat="43.5473692734029" lon="11.568007329927182"><ele>141.0</ele><time>2026-04-19T14:35:32.999Z</time></trkpt><trkpt lat="43.54742274171968" lon="11.567868489938382"><ele>141.0</ele><time>2026-04-19T14:35:33.999Z</time></trkpt><trkpt lat="43.54747947701043" lon="11.567726442318582"><ele>141.0</ele><time>2026-04-19T14:35:34.999Z</time></trkpt><trkpt lat="43.54753735146447" lon="11.567575682288616"><ele>141.0</ele><time>2026-04-19T14:35:35.999Z</time></trkpt><trkpt lat="43.547595129696646" lon="11.567418542505328"><ele>141.0</ele><time>2026-04-19T14:35:36.999Z</time></trkpt><trkpt lat="43.54765681771792" lon="11.567255775582893"><ele>141.0</ele><time>2026-04-19T14:35:37.999Z</time></trkpt><trkpt lat="43.547719041462834" lon="11.567090343845898"><ele>141.0</ele><time>2026-04-19T14:35:38.999Z</time></trkpt><trkpt lat="43.54778276701205" lon="11.566921722072312"><ele>141.0</ele><time>2026-04-19T14:35:39.999Z</time></trkpt><trkpt lat="43.54784773984758" lon="11.566750855369676"><ele>141.0</ele><time>2026-04-19T14:35:40.999Z</time></trkpt><trkpt lat="43.547912081585274" lon="11.566582495181557"><ele>141.0</ele><time>2026-04-19T14:35:41.999Z</time></trkpt><trkpt lat="43.54797509713665" lon="11.56641464953968"><ele>141.0</ele><time>2026-04-19T14:35:42.999Z</time></trkpt><trkpt lat="43.54803865688723" lon="11.566252177967742"><ele>141.0</ele><time>2026-04-19T14:35:43.999Z</time></trkpt><trkpt lat="43.54810088989368" lon="11.566091993129636"><ele>141.0</ele><time>2026-04-19T14:35:44.999Z</time></trkpt><trkpt lat="43.54815795022151" lon="11.565934683262398"><ele>141.0</ele><time>2026-04-19T14:35:45.999Z</time></trkpt><trkpt lat="43.548214866010106" lon="11.565785303998044"><ele>141.0</ele><time>2026-04-19T14:35:46.999Z</time></trkpt><trkpt lat="43.54826693623392" lon="11.565645946926388"><ele>141.0</ele><time>2026-04-19T14:35:47.999Z</time></trkpt><trkpt lat="43.54831776894544" lon="11.565516858532424"><ele>141.0</ele><time>2026-04-19T14:35:48.999Z</time></trkpt><trkpt lat="43.54836618224912" lon="11.565390857100905"><ele>141.0</ele><time>2026-04-19T14:35:49.999Z</time></trkpt><trkpt lat="43.548412966430824" lon="11.565272627867031"><ele>140.8</ele><time>2026-04-19T14:35:50.999Z</time></trkpt><trkpt lat="43.54845682522346" lon="11.565152820922798"><ele>140.6</ele><time>2026-04-19T14:35:51.999Z</time></trkpt><trkpt lat="43.54850103758101" lon="11.565034788032236"><ele>140.4</ele><time>2026-04-19T14:35:52.999Z</time></trkpt><trkpt lat="43.548546140312105" lon="11.564920290284192"><ele>140.2</ele><time>2026-04-19T14:35:53.999Z</time></trkpt><trkpt lat="43.54859081782536" lon="11.56480234193311"><ele>140.0</ele><time>2026-04-19T14:35:54.999Z</time></trkpt><trkpt lat="43.54863944627659" lon="11.564683293174426"><ele>140.0</ele><time>2026-04-19T14:35:55.999Z</time></trkpt><trkpt lat="43.5486880292043" lon="11.564556042687675"><ele>140.0</ele><time>2026-04-19T14:35:56.999Z</time></trkpt><trkpt lat="43.54873810288523" lon="11.564421095332097"><ele>140.0</ele><time>2026-04-19T14:35:57.999Z</time></trkpt><trkpt lat="43.54879048425775" lon="11.564282187431711"><ele>140.0</ele><time>2026-04-19T14:35:58.999Z</time></trkpt><trkpt lat="43.54884326633983" lon="11.56414589763147"><ele>140.0</ele><time>2026-04-19T14:35:59.999Z</time></trkpt><trkpt lat="43.54889354682395" lon="11.56402172670845"><ele>140.0</ele><time>2026-04-19T14:36:00.999Z</time></trkpt><trkpt lat="43.54893922592181" lon="11.563906402903394"><ele>140.0</ele><time>2026-04-19T14:36:01.999Z</time></trkpt><trkpt lat="43.54898001036123" lon="11.563794539496671"><ele>140.0</ele><time>2026-04-19T14:36:02.999Z</time></trkpt><trkpt lat="43.549019711080476" lon="11.563681695076474"><ele>140.0</ele><time>2026-04-19T14:36:03.999Z</time></trkpt><trkpt lat="43.54906142577715" lon="11.563565858564807"><ele>140.0</ele><time>2026-04-19T14:36:04.999Z</time></trkpt><trkpt lat="43.549104204276254" lon="11.563448671173731"><ele>140.0</ele><time>2026-04-19T14:36:05.999Z</time></trkpt><trkpt lat="43.549148684927275" lon="11.563327510070428"><ele>140.0</ele><time>2026-04-19T14:36:06.999Z</time></trkpt><trkpt lat="43.54919521575518" lon="11.563204465103448"><ele>140.0</ele><time>2026-04-19T14:36:07.999Z</time></trkpt><trkpt lat="43.54924448563612" lon="11.563077119684296"><ele>140.0</ele><time>2026-04-19T14:36:08.999Z</time></trkpt><trkpt lat="43.54929505806709" lon="11.562947901591452"><ele>140.0</ele><time>2026-04-19T14:36:09.999Z</time></trkpt><trkpt lat="43.54933966802868" lon="11.562824079918808"><ele>140.2</ele><time>2026-04-19T14:36:10.999Z</time></trkpt><trkpt lat="43.54938387567435" lon="11.562708187968287"><ele>140.4</ele><time>2026-04-19T14:36:11.999Z</time></trkpt><trkpt lat="43.549425237205554" lon="11.56259725067779"><ele>140.6</ele><time>2026-04-19T14:36:12.999Z</time></trkpt><trkpt lat="43.54946788685202" lon="11.562490644445798"><ele>140.8</ele><time>2026-04-19T14:36:13.999Z</time></trkpt><trkpt lat="43.54951231711629" lon="11.562380687990364"><ele>141.0</ele><time>2026-04-19T14:36:14.999Z</time></trkpt><trkpt lat="43.54955111131515" lon="11.562274277901647"><ele>141.0</ele><time>2026-04-19T14:36:15.999Z</time></trkpt><trkpt lat="43.54958903376887" lon="11.56216550031826"><ele>141.0</ele><time>2026-04-19T14:36:16.999Z</time></trkpt><trkpt lat="43.54962264394095" lon="11.56204237872694"><ele>141.0</ele><time>2026-04-19T14:36:17.999Z</time></trkpt><trkpt lat="43.549657372504754" lon="11.561904764050835"><ele>141.0</ele><time>2026-04-19T14:36:18.999Z</time></trkpt><trkpt lat="43.549719193682634" lon="11.56174856956034"><ele>141.0</ele><time>2026-04-19T14:36:19.999Z</time></trkpt><trkpt lat="43.549778290051684" lon="11.561598524530357"><ele>141.0</ele><time>2026-04-19T14:36:20.999Z</time></trkpt><trkpt lat="43.54982875891958" lon="11.561430249265682"><ele>141.0</ele><time>2026-04-19T14:36:21.999Z</time></trkpt><trkpt lat="43.549875969292756" lon="11.561259382118163"><ele>141.0</ele><time>2026-04-19T14:36:22.999Z</time></trkpt><trkpt lat="43.549932683221805" lon="11.561085131465191"><ele>141.0</ele><time>2026-04-19T14:36:23.998Z</time></trkpt><trkpt lat="43.54998902995377" lon="11.560899876128767"><ele>140.75</ele><time>2026-04-19T14:36:24.998Z</time></trkpt><trkpt lat="43.550044394098265" lon="11.560712005191391"><ele>140.5</ele><time>2026-04-19T14:36:25.998Z</time></trkpt><trkpt lat="43.55010028417059" lon="11.560523730089466"><ele>140.25</ele><time>2026-04-19T14:36:26.998Z</time></trkpt><trkpt lat="43.550151322359724" lon="11.56033200474766"><ele>140.0</ele><time>2026-04-19T14:36:27.998Z</time></trkpt><trkpt lat="43.55020643349129" lon="11.560140135336443"><ele>140.0</ele><time>2026-04-19T14:36:28.998Z</time></trkpt><trkpt lat="43.55025919661203" lon="11.55996218950526"><ele>140.0</ele><time>2026-04-19T14:36:29.998Z</time></trkpt><trkpt lat="43.55030777012713" lon="11.55979304479639"><ele>140.0</ele><time>2026-04-19T14:36:30.998Z</time></trkpt><trkpt lat="43.550352011059886" lon="11.559634895530102"><ele>140.0</ele><time>2026-04-19T14:36:31.998Z</time></trkpt><trkpt lat="43.55039707176927" lon="11.559490687747678"><ele>140.16666666666666</ele><time>2026-04-19T14:36:32.998Z</time></trkpt><trkpt lat="43.55043475885207" lon="11.559364153387925"><ele>140.33333333333331</ele><time>2026-04-19T14:36:33.998Z</time></trkpt><trkpt lat="43.550468424756126" lon="11.55925428229502"><ele>140.5</ele><time>2026-04-19T14:36:34.998Z</time></trkpt><trkpt lat="43.55050104504506" lon="11.559154879701934"><ele>140.66666666666666</ele><time>2026-04-19T14:36:35.998Z</time></trkpt><trkpt lat="43.550530722506984" lon="11.559062652479223"><ele>140.83333333333334</ele><time>2026-04-19T14:36:36.998Z</time></trkpt><trkpt lat="43.55056074837333" lon="11.558977273775609"><ele>141.0</ele><time>2026-04-19T14:36:37.998Z</time></trkpt><trkpt lat="43.55062371439233" lon="11.558857385029015"><ele>141.0</ele><time>2026-04-19T14:36:39.998Z</time></trkpt><trkpt lat="43.55070791495425" lon="11.558801502499701"><ele>141.0</ele><time>2026-04-19T14:36:41.998Z</time></trkpt><trkpt lat="43.550814293557515" lon="11.558798383135318"><ele>141.0</ele><time>2026-04-19T14:36:43.998Z</time></trkpt><trkpt lat="43.55092921169379" lon="11.558733772977535"><ele>141.0</ele><time>2026-04-19T14:36:45.998Z</time></trkpt><trkpt lat="43.55098409976374" lon="11.558655030859956"><ele>141.0</ele><time>2026-04-19T14:36:46.998Z</time></trkpt><trkpt lat="43.55103749739945" lon="11.558551152610738"><ele>141.0</ele><time>2026-04-19T14:36:47.998Z</time></trkpt><trkpt lat="43.55108675429752" lon="11.558445351467899"><ele>141.0</ele><time>2026-04-19T14:36:48.998Z</time></trkpt><trkpt lat="43.55114159114669" lon="11.558333901970695"><ele>141.0</ele><time>2026-04-19T14:36:49.998Z</time></trkpt><trkpt lat="43.55118542260745" lon="11.558205003433713"><ele>141.0</ele><time>2026-04-19T14:36:50.998Z</time></trkpt><trkpt lat="43.55124675716073" lon="11.558089780562282"><ele>141.0</ele><time>2026-04-19T14:36:51.998Z</time></trkpt><trkpt lat="43.551303544016974" lon="11.557980755447732"><ele>140.83333333333334</ele><time>2026-04-19T14:36:52.998Z</time></trkpt><trkpt lat="43.551359172543236" lon="11.55787556571201"><ele>140.66666666666666</ele><time>2026-04-19T14:36:53.998Z</time></trkpt><trkpt lat="43.55141127776404" lon="11.557777038075406"><ele>140.5</ele><time>2026-04-19T14:36:54.998Z</time></trkpt><trkpt lat="43.55145650993744" lon="11.55769150687323"><ele>140.33333333333331</ele><time>2026-04-19T14:36:55.998Z</time></trkpt><trkpt lat="43.55150801973366" lon="11.557618998351668"><ele>140.16666666666666</ele><time>2026-04-19T14:36:56.998Z</time></trkpt><trkpt lat="43.551526595701134" lon="11.557500241163037"><ele>140.0</ele><time>2026-04-19T14:36:58Z</time></trkpt><trkpt lat="43.55152624684534" lon="11.557356134228677"><ele>140.0</ele><time>2026-04-19T14:36:59Z</time></trkpt><trkpt lat="43.55150872066626" lon="11.557189622801197"><ele>140.0</ele><time>2026-04-19T14:37:00Z</time></trkpt><trkpt lat="43.55146985170611" lon="11.557018880775876"><ele>140.0</ele><time>2026-04-19T14:37:01Z</time></trkpt><trkpt lat="43.55141261079801" lon="11.556865864639132"><ele>140.0</ele><time>2026-04-19T14:37:02Z</time></trkpt><trkpt lat="43.55133963373262" lon="11.55674263060136"><ele>140.0</ele><time>2026-04-19T14:37:03Z</time></trkpt><trkpt lat="43.551248621952126" lon="11.55664277578486"><ele>140.0</ele><time>2026-04-19T14:37:04Z</time></trkpt><trkpt lat="43.55114178922417" lon="11.556565157119547"><ele>140.0</ele><time>2026-04-19T14:37:05Z</time></trkpt><trkpt lat="43.55102338358633" lon="11.556510017892426"><ele>140.0</ele><time>2026-04-19T14:37:06Z</time></trkpt><trkpt lat="43.55089548023211" lon="11.556470348279927"><ele>140.0</ele><time>2026-04-19T14:37:07Z</time></trkpt><trkpt lat="43.550772792993044" lon="11.556436228089739"><ele>140.0</ele><time>2026-04-19T14:37:08Z</time></trkpt><trkpt lat="43.550656109890035" lon="11.556403994437849"><ele>140.0</ele><time>2026-04-19T14:37:09Z</time></trkpt><trkpt lat="43.55054530960591" lon="11.556370833159411"><ele>140.0</ele><time>2026-04-19T14:37:10Z</time></trkpt><trkpt lat="43.55044009975787" lon="11.556335556204"><ele>139.4</ele><time>2026-04-19T14:37:11Z</time></trkpt><trkpt lat="43.550336304805946" lon="11.556299825545207"><ele>138.8</ele><time>2026-04-19T14:37:12Z</time></trkpt><trkpt lat="43.550237711501545" lon="11.556268748842518"><ele>138.2</ele><time>2026-04-19T14:37:13Z</time></trkpt><trkpt lat="43.55014446023457" lon="11.556245865212134"><ele>137.6</ele><time>2026-04-19T14:37:14Z</time></trkpt><trkpt lat="43.55005493245729" lon="11.556196374570137"><ele>137.0</ele><time>2026-04-19T14:37:15Z</time></trkpt><trkpt lat="43.549964702582116" lon="11.556212346588937"><ele>137.0</ele><time>2026-04-19T14:37:16Z</time></trkpt><trkpt lat="43.54988204330907" lon="11.556273448895533"><ele>137.0</ele><time>2026-04-19T14:37:17Z</time></trkpt><trkpt lat="43.54982136800545" lon="11.556376361065034"><ele>137.0</ele><time>2026-04-19T14:37:18Z</time></trkpt><trkpt lat="43.549775999116925" lon="11.556457627246845"><ele>137.0</ele><time>2026-04-19T14:37:19Z</time></trkpt><trkpt lat="43.54973801899247" lon="11.556530857828475"><ele>137.0</ele><time>2026-04-19T14:37:20Z</time></trkpt><trkpt lat="43.549677336874716" lon="11.556644661478172"><ele>137.0</ele><time>2026-04-19T14:37:22Z</time></trkpt><trkpt lat="43.5495987937022" lon="11.556790599477592"><ele>137.2</ele><time>2026-04-19T14:37:42Z</time></trkpt><trkpt lat="43.54953390902282" lon="11.556918278539102"><ele>137.39999999999998</ele><time>2026-04-19T14:37:43Z</time></trkpt><trkpt lat="43.5494743848738" lon="11.557046005841134"><ele>137.60000000000002</ele><time>2026-04-19T14:37:44Z</time></trkpt><trkpt lat="43.54943187665908" lon="11.557175070572939"><ele>137.8</ele><time>2026-04-19T14:37:44.999Z</time></trkpt><trkpt lat="43.54944429990721" lon="11.557318447063146"><ele>138.0</ele><time>2026-04-19T14:37:45.999Z</time></trkpt><trkpt lat="43.54945339417852" lon="11.557461370435862"><ele>138.0</ele><time>2026-04-19T14:37:46.999Z</time></trkpt><trkpt lat="43.549468822383034" lon="11.55759522963554"><ele>138.0</ele><time>2026-04-19T14:37:47.999Z</time></trkpt><trkpt lat="43.54947574828026" lon="11.55773245812722"><ele>138.0</ele><time>2026-04-19T14:37:48.999Z</time></trkpt><trkpt lat="43.549467660336695" lon="11.557864765130255"><ele>138.0</ele><time>2026-04-19T14:37:49.999Z</time></trkpt><trkpt lat="43.54944962160555" lon="11.557989396126365"><ele>138.0</ele><time>2026-04-19T14:37:50.999Z</time></trkpt><trkpt lat="43.54939903641289" lon="11.558094554086377"><ele>138.20000000000002</ele><time>2026-04-19T14:37:51.999Z</time></trkpt><trkpt lat="43.54933270014364" lon="11.558185984068373"><ele>138.4</ele><time>2026-04-19T14:37:52.999Z</time></trkpt><trkpt lat="43.54921433733038" lon="11.558141520082549"><ele>138.60000000000002</ele><time>2026-04-19T14:37:53.999Z</time></trkpt><trkpt lat="43.54913497409095" lon="11.558128234044569"><ele>138.8</ele><time>2026-04-19T14:37:54.999Z</time></trkpt><trkpt lat="43.54905037625218" lon="11.558063659235282"><ele>139.0</ele><time>2026-04-19T14:37:55.999Z</time></trkpt><trkpt lat="43.54898362706849" lon="11.557975660862073"><ele>138.75</ele><time>2026-04-19T14:37:56.999Z</time></trkpt><trkpt lat="43.548930406327344" lon="11.557843644466006"><ele>138.5</ele><time>2026-04-19T14:37:57.999Z</time></trkpt><trkpt lat="43.54890168354182" lon="11.557693237578116"><ele>138.25</ele><time>2026-04-19T14:37:58.999Z</time></trkpt><trkpt lat="43.54890095489598" lon="11.557535940353514"><ele>138.0</ele><time>2026-04-19T14:37:59.999Z</time></trkpt><trkpt lat="43.548902136684944" lon="11.557374759824812"><ele>138.0</ele><time>2026-04-19T14:38:00.999Z</time></trkpt><trkpt lat="43.54896378063047" lon="11.557219357166908"><ele>138.0</ele><time>2026-04-19T14:38:01.999Z</time></trkpt><trkpt lat="43.5490225132019" lon="11.557043081624062"><ele>138.0</ele><time>2026-04-19T14:38:02.999Z</time></trkpt><trkpt lat="43.54911581962589" lon="11.55688856282898"><ele>138.0</ele><time>2026-04-19T14:38:03.999Z</time></trkpt><trkpt lat="43.549220485279406" lon="11.556742630984614"><ele>138.0</ele><time>2026-04-19T14:38:04.999Z</time></trkpt><trkpt lat="43.549319749173044" lon="11.556618356954928"><ele>138.0</ele><time>2026-04-19T14:38:05.999Z</time></trkpt><trkpt lat="43.549407113960896" lon="11.556500056777812"><ele>138.0</ele><time>2026-04-19T14:38:06.999Z</time></trkpt><trkpt lat="43.54949047444988" lon="11.556375917885221"><ele>138.0</ele><time>2026-04-19T14:38:07.999Z</time></trkpt><trkpt lat="43.54960068635049" lon="11.556213894044191"><ele>137.66666666666666</ele><time>2026-04-19T14:38:08.999Z</time></trkpt><trkpt lat="43.54972483881581" lon="11.556027155821345"><ele>137.33333333333331</ele><time>2026-04-19T14:38:09.999Z</time></trkpt><trkpt lat="43.54986444128435" lon="11.555810084327755"><ele>137.0</ele><time>2026-04-19T14:38:10.999Z</time></trkpt><trkpt lat="43.55001886085533" lon="11.55557045664742"><ele>137.5</ele><time>2026-04-19T14:38:11.999Z</time></trkpt><trkpt lat="43.55017311041023" lon="11.555334562992122"><ele>138.0</ele><time>2026-04-19T14:38:12.999Z</time></trkpt><trkpt lat="43.55032712853255" lon="11.555102388208658"><ele>137.5</ele><time>2026-04-19T14:38:13.999Z</time></trkpt><trkpt lat="43.55048729844107" lon="11.55486919933125"><ele>137.0</ele><time>2026-04-19T14:38:14.999Z</time></trkpt><trkpt lat="43.5506419793613" lon="11.554641565608204"><ele>137.5</ele><time>2026-04-19T14:38:15.999Z</time></trkpt><trkpt lat="43.55080361900274" lon="11.5544111828714"><ele>138.0</ele><time>2026-04-19T14:38:16.999Z</time></trkpt><trkpt lat="43.550964724373756" lon="11.554178993784392"><ele>138.0</ele><time>2026-04-19T14:38:17.999Z</time></trkpt><trkpt lat="43.551123257155446" lon="11.55394141659492"><ele>138.0</ele><time>2026-04-19T14:38:18.999Z</time></trkpt><trkpt lat="43.55127835177747" lon="11.553711252820491"><ele>138.0</ele><time>2026-04-19T14:38:19.999Z</time></trkpt><trkpt lat="43.55143145773655" lon="11.553482651237772"><ele>138.0</ele><time>2026-04-19T14:38:20.999Z</time></trkpt><trkpt lat="43.55158507889894" lon="11.553250561652437"><ele>138.0</ele><time>2026-04-19T14:38:21.999Z</time></trkpt><trkpt lat="43.55173902553401" lon="11.55301369505486"><ele>138.0</ele><time>2026-04-19T14:38:22.999Z</time></trkpt><trkpt lat="43.55189848108326" lon="11.552754238228715"><ele>137.5</ele><time>2026-04-19T14:38:23.999Z</time></trkpt><trkpt lat="43.55206662486741" lon="11.552474345533435"><ele>137.0</ele><time>2026-04-19T14:38:24.999Z</time></trkpt><trkpt lat="43.552251518129346" lon="11.552190432406857"><ele>136.0</ele><time>2026-04-19T14:38:25.999Z</time></trkpt><trkpt lat="43.552450727308376" lon="11.551905002752942"><ele>135.0</ele><time>2026-04-19T14:38:26.999Z</time></trkpt><trkpt lat="43.55264513489245" lon="11.551622456353288"><ele>135.0</ele><time>2026-04-19T14:38:27.999Z</time></trkpt><trkpt lat="43.55283499725927" lon="11.551328285900762"><ele>135.0</ele><time>2026-04-19T14:38:28.999Z</time></trkpt><trkpt lat="43.55302237176565" lon="11.551030575674481"><ele>135.5</ele><time>2026-04-19T14:38:29.999Z</time></trkpt><trkpt lat="43.55321355723747" lon="11.550735238741932"><ele>136.0</ele><time>2026-04-19T14:38:30.999Z</time></trkpt><trkpt lat="43.55340720521838" lon="11.550445598268714"><ele>136.0</ele><time>2026-04-19T14:38:31.999Z</time></trkpt><trkpt lat="43.55359557180039" lon="11.550150757350313"><ele>136.0</ele><time>2026-04-19T14:38:32.999Z</time></trkpt><trkpt lat="43.55377471254321" lon="11.549847311232126"><ele>135.0</ele><time>2026-04-19T14:38:33.999Z</time></trkpt><trkpt lat="43.55394733214282" lon="11.54953762650696"><ele>134.0</ele><time>2026-04-19T14:38:34.999Z</time></trkpt><trkpt lat="43.554115303024574" lon="11.549227413147602"><ele>134.0</ele><time>2026-04-19T14:38:35.999Z</time></trkpt><trkpt lat="43.55428093691366" lon="11.548918373038397"><ele>134.0</ele><time>2026-04-19T14:38:36.999Z</time></trkpt><trkpt lat="43.55444739305106" lon="11.548606819240653"><ele>135.5</ele><time>2026-04-19T14:38:37.998Z</time></trkpt><trkpt lat="43.5546157970549" lon="11.548291110319362"><ele>137.0</ele><time>2026-04-19T14:38:38.998Z</time></trkpt><trkpt lat="43.55478332605275" lon="11.547976251731464"><ele>136.5</ele><time>2026-04-19T14:38:39.998Z</time></trkpt><trkpt lat="43.55495170960097" lon="11.547656957665815"><ele>136.0</ele><time>2026-04-19T14:38:40.998Z</time></trkpt><trkpt lat="43.55511949895052" lon="11.547338325303013"><ele>136.0</ele><time>2026-04-19T14:38:41.998Z</time></trkpt><trkpt lat="43.555287287482784" lon="11.547021362630689"><ele>136.0</ele><time>2026-04-19T14:38:42.998Z</time></trkpt><trkpt lat="43.555456199408596" lon="11.546705618379907"><ele>137.0</ele><time>2026-04-19T14:38:43.998Z</time></trkpt><trkpt lat="43.55562513402253" lon="11.546393962991429"><ele>138.0</ele><time>2026-04-19T14:38:44.998Z</time></trkpt><trkpt lat="43.55579527919466" lon="11.546087778814256"><ele>138.0</ele><time>2026-04-19T14:38:45.998Z</time></trkpt><trkpt lat="43.55596888636043" lon="11.545789219531214"><ele>138.0</ele><time>2026-04-19T14:38:46.998Z</time></trkpt><trkpt lat="43.556151730580766" lon="11.54550372119825"><ele>139.5</ele><time>2026-04-19T14:38:47.998Z</time></trkpt><trkpt lat="43.55633886870916" lon="11.545231923345806"><ele>141.0</ele><time>2026-04-19T14:38:48.998Z</time></trkpt><trkpt lat="43.556521644440934" lon="11.54497436686765"><ele>141.0</ele><time>2026-04-19T14:38:49.998Z</time></trkpt><trkpt lat="43.556693714638314" lon="11.54473112503701"><ele>141.0</ele><time>2026-04-19T14:38:50.998Z</time></trkpt><trkpt lat="43.5568588231541" lon="11.544501825781094"><ele>140.66666666666666</ele><time>2026-04-19T14:38:51.998Z</time></trkpt><trkpt lat="43.55701822924561" lon="11.544283906865372"><ele>140.33333333333331</ele><time>2026-04-19T14:38:52.998Z</time></trkpt><trkpt lat="43.55716903508478" lon="11.544075129742609"><ele>140.0</ele><time>2026-04-19T14:38:53.998Z</time></trkpt><trkpt lat="43.55731247800113" lon="11.54387268307003"><ele>139.0</ele><time>2026-04-19T14:38:54.998Z</time></trkpt><trkpt lat="43.55744823729251" lon="11.543679086072986"><ele>138.0</ele><time>2026-04-19T14:38:55.998Z</time></trkpt><trkpt lat="43.55758111135928" lon="11.543497646481855"><ele>137.0</ele><time>2026-04-19T14:38:56.998Z</time></trkpt><trkpt lat="43.55771256736786" lon="11.543330860201465"><ele>137.0</ele><time>2026-04-19T14:38:57.998Z</time></trkpt><trkpt lat="43.55784639449226" lon="11.54318211793555"><ele>137.0</ele><time>2026-04-19T14:38:58.998Z</time></trkpt><trkpt lat="43.55798968315744" lon="11.543035520991712"><ele>137.0</ele><time>2026-04-19T14:38:59.998Z</time></trkpt><trkpt lat="43.55814302457093" lon="11.542885523068664"><ele>136.66666666666666</ele><time>2026-04-19T14:39:00.998Z</time></trkpt><trkpt lat="43.55831381951616" lon="11.542737886663707"><ele>136.33333333333334</ele><time>2026-04-19T14:39:01.998Z</time></trkpt><trkpt lat="43.55849533736147" lon="11.542608409559412"><ele>136.0</ele><time>2026-04-19T14:39:02.998Z</time></trkpt><trkpt lat="43.558691641860634" lon="11.54249086331442"><ele>136.5</ele><time>2026-04-19T14:39:04Z</time></trkpt><trkpt lat="43.558902379312855" lon="11.542386719578216"><ele>137.0</ele><time>2026-04-19T14:39:05Z</time></trkpt><trkpt lat="43.559118977206374" lon="11.542299142378162"><ele>137.0</ele><time>2026-04-19T14:39:06Z</time></trkpt><trkpt lat="43.55933904863977" lon="11.542233544863942"><ele>137.0</ele><time>2026-04-19T14:39:07Z</time></trkpt><trkpt lat="43.559562898556294" lon="11.54218652222689"><ele>136.33333333333331</ele><time>2026-04-19T14:39:08Z</time></trkpt><trkpt lat="43.559784791124244" lon="11.542157882559744"><ele>135.66666666666666</ele><time>2026-04-19T14:39:09Z</time></trkpt><trkpt lat="43.56000944492631" lon="11.542145985901554"><ele>135.0</ele><time>2026-04-19T14:39:10Z</time></trkpt><trkpt lat="43.56023112703831" lon="11.54215763256942"><ele>134.5</ele><time>2026-04-19T14:39:11Z</time></trkpt><trkpt lat="43.5604562295391" lon="11.54218271185246"><ele>134.0</ele><time>2026-04-19T14:39:12Z</time></trkpt><trkpt lat="43.56068415663035" lon="11.542216650300112"><ele>134.0</ele><time>2026-04-19T14:39:13Z</time></trkpt><trkpt lat="43.560915082318886" lon="11.542246738174475"><ele>134.0</ele><time>2026-04-19T14:39:14Z</time></trkpt><trkpt lat="43.56116035277993" lon="11.542267367507"><ele>134.5</ele><time>2026-04-19T14:39:15Z</time></trkpt><trkpt lat="43.56141575909858" lon="11.542287190507574"><ele>135.0</ele><time>2026-04-19T14:39:16Z</time></trkpt><trkpt lat="43.56167446060303" lon="11.542313326401688"><ele>135.0</ele><time>2026-04-19T14:39:17Z</time></trkpt><trkpt lat="43.56193269859593" lon="11.542340546273678"><ele>135.0</ele><time>2026-04-19T14:39:18Z</time></trkpt><trkpt lat="43.56219073691617" lon="11.542370476775666"><ele>135.0</ele><time>2026-04-19T14:39:19Z</time></trkpt><trkpt lat="43.56244799177135" lon="11.542410794629594"><ele>135.0</ele><time>2026-04-19T14:39:20Z</time></trkpt><trkpt lat="43.562706135501564" lon="11.542461708646053"><ele>135.5</ele><time>2026-04-19T14:39:21Z</time></trkpt><trkpt lat="43.56296518707383" lon="11.542510306200569"><ele>136.0</ele><time>2026-04-19T14:39:22Z</time></trkpt><trkpt lat="43.56321878199281" lon="11.542544112808015"><ele>136.0</ele><time>2026-04-19T14:39:23Z</time></trkpt><trkpt lat="43.563473490287215" lon="11.542568899400287"><ele>136.0</ele><time>2026-04-19T14:39:24Z</time></trkpt><trkpt lat="43.5637288238237" lon="11.542595220274437"><ele>135.5</ele><time>2026-04-19T14:39:25Z</time></trkpt><trkpt lat="43.56398626330317" lon="11.542626483155308"><ele>135.0</ele><time>2026-04-19T14:39:26Z</time></trkpt><trkpt lat="43.56425038486607" lon="11.542658321881383"><ele>135.0</ele><time>2026-04-19T14:39:27Z</time></trkpt><trkpt lat="43.56451530718448" lon="11.542689170305566"><ele>135.0</ele><time>2026-04-19T14:39:28Z</time></trkpt><trkpt lat="43.564784256552734" lon="11.542716807478955"><ele>135.0</ele><time>2026-04-19T14:39:29Z</time></trkpt><trkpt lat="43.56505250876153" lon="11.542744112741927"><ele>135.0</ele><time>2026-04-19T14:39:30Z</time></trkpt><trkpt lat="43.5653217861816" lon="11.542774380672007"><ele>135.5</ele><time>2026-04-19T14:39:31Z</time></trkpt><trkpt lat="43.565590021019325" lon="11.542804844958575"><ele>136.0</ele><time>2026-04-19T14:39:32Z</time></trkpt><trkpt lat="43.56585811378142" lon="11.542831311975533"><ele>136.0</ele><time>2026-04-19T14:39:33Z</time></trkpt><trkpt lat="43.56612406886323" lon="11.542856749342265"><ele>136.0</ele><time>2026-04-19T14:39:34Z</time></trkpt><trkpt lat="43.56638838092434" lon="11.542880446204114"><ele>140.5</ele><time>2026-04-19T14:39:35Z</time></trkpt><trkpt lat="43.56665102934654" lon="11.542898167131131"><ele>145.0</ele><time>2026-04-19T14:39:36Z</time></trkpt><trkpt lat="43.56691388315587" lon="11.542909854264778"><ele>143.0</ele><time>2026-04-19T14:39:37Z</time></trkpt><trkpt lat="43.567180843538765" lon="11.54291340704945"><ele>141.0</ele><time>2026-04-19T14:39:38Z</time></trkpt><trkpt lat="43.56744856609446" lon="11.542908598240821"><ele>141.0</ele><time>2026-04-19T14:39:39Z</time></trkpt><trkpt lat="43.56771631458772" lon="11.542890398535835"><ele>141.0</ele><time>2026-04-19T14:39:40Z</time></trkpt><trkpt lat="43.56798359052918" lon="11.54285449852614"><ele>139.0</ele><time>2026-04-19T14:39:41Z</time></trkpt><trkpt lat="43.568249429629155" lon="11.542804050881974"><ele>137.0</ele><time>2026-04-19T14:39:42Z</time></trkpt><trkpt lat="43.56851456153266" lon="11.542737587757344"><ele>136.5</ele><time>2026-04-19T14:39:43Z</time></trkpt><trkpt lat="43.56877646159439" lon="11.542658566109523"><ele>136.0</ele><time>2026-04-19T14:39:44Z</time></trkpt><trkpt lat="43.569039921885526" lon="11.542569243077153"><ele>136.0</ele><time>2026-04-19T14:39:45Z</time></trkpt><trkpt lat="43.56930130787729" lon="11.542468384323564"><ele>136.0</ele><time>2026-04-19T14:39:46Z</time></trkpt><trkpt lat="43.56955933497379" lon="11.542352052275502"><ele>137.5</ele><time>2026-04-19T14:39:47Z</time></trkpt><trkpt lat="43.569813151631415" lon="11.542221527657974"><ele>139.0</ele><time>2026-04-19T14:39:48Z</time></trkpt><trkpt lat="43.570064444196255" lon="11.542080451607948"><ele>138.5</ele><time>2026-04-19T14:39:49Z</time></trkpt><trkpt lat="43.57031175164944" lon="11.541933555285562"><ele>138.0</ele><time>2026-04-19T14:39:50Z</time></trkpt><trkpt lat="43.57055210563324" lon="11.541777261371502"><ele>138.0</ele><time>2026-04-19T14:39:51Z</time></trkpt><trkpt lat="43.57078831717387" lon="11.541602953052713"><ele>138.0</ele><time>2026-04-19T14:39:52Z</time></trkpt><trkpt lat="43.57102126527294" lon="11.541402423117443"><ele>138.0</ele><time>2026-04-19T14:39:53Z</time></trkpt><trkpt lat="43.57125689474434" lon="11.541165762495252"><ele>138.0</ele><time>2026-04-19T14:39:54Z</time></trkpt><trkpt lat="43.57149884190214" lon="11.540933741021497"><ele>138.0</ele><time>2026-04-19T14:39:55Z</time></trkpt><trkpt lat="43.571752295296804" lon="11.540693597311336"><ele>138.0</ele><time>2026-04-19T14:39:56Z</time></trkpt><trkpt lat="43.572010009991814" lon="11.540443142869737"><ele>137.0</ele><time>2026-04-19T14:39:57Z</time></trkpt><trkpt lat="43.57226811002687" lon="11.540174747600474"><ele>136.0</ele><time>2026-04-19T14:39:58Z</time></trkpt><trkpt lat="43.57252593513675" lon="11.539893137102826"><ele>136.0</ele><time>2026-04-19T14:39:58.999Z</time></trkpt><trkpt lat="43.57277925742385" lon="11.539599990258989"><ele>136.0</ele><time>2026-04-19T14:39:59.999Z</time></trkpt><trkpt lat="43.57302362035117" lon="11.539302134641739"><ele>135.5</ele><time>2026-04-19T14:40:00.999Z</time></trkpt><trkpt lat="43.57325947622327" lon="11.538998618146593"><ele>135.0</ele><time>2026-04-19T14:40:01.999Z</time></trkpt><trkpt lat="43.57349170798882" lon="11.538697428350332"><ele>135.5</ele><time>2026-04-19T14:40:02.999Z</time></trkpt><trkpt lat="43.573722137996434" lon="11.53840033722297"><ele>136.0</ele><time>2026-04-19T14:40:03.999Z</time></trkpt><trkpt lat="43.57394684536202" lon="11.538102430108376"><ele>135.5</ele><time>2026-04-19T14:40:04.999Z</time></trkpt><trkpt lat="43.57416411907498" lon="11.537802167012684"><ele>135.0</ele><time>2026-04-19T14:40:05.999Z</time></trkpt><trkpt lat="43.57437750987118" lon="11.53750121007752"><ele>135.5</ele><time>2026-04-19T14:40:06.999Z</time></trkpt><trkpt lat="43.57458761889343" lon="11.53719960899082"><ele>136.0</ele><time>2026-04-19T14:40:07.999Z</time></trkpt><trkpt lat="43.5747983793335" lon="11.536898498059703"><ele>136.0</ele><time>2026-04-19T14:40:08.999Z</time></trkpt><trkpt lat="43.57501012878746" lon="11.536597626682514"><ele>136.0</ele><time>2026-04-19T14:40:09.999Z</time></trkpt><trkpt lat="43.5752227782849" lon="11.536292241847493"><ele>136.0</ele><time>2026-04-19T14:40:10.999Z</time></trkpt><trkpt lat="43.57543595085866" lon="11.535982343773583"><ele>136.0</ele><time>2026-04-19T14:40:11.999Z</time></trkpt><trkpt lat="43.575648941394185" lon="11.535671179430249"><ele>134.5</ele><time>2026-04-19T14:40:12.999Z</time></trkpt><trkpt lat="43.5758622367828" lon="11.535360178972077"><ele>133.0</ele><time>2026-04-19T14:40:13.999Z</time></trkpt><trkpt lat="43.5760770381107" lon="11.535048778291937"><ele>134.0</ele><time>2026-04-19T14:40:14.999Z</time></trkpt><trkpt lat="43.57628976213518" lon="11.534737864511426"><ele>135.0</ele><time>2026-04-19T14:40:15.999Z</time></trkpt><trkpt lat="43.576501419084835" lon="11.534429234087881"><ele>135.0</ele><time>2026-04-19T14:40:16.999Z</time></trkpt><trkpt lat="43.57671399017699" lon="11.534118035512144"><ele>135.0</ele><time>2026-04-19T14:40:17.999Z</time></trkpt><trkpt lat="43.57692864603215" lon="11.533805060764353"><ele>135.0</ele><time>2026-04-19T14:40:18.999Z</time></trkpt><trkpt lat="43.5771442443342" lon="11.53348709944351"><ele>135.0</ele><time>2026-04-19T14:40:19.999Z</time></trkpt><trkpt lat="43.577360304687296" lon="11.53317030039397"><ele>134.0</ele><time>2026-04-19T14:40:20.999Z</time></trkpt><trkpt lat="43.57757808887519" lon="11.532858729585927"><ele>133.0</ele><time>2026-04-19T14:40:21.999Z</time></trkpt><trkpt lat="43.57779801542786" lon="11.53255626635555"><ele>133.0</ele><time>2026-04-19T14:40:22.999Z</time></trkpt><trkpt lat="43.57801684789369" lon="11.532256935711255"><ele>133.0</ele><time>2026-04-19T14:40:23.999Z</time></trkpt><trkpt lat="43.578235772520124" lon="11.531962422576255"><ele>132.5</ele><time>2026-04-19T14:40:24.999Z</time></trkpt><trkpt lat="43.57844984626023" lon="11.531664954174023"><ele>132.0</ele><time>2026-04-19T14:40:25.999Z</time></trkpt><trkpt lat="43.578655102299486" lon="11.531358635751493"><ele>132.0</ele><time>2026-04-19T14:40:26.999Z</time></trkpt><trkpt lat="43.57885157477137" lon="11.53104358589459"><ele>132.0</ele><time>2026-04-19T14:40:27.999Z</time></trkpt><trkpt lat="43.57903903268099" lon="11.53071928239915"><ele>131.0</ele><time>2026-04-19T14:40:28.999Z</time></trkpt><trkpt lat="43.5792191935302" lon="11.530386694879137"><ele>130.0</ele><time>2026-04-19T14:40:29.999Z</time></trkpt><trkpt lat="43.57939775713935" lon="11.53005332901746"><ele>130.0</ele><time>2026-04-19T14:40:30.999Z</time></trkpt><trkpt lat="43.579570855429914" lon="11.52971233966312"><ele>130.0</ele><time>2026-04-19T14:40:31.999Z</time></trkpt><trkpt lat="43.57973467161861" lon="11.529363689560528"><ele>130.0</ele><time>2026-04-19T14:40:32.999Z</time></trkpt><trkpt lat="43.57988892282403" lon="11.529007033042943"><ele>130.0</ele><time>2026-04-19T14:40:33.999Z</time></trkpt><trkpt lat="43.58003528290433" lon="11.528644322737064"><ele>130.0</ele><time>2026-04-19T14:40:34.999Z</time></trkpt><trkpt lat="43.580174698971035" lon="11.528276131833442"><ele>130.0</ele><time>2026-04-19T14:40:35.999Z</time></trkpt><trkpt lat="43.58030907679376" lon="11.52790332043234"><ele>130.5</ele><time>2026-04-19T14:40:36.999Z</time></trkpt><trkpt lat="43.5804361120344" lon="11.527523632756955"><ele>131.0</ele><time>2026-04-19T14:40:37.999Z</time></trkpt><trkpt lat="43.58055575397002" lon="11.527137887491877"><ele>130.5</ele><time>2026-04-19T14:40:38.999Z</time></trkpt><trkpt lat="43.58067487155418" lon="11.526750702734304"><ele>130.0</ele><time>2026-04-19T14:40:39.999Z</time></trkpt><trkpt lat="43.5807914265848" lon="11.526368590787962"><ele>130.0</ele><time>2026-04-19T14:40:40.999Z</time></trkpt><trkpt lat="43.58090939049566" lon="11.525985977564504"><ele>130.0</ele><time>2026-04-19T14:40:41.999Z</time></trkpt><trkpt lat="43.58102976311618" lon="11.525605443566699"><ele>129.5</ele><time>2026-04-19T14:40:42.999Z</time></trkpt><trkpt lat="43.58115187608376" lon="11.525225151513485"><ele>129.0</ele><time>2026-04-19T14:40:43.999Z</time></trkpt><trkpt lat="43.581273533776056" lon="11.524847545880558"><ele>129.0</ele><time>2026-04-19T14:40:44.999Z</time></trkpt><trkpt lat="43.58139490888252" lon="11.52447368531951"><ele>129.0</ele><time>2026-04-19T14:40:45.999Z</time></trkpt><trkpt lat="43.58152132498931" lon="11.524102445721777"><ele>129.0</ele><time>2026-04-19T14:40:46.999Z</time></trkpt><trkpt lat="43.58166232748777" lon="11.523741523776506"><ele>129.0</ele><time>2026-04-19T14:40:47.999Z</time></trkpt><trkpt lat="43.58181812487739" lon="11.523390195373835"><ele>129.5</ele><time>2026-04-19T14:40:48.999Z</time></trkpt><trkpt lat="43.581982877609775" lon="11.523048468144014"><ele>130.0</ele><time>2026-04-19T14:40:49.999Z</time></trkpt><trkpt lat="43.582158545787166" lon="11.522711284624402"><ele>129.0</ele><time>2026-04-19T14:40:50.999Z</time></trkpt><trkpt lat="43.582344168571616" lon="11.522387161332048"><ele>128.0</ele><time>2026-04-19T14:40:51.998Z</time></trkpt><trkpt lat="43.58254141214836" lon="11.522073846305421"><ele>128.5</ele><time>2026-04-19T14:40:52.998Z</time></trkpt><trkpt lat="43.58274805065355" lon="11.521769618193147"><ele>129.0</ele><time>2026-04-19T14:40:53.998Z</time></trkpt><trkpt lat="43.582966190406424" lon="11.521475053380971"><ele>128.5</ele><time>2026-04-19T14:40:54.998Z</time></trkpt><trkpt lat="43.58319291215739" lon="11.521190153832045"><ele>128.0</ele><time>2026-04-19T14:40:55.998Z</time></trkpt><trkpt lat="43.583427721428144" lon="11.520916730683696"><ele>128.0</ele><time>2026-04-19T14:40:56.998Z</time></trkpt><trkpt lat="43.583669089638704" lon="11.520652238567902"><ele>128.0</ele><time>2026-04-19T14:40:57.998Z</time></trkpt><trkpt lat="43.58391581766656" lon="11.520391724105082"><ele>129.0</ele><time>2026-04-19T14:40:58.998Z</time></trkpt><trkpt lat="43.58416294319201" lon="11.520131281848302"><ele>130.0</ele><time>2026-04-19T14:40:59.998Z</time></trkpt><trkpt lat="43.58440552389797" lon="11.519866903880393"><ele>130.0</ele><time>2026-04-19T14:41:00.998Z</time></trkpt><trkpt lat="43.58464667578823" lon="11.519599981918276"><ele>130.0</ele><time>2026-04-19T14:41:01.998Z</time></trkpt><trkpt lat="43.58488939124118" lon="11.519332268363522"><ele>130.0</ele><time>2026-04-19T14:41:02.998Z</time></trkpt><trkpt lat="43.585132406728874" lon="11.519064893002925"><ele>130.0</ele><time>2026-04-19T14:41:03.998Z</time></trkpt><trkpt lat="43.58537571365128" lon="11.518799018810766"><ele>130.0</ele><time>2026-04-19T14:41:04.998Z</time></trkpt><trkpt lat="43.58561881696134" lon="11.518532644027605"><ele>130.0</ele><time>2026-04-19T14:41:05.998Z</time></trkpt><trkpt lat="43.585860653885476" lon="11.51826663742678"><ele>130.0</ele><time>2026-04-19T14:41:06.998Z</time></trkpt><trkpt lat="43.58610108394624" lon="11.518002292214769"><ele>130.0</ele><time>2026-04-19T14:41:07.998Z</time></trkpt><trkpt lat="43.58633944438795" lon="11.517735299984285"><ele>129.5</ele><time>2026-04-19T14:41:08.998Z</time></trkpt><trkpt lat="43.586578025031706" lon="11.517468518993208"><ele>129.0</ele><time>2026-04-19T14:41:10Z</time></trkpt><trkpt lat="43.5868165570839" lon="11.51720526137124"><ele>130.0</ele><time>2026-04-19T14:41:11Z</time></trkpt><trkpt lat="43.58705668892023" lon="11.516941531299015"><ele>131.0</ele><time>2026-04-19T14:41:12Z</time></trkpt><trkpt lat="43.587297420140594" lon="11.516677656751428"><ele>131.0</ele><time>2026-04-19T14:41:13Z</time></trkpt><trkpt lat="43.587538803741545" lon="11.51641087429827"><ele>131.0</ele><time>2026-04-19T14:41:14Z</time></trkpt><trkpt lat="43.58777975663356" lon="11.516143745829275"><ele>131.0</ele><time>2026-04-19T14:41:15Z</time></trkpt><trkpt lat="43.58801926014706" lon="11.515875696815488"><ele>131.0</ele><time>2026-04-19T14:41:16Z</time></trkpt><trkpt lat="43.58826023992311" lon="11.515607901633382"><ele>131.0</ele><time>2026-04-19T14:41:17Z</time></trkpt><trkpt lat="43.58850268424037" lon="11.515343916115548"><ele>131.0</ele><time>2026-04-19T14:41:18Z</time></trkpt><trkpt lat="43.58874569664146" lon="11.515080808430495"><ele>131.0</ele><time>2026-04-19T14:41:19Z</time></trkpt><trkpt lat="43.588990333402805" lon="11.51481756830259"><ele>131.0</ele><time>2026-04-19T14:41:20Z</time></trkpt><trkpt lat="43.58923481160705" lon="11.51454899087355"><ele>130.5</ele><time>2026-04-19T14:41:21Z</time></trkpt><trkpt lat="43.589479950162534" lon="11.514277370354442"><ele>130.0</ele><time>2026-04-19T14:41:22Z</time></trkpt><trkpt lat="43.58972717709145" lon="11.514003513075563"><ele>129.5</ele><time>2026-04-19T14:41:23Z</time></trkpt><trkpt lat="43.58997294821882" lon="11.513731801393867"><ele>129.0</ele><time>2026-04-19T14:41:24Z</time></trkpt><trkpt lat="43.59022145398499" lon="11.513456523755188"><ele>129.5</ele><time>2026-04-19T14:41:25Z</time></trkpt><trkpt lat="43.59047157136427" lon="11.513182972604007"><ele>130.0</ele><time>2026-04-19T14:41:26Z</time></trkpt><trkpt lat="43.590721973164904" lon="11.51290744595204"><ele>130.0</ele><time>2026-04-19T14:41:27Z</time></trkpt><trkpt lat="43.590971383038756" lon="11.512625239406464"><ele>130.0</ele><time>2026-04-19T14:41:28Z</time></trkpt><trkpt lat="43.59122102610092" lon="11.51233683078508"><ele>129.0</ele><time>2026-04-19T14:41:29Z</time></trkpt><trkpt lat="43.59147115197161" lon="11.512040721732145"><ele>128.0</ele><time>2026-04-19T14:41:30Z</time></trkpt><trkpt lat="43.59172787254024" lon="11.511741999371601"><ele>128.0</ele><time>2026-04-19T14:41:31Z</time></trkpt><trkpt lat="43.59199285371469" lon="11.511441029124988"><ele>128.0</ele><time>2026-04-19T14:41:32Z</time></trkpt><trkpt lat="43.592263647839225" lon="11.51114290011927"><ele>128.0</ele><time>2026-04-19T14:41:33Z</time></trkpt><trkpt lat="43.59253666673418" lon="11.510849543340923"><ele>128.0</ele><time>2026-04-19T14:41:34Z</time></trkpt><trkpt lat="43.592809765472424" lon="11.510562659391889"><ele>128.5</ele><time>2026-04-19T14:41:35Z</time></trkpt><trkpt lat="43.593083654813334" lon="11.510279101075305"><ele>129.0</ele><time>2026-04-19T14:41:36Z</time></trkpt><trkpt lat="43.59335324463716" lon="11.510000494027638"><ele>129.0</ele><time>2026-04-19T14:41:37Z</time></trkpt><trkpt lat="43.59362083803607" lon="11.509719202037054"><ele>129.0</ele><time>2026-04-19T14:41:38Z</time></trkpt><trkpt lat="43.593885693526865" lon="11.509435558788011"><ele>129.0</ele><time>2026-04-19T14:41:39Z</time></trkpt><trkpt lat="43.594144249555825" lon="11.509153226679787"><ele>129.0</ele><time>2026-04-19T14:41:40Z</time></trkpt><trkpt lat="43.594400593977255" lon="11.508868470474567"><ele>129.5</ele><time>2026-04-19T14:41:41Z</time></trkpt><trkpt lat="43.59465839788109" lon="11.508585071205893"><ele>130.0</ele><time>2026-04-19T14:41:42Z</time></trkpt><trkpt lat="43.59491741564861" lon="11.508306378296194"><ele>130.0</ele><time>2026-04-19T14:41:43Z</time></trkpt><trkpt lat="43.595173398894985" lon="11.508029773603283"><ele>130.0</ele><time>2026-04-19T14:41:44Z</time></trkpt><trkpt lat="43.5954243141677" lon="11.507748395197739"><ele>130.0</ele><time>2026-04-19T14:41:45Z</time></trkpt><trkpt lat="43.5956742680664" lon="11.507469166544718"><ele>130.0</ele><time>2026-04-19T14:41:46Z</time></trkpt><trkpt lat="43.59592509328316" lon="11.507193288781446"><ele>129.5</ele><time>2026-04-19T14:41:47Z</time></trkpt><trkpt lat="43.596177846855866" lon="11.506916716273006"><ele>129.0</ele><time>2026-04-19T14:41:48Z</time></trkpt><trkpt lat="43.596430787383056" lon="11.506636856799828"><ele>129.0</ele><time>2026-04-19T14:41:49Z</time></trkpt><trkpt lat="43.59668607112726" lon="11.506357887776165"><ele>129.0</ele><time>2026-04-19T14:41:50Z</time></trkpt><trkpt lat="43.596941233231924" lon="11.506077713199542"><ele>129.0</ele><time>2026-04-19T14:41:51Z</time></trkpt><trkpt lat="43.597197046530844" lon="11.505795352338941"><ele>129.0</ele><time>2026-04-19T14:41:52Z</time></trkpt><trkpt lat="43.59745383377029" lon="11.505513000439068"><ele>129.0</ele><time>2026-04-19T14:41:53Z</time></trkpt><trkpt lat="43.59771148476411" lon="11.505232398810755"><ele>129.0</ele><time>2026-04-19T14:41:54Z</time></trkpt><trkpt lat="43.5979690050519" lon="11.504947736063786"><ele>129.0</ele><time>2026-04-19T14:41:55Z</time></trkpt><trkpt lat="43.59822801490722" lon="11.504665666136038"><ele>129.0</ele><time>2026-04-19T14:41:56Z</time></trkpt><trkpt lat="43.59848674828272" lon="11.504381058643135"><ele>128.5</ele><time>2026-04-19T14:41:57Z</time></trkpt><trkpt lat="43.59874431017765" lon="11.504094271052034"><ele>128.0</ele><time>2026-04-19T14:41:58Z</time></trkpt><trkpt lat="43.59900181204773" lon="11.503807566063317"><ele>127.5</ele><time>2026-04-19T14:41:59Z</time></trkpt><trkpt lat="43.599260970945906" lon="11.503521119040853"><ele>127.0</ele><time>2026-04-19T14:42:00Z</time></trkpt><trkpt lat="43.59952049501931" lon="11.503235044368676"><ele>127.0</ele><time>2026-04-19T14:42:01Z</time></trkpt><trkpt lat="43.59977968413415" lon="11.502954811152456"><ele>127.0</ele><time>2026-04-19T14:42:02Z</time></trkpt><trkpt lat="43.60004113971971" lon="11.502674751763108"><ele>127.0</ele><time>2026-04-19T14:42:03Z</time></trkpt><trkpt lat="43.600303505941824" lon="11.502397610547654"><ele>127.0</ele><time>2026-04-19T14:42:04Z</time></trkpt><trkpt lat="43.60056707650197" lon="11.502123441252557"><ele>126.0</ele><time>2026-04-19T14:42:05Z</time></trkpt><trkpt lat="43.600834526270425" lon="11.501853253966255"><ele>125.0</ele><time>2026-04-19T14:42:06Z</time></trkpt><trkpt lat="43.60110461631462" lon="11.501585525197747"><ele>126.0</ele><time>2026-04-19T14:42:07Z</time></trkpt><trkpt lat="43.60137706418742" lon="11.501321071229906"><ele>127.0</ele><time>2026-04-19T14:42:08Z</time></trkpt><trkpt lat="43.601649687830566" lon="11.501059270778592"><ele>126.5</ele><time>2026-04-19T14:42:09Z</time></trkpt><trkpt lat="43.60192205205268" lon="11.500798335885483"><ele>126.0</ele><time>2026-04-19T14:42:10Z</time></trkpt><trkpt lat="43.60219400490756" lon="11.500540546960549"><ele>125.0</ele><time>2026-04-19T14:42:11Z</time></trkpt><trkpt lat="43.60246782614056" lon="11.500288194856058"><ele>124.0</ele><time>2026-04-19T14:42:12Z</time></trkpt><trkpt lat="43.60274405983426" lon="11.500041964091242"><ele>125.0</ele><time>2026-04-19T14:42:13Z</time></trkpt><trkpt lat="43.6030191543153" lon="11.4998034238017"><ele>126.0</ele><time>2026-04-19T14:42:14Z</time></trkpt><trkpt lat="43.603290486713995" lon="11.499569534577596"><ele>126.0</ele><time>2026-04-19T14:42:15Z</time></trkpt><trkpt lat="43.603558445899125" lon="11.499339500065307"><ele>126.0</ele><time>2026-04-19T14:42:15.999Z</time></trkpt><trkpt lat="43.60382138694819" lon="11.499106578561383"><ele>126.5</ele><time>2026-04-19T14:42:16.999Z</time></trkpt><trkpt lat="43.6040772468278" lon="11.498876208805802"><ele>127.0</ele><time>2026-04-19T14:42:17.999Z</time></trkpt><trkpt lat="43.60432814711407" lon="11.498652820568855"><ele>127.0</ele><time>2026-04-19T14:42:18.999Z</time></trkpt><trkpt lat="43.60456922536704" lon="11.498441785418933"><ele>127.0</ele><time>2026-04-19T14:42:19.999Z</time></trkpt><trkpt lat="43.604807781549596" lon="11.498232181145092"><ele>127.0</ele><time>2026-04-19T14:42:20.999Z</time></trkpt><trkpt lat="43.60504730853282" lon="11.498023285173307"><ele>127.0</ele><time>2026-04-19T14:42:21.999Z</time></trkpt><trkpt lat="43.605285224691485" lon="11.497815434572546"><ele>126.5</ele><time>2026-04-19T14:42:22.999Z</time></trkpt><trkpt lat="43.605520100929056" lon="11.497608013490757"><ele>126.0</ele><time>2026-04-19T14:42:23.999Z</time></trkpt><trkpt lat="43.605752750360516" lon="11.497396911408629"><ele>126.0</ele><time>2026-04-19T14:42:24.999Z</time></trkpt><trkpt lat="43.60598360787938" lon="11.497190317741763"><ele>126.0</ele><time>2026-04-19T14:42:25.999Z</time></trkpt><trkpt lat="43.60621375750649" lon="11.49698587296958"><ele>126.0</ele><time>2026-04-19T14:42:26.999Z</time></trkpt><trkpt lat="43.606439230943906" lon="11.49678620798749"><ele>126.0</ele><time>2026-04-19T14:42:27.999Z</time></trkpt><trkpt lat="43.606654009581575" lon="11.496595790618988"><ele>126.0</ele><time>2026-04-19T14:42:28.998Z</time></trkpt><trkpt lat="43.60686069088401" lon="11.496414974258256"><ele>126.0</ele><time>2026-04-19T14:42:29.998Z</time></trkpt><trkpt lat="43.60706064866543" lon="11.496238086473637"><ele>125.5</ele><time>2026-04-19T14:42:30.998Z</time></trkpt><trkpt lat="43.60726236278384" lon="11.49605408349902"><ele>125.0</ele><time>2026-04-19T14:42:31.998Z</time></trkpt><trkpt lat="43.607466433846746" lon="11.49585215647282"><ele>125.0</ele><time>2026-04-19T14:42:32.998Z</time></trkpt><trkpt lat="43.607676874888284" lon="11.495643078109627"><ele>125.0</ele><time>2026-04-19T14:42:33.998Z</time></trkpt><trkpt lat="43.60789926384986" lon="11.495426639722867"><ele>125.0</ele><time>2026-04-19T14:42:34.998Z</time></trkpt><trkpt lat="43.60813765014919" lon="11.495213630758954"><ele>125.0</ele><time>2026-04-19T14:42:35.998Z</time></trkpt><trkpt lat="43.608386344916276" lon="11.49499384689171"><ele>125.0</ele><time>2026-04-19T14:42:36.998Z</time></trkpt><trkpt lat="43.60864185193489" lon="11.494768695574182"><ele>125.0</ele><time>2026-04-19T14:42:37.998Z</time></trkpt><trkpt lat="43.60890339053179" lon="11.494539290869907"><ele>124.5</ele><time>2026-04-19T14:42:38.998Z</time></trkpt><trkpt lat="43.609165643266" lon="11.494310066215395"><ele>124.0</ele><time>2026-04-19T14:42:39.998Z</time></trkpt><trkpt lat="43.60943267074093" lon="11.494086646195202"><ele>124.0</ele><time>2026-04-19T14:42:40.998Z</time></trkpt><trkpt lat="43.6097009598767" lon="11.493869790725414"><ele>124.0</ele><time>2026-04-19T14:42:41.998Z</time></trkpt><trkpt lat="43.609967681921894" lon="11.493655608628384"><ele>124.0</ele><time>2026-04-19T14:42:42.998Z</time></trkpt><trkpt lat="43.61022805018303" lon="11.493437521584024"><ele>124.0</ele><time>2026-04-19T14:42:43.998Z</time></trkpt><trkpt lat="43.61048423106221" lon="11.493214610747522"><ele>123.5</ele><time>2026-04-19T14:42:44.998Z</time></trkpt><trkpt lat="43.61073816376006" lon="11.492988624076984"><ele>123.0</ele><time>2026-04-19T14:42:45.998Z</time></trkpt><trkpt lat="43.6109907115823" lon="11.492765394165076"><ele>124.0</ele><time>2026-04-19T14:42:46.998Z</time></trkpt><trkpt lat="43.61124042209727" lon="11.492542914606943"><ele>125.0</ele><time>2026-04-19T14:42:47.998Z</time></trkpt><trkpt lat="43.61148936142943" lon="11.492321639715518"><ele>125.0</ele><time>2026-04-19T14:42:48.998Z</time></trkpt><trkpt lat="43.61173881519352" lon="11.492102429740541"><ele>125.0</ele><time>2026-04-19T14:42:49.998Z</time></trkpt><trkpt lat="43.61199308542377" lon="11.49188003473549"><ele>125.5</ele><time>2026-04-19T14:42:50.998Z</time></trkpt><trkpt lat="43.61224612532766" lon="11.491653260341787"><ele>126.0</ele><time>2026-04-19T14:42:51.998Z</time></trkpt><trkpt lat="43.61250200164814" lon="11.49142696489304"><ele>126.0</ele><time>2026-04-19T14:42:52.998Z</time></trkpt><trkpt lat="43.612758882894866" lon="11.491200278453393"><ele>126.0</ele><time>2026-04-19T14:42:53.998Z</time></trkpt><trkpt lat="43.61301496444786" lon="11.490974817392292"><ele>126.0</ele><time>2026-04-19T14:42:54.998Z</time></trkpt><trkpt lat="43.61326938886496" lon="11.49074847239433"><ele>126.0</ele><time>2026-04-19T14:42:55.998Z</time></trkpt><trkpt lat="43.61352130088992" lon="11.490524370643167"><ele>125.0</ele><time>2026-04-19T14:42:56.998Z</time></trkpt><trkpt lat="43.61377386880816" lon="11.490299950315771"><ele>124.0</ele><time>2026-04-19T14:42:57.998Z</time></trkpt><trkpt lat="43.614025271561495" lon="11.49007653638827"><ele>124.0</ele><time>2026-04-19T14:42:58.998Z</time></trkpt><trkpt lat="43.61427645524641" lon="11.48985368065825"><ele>124.0</ele><time>2026-04-19T14:42:59.998Z</time></trkpt><trkpt lat="43.614527593427894" lon="11.489636037527346"><ele>124.0</ele><time>2026-04-19T14:43:00.998Z</time></trkpt><trkpt lat="43.614777730688424" lon="11.489415112376365"><ele>124.0</ele><time>2026-04-19T14:43:01.998Z</time></trkpt><trkpt lat="43.61502732693677" lon="11.489193255062625"><ele>124.0</ele><time>2026-04-19T14:43:02.998Z</time></trkpt><trkpt lat="43.615276403344986" lon="11.488971314138453"><ele>124.0</ele><time>2026-04-19T14:43:03.998Z</time></trkpt><trkpt lat="43.61552653695387" lon="11.488749360271822"><ele>125.0</ele><time>2026-04-19T14:43:04.998Z</time></trkpt><trkpt lat="43.615777758791374" lon="11.488528319934046"><ele>126.0</ele><time>2026-04-19T14:43:05.998Z</time></trkpt><trkpt lat="43.61602877222033" lon="11.488306778262782"><ele>125.5</ele><time>2026-04-19T14:43:06.998Z</time></trkpt><trkpt lat="43.61627931083455" lon="11.488083540641084"><ele>125.0</ele><time>2026-04-19T14:43:07.997Z</time></trkpt><trkpt lat="43.61652771290735" lon="11.48786111697973"><ele>125.0</ele><time>2026-04-19T14:43:08.997Z</time></trkpt><trkpt lat="43.61677532654388" lon="11.487639430067087"><ele>125.0</ele><time>2026-04-19T14:43:09.997Z</time></trkpt><trkpt lat="43.617022227646835" lon="11.487415922456934"><ele>124.5</ele><time>2026-04-19T14:43:10.997Z</time></trkpt><trkpt lat="43.61726681070615" lon="11.487188481095274"><ele>124.0</ele><time>2026-04-19T14:43:11.997Z</time></trkpt><trkpt lat="43.617509158059676" lon="11.486958646252306"><ele>124.0</ele><time>2026-04-19T14:43:12.997Z</time></trkpt><trkpt lat="43.61775134466324" lon="11.486726571945416"><ele>124.0</ele><time>2026-04-19T14:43:13.997Z</time></trkpt><trkpt lat="43.61799590797599" lon="11.486492980673884"><ele>124.5</ele><time>2026-04-19T14:43:15Z</time></trkpt><trkpt lat="43.618242450937686" lon="11.486267324182302"><ele>125.0</ele><time>2026-04-19T14:43:16Z</time></trkpt><trkpt lat="43.61849174480475" lon="11.486045278397077"><ele>124.5</ele><time>2026-04-19T14:43:17Z</time></trkpt><trkpt lat="43.61874073327332" lon="11.485825489193846"><ele>124.0</ele><time>2026-04-19T14:43:18Z</time></trkpt><trkpt lat="43.618989646551384" lon="11.485607056734137"><ele>124.0</ele><time>2026-04-19T14:43:19Z</time></trkpt><trkpt lat="43.619238603547956" lon="11.485393098004874"><ele>124.0</ele><time>2026-04-19T14:43:20Z</time></trkpt><trkpt lat="43.61949069394803" lon="11.485182266151018"><ele>124.0</ele><time>2026-04-19T14:43:21Z</time></trkpt><trkpt lat="43.61974481151533" lon="11.484975031540438"><ele>124.0</ele><time>2026-04-19T14:43:22Z</time></trkpt><trkpt lat="43.61999944565964" lon="11.484769426961176"><ele>124.0</ele><time>2026-04-19T14:43:23Z</time></trkpt><trkpt lat="43.62025384276886" lon="11.484560066946432"><ele>124.0</ele><time>2026-04-19T14:43:24Z</time></trkpt><trkpt lat="43.620504342354224" lon="11.484344297071043"><ele>124.0</ele><time>2026-04-19T14:43:25Z</time></trkpt><trkpt lat="43.62075253218541" lon="11.48412303197308"><ele>124.0</ele><time>2026-04-19T14:43:26Z</time></trkpt><trkpt lat="43.62099978025086" lon="11.483902593407151"><ele>124.0</ele><time>2026-04-19T14:43:27Z</time></trkpt><trkpt lat="43.62124670115723" lon="11.483680874452027"><ele>124.0</ele><time>2026-04-19T14:43:28Z</time></trkpt><trkpt lat="43.621492465678365" lon="11.483454938873706"><ele>124.0</ele><time>2026-04-19T14:43:29Z</time></trkpt><trkpt lat="43.62173515687329" lon="11.483223192095446"><ele>124.0</ele><time>2026-04-19T14:43:30Z</time></trkpt><trkpt lat="43.62197428416426" lon="11.482988631682192"><ele>124.5</ele><time>2026-04-19T14:43:31Z</time></trkpt><trkpt lat="43.622210065073034" lon="11.482756389220858"><ele>125.0</ele><time>2026-04-19T14:43:32Z</time></trkpt><trkpt lat="43.62244058569286" lon="11.48252107230413"><ele>125.0</ele><time>2026-04-19T14:43:33Z</time></trkpt><trkpt lat="43.62266228779774" lon="11.482291984187286"><ele>125.0</ele><time>2026-04-19T14:43:34Z</time></trkpt><trkpt lat="43.62287562042198" lon="11.482067936920362"><ele>125.5</ele><time>2026-04-19T14:43:34.999Z</time></trkpt><trkpt lat="43.62308089401223" lon="11.481848907930628"><ele>126.0</ele><time>2026-04-19T14:43:35.999Z</time></trkpt><trkpt lat="43.62328125222756" lon="11.48163015861307"><ele>126.0</ele><time>2026-04-19T14:43:36.999Z</time></trkpt><trkpt lat="43.623479104504156" lon="11.481410735618818"><ele>126.0</ele><time>2026-04-19T14:43:37.999Z</time></trkpt><trkpt lat="43.62367600536872" lon="11.481197237522462"><ele>126.0</ele><time>2026-04-19T14:43:38.999Z</time></trkpt><trkpt lat="43.62387101683286" lon="11.48098590162721"><ele>126.0</ele><time>2026-04-19T14:43:39.999Z</time></trkpt><trkpt lat="43.624061669865604" lon="11.48077324144152"><ele>126.0</ele><time>2026-04-19T14:43:40.999Z</time></trkpt><trkpt lat="43.624252311094885" lon="11.480557933146708"><ele>126.0</ele><time>2026-04-19T14:43:41.999Z</time></trkpt><trkpt lat="43.624442899912644" lon="11.48034721885791"><ele>125.5</ele><time>2026-04-19T14:43:42.999Z</time></trkpt><trkpt lat="43.6246349954754" lon="11.480138966483027"><ele>125.0</ele><time>2026-04-19T14:43:43.999Z</time></trkpt><trkpt lat="43.624828559661886" lon="11.479928477708187"><ele>125.0</ele><time>2026-04-19T14:43:44.999Z</time></trkpt><trkpt lat="43.625020654790575" lon="11.479717431828021"><ele>125.0</ele><time>2026-04-19T14:43:45.999Z</time></trkpt><trkpt lat="43.625212838255166" lon="11.479507794514802"><ele>125.0</ele><time>2026-04-19T14:43:46.999Z</time></trkpt><trkpt lat="43.62540431313224" lon="11.479297898487003"><ele>125.0</ele><time>2026-04-19T14:43:47.999Z</time></trkpt><trkpt lat="43.62559579520814" lon="11.479088639682073"><ele>125.0</ele><time>2026-04-19T14:43:48.999Z</time></trkpt><trkpt lat="43.62578477016613" lon="11.478879369641193"><ele>125.0</ele><time>2026-04-19T14:43:49.999Z</time></trkpt><trkpt lat="43.625974162020384" lon="11.478670194415548"><ele>125.5</ele><time>2026-04-19T14:43:50.999Z</time></trkpt><trkpt lat="43.62616259099631" lon="11.478465362122709"><ele>126.0</ele><time>2026-04-19T14:43:51.999Z</time></trkpt><trkpt lat="43.626350101760245" lon="11.478258615054246"><ele>126.0</ele><time>2026-04-19T14:43:52.999Z</time></trkpt><trkpt lat="43.62653667697272" lon="11.47805126697047"><ele>126.0</ele><time>2026-04-19T14:43:53.999Z</time></trkpt><trkpt lat="43.626722303489565" lon="11.477844141706473"><ele>125.5</ele><time>2026-04-19T14:43:54.999Z</time></trkpt><trkpt lat="43.62691081698985" lon="11.47763673446505"><ele>125.0</ele><time>2026-04-19T14:43:55.999Z</time></trkpt><trkpt lat="43.62710149295927" lon="11.477429729010941"><ele>125.0</ele><time>2026-04-19T14:43:56.999Z</time></trkpt><trkpt lat="43.62729404935399" lon="11.477220982322912"><ele>125.0</ele><time>2026-04-19T14:43:57.999Z</time></trkpt><trkpt lat="43.62748747765082" lon="11.477011956102682"><ele>125.0</ele><time>2026-04-19T14:43:58.999Z</time></trkpt><trkpt lat="43.62768190743859" lon="11.47680146679646"><ele>125.0</ele><time>2026-04-19T14:43:59.999Z</time></trkpt><trkpt lat="43.62787687282903" lon="11.47658876168418"><ele>125.0</ele><time>2026-04-19T14:44:00.999Z</time></trkpt><trkpt lat="43.628071719038395" lon="11.476374115010781"><ele>125.0</ele><time>2026-04-19T14:44:01.999Z</time></trkpt><trkpt lat="43.628265447725965" lon="11.476161149259775"><ele>124.5</ele><time>2026-04-19T14:44:02.999Z</time></trkpt><trkpt lat="43.62845936833711" lon="11.475947957077741"><ele>124.0</ele><time>2026-04-19T14:44:03.999Z</time></trkpt><trkpt lat="43.62865409251843" lon="11.475734693912877"><ele>124.0</ele><time>2026-04-19T14:44:04.999Z</time></trkpt><trkpt lat="43.62884856466648" lon="11.475520778383938"><ele>124.0</ele><time>2026-04-19T14:44:05.999Z</time></trkpt><trkpt lat="43.629043670772525" lon="11.475305283752846"><ele>124.0</ele><time>2026-04-19T14:44:06.999Z</time></trkpt><trkpt lat="43.629239099179145" lon="11.475090210050945"><ele>124.0</ele><time>2026-04-19T14:44:07.999Z</time></trkpt><trkpt lat="43.62943564871071" lon="11.47487455179247"><ele>124.5</ele><time>2026-04-19T14:44:08.999Z</time></trkpt><trkpt lat="43.62963336177784" lon="11.474659651904105"><ele>125.0</ele><time>2026-04-19T14:44:09.999Z</time></trkpt><trkpt lat="43.62983095871268" lon="11.474444455036757"><ele>125.0</ele><time>2026-04-19T14:44:10.999Z</time></trkpt><trkpt lat="43.63002899863613" lon="11.474226859344945"><ele>125.0</ele><time>2026-04-19T14:44:11.999Z</time></trkpt><trkpt lat="43.63022720884376" lon="11.4740098353231"><ele>124.5</ele><time>2026-04-19T14:44:12.999Z</time></trkpt><trkpt lat="43.630425635373044" lon="11.473792101673075"><ele>124.0</ele><time>2026-04-19T14:44:13.999Z</time></trkpt><trkpt lat="43.630625538712295" lon="11.473572456464133"><ele>123.5</ele><time>2026-04-19T14:44:14.999Z</time></trkpt><trkpt lat="43.63082679684791" lon="11.47335153076919"><ele>123.0</ele><time>2026-04-19T14:44:15.999Z</time></trkpt><trkpt lat="43.631026736420644" lon="11.473130889185814"><ele>123.0</ele><time>2026-04-19T14:44:16.999Z</time></trkpt><trkpt lat="43.63122687083813" lon="11.472907979341237"><ele>123.0</ele><time>2026-04-19T14:44:17.999Z</time></trkpt><trkpt lat="43.631426614475934" lon="11.472687645637501"><ele>123.0</ele><time>2026-04-19T14:44:18.999Z</time></trkpt><trkpt lat="43.631624827225416" lon="11.472463891336355"><ele>123.0</ele><time>2026-04-19T14:44:19.999Z</time></trkpt><trkpt lat="43.631822642504495" lon="11.472240838220996"><ele>123.0</ele><time>2026-04-19T14:44:20.999Z</time></trkpt><trkpt lat="43.63202107750466" lon="11.4720200232018"><ele>123.0</ele><time>2026-04-19T14:44:21.999Z</time></trkpt><trkpt lat="43.63222099526069" lon="11.471801906887542"><ele>123.0</ele><time>2026-04-19T14:44:22.999Z</time></trkpt><trkpt lat="43.632421435371505" lon="11.471586562874196"><ele>123.0</ele><time>2026-04-19T14:44:23.999Z</time></trkpt><trkpt lat="43.63262226739185" lon="11.471371508929082"><ele>123.5</ele><time>2026-04-19T14:44:24.998Z</time></trkpt><trkpt lat="43.63282299691722" lon="11.471157036071492"><ele>124.0</ele><time>2026-04-19T14:44:25.998Z</time></trkpt><trkpt lat="43.63302243697317" lon="11.470941919390318"><ele>124.0</ele><time>2026-04-19T14:44:26.998Z</time></trkpt><trkpt lat="43.63322077505915" lon="11.470721287190132"><ele>124.0</ele><time>2026-04-19T14:44:27.998Z</time></trkpt><trkpt lat="43.633419166285684" lon="11.4704996772801"><ele>124.5</ele><time>2026-04-19T14:44:28.998Z</time></trkpt><trkpt lat="43.63361871493603" lon="11.470279473845155"><ele>125.0</ele><time>2026-04-19T14:44:29.998Z</time></trkpt><trkpt lat="43.633819891889246" lon="11.470061711504785"><ele>125.0</ele><time>2026-04-19T14:44:30.998Z</time></trkpt><trkpt lat="43.63402142811286" lon="11.469841933977206"><ele>125.0</ele><time>2026-04-19T14:44:31.998Z</time></trkpt><trkpt lat="43.634222279108165" lon="11.46961921525489"><ele>124.0</ele><time>2026-04-19T14:44:32.998Z</time></trkpt><trkpt lat="43.6344228266949" lon="11.469394694027777"><ele>123.0</ele><time>2026-04-19T14:44:33.998Z</time></trkpt><trkpt lat="43.63462366041635" lon="11.469173726535896"><ele>123.0</ele><time>2026-04-19T14:44:34.998Z</time></trkpt><trkpt lat="43.63482462950618" lon="11.468954376455619"><ele>123.0</ele><time>2026-04-19T14:44:35.998Z</time></trkpt><trkpt lat="43.63502552824994" lon="11.46873624639933"><ele>122.5</ele><time>2026-04-19T14:44:36.998Z</time></trkpt><trkpt lat="43.63522707718857" lon="11.468517415629098"><ele>122.0</ele><time>2026-04-19T14:44:37.998Z</time></trkpt><trkpt lat="43.63542899813508" lon="11.46829385203429"><ele>122.0</ele><time>2026-04-19T14:44:38.998Z</time></trkpt><trkpt lat="43.63563041728486" lon="11.468072195979213"><ele>122.0</ele><time>2026-04-19T14:44:39.998Z</time></trkpt><trkpt lat="43.63583088189186" lon="11.467851160103923"><ele>121.0</ele><time>2026-04-19T14:44:40.998Z</time></trkpt><trkpt lat="43.63603311075938" lon="11.467629682275053"><ele>120.0</ele><time>2026-04-19T14:44:41.998Z</time></trkpt><trkpt lat="43.63623937847836" lon="11.467413261564648"><ele>120.0</ele><time>2026-04-19T14:44:42.998Z</time></trkpt><trkpt lat="43.636450385027" lon="11.467209746119686"><ele>120.0</ele><time>2026-04-19T14:44:43.998Z</time></trkpt><trkpt lat="43.636668105482165" lon="11.467018875772554"><ele>120.0</ele><time>2026-04-19T14:44:44.998Z</time></trkpt><trkpt lat="43.6368935304422" lon="11.466845816601218"><ele>120.0</ele><time>2026-04-19T14:44:45.998Z</time></trkpt><trkpt lat="43.63712605591135" lon="11.466686868587933"><ele>120.0</ele><time>2026-04-19T14:44:46.998Z</time></trkpt><trkpt lat="43.63736384085626" lon="11.466544430233702"><ele>120.0</ele><time>2026-04-19T14:44:47.998Z</time></trkpt><trkpt lat="43.63760581372159" lon="11.466413893661633"><ele>119.5</ele><time>2026-04-19T14:44:48.998Z</time></trkpt><trkpt lat="43.637852716264945" lon="11.466299091084057"><ele>119.0</ele><time>2026-04-19T14:44:49.998Z</time></trkpt><trkpt lat="43.63810379809627" lon="11.466203294621128"><ele>119.0</ele><time>2026-04-19T14:44:50.998Z</time></trkpt><trkpt lat="43.63835755621871" lon="11.466125267239473"><ele>119.0</ele><time>2026-04-19T14:44:51.998Z</time></trkpt><trkpt lat="43.638614431664" lon="11.466064859065233"><ele>120.0</ele><time>2026-04-19T14:44:52.998Z</time></trkpt><trkpt lat="43.6388749549853" lon="11.46602405025591"><ele>121.0</ele><time>2026-04-19T14:44:53.998Z</time></trkpt><trkpt lat="43.63913477701301" lon="11.465992385977012"><ele>121.0</ele><time>2026-04-19T14:44:54.998Z</time></trkpt><trkpt lat="43.639398896266755" lon="11.465978182079782"><ele>121.0</ele><time>2026-04-19T14:44:55.998Z</time></trkpt><trkpt lat="43.63965894522124" lon="11.465977816168289"><ele>122.5</ele><time>2026-04-19T14:44:56.998Z</time></trkpt><trkpt lat="43.639918748981586" lon="11.465985681216166"><ele>124.0</ele><time>2026-04-19T14:44:57.998Z</time></trkpt><trkpt lat="43.64017849993941" lon="11.465987574589299"><ele>124.5</ele><time>2026-04-19T14:44:58.998Z</time></trkpt><trkpt lat="43.64043763187127" lon="11.465982383358936"><ele>125.0</ele><time>2026-04-19T14:44:59.998Z</time></trkpt><trkpt lat="43.640696469780394" lon="11.465976708329181"><ele>125.0</ele><time>2026-04-19T14:45:00.998Z</time></trkpt><trkpt lat="43.64095425236287" lon="11.46597123663486"><ele>125.0</ele><time>2026-04-19T14:45:01.998Z</time></trkpt><trkpt lat="43.64120960990532" lon="11.465958145282675"><ele>124.5</ele><time>2026-04-19T14:45:02.998Z</time></trkpt><trkpt lat="43.64147013810826" lon="11.465944562253053"><ele>124.0</ele><time>2026-04-19T14:45:03.998Z</time></trkpt><trkpt lat="43.641731105919945" lon="11.465930300838657"><ele>124.5</ele><time>2026-04-19T14:45:04.998Z</time></trkpt><trkpt lat="43.641989584564385" lon="11.46592141572459"><ele>125.0</ele><time>2026-04-19T14:45:05.998Z</time></trkpt><trkpt lat="43.64224732572143" lon="11.465914488587051"><ele>125.0</ele><time>2026-04-19T14:45:06.998Z</time></trkpt><trkpt lat="43.64250281511878" lon="11.46590676956207"><ele>125.0</ele><time>2026-04-19T14:45:07.998Z</time></trkpt><trkpt lat="43.64275688542621" lon="11.465896830974872"><ele>125.5</ele><time>2026-04-19T14:45:08.998Z</time></trkpt><trkpt lat="43.64300798153851" lon="11.465888102712182"><ele>126.0</ele><time>2026-04-19T14:45:09.998Z</time></trkpt><trkpt lat="43.64325743603907" lon="11.465885043365033"><ele>126.0</ele><time>2026-04-19T14:45:10.998Z</time></trkpt><trkpt lat="43.643505446211705" lon="11.465882246810146"><ele>126.0</ele><time>2026-04-19T14:45:11.998Z</time></trkpt><trkpt lat="43.64375287789724" lon="11.465878589006824"><ele>126.0</ele><time>2026-04-19T14:45:12.998Z</time></trkpt><trkpt lat="43.64399935885018" lon="11.465872992984043"><ele>126.0</ele><time>2026-04-19T14:45:13.998Z</time></trkpt><trkpt lat="43.644246228482714" lon="11.465867197696786"><ele>126.0</ele><time>2026-04-19T14:45:14.998Z</time></trkpt><trkpt lat="43.64449318048849" lon="11.46586435360354"><ele>126.0</ele><time>2026-04-19T14:45:15.998Z</time></trkpt><trkpt lat="43.644740334803345" lon="11.46586033671155"><ele>126.0</ele><time>2026-04-19T14:45:16.997Z</time></trkpt><trkpt lat="43.64498708872612" lon="11.465850739236656"><ele>126.0</ele><time>2026-04-19T14:45:17.997Z</time></trkpt><trkpt lat="43.6452342752788" lon="11.46584257995109"><ele>127.0</ele><time>2026-04-19T14:45:18.997Z</time></trkpt><trkpt lat="43.64548208816101" lon="11.465834216301978"><ele>128.0</ele><time>2026-04-19T14:45:19.997Z</time></trkpt><trkpt lat="43.64572855748924" lon="11.465828691922178"><ele>128.0</ele><time>2026-04-19T14:45:21Z</time></trkpt><trkpt lat="43.64597508605863" lon="11.465823043808058"><ele>128.0</ele><time>2026-04-19T14:45:22Z</time></trkpt><trkpt lat="43.64622391272354" lon="11.465817160735543"><ele>127.5</ele><time>2026-04-19T14:45:23Z</time></trkpt><trkpt lat="43.64647046057012" lon="11.465811402372376"><ele>127.0</ele><time>2026-04-19T14:45:24Z</time></trkpt><trkpt lat="43.64672016970812" lon="11.4658068598503"><ele>127.0</ele><time>2026-04-19T14:45:25Z</time></trkpt><trkpt lat="43.64697089584824" lon="11.465800739790481"><ele>127.0</ele><time>2026-04-19T14:45:26Z</time></trkpt><trkpt lat="43.64722215647013" lon="11.465795225896358"><ele>127.0</ele><time>2026-04-19T14:45:27Z</time></trkpt><trkpt lat="43.647472693889256" lon="11.465791239392857"><ele>127.0</ele><time>2026-04-19T14:45:28Z</time></trkpt><trkpt lat="43.64772471810269" lon="11.465785182560522"><ele>127.0</ele><time>2026-04-19T14:45:29Z</time></trkpt><trkpt lat="43.647978377059005" lon="11.465776566328225"><ele>127.0</ele><time>2026-04-19T14:45:30Z</time></trkpt><trkpt lat="43.64823272702674" lon="11.465768053270942"><ele>127.0</ele><time>2026-04-19T14:45:31Z</time></trkpt><trkpt lat="43.64848631682879" lon="11.465760435604661"><ele>127.0</ele><time>2026-04-19T14:45:32Z</time></trkpt><trkpt lat="43.64874116044852" lon="11.465755506697153"><ele>128.0</ele><time>2026-04-19T14:45:33Z</time></trkpt><trkpt lat="43.64899508149428" lon="11.465751504649388"><ele>129.0</ele><time>2026-04-19T14:45:34Z</time></trkpt><trkpt lat="43.64925037126011" lon="11.465746717718295"><ele>131.0</ele><time>2026-04-19T14:45:35Z</time></trkpt><trkpt lat="43.64950412367584" lon="11.465741874678043"><ele>133.0</ele><time>2026-04-19T14:45:36Z</time></trkpt><trkpt lat="43.649759181482054" lon="11.465734980950774"><ele>133.0</ele><time>2026-04-19T14:45:37Z</time></trkpt><trkpt lat="43.650012506457315" lon="11.465730273664885"><ele>133.0</ele><time>2026-04-19T14:45:38Z</time></trkpt><trkpt lat="43.650265510701004" lon="11.465726393543214"><ele>135.0</ele><time>2026-04-19T14:45:39Z</time></trkpt><trkpt lat="43.65051754967433" lon="11.46572220960762"><ele>137.0</ele><time>2026-04-19T14:45:40Z</time></trkpt><trkpt lat="43.65077010298586" lon="11.465716470393168"><ele>137.0</ele><time>2026-04-19T14:45:41Z</time></trkpt><trkpt lat="43.65102212267474" lon="11.465708374371923"><ele>137.0</ele><time>2026-04-19T14:45:42Z</time></trkpt><trkpt lat="43.6512730256344" lon="11.465699096000073"><ele>138.0</ele><time>2026-04-19T14:45:43Z</time></trkpt><trkpt lat="43.65152391482515" lon="11.465688969377972"><ele>139.0</ele><time>2026-04-19T14:45:44Z</time></trkpt><trkpt lat="43.65177129278394" lon="11.465681930398866"><ele>139.5</ele><time>2026-04-19T14:45:45Z</time></trkpt><trkpt lat="43.65201879725584" lon="11.465676761517347"><ele>140.0</ele><time>2026-04-19T14:45:46Z</time></trkpt><trkpt lat="43.65226396955465" lon="11.465672014680589"><ele>140.0</ele><time>2026-04-19T14:45:47Z</time></trkpt><trkpt lat="43.6525102582701" lon="11.46566426743303"><ele>140.0</ele><time>2026-04-19T14:45:48Z</time></trkpt><trkpt lat="43.6527551039974" lon="11.465657039552102"><ele>139.5</ele><time>2026-04-19T14:45:48.999Z</time></trkpt><trkpt lat="43.65300251975747" lon="11.465648486139665"><ele>139.0</ele><time>2026-04-19T14:45:49.999Z</time></trkpt><trkpt lat="43.65324994264124" lon="11.46564090820873"><ele>139.0</ele><time>2026-04-19T14:45:50.999Z</time></trkpt><trkpt lat="43.653497614496985" lon="11.465634858698794"><ele>139.0</ele><time>2026-04-19T14:45:51.999Z</time></trkpt><trkpt lat="43.65374843024782" lon="11.465631022897254"><ele>139.5</ele><time>2026-04-19T14:45:52.999Z</time></trkpt><trkpt lat="43.65400080114023" lon="11.465627482842008"><ele>140.0</ele><time>2026-04-19T14:45:53.999Z</time></trkpt><trkpt lat="43.654254916685694" lon="11.465623750544507"><ele>139.5</ele><time>2026-04-19T14:45:54.999Z</time></trkpt><trkpt lat="43.654510396970636" lon="11.465618161448242"><ele>139.0</ele><time>2026-04-19T14:45:55.999Z</time></trkpt><trkpt lat="43.65476752886462" lon="11.46561096768586"><ele>139.0</ele><time>2026-04-19T14:45:56.999Z</time></trkpt><trkpt lat="43.65502299960621" lon="11.465603149347265"><ele>139.0</ele><time>2026-04-19T14:45:57.999Z</time></trkpt><trkpt lat="43.655281131066644" lon="11.465593333836544"><ele>138.5</ele><time>2026-04-19T14:45:58.999Z</time></trkpt><trkpt lat="43.65553903442798" lon="11.465578513513398"><ele>138.0</ele><time>2026-04-19T14:45:59.999Z</time></trkpt><trkpt lat="43.65579663053356" lon="11.465557066936048"><ele>138.0</ele><time>2026-04-19T14:46:00.999Z</time></trkpt><trkpt lat="43.65605627156793" lon="11.465519670088659"><ele>138.0</ele><time>2026-04-19T14:46:01.999Z</time></trkpt><trkpt lat="43.656314500435755" lon="11.465466607052615"><ele>136.5</ele><time>2026-04-19T14:46:02.999Z</time></trkpt><trkpt lat="43.656571308804885" lon="11.465399110588642"><ele>135.0</ele><time>2026-04-19T14:46:03.999Z</time></trkpt><trkpt lat="43.65682652075608" lon="11.4653199986912"><ele>135.5</ele><time>2026-04-19T14:46:04.999Z</time></trkpt><trkpt lat="43.65708157291551" lon="11.46522840009848"><ele>136.0</ele><time>2026-04-19T14:46:05.999Z</time></trkpt><trkpt lat="43.65733457974304" lon="11.465124777783169"><ele>136.0</ele><time>2026-04-19T14:46:06.999Z</time></trkpt><trkpt lat="43.6575849798585" lon="11.465011721458332"><ele>136.0</ele><time>2026-04-19T14:46:07.999Z</time></trkpt><trkpt lat="43.657833624216245" lon="11.464884452990697"><ele>136.0</ele><time>2026-04-19T14:46:08.999Z</time></trkpt><trkpt lat="43.65807756978963" lon="11.464742211849249"><ele>136.0</ele><time>2026-04-19T14:46:09.999Z</time></trkpt><trkpt lat="43.6583197598025" lon="11.464586082506266"><ele>135.5</ele><time>2026-04-19T14:46:10.999Z</time></trkpt><trkpt lat="43.658557303075085" lon="11.464420589664595"><ele>135.0</ele><time>2026-04-19T14:46:11.999Z</time></trkpt><trkpt lat="43.65878921171417" lon="11.464246043883135"><ele>135.0</ele><time>2026-04-19T14:46:12.999Z</time></trkpt><trkpt lat="43.659017275735984" lon="11.464060606068163"><ele>135.0</ele><time>2026-04-19T14:46:13.999Z</time></trkpt><trkpt lat="43.6592389521282" lon="11.463865678430306"><ele>133.0</ele><time>2026-04-19T14:46:14.999Z</time></trkpt><trkpt lat="43.65945717274009" lon="11.463663450797505"><ele>131.0</ele><time>2026-04-19T14:46:15.999Z</time></trkpt><trkpt lat="43.659673861222224" lon="11.463462237912351"><ele>131.0</ele><time>2026-04-19T14:46:16.999Z</time></trkpt><trkpt lat="43.659892452908515" lon="11.46326861887792"><ele>131.0</ele><time>2026-04-19T14:46:17.999Z</time></trkpt><trkpt lat="43.66011270720525" lon="11.463076720406214"><ele>129.5</ele><time>2026-04-19T14:46:18.999Z</time></trkpt><trkpt lat="43.66032997790086" lon="11.46288530497186"><ele>128.0</ele><time>2026-04-19T14:46:19.999Z</time></trkpt><trkpt lat="43.66054535836918" lon="11.462694669121912"><ele>128.0</ele><time>2026-04-19T14:46:20.999Z</time></trkpt><trkpt lat="43.66075969950198" lon="11.462507612436086"><ele>128.0</ele><time>2026-04-19T14:46:21.999Z</time></trkpt><trkpt lat="43.66097288836927" lon="11.462319641011156"><ele>130.0</ele><time>2026-04-19T14:46:22.999Z</time></trkpt><trkpt lat="43.661183844558394" lon="11.462133346982304"><ele>132.0</ele><time>2026-04-19T14:46:23.999Z</time></trkpt><trkpt lat="43.661394042451114" lon="11.46194791326498"><ele>132.5</ele><time>2026-04-19T14:46:24.999Z</time></trkpt><trkpt lat="43.661603981998915" lon="11.461760425785819"><ele>133.0</ele><time>2026-04-19T14:46:25.999Z</time></trkpt><trkpt lat="43.66181295015139" lon="11.46157384662839"><ele>135.5</ele><time>2026-04-19T14:46:26.999Z</time></trkpt><trkpt lat="43.66202283481348" lon="11.461391870524048"><ele>138.0</ele><time>2026-04-19T14:46:27.999Z</time></trkpt><trkpt lat="43.66223336683536" lon="11.461215131293443"><ele>138.0</ele><time>2026-04-19T14:46:28.999Z</time></trkpt><trkpt lat="43.66244570152525" lon="11.461041601094315"><ele>138.0</ele><time>2026-04-19T14:46:29.999Z</time></trkpt><trkpt lat="43.66265922241888" lon="11.460868430340255"><ele>141.0</ele><time>2026-04-19T14:46:30.999Z</time></trkpt><trkpt lat="43.662869381998576" lon="11.460702835880598"><ele>144.0</ele><time>2026-04-19T14:46:31.999Z</time></trkpt><trkpt lat="43.66307443441435" lon="11.460551618743375"><ele>141.0</ele><time>2026-04-19T14:46:32.999Z</time></trkpt><trkpt lat="43.66328566340196" lon="11.460409189478794"><ele>138.0</ele><time>2026-04-19T14:46:33.999Z</time></trkpt><trkpt lat="43.66349761758606" lon="11.460268267956533"><ele>138.0</ele><time>2026-04-19T14:46:34.999Z</time></trkpt><trkpt lat="43.66370904442249" lon="11.46012269566623"><ele>138.0</ele><time>2026-04-19T14:46:35.999Z</time></trkpt><trkpt lat="43.663923897085" lon="11.459981775579307"><ele>138.0</ele><time>2026-04-19T14:46:36.999Z</time></trkpt><trkpt lat="43.66414357625625" lon="11.459842630042552"><ele>138.0</ele><time>2026-04-19T14:46:37.999Z</time></trkpt><trkpt lat="43.664366349217566" lon="11.45970681882256"><ele>137.5</ele><time>2026-04-19T14:46:38.999Z</time></trkpt><trkpt lat="43.66459124248382" lon="11.459576487150036"><ele>137.0</ele><time>2026-04-19T14:46:39.999Z</time></trkpt><trkpt lat="43.664817391769304" lon="11.45945299719979"><ele>137.0</ele><time>2026-04-19T14:46:40.999Z</time></trkpt><trkpt lat="43.66504623567833" lon="11.459333241207847"><ele>137.0</ele><time>2026-04-19T14:46:41.998Z</time></trkpt><trkpt lat="43.66527773174036" lon="11.459212343009302"><ele>138.5</ele><time>2026-04-19T14:46:42.998Z</time></trkpt><trkpt lat="43.66551945472399" lon="11.459082111738164"><ele>140.0</ele><time>2026-04-19T14:46:43.998Z</time></trkpt><trkpt lat="43.665766982261786" lon="11.458950514856765"><ele>140.0</ele><time>2026-04-19T14:46:44.998Z</time></trkpt><trkpt lat="43.666008841523286" lon="11.458825231260867"><ele>140.0</ele><time>2026-04-19T14:46:45.998Z</time></trkpt><trkpt lat="43.66624996541406" lon="11.458702839902788"><ele>139.0</ele><time>2026-04-19T14:46:46.998Z</time></trkpt><trkpt lat="43.66649041053038" lon="11.458578986789759"><ele>138.0</ele><time>2026-04-19T14:46:47.998Z</time></trkpt><trkpt lat="43.66673225055812" lon="11.458452737360684"><ele>137.5</ele><time>2026-04-19T14:46:48.998Z</time></trkpt><trkpt lat="43.66697303911184" lon="11.458327329862048"><ele>137.0</ele><time>2026-04-19T14:46:49.998Z</time></trkpt><trkpt lat="43.66721341801342" lon="11.458200102194859"><ele>137.0</ele><time>2026-04-19T14:46:50.998Z</time></trkpt><trkpt lat="43.66745283575634" lon="11.45807664413987"><ele>137.0</ele><time>2026-04-19T14:46:51.998Z</time></trkpt><trkpt lat="43.66769176736481" lon="11.457954046084527"><ele>133.0</ele><time>2026-04-19T14:46:52.998Z</time></trkpt><trkpt lat="43.66793084111945" lon="11.457827627397473"><ele>129.0</ele><time>2026-04-19T14:46:53.998Z</time></trkpt><trkpt lat="43.66816871764947" lon="11.457700628054512"><ele>129.0</ele><time>2026-04-19T14:46:54.998Z</time></trkpt><trkpt lat="43.668406247486395" lon="11.457572281396644"><ele>129.0</ele><time>2026-04-19T14:46:55.998Z</time></trkpt><trkpt lat="43.66864425142477" lon="11.45744500245714"><ele>128.0</ele><time>2026-04-19T14:46:56.998Z</time></trkpt><trkpt lat="43.66887997128541" lon="11.457312822783406"><ele>127.0</ele><time>2026-04-19T14:46:57.998Z</time></trkpt><trkpt lat="43.669112000591554" lon="11.457171883966454"><ele>128.0</ele><time>2026-04-19T14:46:58.998Z</time></trkpt><trkpt lat="43.66934058905565" lon="11.457026115154505"><ele>129.0</ele><time>2026-04-19T14:46:59.998Z</time></trkpt><trkpt lat="43.66956820632369" lon="11.456876600425321"><ele>130.0</ele><time>2026-04-19T14:47:00.998Z</time></trkpt><trkpt lat="43.66979672360429" lon="11.456727587546723"><ele>131.0</ele><time>2026-04-19T14:47:01.998Z</time></trkpt><trkpt lat="43.67002626468546" lon="11.456577549507397"><ele>131.0</ele><time>2026-04-19T14:47:02.998Z</time></trkpt><trkpt lat="43.67025805704133" lon="11.456435249323944"><ele>131.0</ele><time>2026-04-19T14:47:03.998Z</time></trkpt><trkpt lat="43.67049531029448" lon="11.456306249035919"><ele>133.0</ele><time>2026-04-19T14:47:04.998Z</time></trkpt><trkpt lat="43.67073603600946" lon="11.45618377532681"><ele>135.0</ele><time>2026-04-19T14:47:05.998Z</time></trkpt><trkpt lat="43.67097993489788" lon="11.45606295898433"><ele>143.0</ele><time>2026-04-19T14:47:06.998Z</time></trkpt><trkpt lat="43.67122453276733" lon="11.4559419848695"><ele>151.0</ele><time>2026-04-19T14:47:07.998Z</time></trkpt><trkpt lat="43.671469374557816" lon="11.4558241442449"><ele>151.0</ele><time>2026-04-19T14:47:08.998Z</time></trkpt><trkpt lat="43.671720365829906" lon="11.45571334844419"><ele>151.0</ele><time>2026-04-19T14:47:09.998Z</time></trkpt><trkpt lat="43.67196906688448" lon="11.455607319087706"><ele>155.5</ele><time>2026-04-19T14:47:10.998Z</time></trkpt><trkpt lat="43.67221596089758" lon="11.45550411484935"><ele>160.0</ele><time>2026-04-19T14:47:11.998Z</time></trkpt><trkpt lat="43.6724649283394" lon="11.455400132715752"><ele>160.0</ele><time>2026-04-19T14:47:12.998Z</time></trkpt><trkpt lat="43.67271305015509" lon="11.455292641703315"><ele>160.0</ele><time>2026-04-19T14:47:13.998Z</time></trkpt><trkpt lat="43.67296105567439" lon="11.45518373406969"><ele>169.5</ele><time>2026-04-19T14:47:14.998Z</time></trkpt><trkpt lat="43.67320815727168" lon="11.45506875801969"><ele>179.0</ele><time>2026-04-19T14:47:15.998Z</time></trkpt><trkpt lat="43.67344333299944" lon="11.454947572223697"><ele>174.0</ele><time>2026-04-19T14:47:16.998Z</time></trkpt><trkpt lat="43.67366801183143" lon="11.454826991580125"><ele>169.0</ele><time>2026-04-19T14:47:17.998Z</time></trkpt><trkpt lat="43.673900165460886" lon="11.454707643126335"><ele>165.33333333333334</ele><time>2026-04-19T14:47:19.068Z</time></trkpt><trkpt lat="43.67410920247047" lon="11.454605337286504"><ele>161.66666666666666</ele><time>2026-04-19T14:47:20.062Z</time></trkpt><trkpt lat="43.67432230824929" lon="11.454502071259443"><ele>158.0</ele><time>2026-04-19T14:47:21.066Z</time></trkpt><trkpt lat="43.67453224255543" lon="11.454398283459145"><ele>149.5</ele><time>2026-04-19T14:47:22.055Z</time></trkpt><trkpt lat="43.674950343743625" lon="11.454224680583685"><ele>141.0</ele><time>2026-04-19T14:47:23.998Z</time></trkpt><trkpt lat="43.67517515317142" lon="11.454107852953996"><ele>131.5</ele><time>2026-04-19T14:47:24.998Z</time></trkpt><trkpt lat="43.675486434043684" lon="11.453946068725873"><ele>122.0</ele><time>2026-04-19T14:47:25.998Z</time></trkpt><trkpt lat="43.67567323401489" lon="11.453861295228617"><ele>119.5</ele><time>2026-04-19T14:47:26.998Z</time></trkpt><trkpt lat="43.675891147583904" lon="11.45370953888185"><ele>117.0</ele><time>2026-04-19T14:47:27.998Z</time></trkpt><trkpt lat="43.67610658421448" lon="11.45357179007174"><ele>117.0</ele><time>2026-04-19T14:47:28.998Z</time></trkpt><trkpt lat="43.676334865765384" lon="11.45343795535065"><ele>117.0</ele><time>2026-04-19T14:47:30Z</time></trkpt><trkpt lat="43.67655716655587" lon="11.453319045955388"><ele>117.0</ele><time>2026-04-19T14:47:31Z</time></trkpt><trkpt lat="43.67677863062475" lon="11.453199600516292"><ele>117.0</ele><time>2026-04-19T14:47:32Z</time></trkpt><trkpt lat="43.677000057904756" lon="11.45307891021987"><ele>122.0</ele><time>2026-04-19T14:47:33Z</time></trkpt><trkpt lat="43.677224605608025" lon="11.452965498028178"><ele>127.0</ele><time>2026-04-19T14:47:34Z</time></trkpt><trkpt lat="43.67745313820712" lon="11.452849118721739"><ele>131.0</ele><time>2026-04-19T14:47:35Z</time></trkpt><trkpt lat="43.677677735870105" lon="11.452725378479542"><ele>135.0</ele><time>2026-04-19T14:47:36Z</time></trkpt><trkpt lat="43.677899396508266" lon="11.452596294908115"><ele>135.0</ele><time>2026-04-19T14:47:37Z</time></trkpt><trkpt lat="43.67811856236824" lon="11.45246011440414"><ele>135.0</ele><time>2026-04-19T14:47:38Z</time></trkpt><trkpt lat="43.67833588334921" lon="11.452320466691356"><ele>135.0</ele><time>2026-04-19T14:47:39Z</time></trkpt><trkpt lat="43.67855284486213" lon="11.452177048269444"><ele>135.0</ele><time>2026-04-19T14:47:40Z</time></trkpt><trkpt lat="43.67876863284188" lon="11.452031342234415"><ele>135.0</ele><time>2026-04-19T14:47:41Z</time></trkpt><trkpt lat="43.67898306108791" lon="11.451880484169008"><ele>135.0</ele><time>2026-04-19T14:47:42Z</time></trkpt><trkpt lat="43.679193582684746" lon="11.451728298236278"><ele>135.0</ele><time>2026-04-19T14:47:43Z</time></trkpt><trkpt lat="43.67940066641023" lon="11.45157275196349"><ele>135.0</ele><time>2026-04-19T14:47:44Z</time></trkpt><trkpt lat="43.67960783309107" lon="11.451412178541615"><ele>134.5</ele><time>2026-04-19T14:47:45Z</time></trkpt><trkpt lat="43.67981474070155" lon="11.451249260537777"><ele>134.0</ele><time>2026-04-19T14:47:46Z</time></trkpt><trkpt lat="43.68002090025791" lon="11.451082974151161"><ele>134.0</ele><time>2026-04-19T14:47:47Z</time></trkpt><trkpt lat="43.68022666447827" lon="11.450911758947738"><ele>134.0</ele><time>2026-04-19T14:47:48Z</time></trkpt><trkpt lat="43.680432414054906" lon="11.450736040793949"><ele>132.0</ele><time>2026-04-19T14:47:49Z</time></trkpt><trkpt lat="43.68063229520893" lon="11.450556799282365"><ele>130.0</ele><time>2026-04-19T14:47:50Z</time></trkpt><trkpt lat="43.68082562153698" lon="11.45038203398674"><ele>130.0</ele><time>2026-04-19T14:47:51Z</time></trkpt><trkpt lat="43.68102032328743" lon="11.45020450628823"><ele>130.0</ele><time>2026-04-19T14:47:52Z</time></trkpt><trkpt lat="43.68121788549184" lon="11.450015657243547"><ele>127.0</ele><time>2026-04-19T14:47:53Z</time></trkpt><trkpt lat="43.68142394706313" lon="11.449815431850455"><ele>124.0</ele><time>2026-04-19T14:47:54Z</time></trkpt><trkpt lat="43.68164057000655" lon="11.449610774052752"><ele>122.0</ele><time>2026-04-19T14:47:55Z</time></trkpt><trkpt lat="43.681869093072564" lon="11.449402552735888"><ele>120.0</ele><time>2026-04-19T14:47:56Z</time></trkpt><trkpt lat="43.682099895656805" lon="11.44919470874558"><ele>120.0</ele><time>2026-04-19T14:47:57Z</time></trkpt><trkpt lat="43.68234377558036" lon="11.448973248847723"><ele>120.0</ele><time>2026-04-19T14:47:58Z</time></trkpt><trkpt lat="43.68259263119311" lon="11.448749263729406"><ele>120.0</ele><time>2026-04-19T14:47:59Z</time></trkpt><trkpt lat="43.68283934431533" lon="11.448526450241772"><ele>120.0</ele><time>2026-04-19T14:48:00Z</time></trkpt><trkpt lat="43.6830864716129" lon="11.448305940168684"><ele>120.0</ele><time>2026-04-19T14:48:01Z</time></trkpt><trkpt lat="43.683333789850266" lon="11.448087692357596"><ele>120.0</ele><time>2026-04-19T14:48:02Z</time></trkpt><trkpt lat="43.683582249744454" lon="11.447867353848055"><ele>122.0</ele><time>2026-04-19T14:48:03Z</time></trkpt><trkpt lat="43.683834026469235" lon="11.447644325226726"><ele>124.0</ele><time>2026-04-19T14:48:04Z</time></trkpt><trkpt lat="43.68408702208683" lon="11.447419698673478"><ele>124.0</ele><time>2026-04-19T14:48:04.999Z</time></trkpt><trkpt lat="43.68433723232959" lon="11.447192865731427"><ele>124.0</ele><time>2026-04-19T14:48:05.999Z</time></trkpt><trkpt lat="43.68458616609432" lon="11.446969132895063"><ele>127.0</ele><time>2026-04-19T14:48:06.999Z</time></trkpt><trkpt lat="43.68483505231084" lon="11.446750173175388"><ele>130.0</ele><time>2026-04-19T14:48:07.999Z</time></trkpt><trkpt lat="43.68508547729676" lon="11.446532954421961"><ele>133.5</ele><time>2026-04-19T14:48:08.999Z</time></trkpt><trkpt lat="43.68533408053081" lon="11.446315138891851"><ele>137.0</ele><time>2026-04-19T14:48:09.999Z</time></trkpt><trkpt lat="43.68558047667191" lon="11.446095758638362"><ele>137.5</ele><time>2026-04-19T14:48:10.999Z</time></trkpt><trkpt lat="43.68582480246371" lon="11.4458731599957"><ele>138.0</ele><time>2026-04-19T14:48:11.999Z</time></trkpt><trkpt lat="43.68606832403448" lon="11.445649449962888"><ele>137.5</ele><time>2026-04-19T14:48:12.999Z</time></trkpt><trkpt lat="43.68631163777824" lon="11.445427817280464"><ele>137.0</ele><time>2026-04-19T14:48:13.999Z</time></trkpt><trkpt lat="43.68655408797002" lon="11.4452069614663"><ele>137.0</ele><time>2026-04-19T14:48:14.999Z</time></trkpt><trkpt lat="43.6867974976171" lon="11.444988603969932"><ele>137.0</ele><time>2026-04-19T14:48:15.999Z</time></trkpt><trkpt lat="43.68703941445784" lon="11.444769632407125"><ele>139.5</ele><time>2026-04-19T14:48:16.999Z</time></trkpt><trkpt lat="43.687278043964604" lon="11.444553046179877"><ele>142.0</ele><time>2026-04-19T14:48:17.999Z</time></trkpt><trkpt lat="43.687516667954505" lon="11.44433888670272"><ele>142.0</ele><time>2026-04-19T14:48:18.999Z</time></trkpt><trkpt lat="43.687755740274646" lon="11.444133077733834"><ele>142.0</ele><time>2026-04-19T14:48:19.999Z</time></trkpt><trkpt lat="43.68799507511522" lon="11.4439340562979"><ele>142.0</ele><time>2026-04-19T14:48:20.999Z</time></trkpt><trkpt lat="43.68823098054969" lon="11.443730665166054"><ele>142.0</ele><time>2026-04-19T14:48:21.999Z</time></trkpt><trkpt lat="43.68846019632902" lon="11.443516126310788"><ele>144.0</ele><time>2026-04-19T14:48:22.999Z</time></trkpt><trkpt lat="43.68867881712494" lon="11.44328654702719"><ele>146.0</ele><time>2026-04-19T14:48:23.999Z</time></trkpt><trkpt lat="43.68888781055737" lon="11.44304433263282"><ele>146.5</ele><time>2026-04-19T14:48:24.999Z</time></trkpt><trkpt lat="43.68908937255741" lon="11.442791383569899"><ele>147.0</ele><time>2026-04-19T14:48:25.999Z</time></trkpt><trkpt lat="43.68928292886526" lon="11.442529720251667"><ele>147.5</ele><time>2026-04-19T14:48:26.999Z</time></trkpt><trkpt lat="43.68946813188482" lon="11.442259537038217"><ele>148.0</ele><time>2026-04-19T14:48:27.999Z</time></trkpt><trkpt lat="43.68964714045009" lon="11.441980179612775"><ele>150.0</ele><time>2026-04-19T14:48:28.999Z</time></trkpt><trkpt lat="43.68981972178527" lon="11.441692080523774"><ele>152.0</ele><time>2026-04-19T14:48:29.999Z</time></trkpt><trkpt lat="43.68998303862072" lon="11.441396249811211"><ele>149.5</ele><time>2026-04-19T14:48:30.999Z</time></trkpt><trkpt lat="43.69013917801165" lon="11.44109375151415"><ele>147.0</ele><time>2026-04-19T14:48:31.999Z</time></trkpt><trkpt lat="43.690280941134446" lon="11.440797546834123"><ele>147.0</ele><time>2026-04-19T14:48:32.999Z</time></trkpt><trkpt lat="43.690404478581804" lon="11.440515939466618"><ele>147.0</ele><time>2026-04-19T14:48:33.999Z</time></trkpt><trkpt lat="43.690512108113445" lon="11.440251974332725"><ele>149.66666666666666</ele><time>2026-04-19T14:48:34.999Z</time></trkpt><trkpt lat="43.69060636523398" lon="11.440007739601535"><ele>152.33333333333331</ele><time>2026-04-19T14:48:35.999Z</time></trkpt><trkpt lat="43.69068640550461" lon="11.439775359798276"><ele>155.0</ele><time>2026-04-19T14:48:36.999Z</time></trkpt><trkpt lat="43.69075798968049" lon="11.43955598827231"><ele>156.0</ele><time>2026-04-19T14:48:37.999Z</time></trkpt><trkpt lat="43.690825570534585" lon="11.439345254987975"><ele>157.0</ele><time>2026-04-19T14:48:38.999Z</time></trkpt><trkpt lat="43.6908850978424" lon="11.43914892704305"><ele>158.0</ele><time>2026-04-19T14:48:39.999Z</time></trkpt><trkpt lat="43.69093217535551" lon="11.438973290460746"><ele>158.0</ele><time>2026-04-19T14:48:40.999Z</time></trkpt><trkpt lat="43.69097239455885" lon="11.438811732330297"><ele>158.0</ele><time>2026-04-19T14:48:41.999Z</time></trkpt><trkpt lat="43.691008846082006" lon="11.438657914008301"><ele>158.0</ele><time>2026-04-19T14:48:42.999Z</time></trkpt><trkpt lat="43.6910391638618" lon="11.438514306474785"><ele>158.0</ele><time>2026-04-19T14:48:43.999Z</time></trkpt><trkpt lat="43.691067494844106" lon="11.438380529942723"><ele>157.4</ele><time>2026-04-19T14:48:44.999Z</time></trkpt><trkpt lat="43.69109666294533" lon="11.438246947043144"><ele>156.8</ele><time>2026-04-19T14:48:45.999Z</time></trkpt><trkpt lat="43.69112837674122" lon="11.438107199897944"><ele>156.2</ele><time>2026-04-19T14:48:46.999Z</time></trkpt><trkpt lat="43.69116265891587" lon="11.437962507643958"><ele>155.6</ele><time>2026-04-19T14:48:47.999Z</time></trkpt><trkpt lat="43.691197922274334" lon="11.437809396951216"><ele>155.0</ele><time>2026-04-19T14:48:48.999Z</time></trkpt><trkpt lat="43.691235938389475" lon="11.437645918441657"><ele>155.0</ele><time>2026-04-19T14:48:49.999Z</time></trkpt><trkpt lat="43.6912765655563" lon="11.437468256660571"><ele>155.0</ele><time>2026-04-19T14:48:50.999Z</time></trkpt><trkpt lat="43.69131544247341" lon="11.437278690551045"><ele>155.0</ele><time>2026-04-19T14:48:51.999Z</time></trkpt><trkpt lat="43.691354188666004" lon="11.437074988660093"><ele>155.0</ele><time>2026-04-19T14:48:52.999Z</time></trkpt><trkpt lat="43.69139304167055" lon="11.436859472092014"><ele>156.0</ele><time>2026-04-19T14:48:53.999Z</time></trkpt><trkpt lat="43.69143219569119" lon="11.436639552447422"><ele>157.0</ele><time>2026-04-19T14:48:54.999Z</time></trkpt><trkpt lat="43.69147150359757" lon="11.436429428050168"><ele>158.0</ele><time>2026-04-19T14:48:55.998Z</time></trkpt><trkpt lat="43.691513794517" lon="11.436226033518844"><ele>159.0</ele><time>2026-04-19T14:48:56.998Z</time></trkpt><trkpt lat="43.69155948141599" lon="11.436020658605067"><ele>160.0</ele><time>2026-04-19T14:48:57.998Z</time></trkpt><trkpt lat="43.69160590211564" lon="11.43581219910023"><ele>161.0</ele><time>2026-04-19T14:48:58.998Z</time></trkpt><trkpt lat="43.69165200586187" lon="11.435601577746674"><ele>161.33333333333331</ele><time>2026-04-19T14:48:59.998Z</time></trkpt><trkpt lat="43.691699727461824" lon="11.435386231639518"><ele>161.66666666666666</ele><time>2026-04-19T14:49:00.998Z</time></trkpt><trkpt lat="43.6917496642721" lon="11.435171036330658"><ele>162.0</ele><time>2026-04-19T14:49:01.998Z</time></trkpt><trkpt lat="43.69179825582693" lon="11.434948841016233"><ele>162.0</ele><time>2026-04-19T14:49:02.998Z</time></trkpt><trkpt lat="43.69184943135438" lon="11.434721125639626"><ele>162.0</ele><time>2026-04-19T14:49:03.998Z</time></trkpt><trkpt lat="43.69189930001963" lon="11.43449130718673"><ele>162.0</ele><time>2026-04-19T14:49:04.998Z</time></trkpt><trkpt lat="43.69194486885107" lon="11.434282523129689"><ele>159.5</ele><time>2026-04-19T14:49:05.998Z</time></trkpt><trkpt lat="43.69198489587708" lon="11.434096158677116"><ele>157.0</ele><time>2026-04-19T14:49:06.998Z</time></trkpt><trkpt lat="43.69202188127807" lon="11.433922189226413"><ele>154.5</ele><time>2026-04-19T14:49:07.998Z</time></trkpt><trkpt lat="43.692056633462144" lon="11.433759021257863"><ele>152.0</ele><time>2026-04-19T14:49:08.998Z</time></trkpt><trkpt lat="43.69208946575655" lon="11.433607679705991"><ele>151.83333333333331</ele><time>2026-04-19T14:49:09.998Z</time></trkpt><trkpt lat="43.692118205155325" lon="11.433481348019148"><ele>151.66666666666666</ele><time>2026-04-19T14:49:10.998Z</time></trkpt><trkpt lat="43.69214305031842" lon="11.433371957591973"><ele>151.5</ele><time>2026-04-19T14:49:11.998Z</time></trkpt><trkpt lat="43.69216394280571" lon="11.433276121474552"><ele>151.33333333333334</ele><time>2026-04-19T14:49:12.998Z</time></trkpt><trkpt lat="43.692184765899164" lon="11.433173753580519"><ele>151.16666666666669</ele><time>2026-04-19T14:49:13.998Z</time></trkpt><trkpt lat="43.692207244004706" lon="11.433071598146876"><ele>151.0</ele><time>2026-04-19T14:49:14.998Z</time></trkpt><trkpt lat="43.692232522584874" lon="11.432967015417162"><ele>150.83333333333334</ele><time>2026-04-19T14:49:15.998Z</time></trkpt><trkpt lat="43.69225877101555" lon="11.432858517064407"><ele>150.66666666666669</ele><time>2026-04-19T14:49:16.998Z</time></trkpt><trkpt lat="43.69228321255602" lon="11.432750190203018"><ele>150.5</ele><time>2026-04-19T14:49:17.998Z</time></trkpt><trkpt lat="43.69230662012684" lon="11.432650566191787"><ele>150.33333333333334</ele><time>2026-04-19T14:49:18.998Z</time></trkpt><trkpt lat="43.692331063978976" lon="11.432553700659497"><ele>150.16666666666666</ele><time>2026-04-19T14:49:19.998Z</time></trkpt><trkpt lat="43.69236566413224" lon="11.432440145084334"><ele>150.0</ele><time>2026-04-19T14:49:20.998Z</time></trkpt><trkpt lat="43.692402955118304" lon="11.432314806925403"><ele>150.0</ele><time>2026-04-19T14:49:21.998Z</time></trkpt><trkpt lat="43.69243670788052" lon="11.43218233944364"><ele>150.0</ele><time>2026-04-19T14:49:22.998Z</time></trkpt><trkpt lat="43.69247022501102" lon="11.432039465238235"><ele>150.0</ele><time>2026-04-19T14:49:23.998Z</time></trkpt><trkpt lat="43.69250248293263" lon="11.43189208297067"><ele>150.0</ele><time>2026-04-19T14:49:24.998Z</time></trkpt><trkpt lat="43.69253411221675" lon="11.43173930025551"><ele>150.0</ele><time>2026-04-19T14:49:25.998Z</time></trkpt><trkpt lat="43.69256633410291" lon="11.431577981353591"><ele>150.25</ele><time>2026-04-19T14:49:26.998Z</time></trkpt><trkpt lat="43.6926028134096" lon="11.431404856610582"><ele>150.5</ele><time>2026-04-19T14:49:27.998Z</time></trkpt><trkpt lat="43.692638387666754" lon="11.431231049785408"><ele>150.75</ele><time>2026-04-19T14:49:28.998Z</time></trkpt><trkpt lat="43.69267616447854" lon="11.431057793658626"><ele>151.0</ele><time>2026-04-19T14:49:29.998Z</time></trkpt><trkpt lat="43.69272028123103" lon="11.430882364517226"><ele>150.5</ele><time>2026-04-19T14:49:30.998Z</time></trkpt><trkpt lat="43.69276167946795" lon="11.430717687696493"><ele>150.0</ele><time>2026-04-19T14:49:31.998Z</time></trkpt><trkpt lat="43.69279967515241" lon="11.430559301272593"><ele>149.5</ele><time>2026-04-19T14:49:32.998Z</time></trkpt><trkpt lat="43.692835778253986" lon="11.430396456944246"><ele>149.0</ele><time>2026-04-19T14:49:33.998Z</time></trkpt><trkpt lat="43.69287216091741" lon="11.430232593903314"><ele>150.25</ele><time>2026-04-19T14:49:35Z</time></trkpt><trkpt lat="43.69290924035315" lon="11.430068562899546"><ele>151.5</ele><time>2026-04-19T14:49:36Z</time></trkpt><trkpt lat="43.692946136283005" lon="11.429900058399708"><ele>152.75</ele><time>2026-04-19T14:49:37Z</time></trkpt><trkpt lat="43.69298362993576" lon="11.429725174023485"><ele>154.0</ele><time>2026-04-19T14:49:38Z</time></trkpt><trkpt lat="43.693020700782846" lon="11.429546118512135"><ele>155.25</ele><time>2026-04-19T14:49:39Z</time></trkpt><trkpt lat="43.693056758511794" lon="11.429360454582381"><ele>156.5</ele><time>2026-04-19T14:49:40Z</time></trkpt><trkpt lat="43.69309357241428" lon="11.429171736553917"><ele>157.75</ele><time>2026-04-19T14:49:41Z</time></trkpt><trkpt lat="43.693133690801986" lon="11.42897681883727"><ele>159.0</ele><time>2026-04-19T14:49:42Z</time></trkpt><trkpt lat="43.69317736135569" lon="11.428779841704692"><ele>161.0</ele><time>2026-04-19T14:49:43Z</time></trkpt><trkpt lat="43.693221886652175" lon="11.428578006994087"><ele>163.0</ele><time>2026-04-19T14:49:44Z</time></trkpt><trkpt lat="43.69326758495822" lon="11.428368808075602"><ele>165.0</ele><time>2026-04-19T14:49:45Z</time></trkpt><trkpt lat="43.69331300762996" lon="11.42815604188154"><ele>167.0</ele><time>2026-04-19T14:49:46Z</time></trkpt><trkpt lat="43.69335877543159" lon="11.427940555394958"><ele>169.0</ele><time>2026-04-19T14:49:47Z</time></trkpt><trkpt lat="43.69340522045456" lon="11.42772658816153"><ele>171.0</ele><time>2026-04-19T14:49:48Z</time></trkpt><trkpt lat="43.69345493265285" lon="11.427502594640908"><ele>171.0</ele><time>2026-04-19T14:49:49Z</time></trkpt><trkpt lat="43.69350766512753" lon="11.427269546988764"><ele>171.0</ele><time>2026-04-19T14:49:50Z</time></trkpt><trkpt lat="43.693562267705396" lon="11.427026524597702"><ele>171.0</ele><time>2026-04-19T14:49:51Z</time></trkpt><trkpt lat="43.69361804472392" lon="11.426776546991205"><ele>170.66666666666666</ele><time>2026-04-19T14:49:52Z</time></trkpt><trkpt lat="43.693675541150895" lon="11.426520069612085"><ele>170.33333333333331</ele><time>2026-04-19T14:49:53Z</time></trkpt><trkpt lat="43.69373753864568" lon="11.426260229640441"><ele>170.0</ele><time>2026-04-19T14:49:54Z</time></trkpt><trkpt lat="43.693804010825964" lon="11.425992992287922"><ele>171.0</ele><time>2026-04-19T14:49:55Z</time></trkpt><trkpt lat="43.69386809837953" lon="11.42573047170703"><ele>172.0</ele><time>2026-04-19T14:49:56Z</time></trkpt><trkpt lat="43.69393544078963" lon="11.42546277007735"><ele>173.0</ele><time>2026-04-19T14:49:57Z</time></trkpt><trkpt lat="43.69400080697962" lon="11.425193980245062"><ele>174.33333333333331</ele><time>2026-04-19T14:49:58Z</time></trkpt><trkpt lat="43.694061569154826" lon="11.424922737869911"><ele>175.66666666666666</ele><time>2026-04-19T14:49:59Z</time></trkpt><trkpt lat="43.694121710957994" lon="11.42465134408758"><ele>177.0</ele><time>2026-04-19T14:50:00Z</time></trkpt><trkpt lat="43.6941814376299" lon="11.424378119664755"><ele>177.0</ele><time>2026-04-19T14:50:01Z</time></trkpt><trkpt lat="43.69423729738599" lon="11.424105429554299"><ele>177.0</ele><time>2026-04-19T14:50:02Z</time></trkpt><trkpt lat="43.6942857257165" lon="11.423829191086485"><ele>177.0</ele><time>2026-04-19T14:50:03Z</time></trkpt><trkpt lat="43.69432604473767" lon="11.423548678382907"><ele>179.0</ele><time>2026-04-19T14:50:04Z</time></trkpt><trkpt lat="43.694356886721714" lon="11.423262847593824"><ele>181.0</ele><time>2026-04-19T14:50:05Z</time></trkpt><trkpt lat="43.694380829223554" lon="11.422971644284154"><ele>183.0</ele><time>2026-04-19T14:50:06Z</time></trkpt><trkpt lat="43.69439914405272" lon="11.422676913994234"><ele>183.66666666666666</ele><time>2026-04-19T14:50:07Z</time></trkpt><trkpt lat="43.694408321154306" lon="11.422379333029298"><ele>184.33333333333331</ele><time>2026-04-19T14:50:08Z</time></trkpt><trkpt lat="43.69440772281534" lon="11.422079872692796"><ele>185.0</ele><time>2026-04-19T14:50:09Z</time></trkpt><trkpt lat="43.69440042831715" lon="11.421778687847823"><ele>186.33333333333331</ele><time>2026-04-19T14:50:10Z</time></trkpt><trkpt lat="43.69438566041977" lon="11.421478043400304"><ele>187.66666666666666</ele><time>2026-04-19T14:50:11Z</time></trkpt><trkpt lat="43.69436071095336" lon="11.421178702142306"><ele>189.0</ele><time>2026-04-19T14:50:12Z</time></trkpt><trkpt lat="43.694326657422025" lon="11.420885679550542"><ele>189.33333333333334</ele><time>2026-04-19T14:50:13Z</time></trkpt><trkpt lat="43.6942805984179" lon="11.420596243239663"><ele>189.66666666666669</ele><time>2026-04-19T14:50:14Z</time></trkpt><trkpt lat="43.69422667219579" lon="11.420310760292441"><ele>190.0</ele><time>2026-04-19T14:50:15Z</time></trkpt><trkpt lat="43.694169495450154" lon="11.420028326617617"><ele>189.33333333333334</ele><time>2026-04-19T14:50:16Z</time></trkpt><trkpt lat="43.69410641079476" lon="11.419744868925875"><ele>188.66666666666666</ele><time>2026-04-19T14:50:16.999Z</time></trkpt><trkpt lat="43.6940371095728" lon="11.41947114855997"><ele>188.0</ele><time>2026-04-19T14:50:17.999Z</time></trkpt><trkpt lat="43.6939602738186" lon="11.419201537925783"><ele>187.33333333333331</ele><time>2026-04-19T14:50:18.999Z</time></trkpt><trkpt lat="43.69387646607888" lon="11.41893547658099"><ele>186.66666666666666</ele><time>2026-04-19T14:50:19.999Z</time></trkpt><trkpt lat="43.693790827732926" lon="11.418671510289554"><ele>186.0</ele><time>2026-04-19T14:50:20.999Z</time></trkpt><trkpt lat="43.693702175336355" lon="11.418400084352601"><ele>185.66666666666666</ele><time>2026-04-19T14:50:21.999Z</time></trkpt><trkpt lat="43.6936150758455" lon="11.418119812588172"><ele>185.33333333333331</ele><time>2026-04-19T14:50:22.999Z</time></trkpt><trkpt lat="43.6935330885833" lon="11.41782622627057"><ele>185.0</ele><time>2026-04-19T14:50:23.999Z</time></trkpt><trkpt lat="43.693461580135754" lon="11.417520133608516"><ele>193.0</ele><time>2026-04-19T14:50:24.999Z</time></trkpt><trkpt lat="43.6934040902132" lon="11.417206238152316"><ele>201.0</ele><time>2026-04-19T14:50:25.999Z</time></trkpt><trkpt lat="43.693358042961975" lon="11.416887925333977"><ele>201.5</ele><time>2026-04-19T14:50:26.999Z</time></trkpt><trkpt lat="43.69332098035226" lon="11.41656724610941"><ele>202.0</ele><time>2026-04-19T14:50:27.999Z</time></trkpt><trkpt lat="43.693293134978276" lon="11.416241020418902"><ele>204.0</ele><time>2026-04-19T14:50:28.999Z</time></trkpt><trkpt lat="43.693266293783275" lon="11.415915965045436"><ele>206.0</ele><time>2026-04-19T14:50:29.999Z</time></trkpt><trkpt lat="43.693235411582194" lon="11.415586236764037"><ele>203.5</ele><time>2026-04-19T14:50:30.999Z</time></trkpt><trkpt lat="43.69320404538316" lon="11.415261361289742"><ele>201.0</ele><time>2026-04-19T14:50:31.999Z</time></trkpt><trkpt lat="43.69317368273728" lon="11.414936886356536"><ele>200.0</ele><time>2026-04-19T14:50:32.999Z</time></trkpt><trkpt lat="43.693140296099074" lon="11.414610927205649"><ele>199.0</ele><time>2026-04-19T14:50:33.999Z</time></trkpt><trkpt lat="43.69310846753892" lon="11.414282467601609"><ele>199.0</ele><time>2026-04-19T14:50:34.999Z</time></trkpt><trkpt lat="43.693080406110234" lon="11.413959752083175"><ele>199.0</ele><time>2026-04-19T14:50:35.999Z</time></trkpt><trkpt lat="43.693052450838" lon="11.41364314991395"><ele>200.5</ele><time>2026-04-19T14:50:36.999Z</time></trkpt><trkpt lat="43.69302334066254" lon="11.413328209813871"><ele>202.0</ele><time>2026-04-19T14:50:37.999Z</time></trkpt><trkpt lat="43.692995637467" lon="11.413017086603281"><ele>203.0</ele><time>2026-04-19T14:50:38.999Z</time></trkpt><trkpt lat="43.69297201437858" lon="11.412708700013553"><ele>204.0</ele><time>2026-04-19T14:50:39.999Z</time></trkpt><trkpt lat="43.69295647296318" lon="11.412400189060788"><ele>205.0</ele><time>2026-04-19T14:50:40.999Z</time></trkpt><trkpt lat="43.692956242809444" lon="11.412088272892055"><ele>205.0</ele><time>2026-04-19T14:50:41.999Z</time></trkpt><trkpt lat="43.692971027771314" lon="11.411771620013498"><ele>205.0</ele><time>2026-04-19T14:50:42.999Z</time></trkpt><trkpt lat="43.69299908469964" lon="11.411460534999994"><ele>204.0</ele><time>2026-04-19T14:50:43.999Z</time></trkpt><trkpt lat="43.69304276040258" lon="11.411154367476724"><ele>203.0</ele><time>2026-04-19T14:50:44.999Z</time></trkpt><trkpt lat="43.69310654558629" lon="11.41085002862612"><ele>203.0</ele><time>2026-04-19T14:50:45.999Z</time></trkpt><trkpt lat="43.69318604383007" lon="11.41055234727843"><ele>203.0</ele><time>2026-04-19T14:50:46.999Z</time></trkpt><trkpt lat="43.693275435297274" lon="11.4102560986501"><ele>210.0</ele><time>2026-04-19T14:50:47.999Z</time></trkpt><trkpt lat="43.69337917442948" lon="11.409967841533902"><ele>217.0</ele><time>2026-04-19T14:50:48.999Z</time></trkpt><trkpt lat="43.693496064359586" lon="11.409691187676634"><ele>216.5</ele><time>2026-04-19T14:50:49.999Z</time></trkpt><trkpt lat="43.693627094010346" lon="11.409424740707891"><ele>216.0</ele><time>2026-04-19T14:50:50.999Z</time></trkpt><trkpt lat="43.69377504705903" lon="11.409173180743661"><ele>216.0</ele><time>2026-04-19T14:50:51.999Z</time></trkpt><trkpt lat="43.69393754338244" lon="11.40893309436879"><ele>216.0</ele><time>2026-04-19T14:50:52.999Z</time></trkpt><trkpt lat="43.694109373070184" lon="11.408709508284733"><ele>215.0</ele><time>2026-04-19T14:50:53.999Z</time></trkpt><trkpt lat="43.69428641966665" lon="11.408502625770144"><ele>214.0</ele><time>2026-04-19T14:50:54.999Z</time></trkpt><trkpt lat="43.69446855798031" lon="11.408308847162317"><ele>214.0</ele><time>2026-04-19T14:50:55.999Z</time></trkpt><trkpt lat="43.69465557346383" lon="11.408130119304635"><ele>214.0</ele><time>2026-04-19T14:50:56.999Z</time></trkpt><trkpt lat="43.69484665830407" lon="11.407966223943674"><ele>217.5</ele><time>2026-04-19T14:50:57.999Z</time></trkpt><trkpt lat="43.69504135553438" lon="11.407807151252713"><ele>221.0</ele><time>2026-04-19T14:50:58.999Z</time></trkpt><trkpt lat="43.69523925319507" lon="11.407641870481084"><ele>222.0</ele><time>2026-04-19T14:50:59.999Z</time></trkpt><trkpt lat="43.69543282609424" lon="11.407474731419873"><ele>223.0</ele><time>2026-04-19T14:51:00.999Z</time></trkpt><trkpt lat="43.69562290931723" lon="11.407309349510568"><ele>228.5</ele><time>2026-04-19T14:51:01.999Z</time></trkpt><trkpt lat="43.695813447629604" lon="11.407143832833322"><ele>234.0</ele><time>2026-04-19T14:51:02.999Z</time></trkpt><trkpt lat="43.6960041896918" lon="11.406977802554497"><ele>232.5</ele><time>2026-04-19T14:51:03.999Z</time></trkpt><trkpt lat="43.69619441123425" lon="11.406810718092503"><ele>231.0</ele><time>2026-04-19T14:51:04.999Z</time></trkpt><trkpt lat="43.69638565425081" lon="11.406643467801034"><ele>231.0</ele><time>2026-04-19T14:51:05.999Z</time></trkpt><trkpt lat="43.696578821644394" lon="11.406476063383307"><ele>231.0</ele><time>2026-04-19T14:51:06.999Z</time></trkpt><trkpt lat="43.69677472402893" lon="11.406307110261237"><ele>233.0</ele><time>2026-04-19T14:51:07.999Z</time></trkpt><trkpt lat="43.69697382857586" lon="11.406134713656442"><ele>235.0</ele><time>2026-04-19T14:51:08.998Z</time></trkpt><trkpt lat="43.69717859584382" lon="11.405959289968969"><ele>235.0</ele><time>2026-04-19T14:51:09.998Z</time></trkpt><trkpt lat="43.69738568017972" lon="11.405784987070053"><ele>235.0</ele><time>2026-04-19T14:51:10.998Z</time></trkpt><trkpt lat="43.6975888506356" lon="11.405607415572234"><ele>238.0</ele><time>2026-04-19T14:51:11.998Z</time></trkpt><trkpt lat="43.69778697307928" lon="11.40542596549734"><ele>241.0</ele><time>2026-04-19T14:51:12.998Z</time></trkpt><trkpt lat="43.69798576570591" lon="11.405244726646844"><ele>241.0</ele><time>2026-04-19T14:51:13.998Z</time></trkpt><trkpt lat="43.69818134135926" lon="11.405061668538929"><ele>241.0</ele><time>2026-04-19T14:51:14.998Z</time></trkpt><trkpt lat="43.69837597243218" lon="11.404873004941653"><ele>241.0</ele><time>2026-04-19T14:51:15.998Z</time></trkpt><trkpt lat="43.69856789998412" lon="11.404682178690438"><ele>241.0</ele><time>2026-04-19T14:51:16.998Z</time></trkpt><trkpt lat="43.69876010965485" lon="11.404489412289513"><ele>246.5</ele><time>2026-04-19T14:51:17.998Z</time></trkpt><trkpt lat="43.69895294580762" lon="11.404293548214072"><ele>252.0</ele><time>2026-04-19T14:51:18.998Z</time></trkpt><trkpt lat="43.69914913791084" lon="11.404091259066346"><ele>252.0</ele><time>2026-04-19T14:51:19.998Z</time></trkpt><trkpt lat="43.699347484337714" lon="11.40388179310067"><ele>252.0</ele><time>2026-04-19T14:51:20.998Z</time></trkpt><trkpt lat="43.69954446174969" lon="11.403671711509544"><ele>250.5</ele><time>2026-04-19T14:51:21.998Z</time></trkpt><trkpt lat="43.69973855936597" lon="11.403457894395304"><ele>249.0</ele><time>2026-04-19T14:51:22.998Z</time></trkpt><trkpt lat="43.69992901094013" lon="11.403242463044979"><ele>249.0</ele><time>2026-04-19T14:51:23.998Z</time></trkpt><trkpt lat="43.70011841585335" lon="11.403025167625342"><ele>249.0</ele><time>2026-04-19T14:51:24.998Z</time></trkpt><trkpt lat="43.7003050814567" lon="11.402810293126127"><ele>252.5</ele><time>2026-04-19T14:51:25.998Z</time></trkpt><trkpt lat="43.700490586908245" lon="11.402592996773942"><ele>256.0</ele><time>2026-04-19T14:51:26.998Z</time></trkpt><trkpt lat="43.70067383879529" lon="11.402373697696008"><ele>258.5</ele><time>2026-04-19T14:51:27.998Z</time></trkpt><trkpt lat="43.70085590228337" lon="11.402151908840661"><ele>261.0</ele><time>2026-04-19T14:51:28.998Z</time></trkpt><trkpt lat="43.70103762529603" lon="11.401928607417307"><ele>260.5</ele><time>2026-04-19T14:51:29.998Z</time></trkpt><trkpt lat="43.70122000318714" lon="11.40170581552336"><ele>260.0</ele><time>2026-04-19T14:51:30.998Z</time></trkpt><trkpt lat="43.70140176246709" lon="11.401481758278491"><ele>262.0</ele><time>2026-04-19T14:51:31.998Z</time></trkpt><trkpt lat="43.70158373794529" lon="11.401258032214773"><ele>264.0</ele><time>2026-04-19T14:51:32.998Z</time></trkpt><trkpt lat="43.701766528463665" lon="11.401035761891432"><ele>261.5</ele><time>2026-04-19T14:51:33.998Z</time></trkpt><trkpt lat="43.70194848994809" lon="11.40081740364109"><ele>259.0</ele><time>2026-04-19T14:51:34.998Z</time></trkpt><trkpt lat="43.70212587897233" lon="11.400601601786803"><ele>262.5</ele><time>2026-04-19T14:51:35.998Z</time></trkpt><trkpt lat="43.702298838034096" lon="11.400391769534366"><ele>266.0</ele><time>2026-04-19T14:51:36.998Z</time></trkpt><trkpt lat="43.70247144571836" lon="11.400183443763634"><ele>266.0</ele><time>2026-04-19T14:51:37.998Z</time></trkpt><trkpt lat="43.70264207492196" lon="11.399983853926503"><ele>266.0</ele><time>2026-04-19T14:51:38.998Z</time></trkpt><trkpt lat="43.70281371170336" lon="11.3997977833328"><ele>266.0</ele><time>2026-04-19T14:51:39.998Z</time></trkpt><trkpt lat="43.70298731801523" lon="11.399626678350618"><ele>265.6666666666667</ele><time>2026-04-19T14:51:41Z</time></trkpt><trkpt lat="43.70315900827488" lon="11.399465077862208"><ele>265.3333333333333</ele><time>2026-04-19T14:51:42Z</time></trkpt><trkpt lat="43.70333232914142" lon="11.3993111577561"><ele>265.0</ele><time>2026-04-19T14:51:43Z</time></trkpt><trkpt lat="43.703506760682615" lon="11.399154527655218"><ele>265.3333333333333</ele><time>2026-04-19T14:51:44Z</time></trkpt><trkpt lat="43.703682954851296" lon="11.398989703860725"><ele>265.6666666666667</ele><time>2026-04-19T14:51:45Z</time></trkpt><trkpt lat="43.703858430502486" lon="11.398808458983222"><ele>266.0</ele><time>2026-04-19T14:51:46Z</time></trkpt><trkpt lat="43.704030861317364" lon="11.398606853113982"><ele>270.0</ele><time>2026-04-19T14:51:47Z</time></trkpt><trkpt lat="43.70420133801488" lon="11.398392191697013"><ele>274.0</ele><time>2026-04-19T14:51:48Z</time></trkpt><trkpt lat="43.704368976456465" lon="11.398180261931877"><ele>276.0</ele><time>2026-04-19T14:51:49Z</time></trkpt><trkpt lat="43.704535953515354" lon="11.397969314086522"><ele>278.0</ele><time>2026-04-19T14:51:50Z</time></trkpt><trkpt lat="43.7047035825611" lon="11.397761363286191"><ele>278.0</ele><time>2026-04-19T14:51:51Z</time></trkpt><trkpt lat="43.70487233534798" lon="11.397552382263981"><ele>278.0</ele><time>2026-04-19T14:51:52Z</time></trkpt><trkpt lat="43.70504193948828" lon="11.39734789668146"><ele>277.5</ele><time>2026-04-19T14:51:53Z</time></trkpt><trkpt lat="43.70521220296436" lon="11.397142725109164"><ele>277.0</ele><time>2026-04-19T14:51:54Z</time></trkpt><trkpt lat="43.705383040844644" lon="11.396936122798774"><ele>277.0</ele><time>2026-04-19T14:51:55Z</time></trkpt><trkpt lat="43.705555832095584" lon="11.396726069571953"><ele>277.0</ele><time>2026-04-19T14:51:56Z</time></trkpt><trkpt lat="43.705731801354204" lon="11.396512785179443"><ele>276.0</ele><time>2026-04-19T14:51:57Z</time></trkpt><trkpt lat="43.70591133857901" lon="11.396296942387236"><ele>275.0</ele><time>2026-04-19T14:51:58Z</time></trkpt><trkpt lat="43.706093418657495" lon="11.396075997995883"><ele>275.0</ele><time>2026-04-19T14:51:59Z</time></trkpt><trkpt lat="43.70627451318967" lon="11.395852627733728"><ele>275.0</ele><time>2026-04-19T14:52:00Z</time></trkpt><trkpt lat="43.70645529047145" lon="11.395634107971246"><ele>275.5</ele><time>2026-04-19T14:52:01Z</time></trkpt><trkpt lat="43.70663681734153" lon="11.395415698085662"><ele>276.0</ele><time>2026-04-19T14:52:02Z</time></trkpt><trkpt lat="43.70682180486017" lon="11.395197491470151"><ele>272.5</ele><time>2026-04-19T14:52:03Z</time></trkpt><trkpt lat="43.70700945488173" lon="11.394982170835783"><ele>269.0</ele><time>2026-04-19T14:52:04Z</time></trkpt><trkpt lat="43.70719923865983" lon="11.394767700646812"><ele>272.5</ele><time>2026-04-19T14:52:05Z</time></trkpt><trkpt lat="43.70739378918673" lon="11.394561017226168"><ele>276.0</ele><time>2026-04-19T14:52:06Z</time></trkpt><trkpt lat="43.70759461823038" lon="11.394366301092994"><ele>276.0</ele><time>2026-04-19T14:52:07Z</time></trkpt><trkpt lat="43.70779906638789" lon="11.394183269728694"><ele>276.0</ele><time>2026-04-19T14:52:08Z</time></trkpt><trkpt lat="43.708007194061416" lon="11.39401141355483"><ele>276.0</ele><time>2026-04-19T14:52:09Z</time></trkpt><trkpt lat="43.70822054257013" lon="11.393851038487552"><ele>276.0</ele><time>2026-04-19T14:52:10Z</time></trkpt><trkpt lat="43.708440325389866" lon="11.393698713194095"><ele>273.5</ele><time>2026-04-19T14:52:11Z</time></trkpt><trkpt lat="43.70866517821531" lon="11.393547116365916"><ele>271.0</ele><time>2026-04-19T14:52:12Z</time></trkpt><trkpt lat="43.70889781317247" lon="11.393402643325466"><ele>271.0</ele><time>2026-04-19T14:52:13Z</time></trkpt><trkpt lat="43.70913624572706" lon="11.393275920295935"><ele>271.0</ele><time>2026-04-19T14:52:14Z</time></trkpt><trkpt lat="43.70937860841672" lon="11.393162626976254"><ele>273.0</ele><time>2026-04-19T14:52:15Z</time></trkpt><trkpt lat="43.709619961835394" lon="11.393057413247414"><ele>275.0</ele><time>2026-04-19T14:52:16Z</time></trkpt><trkpt lat="43.70986395280308" lon="11.392964237250828"><ele>276.5</ele><time>2026-04-19T14:52:17Z</time></trkpt><trkpt lat="43.71010839047841" lon="11.392885307994108"><ele>278.0</ele><time>2026-04-19T14:52:18Z</time></trkpt><trkpt lat="43.71035421330824" lon="11.392814013931236"><ele>282.5</ele><time>2026-04-19T14:52:19Z</time></trkpt><trkpt lat="43.71059996987555" lon="11.39275254031734"><ele>287.0</ele><time>2026-04-19T14:52:20Z</time></trkpt><trkpt lat="43.71084493784433" lon="11.392700848831094"><ele>287.0</ele><time>2026-04-19T14:52:21Z</time></trkpt><trkpt lat="43.711089702778" lon="11.39265510438018"><ele>287.0</ele><time>2026-04-19T14:52:22Z</time></trkpt><trkpt lat="43.7113361301768" lon="11.392615084973814"><ele>287.0</ele><time>2026-04-19T14:52:23Z</time></trkpt><trkpt lat="43.71158372309546" lon="11.392573750261292"><ele>287.0</ele><time>2026-04-19T14:52:24Z</time></trkpt><trkpt lat="43.71183026957663" lon="11.39253314553253"><ele>286.0</ele><time>2026-04-19T14:52:25Z</time></trkpt><trkpt lat="43.71207257703746" lon="11.392492247447217"><ele>285.0</ele><time>2026-04-19T14:52:26Z</time></trkpt><trkpt lat="43.712313464229936" lon="11.392455271197008"><ele>285.0</ele><time>2026-04-19T14:52:27Z</time></trkpt><trkpt lat="43.71255234851823" lon="11.392417469552868"><ele>285.0</ele><time>2026-04-19T14:52:28Z</time></trkpt><trkpt lat="43.712790396733475" lon="11.392374527021323"><ele>284.5</ele><time>2026-04-19T14:52:29Z</time></trkpt><trkpt lat="43.71302579358379" lon="11.39232787834073"><ele>284.0</ele><time>2026-04-19T14:52:30Z</time></trkpt><trkpt lat="43.71325791065854" lon="11.392270264883857"><ele>284.0</ele><time>2026-04-19T14:52:30.999Z</time></trkpt><trkpt lat="43.71348692498471" lon="11.392186329532864"><ele>284.0</ele><time>2026-04-19T14:52:31.999Z</time></trkpt><trkpt lat="43.71371195475647" lon="11.392081573194597"><ele>290.5</ele><time>2026-04-19T14:52:32.999Z</time></trkpt><trkpt lat="43.71393589687664" lon="11.391968033076319"><ele>297.0</ele><time>2026-04-19T14:52:33.999Z</time></trkpt><trkpt lat="43.71416099953504" lon="11.391876517897888"><ele>297.0</ele><time>2026-04-19T14:52:34.999Z</time></trkpt><trkpt lat="43.714372023484486" lon="11.391702693174672"><ele>297.0</ele><time>2026-04-19T14:52:35.999Z</time></trkpt><trkpt lat="43.714581852386516" lon="11.391548225569567"><ele>298.0</ele><time>2026-04-19T14:52:36.999Z</time></trkpt><trkpt lat="43.71478446984199" lon="11.3913724493129"><ele>299.0</ele><time>2026-04-19T14:52:37.999Z</time></trkpt><trkpt lat="43.714981735332984" lon="11.39117787928789"><ele>300.0</ele><time>2026-04-19T14:52:38.999Z</time></trkpt><trkpt lat="43.71517063577253" lon="11.390964772170706"><ele>301.0</ele><time>2026-04-19T14:52:39.999Z</time></trkpt><trkpt lat="43.71534437467824" lon="11.390743693450728"><ele>301.66666666666663</ele><time>2026-04-19T14:52:40.999Z</time></trkpt><trkpt lat="43.7154976929987" lon="11.390537766348649"><ele>302.3333333333333</ele><time>2026-04-19T14:52:41.999Z</time></trkpt><trkpt lat="43.71563352559136" lon="11.390345710390966"><ele>303.0</ele><time>2026-04-19T14:52:42.999Z</time></trkpt><trkpt lat="43.71575458570703" lon="11.390153725304483"><ele>303.0</ele><time>2026-04-19T14:52:43.999Z</time></trkpt><trkpt lat="43.71586299562121" lon="11.389964398974055"><ele>303.0</ele><time>2026-04-19T14:52:44.999Z</time></trkpt><trkpt lat="43.71596127631829" lon="11.389790346403444"><ele>303.0</ele><time>2026-04-19T14:52:45.999Z</time></trkpt><trkpt lat="43.716047699428174" lon="11.389633364596545"><ele>302.6</ele><time>2026-04-19T14:52:46.999Z</time></trkpt><trkpt lat="43.716127068519185" lon="11.389495012343918"><ele>302.20000000000005</ele><time>2026-04-19T14:52:47.999Z</time></trkpt><trkpt lat="43.716197213169515" lon="11.389374729742155"><ele>301.8</ele><time>2026-04-19T14:52:48.999Z</time></trkpt><trkpt lat="43.71625913346561" lon="11.389271680210529"><ele>301.40000000000003</ele><time>2026-04-19T14:52:49.999Z</time></trkpt><trkpt lat="43.71631581530264" lon="11.389176135101511"><ele>301.0</ele><time>2026-04-19T14:52:50.999Z</time></trkpt><trkpt lat="43.71636615171524" lon="11.389086183112342"><ele>301.0</ele><time>2026-04-19T14:52:51.999Z</time></trkpt><trkpt lat="43.71641544298401" lon="11.388998658143807"><ele>301.0</ele><time>2026-04-19T14:52:52.999Z</time></trkpt><trkpt lat="43.71646930938504" lon="11.388910936269093"><ele>301.0</ele><time>2026-04-19T14:52:53.999Z</time></trkpt><trkpt lat="43.716528814533525" lon="11.388820935258343"><ele>301.0</ele><time>2026-04-19T14:52:54.999Z</time></trkpt><trkpt lat="43.71658863923902" lon="11.38871588212743"><ele>301.0</ele><time>2026-04-19T14:52:55.999Z</time></trkpt><trkpt lat="43.71665265696375" lon="11.388595269168498"><ele>300.5</ele><time>2026-04-19T14:52:56.999Z</time></trkpt><trkpt lat="43.71672570902771" lon="11.388469755345685"><ele>300.0</ele><time>2026-04-19T14:52:57.999Z</time></trkpt><trkpt lat="43.71680107965218" lon="11.388337517118252"><ele>299.5</ele><time>2026-04-19T14:52:58.999Z</time></trkpt><trkpt lat="43.71687975600129" lon="11.388198940443646"><ele>299.0</ele><time>2026-04-19T14:52:59.999Z</time></trkpt><trkpt lat="43.71696210609711" lon="11.388051163822155"><ele>301.0</ele><time>2026-04-19T14:53:00.999Z</time></trkpt><trkpt lat="43.717044506364566" lon="11.387897602950376"><ele>303.0</ele><time>2026-04-19T14:53:01.999Z</time></trkpt><trkpt lat="43.71712713494742" lon="11.387741109661276"><ele>305.0</ele><time>2026-04-19T14:53:02.999Z</time></trkpt><trkpt lat="43.717209627630915" lon="11.387584951442316"><ele>307.0</ele><time>2026-04-19T14:53:03.999Z</time></trkpt><trkpt lat="43.71729271173873" lon="11.387425641733355"><ele>307.0</ele><time>2026-04-19T14:53:04.999Z</time></trkpt><trkpt lat="43.71736760965167" lon="11.387279643180815"><ele>307.0</ele><time>2026-04-19T14:53:05.999Z</time></trkpt><trkpt lat="43.71743808972784" lon="11.387139808933084"><ele>307.0</ele><time>2026-04-19T14:53:06.999Z</time></trkpt><trkpt lat="43.71751326239568" lon="11.386994938343662"><ele>307.0</ele><time>2026-04-19T14:53:07.999Z</time></trkpt><trkpt lat="43.71758741706198" lon="11.386843541752024"><ele>308.5</ele><time>2026-04-19T14:53:08.999Z</time></trkpt><trkpt lat="43.717660304629675" lon="11.38669111001845"><ele>310.0</ele><time>2026-04-19T14:53:09.999Z</time></trkpt><trkpt lat="43.71773628111476" lon="11.386535584568199"><ele>311.5</ele><time>2026-04-19T14:53:10.999Z</time></trkpt><trkpt lat="43.71781138208891" lon="11.386391893032654"><ele>313.0</ele><time>2026-04-19T14:53:11.999Z</time></trkpt><trkpt lat="43.71788968468677" lon="11.386250429508772"><ele>317.0</ele><time>2026-04-19T14:53:12.999Z</time></trkpt><trkpt lat="43.71797122427353" lon="11.386103300400507"><ele>321.0</ele><time>2026-04-19T14:53:13.999Z</time></trkpt><trkpt lat="43.71805511446962" lon="11.385946121087052"><ele>325.0</ele><time>2026-04-19T14:53:14.999Z</time></trkpt><trkpt lat="43.718142199285396" lon="11.38578147152269"><ele>329.0</ele><time>2026-04-19T14:53:15.999Z</time></trkpt><trkpt lat="43.71823169352833" lon="11.385605335109565"><ele>331.33333333333337</ele><time>2026-04-19T14:53:16.999Z</time></trkpt><trkpt lat="43.71832735366077" lon="11.385406556415074"><ele>333.6666666666667</ele><time>2026-04-19T14:53:17.999Z</time></trkpt><trkpt lat="43.718433392920225" lon="11.385183307619547"><ele>336.0</ele><time>2026-04-19T14:53:18.999Z</time></trkpt><trkpt lat="43.718550500797605" lon="11.384953074008271"><ele>339.3333333333333</ele><time>2026-04-19T14:53:19.999Z</time></trkpt><trkpt lat="43.71867029697709" lon="11.384730212772478"><ele>342.66666666666663</ele><time>2026-04-19T14:53:20.999Z</time></trkpt><trkpt lat="43.718786747177035" lon="11.384513221708279"><ele>346.0</ele><time>2026-04-19T14:53:21.998Z</time></trkpt><trkpt lat="43.71889666723934" lon="11.384301036654803"><ele>348.3333333333333</ele><time>2026-04-19T14:53:22.998Z</time></trkpt><trkpt lat="43.719013688850985" lon="11.384076038048757"><ele>350.6666666666667</ele><time>2026-04-19T14:53:24.067Z</time></trkpt><trkpt lat="43.7191228146854" lon="11.383867553724327"><ele>353.0</ele><time>2026-04-19T14:53:25.057Z</time></trkpt><trkpt lat="43.72356294771547" lon="11.375856426512332"><ele>326.5</ele><time>2026-04-19T14:54:01.998Z</time></trkpt><trkpt lat="43.72371922580199" lon="11.375664360058757"><ele>300.0</ele><time>2026-04-19T14:54:02.998Z</time></trkpt><trkpt lat="43.72395856880563" lon="11.375544358728492"><ele>297.3333333333333</ele><time>2026-04-19T14:54:03.998Z</time></trkpt><trkpt lat="43.72413739370214" lon="11.375405213844708"><ele>294.66666666666663</ele><time>2026-04-19T14:54:04.998Z</time></trkpt><trkpt lat="43.72432618587602" lon="11.375272385601956"><ele>292.0</ele><time>2026-04-19T14:54:05.998Z</time></trkpt><trkpt lat="43.72452291370361" lon="11.375143897501635"><ele>292.0</ele><time>2026-04-19T14:54:06.998Z</time></trkpt><trkpt lat="43.72473051903247" lon="11.375019177879038"><ele>292.0</ele><time>2026-04-19T14:54:08Z</time></trkpt><trkpt lat="43.72494853309076" lon="11.374918403205728"><ele>292.0</ele><time>2026-04-19T14:54:09Z</time></trkpt><trkpt lat="43.725164660812254" lon="11.374843347225834"><ele>292.0</ele><time>2026-04-19T14:54:10Z</time></trkpt><trkpt lat="43.725387226544846" lon="11.374776129137603"><ele>288.5</ele><time>2026-04-19T14:54:11Z</time></trkpt><trkpt lat="43.725616069493825" lon="11.374697367164524"><ele>285.0</ele><time>2026-04-19T14:54:12Z</time></trkpt><trkpt lat="43.725861095150776" lon="11.374610714749286"><ele>278.5</ele><time>2026-04-19T14:54:13Z</time></trkpt><trkpt lat="43.72611674157679" lon="11.374518773863546"><ele>272.0</ele><time>2026-04-19T14:54:14Z</time></trkpt><trkpt lat="43.72637285434172" lon="11.374426039647956"><ele>272.0</ele><time>2026-04-19T14:54:15Z</time></trkpt><trkpt lat="43.726627291024485" lon="11.374336040768874"><ele>272.0</ele><time>2026-04-19T14:54:16Z</time></trkpt><trkpt lat="43.72687512310072" lon="11.374246294978862"><ele>270.5</ele><time>2026-04-19T14:54:17Z</time></trkpt><trkpt lat="43.72711045443329" lon="11.374162779672679"><ele>269.0</ele><time>2026-04-19T14:54:18Z</time></trkpt><trkpt lat="43.72734274460507" lon="11.374077113094872"><ele>269.0</ele><time>2026-04-19T14:54:19Z</time></trkpt><trkpt lat="43.72757204977634" lon="11.373986146713545"><ele>269.0</ele><time>2026-04-19T14:54:20Z</time></trkpt><trkpt lat="43.72779678271257" lon="11.37388160724451"><ele>268.5</ele><time>2026-04-19T14:54:21Z</time></trkpt><trkpt lat="43.72801824355038" lon="11.373750044643458"><ele>268.0</ele><time>2026-04-19T14:54:22Z</time></trkpt><trkpt lat="43.72823500044775" lon="11.373599116251574"><ele>268.0</ele><time>2026-04-19T14:54:23Z</time></trkpt><trkpt lat="43.728447057986706" lon="11.373427622371011"><ele>268.0</ele><time>2026-04-19T14:54:24Z</time></trkpt><trkpt lat="43.72865091415007" lon="11.373236133061159"><ele>267.5</ele><time>2026-04-19T14:54:25Z</time></trkpt><trkpt lat="43.72884281966852" lon="11.373023655969584"><ele>267.0</ele><time>2026-04-19T14:54:26Z</time></trkpt><trkpt lat="43.72902654322175" lon="11.372792626988058"><ele>267.0</ele><time>2026-04-19T14:54:27Z</time></trkpt><trkpt lat="43.72920014425174" lon="11.372542983036078"><ele>267.0</ele><time>2026-04-19T14:54:28Z</time></trkpt><trkpt lat="43.72936432550605" lon="11.372275219571135"><ele>267.5</ele><time>2026-04-19T14:54:29Z</time></trkpt><trkpt lat="43.729514814393056" lon="11.371988102149254"><ele>268.0</ele><time>2026-04-19T14:54:30Z</time></trkpt><trkpt lat="43.72964928322011" lon="11.371686475890222"><ele>268.0</ele><time>2026-04-19T14:54:31Z</time></trkpt><trkpt lat="43.72976975415736" lon="11.371367316831016"><ele>268.0</ele><time>2026-04-19T14:54:32Z</time></trkpt><trkpt lat="43.72987473639679" lon="11.371037193930036"><ele>265.5</ele><time>2026-04-19T14:54:33Z</time></trkpt><trkpt lat="43.72996149516996" lon="11.370705041392654"><ele>263.0</ele><time>2026-04-19T14:54:34Z</time></trkpt><trkpt lat="43.73002571385024" lon="11.370375712889887"><ele>262.5</ele><time>2026-04-19T14:54:35Z</time></trkpt><trkpt lat="43.7300730038741" lon="11.370042232888888"><ele>262.0</ele><time>2026-04-19T14:54:36Z</time></trkpt><trkpt lat="43.730105995150424" lon="11.369707401355555"><ele>263.0</ele><time>2026-04-19T14:54:37Z</time></trkpt><trkpt lat="43.73012380668108" lon="11.369371319425609"><ele>264.0</ele><time>2026-04-19T14:54:38Z</time></trkpt><trkpt lat="43.73012379090351" lon="11.369050854628622"><ele>263.5</ele><time>2026-04-19T14:54:39Z</time></trkpt><trkpt lat="43.73011301291563" lon="11.3687362868298"><ele>263.0</ele><time>2026-04-19T14:54:40Z</time></trkpt><trkpt lat="43.73009337481357" lon="11.368426185109444"><ele>263.0</ele><time>2026-04-19T14:54:41Z</time></trkpt><trkpt lat="43.73006965649372" lon="11.36811060289093"><ele>263.0</ele><time>2026-04-19T14:54:42Z</time></trkpt><trkpt lat="43.730046616950006" lon="11.367784269950945"><ele>263.5</ele><time>2026-04-19T14:54:43Z</time></trkpt><trkpt lat="43.73002704141963" lon="11.36745779319015"><ele>264.0</ele><time>2026-04-19T14:54:44Z</time></trkpt><trkpt lat="43.73000689884133" lon="11.367130562707958"><ele>262.5</ele><time>2026-04-19T14:54:45Z</time></trkpt><trkpt lat="43.72998509504842" lon="11.366803393237355"><ele>261.0</ele><time>2026-04-19T14:54:46Z</time></trkpt><trkpt lat="43.72996446090506" lon="11.36647718085031"><ele>256.0</ele><time>2026-04-19T14:54:47Z</time></trkpt><trkpt lat="43.729945045683316" lon="11.366155626869858"><ele>251.0</ele><time>2026-04-19T14:54:48Z</time></trkpt><trkpt lat="43.72992692782672" lon="11.36584266044094"><ele>250.5</ele><time>2026-04-19T14:54:49Z</time></trkpt><trkpt lat="43.72990600670449" lon="11.365523297070487"><ele>250.0</ele><time>2026-04-19T14:54:50Z</time></trkpt><trkpt lat="43.72988518763243" lon="11.365203862747762"><ele>250.0</ele><time>2026-04-19T14:54:51Z</time></trkpt><trkpt lat="43.729867144274635" lon="11.364879057205918"><ele>250.0</ele><time>2026-04-19T14:54:52Z</time></trkpt><trkpt lat="43.7298506823842" lon="11.364554061049756"><ele>253.0</ele><time>2026-04-19T14:54:53Z</time></trkpt><trkpt lat="43.72983167990062" lon="11.364230738991436"><ele>256.0</ele><time>2026-04-19T14:54:54Z</time></trkpt><trkpt lat="43.72981343380389" lon="11.363913110305699"><ele>255.33333333333331</ele><time>2026-04-19T14:54:55Z</time></trkpt><trkpt lat="43.7297942753928" lon="11.363601583485668"><ele>254.66666666666669</ele><time>2026-04-19T14:54:56Z</time></trkpt><trkpt lat="43.729774320287646" lon="11.363299615154675"><ele>254.0</ele><time>2026-04-19T14:54:57Z</time></trkpt><trkpt lat="43.72975484539372" lon="11.362996220229816"><ele>253.66666666666669</ele><time>2026-04-19T14:54:58Z</time></trkpt><trkpt lat="43.729735566074375" lon="11.362696516588127"><ele>253.33333333333331</ele><time>2026-04-19T14:54:59Z</time></trkpt><trkpt lat="43.729719014882484" lon="11.362403752988143"><ele>253.0</ele><time>2026-04-19T14:55:00Z</time></trkpt><trkpt lat="43.72970417075598" lon="11.362110708420161"><ele>253.66666666666666</ele><time>2026-04-19T14:55:01Z</time></trkpt><trkpt lat="43.729687443443105" lon="11.361816303356226"><ele>254.33333333333331</ele><time>2026-04-19T14:55:02Z</time></trkpt><trkpt lat="43.72967106187611" lon="11.361518941720616"><ele>255.0</ele><time>2026-04-19T14:55:03Z</time></trkpt><trkpt lat="43.72965547993881" lon="11.361220069341083"><ele>255.0</ele><time>2026-04-19T14:55:04Z</time></trkpt><trkpt lat="43.729640678157004" lon="11.360920306540438"><ele>255.0</ele><time>2026-04-19T14:55:04.999Z</time></trkpt><trkpt lat="43.72962501983951" lon="11.360629995826937"><ele>255.0</ele><time>2026-04-19T14:55:05.999Z</time></trkpt><trkpt lat="43.72960834472299" lon="11.360344292909865"><ele>252.66666666666669</ele><time>2026-04-19T14:55:06.999Z</time></trkpt><trkpt lat="43.729589999392104" lon="11.360055386580608"><ele>250.33333333333334</ele><time>2026-04-19T14:55:07.999Z</time></trkpt><trkpt lat="43.7295703925229" lon="11.35976689431511"><ele>248.0</ele><time>2026-04-19T14:55:08.999Z</time></trkpt><trkpt lat="43.72954889338745" lon="11.359474857392552"><ele>245.0</ele><time>2026-04-19T14:55:09.999Z</time></trkpt><trkpt lat="43.72952846420022" lon="11.359184011540425"><ele>242.0</ele><time>2026-04-19T14:55:10.999Z</time></trkpt><trkpt lat="43.72950765198443" lon="11.358892146219631"><ele>239.0</ele><time>2026-04-19T14:55:11.999Z</time></trkpt><trkpt lat="43.729488320197696" lon="11.35860568983831"><ele>238.66666666666669</ele><time>2026-04-19T14:55:12.999Z</time></trkpt><trkpt lat="43.729471953250794" lon="11.358330232638913"><ele>238.33333333333331</ele><time>2026-04-19T14:55:13.999Z</time></trkpt><trkpt lat="43.729459675639184" lon="11.358060924037936"><ele>238.0</ele><time>2026-04-19T14:55:14.999Z</time></trkpt><trkpt lat="43.72944781700748" lon="11.35778491862638"><ele>238.0</ele><time>2026-04-19T14:55:15.999Z</time></trkpt><trkpt lat="43.7294356077692" lon="11.357508375473223"><ele>238.0</ele><time>2026-04-19T14:55:16.999Z</time></trkpt><trkpt lat="43.72942018719092" lon="11.35723070360737"><ele>238.0</ele><time>2026-04-19T14:55:17.999Z</time></trkpt><trkpt lat="43.72940417175989" lon="11.356957213711073"><ele>233.66666666666666</ele><time>2026-04-19T14:55:18.999Z</time></trkpt><trkpt lat="43.72938834827171" lon="11.356688983783394"><ele>229.33333333333331</ele><time>2026-04-19T14:55:19.999Z</time></trkpt><trkpt lat="43.72937245639736" lon="11.356414220126743"><ele>225.0</ele><time>2026-04-19T14:55:20.999Z</time></trkpt><trkpt lat="43.72935523087265" lon="11.356139209859373"><ele>224.66666666666669</ele><time>2026-04-19T14:55:21.999Z</time></trkpt><trkpt lat="43.72933886452563" lon="11.355867443597345"><ele>224.33333333333334</ele><time>2026-04-19T14:55:22.999Z</time></trkpt><trkpt lat="43.7293216799308" lon="11.355592471787904"><ele>224.0</ele><time>2026-04-19T14:55:23.999Z</time></trkpt><trkpt lat="43.72930453493998" lon="11.355312708397376"><ele>223.33333333333334</ele><time>2026-04-19T14:55:24.999Z</time></trkpt><trkpt lat="43.729280646895994" lon="11.35502633961379"><ele>222.66666666666669</ele><time>2026-04-19T14:55:25.999Z</time></trkpt><trkpt lat="43.72925116129448" lon="11.354733541627436"><ele>222.0</ele><time>2026-04-19T14:55:26.999Z</time></trkpt><trkpt lat="43.72922376229317" lon="11.354440476507945"><ele>221.66666666666669</ele><time>2026-04-19T14:55:27.999Z</time></trkpt><trkpt lat="43.72919863493997" lon="11.35415062567085"><ele>221.33333333333334</ele><time>2026-04-19T14:55:28.999Z</time></trkpt><trkpt lat="43.72917147224641" lon="11.353862156212283"><ele>221.0</ele><time>2026-04-19T14:55:29.999Z</time></trkpt><trkpt lat="43.72913819287259" lon="11.353571684171232"><ele>220.33333333333334</ele><time>2026-04-19T14:55:30.999Z</time></trkpt><trkpt lat="43.72910204679298" lon="11.353284994112007"><ele>219.66666666666669</ele><time>2026-04-19T14:55:31.999Z</time></trkpt><trkpt lat="43.72906208216945" lon="11.353001325910736"><ele>219.0</ele><time>2026-04-19T14:55:32.999Z</time></trkpt><trkpt lat="43.72901827844893" lon="11.352710134112932"><ele>222.5</ele><time>2026-04-19T14:55:33.999Z</time></trkpt><trkpt lat="43.728973064147084" lon="11.352401881322706"><ele>226.0</ele><time>2026-04-19T14:55:34.999Z</time></trkpt><trkpt lat="43.72892394497644" lon="11.352086233244005"><ele>228.5</ele><time>2026-04-19T14:55:35.999Z</time></trkpt><trkpt lat="43.72886852067569" lon="11.351777124128724"><ele>231.0</ele><time>2026-04-19T14:55:36.999Z</time></trkpt><trkpt lat="43.72880174345156" lon="11.351478073544907"><ele>231.0</ele><time>2026-04-19T14:55:37.999Z</time></trkpt><trkpt lat="43.72872354422561" lon="11.351191092987007"><ele>231.0</ele><time>2026-04-19T14:55:38.999Z</time></trkpt><trkpt lat="43.72864508153754" lon="11.350909083148117"><ele>231.0</ele><time>2026-04-19T14:55:39.999Z</time></trkpt><trkpt lat="43.72857039740462" lon="11.35063978874099"><ele>221.33333333333331</ele><time>2026-04-19T14:55:40.999Z</time></trkpt><trkpt lat="43.72849968706193" lon="11.35037888978088"><ele>211.66666666666666</ele><time>2026-04-19T14:55:41.999Z</time></trkpt><trkpt lat="43.728432393461084" lon="11.35012679347209"><ele>202.0</ele><time>2026-04-19T14:55:42.999Z</time></trkpt><trkpt lat="43.72836608319" lon="11.34986949986681"><ele>204.0</ele><time>2026-04-19T14:55:43.999Z</time></trkpt><trkpt lat="43.72829858811636" lon="11.349610232692367"><ele>206.0</ele><time>2026-04-19T14:55:44.999Z</time></trkpt><trkpt lat="43.72823009223049" lon="11.349354206862264"><ele>208.0</ele><time>2026-04-19T14:55:45.999Z</time></trkpt><trkpt lat="43.728158720144414" lon="11.349095746251486"><ele>211.66666666666666</ele><time>2026-04-19T14:55:46.999Z</time></trkpt><trkpt lat="43.72808883882666" lon="11.348835038318734"><ele>215.33333333333331</ele><time>2026-04-19T14:55:47.999Z</time></trkpt><trkpt lat="43.72802065225102" lon="11.348565764811934"><ele>219.0</ele><time>2026-04-19T14:55:48.999Z</time></trkpt><trkpt lat="43.72795688354243" lon="11.34828097896668"><ele>220.5</ele><time>2026-04-19T14:55:49.999Z</time></trkpt><trkpt lat="43.7278973466741" lon="11.34797945346213"><ele>222.0</ele><time>2026-04-19T14:55:50.999Z</time></trkpt><trkpt lat="43.72784358663547" lon="11.347660115480313"><ele>222.0</ele><time>2026-04-19T14:55:51.999Z</time></trkpt><trkpt lat="43.727796662738044" lon="11.34733490750284"><ele>222.0</ele><time>2026-04-19T14:55:52.999Z</time></trkpt><trkpt lat="43.7277559496351" lon="11.347007796254674"><ele>213.0</ele><time>2026-04-19T14:55:53.999Z</time></trkpt><trkpt lat="43.727722945637666" lon="11.346677362339738"><ele>204.0</ele><time>2026-04-19T14:55:54.999Z</time></trkpt><trkpt lat="43.727699790232144" lon="11.346345434880611"><ele>203.5</ele><time>2026-04-19T14:55:55.998Z</time></trkpt><trkpt lat="43.727687188332276" lon="11.346009470432877"><ele>203.0</ele><time>2026-04-19T14:55:56.998Z</time></trkpt><trkpt lat="43.72768407278041" lon="11.345665106039624"><ele>201.0</ele><time>2026-04-19T14:55:57.998Z</time></trkpt><trkpt lat="43.727693940156385" lon="11.345314185618568"><ele>199.0</ele><time>2026-04-19T14:55:58.998Z</time></trkpt><trkpt lat="43.727713973731746" lon="11.344962357845501"><ele>201.5</ele><time>2026-04-19T14:55:59.998Z</time></trkpt><trkpt lat="43.7277446587244" lon="11.3446129854526"><ele>204.0</ele><time>2026-04-19T14:56:00.998Z</time></trkpt><trkpt lat="43.727785308284396" lon="11.344260376926153"><ele>204.0</ele><time>2026-04-19T14:56:01.998Z</time></trkpt><trkpt lat="43.72783829262869" lon="11.343901188786694"><ele>204.0</ele><time>2026-04-19T14:56:02.998Z</time></trkpt><trkpt lat="43.72790246190765" lon="11.343540424250456"><ele>202.5</ele><time>2026-04-19T14:56:03.998Z</time></trkpt><trkpt lat="43.72797186869379" lon="11.343180096345758"><ele>201.0</ele><time>2026-04-19T14:56:04.998Z</time></trkpt><trkpt lat="43.72803956730593" lon="11.342816268119414"><ele>200.5</ele><time>2026-04-19T14:56:05.998Z</time></trkpt><trkpt lat="43.72810332394359" lon="11.342451407546374"><ele>200.0</ele><time>2026-04-19T14:56:06.997Z</time></trkpt><trkpt lat="43.72816861642766" lon="11.342086812085382"><ele>199.0</ele><time>2026-04-19T14:56:07.997Z</time></trkpt><trkpt lat="43.728239716828" lon="11.341727418137621"><ele>198.0</ele><time>2026-04-19T14:56:08.997Z</time></trkpt><trkpt lat="43.72831883786552" lon="11.341370573975682"><ele>196.5</ele><time>2026-04-19T14:56:09.997Z</time></trkpt><trkpt lat="43.728405060751534" lon="11.3410179773619"><ele>195.0</ele><time>2026-04-19T14:56:10.997Z</time></trkpt><trkpt lat="43.72849541931572" lon="11.340662255834067"><ele>189.0</ele><time>2026-04-19T14:56:11.997Z</time></trkpt><trkpt lat="43.728588121595216" lon="11.340308272378724"><ele>183.0</ele><time>2026-04-19T14:56:12.999Z</time></trkpt><trkpt lat="43.72868162102023" lon="11.339955121114723"><ele>182.5</ele><time>2026-04-19T14:56:13.999Z</time></trkpt><trkpt lat="43.72877530193865" lon="11.339602851996807"><ele>182.0</ele><time>2026-04-19T14:56:14.999Z</time></trkpt><trkpt lat="43.72886960947444" lon="11.339254794997863"><ele>182.0</ele><time>2026-04-19T14:56:15.999Z</time></trkpt><trkpt lat="43.72896458677233" lon="11.338907806381899"><ele>182.0</ele><time>2026-04-19T14:56:16.999Z</time></trkpt><trkpt lat="43.729060242173226" lon="11.338560555130272"><ele>180.5</ele><time>2026-04-19T14:56:17.999Z</time></trkpt><trkpt lat="43.72915075729093" lon="11.338209443913486"><ele>179.0</ele><time>2026-04-19T14:56:18.999Z</time></trkpt><trkpt lat="43.729233436375274" lon="11.337854268416015"><ele>177.5</ele><time>2026-04-19T14:56:20Z</time></trkpt><trkpt lat="43.729312659693306" lon="11.33750152785646"><ele>176.0</ele><time>2026-04-19T14:56:20.999Z</time></trkpt><trkpt lat="43.72938635088799" lon="11.337143416430333"><ele>173.0</ele><time>2026-04-19T14:56:22Z</time></trkpt><trkpt lat="43.72945342526129" lon="11.336783250899396"><ele>170.0</ele><time>2026-04-19T14:56:23Z</time></trkpt><trkpt lat="43.729512676839924" lon="11.33642079405335"><ele>170.0</ele><time>2026-04-19T14:56:24Z</time></trkpt><trkpt lat="43.72956248158062" lon="11.336055948149268"><ele>170.0</ele><time>2026-04-19T14:56:25Z</time></trkpt><trkpt lat="43.72960433265356" lon="11.33568667098547"><ele>171.0</ele><time>2026-04-19T14:56:26Z</time></trkpt><trkpt lat="43.7296405427274" lon="11.33532044247896"><ele>172.0</ele><time>2026-04-19T14:56:27Z</time></trkpt><trkpt lat="43.72966998805063" lon="11.334953497988234"><ele>172.0</ele><time>2026-04-19T14:56:27.999Z</time></trkpt><trkpt lat="43.729686727342404" lon="11.334585591210816"><ele>172.0</ele><time>2026-04-19T14:56:28.999Z</time></trkpt><trkpt lat="43.72968920122199" lon="11.334217155298917"><ele>170.0</ele><time>2026-04-19T14:56:29.999Z</time></trkpt><trkpt lat="43.72968203721401" lon="11.333845917481106"><ele>168.0</ele><time>2026-04-19T14:56:30.999Z</time></trkpt><trkpt lat="43.72967530628879" lon="11.3334713670079"><ele>168.0</ele><time>2026-04-19T14:56:31.999Z</time></trkpt><trkpt lat="43.72966964683705" lon="11.333094950339278"><ele>168.0</ele><time>2026-04-19T14:56:32.999Z</time></trkpt><trkpt lat="43.72966558450209" lon="11.332717026917324"><ele>167.0</ele><time>2026-04-19T14:56:33.999Z</time></trkpt><trkpt lat="43.72966343827942" lon="11.33233612025396"><ele>166.0</ele><time>2026-04-19T14:56:34.999Z</time></trkpt><trkpt lat="43.729664407698905" lon="11.331957181130882"><ele>165.0</ele><time>2026-04-19T14:56:35.999Z</time></trkpt><trkpt lat="43.72966513901943" lon="11.331577606427995"><ele>164.0</ele><time>2026-04-19T14:56:36.999Z</time></trkpt><trkpt lat="43.72966124321603" lon="11.331199527192211"><ele>160.5</ele><time>2026-04-19T14:56:37.999Z</time></trkpt><trkpt lat="43.72966116245327" lon="11.33082552732105"><ele>157.0</ele><time>2026-04-19T14:56:38.999Z</time></trkpt><trkpt lat="43.72966192088118" lon="11.330452767864726"><ele>154.5</ele><time>2026-04-19T14:56:39.999Z</time></trkpt><trkpt lat="43.729661842441665" lon="11.330080335006118"><ele>152.0</ele><time>2026-04-19T14:56:40.999Z</time></trkpt><trkpt lat="43.729661445534035" lon="11.329708717096246"><ele>150.5</ele><time>2026-04-19T14:56:41.999Z</time></trkpt><trkpt lat="43.72965911185984" lon="11.329338765235995"><ele>149.0</ele><time>2026-04-19T14:56:42.999Z</time></trkpt><trkpt lat="43.729655316399246" lon="11.328969190697826"><ele>147.5</ele><time>2026-04-19T14:56:43.999Z</time></trkpt><trkpt lat="43.729652682245515" lon="11.32859841336938"><ele>146.0</ele><time>2026-04-19T14:56:44.999Z</time></trkpt><trkpt lat="43.72965179508491" lon="11.328229642394202"><ele>145.0</ele><time>2026-04-19T14:56:45.999Z</time></trkpt><trkpt lat="43.72965048509197" lon="11.327858493119015"><ele>144.0</ele><time>2026-04-19T14:56:46.999Z</time></trkpt><trkpt lat="43.7296491862532" lon="11.327487903525824"><ele>143.0</ele><time>2026-04-19T14:56:47.999Z</time></trkpt><trkpt lat="43.729646194053515" lon="11.32711610593746"><ele>142.0</ele><time>2026-04-19T14:56:48.999Z</time></trkpt><trkpt lat="43.7296429116175" lon="11.326745838729156"><ele>141.5</ele><time>2026-04-19T14:56:49.999Z</time></trkpt><trkpt lat="43.729641447260825" lon="11.326377106766824"><ele>141.0</ele><time>2026-04-19T14:56:50.999Z</time></trkpt><trkpt lat="43.72964130114851" lon="11.326010559935426"><ele>141.0</ele><time>2026-04-19T14:56:51.999Z</time></trkpt><trkpt lat="43.7296419697104" lon="11.325647203021449"><ele>141.0</ele><time>2026-04-19T14:56:52.999Z</time></trkpt><trkpt lat="43.729647549535386" lon="11.325288650729018"><ele>143.0</ele><time>2026-04-19T14:56:53.999Z</time></trkpt><trkpt lat="43.72966005931596" lon="11.324926915407172"><ele>145.0</ele><time>2026-04-19T14:56:54.999Z</time></trkpt><trkpt lat="43.72967705428681" lon="11.324564703060888"><ele>146.5</ele><time>2026-04-19T14:56:55.999Z</time></trkpt><trkpt lat="43.72970260484288" lon="11.324204443169197"><ele>148.0</ele><time>2026-04-19T14:56:56.999Z</time></trkpt><trkpt lat="43.729736400896535" lon="11.323841853994956"><ele>148.0</ele><time>2026-04-19T14:56:57.999Z</time></trkpt><trkpt lat="43.72978136065106" lon="11.32347883113346"><ele>148.0</ele><time>2026-04-19T14:56:58.999Z</time></trkpt><trkpt lat="43.72983473166341" lon="11.323118161786084"><ele>146.0</ele><time>2026-04-19T14:56:59.999Z</time></trkpt><trkpt lat="43.72989134572138" lon="11.322757484949378"><ele>144.0</ele><time>2026-04-19T14:57:00.999Z</time></trkpt><trkpt lat="43.72995086430967" lon="11.322392400668388"><ele>141.5</ele><time>2026-04-19T14:57:01.999Z</time></trkpt><trkpt lat="43.73001075582008" lon="11.322025936954246"><ele>139.0</ele><time>2026-04-19T14:57:02.999Z</time></trkpt><trkpt lat="43.730072635935514" lon="11.321658639313208"><ele>136.5</ele><time>2026-04-19T14:57:03.999Z</time></trkpt><trkpt lat="43.730139134081064" lon="11.32129077313198"><ele>134.0</ele><time>2026-04-19T14:57:04.999Z</time></trkpt><trkpt lat="43.73020976498385" lon="11.320923550816952"><ele>138.5</ele><time>2026-04-19T14:57:05.999Z</time></trkpt><trkpt lat="43.730287789773726" lon="11.320531209797762"><ele>143.0</ele><time>2026-04-19T14:57:07.073Z</time></trkpt><trkpt lat="43.730360137171715" lon="11.320168799594153"><ele>134.0</ele><time>2026-04-19T14:57:08.067Z</time></trkpt><trkpt lat="43.730557067787466" lon="11.319434173774141"><ele>134.0</ele><time>2026-04-19T14:57:09.999Z</time></trkpt><trkpt lat="43.73064074391401" lon="11.319069079274504"><ele>134.0</ele><time>2026-04-19T14:57:10.999Z</time></trkpt><trkpt lat="43.730726721748155" lon="11.318686340233373"><ele>130.0</ele><time>2026-04-19T14:57:11.999Z</time></trkpt><trkpt lat="43.73081160215355" lon="11.318331619994261"><ele>126.0</ele><time>2026-04-19T14:57:12.999Z</time></trkpt><trkpt lat="43.73090317392643" lon="11.31797970281086"><ele>121.5</ele><time>2026-04-19T14:57:13.999Z</time></trkpt><trkpt lat="43.73097999699177" lon="11.317649440049617"><ele>117.0</ele><time>2026-04-19T14:57:14.999Z</time></trkpt><trkpt lat="43.73105668237058" lon="11.317329277779214"><ele>118.0</ele><time>2026-04-19T14:57:15.999Z</time></trkpt><trkpt lat="43.73113783099802" lon="11.316989630373914"><ele>119.0</ele><time>2026-04-19T14:57:16.999Z</time></trkpt><trkpt lat="43.73121931447342" lon="11.316644844635421"><ele>117.5</ele><time>2026-04-19T14:57:17.999Z</time></trkpt><trkpt lat="43.73130122226268" lon="11.316301395101679"><ele>116.0</ele><time>2026-04-19T14:57:18.999Z</time></trkpt><trkpt lat="43.73138119190051" lon="11.315952140398467"><ele>116.0</ele><time>2026-04-19T14:57:19.998Z</time></trkpt><trkpt lat="43.73146226915336" lon="11.315608481591736"><ele>116.0</ele><time>2026-04-19T14:57:20.998Z</time></trkpt><trkpt lat="43.73154029231197" lon="11.315258379742996"><ele>114.0</ele><time>2026-04-19T14:57:21.998Z</time></trkpt><trkpt lat="43.73161956630989" lon="11.314907424643414"><ele>112.0</ele><time>2026-04-19T14:57:22.998Z</time></trkpt><trkpt lat="43.7316988083693" lon="11.314555552159552"><ele>111.0</ele><time>2026-04-19T14:57:23.998Z</time></trkpt><trkpt lat="43.73177838348508" lon="11.31420251329273"><ele>110.0</ele><time>2026-04-19T14:57:24.998Z</time></trkpt><trkpt lat="43.731856852993296" lon="11.313843750825429"><ele>121.5</ele><time>2026-04-19T14:57:25.998Z</time></trkpt><trkpt lat="43.73193662628206" lon="11.313486166114888"><ele>133.0</ele><time>2026-04-19T14:57:26.998Z</time></trkpt><trkpt lat="43.73201684458816" lon="11.313131472914923"><ele>130.0</ele><time>2026-04-19T14:57:27.998Z</time></trkpt><trkpt lat="43.732097542426125" lon="11.312775786905595"><ele>127.0</ele><time>2026-04-19T14:57:28.998Z</time></trkpt><trkpt lat="43.73217785055759" lon="11.312415354191513"><ele>121.0</ele><time>2026-04-19T14:57:29.998Z</time></trkpt><trkpt lat="43.73225901109557" lon="11.31205761731173"><ele>115.0</ele><time>2026-04-19T14:57:30.998Z</time></trkpt><trkpt lat="43.732340234619365" lon="11.311700221686788"><ele>111.5</ele><time>2026-04-19T14:57:31.998Z</time></trkpt><trkpt lat="43.73242201232768" lon="11.311339283163397"><ele>108.0</ele><time>2026-04-19T14:57:32.998Z</time></trkpt><trkpt lat="43.732500331487856" lon="11.310978170176266"><ele>108.0</ele><time>2026-04-19T14:57:33.998Z</time></trkpt><trkpt lat="43.73257268288325" lon="11.310618600193179"><ele>108.0</ele><time>2026-04-19T14:57:34.998Z</time></trkpt><trkpt lat="43.73264277403668" lon="11.310260248918235"><ele>107.0</ele><time>2026-04-19T14:57:35.998Z</time></trkpt><trkpt lat="43.732714548149055" lon="11.309901076057042"><ele>106.0</ele><time>2026-04-19T14:57:36.998Z</time></trkpt><trkpt lat="43.73279026118894" lon="11.309545482167538"><ele>106.0</ele><time>2026-04-19T14:57:37.998Z</time></trkpt><trkpt lat="43.732867000355334" lon="11.309186693096054"><ele>106.0</ele><time>2026-04-19T14:57:38.998Z</time></trkpt><trkpt lat="43.732946039666274" lon="11.308818749152387"><ele>103.5</ele><time>2026-04-19T14:57:39.998Z</time></trkpt><trkpt lat="43.73302931798971" lon="11.308453951027747"><ele>101.0</ele><time>2026-04-19T14:57:40.998Z</time></trkpt><trkpt lat="43.73311291367685" lon="11.308095980355652"><ele>100.0</ele><time>2026-04-19T14:57:41.998Z</time></trkpt><trkpt lat="43.733184977138926" lon="11.30773383037691"><ele>99.0</ele><time>2026-04-19T14:57:42.998Z</time></trkpt><trkpt lat="43.73324002089795" lon="11.307370816542317"><ele>98.0</ele><time>2026-04-19T14:57:43.998Z</time></trkpt><trkpt lat="43.73328186337028" lon="11.307001326270752"><ele>97.0</ele><time>2026-04-19T14:57:44.998Z</time></trkpt><trkpt lat="43.733313980975254" lon="11.306630834705219"><ele>96.5</ele><time>2026-04-19T14:57:45.998Z</time></trkpt><trkpt lat="43.73333479844241" lon="11.306262999689848"><ele>96.0</ele><time>2026-04-19T14:57:46.998Z</time></trkpt><trkpt lat="43.73334232320841" lon="11.305893582497509"><ele>95.5</ele><time>2026-04-19T14:57:47.998Z</time></trkpt><trkpt lat="43.73334106996884" lon="11.305523327380829"><ele>95.0</ele><time>2026-04-19T14:57:48.998Z</time></trkpt><trkpt lat="43.73333886535305" lon="11.305155518460456"><ele>95.0</ele><time>2026-04-19T14:57:49.998Z</time></trkpt><trkpt lat="43.733334981187824" lon="11.304787117281858"><ele>95.0</ele><time>2026-04-19T14:57:50.998Z</time></trkpt><trkpt lat="43.73333280714134" lon="11.304416846927165"><ele>95.0</ele><time>2026-04-19T14:57:51.998Z</time></trkpt><trkpt lat="43.73333331929235" lon="11.304046367616325"><ele>95.0</ele><time>2026-04-19T14:57:52.998Z</time></trkpt><trkpt lat="43.73333829617562" lon="11.303670800125847"><ele>95.0</ele><time>2026-04-19T14:57:53.998Z</time></trkpt><trkpt lat="43.73334941417657" lon="11.303296707635962"><ele>95.0</ele><time>2026-04-19T14:57:54.998Z</time></trkpt><trkpt lat="43.73337094378313" lon="11.3029235670242"><ele>94.5</ele><time>2026-04-19T14:57:55.998Z</time></trkpt><trkpt lat="43.733407277013896" lon="11.30255200275601"><ele>94.0</ele><time>2026-04-19T14:57:56.998Z</time></trkpt><trkpt lat="43.73346432465125" lon="11.302187935651586"><ele>94.0</ele><time>2026-04-19T14:57:57.998Z</time></trkpt><trkpt lat="43.73354336818241" lon="11.301828008282014"><ele>94.0</ele><time>2026-04-19T14:57:58.998Z</time></trkpt><trkpt lat="43.73364519624911" lon="11.30148184525873"><ele>101.0</ele><time>2026-04-19T14:57:59.998Z</time></trkpt><trkpt lat="43.73376883436755" lon="11.301144251272403"><ele>108.0</ele><time>2026-04-19T14:58:00.998Z</time></trkpt><trkpt lat="43.733910990267596" lon="11.300822092705713"><ele>103.5</ele><time>2026-04-19T14:58:01.998Z</time></trkpt><trkpt lat="43.73406870917682" lon="11.300512035278935"><ele>99.0</ele><time>2026-04-19T14:58:02.998Z</time></trkpt><trkpt lat="43.73423788765646" lon="11.300208615466927"><ele>101.0</ele><time>2026-04-19T14:58:03.998Z</time></trkpt><trkpt lat="43.73441719525241" lon="11.299913137204276"><ele>103.0</ele><time>2026-04-19T14:58:04.998Z</time></trkpt><trkpt lat="43.73460301826485" lon="11.299629873501042"><ele>103.0</ele><time>2026-04-19T14:58:05.998Z</time></trkpt><trkpt lat="43.734796090093106" lon="11.299354939264024"><ele>103.0</ele><time>2026-04-19T14:58:06.998Z</time></trkpt><trkpt lat="43.73499149255784" lon="11.299085900394"><ele>101.5</ele><time>2026-04-19T14:58:07.998Z</time></trkpt><trkpt lat="43.73518419388567" lon="11.29881876065076"><ele>100.0</ele><time>2026-04-19T14:58:08.998Z</time></trkpt><trkpt lat="43.735372322195346" lon="11.298546706689887"><ele>100.0</ele><time>2026-04-19T14:58:09.998Z</time></trkpt><trkpt lat="43.73554980292215" lon="11.298269671879645"><ele>100.0</ele><time>2026-04-19T14:58:10.997Z</time></trkpt><trkpt lat="43.73572004363659" lon="11.297983955942035"><ele>97.0</ele><time>2026-04-19T14:58:11.997Z</time></trkpt><trkpt lat="43.73587968090091" lon="11.297687720147682"><ele>94.0</ele><time>2026-04-19T14:58:12.997Z</time></trkpt><trkpt lat="43.73602753170133" lon="11.297383300245047"><ele>90.0</ele><time>2026-04-19T14:58:13.997Z</time></trkpt><trkpt lat="43.73616180230967" lon="11.297073829631735"><ele>86.0</ele><time>2026-04-19T14:58:14.997Z</time></trkpt><trkpt lat="43.736281689349155" lon="11.296759992606997"><ele>86.0</ele><time>2026-04-19T14:58:15.997Z</time></trkpt><trkpt lat="43.736395141803726" lon="11.296437911315055"><ele>86.0</ele><time>2026-04-19T14:58:16.997Z</time></trkpt><trkpt lat="43.736501434449565" lon="11.296113318806936"><ele>85.0</ele><time>2026-04-19T14:58:17.997Z</time></trkpt><trkpt lat="43.7365973381983" lon="11.295779174048208"><ele>84.0</ele><time>2026-04-19T14:58:19Z</time></trkpt><trkpt lat="43.73668304399947" lon="11.295435682358738"><ele>84.0</ele><time>2026-04-19T14:58:20Z</time></trkpt><trkpt lat="43.73675915066042" lon="11.29508130195077"><ele>84.0</ele><time>2026-04-19T14:58:21Z</time></trkpt><trkpt lat="43.73682917651795" lon="11.294723711293702"><ele>81.5</ele><time>2026-04-19T14:58:22Z</time></trkpt><trkpt lat="43.736895634528985" lon="11.29436853020919"><ele>79.0</ele><time>2026-04-19T14:58:23Z</time></trkpt><trkpt lat="43.736960027219155" lon="11.294016802848498"><ele>79.5</ele><time>2026-04-19T14:58:24Z</time></trkpt><trkpt lat="43.737028152000626" lon="11.293666353316391"><ele>80.0</ele><time>2026-04-19T14:58:25Z</time></trkpt><trkpt lat="43.73710616666538" lon="11.293312748507768"><ele>83.0</ele><time>2026-04-19T14:58:26Z</time></trkpt><trkpt lat="43.73719272315459" lon="11.292952229101349"><ele>86.0</ele><time>2026-04-19T14:58:27Z</time></trkpt><trkpt lat="43.73728960487135" lon="11.292589428698893"><ele>91.0</ele><time>2026-04-19T14:58:28Z</time></trkpt><trkpt lat="43.737396278651914" lon="11.29223006684097"><ele>96.0</ele><time>2026-04-19T14:58:29Z</time></trkpt><trkpt lat="43.73751202209323" lon="11.291875422826248"><ele>96.0</ele><time>2026-04-19T14:58:30Z</time></trkpt><trkpt lat="43.73763852867392" lon="11.291529883733356"><ele>96.0</ele><time>2026-04-19T14:58:31Z</time></trkpt><trkpt lat="43.73777079979591" lon="11.291187724914042"><ele>96.5</ele><time>2026-04-19T14:58:32Z</time></trkpt><trkpt lat="43.73791126064823" lon="11.290847997990447"><ele>97.0</ele><time>2026-04-19T14:58:33Z</time></trkpt><trkpt lat="43.7380600086339" lon="11.290519896144602"><ele>97.0</ele><time>2026-04-19T14:58:34Z</time></trkpt><trkpt lat="43.73821905403737" lon="11.290207493516318"><ele>97.0</ele><time>2026-04-19T14:58:35Z</time></trkpt><trkpt lat="43.73838223742635" lon="11.289904298236024"><ele>102.0</ele><time>2026-04-19T14:58:36Z</time></trkpt><trkpt lat="43.738540335404714" lon="11.28960649114101"><ele>107.0</ele><time>2026-04-19T14:58:37Z</time></trkpt><trkpt lat="43.738696512728986" lon="11.289309249353092"><ele>100.0</ele><time>2026-04-19T14:58:38Z</time></trkpt><trkpt lat="43.73884380062532" lon="11.289026112215263"><ele>93.0</ele><time>2026-04-19T14:58:39Z</time></trkpt><trkpt lat="43.73898707707282" lon="11.288749886081444"><ele>93.0</ele><time>2026-04-19T14:58:40Z</time></trkpt><trkpt lat="43.73912739119768" lon="11.28847537578782"><ele>93.0</ele><time>2026-04-19T14:58:41Z</time></trkpt><trkpt lat="43.73926336559245" lon="11.288198596863449"><ele>88.5</ele><time>2026-04-19T14:58:42Z</time></trkpt><trkpt lat="43.73939751683316" lon="11.287918640579376"><ele>84.0</ele><time>2026-04-19T14:58:42.999Z</time></trkpt><trkpt lat="43.739529809001404" lon="11.287638026209315"><ele>84.0</ele><time>2026-04-19T14:58:43.999Z</time></trkpt><trkpt lat="43.739659076800955" lon="11.28735075533987"><ele>84.0</ele><time>2026-04-19T14:58:44.999Z</time></trkpt><trkpt lat="43.73978167303896" lon="11.28705019091361"><ele>86.0</ele><time>2026-04-19T14:58:45.999Z</time></trkpt><trkpt lat="43.73989855038781" lon="11.286739293230822"><ele>88.0</ele><time>2026-04-19T14:58:46.999Z</time></trkpt><trkpt lat="43.7400086098858" lon="11.286420746131999"><ele>90.0</ele><time>2026-04-19T14:58:47.999Z</time></trkpt><trkpt lat="43.74011063880517" lon="11.286096968821862"><ele>92.0</ele><time>2026-04-19T14:58:48.999Z</time></trkpt><trkpt lat="43.74020214315881" lon="11.285768314007033"><ele>86.5</ele><time>2026-04-19T14:58:49.999Z</time></trkpt><trkpt lat="43.740284960780066" lon="11.28543295376297"><ele>81.0</ele><time>2026-04-19T14:58:50.999Z</time></trkpt><trkpt lat="43.74036021913475" lon="11.285092902565044"><ele>83.0</ele><time>2026-04-19T14:58:51.999Z</time></trkpt><trkpt lat="43.740427276924066" lon="11.28474311873795"><ele>85.0</ele><time>2026-04-19T14:58:52.999Z</time></trkpt><trkpt lat="43.74048641314559" lon="11.284385463921534"><ele>85.0</ele><time>2026-04-19T14:58:53.999Z</time></trkpt><trkpt lat="43.740537543450905" lon="11.284024681259385"><ele>85.0</ele><time>2026-04-19T14:58:54.999Z</time></trkpt><trkpt lat="43.74057903074126" lon="11.283659487218628"><ele>86.5</ele><time>2026-04-19T14:58:55.999Z</time></trkpt><trkpt lat="43.74061140967249" lon="11.283293049245273"><ele>88.0</ele><time>2026-04-19T14:58:56.999Z</time></trkpt><trkpt lat="43.74063621653923" lon="11.282922323730752"><ele>88.0</ele><time>2026-04-19T14:58:57.999Z</time></trkpt><trkpt lat="43.74065362892893" lon="11.282551956402672"><ele>88.0</ele><time>2026-04-19T14:58:58.999Z</time></trkpt><trkpt lat="43.7406645414872" lon="11.28217915561333"><ele>88.0</ele><time>2026-04-19T14:58:59.999Z</time></trkpt><trkpt lat="43.74067037035163" lon="11.281806693823517"><ele>88.0</ele><time>2026-04-19T14:59:00.999Z</time></trkpt><trkpt lat="43.740667221422" lon="11.281431564727693"><ele>88.0</ele><time>2026-04-19T14:59:01.999Z</time></trkpt><trkpt lat="43.74065018087291" lon="11.281060031671423"><ele>88.0</ele><time>2026-04-19T14:59:02.999Z</time></trkpt><trkpt lat="43.74062176583861" lon="11.280692225915898"><ele>86.5</ele><time>2026-04-19T14:59:03.999Z</time></trkpt><trkpt lat="43.74059285237393" lon="11.280326344186678"><ele>85.0</ele><time>2026-04-19T14:59:04.999Z</time></trkpt><trkpt lat="43.74056681674166" lon="11.279967236158098"><ele>83.5</ele><time>2026-04-19T14:59:05.999Z</time></trkpt><trkpt lat="43.74054100277962" lon="11.27961392330895"><ele>82.0</ele><time>2026-04-19T14:59:06.999Z</time></trkpt><trkpt lat="43.74051544476421" lon="11.279263114330933"><ele>80.0</ele><time>2026-04-19T14:59:07.999Z</time></trkpt><trkpt lat="43.74049040785426" lon="11.278914365606315"><ele>78.0</ele><time>2026-04-19T14:59:08.999Z</time></trkpt><trkpt lat="43.740463382485665" lon="11.278568815915575"><ele>78.0</ele><time>2026-04-19T14:59:09.999Z</time></trkpt><trkpt lat="43.74043550664743" lon="11.278224079036795"><ele>78.0</ele><time>2026-04-19T14:59:10.999Z</time></trkpt><trkpt lat="43.740408815157124" lon="11.277879658462401"><ele>78.5</ele><time>2026-04-19T14:59:11.999Z</time></trkpt><trkpt lat="43.74038229970936" lon="11.277526333637969"><ele>79.0</ele><time>2026-04-19T14:59:12.999Z</time></trkpt><trkpt lat="43.74035607157329" lon="11.277158773731461"><ele>77.5</ele><time>2026-04-19T14:59:13.999Z</time></trkpt><trkpt lat="43.74032745508625" lon="11.276772068485656"><ele>76.0</ele><time>2026-04-19T14:59:14.999Z</time></trkpt><trkpt lat="43.740296076747065" lon="11.276369035254346"><ele>75.0</ele><time>2026-04-19T14:59:15.999Z</time></trkpt><trkpt lat="43.74026162000586" lon="11.275957244096233"><ele>74.0</ele><time>2026-04-19T14:59:16.999Z</time></trkpt><trkpt lat="43.74022137692477" lon="11.275536706211941"><ele>79.0</ele><time>2026-04-19T14:59:17.999Z</time></trkpt><trkpt lat="43.74017105567456" lon="11.275122241975957"><ele>84.0</ele><time>2026-04-19T14:59:18.999Z</time></trkpt><trkpt lat="43.74010828284875" lon="11.27472096173712"><ele>85.0</ele><time>2026-04-19T14:59:19.999Z</time></trkpt><trkpt lat="43.740035752459754" lon="11.274332179659766"><ele>86.0</ele><time>2026-04-19T14:59:20.999Z</time></trkpt><trkpt lat="43.739948793118614" lon="11.27395607142209"><ele>83.0</ele><time>2026-04-19T14:59:21.999Z</time></trkpt><trkpt lat="43.739847548550074" lon="11.273591272333556"><ele>80.0</ele><time>2026-04-19T14:59:22.999Z</time></trkpt><trkpt lat="43.7397352562401" lon="11.273230579013578"><ele>77.5</ele><time>2026-04-19T14:59:23.999Z</time></trkpt><trkpt lat="43.73961382068655" lon="11.272877783137696"><ele>75.0</ele><time>2026-04-19T14:59:24.999Z</time></trkpt><trkpt lat="43.73947719123779" lon="11.272535988880444"><ele>78.5</ele><time>2026-04-19T14:59:25.999Z</time></trkpt><trkpt lat="43.73933119920865" lon="11.272207503798484"><ele>82.0</ele><time>2026-04-19T14:59:26.999Z</time></trkpt><trkpt lat="43.739171064141864" lon="11.271891163031238"><ele>82.0</ele><time>2026-04-19T14:59:27.999Z</time></trkpt><trkpt lat="43.7390038217967" lon="11.271582645336341"><ele>82.0</ele><time>2026-04-19T14:59:28.999Z</time></trkpt><trkpt lat="43.73883309843877" lon="11.271277854802289"><ele>80.5</ele><time>2026-04-19T14:59:29.999Z</time></trkpt><trkpt lat="43.73865994137846" lon="11.27097235020008"><ele>79.0</ele><time>2026-04-19T14:59:30.999Z</time></trkpt><trkpt lat="43.73848252049048" lon="11.270667778212822"><ele>82.0</ele><time>2026-04-19T14:59:31.999Z</time></trkpt><trkpt lat="43.73830440318893" lon="11.270370470739977"><ele>85.0</ele><time>2026-04-19T14:59:32.999Z</time></trkpt><trkpt lat="43.73812634987007" lon="11.270074539823465"><ele>85.0</ele><time>2026-04-19T14:59:33.999Z</time></trkpt><trkpt lat="43.73794956859818" lon="11.269775439117733"><ele>85.0</ele><time>2026-04-19T14:59:34.999Z</time></trkpt><trkpt lat="43.737776918027585" lon="11.269479858758702"><ele>86.0</ele><time>2026-04-19T14:59:35.998Z</time></trkpt><trkpt lat="43.7376037930299" lon="11.2691909692175"><ele>87.0</ele><time>2026-04-19T14:59:36.998Z</time></trkpt><trkpt lat="43.737431302871435" lon="11.268902539928273"><ele>84.0</ele><time>2026-04-19T14:59:37.998Z</time></trkpt><trkpt lat="43.73726299164476" lon="11.268613589126002"><ele>81.0</ele><time>2026-04-19T14:59:38.998Z</time></trkpt><trkpt lat="43.73709602790389" lon="11.268326589049899"><ele>77.5</ele><time>2026-04-19T14:59:39.998Z</time></trkpt><trkpt lat="43.73692597886427" lon="11.268042980610407"><ele>74.0</ele><time>2026-04-19T14:59:40.998Z</time></trkpt><trkpt lat="43.736757372940254" lon="11.267760207644734"><ele>77.5</ele><time>2026-04-19T14:59:41.998Z</time></trkpt><trkpt lat="43.73658915563238" lon="11.267478931746517"><ele>81.0</ele><time>2026-04-19T14:59:42.998Z</time></trkpt><trkpt lat="43.73642337042592" lon="11.267199064522725"><ele>81.0</ele><time>2026-04-19T14:59:43.998Z</time></trkpt><trkpt lat="43.736256770655324" lon="11.266920809503478"><ele>81.0</ele><time>2026-04-19T14:59:44.998Z</time></trkpt><trkpt lat="43.736087137483" lon="11.266646495637904"><ele>82.0</ele><time>2026-04-19T14:59:45.998Z</time></trkpt><trkpt lat="43.735915766231855" lon="11.266373713600021"><ele>83.0</ele><time>2026-04-19T14:59:46.998Z</time></trkpt><trkpt lat="43.73574772564681" lon="11.266098868196554"><ele>83.0</ele><time>2026-04-19T14:59:47.998Z</time></trkpt><trkpt lat="43.73558102649231" lon="11.265821835656507"><ele>83.0</ele><time>2026-04-19T14:59:48.998Z</time></trkpt><trkpt lat="43.735411100544155" lon="11.265542000487502"><ele>80.5</ele><time>2026-04-19T14:59:49.998Z</time></trkpt><trkpt lat="43.73524257722385" lon="11.265259225888949"><ele>78.0</ele><time>2026-04-19T14:59:50.998Z</time></trkpt><trkpt lat="43.735073470859554" lon="11.264974980891376"><ele>82.0</ele><time>2026-04-19T14:59:51.998Z</time></trkpt><trkpt lat="43.73490538504738" lon="11.264688899549636"><ele>86.0</ele><time>2026-04-19T14:59:52.998Z</time></trkpt><trkpt lat="43.73473614114731" lon="11.26440006083005"><ele>86.0</ele><time>2026-04-19T14:59:53.998Z</time></trkpt><trkpt lat="43.7345664960234" lon="11.26411093234369"><ele>86.0</ele><time>2026-04-19T14:59:54.998Z</time></trkpt><trkpt lat="43.73439686779594" lon="11.263818151174986"><ele>88.0</ele><time>2026-04-19T14:59:55.998Z</time></trkpt><trkpt lat="43.734226187236004" lon="11.263524158954825"><ele>90.0</ele><time>2026-04-19T14:59:56.998Z</time></trkpt><trkpt lat="43.73405483359137" lon="11.263231026661485"><ele>87.0</ele><time>2026-04-19T14:59:57.998Z</time></trkpt><trkpt lat="43.73388246708861" lon="11.262937193271442"><ele>84.0</ele><time>2026-04-19T14:59:58.998Z</time></trkpt><trkpt lat="43.73370693736969" lon="11.262641073167798"><ele>83.0</ele><time>2026-04-19T14:59:59.998Z</time></trkpt><trkpt lat="43.73353143975167" lon="11.262346730374393"><ele>82.0</ele><time>2026-04-19T15:00:00.998Z</time></trkpt><trkpt lat="43.73335605842092" lon="11.262048872280364"><ele>82.0</ele><time>2026-04-19T15:00:01.998Z</time></trkpt><trkpt lat="43.73318089848182" lon="11.261750190590247"><ele>82.0</ele><time>2026-04-19T15:00:02.998Z</time></trkpt><trkpt lat="43.733004846058016" lon="11.26145256783867"><ele>82.0</ele><time>2026-04-19T15:00:03.998Z</time></trkpt><trkpt lat="43.732828901460834" lon="11.261155471371955"><ele>82.0</ele><time>2026-04-19T15:00:04.998Z</time></trkpt><trkpt lat="43.73265654801835" lon="11.260860749895336"><ele>82.0</ele><time>2026-04-19T15:00:05.998Z</time></trkpt><trkpt lat="43.73248594603028" lon="11.260566008656435"><ele>82.0</ele><time>2026-04-19T15:00:06.998Z</time></trkpt><trkpt lat="43.73231459162685" lon="11.260274664678109"><ele>82.0</ele><time>2026-04-19T15:00:07.998Z</time></trkpt><trkpt lat="43.73214284196756" lon="11.25998424893886"><ele>82.0</ele><time>2026-04-19T15:00:08.998Z</time></trkpt><trkpt lat="43.73197023689056" lon="11.259695506176174"><ele>83.5</ele><time>2026-04-19T15:00:09.998Z</time></trkpt><trkpt lat="43.73179788251435" lon="11.259407511375967"><ele>85.0</ele><time>2026-04-19T15:00:10.998Z</time></trkpt><trkpt lat="43.73162813456662" lon="11.25912114162285"><ele>80.5</ele><time>2026-04-19T15:00:11.998Z</time></trkpt><trkpt lat="43.73145458085825" lon="11.258834119446979"><ele>76.0</ele><time>2026-04-19T15:00:12.998Z</time></trkpt><trkpt lat="43.73128382179903" lon="11.258547672388517"><ele>76.0</ele><time>2026-04-19T15:00:13.998Z</time></trkpt><trkpt lat="43.731109378762014" lon="11.25825466702426"><ele>76.0</ele><time>2026-04-19T15:00:14.998Z</time></trkpt><trkpt lat="43.7309343041639" lon="11.25796200424601"><ele>79.0</ele><time>2026-04-19T15:00:15.998Z</time></trkpt><trkpt lat="43.7307601047313" lon="11.257669735294732"><ele>82.0</ele><time>2026-04-19T15:00:16.998Z</time></trkpt><trkpt lat="43.730587333244735" lon="11.257380031263255"><ele>81.0</ele><time>2026-04-19T15:00:17.998Z</time></trkpt><trkpt lat="43.730414617689824" lon="11.257095269156663"><ele>80.0</ele><time>2026-04-19T15:00:18.998Z</time></trkpt><trkpt lat="43.73024705592191" lon="11.256811490911128"><ele>83.0</ele><time>2026-04-19T15:00:19.998Z</time></trkpt><trkpt lat="43.730080127621854" lon="11.256534960018712"><ele>86.0</ele><time>2026-04-19T15:00:20.998Z</time></trkpt><trkpt lat="43.72991910312681" lon="11.256256458799381"><ele>86.0</ele><time>2026-04-19T15:00:21.998Z</time></trkpt><trkpt lat="43.72976244791411" lon="11.255977562904375"><ele>86.0</ele><time>2026-04-19T15:00:22.998Z</time></trkpt><trkpt lat="43.72960753189212" lon="11.255705790887868"><ele>86.5</ele><time>2026-04-19T15:00:23.998Z</time></trkpt><trkpt lat="43.72945025703247" lon="11.255438378524612"><ele>87.0</ele><time>2026-04-19T15:00:25Z</time></trkpt><trkpt lat="43.72929448582886" lon="11.25517474254989"><ele>92.0</ele><time>2026-04-19T15:00:26Z</time></trkpt><trkpt lat="43.7291392221091" lon="11.25491367932174"><ele>97.0</ele><time>2026-04-19T15:00:27Z</time></trkpt><trkpt lat="43.72898459268902" lon="11.254651444579785"><ele>98.0</ele><time>2026-04-19T15:00:28Z</time></trkpt><trkpt lat="43.72883747110039" lon="11.254402949582792"><ele>99.0</ele><time>2026-04-19T15:00:29Z</time></trkpt><trkpt lat="43.72870045869063" lon="11.254167870923512"><ele>100.0</ele><time>2026-04-19T15:00:30Z</time></trkpt><trkpt lat="43.72856807213702" lon="11.253946460739037"><ele>101.0</ele><time>2026-04-19T15:00:31Z</time></trkpt><trkpt lat="43.728437591936114" lon="11.25373102061044"><ele>102.0</ele><time>2026-04-19T15:00:32Z</time></trkpt><trkpt lat="43.72830143108044" lon="11.253515136534068"><ele>102.0</ele><time>2026-04-19T15:00:33Z</time></trkpt><trkpt lat="43.728154489401945" lon="11.253298766940944"><ele>102.0</ele><time>2026-04-19T15:00:34Z</time></trkpt><trkpt lat="43.72800043038264" lon="11.253076549123955"><ele>102.0</ele><time>2026-04-19T15:00:35Z</time></trkpt><trkpt lat="43.72784405174049" lon="11.252848869840236"><ele>102.5</ele><time>2026-04-19T15:00:36Z</time></trkpt><trkpt lat="43.72768778791312" lon="11.252616616445742"><ele>103.0</ele><time>2026-04-19T15:00:37Z</time></trkpt><trkpt lat="43.72752978428811" lon="11.252378742628057"><ele>100.0</ele><time>2026-04-19T15:00:38Z</time></trkpt><trkpt lat="43.72736862626572" lon="11.252130921940806"><ele>97.0</ele><time>2026-04-19T15:00:39Z</time></trkpt><trkpt lat="43.727202790647056" lon="11.251873729245208"><ele>97.0</ele><time>2026-04-19T15:00:40Z</time></trkpt><trkpt lat="43.72703975650389" lon="11.25161116318423"><ele>97.0</ele><time>2026-04-19T15:00:41Z</time></trkpt><trkpt lat="43.72688215402599" lon="11.251348879707212"><ele>103.5</ele><time>2026-04-19T15:00:42Z</time></trkpt><trkpt lat="43.72672913408092" lon="11.251090427981659"><ele>110.0</ele><time>2026-04-19T15:00:43Z</time></trkpt><trkpt lat="43.7265776947284" lon="11.250832387912023"><ele>106.0</ele><time>2026-04-19T15:00:44Z</time></trkpt><trkpt lat="43.72642769903" lon="11.25057601601762"><ele>102.0</ele><time>2026-04-19T15:00:45Z</time></trkpt><trkpt lat="43.72627901757928" lon="11.250323238642476"><ele>102.0</ele><time>2026-04-19T15:00:46Z</time></trkpt><trkpt lat="43.72613013992635" lon="11.250072970561682"><ele>102.0</ele><time>2026-04-19T15:00:47Z</time></trkpt><trkpt lat="43.72598060926779" lon="11.249816172195352"><ele>105.5</ele><time>2026-04-19T15:00:48Z</time></trkpt><trkpt lat="43.72583161767516" lon="11.24956088395152"><ele>109.0</ele><time>2026-04-19T15:00:49Z</time></trkpt><trkpt lat="43.72568346503653" lon="11.249309090306872"><ele>109.0</ele><time>2026-04-19T15:00:50Z</time></trkpt><trkpt lat="43.725538831814" lon="11.24906567511572"><ele>109.0</ele><time>2026-04-19T15:00:51Z</time></trkpt><trkpt lat="43.72539679439678" lon="11.248829915184569"><ele>109.66666666666667</ele><time>2026-04-19T15:00:52Z</time></trkpt><trkpt lat="43.725255715781756" lon="11.24859807260818"><ele>110.33333333333334</ele><time>2026-04-19T15:00:53Z</time></trkpt><trkpt lat="43.72511455370881" lon="11.248364692458415"><ele>111.0</ele><time>2026-04-19T15:00:54Z</time></trkpt><trkpt lat="43.72497036858605" lon="11.248132526444772"><ele>113.0</ele><time>2026-04-19T15:00:55Z</time></trkpt><trkpt lat="43.72482484051802" lon="11.247902278015678"><ele>115.0</ele><time>2026-04-19T15:00:55.999Z</time></trkpt><trkpt lat="43.72468296077665" lon="11.247674320634584"><ele>117.0</ele><time>2026-04-19T15:00:56.999Z</time></trkpt><trkpt lat="43.72454295877409" lon="11.247449247314758"><ele>118.66666666666666</ele><time>2026-04-19T15:00:57.999Z</time></trkpt><trkpt lat="43.72440513689674" lon="11.247221416274085"><ele>120.33333333333333</ele><time>2026-04-19T15:00:58.999Z</time></trkpt><trkpt lat="43.724269693163535" lon="11.246993768965842"><ele>122.0</ele><time>2026-04-19T15:00:59.999Z</time></trkpt><trkpt lat="43.72413308223734" lon="11.24676471076482"><ele>122.0</ele><time>2026-04-19T15:01:00.999Z</time></trkpt><trkpt lat="43.72399714934506" lon="11.246531938297366"><ele>122.0</ele><time>2026-04-19T15:01:01.999Z</time></trkpt><trkpt lat="43.72386048739359" lon="11.246299565931256"><ele>122.0</ele><time>2026-04-19T15:01:02.999Z</time></trkpt><trkpt lat="43.72372070075605" lon="11.246064149022041"><ele>125.0</ele><time>2026-04-19T15:01:03.999Z</time></trkpt><trkpt lat="43.7235776030256" lon="11.245827274914236"><ele>128.0</ele><time>2026-04-19T15:01:04.999Z</time></trkpt><trkpt lat="43.72343118203682" lon="11.24558818384948"><ele>128.0</ele><time>2026-04-19T15:01:05.999Z</time></trkpt><trkpt lat="43.72328380656435" lon="11.245342869869697"><ele>128.0</ele><time>2026-04-19T15:01:06.999Z</time></trkpt><trkpt lat="43.7231373260348" lon="11.24509273514121"><ele>128.0</ele><time>2026-04-19T15:01:07.999Z</time></trkpt><trkpt lat="43.722990932003285" lon="11.244839414646853"><ele>128.0</ele><time>2026-04-19T15:01:08.999Z</time></trkpt><trkpt lat="43.72284902141804" lon="11.244586042292735"><ele>125.33333333333333</ele><time>2026-04-19T15:01:09.999Z</time></trkpt><trkpt lat="43.72271417596306" lon="11.244346846422706"><ele>122.66666666666666</ele><time>2026-04-19T15:01:10.999Z</time></trkpt><trkpt lat="43.72257114357231" lon="11.24410428004098"><ele>120.0</ele><time>2026-04-19T15:01:11.999Z</time></trkpt><trkpt lat="43.72242475623057" lon="11.2438564147634"><ele>120.0</ele><time>2026-04-19T15:01:12.999Z</time></trkpt><trkpt lat="43.72227453543504" lon="11.243607086968042"><ele>120.0</ele><time>2026-04-19T15:01:13.999Z</time></trkpt><trkpt lat="43.72212205942642" lon="11.243352008967644"><ele>122.5</ele><time>2026-04-19T15:01:14.999Z</time></trkpt><trkpt lat="43.72196874630858" lon="11.243095074028913"><ele>125.0</ele><time>2026-04-19T15:01:15.999Z</time></trkpt><trkpt lat="43.72181342380581" lon="11.242833871848196"><ele>119.5</ele><time>2026-04-19T15:01:16.999Z</time></trkpt><trkpt lat="43.72165257165079" lon="11.242561728658956"><ele>114.0</ele><time>2026-04-19T15:01:17.999Z</time></trkpt><trkpt lat="43.72149320954309" lon="11.242275691288054"><ele>114.0</ele><time>2026-04-19T15:01:18.999Z</time></trkpt><trkpt lat="43.72134552583768" lon="11.241961285782205"><ele>114.0</ele><time>2026-04-19T15:01:19.999Z</time></trkpt><trkpt lat="43.72121503381632" lon="11.24162462218392"><ele>113.0</ele><time>2026-04-19T15:01:20.999Z</time></trkpt><trkpt lat="43.72110384367813" lon="11.24127637543434"><ele>112.0</ele><time>2026-04-19T15:01:21.999Z</time></trkpt><trkpt lat="43.72101635012932" lon="11.24091478295996"><ele>106.5</ele><time>2026-04-19T15:01:22.999Z</time></trkpt><trkpt lat="43.72095717865625" lon="11.240547783101283"><ele>101.0</ele><time>2026-04-19T15:01:23.999Z</time></trkpt><trkpt lat="43.72091429491662" lon="11.240180415262142"><ele>101.0</ele><time>2026-04-19T15:01:24.999Z</time></trkpt><trkpt lat="43.72088513384577" lon="11.23981083997617"><ele>101.0</ele><time>2026-04-19T15:01:25.999Z</time></trkpt><trkpt lat="43.720872454594414" lon="11.239434676090456"><ele>100.5</ele><time>2026-04-19T15:01:26.999Z</time></trkpt><trkpt lat="43.72087735512203" lon="11.239044923694701"><ele>100.0</ele><time>2026-04-19T15:01:27.999Z</time></trkpt><trkpt lat="43.72090410293824" lon="11.238650763088168"><ele>101.0</ele><time>2026-04-19T15:01:28.999Z</time></trkpt><trkpt lat="43.720948697350686" lon="11.238244456141173"><ele>102.0</ele><time>2026-04-19T15:01:29.999Z</time></trkpt><trkpt lat="43.72099949503512" lon="11.237836470836525"><ele>99.5</ele><time>2026-04-19T15:01:30.999Z</time></trkpt><trkpt lat="43.72104923562166" lon="11.237429911110278"><ele>97.0</ele><time>2026-04-19T15:01:31.999Z</time></trkpt><trkpt lat="43.721097144907944" lon="11.237025249747523"><ele>97.0</ele><time>2026-04-19T15:01:32.999Z</time></trkpt><trkpt lat="43.72114275133252" lon="11.236619423422342"><ele>97.0</ele><time>2026-04-19T15:01:33.999Z</time></trkpt><trkpt lat="43.721188976164576" lon="11.23622055757737"><ele>96.5</ele><time>2026-04-19T15:01:34.999Z</time></trkpt><trkpt lat="43.721237480789455" lon="11.2358266645952"><ele>96.0</ele><time>2026-04-19T15:01:35.999Z</time></trkpt><trkpt lat="43.72128626085048" lon="11.235436532938277"><ele>95.0</ele><time>2026-04-19T15:01:36.999Z</time></trkpt><trkpt lat="43.72133290036572" lon="11.235064031744848"><ele>94.0</ele><time>2026-04-19T15:01:37.999Z</time></trkpt><trkpt lat="43.721373132289806" lon="11.23470278860994"><ele>92.0</ele><time>2026-04-19T15:01:38.999Z</time></trkpt><trkpt lat="43.721413610293396" lon="11.234351404793086"><ele>90.0</ele><time>2026-04-19T15:01:39.999Z</time></trkpt><trkpt lat="43.72145570667331" lon="11.23399987656626"><ele>91.0</ele><time>2026-04-19T15:01:40.999Z</time></trkpt><trkpt lat="43.72150001248355" lon="11.233656828665731"><ele>92.0</ele><time>2026-04-19T15:01:41.999Z</time></trkpt><trkpt lat="43.721543203935475" lon="11.233324656537974"><ele>96.0</ele><time>2026-04-19T15:01:42.999Z</time></trkpt><trkpt lat="43.72158165773944" lon="11.232988984666292"><ele>100.0</ele><time>2026-04-19T15:01:43.999Z</time></trkpt><trkpt lat="43.721609589886505" lon="11.232652379097964"><ele>100.0</ele><time>2026-04-19T15:01:44.999Z</time></trkpt><trkpt lat="43.72162779309985" lon="11.232309444771271"><ele>100.0</ele><time>2026-04-19T15:01:45.999Z</time></trkpt><trkpt lat="43.72165173305615" lon="11.231966301861554"><ele>105.5</ele><time>2026-04-19T15:01:46.998Z</time></trkpt><trkpt lat="43.72167858052607" lon="11.231626672610265"><ele>111.0</ele><time>2026-04-19T15:01:47.998Z</time></trkpt><trkpt lat="43.72170346885162" lon="11.231296901314396"><ele>116.0</ele><time>2026-04-19T15:01:48.998Z</time></trkpt><trkpt lat="43.721729509496946" lon="11.230971946350714"><ele>121.0</ele><time>2026-04-19T15:01:49.998Z</time></trkpt><trkpt lat="43.72176426687613" lon="11.230615551552868"><ele>124.0</ele><time>2026-04-19T15:01:51.066Z</time></trkpt><trkpt lat="43.721808364572844" lon="11.230278582228747"><ele>127.0</ele><time>2026-04-19T15:01:52.065Z</time></trkpt><trkpt lat="43.72184704534588" lon="11.229941071497677"><ele>126.0</ele><time>2026-04-19T15:01:53.062Z</time></trkpt><trkpt lat="43.72189006229211" lon="11.22959934639217"><ele>125.0</ele><time>2026-04-19T15:01:54.062Z</time></trkpt><trkpt lat="43.72195294917909" lon="11.229267014022662"><ele>74.0</ele><time>2026-04-19T15:01:55.058Z</time></trkpt><trkpt lat="43.722689958146944" lon="11.226253325091246"><ele>73.5</ele><time>2026-04-19T15:02:04.998Z</time></trkpt><trkpt lat="43.7227584083148" lon="11.225945792905971"><ele>73.0</ele><time>2026-04-19T15:02:05.998Z</time></trkpt><trkpt lat="43.72283833612104" lon="11.225602460227753"><ele>69.5</ele><time>2026-04-19T15:02:06.998Z</time></trkpt><trkpt lat="43.722910034934976" lon="11.225312819445602"><ele>66.0</ele><time>2026-04-19T15:02:07.998Z</time></trkpt><trkpt lat="43.72295972620409" lon="11.22498001218448"><ele>65.5</ele><time>2026-04-19T15:02:08.998Z</time></trkpt><trkpt lat="43.72301353058333" lon="11.22464979039848"><ele>65.0</ele><time>2026-04-19T15:02:09.998Z</time></trkpt><trkpt lat="43.72306604044858" lon="11.224305869832293"><ele>66.5</ele><time>2026-04-19T15:02:10.998Z</time></trkpt><trkpt lat="43.72311839832838" lon="11.223978510209244"><ele>68.0</ele><time>2026-04-19T15:02:11.998Z</time></trkpt><trkpt lat="43.72317569682054" lon="11.223652049273666"><ele>68.0</ele><time>2026-04-19T15:02:12.998Z</time></trkpt><trkpt lat="43.72324241759319" lon="11.223329432887812"><ele>68.0</ele><time>2026-04-19T15:02:13.998Z</time></trkpt><trkpt lat="43.723322844743656" lon="11.223009471118448"><ele>69.5</ele><time>2026-04-19T15:02:14.998Z</time></trkpt><trkpt lat="43.723412263130484" lon="11.222698478240545"><ele>71.0</ele><time>2026-04-19T15:02:15.998Z</time></trkpt><trkpt lat="43.723510667160795" lon="11.222394971669353"><ele>73.5</ele><time>2026-04-19T15:02:16.998Z</time></trkpt><trkpt lat="43.723617237559836" lon="11.222094627317636"><ele>76.0</ele><time>2026-04-19T15:02:17.998Z</time></trkpt><trkpt lat="43.72373073415999" lon="11.221798148933248"><ele>76.0</ele><time>2026-04-19T15:02:18.998Z</time></trkpt><trkpt lat="43.72385254079594" lon="11.22150593105603"><ele>76.0</ele><time>2026-04-19T15:02:19.998Z</time></trkpt><trkpt lat="43.723984142211066" lon="11.221220056637783"><ele>78.5</ele><time>2026-04-19T15:02:20.998Z</time></trkpt><trkpt lat="43.724125511430444" lon="11.220936874178939"><ele>81.0</ele><time>2026-04-19T15:02:21.998Z</time></trkpt><trkpt lat="43.72427816239713" lon="11.220659796630349"><ele>77.5</ele><time>2026-04-19T15:02:22.998Z</time></trkpt><trkpt lat="43.72443850468702" lon="11.2203818256485"><ele>74.0</ele><time>2026-04-19T15:02:23.998Z</time></trkpt><trkpt lat="43.724599604503155" lon="11.220103734478121"><ele>74.0</ele><time>2026-04-19T15:02:24.998Z</time></trkpt><trkpt lat="43.72475989051086" lon="11.219821008433781"><ele>74.0</ele><time>2026-04-19T15:02:25.998Z</time></trkpt><trkpt lat="43.724917816588594" lon="11.21953689834972"><ele>79.5</ele><time>2026-04-19T15:02:26.998Z</time></trkpt><trkpt lat="43.72507781377191" lon="11.219252212467305"><ele>85.0</ele><time>2026-04-19T15:02:27.998Z</time></trkpt><trkpt lat="43.7252369453768" lon="11.218967349180197"><ele>86.5</ele><time>2026-04-19T15:02:28.998Z</time></trkpt><trkpt lat="43.72539416185212" lon="11.218684484091463"><ele>88.0</ele><time>2026-04-19T15:02:29.998Z</time></trkpt><trkpt lat="43.72555340911485" lon="11.218406090694293"><ele>90.5</ele><time>2026-04-19T15:02:31Z</time></trkpt><trkpt lat="43.72571376004348" lon="11.21813674198046"><ele>93.0</ele><time>2026-04-19T15:02:32Z</time></trkpt><trkpt lat="43.72587154111341" lon="11.217865155463317"><ele>93.0</ele><time>2026-04-19T15:02:33Z</time></trkpt><trkpt lat="43.726019968397196" lon="11.217586450425072"><ele>93.0</ele><time>2026-04-19T15:02:34Z</time></trkpt><trkpt lat="43.7261524860296" lon="11.217297861725353"><ele>88.0</ele><time>2026-04-19T15:02:35Z</time></trkpt><trkpt lat="43.72626680410817" lon="11.217000017368623"><ele>83.0</ele><time>2026-04-19T15:02:36Z</time></trkpt><trkpt lat="43.726369815377964" lon="11.216681266666528"><ele>86.0</ele><time>2026-04-19T15:02:37Z</time></trkpt><trkpt lat="43.72644717702378" lon="11.216360489117324"><ele>89.0</ele><time>2026-04-19T15:02:38Z</time></trkpt><trkpt lat="43.7265360853699" lon="11.216043144076094"><ele>89.0</ele><time>2026-04-19T15:02:39Z</time></trkpt><trkpt lat="43.726599968795625" lon="11.21571054267154"><ele>89.0</ele><time>2026-04-19T15:02:40Z</time></trkpt><trkpt lat="43.72664353342572" lon="11.215356878880682"><ele>91.5</ele><time>2026-04-19T15:02:41Z</time></trkpt><trkpt lat="43.72667587044607" lon="11.214987991180429"><ele>94.0</ele><time>2026-04-19T15:02:42Z</time></trkpt><trkpt lat="43.72670131029796" lon="11.21461111656784"><ele>94.5</ele><time>2026-04-19T15:02:43Z</time></trkpt><trkpt lat="43.72671974286123" lon="11.214234524768534"><ele>95.0</ele><time>2026-04-19T15:02:44Z</time></trkpt><trkpt lat="43.726739142127805" lon="11.213866856697901"><ele>95.5</ele><time>2026-04-19T15:02:45Z</time></trkpt><trkpt lat="43.726764802825656" lon="11.213504835589935"><ele>96.0</ele><time>2026-04-19T15:02:46Z</time></trkpt><trkpt lat="43.72679036639845" lon="11.213144473023561"><ele>97.5</ele><time>2026-04-19T15:02:47Z</time></trkpt><trkpt lat="43.72681653361149" lon="11.212786681501841"><ele>99.0</ele><time>2026-04-19T15:02:48Z</time></trkpt><trkpt lat="43.72684631981758" lon="11.212432183056192"><ele>99.0</ele><time>2026-04-19T15:02:49Z</time></trkpt><trkpt lat="43.726871820320014" lon="11.212081710497221"><ele>99.0</ele><time>2026-04-19T15:02:50Z</time></trkpt><trkpt lat="43.72689283923234" lon="11.21173658855929"><ele>104.5</ele><time>2026-04-19T15:02:51Z</time></trkpt><trkpt lat="43.726912817253165" lon="11.211398183864604"><ele>110.0</ele><time>2026-04-19T15:02:52Z</time></trkpt><trkpt lat="43.726934608824564" lon="11.211071571627915"><ele>110.0</ele><time>2026-04-19T15:02:53Z</time></trkpt><trkpt lat="43.726955775931636" lon="11.210764137156144"><ele>110.0</ele><time>2026-04-19T15:02:54Z</time></trkpt><trkpt lat="43.72697503584581" lon="11.210466160052599"><ele>110.0</ele><time>2026-04-19T15:02:55Z</time></trkpt><trkpt lat="43.72699510476865" lon="11.210169231612216"><ele>111.0</ele><time>2026-04-19T15:02:56Z</time></trkpt><trkpt lat="43.727015728566386" lon="11.209869621810205"><ele>112.0</ele><time>2026-04-19T15:02:57Z</time></trkpt><trkpt lat="43.727033468130955" lon="11.209572750289098"><ele>113.0</ele><time>2026-04-19T15:02:58Z</time></trkpt><trkpt lat="43.72704895009145" lon="11.20927692323753"><ele>112.66666666666666</ele><time>2026-04-19T15:02:59Z</time></trkpt><trkpt lat="43.727067240304734" lon="11.208977595967676"><ele>112.33333333333334</ele><time>2026-04-19T15:03:00Z</time></trkpt><trkpt lat="43.72708603562219" lon="11.208674968511174"><ele>112.0</ele><time>2026-04-19T15:03:01Z</time></trkpt><trkpt lat="43.72710616928014" lon="11.208374498715518"><ele>113.0</ele><time>2026-04-19T15:03:02Z</time></trkpt><trkpt lat="43.72712671499261" lon="11.208074961119632"><ele>114.0</ele><time>2026-04-19T15:03:03Z</time></trkpt><trkpt lat="43.727144730980164" lon="11.207764986879234"><ele>115.0</ele><time>2026-04-19T15:03:04Z</time></trkpt><trkpt lat="43.72716428337296" lon="11.207441199916177"><ele>117.0</ele><time>2026-04-19T15:03:05Z</time></trkpt><trkpt lat="43.72718809699505" lon="11.207118596046495"><ele>119.0</ele><time>2026-04-19T15:03:06Z</time></trkpt><trkpt lat="43.727215696194975" lon="11.2068012259142"><ele>121.0</ele><time>2026-04-19T15:03:07Z</time></trkpt><trkpt lat="43.72724925123715" lon="11.206484849071044"><ele>123.0</ele><time>2026-04-19T15:03:08Z</time></trkpt><trkpt lat="43.72729323230299" lon="11.206171561170054"><ele>123.0</ele><time>2026-04-19T15:03:09Z</time></trkpt><trkpt lat="43.72734872747473" lon="11.205861164316854"><ele>123.0</ele><time>2026-04-19T15:03:10Z</time></trkpt><trkpt lat="43.727413510968965" lon="11.205555015354774"><ele>128.5</ele><time>2026-04-19T15:03:10.999Z</time></trkpt><trkpt lat="43.7274917459087" lon="11.205254168649468"><ele>134.0</ele><time>2026-04-19T15:03:11.999Z</time></trkpt><trkpt lat="43.727584864212965" lon="11.204961722271399"><ele>138.0</ele><time>2026-04-19T15:03:12.999Z</time></trkpt><trkpt lat="43.727692189812196" lon="11.204679002371327"><ele>142.0</ele><time>2026-04-19T15:03:13.999Z</time></trkpt><trkpt lat="43.727811025332635" lon="11.204404807782021"><ele>147.5</ele><time>2026-04-19T15:03:14.999Z</time></trkpt><trkpt lat="43.727953251715284" lon="11.204123651445354"><ele>153.0</ele><time>2026-04-19T15:03:16.069Z</time></trkpt><trkpt lat="43.72809614162232" lon="11.203865688174698"><ele>155.5</ele><time>2026-04-19T15:03:17.061Z</time></trkpt><trkpt lat="43.72825013381977" lon="11.203602413775556"><ele>158.0</ele><time>2026-04-19T15:03:18.063Z</time></trkpt><trkpt lat="43.72840424830207" lon="11.203335900808593"><ele>160.0</ele><time>2026-04-19T15:03:19.063Z</time></trkpt><trkpt lat="43.728553012789185" lon="11.20307151269515"><ele>162.0</ele><time>2026-04-19T15:03:20.06Z</time></trkpt><trkpt lat="43.7301728194255" lon="11.200200032873513"><ele>110.0</ele><time>2026-04-19T15:03:33.707Z</time></trkpt><trkpt lat="43.73052355512046" lon="11.198797213104806"><ele>110.0</ele><time>2026-04-19T15:03:34.999Z</time></trkpt><trkpt lat="43.73080836700789" lon="11.198591512214959"><ele>110.0</ele><time>2026-04-19T15:03:35.999Z</time></trkpt><trkpt lat="43.73087682133304" lon="11.198231814042373"><ele>108.5</ele><time>2026-04-19T15:03:36.999Z</time></trkpt><trkpt lat="43.730924735375886" lon="11.197866273353638"><ele>107.0</ele><time>2026-04-19T15:03:37.999Z</time></trkpt><trkpt lat="43.73094993930708" lon="11.197497321678945"><ele>105.5</ele><time>2026-04-19T15:03:38.999Z</time></trkpt><trkpt lat="43.73095933342882" lon="11.197123717826742"><ele>104.0</ele><time>2026-04-19T15:03:39.999Z</time></trkpt><trkpt lat="43.73094825034703" lon="11.196743641088366"><ele>101.5</ele><time>2026-04-19T15:03:40.999Z</time></trkpt><trkpt lat="43.73092931589058" lon="11.196360269287538"><ele>99.0</ele><time>2026-04-19T15:03:41.999Z</time></trkpt><trkpt lat="43.7309161712864" lon="11.19597274547182"><ele>97.0</ele><time>2026-04-19T15:03:42.999Z</time></trkpt><trkpt lat="43.730906621208355" lon="11.195585399219338"><ele>95.0</ele><time>2026-04-19T15:03:43.999Z</time></trkpt><trkpt lat="43.73089606105866" lon="11.195197247220062"><ele>94.0</ele><time>2026-04-19T15:03:44.999Z</time></trkpt><trkpt lat="43.73089071375082" lon="11.194814360024136"><ele>93.0</ele><time>2026-04-19T15:03:45.999Z</time></trkpt><trkpt lat="43.73088791712678" lon="11.194439614115783"><ele>93.0</ele><time>2026-04-19T15:03:46.999Z</time></trkpt><trkpt lat="43.730886779834265" lon="11.194069146298524"><ele>93.0</ele><time>2026-04-19T15:03:47.999Z</time></trkpt><trkpt lat="43.730885044688236" lon="11.193706186087892"><ele>92.0</ele><time>2026-04-19T15:03:48.999Z</time></trkpt><trkpt lat="43.73088463752456" lon="11.19334661907417"><ele>91.0</ele><time>2026-04-19T15:03:49.999Z</time></trkpt><trkpt lat="43.730888755116226" lon="11.192986752619332"><ele>89.5</ele><time>2026-04-19T15:03:50.999Z</time></trkpt><trkpt lat="43.73090894495587" lon="11.192628664324932"><ele>88.0</ele><time>2026-04-19T15:03:51.999Z</time></trkpt><trkpt lat="43.730948238504475" lon="11.1922764143006"><ele>87.0</ele><time>2026-04-19T15:03:52.999Z</time></trkpt><trkpt lat="43.731003523156645" lon="11.191928340447326"><ele>86.0</ele><time>2026-04-19T15:03:53.999Z</time></trkpt><trkpt lat="43.731071836756755" lon="11.191585025266429"><ele>94.0</ele><time>2026-04-19T15:03:54.999Z</time></trkpt><trkpt lat="43.731155670232084" lon="11.191246330140231"><ele>102.0</ele><time>2026-04-19T15:03:55.999Z</time></trkpt><trkpt lat="43.731253508371964" lon="11.190919225529395"><ele>97.5</ele><time>2026-04-19T15:03:56.999Z</time></trkpt><trkpt lat="43.731363219784036" lon="11.190603433864489"><ele>93.0</ele><time>2026-04-19T15:03:57.999Z</time></trkpt><trkpt lat="43.73148581604124" lon="11.190301360924007"><ele>93.0</ele><time>2026-04-19T15:03:58.999Z</time></trkpt><trkpt lat="43.73161951286281" lon="11.190009686656637"><ele>93.0</ele><time>2026-04-19T15:03:59.999Z</time></trkpt><trkpt lat="43.73175921930845" lon="11.189743890215993"><ele>93.5</ele><time>2026-04-19T15:04:00.999Z</time></trkpt><trkpt lat="43.731909986788764" lon="11.189489838140926"><ele>94.0</ele><time>2026-04-19T15:04:01.999Z</time></trkpt><trkpt lat="43.73207379763537" lon="11.189242601873259"><ele>94.0</ele><time>2026-04-19T15:04:02.998Z</time></trkpt><trkpt lat="43.732249163040876" lon="11.189009644395497"><ele>94.0</ele><time>2026-04-19T15:04:03.998Z</time></trkpt><trkpt lat="43.732433149950666" lon="11.188785683265916"><ele>90.0</ele><time>2026-04-19T15:04:04.998Z</time></trkpt><trkpt lat="43.732627007086805" lon="11.188575787655449"><ele>86.0</ele><time>2026-04-19T15:04:05.998Z</time></trkpt><trkpt lat="43.732833475518454" lon="11.188387327848767"><ele>86.0</ele><time>2026-04-19T15:04:06.998Z</time></trkpt><trkpt lat="43.73305016014797" lon="11.188217647649205"><ele>86.0</ele><time>2026-04-19T15:04:07.998Z</time></trkpt><trkpt lat="43.733276146888876" lon="11.188062077579955"><ele>81.5</ele><time>2026-04-19T15:04:08.998Z</time></trkpt><trkpt lat="43.73351193639249" lon="11.187922547459236"><ele>77.0</ele><time>2026-04-19T15:04:09.998Z</time></trkpt><trkpt lat="43.73375684945438" lon="11.187794211807066"><ele>77.0</ele><time>2026-04-19T15:04:10.998Z</time></trkpt><trkpt lat="43.73400650016732" lon="11.187669082031954"><ele>77.0</ele><time>2026-04-19T15:04:11.998Z</time></trkpt><trkpt lat="43.734257648260645" lon="11.187541366717078"><ele>76.0</ele><time>2026-04-19T15:04:12.998Z</time></trkpt><trkpt lat="43.734507744308836" lon="11.187411077522999"><ele>75.0</ele><time>2026-04-19T15:04:13.998Z</time></trkpt><trkpt lat="43.73475714358789" lon="11.187279068092728"><ele>78.0</ele><time>2026-04-19T15:04:14.998Z</time></trkpt><trkpt lat="43.73500367586755" lon="11.187141567071674"><ele>81.0</ele><time>2026-04-19T15:04:15.998Z</time></trkpt><trkpt lat="43.73525086916364" lon="11.18700614474468"><ele>81.0</ele><time>2026-04-19T15:04:16.998Z</time></trkpt><trkpt lat="43.735498406541005" lon="11.186872573918953"><ele>81.0</ele><time>2026-04-19T15:04:17.998Z</time></trkpt><trkpt lat="43.73574530518867" lon="11.186734049422961"><ele>81.0</ele><time>2026-04-19T15:04:18.998Z</time></trkpt><trkpt lat="43.73599250738967" lon="11.186594852147815"><ele>81.0</ele><time>2026-04-19T15:04:19.998Z</time></trkpt><trkpt lat="43.73624005158531" lon="11.186453759636933"><ele>83.5</ele><time>2026-04-19T15:04:20.998Z</time></trkpt><trkpt lat="43.73648690433226" lon="11.186308012900318"><ele>86.0</ele><time>2026-04-19T15:04:21.998Z</time></trkpt><trkpt lat="43.7367231269337" lon="11.18616139189423"><ele>80.5</ele><time>2026-04-19T15:04:22.998Z</time></trkpt><trkpt lat="43.73695580453634" lon="11.186005748074455"><ele>75.0</ele><time>2026-04-19T15:04:23.998Z</time></trkpt><trkpt lat="43.737187828959634" lon="11.185841292709942"><ele>76.5</ele><time>2026-04-19T15:04:24.998Z</time></trkpt><trkpt lat="43.73741687270761" lon="11.18566844130274"><ele>78.0</ele><time>2026-04-19T15:04:25.998Z</time></trkpt><trkpt lat="43.73763927738818" lon="11.185489522397097"><ele>72.5</ele><time>2026-04-19T15:04:26.998Z</time></trkpt><trkpt lat="43.73786063640543" lon="11.185302056844415"><ele>67.0</ele><time>2026-04-19T15:04:27.998Z</time></trkpt><trkpt lat="43.73807933943397" lon="11.185109881945628"><ele>67.0</ele><time>2026-04-19T15:04:28.998Z</time></trkpt><trkpt lat="43.73829759245965" lon="11.18491481963078"><ele>67.0</ele><time>2026-04-19T15:04:29.998Z</time></trkpt><trkpt lat="43.738515810038805" lon="11.184720799262221"><ele>66.0</ele><time>2026-04-19T15:04:30.998Z</time></trkpt><trkpt lat="43.738731918473945" lon="11.18452290861812"><ele>65.0</ele><time>2026-04-19T15:04:31.998Z</time></trkpt><trkpt lat="43.73894672255871" lon="11.18432040231455"><ele>65.0</ele><time>2026-04-19T15:04:32.998Z</time></trkpt><trkpt lat="43.73916029008159" lon="11.18411756167069"><ele>65.0</ele><time>2026-04-19T15:04:33.998Z</time></trkpt><trkpt lat="43.7393756189297" lon="11.183913577141247"><ele>64.0</ele><time>2026-04-19T15:04:34.998Z</time></trkpt><trkpt lat="43.739591248922636" lon="11.183709925510406"><ele>63.0</ele><time>2026-04-19T15:04:35.998Z</time></trkpt><trkpt lat="43.73981066768984" lon="11.183507464757735"><ele>63.0</ele><time>2026-04-19T15:04:37Z</time></trkpt><trkpt lat="43.74003074649707" lon="11.183305887698067"><ele>63.0</ele><time>2026-04-19T15:04:38Z</time></trkpt><trkpt lat="43.740248642537885" lon="11.183098808032108"><ele>63.0</ele><time>2026-04-19T15:04:39Z</time></trkpt><trkpt lat="43.740467674888755" lon="11.18288697640267"><ele>63.0</ele><time>2026-04-19T15:04:40Z</time></trkpt><trkpt lat="43.740688161972834" lon="11.18268026340054"><ele>63.0</ele><time>2026-04-19T15:04:41Z</time></trkpt><trkpt lat="43.7409081540928" lon="11.182471355329481"><ele>63.0</ele><time>2026-04-19T15:04:42Z</time></trkpt><trkpt lat="43.74112743148111" lon="11.182260754739259"><ele>61.0</ele><time>2026-04-19T15:04:43Z</time></trkpt><trkpt lat="43.74134758080972" lon="11.182050201989322"><ele>59.0</ele><time>2026-04-19T15:04:44Z</time></trkpt><trkpt lat="43.741570219084444" lon="11.181842028345867"><ele>59.0</ele><time>2026-04-19T15:04:45Z</time></trkpt><trkpt lat="43.74179310497377" lon="11.181634867329347"><ele>59.0</ele><time>2026-04-19T15:04:46Z</time></trkpt><trkpt lat="43.742016672944395" lon="11.181425933630493"><ele>58.0</ele><time>2026-04-19T15:04:47Z</time></trkpt><trkpt lat="43.74224101689173" lon="11.181216675213872"><ele>57.0</ele><time>2026-04-19T15:04:48Z</time></trkpt><trkpt lat="43.74246587144134" lon="11.181006060868782"><ele>57.0</ele><time>2026-04-19T15:04:49Z</time></trkpt><trkpt lat="43.74269341954787" lon="11.18079503949054"><ele>57.0</ele><time>2026-04-19T15:04:50Z</time></trkpt><trkpt lat="43.74292006835287" lon="11.18058282947412"><ele>57.5</ele><time>2026-04-19T15:04:51Z</time></trkpt><trkpt lat="43.74314221080953" lon="11.180358491809876"><ele>58.0</ele><time>2026-04-19T15:04:52Z</time></trkpt><trkpt lat="43.74335340383762" lon="11.180118201556706"><ele>57.5</ele><time>2026-04-19T15:04:53Z</time></trkpt><trkpt lat="43.74354926831788" lon="11.179863080465168"><ele>57.0</ele><time>2026-04-19T15:04:54Z</time></trkpt><trkpt lat="43.74372168917792" lon="11.17959502891792"><ele>57.0</ele><time>2026-04-19T15:04:55Z</time></trkpt><trkpt lat="43.74387998492198" lon="11.179297129611019"><ele>57.0</ele><time>2026-04-19T15:04:56Z</time></trkpt><trkpt lat="43.74402560384848" lon="11.178982735121448"><ele>59.0</ele><time>2026-04-19T15:04:57Z</time></trkpt><trkpt lat="43.744159596180204" lon="11.17865804443871"><ele>61.0</ele><time>2026-04-19T15:04:58Z</time></trkpt><trkpt lat="43.74427943511915" lon="11.178322709899302"><ele>59.5</ele><time>2026-04-19T15:04:59Z</time></trkpt><trkpt lat="43.744389971311975" lon="11.177983251007412"><ele>58.0</ele><time>2026-04-19T15:05:00Z</time></trkpt><trkpt lat="43.744497019999486" lon="11.177643103296985"><ele>58.5</ele><time>2026-04-19T15:05:01Z</time></trkpt><trkpt lat="43.74459756115023" lon="11.177302853629824"><ele>59.0</ele><time>2026-04-19T15:05:02Z</time></trkpt><trkpt lat="43.74470011529138" lon="11.17695786124105"><ele>59.0</ele><time>2026-04-19T15:05:03Z</time></trkpt><trkpt lat="43.744801334033994" lon="11.176617570078186"><ele>59.0</ele><time>2026-04-19T15:05:04Z</time></trkpt><trkpt lat="43.74490264474578" lon="11.176279550610294"><ele>56.5</ele><time>2026-04-19T15:05:05Z</time></trkpt><trkpt lat="43.74500800551361" lon="11.175939728681287"><ele>54.0</ele><time>2026-04-19T15:05:06Z</time></trkpt><trkpt lat="43.7451173703527" lon="11.175603816547286"><ele>53.0</ele><time>2026-04-19T15:05:07Z</time></trkpt><trkpt lat="43.74523796497613" lon="11.175274451138543"><ele>52.0</ele><time>2026-04-19T15:05:08Z</time></trkpt><trkpt lat="43.74537391931428" lon="11.174953459401582"><ele>53.0</ele><time>2026-04-19T15:05:09Z</time></trkpt><trkpt lat="43.74552289782435" lon="11.174640920125936"><ele>54.0</ele><time>2026-04-19T15:05:10Z</time></trkpt><trkpt lat="43.74568767269906" lon="11.174341181097782"><ele>54.0</ele><time>2026-04-19T15:05:11Z</time></trkpt><trkpt lat="43.745867029879655" lon="11.17405477170662"><ele>54.0</ele><time>2026-04-19T15:05:12Z</time></trkpt><trkpt lat="43.74605829647196" lon="11.17378540758902"><ele>53.0</ele><time>2026-04-19T15:05:13Z</time></trkpt><trkpt lat="43.74626120625496" lon="11.173538053620003"><ele>52.0</ele><time>2026-04-19T15:05:14Z</time></trkpt><trkpt lat="43.74647597838524" lon="11.173308567068569"><ele>52.0</ele><time>2026-04-19T15:05:15Z</time></trkpt><trkpt lat="43.74670283201306" lon="11.173093732166953"><ele>52.0</ele><time>2026-04-19T15:05:16Z</time></trkpt><trkpt lat="43.74693655779661" lon="11.172899268736636"><ele>50.5</ele><time>2026-04-19T15:05:17Z</time></trkpt><trkpt lat="43.74718012595816" lon="11.172726809443558"><ele>49.0</ele><time>2026-04-19T15:05:18Z</time></trkpt><trkpt lat="43.747432844210564" lon="11.17257648916553"><ele>49.0</ele><time>2026-04-19T15:05:19Z</time></trkpt><trkpt lat="43.747689536375596" lon="11.172444924042226"><ele>49.0</ele><time>2026-04-19T15:05:20Z</time></trkpt><trkpt lat="43.747950571791" lon="11.172337809755277"><ele>49.0</ele><time>2026-04-19T15:05:21Z</time></trkpt><trkpt lat="43.748216807067486" lon="11.172256753494878"><ele>49.0</ele><time>2026-04-19T15:05:22Z</time></trkpt><trkpt lat="43.74848340346071" lon="11.172190564738262"><ele>49.0</ele><time>2026-04-19T15:05:23Z</time></trkpt><trkpt lat="43.74874929165223" lon="11.172132868681077"><ele>49.0</ele><time>2026-04-19T15:05:24Z</time></trkpt><trkpt lat="43.749014063480104" lon="11.172086170562"><ele>49.0</ele><time>2026-04-19T15:05:24.999Z</time></trkpt><trkpt lat="43.74927897748544" lon="11.172040262681454"><ele>49.0</ele><time>2026-04-19T15:05:25.999Z</time></trkpt><trkpt lat="43.749541107909394" lon="11.1719938703311"><ele>48.0</ele><time>2026-04-19T15:05:26.999Z</time></trkpt><trkpt lat="43.74980504095865" lon="11.171948323396949"><ele>47.0</ele><time>2026-04-19T15:05:27.999Z</time></trkpt><trkpt lat="43.750066202864645" lon="11.171901433409477"><ele>47.0</ele><time>2026-04-19T15:05:28.999Z</time></trkpt><trkpt lat="43.750323036297374" lon="11.171852790644147"><ele>47.0</ele><time>2026-04-19T15:05:29.999Z</time></trkpt><trkpt lat="43.7505790467777" lon="11.171801119916566"><ele>47.0</ele><time>2026-04-19T15:05:30.999Z</time></trkpt><trkpt lat="43.750836149237706" lon="11.171750746041546"><ele>47.0</ele><time>2026-04-19T15:05:31.999Z</time></trkpt><trkpt lat="43.75109363901112" lon="11.17170254938763"><ele>46.5</ele><time>2026-04-19T15:05:32.999Z</time></trkpt><trkpt lat="43.75135051336623" lon="11.17165710048781"><ele>46.0</ele><time>2026-04-19T15:05:33.999Z</time></trkpt><trkpt lat="43.75160902555625" lon="11.171611322105333"><ele>46.0</ele><time>2026-04-19T15:05:34.999Z</time></trkpt><trkpt lat="43.751865875374584" lon="11.171563600637828"><ele>46.0</ele><time>2026-04-19T15:05:35.999Z</time></trkpt><trkpt lat="43.7521222669626" lon="11.1715127044984"><ele>45.5</ele><time>2026-04-19T15:05:36.999Z</time></trkpt><trkpt lat="43.75238115475276" lon="11.171462777148863"><ele>45.0</ele><time>2026-04-19T15:05:37.999Z</time></trkpt><trkpt lat="43.75263974633935" lon="11.17141118077821"><ele>45.5</ele><time>2026-04-19T15:05:38.999Z</time></trkpt><trkpt lat="43.75289794945243" lon="11.171359757942996"><ele>46.0</ele><time>2026-04-19T15:05:39.999Z</time></trkpt><trkpt lat="43.753157458880125" lon="11.171310882847425"><ele>46.0</ele><time>2026-04-19T15:05:40.999Z</time></trkpt><trkpt lat="43.75341551771141" lon="11.171263890262193"><ele>46.0</ele><time>2026-04-19T15:05:41.999Z</time></trkpt><trkpt lat="43.75366999238003" lon="11.171219060097362"><ele>45.0</ele><time>2026-04-19T15:05:42.999Z</time></trkpt><trkpt lat="43.75392098283055" lon="11.171173563120725"><ele>44.0</ele><time>2026-04-19T15:05:43.999Z</time></trkpt><trkpt lat="43.75417133401038" lon="11.171127035701522"><ele>43.5</ele><time>2026-04-19T15:05:44.999Z</time></trkpt><trkpt lat="43.75442072224682" lon="11.171078750445249"><ele>43.0</ele><time>2026-04-19T15:05:45.999Z</time></trkpt><trkpt lat="43.75467372763614" lon="11.171032479492961"><ele>43.0</ele><time>2026-04-19T15:05:46.999Z</time></trkpt><trkpt lat="43.75492887320082" lon="11.170986854461564"><ele>43.0</ele><time>2026-04-19T15:05:47.999Z</time></trkpt><trkpt lat="43.755188150918805" lon="11.170938011062729"><ele>43.5</ele><time>2026-04-19T15:05:48.999Z</time></trkpt><trkpt lat="43.755455362512095" lon="11.170881177786478"><ele>44.0</ele><time>2026-04-19T15:05:49.999Z</time></trkpt><trkpt lat="43.755739263356396" lon="11.17081039626706"><ele>44.0</ele><time>2026-04-19T15:05:50.999Z</time></trkpt><trkpt lat="43.75603459607942" lon="11.170737815914269"><ele>44.0</ele><time>2026-04-19T15:05:51.999Z</time></trkpt><trkpt lat="43.756342445994726" lon="11.170680884145662"><ele>43.5</ele><time>2026-04-19T15:05:52.999Z</time></trkpt><trkpt lat="43.7566571826096" lon="11.170624480347485"><ele>43.0</ele><time>2026-04-19T15:05:53.999Z</time></trkpt><trkpt lat="43.75697186007204" lon="11.170569037312877"><ele>42.0</ele><time>2026-04-19T15:05:54.999Z</time></trkpt><trkpt lat="43.75728279368994" lon="11.1705164841678"><ele>41.0</ele><time>2026-04-19T15:05:55.999Z</time></trkpt><trkpt lat="43.757585530459224" lon="11.170465271993844"><ele>41.0</ele><time>2026-04-19T15:05:56.999Z</time></trkpt><trkpt lat="43.75788417011776" lon="11.170416262406752"><ele>41.0</ele><time>2026-04-19T15:05:57.999Z</time></trkpt><trkpt lat="43.758187597999374" lon="11.170355435514132"><ele>41.0</ele><time>2026-04-19T15:05:58.999Z</time></trkpt><trkpt lat="43.75850171067368" lon="11.170291784755497"><ele>41.0</ele><time>2026-04-19T15:05:59.999Z</time></trkpt><trkpt lat="43.75882141019961" lon="11.170227484237955"><ele>41.5</ele><time>2026-04-19T15:06:00.999Z</time></trkpt><trkpt lat="43.759142859897075" lon="11.170165249122263"><ele>42.0</ele><time>2026-04-19T15:06:01.999Z</time></trkpt><trkpt lat="43.759460490623816" lon="11.17010664431597"><ele>41.0</ele><time>2026-04-19T15:06:02.999Z</time></trkpt><trkpt lat="43.759774574501364" lon="11.170048522870626"><ele>40.0</ele><time>2026-04-19T15:06:03.999Z</time></trkpt><trkpt lat="43.76008640945092" lon="11.169993228366504"><ele>40.0</ele><time>2026-04-19T15:06:04.999Z</time></trkpt><trkpt lat="43.76039640250208" lon="11.169939190500424"><ele>40.0</ele><time>2026-04-19T15:06:05.999Z</time></trkpt><trkpt lat="43.760705400270886" lon="11.169884552029712"><ele>40.0</ele><time>2026-04-19T15:06:06.999Z</time></trkpt><trkpt lat="43.76101113597871" lon="11.169830946553684"><ele>40.0</ele><time>2026-04-19T15:06:07.999Z</time></trkpt><trkpt lat="43.76131360745003" lon="11.169772186074246"><ele>40.0</ele><time>2026-04-19T15:06:08.999Z</time></trkpt><trkpt lat="43.76161041423977" lon="11.169698351826261"><ele>40.0</ele><time>2026-04-19T15:06:09.999Z</time></trkpt><trkpt lat="43.761899213802664" lon="11.169607635505475"><ele>41.0</ele><time>2026-04-19T15:06:10.999Z</time></trkpt><trkpt lat="43.76218454520764" lon="11.169506995646545"><ele>42.0</ele><time>2026-04-19T15:06:11.999Z</time></trkpt><trkpt lat="43.76246567687797" lon="11.169397787529626"><ele>41.5</ele><time>2026-04-19T15:06:12.999Z</time></trkpt><trkpt lat="43.76274309597305" lon="11.169283145936927"><ele>41.0</ele><time>2026-04-19T15:06:13.999Z</time></trkpt><trkpt lat="43.76301688705828" lon="11.169163143564619"><ele>41.0</ele><time>2026-04-19T15:06:14.999Z</time></trkpt><trkpt lat="43.76329075269229" lon="11.169035325168837"><ele>41.0</ele><time>2026-04-19T15:06:15.998Z</time></trkpt><trkpt lat="43.7635642521749" lon="11.168900460013727"><ele>40.0</ele><time>2026-04-19T15:06:16.998Z</time></trkpt><trkpt lat="43.76383575825385" lon="11.168754834792418"><ele>39.0</ele><time>2026-04-19T15:06:17.998Z</time></trkpt><trkpt lat="43.764106242701445" lon="11.168598180624242"><ele>39.5</ele><time>2026-04-19T15:06:18.998Z</time></trkpt><trkpt lat="43.76437759675493" lon="11.16843130835239"><ele>40.0</ele><time>2026-04-19T15:06:19.998Z</time></trkpt><trkpt lat="43.76466819892613" lon="11.168239029785624"><ele>39.0</ele><time>2026-04-19T15:06:21.065Z</time></trkpt><trkpt lat="43.76494442409324" lon="11.168046679366356"><ele>38.0</ele><time>2026-04-19T15:06:22.07Z</time></trkpt><trkpt lat="43.76522467654637" lon="11.167848824475488"><ele>38.0</ele><time>2026-04-19T15:06:23.073Z</time></trkpt><trkpt lat="43.76550414683434" lon="11.167652760990125"><ele>38.0</ele><time>2026-04-19T15:06:24.062Z</time></trkpt><trkpt lat="43.765787158428026" lon="11.167457831593614"><ele>39.0</ele><time>2026-04-19T15:06:25.055Z</time></trkpt><trkpt lat="43.76710479198086" lon="11.1666727435316"><ele>38.0</ele><time>2026-04-19T15:06:29.998Z</time></trkpt><trkpt lat="43.767295305180205" lon="11.166381247831302"><ele>37.0</ele><time>2026-04-19T15:06:30.998Z</time></trkpt><trkpt lat="43.76755579319929" lon="11.166196650071345"><ele>37.5</ele><time>2026-04-19T15:06:31.998Z</time></trkpt><trkpt lat="43.76780671929388" lon="11.166004552994732"><ele>38.0</ele><time>2026-04-19T15:06:32.998Z</time></trkpt><trkpt lat="43.76806553969289" lon="11.165821026846775"><ele>38.0</ele><time>2026-04-19T15:06:33.998Z</time></trkpt><trkpt lat="43.76831416552275" lon="11.165631971286569"><ele>38.0</ele><time>2026-04-19T15:06:34.998Z</time></trkpt><trkpt lat="43.76856495025718" lon="11.165441402868106"><ele>39.0</ele><time>2026-04-19T15:06:35.998Z</time></trkpt><trkpt lat="43.768816774221705" lon="11.165252417779634"><ele>40.0</ele><time>2026-04-19T15:06:36.998Z</time></trkpt><trkpt lat="43.76906858910898" lon="11.165060135733519"><ele>40.0</ele><time>2026-04-19T15:06:37.998Z</time></trkpt><trkpt lat="43.769322515366504" lon="11.16487457800314"><ele>40.0</ele><time>2026-04-19T15:06:38.998Z</time></trkpt><trkpt lat="43.76957713998686" lon="11.164700721178914"><ele>38.5</ele><time>2026-04-19T15:06:39.998Z</time></trkpt><trkpt lat="43.769830431800976" lon="11.16452314943487"><ele>37.0</ele><time>2026-04-19T15:06:40.998Z</time></trkpt><trkpt lat="43.77007989481789" lon="11.164343718486016"><ele>37.0</ele><time>2026-04-19T15:06:41.998Z</time></trkpt><trkpt lat="43.7703353536509" lon="11.164171880326217"><ele>37.0</ele><time>2026-04-19T15:06:43Z</time></trkpt><trkpt lat="43.77059384568959" lon="11.164010743990103"><ele>36.5</ele><time>2026-04-19T15:06:44Z</time></trkpt><trkpt lat="43.770857651636376" lon="11.163849531606122"><ele>36.0</ele><time>2026-04-19T15:06:45Z</time></trkpt><trkpt lat="43.77112515514118" lon="11.163699209813712"><ele>37.0</ele><time>2026-04-19T15:06:46Z</time></trkpt><trkpt lat="43.77139293720489" lon="11.163557486831051"><ele>38.0</ele><time>2026-04-19T15:06:47Z</time></trkpt><trkpt lat="43.771662636582214" lon="11.163421352710051"><ele>37.0</ele><time>2026-04-19T15:06:48Z</time></trkpt><trkpt lat="43.77193487074993" lon="11.163294056546727"><ele>36.0</ele><time>2026-04-19T15:06:49Z</time></trkpt><trkpt lat="43.77220643179851" lon="11.163168921572652"><ele>35.5</ele><time>2026-04-19T15:06:50Z</time></trkpt><trkpt lat="43.772478787075414" lon="11.16305406825019"><ele>35.0</ele><time>2026-04-19T15:06:51Z</time></trkpt><trkpt lat="43.77275139089735" lon="11.162944872229223"><ele>35.0</ele><time>2026-04-19T15:06:52Z</time></trkpt><trkpt lat="43.7730248160451" lon="11.162843447360757"><ele>35.0</ele><time>2026-04-19T15:06:53Z</time></trkpt><trkpt lat="43.773298800049396" lon="11.162747788549636"><ele>34.0</ele><time>2026-04-19T15:06:54Z</time></trkpt><trkpt lat="43.77357441269158" lon="11.16265560781719"><ele>33.0</ele><time>2026-04-19T15:06:55Z</time></trkpt><trkpt lat="43.77384638284496" lon="11.162568753943193"><ele>33.0</ele><time>2026-04-19T15:06:56Z</time></trkpt><trkpt lat="43.77411897633193" lon="11.162486137589193"><ele>33.0</ele><time>2026-04-19T15:06:57Z</time></trkpt><trkpt lat="43.77439067511952" lon="11.162410391595957"><ele>34.0</ele><time>2026-04-19T15:06:58Z</time></trkpt><trkpt lat="43.77465877164166" lon="11.162337547943489"><ele>35.0</ele><time>2026-04-19T15:06:59Z</time></trkpt><trkpt lat="43.77492520422369" lon="11.16226423373445"><ele>35.0</ele><time>2026-04-19T15:07:00Z</time></trkpt><trkpt lat="43.77518707031246" lon="11.162194883331548"><ele>35.0</ele><time>2026-04-19T15:07:01Z</time></trkpt><trkpt lat="43.77543447510864" lon="11.162132621504869"><ele>34.5</ele><time>2026-04-19T15:07:02Z</time></trkpt><trkpt lat="43.775671040971645" lon="11.16206934319063"><ele>34.0</ele><time>2026-04-19T15:07:03Z</time></trkpt><trkpt lat="43.775894832700004" lon="11.162009256534937"><ele>35.0</ele><time>2026-04-19T15:07:04Z</time></trkpt><trkpt lat="43.77610794767144" lon="11.16194870624998"><ele>36.0</ele><time>2026-04-19T15:07:05Z</time></trkpt><trkpt lat="43.776308982390624" lon="11.161890684329801"><ele>37.0</ele><time>2026-04-19T15:07:06Z</time></trkpt><trkpt lat="43.776497984991934" lon="11.161835655976358"><ele>37.0</ele><time>2026-04-19T15:07:07Z</time></trkpt><trkpt lat="43.77667494293611" lon="11.161784093236346"><ele>37.0</ele><time>2026-04-19T15:07:08Z</time></trkpt><trkpt lat="43.7768402058076" lon="11.161738544908605"><ele>37.0</ele><time>2026-04-19T15:07:09Z</time></trkpt><trkpt lat="43.77699534104586" lon="11.16170281730016"><ele>36.25</ele><time>2026-04-19T15:07:10Z</time></trkpt><trkpt lat="43.77714191448449" lon="11.161687899262503"><ele>35.5</ele><time>2026-04-19T15:07:11Z</time></trkpt><trkpt lat="43.777272322115266" lon="11.161717502288532"><ele>34.75</ele><time>2026-04-19T15:07:12Z</time></trkpt><trkpt lat="43.777387042240434" lon="11.161788305360885"><ele>34.0</ele><time>2026-04-19T15:07:13Z</time></trkpt><trkpt lat="43.77749090612448" lon="11.16189786077932"><ele>34.0</ele><time>2026-04-19T15:07:14Z</time></trkpt><trkpt lat="43.77756432687693" lon="11.162034348633917"><ele>34.0</ele><time>2026-04-19T15:07:15Z</time></trkpt><trkpt lat="43.77762414147534" lon="11.16219065519296"><ele>34.0</ele><time>2026-04-19T15:07:16Z</time></trkpt><trkpt lat="43.77766283341628" lon="11.162361524035685"><ele>34.0</ele><time>2026-04-19T15:07:17Z</time></trkpt><trkpt lat="43.77767515593594" lon="11.162541056897387"><ele>34.0</ele><time>2026-04-19T15:07:18Z</time></trkpt><trkpt lat="43.777659392242974" lon="11.162715808210649"><ele>34.0</ele><time>2026-04-19T15:07:19Z</time></trkpt><trkpt lat="43.77761611484041" lon="11.162876077397767"><ele>34.0</ele><time>2026-04-19T15:07:20Z</time></trkpt><trkpt lat="43.777549959155536" lon="11.163030448805424"><ele>34.0</ele><time>2026-04-19T15:07:21Z</time></trkpt><trkpt lat="43.77745702519503" lon="11.163162650952813"><ele>34.0</ele><time>2026-04-19T15:07:22Z</time></trkpt><trkpt lat="43.777338174574645" lon="11.16327256613905"><ele>34.0</ele><time>2026-04-19T15:07:23Z</time></trkpt><trkpt lat="43.77721475071016" lon="11.163389631326197"><ele>34.0</ele><time>2026-04-19T15:07:24Z</time></trkpt><trkpt lat="43.777067014262045" lon="11.163467585772672"><ele>34.0</ele><time>2026-04-19T15:07:25Z</time></trkpt><trkpt lat="43.776934337455245" lon="11.16352510082026"><ele>34.0</ele><time>2026-04-19T15:07:26Z</time></trkpt><trkpt lat="43.77680746886903" lon="11.163572512539615"><ele>34.0</ele><time>2026-04-19T15:07:27Z</time></trkpt><trkpt lat="43.77667425929645" lon="11.16357776399039"><ele>34.0</ele><time>2026-04-19T15:07:28Z</time></trkpt><trkpt lat="43.776549930837504" lon="11.163564746039912"><ele>34.0</ele><time>2026-04-19T15:07:29Z</time></trkpt><trkpt lat="43.7764270732661" lon="11.16355353194448"><ele>34.0</ele><time>2026-04-19T15:07:30Z</time></trkpt><trkpt lat="43.77631213323727" lon="11.163548167315717"><ele>34.0</ele><time>2026-04-19T15:07:31Z</time></trkpt><trkpt lat="43.77620985666843" lon="11.163543393734773"><ele>34.0</ele><time>2026-04-19T15:07:32Z</time></trkpt><trkpt lat="43.77612786879731" lon="11.163549920418058"><ele>34.0</ele><time>2026-04-19T15:07:33Z</time></trkpt><trkpt lat="43.77605739950043" lon="11.16355943662655"><ele>33.833333333333336</ele><time>2026-04-19T15:07:34Z</time></trkpt><trkpt lat="43.77594843332319" lon="11.163578944764282"><ele>33.66666666666667</ele><time>2026-04-19T15:07:36Z</time></trkpt><trkpt lat="43.77588115591337" lon="11.163593886009636"><ele>33.5</ele><time>2026-04-19T15:07:37.999Z</time></trkpt><trkpt lat="43.77580181825449" lon="11.163616042047895"><ele>33.333333333333336</ele><time>2026-04-19T15:07:50.999Z</time></trkpt><trkpt lat="43.775721455883506" lon="11.163639877671551"><ele>33.166666666666664</ele><time>2026-04-19T15:08:07.999Z</time></trkpt><trkpt lat="43.77564935595449" lon="11.163661262640863"><ele>33.0</ele><time>2026-04-19T15:08:43.998Z</time></trkpt><trkpt lat="43.77556687732789" lon="11.163685725959454"><ele>33.0</ele><time>2026-04-19T15:11:03Z</time></trkpt><trkpt lat="43.775488275492265" lon="11.16370867451414"><ele>33.0</ele><time>2026-04-19T15:11:32.999Z</time></trkpt><trkpt lat="43.77540308817194" lon="11.163732018958497"><ele>33.0</ele><time>2026-04-19T15:12:01.999Z</time></trkpt><trkpt lat="43.7752583471622" lon="11.163766554461729"><ele>33.0</ele><time>2026-04-19T15:12:03.999Z</time></trkpt><trkpt lat="43.77517883443694" lon="11.163784391579982"><ele>33.0</ele><time>2026-04-19T15:12:04.999Z</time></trkpt><trkpt lat="43.77510234745794" lon="11.163801549911202"><ele>33.199999999999996</ele><time>2026-04-19T15:12:05.999Z</time></trkpt><trkpt lat="43.7750206881203" lon="11.163836286342558"><ele>33.4</ele><time>2026-04-19T15:12:06.999Z</time></trkpt><trkpt lat="43.77491040857656" lon="11.163897798165035"><ele>33.599999999999994</ele><time>2026-04-19T15:12:07.998Z</time></trkpt><trkpt lat="43.77479574504319" lon="11.163982619549369"><ele>33.8</ele><time>2026-04-19T15:12:08.998Z</time></trkpt><trkpt lat="43.77469385940519" lon="11.164056769321709"><ele>34.0</ele><time>2026-04-19T15:12:09.998Z</time></trkpt><trkpt lat="43.77459240649186" lon="11.16413059312699"><ele>34.0</ele><time>2026-04-19T15:12:10.998Z</time></trkpt><trkpt lat="43.7744899084209" lon="11.164204435606601"><ele>34.0</ele><time>2026-04-19T15:12:11.998Z</time></trkpt><trkpt lat="43.7743861620216" lon="11.164274225610539"><ele>34.0</ele><time>2026-04-19T15:12:12.998Z</time></trkpt><trkpt lat="43.77428296813578" lon="11.16434270071435"><ele>34.0</ele><time>2026-04-19T15:12:13.998Z</time></trkpt><trkpt lat="43.77417756525645" lon="11.164412459027002"><ele>34.0</ele><time>2026-04-19T15:12:14.998Z</time></trkpt><trkpt lat="43.77404394835345" lon="11.164376186358995"><ele>34.0</ele><time>2026-04-19T15:12:15.998Z</time></trkpt><trkpt lat="43.77392959730687" lon="11.164397614099313"><ele>34.0</ele><time>2026-04-19T15:12:16.998Z</time></trkpt><trkpt lat="43.77381225679266" lon="11.164412570383856"><ele>34.0</ele><time>2026-04-19T15:12:17.998Z</time></trkpt><trkpt lat="43.77368846225724" lon="11.164416097960286"><ele>34.0</ele><time>2026-04-19T15:12:18.998Z</time></trkpt><trkpt lat="43.7735693124873" lon="11.164408841026342"><ele>34.0</ele><time>2026-04-19T15:12:19.998Z</time></trkpt><trkpt lat="43.77346144021853" lon="11.164386445803824"><ele>34.0</ele><time>2026-04-19T15:12:20.998Z</time></trkpt><trkpt lat="43.77336971401063" lon="11.164358322050807"><ele>34.0</ele><time>2026-04-19T15:12:21.998Z</time></trkpt><trkpt lat="43.773306294774535" lon="11.164316705990482"><ele>34.0</ele><time>2026-04-19T15:12:22.998Z</time></trkpt><trkpt lat="43.77323480683121" lon="11.164228255316436"><ele>34.16666666666667</ele><time>2026-04-19T15:12:23.998Z</time></trkpt><trkpt lat="43.77317139854799" lon="11.164150731457607"><ele>34.333333333333336</ele><time>2026-04-19T15:12:24.998Z</time></trkpt><trkpt lat="43.77309966364465" lon="11.164068921241345"><ele>34.5</ele><time>2026-04-19T15:12:25.998Z</time></trkpt><trkpt lat="43.77307072106386" lon="11.163951411412407"><ele>34.666666666666664</ele><time>2026-04-19T15:12:26.998Z</time></trkpt><trkpt lat="43.77302814164615" lon="11.163838784835498"><ele>34.83333333333333</ele><time>2026-04-19T15:12:27.998Z</time></trkpt><trkpt lat="43.772994533378665" lon="11.163723020684177"><ele>35.0</ele><time>2026-04-19T15:12:28.998Z</time></trkpt><trkpt lat="43.77297463910589" lon="11.163604892246296"><ele>35.0</ele><time>2026-04-19T15:12:29.998Z</time></trkpt><trkpt lat="43.77295890254761" lon="11.163483600702058"><ele>35.0</ele><time>2026-04-19T15:12:30.998Z</time></trkpt><trkpt lat="43.77294772844075" lon="11.163356063924773"><ele>35.0</ele><time>2026-04-19T15:12:31.998Z</time></trkpt><trkpt lat="43.77294090579423" lon="11.1632228421211"><ele>35.0</ele><time>2026-04-19T15:12:32.998Z</time></trkpt><trkpt lat="43.77294066157141" lon="11.163083748935815"><ele>35.0</ele><time>2026-04-19T15:12:33.998Z</time></trkpt><trkpt lat="43.77295156806744" lon="11.162933664753936"><ele>35.0</ele><time>2026-04-19T15:12:34.998Z</time></trkpt><trkpt lat="43.77297330280519" lon="11.16277229330226"><ele>35.0</ele><time>2026-04-19T15:12:35.998Z</time></trkpt><trkpt lat="43.77297265758136" lon="11.162608822272636"><ele>35.0</ele><time>2026-04-19T15:12:36.998Z</time></trkpt><trkpt lat="43.77302479725317" lon="11.162443878455969"><ele>35.0</ele><time>2026-04-19T15:12:37.998Z</time></trkpt><trkpt lat="43.77305427408324" lon="11.16226614985205"><ele>35.0</ele><time>2026-04-19T15:12:38.998Z</time></trkpt><trkpt lat="43.77308162890327" lon="11.162079697900854"><ele>35.0</ele><time>2026-04-19T15:12:39.998Z</time></trkpt><trkpt lat="43.77311154003457" lon="11.161874442071506"><ele>35.0</ele><time>2026-04-19T15:12:40.998Z</time></trkpt><trkpt lat="43.773147236796966" lon="11.16167052426812"><ele>35.0</ele><time>2026-04-19T15:12:41.998Z</time></trkpt><trkpt lat="43.7731835905966" lon="11.161465538153383"><ele>35.33333333333333</ele><time>2026-04-19T15:12:42.998Z</time></trkpt><trkpt lat="43.773221150345314" lon="11.161252403589122"><ele>35.666666666666664</ele><time>2026-04-19T15:12:43.998Z</time></trkpt><trkpt lat="43.773258861017986" lon="11.161039884139168"><ele>36.0</ele><time>2026-04-19T15:12:44.998Z</time></trkpt><trkpt lat="43.773299129571015" lon="11.160821236699425"><ele>36.333333333333336</ele><time>2026-04-19T15:12:45.998Z</time></trkpt><trkpt lat="43.7733362388053" lon="11.160592141141244"><ele>36.66666666666667</ele><time>2026-04-19T15:12:46.998Z</time></trkpt><trkpt lat="43.7733751969215" lon="11.160350667478506"><ele>37.0</ele><time>2026-04-19T15:12:47.998Z</time></trkpt><trkpt lat="43.77341474806024" lon="11.160087446892524"><ele>36.333333333333336</ele><time>2026-04-19T15:12:48.998Z</time></trkpt><trkpt lat="43.77345453241289" lon="11.159808129681284"><ele>35.666666666666664</ele><time>2026-04-19T15:12:49.998Z</time></trkpt><trkpt lat="43.773496558330145" lon="11.15952124797935"><ele>35.0</ele><time>2026-04-19T15:12:50.998Z</time></trkpt><trkpt lat="43.773550048084175" lon="11.159226582489463"><ele>35.0</ele><time>2026-04-19T15:12:51.998Z</time></trkpt><trkpt lat="43.77360532738061" lon="11.158927455159027"><ele>35.0</ele><time>2026-04-19T15:12:52.998Z</time></trkpt><trkpt lat="43.773661067295386" lon="11.15863161407675"><ele>35.0</ele><time>2026-04-19T15:12:53.998Z</time></trkpt><trkpt lat="43.77371821662855" lon="11.158323964236306"><ele>35.0</ele><time>2026-04-19T15:12:54.998Z</time></trkpt><trkpt lat="43.773774480002935" lon="11.158015237034368"><ele>35.0</ele><time>2026-04-19T15:12:55.998Z</time></trkpt><trkpt lat="43.773833981615546" lon="11.1577111616187"><ele>35.0</ele><time>2026-04-19T15:12:56.998Z</time></trkpt><trkpt lat="43.77389282804127" lon="11.157409690349144"><ele>35.0</ele><time>2026-04-19T15:12:57.998Z</time></trkpt><trkpt lat="43.773949127153955" lon="11.1571057601273"><ele>35.5</ele><time>2026-04-19T15:12:58.998Z</time></trkpt><trkpt lat="43.7740036066472" lon="11.156802958636993"><ele>36.0</ele><time>2026-04-19T15:12:59.997Z</time></trkpt><trkpt lat="43.774053633195855" lon="11.15649762358435"><ele>36.0</ele><time>2026-04-19T15:13:01Z</time></trkpt><trkpt lat="43.7740944753243" lon="11.156190986659036"><ele>36.0</ele><time>2026-04-19T15:13:02Z</time></trkpt><trkpt lat="43.7741261858915" lon="11.155886860704662"><ele>36.0</ele><time>2026-04-19T15:13:03Z</time></trkpt><trkpt lat="43.77415369596052" lon="11.155580593929043"><ele>36.0</ele><time>2026-04-19T15:13:04Z</time></trkpt><trkpt lat="43.77417419112901" lon="11.155268351836032"><ele>36.0</ele><time>2026-04-19T15:13:05Z</time></trkpt><trkpt lat="43.7741922656649" lon="11.15496404939582"><ele>36.0</ele><time>2026-04-19T15:13:06Z</time></trkpt><trkpt lat="43.774205868330945" lon="11.154663922491082"><ele>36.0</ele><time>2026-04-19T15:13:07Z</time></trkpt><trkpt lat="43.774214592466734" lon="11.154361619956031"><ele>36.0</ele><time>2026-04-19T15:13:08Z</time></trkpt><trkpt lat="43.77421634398477" lon="11.15406374185281"><ele>36.0</ele><time>2026-04-19T15:13:09Z</time></trkpt><trkpt lat="43.774212247142934" lon="11.153783420515177"><ele>36.333333333333336</ele><time>2026-04-19T15:13:10Z</time></trkpt><trkpt lat="43.774213017805145" lon="11.153515885055276"><ele>36.66666666666667</ele><time>2026-04-19T15:13:11Z</time></trkpt><trkpt lat="43.774209040984445" lon="11.153223327030194"><ele>37.0</ele><time>2026-04-19T15:13:12Z</time></trkpt><trkpt lat="43.77418644213552" lon="11.15293516507841"><ele>36.66666666666667</ele><time>2026-04-19T15:13:13Z</time></trkpt><trkpt lat="43.774186120662485" lon="11.15266144623124"><ele>36.333333333333336</ele><time>2026-04-19T15:13:14Z</time></trkpt><trkpt lat="43.77417811128336" lon="11.152381621393411"><ele>36.0</ele><time>2026-04-19T15:13:15Z</time></trkpt><trkpt lat="43.7741752192565" lon="11.152101651206474"><ele>36.0</ele><time>2026-04-19T15:13:16Z</time></trkpt><trkpt lat="43.77417212751417" lon="11.151812974052023"><ele>36.0</ele><time>2026-04-19T15:13:17Z</time></trkpt><trkpt lat="43.774165387446764" lon="11.151513391003183"><ele>36.0</ele><time>2026-04-19T15:13:18Z</time></trkpt><trkpt lat="43.774149506388945" lon="11.151202137453682"><ele>36.5</ele><time>2026-04-19T15:13:19Z</time></trkpt><trkpt lat="43.77413503624937" lon="11.150882704314386"><ele>37.0</ele><time>2026-04-19T15:13:20Z</time></trkpt><trkpt lat="43.77412009983935" lon="11.150550440255063"><ele>36.0</ele><time>2026-04-19T15:13:21Z</time></trkpt><trkpt lat="43.774114761295" lon="11.150207924710564"><ele>35.0</ele><time>2026-04-19T15:13:22Z</time></trkpt><trkpt lat="43.774111973483585" lon="11.149863966382897"><ele>35.0</ele><time>2026-04-19T15:13:22.999Z</time></trkpt><trkpt lat="43.77410699408064" lon="11.149523743954987"><ele>35.0</ele><time>2026-04-19T15:13:23.999Z</time></trkpt><trkpt lat="43.77410329262513" lon="11.149180617420907"><ele>35.0</ele><time>2026-04-19T15:13:24.999Z</time></trkpt><trkpt lat="43.77409898374482" lon="11.148843969199616"><ele>35.0</ele><time>2026-04-19T15:13:25.999Z</time></trkpt><trkpt lat="43.774090858243866" lon="11.148505372379745"><ele>34.0</ele><time>2026-04-19T15:13:26.999Z</time></trkpt><trkpt lat="43.7740815793728" lon="11.148170516344354"><ele>33.0</ele><time>2026-04-19T15:13:27.999Z</time></trkpt><trkpt lat="43.77407432665577" lon="11.1478349091222"><ele>33.0</ele><time>2026-04-19T15:13:28.999Z</time></trkpt><trkpt lat="43.77407279084911" lon="11.147499084846986"><ele>33.0</ele><time>2026-04-19T15:13:29.999Z</time></trkpt><trkpt lat="43.77408041753111" lon="11.147164752291578"><ele>33.0</ele><time>2026-04-19T15:13:30.999Z</time></trkpt><trkpt lat="43.77408617687089" lon="11.146829222298765"><ele>33.0</ele><time>2026-04-19T15:13:31.999Z</time></trkpt><trkpt lat="43.77408596437625" lon="11.146494544603483"><ele>33.0</ele><time>2026-04-19T15:13:32.999Z</time></trkpt><trkpt lat="43.774079620458835" lon="11.146158385309878"><ele>33.0</ele><time>2026-04-19T15:13:33.999Z</time></trkpt><trkpt lat="43.77407371382548" lon="11.145823783798452"><ele>34.5</ele><time>2026-04-19T15:13:34.999Z</time></trkpt><trkpt lat="43.77406881034133" lon="11.14548955664413"><ele>36.0</ele><time>2026-04-19T15:13:35.999Z</time></trkpt><trkpt lat="43.77406420452618" lon="11.145152657147234"><ele>35.5</ele><time>2026-04-19T15:13:36.999Z</time></trkpt><trkpt lat="43.77405736065405" lon="11.144815742693085"><ele>35.0</ele><time>2026-04-19T15:13:37.999Z</time></trkpt><trkpt lat="43.77405054896551" lon="11.144477307792075"><ele>35.0</ele><time>2026-04-19T15:13:38.999Z</time></trkpt><trkpt lat="43.77404230633377" lon="11.14413922177245"><ele>35.0</ele><time>2026-04-19T15:13:39.999Z</time></trkpt><trkpt lat="43.77403562058419" lon="11.143805322664617"><ele>35.5</ele><time>2026-04-19T15:13:40.999Z</time></trkpt><trkpt lat="43.77402990548428" lon="11.143473198572693"><ele>36.0</ele><time>2026-04-19T15:13:41.999Z</time></trkpt><trkpt lat="43.77402644968117" lon="11.143137499454737"><ele>37.0</ele><time>2026-04-19T15:13:42.999Z</time></trkpt><trkpt lat="43.77401764919689" lon="11.142803204597351"><ele>38.0</ele><time>2026-04-19T15:13:43.999Z</time></trkpt><trkpt lat="43.77400475898132" lon="11.142469461926991"><ele>37.0</ele><time>2026-04-19T15:13:44.999Z</time></trkpt><trkpt lat="43.77399102725133" lon="11.142135921669707"><ele>36.0</ele><time>2026-04-19T15:13:45.999Z</time></trkpt><trkpt lat="43.773973390387056" lon="11.141806790696846"><ele>36.5</ele><time>2026-04-19T15:13:46.999Z</time></trkpt><trkpt lat="43.77395319907463" lon="11.14147778494598"><ele>37.0</ele><time>2026-04-19T15:13:47.999Z</time></trkpt><trkpt lat="43.77393078924679" lon="11.14115191770783"><ele>37.0</ele><time>2026-04-19T15:13:48.999Z</time></trkpt><trkpt lat="43.77390454585088" lon="11.140826522976381"><ele>37.0</ele><time>2026-04-19T15:13:49.999Z</time></trkpt><trkpt lat="43.77388102305785" lon="11.140502677104964"><ele>37.0</ele><time>2026-04-19T15:13:50.999Z</time></trkpt><trkpt lat="43.773860167600716" lon="11.14017839043684"><ele>37.0</ele><time>2026-04-19T15:13:51.999Z</time></trkpt><trkpt lat="43.773837837078226" lon="11.13985830682098"><ele>36.5</ele><time>2026-04-19T15:13:52.999Z</time></trkpt><trkpt lat="43.77381254982541" lon="11.139538365213784"><ele>36.0</ele><time>2026-04-19T15:13:53.999Z</time></trkpt><trkpt lat="43.7737887143752" lon="11.139223201205986"><ele>35.0</ele><time>2026-04-19T15:13:54.999Z</time></trkpt><trkpt lat="43.77376559655754" lon="11.138903312276643"><ele>34.0</ele><time>2026-04-19T15:13:55.999Z</time></trkpt><trkpt lat="43.773741627863636" lon="11.13858484302256"><ele>34.0</ele><time>2026-04-19T15:13:56.999Z</time></trkpt><trkpt lat="43.77371702078302" lon="11.138265739104222"><ele>34.0</ele><time>2026-04-19T15:13:57.999Z</time></trkpt><trkpt lat="43.773694439394" lon="11.137950857185098"><ele>34.5</ele><time>2026-04-19T15:13:58.999Z</time></trkpt><trkpt lat="43.773672550498155" lon="11.13763478873316"><ele>35.0</ele><time>2026-04-19T15:13:59.999Z</time></trkpt><trkpt lat="43.77365157182057" lon="11.137319228744994"><ele>36.0</ele><time>2026-04-19T15:14:00.999Z</time></trkpt><trkpt lat="43.77363077129496" lon="11.137003590090414"><ele>37.0</ele><time>2026-04-19T15:14:01.999Z</time></trkpt><trkpt lat="43.77360583017382" lon="11.13669055675903"><ele>36.5</ele><time>2026-04-19T15:14:02.999Z</time></trkpt><trkpt lat="43.77358151192643" lon="11.136373319462605"><ele>36.0</ele><time>2026-04-19T15:14:03.999Z</time></trkpt><trkpt lat="43.7735543835106" lon="11.136060140914473"><ele>36.0</ele><time>2026-04-19T15:14:04.999Z</time></trkpt><trkpt lat="43.773532239207164" lon="11.135750773941185"><ele>36.0</ele><time>2026-04-19T15:14:05.999Z</time></trkpt><trkpt lat="43.77350965003356" lon="11.135455451682466"><ele>36.0</ele><time>2026-04-19T15:14:06.999Z</time></trkpt><trkpt lat="43.77348395525333" lon="11.13517407331283"><ele>36.333333333333336</ele><time>2026-04-19T15:14:07.999Z</time></trkpt><trkpt lat="43.77345329986653" lon="11.134869733764225"><ele>36.66666666666667</ele><time>2026-04-19T15:14:08.999Z</time></trkpt><trkpt lat="43.77341684533567" lon="11.134558662825095"><ele>37.0</ele><time>2026-04-19T15:14:09.999Z</time></trkpt><trkpt lat="43.773387515273846" lon="11.134237443021016"><ele>37.5</ele><time>2026-04-19T15:14:10.999Z</time></trkpt><trkpt lat="43.773364819367174" lon="11.133913407108299"><ele>38.0</ele><time>2026-04-19T15:14:11.999Z</time></trkpt><trkpt lat="43.773349197225635" lon="11.133589631149885"><ele>38.0</ele><time>2026-04-19T15:14:12.999Z</time></trkpt><trkpt lat="43.77333977622104" lon="11.133265665581128"><ele>38.0</ele><time>2026-04-19T15:14:13.999Z</time></trkpt><trkpt lat="43.77333120793173" lon="11.132937533043828"><ele>37.0</ele><time>2026-04-19T15:14:14.999Z</time></trkpt><trkpt lat="43.7733125080657" lon="11.132611295783857"><ele>36.0</ele><time>2026-04-19T15:14:15.999Z</time></trkpt><trkpt lat="43.77328630017511" lon="11.13229262743172"><ele>35.5</ele><time>2026-04-19T15:14:16.999Z</time></trkpt><trkpt lat="43.773254686004115" lon="11.131973543533114"><ele>35.0</ele><time>2026-04-19T15:14:17.998Z</time></trkpt><trkpt lat="43.77321708880241" lon="11.131657702297204"><ele>34.5</ele><time>2026-04-19T15:14:18.998Z</time></trkpt><trkpt lat="43.773173303118305" lon="11.131340732475303"><ele>34.0</ele><time>2026-04-19T15:14:19.998Z</time></trkpt><trkpt lat="43.77311968868344" lon="11.131031460329543"><ele>34.0</ele><time>2026-04-19T15:14:20.998Z</time></trkpt><trkpt lat="43.77304823014272" lon="11.130728289924146"><ele>34.0</ele><time>2026-04-19T15:14:21.998Z</time></trkpt><trkpt lat="43.77297025574935" lon="11.130429015338109"><ele>34.0</ele><time>2026-04-19T15:14:22.998Z</time></trkpt><trkpt lat="43.77288384326016" lon="11.130131848917717"><ele>34.0</ele><time>2026-04-19T15:14:23.998Z</time></trkpt><trkpt lat="43.77278415998607" lon="11.129845577885982"><ele>35.0</ele><time>2026-04-19T15:14:24.998Z</time></trkpt><trkpt lat="43.77267291271302" lon="11.129562520000633"><ele>36.0</ele><time>2026-04-19T15:14:25.998Z</time></trkpt><trkpt lat="43.77255352914254" lon="11.129289125370079"><ele>36.0</ele><time>2026-04-19T15:14:26.998Z</time></trkpt><trkpt lat="43.77242162517434" lon="11.129026395598409"><ele>36.0</ele><time>2026-04-19T15:14:27.998Z</time></trkpt><trkpt lat="43.772279966912436" lon="11.128773800739898"><ele>36.0</ele><time>2026-04-19T15:14:28.998Z</time></trkpt><trkpt lat="43.772132604184996" lon="11.12852654143645"><ele>36.0</ele><time>2026-04-19T15:14:29.998Z</time></trkpt><trkpt lat="43.77197509521818" lon="11.1282916263805"><ele>36.0</ele><time>2026-04-19T15:14:30.998Z</time></trkpt><trkpt lat="43.77180699416668" lon="11.128068922409954"><ele>36.0</ele><time>2026-04-19T15:14:31.998Z</time></trkpt><trkpt lat="43.77163086188742" lon="11.127860008495103"><ele>36.0</ele><time>2026-04-19T15:14:32.998Z</time></trkpt><trkpt lat="43.77144853288994" lon="11.127660338840911"><ele>36.0</ele><time>2026-04-19T15:14:33.998Z</time></trkpt><trkpt lat="43.77125565807519" lon="11.127472392340856"><ele>37.0</ele><time>2026-04-19T15:14:34.998Z</time></trkpt><trkpt lat="43.771058327649946" lon="11.12729812052535"><ele>38.0</ele><time>2026-04-19T15:14:35.998Z</time></trkpt><trkpt lat="43.77085316125658" lon="11.12713937597128"><ele>38.5</ele><time>2026-04-19T15:14:36.998Z</time></trkpt><trkpt lat="43.77063614739111" lon="11.126998961027141"><ele>39.0</ele><time>2026-04-19T15:14:37.998Z</time></trkpt><trkpt lat="43.77041502066213" lon="11.126868238753321"><ele>38.5</ele><time>2026-04-19T15:14:38.998Z</time></trkpt><trkpt lat="43.770184388123816" lon="11.126755698229257"><ele>38.0</ele><time>2026-04-19T15:14:39.998Z</time></trkpt><trkpt lat="43.76994626858248" lon="11.126657616665216"><ele>38.0</ele><time>2026-04-19T15:14:40.998Z</time></trkpt><trkpt lat="43.7697066425897" lon="11.126569412455964"><ele>38.0</ele><time>2026-04-19T15:14:41.998Z</time></trkpt><trkpt lat="43.76946725383321" lon="11.126484604717831"><ele>36.5</ele><time>2026-04-19T15:14:42.998Z</time></trkpt><trkpt lat="43.769224703765374" lon="11.126403772755456"><ele>35.0</ele><time>2026-04-19T15:14:43.998Z</time></trkpt><trkpt lat="43.768982981374016" lon="11.126329276692685"><ele>35.0</ele><time>2026-04-19T15:14:44.998Z</time></trkpt><trkpt lat="43.76873811183384" lon="11.126256476082666"><ele>35.0</ele><time>2026-04-19T15:14:45.998Z</time></trkpt><trkpt lat="43.76849705270951" lon="11.126186122396943"><ele>35.5</ele><time>2026-04-19T15:14:46.998Z</time></trkpt><trkpt lat="43.76825031624795" lon="11.126114610586205"><ele>36.0</ele><time>2026-04-19T15:14:47.998Z</time></trkpt><trkpt lat="43.768005759549794" lon="11.126040089570363"><ele>36.0</ele><time>2026-04-19T15:14:48.998Z</time></trkpt><trkpt lat="43.767762561891054" lon="11.12596704362808"><ele>36.0</ele><time>2026-04-19T15:14:49.998Z</time></trkpt><trkpt lat="43.767517495859835" lon="11.12589410198291"><ele>36.5</ele><time>2026-04-19T15:14:50.998Z</time></trkpt><trkpt lat="43.76727170188932" lon="11.125822995661018"><ele>37.0</ele><time>2026-04-19T15:14:51.998Z</time></trkpt><trkpt lat="43.76702640360696" lon="11.125754101870752"><ele>38.5</ele><time>2026-04-19T15:14:52.998Z</time></trkpt><trkpt lat="43.76678141741255" lon="11.125689075864026"><ele>40.0</ele><time>2026-04-19T15:14:53.998Z</time></trkpt><trkpt lat="43.76653524455556" lon="11.125639419394192"><ele>40.0</ele><time>2026-04-19T15:14:54.998Z</time></trkpt><trkpt lat="43.76628618687961" lon="11.125611902179404"><ele>40.0</ele><time>2026-04-19T15:14:55.998Z</time></trkpt><trkpt lat="43.76603700572557" lon="11.125602378739552"><ele>39.5</ele><time>2026-04-19T15:14:56.998Z</time></trkpt><trkpt lat="43.76578709725508" lon="11.125605261724806"><ele>39.0</ele><time>2026-04-19T15:14:57.998Z</time></trkpt><trkpt lat="43.76553749998795" lon="11.125626015147636"><ele>39.0</ele><time>2026-04-19T15:14:58.998Z</time></trkpt><trkpt lat="43.765288436702015" lon="11.125668681714307"><ele>39.0</ele><time>2026-04-19T15:14:59.998Z</time></trkpt><trkpt lat="43.7650427677724" lon="11.12572764219121"><ele>40.0</ele><time>2026-04-19T15:15:00.998Z</time></trkpt><trkpt lat="43.76480222767104" lon="11.12580876615088"><ele>41.0</ele><time>2026-04-19T15:15:01.998Z</time></trkpt><trkpt lat="43.76456608903902" lon="11.1259085789305"><ele>43.0</ele><time>2026-04-19T15:15:02.998Z</time></trkpt><trkpt lat="43.76433733002268" lon="11.12602218870349"><ele>45.0</ele><time>2026-04-19T15:15:03.998Z</time></trkpt><trkpt lat="43.764115416299504" lon="11.126143469766397"><ele>45.0</ele><time>2026-04-19T15:15:04.998Z</time></trkpt><trkpt lat="43.76390332667974" lon="11.126271151658287"><ele>45.0</ele><time>2026-04-19T15:15:05.998Z</time></trkpt><trkpt lat="43.76369869939143" lon="11.126393404212266"><ele>46.33333333333333</ele><time>2026-04-19T15:15:07Z</time></trkpt><trkpt lat="43.76350417690454" lon="11.126509566347313"><ele>47.666666666666664</ele><time>2026-04-19T15:15:08Z</time></trkpt><trkpt lat="43.763317084273055" lon="11.126623516806069"><ele>49.0</ele><time>2026-04-19T15:15:09Z</time></trkpt><trkpt lat="43.76312343813751" lon="11.126743898176176"><ele>49.0</ele><time>2026-04-19T15:15:10Z</time></trkpt><trkpt lat="43.762922751953155" lon="11.12687397371672"><ele>49.0</ele><time>2026-04-19T15:15:11Z</time></trkpt><trkpt lat="43.762711119794275" lon="11.127009901367254"><ele>52.0</ele><time>2026-04-19T15:15:12Z</time></trkpt><trkpt lat="43.76249311204993" lon="11.127146496909482"><ele>55.0</ele><time>2026-04-19T15:15:13Z</time></trkpt><trkpt lat="43.76226920678898" lon="11.127279002805475"><ele>54.0</ele><time>2026-04-19T15:15:14Z</time></trkpt><trkpt lat="43.762040327907" lon="11.127404263821711"><ele>53.0</ele><time>2026-04-19T15:15:15Z</time></trkpt><trkpt lat="43.761802861545455" lon="11.127513548858994"><ele>53.0</ele><time>2026-04-19T15:15:16Z</time></trkpt><trkpt lat="43.7615614759775" lon="11.12760167419216"><ele>53.0</ele><time>2026-04-19T15:15:17Z</time></trkpt><trkpt lat="43.7613169522208" lon="11.127666568379318"><ele>53.0</ele><time>2026-04-19T15:15:18Z</time></trkpt><trkpt lat="43.76106969665145" lon="11.12771593153012"><ele>53.0</ele><time>2026-04-19T15:15:19Z</time></trkpt><trkpt lat="43.76082226819996" lon="11.127743949632649"><ele>55.5</ele><time>2026-04-19T15:15:20Z</time></trkpt><trkpt lat="43.7605754954134" lon="11.12775328217391"><ele>58.0</ele><time>2026-04-19T15:15:21Z</time></trkpt><trkpt lat="43.76032671294996" lon="11.127743591626464"><ele>61.0</ele><time>2026-04-19T15:15:22Z</time></trkpt><trkpt lat="43.760076914030975" lon="11.127715859879254"><ele>64.0</ele><time>2026-04-19T15:15:23Z</time></trkpt><trkpt lat="43.75982777958707" lon="11.127674280458844"><ele>64.0</ele><time>2026-04-19T15:15:24Z</time></trkpt><trkpt lat="43.75958297377386" lon="11.12761920987274"><ele>64.0</ele><time>2026-04-19T15:15:25Z</time></trkpt><trkpt lat="43.75934221600001" lon="11.127541617020134"><ele>65.0</ele><time>2026-04-19T15:15:26Z</time></trkpt><trkpt lat="43.759105807943975" lon="11.12744293309796"><ele>66.0</ele><time>2026-04-19T15:15:27Z</time></trkpt><trkpt lat="43.75887068850704" lon="11.127332984602724"><ele>71.5</ele><time>2026-04-19T15:15:28Z</time></trkpt><trkpt lat="43.75863263154088" lon="11.127228124810559"><ele>77.0</ele><time>2026-04-19T15:15:29Z</time></trkpt><trkpt lat="43.75839202588022" lon="11.12712181887889"><ele>77.5</ele><time>2026-04-19T15:15:30Z</time></trkpt><trkpt lat="43.75815512529582" lon="11.12701815938523"><ele>78.0</ele><time>2026-04-19T15:15:31Z</time></trkpt><trkpt lat="43.757919477049704" lon="11.126911373050874"><ele>77.0</ele><time>2026-04-19T15:15:32Z</time></trkpt><trkpt lat="43.75768474451783" lon="11.12681583956912"><ele>76.0</ele><time>2026-04-19T15:15:33Z</time></trkpt><trkpt lat="43.757446630902585" lon="11.126739455975853"><ele>76.0</ele><time>2026-04-19T15:15:34Z</time></trkpt><trkpt lat="43.757206537570454" lon="11.126677599492627"><ele>76.0</ele><time>2026-04-19T15:15:35Z</time></trkpt><trkpt lat="43.75696843862545" lon="11.126621814589715"><ele>74.0</ele><time>2026-04-19T15:15:36Z</time></trkpt><trkpt lat="43.75672698684543" lon="11.126581147737818"><ele>72.0</ele><time>2026-04-19T15:15:37Z</time></trkpt><trkpt lat="43.756478940552945" lon="11.1265537360385"><ele>80.5</ele><time>2026-04-19T15:15:38Z</time></trkpt><trkpt lat="43.7562281040826" lon="11.126526922417685"><ele>89.0</ele><time>2026-04-19T15:15:38.999Z</time></trkpt><trkpt lat="43.755981276063544" lon="11.126498544043816"><ele>90.0</ele><time>2026-04-19T15:15:39.999Z</time></trkpt><trkpt lat="43.755737474198355" lon="11.12647095696126"><ele>91.0</ele><time>2026-04-19T15:15:40.999Z</time></trkpt><trkpt lat="43.75549651166102" lon="11.126442785052964"><ele>91.0</ele><time>2026-04-19T15:15:41.999Z</time></trkpt><trkpt lat="43.75525896482992" lon="11.126410475402258"><ele>91.0</ele><time>2026-04-19T15:15:42.999Z</time></trkpt><trkpt lat="43.75502295377509" lon="11.126379827953173"><ele>91.0</ele><time>2026-04-19T15:15:43.999Z</time></trkpt><trkpt lat="43.754786438359076" lon="11.126363081016208"><ele>91.0</ele><time>2026-04-19T15:15:44.999Z</time></trkpt><trkpt lat="43.75454628319046" lon="11.12634731590242"><ele>92.5</ele><time>2026-04-19T15:15:45.999Z</time></trkpt><trkpt lat="43.75430792053518" lon="11.126319920894305"><ele>94.0</ele><time>2026-04-19T15:15:46.999Z</time></trkpt><trkpt lat="43.75407138520129" lon="11.12627285623988"><ele>94.0</ele><time>2026-04-19T15:15:47.999Z</time></trkpt><trkpt lat="43.75383506950057" lon="11.126205180046556"><ele>94.0</ele><time>2026-04-19T15:15:48.999Z</time></trkpt><trkpt lat="43.75360423630874" lon="11.126113370916254"><ele>93.0</ele><time>2026-04-19T15:15:49.999Z</time></trkpt><trkpt lat="43.753378898219914" lon="11.125999504483168"><ele>92.0</ele><time>2026-04-19T15:15:50.999Z</time></trkpt><trkpt lat="43.753153618089435" lon="11.125866950862498"><ele>96.0</ele><time>2026-04-19T15:15:51.999Z</time></trkpt><trkpt lat="43.75292785730708" lon="11.12571527867611"><ele>100.0</ele><time>2026-04-19T15:15:52.999Z</time></trkpt><trkpt lat="43.75270213916049" lon="11.125545972433953"><ele>100.0</ele><time>2026-04-19T15:15:53.999Z</time></trkpt><trkpt lat="43.75247728521282" lon="11.12536740852915"><ele>100.0</ele><time>2026-04-19T15:15:54.999Z</time></trkpt><trkpt lat="43.752253353270255" lon="11.125182377985755"><ele>100.0</ele><time>2026-04-19T15:15:55.999Z</time></trkpt><trkpt lat="43.75203092829632" lon="11.124988884233902"><ele>100.0</ele><time>2026-04-19T15:15:56.999Z</time></trkpt><trkpt lat="43.75181294472546" lon="11.124788578968136"><ele>105.0</ele><time>2026-04-19T15:15:57.999Z</time></trkpt><trkpt lat="43.751599113723834" lon="11.12459081636151"><ele>110.0</ele><time>2026-04-19T15:15:58.999Z</time></trkpt><trkpt lat="43.75138722229866" lon="11.124401636930624"><ele>110.0</ele><time>2026-04-19T15:15:59.999Z</time></trkpt><trkpt lat="43.75117756736577" lon="11.124216310520424"><ele>110.0</ele><time>2026-04-19T15:16:00.999Z</time></trkpt><trkpt lat="43.75096829045415" lon="11.124036292347823"><ele>110.0</ele><time>2026-04-19T15:16:01.999Z</time></trkpt><trkpt lat="43.75075940443325" lon="11.123855958583817"><ele>110.0</ele><time>2026-04-19T15:16:02.999Z</time></trkpt><trkpt lat="43.75055260690651" lon="11.123672062375796"><ele>110.0</ele><time>2026-04-19T15:16:03.999Z</time></trkpt><trkpt lat="43.75034724571053" lon="11.123488245386055"><ele>110.0</ele><time>2026-04-19T15:16:04.999Z</time></trkpt><trkpt lat="43.75014335787983" lon="11.123310545855219"><ele>111.5</ele><time>2026-04-19T15:16:05.999Z</time></trkpt><trkpt lat="43.74993815038448" lon="11.1231333876889"><ele>113.0</ele><time>2026-04-19T15:16:06.999Z</time></trkpt><trkpt lat="43.749732309252394" lon="11.12295402359594"><ele>113.0</ele><time>2026-04-19T15:16:07.999Z</time></trkpt><trkpt lat="43.74952597343273" lon="11.122765142410486"><ele>113.0</ele><time>2026-04-19T15:16:08.999Z</time></trkpt><trkpt lat="43.74933122191456" lon="11.12257013611544"><ele>118.0</ele><time>2026-04-19T15:16:09.999Z</time></trkpt><trkpt lat="43.74913677380577" lon="11.122372001187674"><ele>123.0</ele><time>2026-04-19T15:16:10.999Z</time></trkpt><trkpt lat="43.74893750256059" lon="11.122181659556844"><ele>123.0</ele><time>2026-04-19T15:16:11.999Z</time></trkpt><trkpt lat="43.7487368068733" lon="11.121999280123616"><ele>123.0</ele><time>2026-04-19T15:16:12.999Z</time></trkpt><trkpt lat="43.74853588121483" lon="11.121822822773343"><ele>122.5</ele><time>2026-04-19T15:16:13.999Z</time></trkpt><trkpt lat="43.748334704818205" lon="11.121645879323534"><ele>122.0</ele><time>2026-04-19T15:16:14.999Z</time></trkpt><trkpt lat="43.74813447619024" lon="11.121476180844809"><ele>130.0</ele><time>2026-04-19T15:16:15.999Z</time></trkpt><trkpt lat="43.74793152795869" lon="11.121314264858464"><ele>138.0</ele><time>2026-04-19T15:16:16.999Z</time></trkpt><trkpt lat="43.74772341238055" lon="11.121165836754015"><ele>133.5</ele><time>2026-04-19T15:16:17.999Z</time></trkpt><trkpt lat="43.747510514454525" lon="11.121030853902138"><ele>129.0</ele><time>2026-04-19T15:16:18.999Z</time></trkpt><trkpt lat="43.74729436414171" lon="11.120910918725443"><ele>129.0</ele><time>2026-04-19T15:16:19.999Z</time></trkpt><trkpt lat="43.74707158794502" lon="11.120805239075603"><ele>129.0</ele><time>2026-04-19T15:16:20.999Z</time></trkpt><trkpt lat="43.74684712551918" lon="11.12070966556733"><ele>126.0</ele><time>2026-04-19T15:16:21.999Z</time></trkpt><trkpt lat="43.746620510695834" lon="11.120621893288714"><ele>123.0</ele><time>2026-04-19T15:16:22.999Z</time></trkpt><trkpt lat="43.74638864752065" lon="11.120538615694594"><ele>123.0</ele><time>2026-04-19T15:16:23.999Z</time></trkpt><trkpt lat="43.746157747747276" lon="11.12045204042851"><ele>123.0</ele><time>2026-04-19T15:16:24.999Z</time></trkpt><trkpt lat="43.745929194716545" lon="11.12036618298015"><ele>122.66666666666666</ele><time>2026-04-19T15:16:25.999Z</time></trkpt><trkpt lat="43.74572087279236" lon="11.120278871590338"><ele>122.33333333333333</ele><time>2026-04-19T15:16:26.999Z</time></trkpt><trkpt lat="43.74551563849431" lon="11.120182174119568"><ele>122.0</ele><time>2026-04-19T15:16:27.999Z</time></trkpt><trkpt lat="43.7453069581622" lon="11.12007299895125"><ele>127.5</ele><time>2026-04-19T15:16:28.999Z</time></trkpt><trkpt lat="43.74509750798178" lon="11.11994443921032"><ele>133.0</ele><time>2026-04-19T15:16:29.999Z</time></trkpt><trkpt lat="43.74488691214012" lon="11.119807002918877"><ele>138.5</ele><time>2026-04-19T15:16:30.999Z</time></trkpt><trkpt lat="43.74467651869305" lon="11.119665220641515"><ele>144.0</ele><time>2026-04-19T15:16:31.998Z</time></trkpt><trkpt lat="43.74446811932465" lon="11.119513228418258"><ele>143.0</ele><time>2026-04-19T15:16:32.998Z</time></trkpt><trkpt lat="43.74426476805357" lon="11.119348505952205"><ele>142.0</ele><time>2026-04-19T15:16:33.998Z</time></trkpt><trkpt lat="43.744065660587644" lon="11.119172215493691"><ele>146.5</ele><time>2026-04-19T15:16:34.998Z</time></trkpt><trkpt lat="43.74387152979077" lon="11.118984681747415"><ele>151.0</ele><time>2026-04-19T15:16:35.998Z</time></trkpt><trkpt lat="43.74368076114917" lon="11.118783828088077"><ele>149.0</ele><time>2026-04-19T15:16:36.998Z</time></trkpt><trkpt lat="43.74349272602762" lon="11.118573769167174"><ele>147.0</ele><time>2026-04-19T15:16:37.998Z</time></trkpt><trkpt lat="43.74330909998088" lon="11.118352098949034"><ele>150.0</ele><time>2026-04-19T15:16:38.998Z</time></trkpt><trkpt lat="43.743131921569145" lon="11.11811924131883"><ele>153.0</ele><time>2026-04-19T15:16:39.998Z</time></trkpt><trkpt lat="43.7429584455992" lon="11.117890296980965"><ele>153.0</ele><time>2026-04-19T15:16:40.998Z</time></trkpt><trkpt lat="43.74278251589112" lon="11.117667379646885"><ele>153.0</ele><time>2026-04-19T15:16:41.998Z</time></trkpt><trkpt lat="43.74260558548249" lon="11.117447974103031"><ele>154.0</ele><time>2026-04-19T15:16:42.998Z</time></trkpt><trkpt lat="43.742435373508485" lon="11.117227570057292"><ele>155.0</ele><time>2026-04-19T15:16:43.998Z</time></trkpt><trkpt lat="43.74226631572658" lon="11.11700857385211"><ele>155.0</ele><time>2026-04-19T15:16:44.998Z</time></trkpt><trkpt lat="43.742095724305734" lon="11.116791216798136"><ele>155.0</ele><time>2026-04-19T15:16:45.998Z</time></trkpt><trkpt lat="43.74192656071864" lon="11.116573695371502"><ele>155.0</ele><time>2026-04-19T15:16:46.998Z</time></trkpt><trkpt lat="43.74175930251753" lon="11.116355021308705"><ele>155.0</ele><time>2026-04-19T15:16:47.998Z</time></trkpt><trkpt lat="43.74159430989397" lon="11.116135784779624"><ele>155.0</ele><time>2026-04-19T15:16:48.998Z</time></trkpt><trkpt lat="43.74143183155149" lon="11.115914549820946"><ele>155.0</ele><time>2026-04-19T15:16:49.998Z</time></trkpt><trkpt lat="43.74127083311817" lon="11.115688276839172"><ele>155.0</ele><time>2026-04-19T15:16:50.998Z</time></trkpt><trkpt lat="43.741115278217976" lon="11.11545844879918"><ele>155.0</ele><time>2026-04-19T15:16:51.998Z</time></trkpt><trkpt lat="43.74096278324496" lon="11.115221101519834"><ele>155.0</ele><time>2026-04-19T15:16:52.998Z</time></trkpt><trkpt lat="43.74081643328269" lon="11.114975651507116"><ele>155.0</ele><time>2026-04-19T15:16:53.998Z</time></trkpt><trkpt lat="43.74067281494023" lon="11.114724885869347"><ele>158.0</ele><time>2026-04-19T15:16:54.998Z</time></trkpt><trkpt lat="43.74052888560537" lon="11.114471057079118"><ele>161.0</ele><time>2026-04-19T15:16:55.998Z</time></trkpt><trkpt lat="43.74038185223499" lon="11.11421556758046"><ele>158.5</ele><time>2026-04-19T15:16:56.998Z</time></trkpt><trkpt lat="43.740235859248074" lon="11.11395357232676"><ele>156.0</ele><time>2026-04-19T15:16:57.998Z</time></trkpt><trkpt lat="43.74008836354086" lon="11.113691242709777"><ele>156.0</ele><time>2026-04-19T15:16:58.998Z</time></trkpt><trkpt lat="43.73993929501845" lon="11.113428575057037"><ele>156.0</ele><time>2026-04-19T15:16:59.998Z</time></trkpt><trkpt lat="43.7397881205791" lon="11.113166668348532"><ele>157.5</ele><time>2026-04-19T15:17:00.998Z</time></trkpt><trkpt lat="43.739634365708156" lon="11.112906196597043"><ele>159.0</ele><time>2026-04-19T15:17:01.998Z</time></trkpt><trkpt lat="43.739481872815134" lon="11.112641804690155"><ele>156.5</ele><time>2026-04-19T15:17:02.998Z</time></trkpt><trkpt lat="43.73933241650224" lon="11.112374871248992"><ele>154.0</ele><time>2026-04-19T15:17:03.998Z</time></trkpt><trkpt lat="43.73918226820006" lon="11.112110899163563"><ele>154.0</ele><time>2026-04-19T15:17:04.998Z</time></trkpt><trkpt lat="43.73903227446043" lon="11.111850431036885"><ele>154.0</ele><time>2026-04-19T15:17:05.998Z</time></trkpt><trkpt lat="43.73888135544386" lon="11.111591457361712"><ele>156.0</ele><time>2026-04-19T15:17:06.998Z</time></trkpt><trkpt lat="43.73873279833188" lon="11.111334080383058"><ele>158.0</ele><time>2026-04-19T15:17:07.998Z</time></trkpt><trkpt lat="43.73857905901096" lon="11.111080608137815"><ele>152.0</ele><time>2026-04-19T15:17:08.998Z</time></trkpt><trkpt lat="43.738419831192395" lon="11.110827755024175"><ele>146.0</ele><time>2026-04-19T15:17:09.998Z</time></trkpt><trkpt lat="43.738256373026765" lon="11.110564234917941"><ele>145.5</ele><time>2026-04-19T15:17:10.998Z</time></trkpt><trkpt lat="43.73809783510951" lon="11.110292258539202"><ele>145.0</ele><time>2026-04-19T15:17:12Z</time></trkpt><trkpt lat="43.73795132645014" lon="11.110014598421058"><ele>145.0</ele><time>2026-04-19T15:17:13Z</time></trkpt><trkpt lat="43.737811610593134" lon="11.109741674713803"><ele>145.0</ele><time>2026-04-19T15:17:14Z</time></trkpt><trkpt lat="43.737668186851884" lon="11.109476360963953"><ele>145.0</ele><time>2026-04-19T15:17:15Z</time></trkpt><trkpt lat="43.737522449119616" lon="11.109216550556019"><ele>145.0</ele><time>2026-04-19T15:17:16Z</time></trkpt><trkpt lat="43.737376120116934" lon="11.108955349640766"><ele>147.0</ele><time>2026-04-19T15:17:17Z</time></trkpt><trkpt lat="43.73723199627825" lon="11.108694835659932"><ele>149.0</ele><time>2026-04-19T15:17:18Z</time></trkpt><trkpt lat="43.7370890525104" lon="11.108440644685343"><ele>151.0</ele><time>2026-04-19T15:17:19Z</time></trkpt><trkpt lat="43.736941965908116" lon="11.108191557123137"><ele>153.0</ele><time>2026-04-19T15:17:20Z</time></trkpt><trkpt lat="43.73678910660567" lon="11.107949715782878"><ele>153.0</ele><time>2026-04-19T15:17:21Z</time></trkpt><trkpt lat="43.736625763466" lon="11.107721710320165"><ele>153.0</ele><time>2026-04-19T15:17:22Z</time></trkpt><trkpt lat="43.736445546919136" lon="11.107507662814283"><ele>158.5</ele><time>2026-04-19T15:17:23Z</time></trkpt><trkpt lat="43.736257581610765" lon="11.107300153305347"><ele>164.0</ele><time>2026-04-19T15:17:24Z</time></trkpt><trkpt lat="43.736064228683794" lon="11.107099671792035"><ele>158.5</ele><time>2026-04-19T15:17:25Z</time></trkpt><trkpt lat="43.73586005647493" lon="11.106909838963391"><ele>153.0</ele><time>2026-04-19T15:17:26Z</time></trkpt><trkpt lat="43.7356446171694" lon="11.106727543436802"><ele>155.0</ele><time>2026-04-19T15:17:27Z</time></trkpt><trkpt lat="43.73542541080765" lon="11.106552625108913"><ele>157.0</ele><time>2026-04-19T15:17:28Z</time></trkpt><trkpt lat="43.73520794764836" lon="11.106377840378064"><ele>157.0</ele><time>2026-04-19T15:17:29Z</time></trkpt><trkpt lat="43.734992281799165" lon="11.106203552373447"><ele>157.0</ele><time>2026-04-19T15:17:30Z</time></trkpt><trkpt lat="43.73477507110745" lon="11.106027912492147"><ele>157.0</ele><time>2026-04-19T15:17:31Z</time></trkpt><trkpt lat="43.73454888854873" lon="11.1058494549668"><ele>157.0</ele><time>2026-04-19T15:17:32Z</time></trkpt><trkpt lat="43.734316175623704" lon="11.105655889939298"><ele>162.0</ele><time>2026-04-19T15:17:33Z</time></trkpt><trkpt lat="43.73408877993374" lon="11.105442877813534"><ele>167.0</ele><time>2026-04-19T15:17:34Z</time></trkpt><trkpt lat="43.73386806873094" lon="11.105217194667551"><ele>167.0</ele><time>2026-04-19T15:17:35Z</time></trkpt><trkpt lat="43.73366128748539" lon="11.104974015136927"><ele>167.0</ele><time>2026-04-19T15:17:36Z</time></trkpt><trkpt lat="43.73346329429485" lon="11.10471622248982"><ele>166.0</ele><time>2026-04-19T15:17:37Z</time></trkpt><trkpt lat="43.733278827478266" lon="11.104440008163557"><ele>165.0</ele><time>2026-04-19T15:17:38Z</time></trkpt><trkpt lat="43.73310583704101" lon="11.104151569752322"><ele>168.0</ele><time>2026-04-19T15:17:39Z</time></trkpt><trkpt lat="43.73295152977682" lon="11.103847251120964"><ele>171.0</ele><time>2026-04-19T15:17:40Z</time></trkpt><trkpt lat="43.73281325138277" lon="11.103534641199746"><ele>166.5</ele><time>2026-04-19T15:17:41Z</time></trkpt><trkpt lat="43.73267026194938" lon="11.103230488450647"><ele>162.0</ele><time>2026-04-19T15:17:42Z</time></trkpt><trkpt lat="43.73251816817485" lon="11.102940982311445"><ele>162.0</ele><time>2026-04-19T15:17:43Z</time></trkpt><trkpt lat="43.73236722368942" lon="11.102657546723563"><ele>162.0</ele><time>2026-04-19T15:17:44Z</time></trkpt><trkpt lat="43.732225282710644" lon="11.1023841112842"><ele>161.5</ele><time>2026-04-19T15:17:45Z</time></trkpt><trkpt lat="43.73208680264859" lon="11.102114292650313"><ele>161.0</ele><time>2026-04-19T15:17:46Z</time></trkpt><trkpt lat="43.731944874289006" lon="11.101845024761392"><ele>157.0</ele><time>2026-04-19T15:17:47Z</time></trkpt><trkpt lat="43.73179613314998" lon="11.10157704302903"><ele>153.0</ele><time>2026-04-19T15:17:48Z</time></trkpt><trkpt lat="43.7316434708639" lon="11.101312421205735"><ele>153.0</ele><time>2026-04-19T15:17:49Z</time></trkpt><trkpt lat="43.73148917932739" lon="11.101047306308754"><ele>153.0</ele><time>2026-04-19T15:17:50Z</time></trkpt><trkpt lat="43.731330850625696" lon="11.100781287325125"><ele>150.5</ele><time>2026-04-19T15:17:51Z</time></trkpt><trkpt lat="43.731164531767604" lon="11.100517360514141"><ele>148.0</ele><time>2026-04-19T15:17:52Z</time></trkpt><trkpt lat="43.73098135743702" lon="11.100253624747024"><ele>147.5</ele><time>2026-04-19T15:17:53Z</time></trkpt><trkpt lat="43.73078995987132" lon="11.09998080835828"><ele>147.0</ele><time>2026-04-19T15:17:54Z</time></trkpt><trkpt lat="43.73059924991146" lon="11.099702708546895"><ele>142.0</ele><time>2026-04-19T15:17:55Z</time></trkpt><trkpt lat="43.73041289787698" lon="11.099418872554374"><ele>137.0</ele><time>2026-04-19T15:17:55.999Z</time></trkpt><trkpt lat="43.73022639640115" lon="11.099133262472128"><ele>140.5</ele><time>2026-04-19T15:17:56.999Z</time></trkpt><trkpt lat="43.73004396136988" lon="11.098846170834822"><ele>144.0</ele><time>2026-04-19T15:17:57.999Z</time></trkpt><trkpt lat="43.729865935422225" lon="11.098553479810802"><ele>144.0</ele><time>2026-04-19T15:17:58.999Z</time></trkpt><trkpt lat="43.72969623308275" lon="11.098253473343318"><ele>144.0</ele><time>2026-04-19T15:17:59.999Z</time></trkpt><trkpt lat="43.72952675632103" lon="11.097954945915472"><ele>145.5</ele><time>2026-04-19T15:18:00.999Z</time></trkpt><trkpt lat="43.72935683238401" lon="11.09766069199743"><ele>147.0</ele><time>2026-04-19T15:18:01.999Z</time></trkpt><trkpt lat="43.729188559727035" lon="11.097360421380968"><ele>143.5</ele><time>2026-04-19T15:18:02.999Z</time></trkpt><trkpt lat="43.72903112688969" lon="11.097051915120268"><ele>140.0</ele><time>2026-04-19T15:18:03.999Z</time></trkpt><trkpt lat="43.728882968181686" lon="11.096737586016733"><ele>136.0</ele><time>2026-04-19T15:18:04.999Z</time></trkpt><trkpt lat="43.728739412289855" lon="11.096423690774857"><ele>132.0</ele><time>2026-04-19T15:18:05.999Z</time></trkpt><trkpt lat="43.72860107107143" lon="11.096111025146918"><ele>132.5</ele><time>2026-04-19T15:18:06.999Z</time></trkpt><trkpt lat="43.72846372581892" lon="11.095799263204684"><ele>133.0</ele><time>2026-04-19T15:18:07.999Z</time></trkpt><trkpt lat="43.72832792428721" lon="11.095498555765431"><ele>133.0</ele><time>2026-04-19T15:18:08.999Z</time></trkpt><trkpt lat="43.72819672718294" lon="11.095213313295234"><ele>133.0</ele><time>2026-04-19T15:18:09.999Z</time></trkpt><trkpt lat="43.7280710922185" lon="11.094937041350283"><ele>129.0</ele><time>2026-04-19T15:18:10.999Z</time></trkpt><trkpt lat="43.727951203979075" lon="11.094668282688344"><ele>125.0</ele><time>2026-04-19T15:18:11.999Z</time></trkpt><trkpt lat="43.72783413524229" lon="11.094400403485222"><ele>127.0</ele><time>2026-04-19T15:18:12.999Z</time></trkpt><trkpt lat="43.727717157227836" lon="11.094130192813132"><ele>129.0</ele><time>2026-04-19T15:18:13.999Z</time></trkpt><trkpt lat="43.72759874842769" lon="11.093862212727156"><ele>129.0</ele><time>2026-04-19T15:18:14.999Z</time></trkpt><trkpt lat="43.72747637341232" lon="11.093592150273576"><ele>129.0</ele><time>2026-04-19T15:18:15.999Z</time></trkpt><trkpt lat="43.727351441341234" lon="11.093317400649637"><ele>125.5</ele><time>2026-04-19T15:18:16.999Z</time></trkpt><trkpt lat="43.727219917904314" lon="11.093042734064888"><ele>122.0</ele><time>2026-04-19T15:18:17.999Z</time></trkpt><trkpt lat="43.72708417290831" lon="11.09276791199031"><ele>122.0</ele><time>2026-04-19T15:18:18.999Z</time></trkpt><trkpt lat="43.72694763173417" lon="11.092485567120239"><ele>122.0</ele><time>2026-04-19T15:18:19.999Z</time></trkpt><trkpt lat="43.726812875095206" lon="11.092200658977191"><ele>119.0</ele><time>2026-04-19T15:18:20.999Z</time></trkpt><trkpt lat="43.72667860387405" lon="11.091912103113497"><ele>116.0</ele><time>2026-04-19T15:18:21.999Z</time></trkpt><trkpt lat="43.72654766483787" lon="11.091620783005144"><ele>114.5</ele><time>2026-04-19T15:18:22.999Z</time></trkpt><trkpt lat="43.72641710113275" lon="11.091326668981141"><ele>113.0</ele><time>2026-04-19T15:18:23.999Z</time></trkpt><trkpt lat="43.72628836370784" lon="11.09103260827913"><ele>111.0</ele><time>2026-04-19T15:18:24.999Z</time></trkpt><trkpt lat="43.726159050073726" lon="11.090736607479192"><ele>109.0</ele><time>2026-04-19T15:18:25.999Z</time></trkpt><trkpt lat="43.72603080275123" lon="11.09044182258764"><ele>110.0</ele><time>2026-04-19T15:18:26.999Z</time></trkpt><trkpt lat="43.725901570934454" lon="11.090151165411559"><ele>111.0</ele><time>2026-04-19T15:18:27.999Z</time></trkpt><trkpt lat="43.725770590741796" lon="11.08986398145473"><ele>111.0</ele><time>2026-04-19T15:18:28.999Z</time></trkpt><trkpt lat="43.7256463620871" lon="11.089576782346649"><ele>111.0</ele><time>2026-04-19T15:18:29.999Z</time></trkpt><trkpt lat="43.7255325653378" lon="11.08928815505948"><ele>108.0</ele><time>2026-04-19T15:18:30.999Z</time></trkpt><trkpt lat="43.72541960139786" lon="11.08900612806471"><ele>105.0</ele><time>2026-04-19T15:18:31.999Z</time></trkpt><trkpt lat="43.725302566354046" lon="11.088735807110234"><ele>105.33333333333334</ele><time>2026-04-19T15:18:32.999Z</time></trkpt><trkpt lat="43.72518768885755" lon="11.088475316665452"><ele>105.66666666666667</ele><time>2026-04-19T15:18:33.999Z</time></trkpt><trkpt lat="43.72507744129582" lon="11.08822892062295"><ele>106.0</ele><time>2026-04-19T15:18:34.999Z</time></trkpt><trkpt lat="43.724970382318006" lon="11.087985987108114"><ele>106.0</ele><time>2026-04-19T15:18:35.999Z</time></trkpt><trkpt lat="43.724861536529644" lon="11.087735282786527"><ele>106.0</ele><time>2026-04-19T15:18:36.999Z</time></trkpt><trkpt lat="43.72475253252987" lon="11.08748088056572"><ele>106.0</ele><time>2026-04-19T15:18:37.999Z</time></trkpt><trkpt lat="43.72463919823138" lon="11.087224145022217"><ele>106.33333333333334</ele><time>2026-04-19T15:18:38.999Z</time></trkpt><trkpt lat="43.72452615759559" lon="11.086967407311969"><ele>106.66666666666666</ele><time>2026-04-19T15:18:39.999Z</time></trkpt><trkpt lat="43.72441159152918" lon="11.086706579770214"><ele>107.0</ele><time>2026-04-19T15:18:40.999Z</time></trkpt><trkpt lat="43.724295480208255" lon="11.08645036956514"><ele>107.66666666666666</ele><time>2026-04-19T15:18:41.999Z</time></trkpt><trkpt lat="43.72417723100125" lon="11.086193346006574"><ele>108.33333333333334</ele><time>2026-04-19T15:18:42.999Z</time></trkpt><trkpt lat="43.72405932260612" lon="11.085931020181487"><ele>109.0</ele><time>2026-04-19T15:18:43.999Z</time></trkpt><trkpt lat="43.72394357174578" lon="11.085665102105033"><ele>102.5</ele><time>2026-04-19T15:18:44.999Z</time></trkpt><trkpt lat="43.72382703064767" lon="11.085396970616516"><ele>96.0</ele><time>2026-04-19T15:18:45.999Z</time></trkpt><trkpt lat="43.723705122675405" lon="11.085124861979487"><ele>95.5</ele><time>2026-04-19T15:18:46.999Z</time></trkpt><trkpt lat="43.723576611429614" lon="11.084847260347246"><ele>95.0</ele><time>2026-04-19T15:18:47.999Z</time></trkpt><trkpt lat="43.72344405812533" lon="11.084557158806449"><ele>96.5</ele><time>2026-04-19T15:18:48.999Z</time></trkpt><trkpt lat="43.723311858453194" lon="11.08426069284625"><ele>98.0</ele><time>2026-04-19T15:18:49.998Z</time></trkpt><trkpt lat="43.72318086409641" lon="11.083966338800975"><ele>98.0</ele><time>2026-04-19T15:18:50.998Z</time></trkpt><trkpt lat="43.72304605346958" lon="11.08366867404503"><ele>98.0</ele><time>2026-04-19T15:18:51.998Z</time></trkpt><trkpt lat="43.72291394081396" lon="11.083376218065995"><ele>95.5</ele><time>2026-04-19T15:18:52.998Z</time></trkpt><trkpt lat="43.72278233656337" lon="11.083087340910625"><ele>93.0</ele><time>2026-04-19T15:18:53.998Z</time></trkpt><trkpt lat="43.722651347674386" lon="11.08280274937332"><ele>94.0</ele><time>2026-04-19T15:18:54.998Z</time></trkpt><trkpt lat="43.72252399885952" lon="11.082518575900671"><ele>95.0</ele><time>2026-04-19T15:18:55.998Z</time></trkpt><trkpt lat="43.722397776175406" lon="11.082233365915425"><ele>95.0</ele><time>2026-04-19T15:18:56.998Z</time></trkpt><trkpt lat="43.722273988996825" lon="11.08194820622113"><ele>95.0</ele><time>2026-04-19T15:18:57.998Z</time></trkpt><trkpt lat="43.72214957479077" lon="11.08166330813898"><ele>92.0</ele><time>2026-04-19T15:18:58.998Z</time></trkpt><trkpt lat="43.72202299990489" lon="11.081375938445559"><ele>89.0</ele><time>2026-04-19T15:18:59.998Z</time></trkpt><trkpt lat="43.72189725755501" lon="11.081085188634374"><ele>91.0</ele><time>2026-04-19T15:19:00.998Z</time></trkpt><trkpt lat="43.72176794464466" lon="11.08079174778965"><ele>93.0</ele><time>2026-04-19T15:19:01.998Z</time></trkpt><trkpt lat="43.72163462213155" lon="11.080499070437655"><ele>93.0</ele><time>2026-04-19T15:19:02.998Z</time></trkpt><trkpt lat="43.721500656974726" lon="11.08020155509165"><ele>93.0</ele><time>2026-04-19T15:19:03.998Z</time></trkpt><trkpt lat="43.72136595489639" lon="11.079903296801335"><ele>91.0</ele><time>2026-04-19T15:19:04.998Z</time></trkpt><trkpt lat="43.721229786076556" lon="11.079605443802986"><ele>89.0</ele><time>2026-04-19T15:19:05.998Z</time></trkpt><trkpt lat="43.721092826292676" lon="11.079308765255242"><ele>89.0</ele><time>2026-04-19T15:19:06.998Z</time></trkpt><trkpt lat="43.72095199759748" lon="11.079016694513047"><ele>89.0</ele><time>2026-04-19T15:19:07.998Z</time></trkpt><trkpt lat="43.720811713645915" lon="11.078723913491864"><ele>89.0</ele><time>2026-04-19T15:19:08.998Z</time></trkpt><trkpt lat="43.7206690774933" lon="11.078435949482754"><ele>89.0</ele><time>2026-04-19T15:19:09.998Z</time></trkpt><trkpt lat="43.72052215591485" lon="11.078152497848816"><ele>88.5</ele><time>2026-04-19T15:19:10.998Z</time></trkpt><trkpt lat="43.72036585169066" lon="11.077873176103965"><ele>88.0</ele><time>2026-04-19T15:19:11.998Z</time></trkpt><trkpt lat="43.72019835783964" lon="11.077604605784488"><ele>85.5</ele><time>2026-04-19T15:19:12.998Z</time></trkpt><trkpt lat="43.72001998460225" lon="11.077347023246881"><ele>83.0</ele><time>2026-04-19T15:19:13.998Z</time></trkpt><trkpt lat="43.71983708543622" lon="11.077093196891584"><ele>83.0</ele><time>2026-04-19T15:19:14.998Z</time></trkpt><trkpt lat="43.71964540288836" lon="11.076849268673715"><ele>83.0</ele><time>2026-04-19T15:19:15.998Z</time></trkpt><trkpt lat="43.71944500180586" lon="11.076615026371906"><ele>81.5</ele><time>2026-04-19T15:19:16.998Z</time></trkpt><trkpt lat="43.71923981934685" lon="11.076386065454997"><ele>80.0</ele><time>2026-04-19T15:19:18Z</time></trkpt><trkpt lat="43.719031221268224" lon="11.076167552475129"><ele>80.0</ele><time>2026-04-19T15:19:19Z</time></trkpt><trkpt lat="43.7188182847135" lon="11.075961838903503"><ele>80.0</ele><time>2026-04-19T15:19:20Z</time></trkpt><trkpt lat="43.71860830231063" lon="11.075760474232661"><ele>79.5</ele><time>2026-04-19T15:19:21Z</time></trkpt><trkpt lat="43.718401257296925" lon="11.075559573805412"><ele>79.0</ele><time>2026-04-19T15:19:22Z</time></trkpt><trkpt lat="43.71819817200747" lon="11.075361854517759"><ele>79.0</ele><time>2026-04-19T15:19:23Z</time></trkpt><trkpt lat="43.71799295530139" lon="11.075162945053139"><ele>79.0</ele><time>2026-04-19T15:19:24Z</time></trkpt><trkpt lat="43.717791641211846" lon="11.074964808189794"><ele>77.0</ele><time>2026-04-19T15:19:25Z</time></trkpt><trkpt lat="43.71758960834087" lon="11.074769343384371"><ele>75.0</ele><time>2026-04-19T15:19:26Z</time></trkpt><trkpt lat="43.7173873890289" lon="11.074576952577447"><ele>75.0</ele><time>2026-04-19T15:19:27Z</time></trkpt><trkpt lat="43.71718470285517" lon="11.074392526572346"><ele>75.0</ele><time>2026-04-19T15:19:28Z</time></trkpt><trkpt lat="43.716978351351266" lon="11.074209689106558"><ele>73.0</ele><time>2026-04-19T15:19:29Z</time></trkpt><trkpt lat="43.71676847077696" lon="11.074028229569212"><ele>71.0</ele><time>2026-04-19T15:19:30Z</time></trkpt><trkpt lat="43.71656177401159" lon="11.073835638565193"><ele>71.0</ele><time>2026-04-19T15:19:31Z</time></trkpt><trkpt lat="43.71635737652807" lon="11.073639520554542"><ele>71.0</ele><time>2026-04-19T15:19:32Z</time></trkpt><trkpt lat="43.71615363327279" lon="11.073440602484744"><ele>72.5</ele><time>2026-04-19T15:19:33Z</time></trkpt><trkpt lat="43.715949909308804" lon="11.073244926682541"><ele>74.0</ele><time>2026-04-19T15:19:34Z</time></trkpt><trkpt lat="43.715743145671865" lon="11.073047267136822"><ele>74.0</ele><time>2026-04-19T15:19:35Z</time></trkpt><trkpt lat="43.7155416708002" lon="11.07284584834493"><ele>74.0</ele><time>2026-04-19T15:19:36Z</time></trkpt><trkpt lat="43.715334318050246" lon="11.072646598403562"><ele>73.0</ele><time>2026-04-19T15:19:37Z</time></trkpt><trkpt lat="43.71512574698951" lon="11.072446211172304"><ele>72.0</ele><time>2026-04-19T15:19:38Z</time></trkpt><trkpt lat="43.71492038734327" lon="11.072238347436311"><ele>72.0</ele><time>2026-04-19T15:19:39Z</time></trkpt><trkpt lat="43.71471977881905" lon="11.072024132662753"><ele>72.0</ele><time>2026-04-19T15:19:40Z</time></trkpt><trkpt lat="43.71451768465409" lon="11.071809590386875"><ele>70.5</ele><time>2026-04-19T15:19:41Z</time></trkpt><trkpt lat="43.71430756301239" lon="11.071602159161731"><ele>69.0</ele><time>2026-04-19T15:19:42Z</time></trkpt><trkpt lat="43.714095581420224" lon="11.071398616332633"><ele>69.0</ele><time>2026-04-19T15:19:43Z</time></trkpt><trkpt lat="43.713884205406934" lon="11.071196046838214"><ele>69.0</ele><time>2026-04-19T15:19:44Z</time></trkpt><trkpt lat="43.713675457637606" lon="11.070990845882644"><ele>66.5</ele><time>2026-04-19T15:19:45Z</time></trkpt><trkpt lat="43.71346701106329" lon="11.070780544884206"><ele>64.0</ele><time>2026-04-19T15:19:46Z</time></trkpt><trkpt lat="43.71326587149461" lon="11.070561572872682"><ele>64.0</ele><time>2026-04-19T15:19:47Z</time></trkpt><trkpt lat="43.71306993773786" lon="11.07032401377739"><ele>64.0</ele><time>2026-04-19T15:19:48Z</time></trkpt><trkpt lat="43.712888263653774" lon="11.07006551709959"><ele>63.0</ele><time>2026-04-19T15:19:49Z</time></trkpt><trkpt lat="43.712717900132716" lon="11.06979091039249"><ele>62.0</ele><time>2026-04-19T15:19:50Z</time></trkpt><trkpt lat="43.71255954070547" lon="11.069502142107817"><ele>62.0</ele><time>2026-04-19T15:19:51Z</time></trkpt><trkpt lat="43.71241471664646" lon="11.069196878116793"><ele>62.0</ele><time>2026-04-19T15:19:52Z</time></trkpt><trkpt lat="43.712283858682135" lon="11.068876855294972"><ele>68.0</ele><time>2026-04-19T15:19:53Z</time></trkpt><trkpt lat="43.71217214035058" lon="11.06854489699429"><ele>74.0</ele><time>2026-04-19T15:19:54Z</time></trkpt><trkpt lat="43.71207760953038" lon="11.06820227347358"><ele>79.5</ele><time>2026-04-19T15:19:55Z</time></trkpt><trkpt lat="43.71199901456922" lon="11.067853085659731"><ele>85.0</ele><time>2026-04-19T15:19:56Z</time></trkpt><trkpt lat="43.7119353972882" lon="11.067498968265607"><ele>76.5</ele><time>2026-04-19T15:19:57Z</time></trkpt><trkpt lat="43.71188934766187" lon="11.067141271307927"><ele>68.0</ele><time>2026-04-19T15:19:58Z</time></trkpt><trkpt lat="43.71186127827204" lon="11.066780050977812"><ele>66.5</ele><time>2026-04-19T15:19:59Z</time></trkpt><trkpt lat="43.71184584972052" lon="11.066417967173455"><ele>65.0</ele><time>2026-04-19T15:20:00Z</time></trkpt><trkpt lat="43.711845705169566" lon="11.066054390335594"><ele>63.0</ele><time>2026-04-19T15:20:01Z</time></trkpt><trkpt lat="43.71186406737955" lon="11.065695431252491"><ele>61.0</ele><time>2026-04-19T15:20:02Z</time></trkpt><trkpt lat="43.711898471571814" lon="11.065339581850138"><ele>71.5</ele><time>2026-04-19T15:20:03Z</time></trkpt><trkpt lat="43.71194978380111" lon="11.064988986442012"><ele>82.0</ele><time>2026-04-19T15:20:04Z</time></trkpt><trkpt lat="43.71200555150206" lon="11.064643224152817"><ele>82.0</ele><time>2026-04-19T15:20:05Z</time></trkpt><trkpt lat="43.7120537622095" lon="11.064292558668814"><ele>82.0</ele><time>2026-04-19T15:20:06Z</time></trkpt><trkpt lat="43.71209922913669" lon="11.063940199445573"><ele>79.0</ele><time>2026-04-19T15:20:07Z</time></trkpt><trkpt lat="43.71214642328879" lon="11.06358842458161"><ele>76.0</ele><time>2026-04-19T15:20:08Z</time></trkpt><trkpt lat="43.7121961653277" lon="11.063234854811942"><ele>71.0</ele><time>2026-04-19T15:20:08.999Z</time></trkpt><trkpt lat="43.71224874803464" lon="11.062883665749006"><ele>66.0</ele><time>2026-04-19T15:20:09.999Z</time></trkpt><trkpt lat="43.71229659990993" lon="11.062535748902441"><ele>60.5</ele><time>2026-04-19T15:20:10.999Z</time></trkpt><trkpt lat="43.712335561982044" lon="11.062184798505973"><ele>55.0</ele><time>2026-04-19T15:20:11.999Z</time></trkpt><trkpt lat="43.7123651960775" lon="11.061831405663408"><ele>53.0</ele><time>2026-04-19T15:20:12.999Z</time></trkpt><trkpt lat="43.71238798294936" lon="11.061476921306012"><ele>51.0</ele><time>2026-04-19T15:20:13.999Z</time></trkpt><trkpt lat="43.71240300464204" lon="11.061122609236056"><ele>50.5</ele><time>2026-04-19T15:20:14.999Z</time></trkpt><trkpt lat="43.71241099972473" lon="11.060768256163172"><ele>50.0</ele><time>2026-04-19T15:20:15.999Z</time></trkpt><trkpt lat="43.71240965703887" lon="11.060415073661952"><ele>50.0</ele><time>2026-04-19T15:20:16.999Z</time></trkpt><trkpt lat="43.71240337719688" lon="11.060062439110656"><ele>50.0</ele><time>2026-04-19T15:20:17.999Z</time></trkpt><trkpt lat="43.71239215542462" lon="11.059711197140288"><ele>49.5</ele><time>2026-04-19T15:20:18.999Z</time></trkpt><trkpt lat="43.712377313937225" lon="11.059364392578207"><ele>49.0</ele><time>2026-04-19T15:20:19.999Z</time></trkpt><trkpt lat="43.71235142783643" lon="11.05902040243233"><ele>50.0</ele><time>2026-04-19T15:20:20.999Z</time></trkpt><trkpt lat="43.71231447946245" lon="11.058678460647869"><ele>51.0</ele><time>2026-04-19T15:20:21.999Z</time></trkpt><trkpt lat="43.71227121625784" lon="11.058338108763838"><ele>51.0</ele><time>2026-04-19T15:20:22.999Z</time></trkpt><trkpt lat="43.71222475868543" lon="11.05799953163255"><ele>51.0</ele><time>2026-04-19T15:20:23.999Z</time></trkpt><trkpt lat="43.71217256761904" lon="11.057663582765366"><ele>50.0</ele><time>2026-04-19T15:20:24.999Z</time></trkpt><trkpt lat="43.712114336061155" lon="11.057325684261562"><ele>49.0</ele><time>2026-04-19T15:20:25.999Z</time></trkpt><trkpt lat="43.71206046250254" lon="11.056986311733821"><ele>49.0</ele><time>2026-04-19T15:20:26.999Z</time></trkpt><trkpt lat="43.712005465540166" lon="11.056641797984838"><ele>49.0</ele><time>2026-04-19T15:20:27.999Z</time></trkpt><trkpt lat="43.71195178842005" lon="11.056298401368196"><ele>48.5</ele><time>2026-04-19T15:20:28.999Z</time></trkpt><trkpt lat="43.71189966950105" lon="11.055957402315851"><ele>48.0</ele><time>2026-04-19T15:20:29.999Z</time></trkpt><trkpt lat="43.71184302447238" lon="11.055612815309123"><ele>48.0</ele><time>2026-04-19T15:20:30.999Z</time></trkpt><trkpt lat="43.7117861538655" lon="11.055265342291761"><ele>48.0</ele><time>2026-04-19T15:20:31.999Z</time></trkpt><trkpt lat="43.71172810795173" lon="11.054918498976615"><ele>47.5</ele><time>2026-04-19T15:20:32.999Z</time></trkpt><trkpt lat="43.71166980826628" lon="11.054573567451435"><ele>47.0</ele><time>2026-04-19T15:20:33.999Z</time></trkpt><trkpt lat="43.711611343367444" lon="11.054229277440541"><ele>46.0</ele><time>2026-04-19T15:20:34.999Z</time></trkpt><trkpt lat="43.71155578647663" lon="11.053882867948278"><ele>45.0</ele><time>2026-04-19T15:20:35.999Z</time></trkpt><trkpt lat="43.71150976217389" lon="11.053530661471362"><ele>46.0</ele><time>2026-04-19T15:20:36.999Z</time></trkpt><trkpt lat="43.711475928734544" lon="11.053176183294182"><ele>47.0</ele><time>2026-04-19T15:20:37.999Z</time></trkpt><trkpt lat="43.71145319698602" lon="11.052820028350403"><ele>47.0</ele><time>2026-04-19T15:20:38.999Z</time></trkpt><trkpt lat="43.711442583488726" lon="11.052463522924162"><ele>47.0</ele><time>2026-04-19T15:20:39.999Z</time></trkpt><trkpt lat="43.71144357696832" lon="11.052105746932968"><ele>47.5</ele><time>2026-04-19T15:20:40.999Z</time></trkpt><trkpt lat="43.711462235975226" lon="11.051749137751088"><ele>48.0</ele><time>2026-04-19T15:20:41.999Z</time></trkpt><trkpt lat="43.71149376052554" lon="11.051393960732886"><ele>48.5</ele><time>2026-04-19T15:20:42.999Z</time></trkpt><trkpt lat="43.71153440495473" lon="11.051042580731817"><ele>49.0</ele><time>2026-04-19T15:20:43.999Z</time></trkpt><trkpt lat="43.71158305741196" lon="11.050693253265386"><ele>48.0</ele><time>2026-04-19T15:20:44.999Z</time></trkpt><trkpt lat="43.71163561497763" lon="11.050345321666596"><ele>47.0</ele><time>2026-04-19T15:20:45.999Z</time></trkpt><trkpt lat="43.71168395691823" lon="11.050000453860958"><ele>49.0</ele><time>2026-04-19T15:20:46.999Z</time></trkpt><trkpt lat="43.71173204958736" lon="11.049655494824592"><ele>51.0</ele><time>2026-04-19T15:20:47.999Z</time></trkpt><trkpt lat="43.71178101281532" lon="11.049312028070766"><ele>51.5</ele><time>2026-04-19T15:20:48.999Z</time></trkpt><trkpt lat="43.71182721746327" lon="11.048971327267807"><ele>52.0</ele><time>2026-04-19T15:20:49.999Z</time></trkpt><trkpt lat="43.711868029836765" lon="11.048630040890467"><ele>56.5</ele><time>2026-04-19T15:20:50.999Z</time></trkpt><trkpt lat="43.71190618616317" lon="11.04828818426337"><ele>61.0</ele><time>2026-04-19T15:20:51.999Z</time></trkpt><trkpt lat="43.71195245539044" lon="11.047949316826342"><ele>54.5</ele><time>2026-04-19T15:20:52.999Z</time></trkpt><trkpt lat="43.712014462667824" lon="11.0476095965761"><ele>48.0</ele><time>2026-04-19T15:20:53.999Z</time></trkpt><trkpt lat="43.71209431642948" lon="11.047276511044174"><ele>48.0</ele><time>2026-04-19T15:20:54.999Z</time></trkpt><trkpt lat="43.712191149412085" lon="11.046954275725183"><ele>48.0</ele><time>2026-04-19T15:20:55.999Z</time></trkpt><trkpt lat="43.71229703494906" lon="11.046639669986074"><ele>51.5</ele><time>2026-04-19T15:20:56.999Z</time></trkpt><trkpt lat="43.71241667167038" lon="11.046334720386204"><ele>55.0</ele><time>2026-04-19T15:20:57.999Z</time></trkpt><trkpt lat="43.712549401941615" lon="11.046039584586051"><ele>50.0</ele><time>2026-04-19T15:20:58.999Z</time></trkpt><trkpt lat="43.7126938956631" lon="11.045752811504189"><ele>45.0</ele><time>2026-04-19T15:20:59.999Z</time></trkpt><trkpt lat="43.712840496946455" lon="11.045458456982864"><ele>45.0</ele><time>2026-04-19T15:21:00.999Z</time></trkpt><trkpt lat="43.712985633448525" lon="11.045159929251165"><ele>45.0</ele><time>2026-04-19T15:21:01.998Z</time></trkpt><trkpt lat="43.713135949752385" lon="11.044870833209615"><ele>47.5</ele><time>2026-04-19T15:21:02.998Z</time></trkpt><trkpt lat="43.71329022627006" lon="11.044586457749865"><ele>50.0</ele><time>2026-04-19T15:21:03.998Z</time></trkpt><trkpt lat="43.71344320824212" lon="11.04429768463138"><ele>48.5</ele><time>2026-04-19T15:21:04.998Z</time></trkpt><trkpt lat="43.71359042347218" lon="11.044003169301787"><ele>47.0</ele><time>2026-04-19T15:21:05.998Z</time></trkpt><trkpt lat="43.71373344625927" lon="11.043707755336467"><ele>47.0</ele><time>2026-04-19T15:21:06.998Z</time></trkpt><trkpt lat="43.71387800602729" lon="11.043413386713954"><ele>47.0</ele><time>2026-04-19T15:21:07.998Z</time></trkpt><trkpt lat="43.714022070088696" lon="11.043119854235298"><ele>48.0</ele><time>2026-04-19T15:21:08.998Z</time></trkpt><trkpt lat="43.71416498193801" lon="11.042826878201785"><ele>49.0</ele><time>2026-04-19T15:21:09.998Z</time></trkpt><trkpt lat="43.714306813470834" lon="11.04253369067353"><ele>47.5</ele><time>2026-04-19T15:21:10.998Z</time></trkpt><trkpt lat="43.71445070245908" lon="11.042240627138346"><ele>46.0</ele><time>2026-04-19T15:21:11.998Z</time></trkpt><trkpt lat="43.714592887354826" lon="11.04194926865711"><ele>46.0</ele><time>2026-04-19T15:21:12.998Z</time></trkpt><trkpt lat="43.71473436001835" lon="11.04165526701187"><ele>46.0</ele><time>2026-04-19T15:21:13.998Z</time></trkpt><trkpt lat="43.71487537096316" lon="11.041362318984627"><ele>49.0</ele><time>2026-04-19T15:21:14.998Z</time></trkpt><trkpt lat="43.71501800635548" lon="11.041073429885246"><ele>52.0</ele><time>2026-04-19T15:21:15.998Z</time></trkpt><trkpt lat="43.71516279378993" lon="11.040782589141715"><ele>48.5</ele><time>2026-04-19T15:21:16.998Z</time></trkpt><trkpt lat="43.71530439283927" lon="11.040494267700753"><ele>45.0</ele><time>2026-04-19T15:21:17.998Z</time></trkpt><trkpt lat="43.71544447856543" lon="11.040207904410794"><ele>49.0</ele><time>2026-04-19T15:21:18.998Z</time></trkpt><trkpt lat="43.71557840585267" lon="11.039920419835436"><ele>53.0</ele><time>2026-04-19T15:21:19.998Z</time></trkpt><trkpt lat="43.71570722375815" lon="11.039630383075867"><ele>53.0</ele><time>2026-04-19T15:21:20.998Z</time></trkpt><trkpt lat="43.71582982696757" lon="11.039334224479198"><ele>53.0</ele><time>2026-04-19T15:21:21.998Z</time></trkpt><trkpt lat="43.715943376800844" lon="11.039028253258115"><ele>48.0</ele><time>2026-04-19T15:21:22.998Z</time></trkpt><trkpt lat="43.71604646417038" lon="11.038714124068099"><ele>43.0</ele><time>2026-04-19T15:21:24Z</time></trkpt><trkpt lat="43.716133954180584" lon="11.038392920182512"><ele>45.0</ele><time>2026-04-19T15:21:25Z</time></trkpt><trkpt lat="43.71620662012661" lon="11.038066797868092"><ele>47.0</ele><time>2026-04-19T15:21:26Z</time></trkpt><trkpt lat="43.716265562233204" lon="11.037735458383354"><ele>51.0</ele><time>2026-04-19T15:21:27Z</time></trkpt><trkpt lat="43.71631406063851" lon="11.037398912131485"><ele>55.0</ele><time>2026-04-19T15:21:28Z</time></trkpt><trkpt lat="43.716360659878596" lon="11.037060965587022"><ele>55.0</ele><time>2026-04-19T15:21:29Z</time></trkpt><trkpt lat="43.71641147220924" lon="11.036724315430314"><ele>55.0</ele><time>2026-04-19T15:21:30Z</time></trkpt><trkpt lat="43.71647215177544" lon="11.036385683946367"><ele>58.0</ele><time>2026-04-19T15:21:31Z</time></trkpt><trkpt lat="43.71654671617661" lon="11.03605154502373"><ele>61.0</ele><time>2026-04-19T15:21:32Z</time></trkpt><trkpt lat="43.716637666245525" lon="11.035723549606018"><ele>61.0</ele><time>2026-04-19T15:21:33Z</time></trkpt><trkpt lat="43.71674101010498" lon="11.035405824136504"><ele>61.0</ele><time>2026-04-19T15:21:34Z</time></trkpt><trkpt lat="43.716857259486076" lon="11.03509636410514"><ele>53.0</ele><time>2026-04-19T15:21:35Z</time></trkpt><trkpt lat="43.71698896575787" lon="11.03479647559406"><ele>45.0</ele><time>2026-04-19T15:21:36Z</time></trkpt><trkpt lat="43.71712964402582" lon="11.034507216942536"><ele>45.0</ele><time>2026-04-19T15:21:37Z</time></trkpt><trkpt lat="43.71727588915582" lon="11.034220691351953"><ele>45.0</ele><time>2026-04-19T15:21:38Z</time></trkpt><trkpt lat="43.71742052314027" lon="11.033934141687297"><ele>45.0</ele><time>2026-04-19T15:21:39Z</time></trkpt><trkpt lat="43.717563074912434" lon="11.03364584554336"><ele>45.0</ele><time>2026-04-19T15:21:40Z</time></trkpt><trkpt lat="43.71770309197486" lon="11.033355353878255"><ele>52.0</ele><time>2026-04-19T15:21:41Z</time></trkpt><trkpt lat="43.71784289251032" lon="11.03306042805649"><ele>59.0</ele><time>2026-04-19T15:21:42Z</time></trkpt><trkpt lat="43.71798205281641" lon="11.032759925645324"><ele>63.0</ele><time>2026-04-19T15:21:43Z</time></trkpt><trkpt lat="43.7181264541956" lon="11.032449451064725"><ele>67.0</ele><time>2026-04-19T15:21:44Z</time></trkpt><trkpt lat="43.7182792345149" lon="11.032136404843422"><ele>67.0</ele><time>2026-04-19T15:21:45Z</time></trkpt><trkpt lat="43.718438849606244" lon="11.031818894017562"><ele>67.0</ele><time>2026-04-19T15:21:46Z</time></trkpt><trkpt lat="43.71859827250099" lon="11.031503826270523"><ele>65.0</ele><time>2026-04-19T15:21:47Z</time></trkpt><trkpt lat="43.718759032919515" lon="11.031190827727476"><ele>63.0</ele><time>2026-04-19T15:21:48Z</time></trkpt><trkpt lat="43.71892207534735" lon="11.030876307951274"><ele>65.0</ele><time>2026-04-19T15:21:49Z</time></trkpt><trkpt lat="43.71908836982265" lon="11.030564259054238"><ele>67.0</ele><time>2026-04-19T15:21:50Z</time></trkpt><trkpt lat="43.71925661082459" lon="11.030258906163644"><ele>65.5</ele><time>2026-04-19T15:21:51Z</time></trkpt><trkpt lat="43.71941995476765" lon="11.029954833239179"><ele>64.0</ele><time>2026-04-19T15:21:52Z</time></trkpt><trkpt lat="43.71957507126624" lon="11.029646953119256"><ele>64.0</ele><time>2026-04-19T15:21:53Z</time></trkpt><trkpt lat="43.719727728107515" lon="11.029339209272738"><ele>64.0</ele><time>2026-04-19T15:21:54Z</time></trkpt><trkpt lat="43.71988014570857" lon="11.029034821451258"><ele>68.5</ele><time>2026-04-19T15:21:55Z</time></trkpt><trkpt lat="43.72003191143359" lon="11.028732460174393"><ele>73.0</ele><time>2026-04-19T15:21:56Z</time></trkpt><trkpt lat="43.72018257108586" lon="11.028430820558738"><ele>70.5</ele><time>2026-04-19T15:21:57Z</time></trkpt><trkpt lat="43.72033183850105" lon="11.028132019127666"><ele>68.0</ele><time>2026-04-19T15:21:58Z</time></trkpt><trkpt lat="43.72047980221622" lon="11.027833385345957"><ele>68.0</ele><time>2026-04-19T15:21:59Z</time></trkpt><trkpt lat="43.72062736061013" lon="11.02753617780941"><ele>68.0</ele><time>2026-04-19T15:22:00Z</time></trkpt><trkpt lat="43.72077598274439" lon="11.027242230655556"><ele>70.0</ele><time>2026-04-19T15:22:01Z</time></trkpt><trkpt lat="43.72092470825947" lon="11.026949660608029"><ele>72.0</ele><time>2026-04-19T15:22:02Z</time></trkpt><trkpt lat="43.72107347682983" lon="11.026659657026334"><ele>65.5</ele><time>2026-04-19T15:22:03Z</time></trkpt><trkpt lat="43.72122174840072" lon="11.02636631666861"><ele>59.0</ele><time>2026-04-19T15:22:04Z</time></trkpt><trkpt lat="43.721367315452284" lon="11.02607142127856"><ele>62.5</ele><time>2026-04-19T15:22:05Z</time></trkpt><trkpt lat="43.72151318536313" lon="11.025776595402407"><ele>66.0</ele><time>2026-04-19T15:22:06Z</time></trkpt><trkpt lat="43.72166010213966" lon="11.025485428598854"><ele>66.0</ele><time>2026-04-19T15:22:07Z</time></trkpt><trkpt lat="43.72180835801507" lon="11.025192187503709"><ele>66.0</ele><time>2026-04-19T15:22:08Z</time></trkpt><trkpt lat="43.72196050226555" lon="11.024901500983226"><ele>61.0</ele><time>2026-04-19T15:22:09Z</time></trkpt><trkpt lat="43.722121318484895" lon="11.024617096237465"><ele>56.0</ele><time>2026-04-19T15:22:10Z</time></trkpt><trkpt lat="43.722286019129214" lon="11.024339350831877"><ele>61.5</ele><time>2026-04-19T15:22:11Z</time></trkpt><trkpt lat="43.722454581895214" lon="11.024069017460917"><ele>67.0</ele><time>2026-04-19T15:22:12Z</time></trkpt><trkpt lat="43.72262703300469" lon="11.023804009822516"><ele>69.0</ele><time>2026-04-19T15:22:13Z</time></trkpt><trkpt lat="43.72280252761444" lon="11.023550056329352"><ele>71.0</ele><time>2026-04-19T15:22:14Z</time></trkpt><trkpt lat="43.72298104463829" lon="11.02330258574371"><ele>71.0</ele><time>2026-04-19T15:22:15Z</time></trkpt><trkpt lat="43.72316445634897" lon="11.023061853983146"><ele>71.0</ele><time>2026-04-19T15:22:16Z</time></trkpt><trkpt lat="43.723347683867686" lon="11.02282262880782"><ele>71.0</ele><time>2026-04-19T15:22:17Z</time></trkpt><trkpt lat="43.72353076814958" lon="11.022579850004517"><ele>71.0</ele><time>2026-04-19T15:22:18Z</time></trkpt><trkpt lat="43.723710759742836" lon="11.022340003064853"><ele>69.0</ele><time>2026-04-19T15:22:19Z</time></trkpt><trkpt lat="43.723888110606914" lon="11.022100214040748"><ele>67.0</ele><time>2026-04-19T15:22:20Z</time></trkpt><trkpt lat="43.724057366138766" lon="11.021855186336579"><ele>69.5</ele><time>2026-04-19T15:22:21Z</time></trkpt><trkpt lat="43.72421947100525" lon="11.021599673075512"><ele>72.0</ele><time>2026-04-19T15:22:22Z</time></trkpt><trkpt lat="43.72436877419963" lon="11.021332708129128"><ele>71.0</ele><time>2026-04-19T15:22:23Z</time></trkpt><trkpt lat="43.72450737167566" lon="11.021052372402853"><ele>70.0</ele><time>2026-04-19T15:22:24Z</time></trkpt><trkpt lat="43.724636427550976" lon="11.02075644215894"><ele>70.0</ele><time>2026-04-19T15:22:24.999Z</time></trkpt><trkpt lat="43.72475343912797" lon="11.020452403644507"><ele>70.0</ele><time>2026-04-19T15:22:25.999Z</time></trkpt><trkpt lat="43.724860439049536" lon="11.020141183572628"><ele>74.0</ele><time>2026-04-19T15:22:26.999Z</time></trkpt><trkpt lat="43.72495143844343" lon="11.01981914479784"><ele>78.0</ele><time>2026-04-19T15:22:27.999Z</time></trkpt><trkpt lat="43.725031714041435" lon="11.019489073954242"><ele>78.0</ele><time>2026-04-19T15:22:28.999Z</time></trkpt><trkpt lat="43.72510130833675" lon="11.019152217032532"><ele>78.0</ele><time>2026-04-19T15:22:29.999Z</time></trkpt><trkpt lat="43.725156574489" lon="11.018811421686365"><ele>81.0</ele><time>2026-04-19T15:22:30.999Z</time></trkpt><trkpt lat="43.72519524006688" lon="11.018468204966851"><ele>84.0</ele><time>2026-04-19T15:22:31.999Z</time></trkpt><trkpt lat="43.725219762077224" lon="11.018120979023223"><ele>72.5</ele><time>2026-04-19T15:22:32.999Z</time></trkpt><trkpt lat="43.725230489366936" lon="11.01777178851531"><ele>61.0</ele><time>2026-04-19T15:22:33.999Z</time></trkpt><trkpt lat="43.72523119052585" lon="11.017422347251015"><ele>67.0</ele><time>2026-04-19T15:22:34.999Z</time></trkpt><trkpt lat="43.72521998058007" lon="11.017070375581737"><ele>73.0</ele><time>2026-04-19T15:22:35.999Z</time></trkpt><trkpt lat="43.72519517611534" lon="11.016721351744923"><ele>68.5</ele><time>2026-04-19T15:22:36.999Z</time></trkpt><trkpt lat="43.72515534518195" lon="11.0163737604228"><ele>64.0</ele><time>2026-04-19T15:22:37.999Z</time></trkpt><trkpt lat="43.7251009623869" lon="11.016032635793188"><ele>61.5</ele><time>2026-04-19T15:22:38.999Z</time></trkpt><trkpt lat="43.72502981131815" lon="11.01569821991732"><ele>59.0</ele><time>2026-04-19T15:22:39.999Z</time></trkpt><trkpt lat="43.72494535440392" lon="11.015367713927288"><ele>59.0</ele><time>2026-04-19T15:22:40.999Z</time></trkpt><trkpt lat="43.72484586826025" lon="11.015045691015054"><ele>59.0</ele><time>2026-04-19T15:22:41.999Z</time></trkpt><trkpt lat="43.72473212092343" lon="11.014728756354256"><ele>57.0</ele><time>2026-04-19T15:22:42.999Z</time></trkpt><trkpt lat="43.724602726780624" lon="11.014422681110016"><ele>55.0</ele><time>2026-04-19T15:22:43.999Z</time></trkpt><trkpt lat="43.72446476752262" lon="11.014128065974159"><ele>55.5</ele><time>2026-04-19T15:22:44.999Z</time></trkpt><trkpt lat="43.72432198282104" lon="11.013833450966269"><ele>56.0</ele><time>2026-04-19T15:22:45.999Z</time></trkpt><trkpt lat="43.72418084318905" lon="11.013538279487657"><ele>54.0</ele><time>2026-04-19T15:22:46.999Z</time></trkpt><trkpt lat="43.724041302569084" lon="11.013247505103456"><ele>52.0</ele><time>2026-04-19T15:22:47.999Z</time></trkpt><trkpt lat="43.72390354608157" lon="11.01296270896115"><ele>52.0</ele><time>2026-04-19T15:22:48.999Z</time></trkpt><trkpt lat="43.72376746991281" lon="11.012678112642677"><ele>52.0</ele><time>2026-04-19T15:22:49.999Z</time></trkpt><trkpt lat="43.72362892599411" lon="11.012397011468183"><ele>52.5</ele><time>2026-04-19T15:22:50.999Z</time></trkpt><trkpt lat="43.72349145239019" lon="11.012116421203"><ele>53.0</ele><time>2026-04-19T15:22:51.999Z</time></trkpt><trkpt lat="43.72335471925065" lon="11.01183930896303"><ele>48.0</ele><time>2026-04-19T15:22:52.999Z</time></trkpt><trkpt lat="43.723214245408016" lon="11.011559447725622"><ele>43.0</ele><time>2026-04-19T15:22:53.999Z</time></trkpt><trkpt lat="43.72306849027167" lon="11.011282771693448"><ele>43.0</ele><time>2026-04-19T15:22:54.999Z</time></trkpt><trkpt lat="43.72292085920213" lon="11.01099525343075"><ele>43.0</ele><time>2026-04-19T15:22:55.999Z</time></trkpt><trkpt lat="43.722782555825155" lon="11.010696503688951"><ele>39.0</ele><time>2026-04-19T15:22:56.999Z</time></trkpt><trkpt lat="43.722659966879526" lon="11.010386058011877"><ele>35.0</ele><time>2026-04-19T15:22:57.999Z</time></trkpt><trkpt lat="43.72254764772945" lon="11.010067529800567"><ele>33.0</ele><time>2026-04-19T15:22:58.999Z</time></trkpt><trkpt lat="43.72244743365216" lon="11.00973747137111"><ele>31.0</ele><time>2026-04-19T15:22:59.999Z</time></trkpt><trkpt lat="43.72236142119779" lon="11.009402024681089"><ele>30.0</ele><time>2026-04-19T15:23:00.999Z</time></trkpt><trkpt lat="43.72228748268255" lon="11.009054242847279"><ele>29.0</ele><time>2026-04-19T15:23:01.999Z</time></trkpt><trkpt lat="43.72221678097578" lon="11.00870724429374"><ele>29.0</ele><time>2026-04-19T15:23:02.999Z</time></trkpt><trkpt lat="43.72215486777505" lon="11.008358732329526"><ele>29.0</ele><time>2026-04-19T15:23:03.999Z</time></trkpt><trkpt lat="43.72210418281291" lon="11.008007250120704"><ele>28.5</ele><time>2026-04-19T15:23:04.999Z</time></trkpt><trkpt lat="43.72206583103922" lon="11.007653412429107"><ele>28.0</ele><time>2026-04-19T15:23:05.999Z</time></trkpt><trkpt lat="43.72203448939517" lon="11.007301591624874"><ele>28.0</ele><time>2026-04-19T15:23:06.999Z</time></trkpt><trkpt lat="43.72199973635023" lon="11.006948823169338"><ele>28.0</ele><time>2026-04-19T15:23:07.999Z</time></trkpt><trkpt lat="43.72195869433402" lon="11.006598413293494"><ele>28.0</ele><time>2026-04-19T15:23:08.999Z</time></trkpt><trkpt lat="43.72191990267661" lon="11.006250787537333"><ele>28.0</ele><time>2026-04-19T15:23:09.999Z</time></trkpt><trkpt lat="43.72188238766387" lon="11.005908336037377"><ele>28.0</ele><time>2026-04-19T15:23:10.999Z</time></trkpt><trkpt lat="43.72184466489284" lon="11.005570376981803"><ele>28.0</ele><time>2026-04-19T15:23:11.999Z</time></trkpt><trkpt lat="43.72180694048257" lon="11.00523110849766"><ele>28.5</ele><time>2026-04-19T15:23:12.999Z</time></trkpt><trkpt lat="43.721768269322745" lon="11.004893840808014"><ele>29.0</ele><time>2026-04-19T15:23:13.999Z</time></trkpt><trkpt lat="43.721721591408254" lon="11.004556975387075"><ele>29.0</ele><time>2026-04-19T15:23:14.999Z</time></trkpt><trkpt lat="43.72167323930251" lon="11.00421535175649"><ele>29.0</ele><time>2026-04-19T15:23:15.999Z</time></trkpt><trkpt lat="43.72162983603835" lon="11.003871161663342"><ele>30.0</ele><time>2026-04-19T15:23:16.999Z</time></trkpt><trkpt lat="43.72158857692685" lon="11.003526581301099"><ele>31.0</ele><time>2026-04-19T15:23:17.998Z</time></trkpt><trkpt lat="43.72155021191869" lon="11.003183367598076"><ele>31.0</ele><time>2026-04-19T15:23:18.998Z</time></trkpt><trkpt lat="43.721518884274545" lon="11.00283795827727"><ele>31.0</ele><time>2026-04-19T15:23:19.998Z</time></trkpt><trkpt lat="43.721491235083526" lon="11.002487281833139"><ele>31.0</ele><time>2026-04-19T15:23:20.998Z</time></trkpt><trkpt lat="43.72146383689912" lon="11.002135037504301"><ele>31.0</ele><time>2026-04-19T15:23:21.998Z</time></trkpt><trkpt lat="43.72143379894349" lon="11.001787207700303"><ele>30.5</ele><time>2026-04-19T15:23:22.997Z</time></trkpt><trkpt lat="43.72139794431957" lon="11.00144431359349"><ele>30.0</ele><time>2026-04-19T15:23:23.997Z</time></trkpt><trkpt lat="43.72135732630008" lon="11.001102793801055"><ele>29.5</ele><time>2026-04-19T15:23:24.997Z</time></trkpt><trkpt lat="43.72131640636277" lon="11.000764735576691"><ele>29.0</ele><time>2026-04-19T15:23:25.997Z</time></trkpt><trkpt lat="43.721279396216794" lon="11.000431607333752"><ele>29.0</ele><time>2026-04-19T15:23:26.997Z</time></trkpt><trkpt lat="43.721242445349816" lon="11.000099416971446"><ele>29.0</ele><time>2026-04-19T15:23:27.997Z</time></trkpt><trkpt lat="43.72120914792094" lon="10.999770354371439"><ele>29.0</ele><time>2026-04-19T15:23:28.997Z</time></trkpt><trkpt lat="43.7211749071131" lon="10.999440699794578"><ele>29.0</ele><time>2026-04-19T15:23:30Z</time></trkpt><trkpt lat="43.72113901800937" lon="10.99911150802508"><ele>29.0</ele><time>2026-04-19T15:23:31Z</time></trkpt><trkpt lat="43.72109841210962" lon="10.998782087850604"><ele>29.0</ele><time>2026-04-19T15:23:32Z</time></trkpt><trkpt lat="43.7210514410039" lon="10.998446414958906"><ele>29.5</ele><time>2026-04-19T15:23:33Z</time></trkpt><trkpt lat="43.721004584401236" lon="10.998109916407751"><ele>30.0</ele><time>2026-04-19T15:23:34Z</time></trkpt><trkpt lat="43.72096223998269" lon="10.997774140880185"><ele>29.0</ele><time>2026-04-19T15:23:35Z</time></trkpt><trkpt lat="43.72092323206809" lon="10.997437097681692"><ele>28.0</ele><time>2026-04-19T15:23:36Z</time></trkpt><trkpt lat="43.720885156147375" lon="10.997096277590776"><ele>28.0</ele><time>2026-04-19T15:23:37Z</time></trkpt><trkpt lat="43.720849420273105" lon="10.996749652843027"><ele>28.0</ele><time>2026-04-19T15:23:38Z</time></trkpt><trkpt lat="43.72081352071849" lon="10.996403823635257"><ele>28.5</ele><time>2026-04-19T15:23:39Z</time></trkpt><trkpt lat="43.72077373471786" lon="10.996057450586642"><ele>29.0</ele><time>2026-04-19T15:23:40Z</time></trkpt><trkpt lat="43.720733939116876" lon="10.99571487659907"><ele>29.0</ele><time>2026-04-19T15:23:41Z</time></trkpt><trkpt lat="43.72069467877569" lon="10.99537243670826"><ele>29.0</ele><time>2026-04-19T15:23:42Z</time></trkpt><trkpt lat="43.72065433033279" lon="10.995029108473194"><ele>28.5</ele><time>2026-04-19T15:23:43Z</time></trkpt><trkpt lat="43.720614573337016" lon="10.994689281614553"><ele>28.0</ele><time>2026-04-19T15:23:44Z</time></trkpt><trkpt lat="43.72057808953427" lon="10.994354224908966"><ele>28.0</ele><time>2026-04-19T15:23:45Z</time></trkpt><trkpt lat="43.72054462495229" lon="10.994028515833092"><ele>28.0</ele><time>2026-04-19T15:23:46Z</time></trkpt><trkpt lat="43.72051418575641" lon="10.993712855144915"><ele>28.0</ele><time>2026-04-19T15:23:47Z</time></trkpt><trkpt lat="43.72048529065085" lon="10.993416977830378"><ele>28.0</ele><time>2026-04-19T15:23:47.999Z</time></trkpt><trkpt lat="43.72045672384829" lon="10.993121667890565"><ele>28.0</ele><time>2026-04-19T15:23:48.999Z</time></trkpt><trkpt lat="43.720431190466876" lon="10.992829404814202"><ele>28.666666666666668</ele><time>2026-04-19T15:23:49.999Z</time></trkpt><trkpt lat="43.720406921627344" lon="10.992537575894115"><ele>29.333333333333336</ele><time>2026-04-19T15:23:50.999Z</time></trkpt><trkpt lat="43.72038128654741" lon="10.992246422297654"><ele>30.0</ele><time>2026-04-19T15:23:51.999Z</time></trkpt><trkpt lat="43.72035016257398" lon="10.991950190073203"><ele>30.0</ele><time>2026-04-19T15:23:52.999Z</time></trkpt><trkpt lat="43.720316049135576" lon="10.991653181750245"><ele>30.0</ele><time>2026-04-19T15:23:53.999Z</time></trkpt><trkpt lat="43.72028288145666" lon="10.99135528200192"><ele>30.0</ele><time>2026-04-19T15:23:54.999Z</time></trkpt><trkpt lat="43.72025001800823" lon="10.991055846522293"><ele>29.0</ele><time>2026-04-19T15:23:55.999Z</time></trkpt><trkpt lat="43.720216818019104" lon="10.990751748043143"><ele>28.0</ele><time>2026-04-19T15:23:56.999Z</time></trkpt><trkpt lat="43.72018059985315" lon="10.99044125545333"><ele>28.0</ele><time>2026-04-19T15:23:57.999Z</time></trkpt><trkpt lat="43.72013737317012" lon="10.990125591447656"><ele>28.0</ele><time>2026-04-19T15:23:58.999Z</time></trkpt><trkpt lat="43.72008797247037" lon="10.98980284680605"><ele>27.5</ele><time>2026-04-19T15:23:59.999Z</time></trkpt><trkpt lat="43.720037075783026" lon="10.989475341851625"><ele>27.0</ele><time>2026-04-19T15:24:00.999Z</time></trkpt><trkpt lat="43.719981395061" lon="10.989144800141034"><ele>27.0</ele><time>2026-04-19T15:24:01.999Z</time></trkpt><trkpt lat="43.719923537433225" lon="10.988810112622094"><ele>27.0</ele><time>2026-04-19T15:24:02.999Z</time></trkpt><trkpt lat="43.719862466075014" lon="10.988474198531012"><ele>27.5</ele><time>2026-04-19T15:24:03.999Z</time></trkpt><trkpt lat="43.71979537589361" lon="10.988140215665393"><ele>28.0</ele><time>2026-04-19T15:24:04.999Z</time></trkpt><trkpt lat="43.719724576259985" lon="10.98780643174173"><ele>28.0</ele><time>2026-04-19T15:24:05.999Z</time></trkpt><trkpt lat="43.719648392657525" lon="10.987474660308697"><ele>28.0</ele><time>2026-04-19T15:24:06.999Z</time></trkpt><trkpt lat="43.71957445502109" lon="10.987143700438068"><ele>28.0</ele><time>2026-04-19T15:24:07.999Z</time></trkpt><trkpt lat="43.719494281207226" lon="10.986808731122755"><ele>28.0</ele><time>2026-04-19T15:24:08.999Z</time></trkpt><trkpt lat="43.71942373785956" lon="10.986473420679769"><ele>27.5</ele><time>2026-04-19T15:24:09.999Z</time></trkpt><trkpt lat="43.719353177269355" lon="10.986136721844623"><ele>27.0</ele><time>2026-04-19T15:24:10.999Z</time></trkpt><trkpt lat="43.719285944233384" lon="10.985800566259353"><ele>27.0</ele><time>2026-04-19T15:24:11.999Z</time></trkpt><trkpt lat="43.71922171840957" lon="10.985465698731996"><ele>27.0</ele><time>2026-04-19T15:24:12.999Z</time></trkpt><trkpt lat="43.719155645290805" lon="10.985133290516716"><ele>26.5</ele><time>2026-04-19T15:24:13.999Z</time></trkpt><trkpt lat="43.71908745680215" lon="10.984802852691294"><ele>26.0</ele><time>2026-04-19T15:24:14.999Z</time></trkpt><trkpt lat="43.71902183508308" lon="10.984471716380208"><ele>26.5</ele><time>2026-04-19T15:24:15.999Z</time></trkpt><trkpt lat="43.71896916241477" lon="10.984138020400161"><ele>27.0</ele><time>2026-04-19T15:24:16.999Z</time></trkpt><trkpt lat="43.7189155686405" lon="10.983805725438367"><ele>27.0</ele><time>2026-04-19T15:24:17.999Z</time></trkpt><trkpt lat="43.718855561580085" lon="10.9834780106293"><ele>27.0</ele><time>2026-04-19T15:24:18.999Z</time></trkpt><trkpt lat="43.71879145948937" lon="10.983149324819246"><ele>27.0</ele><time>2026-04-19T15:24:19.999Z</time></trkpt><trkpt lat="43.718727908417094" lon="10.982822035004991"><ele>27.0</ele><time>2026-04-19T15:24:20.999Z</time></trkpt><trkpt lat="43.71866335769663" lon="10.982496574733606"><ele>26.5</ele><time>2026-04-19T15:24:21.999Z</time></trkpt><trkpt lat="43.71859858971045" lon="10.982170914219612"><ele>26.0</ele><time>2026-04-19T15:24:22.999Z</time></trkpt><trkpt lat="43.71853319989366" lon="10.981844604551204"><ele>26.0</ele><time>2026-04-19T15:24:23.999Z</time></trkpt><trkpt lat="43.718470024097975" lon="10.981519349239074"><ele>26.0</ele><time>2026-04-19T15:24:24.999Z</time></trkpt><trkpt lat="43.718407423063475" lon="10.981193136334582"><ele>26.0</ele><time>2026-04-19T15:24:25.999Z</time></trkpt><trkpt lat="43.71833872920151" lon="10.980867765372984"><ele>26.0</ele><time>2026-04-19T15:24:26.999Z</time></trkpt><trkpt lat="43.718272151708774" lon="10.980545669417086"><ele>26.0</ele><time>2026-04-19T15:24:27.999Z</time></trkpt><trkpt lat="43.71820944588254" lon="10.98022323020161"><ele>26.0</ele><time>2026-04-19T15:24:28.999Z</time></trkpt><trkpt lat="43.718146089676594" lon="10.979898814186496"><ele>25.5</ele><time>2026-04-19T15:24:29.999Z</time></trkpt><trkpt lat="43.718075353065124" lon="10.979574775736886"><ele>25.0</ele><time>2026-04-19T15:24:30.999Z</time></trkpt><trkpt lat="43.71800531587632" lon="10.979245766436302"><ele>25.0</ele><time>2026-04-19T15:24:31.999Z</time></trkpt><trkpt lat="43.717945283454775" lon="10.978914339248595"><ele>25.0</ele><time>2026-04-19T15:24:32.999Z</time></trkpt><trkpt lat="43.717888741047595" lon="10.97858465023623"><ele>25.0</ele><time>2026-04-19T15:24:33.999Z</time></trkpt><trkpt lat="43.71782446355754" lon="10.978253407471287"><ele>25.0</ele><time>2026-04-19T15:24:34.999Z</time></trkpt><trkpt lat="43.71775579123791" lon="10.977923718275003"><ele>25.0</ele><time>2026-04-19T15:24:35.999Z</time></trkpt><trkpt lat="43.71767898603193" lon="10.977598510418524"><ele>25.0</ele><time>2026-04-19T15:24:36.999Z</time></trkpt><trkpt lat="43.717592822883134" lon="10.977273727378844"><ele>25.0</ele><time>2026-04-19T15:24:37.999Z</time></trkpt><trkpt lat="43.717499255996216" lon="10.976951018026172"><ele>25.0</ele><time>2026-04-19T15:24:38.998Z</time></trkpt><trkpt lat="43.717395636525055" lon="10.976635373207637"><ele>25.0</ele><time>2026-04-19T15:24:39.998Z</time></trkpt><trkpt lat="43.71728370970582" lon="10.976323350169991"><ele>25.0</ele><time>2026-04-19T15:24:40.998Z</time></trkpt><trkpt lat="43.717160754325214" lon="10.976015134538674"><ele>24.5</ele><time>2026-04-19T15:24:41.998Z</time></trkpt><trkpt lat="43.71702732447282" lon="10.975713750399288"><ele>24.0</ele><time>2026-04-19T15:24:42.998Z</time></trkpt><trkpt lat="43.716887501431145" lon="10.975420999293569"><ele>25.0</ele><time>2026-04-19T15:24:43.998Z</time></trkpt><trkpt lat="43.71674100614643" lon="10.975133243340983"><ele>26.0</ele><time>2026-04-19T15:24:44.998Z</time></trkpt><trkpt lat="43.7165845618576" lon="10.974854543006332"><ele>26.0</ele><time>2026-04-19T15:24:45.998Z</time></trkpt><trkpt lat="43.71641854691415" lon="10.974585040356091"><ele>26.0</ele><time>2026-04-19T15:24:46.998Z</time></trkpt><trkpt lat="43.716244763445836" lon="10.974322760376987"><ele>26.5</ele><time>2026-04-19T15:24:47.998Z</time></trkpt><trkpt lat="43.716066431297115" lon="10.974064911389807"><ele>27.0</ele><time>2026-04-19T15:24:48.998Z</time></trkpt><trkpt lat="43.71588229605552" lon="10.973811086427293"><ele>27.0</ele><time>2026-04-19T15:24:49.998Z</time></trkpt><trkpt lat="43.715697562833846" lon="10.973557117955473"><ele>27.0</ele><time>2026-04-19T15:24:50.998Z</time></trkpt><trkpt lat="43.715515203749426" lon="10.973304308418292"><ele>27.0</ele><time>2026-04-19T15:24:51.998Z</time></trkpt><trkpt lat="43.7153342655945" lon="10.973049698437537"><ele>27.0</ele><time>2026-04-19T15:24:52.998Z</time></trkpt><trkpt lat="43.71515501204982" lon="10.972794516740763"><ele>27.0</ele><time>2026-04-19T15:24:53.998Z</time></trkpt><trkpt lat="43.71497439810963" lon="10.972540792472559"><ele>27.0</ele><time>2026-04-19T15:24:54.998Z</time></trkpt><trkpt lat="43.71479363047314" lon="10.972294641531615"><ele>27.0</ele><time>2026-04-19T15:24:55.998Z</time></trkpt><trkpt lat="43.714614189928795" lon="10.972050107783206"><ele>27.0</ele><time>2026-04-19T15:24:56.998Z</time></trkpt><trkpt lat="43.71443850257817" lon="10.97179897440366"><ele>28.0</ele><time>2026-04-19T15:24:57.998Z</time></trkpt><trkpt lat="43.71426098941641" lon="10.971545753953206"><ele>29.0</ele><time>2026-04-19T15:24:58.998Z</time></trkpt><trkpt lat="43.71408214183048" lon="10.97129381093637"><ele>29.0</ele><time>2026-04-19T15:24:59.998Z</time></trkpt><trkpt lat="43.71389870950503" lon="10.971043158685898"><ele>29.0</ele><time>2026-04-19T15:25:00.998Z</time></trkpt><trkpt lat="43.71371564427582" lon="10.970794677748986"><ele>28.5</ele><time>2026-04-19T15:25:01.998Z</time></trkpt><trkpt lat="43.71353305128394" lon="10.970542472000758"><ele>28.0</ele><time>2026-04-19T15:25:02.998Z</time></trkpt><trkpt lat="43.71335234570873" lon="10.970290790264274"><ele>28.0</ele><time>2026-04-19T15:25:03.998Z</time></trkpt><trkpt lat="43.71317182169178" lon="10.97003880866827"><ele>28.0</ele><time>2026-04-19T15:25:04.998Z</time></trkpt><trkpt lat="43.712992775760526" lon="10.969783351715346"><ele>28.5</ele><time>2026-04-19T15:25:05.998Z</time></trkpt><trkpt lat="43.71281288079801" lon="10.969528443123332"><ele>29.0</ele><time>2026-04-19T15:25:06.998Z</time></trkpt><trkpt lat="43.712626528875425" lon="10.969283012155492"><ele>29.5</ele><time>2026-04-19T15:25:07.998Z</time></trkpt><trkpt lat="43.71243283872046" lon="10.969036680795565"><ele>30.0</ele><time>2026-04-19T15:25:08.998Z</time></trkpt><trkpt lat="43.71223983445104" lon="10.968781864050822"><ele>30.0</ele><time>2026-04-19T15:25:09.998Z</time></trkpt><trkpt lat="43.712046981672515" lon="10.968520436145669"><ele>30.0</ele><time>2026-04-19T15:25:10.998Z</time></trkpt><trkpt lat="43.7118502294597" lon="10.96825180570523"><ele>29.0</ele><time>2026-04-19T15:25:11.998Z</time></trkpt><trkpt lat="43.711655003646726" lon="10.967982277384454"><ele>28.0</ele><time>2026-04-19T15:25:12.998Z</time></trkpt><trkpt lat="43.71146150968984" lon="10.967712003630561"><ele>27.5</ele><time>2026-04-19T15:25:13.998Z</time></trkpt><trkpt lat="43.71127199894109" lon="10.96743850462229"><ele>27.0</ele><time>2026-04-19T15:25:14.998Z</time></trkpt><trkpt lat="43.71108897365674" lon="10.967163116101217"><ele>28.0</ele><time>2026-04-19T15:25:15.998Z</time></trkpt><trkpt lat="43.710907003969034" lon="10.966884333485396"><ele>29.0</ele><time>2026-04-19T15:25:16.998Z</time></trkpt><trkpt lat="43.71072320525273" lon="10.966608800520817"><ele>29.0</ele><time>2026-04-19T15:25:17.998Z</time></trkpt><trkpt lat="43.7105364942292" lon="10.966343685058858"><ele>29.0</ele><time>2026-04-19T15:25:18.998Z</time></trkpt><trkpt lat="43.71034830446151" lon="10.966081579488867"><ele>28.5</ele><time>2026-04-19T15:25:19.998Z</time></trkpt><trkpt lat="43.71016210558471" lon="10.965815408986838"><ele>28.0</ele><time>2026-04-19T15:25:20.998Z</time></trkpt><trkpt lat="43.70998442466705" lon="10.965536581572113"><ele>28.0</ele><time>2026-04-19T15:25:21.998Z</time></trkpt><trkpt lat="43.70982223891225" lon="10.96524060063204"><ele>28.0</ele><time>2026-04-19T15:25:22.998Z</time></trkpt><trkpt lat="43.70967178662306" lon="10.964928214556371"><ele>28.0</ele><time>2026-04-19T15:25:23.998Z</time></trkpt><trkpt lat="43.70952975103613" lon="10.964606435457027"><ele>28.0</ele><time>2026-04-19T15:25:24.998Z</time></trkpt><trkpt lat="43.70940560021256" lon="10.964275457572068"><ele>27.5</ele><time>2026-04-19T15:25:25.998Z</time></trkpt><trkpt lat="43.709303665437645" lon="10.963929383505981"><ele>27.0</ele><time>2026-04-19T15:25:26.998Z</time></trkpt><trkpt lat="43.70921659392014" lon="10.963578971017462"><ele>27.5</ele><time>2026-04-19T15:25:27.998Z</time></trkpt><trkpt lat="43.70914515009467" lon="10.963219263703566"><ele>28.0</ele><time>2026-04-19T15:25:28.998Z</time></trkpt><trkpt lat="43.709094273063386" lon="10.962855336925383"><ele>28.5</ele><time>2026-04-19T15:25:29.998Z</time></trkpt><trkpt lat="43.70905473456089" lon="10.9624875955017"><ele>29.0</ele><time>2026-04-19T15:25:30.998Z</time></trkpt><trkpt lat="43.70903115089893" lon="10.962116461756443"><ele>29.0</ele><time>2026-04-19T15:25:31.997Z</time></trkpt><trkpt lat="43.709028227939385" lon="10.961744614066507"><ele>29.0</ele><time>2026-04-19T15:25:32.997Z</time></trkpt><trkpt lat="43.70904395582341" lon="10.96137130082228"><ele>29.0</ele><time>2026-04-19T15:25:33.997Z</time></trkpt><trkpt lat="43.70907740197258" lon="10.960999685527547"><ele>29.0</ele><time>2026-04-19T15:25:35Z</time></trkpt><trkpt lat="43.70911678388727" lon="10.9606310689139"><ele>29.0</ele><time>2026-04-19T15:25:36Z</time></trkpt><trkpt lat="43.70915090810823" lon="10.96026335931892"><ele>29.0</ele><time>2026-04-19T15:25:37Z</time></trkpt><trkpt lat="43.709177946079194" lon="10.959901033628672"><ele>29.5</ele><time>2026-04-19T15:25:38Z</time></trkpt><trkpt lat="43.709206221950275" lon="10.959539092372047"><ele>30.0</ele><time>2026-04-19T15:25:39Z</time></trkpt><trkpt lat="43.709234753906465" lon="10.959177984172463"><ele>30.5</ele><time>2026-04-19T15:25:40Z</time></trkpt><trkpt lat="43.70926419467693" lon="10.958819353077347"><ele>31.0</ele><time>2026-04-19T15:25:41Z</time></trkpt><trkpt lat="43.70929523084547" lon="10.958460636136751"><ele>31.0</ele><time>2026-04-19T15:25:42Z</time></trkpt><trkpt lat="43.70932379206208" lon="10.958099815194672"><ele>31.0</ele><time>2026-04-19T15:25:43Z</time></trkpt><trkpt lat="43.7093459064259" lon="10.957734510162524"><ele>30.0</ele><time>2026-04-19T15:25:44Z</time></trkpt><trkpt lat="43.70936610191368" lon="10.957365753289954"><ele>29.0</ele><time>2026-04-19T15:25:45Z</time></trkpt><trkpt lat="43.70939341609686" lon="10.95699846663408"><ele>28.0</ele><time>2026-04-19T15:25:46Z</time></trkpt><trkpt lat="43.70942407087296" lon="10.956632300565875"><ele>27.0</ele><time>2026-04-19T15:25:47Z</time></trkpt><trkpt lat="43.70945254006983" lon="10.956265616355015"><ele>27.0</ele><time>2026-04-19T15:25:48Z</time></trkpt><trkpt lat="43.70948284078348" lon="10.955900359915457"><ele>27.0</ele><time>2026-04-19T15:25:49Z</time></trkpt><trkpt lat="43.70951168278772" lon="10.955539504210973"><ele>27.5</ele><time>2026-04-19T15:25:50Z</time></trkpt><trkpt lat="43.709541593850176" lon="10.955176802261928"><ele>28.0</ele><time>2026-04-19T15:25:51Z</time></trkpt><trkpt lat="43.70957258486396" lon="10.954814055153594"><ele>28.0</ele><time>2026-04-19T15:25:52Z</time></trkpt><trkpt lat="43.70960226360103" lon="10.954455891987273"><ele>28.0</ele><time>2026-04-19T15:25:53Z</time></trkpt><trkpt lat="43.70963118507251" lon="10.954098089869511"><ele>27.5</ele><time>2026-04-19T15:25:54Z</time></trkpt><trkpt lat="43.70965468888886" lon="10.953736913234557"><ele>27.0</ele><time>2026-04-19T15:25:55Z</time></trkpt><trkpt lat="43.70966691283761" lon="10.95337131061298"><ele>27.0</ele><time>2026-04-19T15:25:56Z</time></trkpt><trkpt lat="43.709667657835034" lon="10.953003685724482"><ele>27.0</ele><time>2026-04-19T15:25:57Z</time></trkpt><trkpt lat="43.709658833920685" lon="10.952632908974957"><ele>26.5</ele><time>2026-04-19T15:25:58Z</time></trkpt><trkpt lat="43.709644029313274" lon="10.952262228542914"><ele>26.0</ele><time>2026-04-19T15:25:59Z</time></trkpt><trkpt lat="43.70962252226665" lon="10.951896811741108"><ele>26.5</ele><time>2026-04-19T15:25:59.999Z</time></trkpt><trkpt lat="43.70959693928434" lon="10.951530629858935"><ele>27.0</ele><time>2026-04-19T15:26:00.999Z</time></trkpt><trkpt lat="43.709574532623556" lon="10.95116551065629"><ele>27.0</ele><time>2026-04-19T15:26:01.999Z</time></trkpt><trkpt lat="43.70955853147491" lon="10.95080517633411"><ele>27.0</ele><time>2026-04-19T15:26:02.999Z</time></trkpt><trkpt lat="43.70954146955642" lon="10.950446343956347"><ele>27.0</ele><time>2026-04-19T15:26:03.999Z</time></trkpt><trkpt lat="43.709520669792454" lon="10.950090467350375"><ele>27.0</ele><time>2026-04-19T15:26:04.999Z</time></trkpt><trkpt lat="43.70950083920764" lon="10.949737340855481"><ele>27.0</ele><time>2026-04-19T15:26:05.999Z</time></trkpt><trkpt lat="43.70948110717075" lon="10.949383761484404"><ele>27.0</ele><time>2026-04-19T15:26:06.999Z</time></trkpt><trkpt lat="43.70945945052508" lon="10.949030310125742"><ele>26.5</ele><time>2026-04-19T15:26:07.999Z</time></trkpt><trkpt lat="43.709436183461776" lon="10.94867286954094"><ele>26.0</ele><time>2026-04-19T15:26:08.999Z</time></trkpt><trkpt lat="43.70941343672492" lon="10.948315307320598"><ele>26.5</ele><time>2026-04-19T15:26:09.999Z</time></trkpt><trkpt lat="43.70939240893495" lon="10.947955481045357"><ele>27.0</ele><time>2026-04-19T15:26:10.999Z</time></trkpt><trkpt lat="43.70937063085017" lon="10.947600920734828"><ele>28.0</ele><time>2026-04-19T15:26:11.999Z</time></trkpt><trkpt lat="43.70934870032111" lon="10.94724365595782"><ele>29.0</ele><time>2026-04-19T15:26:12.999Z</time></trkpt><trkpt lat="43.709327445092775" lon="10.946885648932424"><ele>28.5</ele><time>2026-04-19T15:26:13.999Z</time></trkpt><trkpt lat="43.709308719352435" lon="10.946525018305996"><ele>28.0</ele><time>2026-04-19T15:26:14.999Z</time></trkpt><trkpt lat="43.70928999457449" lon="10.946162875107001"><ele>27.5</ele><time>2026-04-19T15:26:15.999Z</time></trkpt><trkpt lat="43.70926805285769" lon="10.945802098318822"><ele>27.0</ele><time>2026-04-19T15:26:16.999Z</time></trkpt><trkpt lat="43.70924318023606" lon="10.945437291047494"><ele>27.0</ele><time>2026-04-19T15:26:17.999Z</time></trkpt><trkpt lat="43.709219375911495" lon="10.945070893435297"><ele>27.0</ele><time>2026-04-19T15:26:18.999Z</time></trkpt><trkpt lat="43.70920070103863" lon="10.944704847934352"><ele>27.0</ele><time>2026-04-19T15:26:19.999Z</time></trkpt><trkpt lat="43.70918440033245" lon="10.944340919300533"><ele>27.0</ele><time>2026-04-19T15:26:20.999Z</time></trkpt><trkpt lat="43.70916941776843" lon="10.943976100327273"><ele>27.0</ele><time>2026-04-19T15:26:21.999Z</time></trkpt><trkpt lat="43.70915728336225" lon="10.943613487343283"><ele>27.0</ele><time>2026-04-19T15:26:22.999Z</time></trkpt><trkpt lat="43.709144647929044" lon="10.943252335477045"><ele>26.0</ele><time>2026-04-19T15:26:23.999Z</time></trkpt><trkpt lat="43.70913266526319" lon="10.94289338917788"><ele>25.0</ele><time>2026-04-19T15:26:24.999Z</time></trkpt><trkpt lat="43.70912113288048" lon="10.942535452326082"><ele>24.5</ele><time>2026-04-19T15:26:25.999Z</time></trkpt><trkpt lat="43.70910958633476" lon="10.942178472473154"><ele>24.0</ele><time>2026-04-19T15:26:26.999Z</time></trkpt><trkpt lat="43.709096785357104" lon="10.941822163715829"><ele>24.0</ele><time>2026-04-19T15:26:27.999Z</time></trkpt><trkpt lat="43.709085247275794" lon="10.941468447469443"><ele>24.0</ele><time>2026-04-19T15:26:28.999Z</time></trkpt><trkpt lat="43.70907917824348" lon="10.941113890071803"><ele>23.5</ele><time>2026-04-19T15:26:29.999Z</time></trkpt><trkpt lat="43.709077117092356" lon="10.940759767864542"><ele>23.0</ele><time>2026-04-19T15:26:30.999Z</time></trkpt><trkpt lat="43.70907051233175" lon="10.940409672372459"><ele>23.0</ele><time>2026-04-19T15:26:31.999Z</time></trkpt><trkpt lat="43.709062992224496" lon="10.940057604953681"><ele>23.0</ele><time>2026-04-19T15:26:32.999Z</time></trkpt><trkpt lat="43.709051872169184" lon="10.93970997737263"><ele>24.0</ele><time>2026-04-19T15:26:33.999Z</time></trkpt><trkpt lat="43.70904016806666" lon="10.939364500163329"><ele>25.0</ele><time>2026-04-19T15:26:34.999Z</time></trkpt><trkpt lat="43.709030698479495" lon="10.939021732291534"><ele>25.0</ele><time>2026-04-19T15:26:35.999Z</time></trkpt><trkpt lat="43.70902198936427" lon="10.938676759153173"><ele>25.0</ele><time>2026-04-19T15:26:36.999Z</time></trkpt><trkpt lat="43.70900954380213" lon="10.938333648298808"><ele>25.0</ele><time>2026-04-19T15:26:37.999Z</time></trkpt><trkpt lat="43.708997641496566" lon="10.937992324793896"><ele>25.0</ele><time>2026-04-19T15:26:38.999Z</time></trkpt><trkpt lat="43.708987497370174" lon="10.937650252191847"><ele>25.0</ele><time>2026-04-19T15:26:39.999Z</time></trkpt><trkpt lat="43.70897712822473" lon="10.937312183407935"><ele>25.0</ele><time>2026-04-19T15:26:40.999Z</time></trkpt><trkpt lat="43.70896562054225" lon="10.936971327572794"><ele>25.0</ele><time>2026-04-19T15:26:41.999Z</time></trkpt><trkpt lat="43.708954869057784" lon="10.936629030686474"><ele>25.0</ele><time>2026-04-19T15:26:42.999Z</time></trkpt><trkpt lat="43.70894067363669" lon="10.936284525959548"><ele>25.0</ele><time>2026-04-19T15:26:43.999Z</time></trkpt><trkpt lat="43.70892784042284" lon="10.93593606471184"><ele>25.0</ele><time>2026-04-19T15:26:44.999Z</time></trkpt><trkpt lat="43.708915098151955" lon="10.93558618935115"><ele>25.0</ele><time>2026-04-19T15:26:45.999Z</time></trkpt><trkpt lat="43.708903069656415" lon="10.935235191735709"><ele>25.0</ele><time>2026-04-19T15:26:46.999Z</time></trkpt><trkpt lat="43.70889226755716" lon="10.934883952930088"><ele>24.5</ele><time>2026-04-19T15:26:47.999Z</time></trkpt><trkpt lat="43.70888139585854" lon="10.934531296428775"><ele>24.0</ele><time>2026-04-19T15:26:48.999Z</time></trkpt><trkpt lat="43.7088709738528" lon="10.934177411491943"><ele>24.0</ele><time>2026-04-19T15:26:49.999Z</time></trkpt><trkpt lat="43.708860361032805" lon="10.933823548768101"><ele>24.0</ele><time>2026-04-19T15:26:50.998Z</time></trkpt><trkpt lat="43.70884827789327" lon="10.933471495700301"><ele>24.5</ele><time>2026-04-19T15:26:51.998Z</time></trkpt><trkpt lat="43.70883506168804" lon="10.933119220749152"><ele>25.0</ele><time>2026-04-19T15:26:52.998Z</time></trkpt><trkpt lat="43.708824330827404" lon="10.932769691448874"><ele>25.0</ele><time>2026-04-19T15:26:53.998Z</time></trkpt><trkpt lat="43.70881646901252" lon="10.932419312446365"><ele>25.0</ele><time>2026-04-19T15:26:54.998Z</time></trkpt><trkpt lat="43.70880505109674" lon="10.932067943644107"><ele>24.5</ele><time>2026-04-19T15:26:55.998Z</time></trkpt><trkpt lat="43.70879327224547" lon="10.931723392136554"><ele>24.0</ele><time>2026-04-19T15:26:56.998Z</time></trkpt><trkpt lat="43.708781329063115" lon="10.931380145395488"><ele>24.0</ele><time>2026-04-19T15:26:57.998Z</time></trkpt><trkpt lat="43.70877057906654" lon="10.931039266144694"><ele>24.0</ele><time>2026-04-19T15:26:58.998Z</time></trkpt><trkpt lat="43.70875898838895" lon="10.930693756484947"><ele>24.0</ele><time>2026-04-19T15:26:59.998Z</time></trkpt><trkpt lat="43.708749124530335" lon="10.930350610643005"><ele>24.0</ele><time>2026-04-19T15:27:00.998Z</time></trkpt><trkpt lat="43.70873953753663" lon="10.930007545661724"><ele>23.5</ele><time>2026-04-19T15:27:01.998Z</time></trkpt><trkpt lat="43.70872542021112" lon="10.929661975429154"><ele>23.0</ele><time>2026-04-19T15:27:02.998Z</time></trkpt><trkpt lat="43.70871058699361" lon="10.929312465843218"><ele>24.0</ele><time>2026-04-19T15:27:03.998Z</time></trkpt><trkpt lat="43.70869776373803" lon="10.92895782277606"><ele>25.0</ele><time>2026-04-19T15:27:04.998Z</time></trkpt><trkpt lat="43.70868673211517" lon="10.928600999045063"><ele>24.5</ele><time>2026-04-19T15:27:05.998Z</time></trkpt><trkpt lat="43.70867646850529" lon="10.928242294659674"><ele>24.0</ele><time>2026-04-19T15:27:06.998Z</time></trkpt><trkpt lat="43.70866791453378" lon="10.927884619998212"><ele>24.0</ele><time>2026-04-19T15:27:07.998Z</time></trkpt><trkpt lat="43.708657748424926" lon="10.927527578497823"><ele>24.0</ele><time>2026-04-19T15:27:08.998Z</time></trkpt><trkpt lat="43.70864791224925" lon="10.92717673007381"><ele>24.0</ele><time>2026-04-19T15:27:09.998Z</time></trkpt><trkpt lat="43.70863566849015" lon="10.926825126645014"><ele>24.0</ele><time>2026-04-19T15:27:10.998Z</time></trkpt><trkpt lat="43.7086232652908" lon="10.926470423947473"><ele>24.0</ele><time>2026-04-19T15:27:11.998Z</time></trkpt><trkpt lat="43.70861133529341" lon="10.926115896082743"><ele>24.0</ele><time>2026-04-19T15:27:12.998Z</time></trkpt><trkpt lat="43.708598393800294" lon="10.925767124285315"><ele>23.5</ele><time>2026-04-19T15:27:13.998Z</time></trkpt><trkpt lat="43.70858557119133" lon="10.925414120079184"><ele>23.0</ele><time>2026-04-19T15:27:14.998Z</time></trkpt><trkpt lat="43.708577886044566" lon="10.925063690849049"><ele>23.0</ele><time>2026-04-19T15:27:15.998Z</time></trkpt><trkpt lat="43.70856919678615" lon="10.924710989973104"><ele>23.0</ele><time>2026-04-19T15:27:16.998Z</time></trkpt><trkpt lat="43.708556280913584" lon="10.924355959170212"><ele>24.0</ele><time>2026-04-19T15:27:17.998Z</time></trkpt><trkpt lat="43.70853756319198" lon="10.924002346318849"><ele>25.0</ele><time>2026-04-19T15:27:18.998Z</time></trkpt><trkpt lat="43.7085108654394" lon="10.923652902586136"><ele>25.0</ele><time>2026-04-19T15:27:19.998Z</time></trkpt><trkpt lat="43.70848301724457" lon="10.923302657027893"><ele>25.0</ele><time>2026-04-19T15:27:20.998Z</time></trkpt><trkpt lat="43.7084522357575" lon="10.922950280550912"><ele>25.0</ele><time>2026-04-19T15:27:21.998Z</time></trkpt><trkpt lat="43.708417815435304" lon="10.922604866465697"><ele>25.0</ele><time>2026-04-19T15:27:22.998Z</time></trkpt><trkpt lat="43.708383448019376" lon="10.922260145622452"><ele>25.0</ele><time>2026-04-19T15:27:23.998Z</time></trkpt><trkpt lat="43.70834713093321" lon="10.921910380361126"><ele>25.0</ele><time>2026-04-19T15:27:24.998Z</time></trkpt><trkpt lat="43.70831485961301" lon="10.921564544187836"><ele>25.0</ele><time>2026-04-19T15:27:25.998Z</time></trkpt><trkpt lat="43.70828086247673" lon="10.921216866395705"><ele>25.0</ele><time>2026-04-19T15:27:26.998Z</time></trkpt><trkpt lat="43.70824802176887" lon="10.920870367992597"><ele>24.0</ele><time>2026-04-19T15:27:27.998Z</time></trkpt><trkpt lat="43.70821538576449" lon="10.920521456913038"><ele>23.0</ele><time>2026-04-19T15:27:28.998Z</time></trkpt><trkpt lat="43.708184950607574" lon="10.92017600956635"><ele>22.5</ele><time>2026-04-19T15:27:29.998Z</time></trkpt><trkpt lat="43.70815922539023" lon="10.919851588832582"><ele>22.0</ele><time>2026-04-19T15:27:30.998Z</time></trkpt><trkpt lat="43.70814105434486" lon="10.919538576657729"><ele>22.0</ele><time>2026-04-19T15:27:31.998Z</time></trkpt><trkpt lat="43.708131168769995" lon="10.919234934752552"><ele>22.0</ele><time>2026-04-19T15:27:32.998Z</time></trkpt><trkpt lat="43.708133853084554" lon="10.918954447038208"><ele>22.0</ele><time>2026-04-19T15:27:33.998Z</time></trkpt><trkpt lat="43.708147167386976" lon="10.918691986297402"><ele>22.666666666666664</ele><time>2026-04-19T15:27:34.998Z</time></trkpt><trkpt lat="43.70816658093119" lon="10.918412427722432"><ele>23.333333333333332</ele><time>2026-04-19T15:27:35.998Z</time></trkpt><trkpt lat="43.70819210335117" lon="10.918117475072567"><ele>24.0</ele><time>2026-04-19T15:27:36.998Z</time></trkpt><trkpt lat="43.70823461297352" lon="10.91781728807782"><ele>24.5</ele><time>2026-04-19T15:27:37.998Z</time></trkpt><trkpt lat="43.70830203250252" lon="10.917510660206132"><ele>25.0</ele><time>2026-04-19T15:27:38.998Z</time></trkpt><trkpt lat="43.70838699968128" lon="10.917204015064412"><ele>25.0</ele><time>2026-04-19T15:27:39.998Z</time></trkpt><trkpt lat="43.708481037419915" lon="10.916904355467326"><ele>25.0</ele><time>2026-04-19T15:27:41Z</time></trkpt><trkpt lat="43.708583368635146" lon="10.916612309539229"><ele>24.0</ele><time>2026-04-19T15:27:42Z</time></trkpt><trkpt lat="43.70869205841746" lon="10.916328851812874"><ele>23.0</ele><time>2026-04-19T15:27:43Z</time></trkpt><trkpt lat="43.7088066641077" lon="10.916050499717935"><ele>24.0</ele><time>2026-04-19T15:27:44Z</time></trkpt><trkpt lat="43.70892716883578" lon="10.91577805936684"><ele>25.0</ele><time>2026-04-19T15:27:45Z</time></trkpt><trkpt lat="43.709050578675196" lon="10.91550621643264"><ele>25.0</ele><time>2026-04-19T15:27:46Z</time></trkpt><trkpt lat="43.70917071934749" lon="10.915233843368211"><ele>25.0</ele><time>2026-04-19T15:27:47Z</time></trkpt><trkpt lat="43.70928993549101" lon="10.914958937657063"><ele>24.5</ele><time>2026-04-19T15:27:48Z</time></trkpt><trkpt lat="43.70941031331167" lon="10.914681591181555"><ele>24.0</ele><time>2026-04-19T15:27:49Z</time></trkpt><trkpt lat="43.70953638280132" lon="10.914400729487285"><ele>24.0</ele><time>2026-04-19T15:27:50Z</time></trkpt><trkpt lat="43.70966265132489" lon="10.914116670234227"><ele>24.0</ele><time>2026-04-19T15:27:51Z</time></trkpt><trkpt lat="43.709786090586455" lon="10.913830674188878"><ele>24.0</ele><time>2026-04-19T15:27:52Z</time></trkpt><trkpt lat="43.709909552741955" lon="10.913541747826761"><ele>24.0</ele><time>2026-04-19T15:27:53Z</time></trkpt><trkpt lat="43.71002829366472" lon="10.91324086031694"><ele>25.0</ele><time>2026-04-19T15:27:54Z</time></trkpt><trkpt lat="43.710138096917554" lon="10.912922644784881"><ele>26.0</ele><time>2026-04-19T15:27:55Z</time></trkpt><trkpt lat="43.71023214742517" lon="10.912592110805702"><ele>25.0</ele><time>2026-04-19T15:27:56Z</time></trkpt><trkpt lat="43.71031313153929" lon="10.912256139567493"><ele>24.0</ele><time>2026-04-19T15:27:57Z</time></trkpt><trkpt lat="43.71038466299257" lon="10.911919900951329"><ele>24.5</ele><time>2026-04-19T15:27:58Z</time></trkpt><trkpt lat="43.710444479573844" lon="10.911588837645112"><ele>25.0</ele><time>2026-04-19T15:27:59Z</time></trkpt><trkpt lat="43.71049357570675" lon="10.911260773092744"><ele>25.0</ele><time>2026-04-19T15:28:00Z</time></trkpt><trkpt lat="43.710531887375865" lon="10.910930731844456"><ele>25.0</ele><time>2026-04-19T15:28:01Z</time></trkpt><trkpt lat="43.710561517993746" lon="10.91060096487304"><ele>25.0</ele><time>2026-04-19T15:28:02Z</time></trkpt><trkpt lat="43.7105795294151" lon="10.910273926512131"><ele>25.0</ele><time>2026-04-19T15:28:03Z</time></trkpt><trkpt lat="43.71058612281284" lon="10.909952784795147"><ele>25.0</ele><time>2026-04-19T15:28:04Z</time></trkpt><trkpt lat="43.710578485478905" lon="10.909631585866865"><ele>25.0</ele><time>2026-04-19T15:28:05Z</time></trkpt><trkpt lat="43.71056190288234" lon="10.909314384649871"><ele>24.0</ele><time>2026-04-19T15:28:06Z</time></trkpt><trkpt lat="43.71053586476853" lon="10.90899280003385"><ele>23.0</ele><time>2026-04-19T15:28:07Z</time></trkpt><trkpt lat="43.710495535044465" lon="10.908671646772579"><ele>22.5</ele><time>2026-04-19T15:28:08Z</time></trkpt><trkpt lat="43.71044033793562" lon="10.908350044179855"><ele>22.0</ele><time>2026-04-19T15:28:09Z</time></trkpt><trkpt lat="43.71037234641923" lon="10.90801994006038"><ele>22.0</ele><time>2026-04-19T15:28:10Z</time></trkpt><trkpt lat="43.71029916378168" lon="10.907684600174257"><ele>22.0</ele><time>2026-04-19T15:28:11Z</time></trkpt><trkpt lat="43.71022086190343" lon="10.907343962148337"><ele>23.0</ele><time>2026-04-19T15:28:12Z</time></trkpt><trkpt lat="43.71014202980963" lon="10.907011344040534"><ele>24.0</ele><time>2026-04-19T15:28:13Z</time></trkpt><trkpt lat="43.71006556529826" lon="10.906676685297933"><ele>24.5</ele><time>2026-04-19T15:28:14Z</time></trkpt><trkpt lat="43.70999270852311" lon="10.906344354048818"><ele>25.0</ele><time>2026-04-19T15:28:14.999Z</time></trkpt><trkpt lat="43.70991993581532" lon="10.906012614660536"><ele>25.0</ele><time>2026-04-19T15:28:15.999Z</time></trkpt><trkpt lat="43.70984705556982" lon="10.90568040329279"><ele>25.0</ele><time>2026-04-19T15:28:16.999Z</time></trkpt><trkpt lat="43.70977487990484" lon="10.905348582460146"><ele>24.0</ele><time>2026-04-19T15:28:17.999Z</time></trkpt><trkpt lat="43.70970306593789" lon="10.905017303223286"><ele>23.0</ele><time>2026-04-19T15:28:18.999Z</time></trkpt><trkpt lat="43.709629076252696" lon="10.904687261740785"><ele>23.0</ele><time>2026-04-19T15:28:19.999Z</time></trkpt><trkpt lat="43.709555155570875" lon="10.904356350553313"><ele>23.0</ele><time>2026-04-19T15:28:20.999Z</time></trkpt><trkpt lat="43.70947975909716" lon="10.90402463532688"><ele>23.0</ele><time>2026-04-19T15:28:21.999Z</time></trkpt><trkpt lat="43.70940608150134" lon="10.903692113023041"><ele>23.0</ele><time>2026-04-19T15:28:22.999Z</time></trkpt><trkpt lat="43.709331164312815" lon="10.903361049940724"><ele>23.5</ele><time>2026-04-19T15:28:23.999Z</time></trkpt><trkpt lat="43.709257701664875" lon="10.903027953227458"><ele>24.0</ele><time>2026-04-19T15:28:24.999Z</time></trkpt><trkpt lat="43.70919142600733" lon="10.902692520739532"><ele>23.5</ele><time>2026-04-19T15:28:25.999Z</time></trkpt><trkpt lat="43.70912773415152" lon="10.902358243763409"><ele>23.0</ele><time>2026-04-19T15:28:26.999Z</time></trkpt><trkpt lat="43.709062994210406" lon="10.902028381034308"><ele>23.5</ele><time>2026-04-19T15:28:27.999Z</time></trkpt><trkpt lat="43.70899630646107" lon="10.90170229606576"><ele>24.0</ele><time>2026-04-19T15:28:28.999Z</time></trkpt><trkpt lat="43.70892715340759" lon="10.901378796875038"><ele>24.0</ele><time>2026-04-19T15:28:29.999Z</time></trkpt><trkpt lat="43.708854735642305" lon="10.90105561451506"><ele>24.0</ele><time>2026-04-19T15:28:30.999Z</time></trkpt><trkpt lat="43.708781342305876" lon="10.900736231397158"><ele>23.5</ele><time>2026-04-19T15:28:31.999Z</time></trkpt><trkpt lat="43.7087093371866" lon="10.900422338714002"><ele>23.0</ele><time>2026-04-19T15:28:32.999Z</time></trkpt><trkpt lat="43.70864048357382" lon="10.900111277134217"><ele>23.5</ele><time>2026-04-19T15:28:33.999Z</time></trkpt><trkpt lat="43.708573186497034" lon="10.899801947690726"><ele>24.0</ele><time>2026-04-19T15:28:34.999Z</time></trkpt><trkpt lat="43.708505606463746" lon="10.899493082237136"><ele>23.5</ele><time>2026-04-19T15:28:35.999Z</time></trkpt><trkpt lat="43.70843770776824" lon="10.899189605432555"><ele>23.0</ele><time>2026-04-19T15:28:36.999Z</time></trkpt><trkpt lat="43.70836883355021" lon="10.898882277829381"><ele>23.0</ele><time>2026-04-19T15:28:37.999Z</time></trkpt><trkpt lat="43.708300692295445" lon="10.898574846528065"><ele>23.0</ele><time>2026-04-19T15:28:38.999Z</time></trkpt><trkpt lat="43.70822955871695" lon="10.898264642227602"><ele>23.5</ele><time>2026-04-19T15:28:39.999Z</time></trkpt><trkpt lat="43.70814428652268" lon="10.897949492820096"><ele>24.0</ele><time>2026-04-19T15:28:40.999Z</time></trkpt><trkpt lat="43.708056348110134" lon="10.897624375454718"><ele>23.5</ele><time>2026-04-19T15:28:41.999Z</time></trkpt><trkpt lat="43.70797696586634" lon="10.897280106134712"><ele>23.0</ele><time>2026-04-19T15:28:42.999Z</time></trkpt><trkpt lat="43.70790557452878" lon="10.896930766185893"><ele>23.5</ele><time>2026-04-19T15:28:43.999Z</time></trkpt><trkpt lat="43.7078384695399" lon="10.896578564683628"><ele>24.0</ele><time>2026-04-19T15:28:44.999Z</time></trkpt><trkpt lat="43.70777372467121" lon="10.896228066414388"><ele>24.0</ele><time>2026-04-19T15:28:45.999Z</time></trkpt><trkpt lat="43.707704235751294" lon="10.89588151153224"><ele>24.0</ele><time>2026-04-19T15:28:46.999Z</time></trkpt><trkpt lat="43.70762814840963" lon="10.89554319191492"><ele>24.0</ele><time>2026-04-19T15:28:47.999Z</time></trkpt><trkpt lat="43.70755090672061" lon="10.89520504429729"><ele>24.0</ele><time>2026-04-19T15:28:48.999Z</time></trkpt><trkpt lat="43.70747722168888" lon="10.894868785783364"><ele>25.0</ele><time>2026-04-19T15:28:49.999Z</time></trkpt><trkpt lat="43.70740689481035" lon="10.894538752414434"><ele>26.0</ele><time>2026-04-19T15:28:50.999Z</time></trkpt><trkpt lat="43.7073369321896" lon="10.894213411701772"><ele>26.0</ele><time>2026-04-19T15:28:51.999Z</time></trkpt><trkpt lat="43.707263821712196" lon="10.89389428761635"><ele>26.0</ele><time>2026-04-19T15:28:52.999Z</time></trkpt><trkpt lat="43.70718960077089" lon="10.893578955300066"><ele>25.5</ele><time>2026-04-19T15:28:53.999Z</time></trkpt><trkpt lat="43.70711704171193" lon="10.89326402624272"><ele>25.0</ele><time>2026-04-19T15:28:54.999Z</time></trkpt><trkpt lat="43.70704936623525" lon="10.892948602643683"><ele>25.0</ele><time>2026-04-19T15:28:55.999Z</time></trkpt><trkpt lat="43.706982031634176" lon="10.892629146232077"><ele>25.0</ele><time>2026-04-19T15:28:56.999Z</time></trkpt><trkpt lat="43.706911710114255" lon="10.892309910370733"><ele>25.0</ele><time>2026-04-19T15:28:57.999Z</time></trkpt><trkpt lat="43.706836889501176" lon="10.891991429929304"><ele>25.0</ele><time>2026-04-19T15:28:58.999Z</time></trkpt><trkpt lat="43.70676231014323" lon="10.8916681265937"><ele>25.0</ele><time>2026-04-19T15:28:59.999Z</time></trkpt><trkpt lat="43.706691037839015" lon="10.891341482046897"><ele>25.0</ele><time>2026-04-19T15:29:00.999Z</time></trkpt><trkpt lat="43.70662024420911" lon="10.891012020401492"><ele>23.5</ele><time>2026-04-19T15:29:01.999Z</time></trkpt><trkpt lat="43.70655085634261" lon="10.890688032525105"><ele>22.0</ele><time>2026-04-19T15:29:02.999Z</time></trkpt><trkpt lat="43.70647869508396" lon="10.890368951968222"><ele>22.0</ele><time>2026-04-19T15:29:03.999Z</time></trkpt><trkpt lat="43.706406266391305" lon="10.890051288600294"><ele>22.0</ele><time>2026-04-19T15:29:04.999Z</time></trkpt><trkpt lat="43.70633536858195" lon="10.889732755684344"><ele>22.0</ele><time>2026-04-19T15:29:05.998Z</time></trkpt><trkpt lat="43.70626460000748" lon="10.889415287806141"><ele>22.0</ele><time>2026-04-19T15:29:06.998Z</time></trkpt><trkpt lat="43.70619343549901" lon="10.889100638215659"><ele>23.0</ele><time>2026-04-19T15:29:07.998Z</time></trkpt><trkpt lat="43.70612123695399" lon="10.888788253265215"><ele>24.0</ele><time>2026-04-19T15:29:08.998Z</time></trkpt><trkpt lat="43.7060466787714" lon="10.888474251240716"><ele>25.5</ele><time>2026-04-19T15:29:09.998Z</time></trkpt><trkpt lat="43.70596802939705" lon="10.888158665877219"><ele>27.0</ele><time>2026-04-19T15:29:10.998Z</time></trkpt><trkpt lat="43.705890465022705" lon="10.887833878338107"><ele>27.5</ele><time>2026-04-19T15:29:11.998Z</time></trkpt><trkpt lat="43.705814288589835" lon="10.887500184325846"><ele>28.0</ele><time>2026-04-19T15:29:12.998Z</time></trkpt><trkpt lat="43.70574203074959" lon="10.887159035162393"><ele>28.0</ele><time>2026-04-19T15:29:13.998Z</time></trkpt><trkpt lat="43.70567647196443" lon="10.886809302457179"><ele>28.0</ele><time>2026-04-19T15:29:14.998Z</time></trkpt><trkpt lat="43.70561501481916" lon="10.886460297512627"><ele>28.0</ele><time>2026-04-19T15:29:15.998Z</time></trkpt><trkpt lat="43.70555749310562" lon="10.886107973282927"><ele>28.0</ele><time>2026-04-19T15:29:16.998Z</time></trkpt><trkpt lat="43.705509440515904" lon="10.885752767908874"><ele>27.0</ele><time>2026-04-19T15:29:17.998Z</time></trkpt><trkpt lat="43.70546884893266" lon="10.885396759623475"><ele>26.0</ele><time>2026-04-19T15:29:18.998Z</time></trkpt><trkpt lat="43.70542641377364" lon="10.885042493698013"><ele>25.5</ele><time>2026-04-19T15:29:19.998Z</time></trkpt><trkpt lat="43.70537885249178" lon="10.884690619347815"><ele>25.0</ele><time>2026-04-19T15:29:20.998Z</time></trkpt><trkpt lat="43.70533190581839" lon="10.884336535827071"><ele>25.0</ele><time>2026-04-19T15:29:21.998Z</time></trkpt><trkpt lat="43.70528579326817" lon="10.883981256374607"><ele>25.0</ele><time>2026-04-19T15:29:22.998Z</time></trkpt><trkpt lat="43.705239501970055" lon="10.88362498664153"><ele>25.0</ele><time>2026-04-19T15:29:23.998Z</time></trkpt><trkpt lat="43.705193332659974" lon="10.883274167889814"><ele>25.0</ele><time>2026-04-19T15:29:24.998Z</time></trkpt><trkpt lat="43.705146004655646" lon="10.882923284463782"><ele>24.5</ele><time>2026-04-19T15:29:25.998Z</time></trkpt><trkpt lat="43.70510046692038" lon="10.88257450558143"><ele>24.0</ele><time>2026-04-19T15:29:26.998Z</time></trkpt><trkpt lat="43.705052584654666" lon="10.882224104789215"><ele>24.0</ele><time>2026-04-19T15:29:27.998Z</time></trkpt><trkpt lat="43.7050050769275" lon="10.881878672205652"><ele>24.0</ele><time>2026-04-19T15:29:28.998Z</time></trkpt><trkpt lat="43.70495752330681" lon="10.881532415392286"><ele>23.5</ele><time>2026-04-19T15:29:29.998Z</time></trkpt><trkpt lat="43.70491264949547" lon="10.881189489157105"><ele>23.0</ele><time>2026-04-19T15:29:30.998Z</time></trkpt><trkpt lat="43.70486858479627" lon="10.88084483084286"><ele>24.0</ele><time>2026-04-19T15:29:31.998Z</time></trkpt><trkpt lat="43.704823292021224" lon="10.880499876457382"><ele>25.0</ele><time>2026-04-19T15:29:32.998Z</time></trkpt><trkpt lat="43.70477798314578" lon="10.880158164146623"><ele>24.5</ele><time>2026-04-19T15:29:33.998Z</time></trkpt><trkpt lat="43.704734321799606" lon="10.87981703910366"><ele>24.0</ele><time>2026-04-19T15:29:34.998Z</time></trkpt><trkpt lat="43.704689750582084" lon="10.879479575563376"><ele>24.0</ele><time>2026-04-19T15:29:35.998Z</time></trkpt><trkpt lat="43.70464447445694" lon="10.879142032067243"><ele>24.0</ele><time>2026-04-19T15:29:36.998Z</time></trkpt><trkpt lat="43.704600802520744" lon="10.878804884449636"><ele>24.0</ele><time>2026-04-19T15:29:37.998Z</time></trkpt><trkpt lat="43.70455723542928" lon="10.878464138995227"><ele>24.0</ele><time>2026-04-19T15:29:38.998Z</time></trkpt><trkpt lat="43.7045148918633" lon="10.878123142600753"><ele>24.0</ele><time>2026-04-19T15:29:39.998Z</time></trkpt><trkpt lat="43.704471187591835" lon="10.877780689965514"><ele>24.0</ele><time>2026-04-19T15:29:40.998Z</time></trkpt><trkpt lat="43.70442673081116" lon="10.877439460085686"><ele>24.0</ele><time>2026-04-19T15:29:41.998Z</time></trkpt><trkpt lat="43.704381704158614" lon="10.87709656558599"><ele>24.0</ele><time>2026-04-19T15:29:42.998Z</time></trkpt><trkpt lat="43.704335224742586" lon="10.876753090359207"><ele>23.5</ele><time>2026-04-19T15:29:43.998Z</time></trkpt><trkpt lat="43.7042891763861" lon="10.87641140884377"><ele>23.0</ele><time>2026-04-19T15:29:44.998Z</time></trkpt><trkpt lat="43.70424518467301" lon="10.87607120722539"><ele>23.5</ele><time>2026-04-19T15:29:45.998Z</time></trkpt><trkpt lat="43.70420169544089" lon="10.87573001952505"><ele>24.0</ele><time>2026-04-19T15:29:47Z</time></trkpt><trkpt lat="43.704158924812106" lon="10.875389489998238"><ele>23.0</ele><time>2026-04-19T15:29:48Z</time></trkpt><trkpt lat="43.70411841146602" lon="10.87505021228754"><ele>22.0</ele><time>2026-04-19T15:29:49Z</time></trkpt><trkpt lat="43.70407314744063" lon="10.874714678350365"><ele>22.0</ele><time>2026-04-19T15:29:50Z</time></trkpt><trkpt lat="43.7040242228714" lon="10.874377928316266"><ele>22.0</ele><time>2026-04-19T15:29:51Z</time></trkpt><trkpt lat="43.70397760253799" lon="10.874041075690666"><ele>22.5</ele><time>2026-04-19T15:29:52Z</time></trkpt><trkpt lat="43.703931822139616" lon="10.873708209229315"><ele>23.0</ele><time>2026-04-19T15:29:53Z</time></trkpt><trkpt lat="43.7038878874615" lon="10.873376949173764"><ele>24.0</ele><time>2026-04-19T15:29:54Z</time></trkpt><trkpt lat="43.703843777306055" lon="10.87304634633223"><ele>25.0</ele><time>2026-04-19T15:29:55Z</time></trkpt><trkpt lat="43.703802764968444" lon="10.872715553252808"><ele>25.0</ele><time>2026-04-19T15:29:56Z</time></trkpt><trkpt lat="43.70375898918726" lon="10.872384978792919"><ele>25.0</ele><time>2026-04-19T15:29:57Z</time></trkpt><trkpt lat="43.70371794797068" lon="10.872061356163153"><ele>24.5</ele><time>2026-04-19T15:29:58Z</time></trkpt><trkpt lat="43.7036795211962" lon="10.871743756969229"><ele>24.0</ele><time>2026-04-19T15:29:59Z</time></trkpt><trkpt lat="43.703642119546586" lon="10.87143350382157"><ele>24.0</ele><time>2026-04-19T15:30:00Z</time></trkpt><trkpt lat="43.70360296287788" lon="10.871131628325347"><ele>24.0</ele><time>2026-04-19T15:30:01Z</time></trkpt><trkpt lat="43.70356547312816" lon="10.870835764870625"><ele>24.0</ele><time>2026-04-19T15:30:02Z</time></trkpt><trkpt lat="43.7035358035506" lon="10.870547740786112"><ele>24.333333333333336</ele><time>2026-04-19T15:30:03Z</time></trkpt><trkpt lat="43.7035151420055" lon="10.870264713620898"><ele>24.666666666666668</ele><time>2026-04-19T15:30:04Z</time></trkpt><trkpt lat="43.70350137767868" lon="10.869981318445388"><ele>25.0</ele><time>2026-04-19T15:30:05Z</time></trkpt><trkpt lat="43.70349522341698" lon="10.869703878426005"><ele>25.0</ele><time>2026-04-19T15:30:06Z</time></trkpt><trkpt lat="43.703496350314516" lon="10.86942602813274"><ele>25.0</ele><time>2026-04-19T15:30:07Z</time></trkpt><trkpt lat="43.70350540804082" lon="10.869143624275996"><ele>25.0</ele><time>2026-04-19T15:30:08Z</time></trkpt><trkpt lat="43.70352120387774" lon="10.868864156976441"><ele>24.666666666666668</ele><time>2026-04-19T15:30:09Z</time></trkpt><trkpt lat="43.7035415614793" lon="10.86858363873745"><ele>24.333333333333336</ele><time>2026-04-19T15:30:10Z</time></trkpt><trkpt lat="43.70357108192637" lon="10.868298640805762"><ele>24.0</ele><time>2026-04-19T15:30:11Z</time></trkpt><trkpt lat="43.70360523654604" lon="10.868012002766376"><ele>23.666666666666668</ele><time>2026-04-19T15:30:12Z</time></trkpt><trkpt lat="43.70364214815552" lon="10.867713586514858"><ele>23.333333333333336</ele><time>2026-04-19T15:30:13Z</time></trkpt><trkpt lat="43.703677477185465" lon="10.867399110570936"><ele>23.0</ele><time>2026-04-19T15:30:14Z</time></trkpt><trkpt lat="43.703719933615346" lon="10.867068899222634"><ele>23.5</ele><time>2026-04-19T15:30:15Z</time></trkpt><trkpt lat="43.7037673700383" lon="10.86672838325517"><ele>24.0</ele><time>2026-04-19T15:30:16Z</time></trkpt><trkpt lat="43.70381644541584" lon="10.866387128551125"><ele>24.0</ele><time>2026-04-19T15:30:17Z</time></trkpt><trkpt lat="43.70387103139536" lon="10.86604385129739"><ele>24.0</ele><time>2026-04-19T15:30:18Z</time></trkpt><trkpt lat="43.703928990138316" lon="10.865694984061703"><ele>24.0</ele><time>2026-04-19T15:30:19Z</time></trkpt><trkpt lat="43.70398670538621" lon="10.865335084847548"><ele>24.0</ele><time>2026-04-19T15:30:20Z</time></trkpt><trkpt lat="43.704041802524465" lon="10.864975669460096"><ele>23.0</ele><time>2026-04-19T15:30:21Z</time></trkpt><trkpt lat="43.70410121629078" lon="10.864619860189771"><ele>22.0</ele><time>2026-04-19T15:30:22Z</time></trkpt><trkpt lat="43.70416545836814" lon="10.864261974321373"><ele>22.0</ele><time>2026-04-19T15:30:23Z</time></trkpt><trkpt lat="43.7042213224358" lon="10.863897883795131"><ele>22.0</ele><time>2026-04-19T15:30:24Z</time></trkpt><trkpt lat="43.70426364789167" lon="10.863528010183625"><ele>21.5</ele><time>2026-04-19T15:30:25Z</time></trkpt><trkpt lat="43.70429575484412" lon="10.863158049083129"><ele>21.0</ele><time>2026-04-19T15:30:26Z</time></trkpt><trkpt lat="43.704322332770865" lon="10.862786741379521"><ele>22.0</ele><time>2026-04-19T15:30:26.999Z</time></trkpt><trkpt lat="43.70433820805985" lon="10.86241705946659"><ele>23.0</ele><time>2026-04-19T15:30:27.999Z</time></trkpt><trkpt lat="43.704343499267054" lon="10.862049704350731"><ele>22.5</ele><time>2026-04-19T15:30:28.999Z</time></trkpt><trkpt lat="43.70433995275631" lon="10.86168495302192"><ele>22.0</ele><time>2026-04-19T15:30:29.999Z</time></trkpt><trkpt lat="43.70432566394893" lon="10.861320203297835"><ele>22.0</ele><time>2026-04-19T15:30:30.999Z</time></trkpt><trkpt lat="43.704307695507495" lon="10.860960506203615"><ele>22.0</ele><time>2026-04-19T15:30:31.999Z</time></trkpt><trkpt lat="43.704287743146" lon="10.860601807504754"><ele>22.0</ele><time>2026-04-19T15:30:32.999Z</time></trkpt><trkpt lat="43.70426303681729" lon="10.860242959370684"><ele>22.0</ele><time>2026-04-19T15:30:33.999Z</time></trkpt><trkpt lat="43.704224964142" lon="10.859888202134895"><ele>22.0</ele><time>2026-04-19T15:30:34.999Z</time></trkpt><trkpt lat="43.70418408569017" lon="10.859535113422256"><ele>22.0</ele><time>2026-04-19T15:30:35.999Z</time></trkpt><trkpt lat="43.704140158457655" lon="10.859184264713535"><ele>22.0</ele><time>2026-04-19T15:30:36.999Z</time></trkpt><trkpt lat="43.70409307294514" lon="10.858834502685282"><ele>22.0</ele><time>2026-04-19T15:30:37.999Z</time></trkpt><trkpt lat="43.704046292115564" lon="10.8584853485402"><ele>22.0</ele><time>2026-04-19T15:30:38.999Z</time></trkpt><trkpt lat="43.70399988774656" lon="10.858139624524888"><ele>22.0</ele><time>2026-04-19T15:30:39.999Z</time></trkpt><trkpt lat="43.70395591419083" lon="10.85779485744841"><ele>22.0</ele><time>2026-04-19T15:30:40.999Z</time></trkpt><trkpt lat="43.703911736205974" lon="10.857453086023455"><ele>22.0</ele><time>2026-04-19T15:30:41.999Z</time></trkpt><trkpt lat="43.703867893845775" lon="10.857115774212673"><ele>21.5</ele><time>2026-04-19T15:30:42.999Z</time></trkpt><trkpt lat="43.703824816722744" lon="10.856780943533431"><ele>21.0</ele><time>2026-04-19T15:30:43.999Z</time></trkpt><trkpt lat="43.70378176573258" lon="10.856444967099947"><ele>21.0</ele><time>2026-04-19T15:30:44.999Z</time></trkpt><trkpt lat="43.70373919007103" lon="10.856111079011201"><ele>21.0</ele><time>2026-04-19T15:30:45.999Z</time></trkpt><trkpt lat="43.70369983483475" lon="10.855772942463355"><ele>21.5</ele><time>2026-04-19T15:30:46.999Z</time></trkpt><trkpt lat="43.70365936777288" lon="10.855433079435468"><ele>22.0</ele><time>2026-04-19T15:30:47.999Z</time></trkpt><trkpt lat="43.703612645764046" lon="10.855090336610278"><ele>22.0</ele><time>2026-04-19T15:30:48.999Z</time></trkpt><trkpt lat="43.70356742709225" lon="10.854747563851824"><ele>22.0</ele><time>2026-04-19T15:30:49.999Z</time></trkpt><trkpt lat="43.70352416604056" lon="10.85440088634894"><ele>21.0</ele><time>2026-04-19T15:30:50.999Z</time></trkpt><trkpt lat="43.70348260546188" lon="10.854051845760363"><ele>20.0</ele><time>2026-04-19T15:30:51.999Z</time></trkpt><trkpt lat="43.7034369535968" lon="10.853704097673386"><ele>21.0</ele><time>2026-04-19T15:30:52.999Z</time></trkpt><trkpt lat="43.703389695024015" lon="10.853354432299543"><ele>22.0</ele><time>2026-04-19T15:30:53.999Z</time></trkpt><trkpt lat="43.70334462505156" lon="10.853003259961257"><ele>22.0</ele><time>2026-04-19T15:30:54.999Z</time></trkpt><trkpt lat="43.70330038422792" lon="10.852652449185726"><ele>22.0</ele><time>2026-04-19T15:30:55.999Z</time></trkpt><trkpt lat="43.70325327354038" lon="10.852304279144098"><ele>22.0</ele><time>2026-04-19T15:30:56.999Z</time></trkpt><trkpt lat="43.70321230107343" lon="10.851951356973098"><ele>22.0</ele><time>2026-04-19T15:30:57.999Z</time></trkpt><trkpt lat="43.70317008876214" lon="10.851597155517068"><ele>22.5</ele><time>2026-04-19T15:30:58.999Z</time></trkpt><trkpt lat="43.703124867495625" lon="10.851246686026226"><ele>23.0</ele><time>2026-04-19T15:30:59.999Z</time></trkpt><trkpt lat="43.70307971776558" lon="10.850899463720195"><ele>22.0</ele><time>2026-04-19T15:31:00.999Z</time></trkpt><trkpt lat="43.70303269007104" lon="10.850546936589787"><ele>21.0</ele><time>2026-04-19T15:31:01.999Z</time></trkpt><trkpt lat="43.702987782204254" lon="10.85019707087093"><ele>21.5</ele><time>2026-04-19T15:31:02.999Z</time></trkpt><trkpt lat="43.70294605720315" lon="10.84984840612784"><ele>22.0</ele><time>2026-04-19T15:31:03.999Z</time></trkpt><trkpt lat="43.70290581361253" lon="10.84950812373995"><ele>22.0</ele><time>2026-04-19T15:31:04.999Z</time></trkpt><trkpt lat="43.7028649321128" lon="10.849191295962855"><ele>22.0</ele><time>2026-04-19T15:31:05.999Z</time></trkpt><trkpt lat="43.70282473658088" lon="10.84887769306085"><ele>22.0</ele><time>2026-04-19T15:31:06.999Z</time></trkpt><trkpt lat="43.70278741041439" lon="10.848579377777398"><ele>22.0</ele><time>2026-04-19T15:31:07.999Z</time></trkpt><trkpt lat="43.702751429332665" lon="10.848294600427645"><ele>22.0</ele><time>2026-04-19T15:31:08.999Z</time></trkpt><trkpt lat="43.70271308097462" lon="10.848007594569205"><ele>22.333333333333332</ele><time>2026-04-19T15:31:09.999Z</time></trkpt><trkpt lat="43.7026748825958" lon="10.847717285216222"><ele>22.666666666666668</ele><time>2026-04-19T15:31:10.999Z</time></trkpt><trkpt lat="43.702636355532874" lon="10.847426723993026"><ele>23.0</ele><time>2026-04-19T15:31:11.999Z</time></trkpt><trkpt lat="43.70259791990668" lon="10.84713451573514"><ele>23.0</ele><time>2026-04-19T15:31:12.999Z</time></trkpt><trkpt lat="43.70255306072095" lon="10.84683158429902"><ele>23.0</ele><time>2026-04-19T15:31:13.999Z</time></trkpt><trkpt lat="43.70249911339936" lon="10.846511221671365"><ele>22.5</ele><time>2026-04-19T15:31:14.999Z</time></trkpt><trkpt lat="43.70244774201571" lon="10.846172089639287"><ele>22.0</ele><time>2026-04-19T15:31:15.999Z</time></trkpt><trkpt lat="43.7024033139354" lon="10.845825863081712"><ele>22.0</ele><time>2026-04-19T15:31:16.999Z</time></trkpt><trkpt lat="43.70236858050496" lon="10.845489178881605"><ele>22.0</ele><time>2026-04-19T15:31:17.998Z</time></trkpt><trkpt lat="43.70233791520579" lon="10.8451531971515"><ele>22.0</ele><time>2026-04-19T15:31:18.998Z</time></trkpt><trkpt lat="43.702299893108105" lon="10.844816250114313"><ele>22.0</ele><time>2026-04-19T15:31:19.998Z</time></trkpt><trkpt lat="43.7022550821912" lon="10.844485314336461"><ele>21.0</ele><time>2026-04-19T15:31:20.998Z</time></trkpt><trkpt lat="43.70219751010726" lon="10.844156736058446"><ele>20.0</ele><time>2026-04-19T15:31:21.998Z</time></trkpt><trkpt lat="43.70212930656112" lon="10.843836070417911"><ele>20.0</ele><time>2026-04-19T15:31:22.998Z</time></trkpt><trkpt lat="43.702055122554576" lon="10.843517367267745"><ele>20.0</ele><time>2026-04-19T15:31:23.998Z</time></trkpt><trkpt lat="43.701975334402874" lon="10.843201302399168"><ele>20.5</ele><time>2026-04-19T15:31:24.998Z</time></trkpt><trkpt lat="43.701886883380986" lon="10.842893456790051"><ele>21.0</ele><time>2026-04-19T15:31:25.998Z</time></trkpt><trkpt lat="43.70178822669572" lon="10.842592020852125"><ele>21.5</ele><time>2026-04-19T15:31:26.998Z</time></trkpt><trkpt lat="43.7016784424057" lon="10.842294693786078"><ele>22.0</ele><time>2026-04-19T15:31:27.998Z</time></trkpt><trkpt lat="43.701564981415885" lon="10.841998597447025"><ele>22.0</ele><time>2026-04-19T15:31:28.998Z</time></trkpt><trkpt lat="43.70144763963515" lon="10.841705400723706"><ele>22.0</ele><time>2026-04-19T15:31:29.998Z</time></trkpt><trkpt lat="43.70132074193277" lon="10.841418321055993"><ele>22.0</ele><time>2026-04-19T15:31:30.998Z</time></trkpt><trkpt lat="43.70118978829914" lon="10.841138253899494"><ele>22.0</ele><time>2026-04-19T15:31:31.998Z</time></trkpt><trkpt lat="43.70105808340417" lon="10.840858576527642"><ele>21.5</ele><time>2026-04-19T15:31:32.998Z</time></trkpt><trkpt lat="43.700922865739486" lon="10.840581656367894"><ele>21.0</ele><time>2026-04-19T15:31:33.998Z</time></trkpt><trkpt lat="43.7007836603315" lon="10.840305838358557"><ele>20.5</ele><time>2026-04-19T15:31:34.998Z</time></trkpt><trkpt lat="43.70064543193748" lon="10.840031180134627"><ele>20.0</ele><time>2026-04-19T15:31:35.998Z</time></trkpt><trkpt lat="43.70050953299166" lon="10.839757460148176"><ele>20.0</ele><time>2026-04-19T15:31:36.998Z</time></trkpt><trkpt lat="43.70037426160659" lon="10.839485433412325"><ele>20.0</ele><time>2026-04-19T15:31:37.998Z</time></trkpt><trkpt lat="43.70023885895734" lon="10.839214974367318"><ele>21.0</ele><time>2026-04-19T15:31:38.998Z</time></trkpt><trkpt lat="43.700103490056044" lon="10.838943508393342"><ele>22.0</ele><time>2026-04-19T15:31:39.998Z</time></trkpt><trkpt lat="43.69997133518489" lon="10.838672288444979"><ele>22.0</ele><time>2026-04-19T15:31:40.998Z</time></trkpt><trkpt lat="43.69983986783908" lon="10.83840269847967"><ele>22.0</ele><time>2026-04-19T15:31:41.998Z</time></trkpt><trkpt lat="43.69970740397626" lon="10.838135447947257"><ele>22.0</ele><time>2026-04-19T15:31:42.998Z</time></trkpt><trkpt lat="43.69957506914985" lon="10.837870349489874"><ele>22.0</ele><time>2026-04-19T15:31:43.998Z</time></trkpt><trkpt lat="43.69944043746906" lon="10.837605789636543"><ele>21.0</ele><time>2026-04-19T15:31:44.998Z</time></trkpt><trkpt lat="43.6993059022157" lon="10.83733759936744"><ele>20.0</ele><time>2026-04-19T15:31:45.998Z</time></trkpt><trkpt lat="43.69917369893995" lon="10.837070027776523"><ele>21.0</ele><time>2026-04-19T15:31:46.998Z</time></trkpt><trkpt lat="43.69904033812232" lon="10.836801171804325"><ele>22.0</ele><time>2026-04-19T15:31:47.998Z</time></trkpt><trkpt lat="43.69890867375038" lon="10.836532640251074"><ele>22.0</ele><time>2026-04-19T15:31:48.998Z</time></trkpt><trkpt lat="43.6987789925987" lon="10.836262602151168"><ele>22.0</ele><time>2026-04-19T15:31:49.998Z</time></trkpt><trkpt lat="43.698649583807125" lon="10.835996988676191"><ele>22.0</ele><time>2026-04-19T15:31:50.998Z</time></trkpt><trkpt lat="43.6985186282129" lon="10.835739135447744"><ele>22.0</ele><time>2026-04-19T15:31:51.998Z</time></trkpt><trkpt lat="43.69838707315628" lon="10.835484203359124"><ele>22.0</ele><time>2026-04-19T15:31:53Z</time></trkpt><trkpt lat="43.69826075506253" lon="10.835229222702496"><ele>22.0</ele><time>2026-04-19T15:31:54Z</time></trkpt><trkpt lat="43.698137067190096" lon="10.834977805812724"><ele>22.0</ele><time>2026-04-19T15:31:55Z</time></trkpt><trkpt lat="43.698014966258704" lon="10.834726351804365"><ele>22.333333333333332</ele><time>2026-04-19T15:31:56Z</time></trkpt><trkpt lat="43.69790062884555" lon="10.834487388523307"><ele>22.666666666666668</ele><time>2026-04-19T15:31:57Z</time></trkpt><trkpt lat="43.69778203911688" lon="10.834241239134425"><ele>23.0</ele><time>2026-04-19T15:31:58Z</time></trkpt><trkpt lat="43.69766919114216" lon="10.833996874419126"><ele>23.0</ele><time>2026-04-19T15:31:59Z</time></trkpt><trkpt lat="43.697557947312845" lon="10.833743288572501"><ele>23.0</ele><time>2026-04-19T15:32:00Z</time></trkpt><trkpt lat="43.6974500377182" lon="10.833481702269246"><ele>23.0</ele><time>2026-04-19T15:32:01Z</time></trkpt><trkpt lat="43.697348164002854" lon="10.833209329497917"><ele>23.0</ele><time>2026-04-19T15:32:02Z</time></trkpt><trkpt lat="43.69725070571115" lon="10.832928182345444"><ele>23.0</ele><time>2026-04-19T15:32:03Z</time></trkpt><trkpt lat="43.69716549420766" lon="10.832632126948296"><ele>23.0</ele><time>2026-04-19T15:32:04Z</time></trkpt><trkpt lat="43.69709018212977" lon="10.832345960042316"><ele>23.0</ele><time>2026-04-19T15:32:05Z</time></trkpt><trkpt lat="43.69702087492166" lon="10.832062266202799"><ele>23.0</ele><time>2026-04-19T15:32:06Z</time></trkpt><trkpt lat="43.696955913596085" lon="10.831770214983404"><ele>22.333333333333336</ele><time>2026-04-19T15:32:07Z</time></trkpt><trkpt lat="43.69689808897795" lon="10.83147935344995"><ele>21.666666666666668</ele><time>2026-04-19T15:32:08Z</time></trkpt><trkpt lat="43.69684770253175" lon="10.831192345908082"><ele>21.0</ele><time>2026-04-19T15:32:09Z</time></trkpt><trkpt lat="43.69680731222674" lon="10.830908970498871"><ele>21.0</ele><time>2026-04-19T15:32:10Z</time></trkpt><trkpt lat="43.69677630223367" lon="10.830629150704851"><ele>21.0</ele><time>2026-04-19T15:32:11Z</time></trkpt><trkpt lat="43.69675429587449" lon="10.830355614827628"><ele>21.0</ele><time>2026-04-19T15:32:12Z</time></trkpt><trkpt lat="43.69674065015126" lon="10.830078117538045"><ele>21.333333333333332</ele><time>2026-04-19T15:32:13Z</time></trkpt><trkpt lat="43.69673278664091" lon="10.82980073243763"><ele>21.666666666666664</ele><time>2026-04-19T15:32:14Z</time></trkpt><trkpt lat="43.69672710092594" lon="10.829528858648406"><ele>22.0</ele><time>2026-04-19T15:32:15Z</time></trkpt><trkpt lat="43.696728076017585" lon="10.829271113748367"><ele>22.333333333333332</ele><time>2026-04-19T15:32:16Z</time></trkpt><trkpt lat="43.696736087298355" lon="10.829030754946183"><ele>22.666666666666668</ele><time>2026-04-19T15:32:17Z</time></trkpt><trkpt lat="43.696750753598096" lon="10.82880197426454"><ele>23.0</ele><time>2026-04-19T15:32:18Z</time></trkpt><trkpt lat="43.69676759052172" lon="10.828581850562033"><ele>23.0</ele><time>2026-04-19T15:32:19Z</time></trkpt><trkpt lat="43.69679447964861" lon="10.828374750756089"><ele>23.0</ele><time>2026-04-19T15:32:20Z</time></trkpt><trkpt lat="43.69681867321005" lon="10.828177291752437"><ele>23.0</ele><time>2026-04-19T15:32:21Z</time></trkpt><trkpt lat="43.69689592930965" lon="10.828001697612619"><ele>23.0</ele><time>2026-04-19T15:32:22Z</time></trkpt><trkpt lat="43.696967159073175" lon="10.827854025947051"><ele>23.25</ele><time>2026-04-19T15:32:23Z</time></trkpt><trkpt lat="43.69705516498839" lon="10.827720920509833"><ele>23.5</ele><time>2026-04-19T15:32:24Z</time></trkpt><trkpt lat="43.697169727202485" lon="10.82763025336271"><ele>23.75</ele><time>2026-04-19T15:32:25Z</time></trkpt><trkpt lat="43.69729107358953" lon="10.827586032255383"><ele>24.0</ele><time>2026-04-19T15:32:26Z</time></trkpt><trkpt lat="43.6974151860509" lon="10.827598969346951"><ele>24.0</ele><time>2026-04-19T15:32:27Z</time></trkpt><trkpt lat="43.69751968587146" lon="10.827638149392818"><ele>24.0</ele><time>2026-04-19T15:32:28Z</time></trkpt><trkpt lat="43.6976247377931" lon="10.82770153500087"><ele>24.0</ele><time>2026-04-19T15:32:29Z</time></trkpt><trkpt lat="43.697724463072" lon="10.82778893143235"><ele>24.0</ele><time>2026-04-19T15:32:30Z</time></trkpt><trkpt lat="43.69780820818526" lon="10.827900438725065"><ele>24.2</ele><time>2026-04-19T15:32:31Z</time></trkpt><trkpt lat="43.69787190308149" lon="10.828025462076889"><ele>24.4</ele><time>2026-04-19T15:32:32Z</time></trkpt><trkpt lat="43.69791339115331" lon="10.828163736652813"><ele>24.6</ele><time>2026-04-19T15:32:33Z</time></trkpt><trkpt lat="43.69793462011803" lon="10.828310306730431"><ele>24.8</ele><time>2026-04-19T15:32:34Z</time></trkpt><trkpt lat="43.6979349963732" lon="10.828452424984897"><ele>25.0</ele><time>2026-04-19T15:32:35Z</time></trkpt><trkpt lat="43.69792082732556" lon="10.828582543679232"><ele>25.000000000000004</ele><time>2026-04-19T15:32:36Z</time></trkpt><trkpt lat="43.69789728261975" lon="10.828694840062877"><ele>25.0</ele><time>2026-04-19T15:32:37Z</time></trkpt><trkpt lat="43.69786473948188" lon="10.828790318633347"><ele>25.0</ele><time>2026-04-19T15:32:38Z</time></trkpt><trkpt lat="43.69782266614869" lon="10.828868950525697"><ele>25.0</ele><time>2026-04-19T15:32:39Z</time></trkpt><trkpt lat="43.697771276400616" lon="10.828938797250036"><ele>25.000000000000004</ele><time>2026-04-19T15:32:40Z</time></trkpt><trkpt lat="43.697689732508145" lon="10.829008499935886"><ele>25.0</ele><time>2026-04-19T15:32:40.999Z</time></trkpt><trkpt lat="43.697601310916" lon="10.829085234191446"><ele>25.25</ele><time>2026-04-19T15:32:41.999Z</time></trkpt><trkpt lat="43.697470059516796" lon="10.829083419680869"><ele>25.5</ele><time>2026-04-19T15:32:42.999Z</time></trkpt><trkpt lat="43.697343114150186" lon="10.829106671889287"><ele>25.75</ele><time>2026-04-19T15:32:43.999Z</time></trkpt><trkpt lat="43.697213338985286" lon="10.829139574955809"><ele>26.0</ele><time>2026-04-19T15:32:44.999Z</time></trkpt><trkpt lat="43.69707537763873" lon="10.829172770296797"><ele>26.0</ele><time>2026-04-19T15:32:45.999Z</time></trkpt><trkpt lat="43.69693299094248" lon="10.829206599988614"><ele>26.0</ele><time>2026-04-19T15:32:46.999Z</time></trkpt><trkpt lat="43.69678418072043" lon="10.829242538984058"><ele>26.0</ele><time>2026-04-19T15:32:47.999Z</time></trkpt><trkpt lat="43.69663185470767" lon="10.82927700148467"><ele>25.0</ele><time>2026-04-19T15:32:48.999Z</time></trkpt><trkpt lat="43.696480075000174" lon="10.829314929098405"><ele>24.0</ele><time>2026-04-19T15:32:49.999Z</time></trkpt><trkpt lat="43.6963362420463" lon="10.829352363265578"><ele>23.0</ele><time>2026-04-19T15:32:50.999Z</time></trkpt><trkpt lat="43.69619992848821" lon="10.829385885908762"><ele>22.0</ele><time>2026-04-19T15:32:51.999Z</time></trkpt><trkpt lat="43.69607161958771" lon="10.829420291115078"><ele>21.75</ele><time>2026-04-19T15:32:52.999Z</time></trkpt><trkpt lat="43.695951271094586" lon="10.829447891685314"><ele>21.5</ele><time>2026-04-19T15:32:53.999Z</time></trkpt><trkpt lat="43.695835159079614" lon="10.829476462679692"><ele>21.25</ele><time>2026-04-19T15:32:54.999Z</time></trkpt><trkpt lat="43.69572089851541" lon="10.829512100858155"><ele>21.0</ele><time>2026-04-19T15:32:55.999Z</time></trkpt><trkpt lat="43.695609353323086" lon="10.829549277596042"><ele>21.0</ele><time>2026-04-19T15:32:56.999Z</time></trkpt><trkpt lat="43.695490063724996" lon="10.829594400874266"><ele>21.0</ele><time>2026-04-19T15:32:57.999Z</time></trkpt><trkpt lat="43.695373404152654" lon="10.829651275527336"><ele>21.0</ele><time>2026-04-19T15:32:58.999Z</time></trkpt><trkpt lat="43.69526007359709" lon="10.82970982274217"><ele>21.0</ele><time>2026-04-19T15:32:59.999Z</time></trkpt><trkpt lat="43.695145925738245" lon="10.829770264236393"><ele>21.25</ele><time>2026-04-19T15:33:00.999Z</time></trkpt><trkpt lat="43.69503347108091" lon="10.829834833334527"><ele>21.5</ele><time>2026-04-19T15:33:01.999Z</time></trkpt><trkpt lat="43.694921119153534" lon="10.82989675066805"><ele>21.75</ele><time>2026-04-19T15:33:02.999Z</time></trkpt><trkpt lat="43.69480732548271" lon="10.829961564908691"><ele>22.0</ele><time>2026-04-19T15:33:03.999Z</time></trkpt><trkpt lat="43.69469515906369" lon="10.830035131724497"><ele>22.0</ele><time>2026-04-19T15:33:04.999Z</time></trkpt><trkpt lat="43.69458261077536" lon="10.830116239665184"><ele>22.0</ele><time>2026-04-19T15:33:05.999Z</time></trkpt><trkpt lat="43.694470313140556" lon="10.83019739058249"><ele>22.0</ele><time>2026-04-19T15:33:06.999Z</time></trkpt><trkpt lat="43.69435966667122" lon="10.830277213085969"><ele>22.0</ele><time>2026-04-19T15:33:07.999Z</time></trkpt><trkpt lat="43.69424879660999" lon="10.83035757011483"><ele>21.5</ele><time>2026-04-19T15:33:08.999Z</time></trkpt><trkpt lat="43.69413667284542" lon="10.830437596354761"><ele>21.0</ele><time>2026-04-19T15:33:09.999Z</time></trkpt><trkpt lat="43.694025555493546" lon="10.83051858982132"><ele>20.5</ele><time>2026-04-19T15:33:10.999Z</time></trkpt><trkpt lat="43.69392169289295" lon="10.830595077052914"><ele>20.0</ele><time>2026-04-19T15:33:11.999Z</time></trkpt><trkpt lat="43.69382213952473" lon="10.830667158456496"><ele>20.0</ele><time>2026-04-19T15:33:12.999Z</time></trkpt><trkpt lat="43.693718157593295" lon="10.830744027123874"><ele>20.0</ele><time>2026-04-19T15:33:13.999Z</time></trkpt><trkpt lat="43.69361474755714" lon="10.830822315697134"><ele>20.0</ele><time>2026-04-19T15:33:14.999Z</time></trkpt><trkpt lat="43.69351423327593" lon="10.830896751480754"><ele>20.0</ele><time>2026-04-19T15:33:15.999Z</time></trkpt><trkpt lat="43.69341435447398" lon="10.830969216732068"><ele>20.4</ele><time>2026-04-19T15:33:16.999Z</time></trkpt><trkpt lat="43.693313557711" lon="10.831043474268439"><ele>20.8</ele><time>2026-04-19T15:33:17.999Z</time></trkpt><trkpt lat="43.69321548444926" lon="10.83111580435939"><ele>21.200000000000003</ele><time>2026-04-19T15:33:18.999Z</time></trkpt><trkpt lat="43.693117362547135" lon="10.83118476544554"><ele>21.6</ele><time>2026-04-19T15:33:19.999Z</time></trkpt><trkpt lat="43.69302320427441" lon="10.831250886261136"><ele>22.0</ele><time>2026-04-19T15:33:20.999Z</time></trkpt><trkpt lat="43.69293830622417" lon="10.8313133544994"><ele>22.0</ele><time>2026-04-19T15:33:21.999Z</time></trkpt><trkpt lat="43.692863008599524" lon="10.83136579352676"><ele>22.0</ele><time>2026-04-19T15:33:22.999Z</time></trkpt><trkpt lat="43.69279665977822" lon="10.831405709787338"><ele>22.0</ele><time>2026-04-19T15:33:23.999Z</time></trkpt><trkpt lat="43.69269776156807" lon="10.831424088849793"><ele>22.0</ele><time>2026-04-19T15:33:25.999Z</time></trkpt><trkpt lat="43.692620111993875" lon="10.831405561165688"><ele>22.0</ele><time>2026-04-19T15:33:27.999Z</time></trkpt><trkpt lat="43.69252110963288" lon="10.83134859004854"><ele>22.0</ele><time>2026-04-19T15:33:29.999Z</time></trkpt><trkpt lat="43.69246902391395" lon="10.831288974270931"><ele>22.166666666666664</ele><time>2026-04-19T15:33:30.999Z</time></trkpt><trkpt lat="43.69240710990188" lon="10.831233202323387"><ele>22.333333333333332</ele><time>2026-04-19T15:33:31.998Z</time></trkpt><trkpt lat="43.69232305689256" lon="10.831211456873158"><ele>22.5</ele><time>2026-04-19T15:33:32.998Z</time></trkpt><trkpt lat="43.692234004555864" lon="10.831217257260299"><ele>22.666666666666668</ele><time>2026-04-19T15:33:33.998Z</time></trkpt><trkpt lat="43.69215160868576" lon="10.831259841122492"><ele>22.833333333333336</ele><time>2026-04-19T15:33:34.998Z</time></trkpt><trkpt lat="43.69208324952239" lon="10.83132959087309"><ele>23.0</ele><time>2026-04-19T15:33:35.998Z</time></trkpt><trkpt lat="43.692045877395685" lon="10.8314324676881"><ele>23.0</ele><time>2026-04-19T15:33:36.998Z</time></trkpt><trkpt lat="43.69203100407376" lon="10.831546558464481"><ele>23.0</ele><time>2026-04-19T15:33:37.998Z</time></trkpt><trkpt lat="43.69204104209045" lon="10.831666364486733"><ele>23.0</ele><time>2026-04-19T15:33:38.998Z</time></trkpt><trkpt lat="43.69205075257278" lon="10.831779473599584"><ele>23.0</ele><time>2026-04-19T15:33:39.998Z</time></trkpt><trkpt lat="43.69203507134168" lon="10.831890068501"><ele>23.0</ele><time>2026-04-19T15:33:40.998Z</time></trkpt><trkpt lat="43.69199106748673" lon="10.83198204799473"><ele>23.0</ele><time>2026-04-19T15:33:41.998Z</time></trkpt><trkpt lat="43.691921295201084" lon="10.832055119850283"><ele>22.599999999999998</ele><time>2026-04-19T15:33:42.998Z</time></trkpt><trkpt lat="43.69184344848193" lon="10.832110097956404"><ele>22.2</ele><time>2026-04-19T15:33:43.998Z</time></trkpt><trkpt lat="43.69176086417104" lon="10.832165168726204"><ele>21.8</ele><time>2026-04-19T15:33:44.998Z</time></trkpt><trkpt lat="43.69167652403939" lon="10.832222691481634"><ele>21.4</ele><time>2026-04-19T15:33:45.998Z</time></trkpt><trkpt lat="43.69159478574382" lon="10.832284708423357"><ele>21.0</ele><time>2026-04-19T15:33:46.998Z</time></trkpt><trkpt lat="43.691513294119815" lon="10.832346172008885"><ele>21.0</ele><time>2026-04-19T15:33:47.998Z</time></trkpt><trkpt lat="43.691436280845345" lon="10.83240385355627"><ele>21.0</ele><time>2026-04-19T15:33:48.998Z</time></trkpt><trkpt lat="43.6913715514128" lon="10.83245814459046"><ele>21.0</ele><time>2026-04-19T15:33:49.998Z</time></trkpt><trkpt lat="43.69131299347829" lon="10.832505675401283"><ele>21.0</ele><time>2026-04-19T15:33:50.998Z</time></trkpt><trkpt lat="43.69122940145464" lon="10.832575543441012"><ele>21.0</ele><time>2026-04-19T15:33:52.998Z</time></trkpt><trkpt lat="43.691174018943855" lon="10.832617128675537"><ele>21.0</ele><time>2026-04-19T15:34:01Z</time></trkpt><trkpt lat="43.691095155508364" lon="10.832652755136039"><ele>22.0</ele><time>2026-04-19T15:34:09Z</time></trkpt><trkpt lat="43.69097632610566" lon="10.832660041089996"><ele>23.0</ele><time>2026-04-19T15:34:11Z</time></trkpt><trkpt lat="43.690904710413" lon="10.832762368012878"><ele>24.0</ele><time>2026-04-19T15:34:13Z</time></trkpt><trkpt lat="43.69093297259047" lon="10.832920252428403"><ele>25.0</ele><time>2026-04-19T15:34:15Z</time></trkpt><trkpt lat="43.69098322606847" lon="10.833005868348986"><ele>26.0</ele><time>2026-04-19T15:34:16Z</time></trkpt><trkpt lat="43.69102754005336" lon="10.833118770790561"><ele>26.0</ele><time>2026-04-19T15:34:17Z</time></trkpt><trkpt lat="43.691039762365676" lon="10.833258805954266"><ele>26.0</ele><time>2026-04-19T15:34:18Z</time></trkpt><trkpt lat="43.691083877711" lon="10.833397259629566"><ele>26.0</ele><time>2026-04-19T15:34:19Z</time></trkpt><trkpt lat="43.691119280145564" lon="10.833544356971576"><ele>26.0</ele><time>2026-04-19T15:34:20Z</time></trkpt><trkpt lat="43.69116453739725" lon="10.833690751659764"><ele>26.0</ele><time>2026-04-19T15:34:21Z</time></trkpt><trkpt lat="43.69121568834769" lon="10.833840003976638"><ele>25.5</ele><time>2026-04-19T15:34:22Z</time></trkpt><trkpt lat="43.6912641310613" lon="10.833993317120191"><ele>25.0</ele><time>2026-04-19T15:34:23Z</time></trkpt><trkpt lat="43.69130985850779" lon="10.834154433471971"><ele>24.5</ele><time>2026-04-19T15:34:24Z</time></trkpt><trkpt lat="43.69135983996474" lon="10.834317348968742"><ele>24.0</ele><time>2026-04-19T15:34:25Z</time></trkpt><trkpt lat="43.691410383612016" lon="10.834482988809102"><ele>23.75</ele><time>2026-04-19T15:34:26Z</time></trkpt><trkpt lat="43.69145961646249" lon="10.834648230950702"><ele>23.5</ele><time>2026-04-19T15:34:27Z</time></trkpt><trkpt lat="43.69151023004036" lon="10.834811261026292"><ele>23.25</ele><time>2026-04-19T15:34:28Z</time></trkpt><trkpt lat="43.691543814791395" lon="10.834980497057002"><ele>23.0</ele><time>2026-04-19T15:34:29Z</time></trkpt><trkpt lat="43.69160204176645" lon="10.835135590439394"><ele>23.5</ele><time>2026-04-19T15:34:30Z</time></trkpt><trkpt lat="43.691650192847845" lon="10.835298433825301"><ele>24.0</ele><time>2026-04-19T15:34:31Z</time></trkpt><trkpt lat="43.69168764014873" lon="10.835467955020324"><ele>24.5</ele><time>2026-04-19T15:34:32Z</time></trkpt><trkpt lat="43.691749909110975" lon="10.835620299925417"><ele>25.0</ele><time>2026-04-19T15:34:33Z</time></trkpt><trkpt lat="43.6917960525865" lon="10.835779173437553"><ele>25.0</ele><time>2026-04-19T15:34:34Z</time></trkpt><trkpt lat="43.6918289860544" lon="10.83594326378177"><ele>25.0</ele><time>2026-04-19T15:34:35Z</time></trkpt><trkpt lat="43.69187549532617" lon="10.836100712343043"><ele>25.0</ele><time>2026-04-19T15:34:36Z</time></trkpt><trkpt lat="43.69193728625685" lon="10.836250252538681"><ele>25.0</ele><time>2026-04-19T15:34:37Z</time></trkpt><trkpt lat="43.69198237013328" lon="10.836405979147731"><ele>25.2</ele><time>2026-04-19T15:34:38Z</time></trkpt><trkpt lat="43.692026762018465" lon="10.836551318674934"><ele>25.4</ele><time>2026-04-19T15:34:39Z</time></trkpt><trkpt lat="43.69206641801047" lon="10.836688136472858"><ele>25.6</ele><time>2026-04-19T15:34:40Z</time></trkpt><trkpt lat="43.692102204681305" lon="10.836809876184672"><ele>25.8</ele><time>2026-04-19T15:34:41Z</time></trkpt><trkpt lat="43.69213518031349" lon="10.836927845175007"><ele>26.0</ele><time>2026-04-19T15:34:42Z</time></trkpt><trkpt lat="43.69217296417228" lon="10.837057501195488"><ele>26.200000000000003</ele><time>2026-04-19T15:34:43Z</time></trkpt><trkpt lat="43.692212908346086" lon="10.837190297334658"><ele>26.400000000000002</ele><time>2026-04-19T15:34:44Z</time></trkpt><trkpt lat="43.69225047007815" lon="10.837314489561244"><ele>26.6</ele><time>2026-04-19T15:34:45Z</time></trkpt><trkpt lat="43.692283854022804" lon="10.837424220083875"><ele>26.8</ele><time>2026-04-19T15:34:46Z</time></trkpt><trkpt lat="43.69231359516187" lon="10.83751492342827"><ele>27.0</ele><time>2026-04-19T15:34:47Z</time></trkpt><trkpt lat="43.69231876069571" lon="10.83764740088255"><ele>27.0</ele><time>2026-04-19T15:34:49Z</time></trkpt><trkpt lat="43.69220998207935" lon="10.837666090951139"><ele>27.0</ele><time>2026-04-19T15:34:51Z</time></trkpt><trkpt lat="43.692146168067616" lon="10.83771273278637"><ele>27.0</ele><time>2026-04-19T15:34:52Z</time></trkpt><trkpt lat="43.69206945624525" lon="10.837741794539802"><ele>27.0</ele><time>2026-04-19T15:34:53Z</time></trkpt><trkpt lat="43.69198847601728" lon="10.837769508027245"><ele>27.0</ele><time>2026-04-19T15:34:54Z</time></trkpt><trkpt lat="43.691911646440744" lon="10.837796829918155"><ele>27.0</ele><time>2026-04-19T15:34:55Z</time></trkpt><trkpt lat="43.69182755264168" lon="10.837821634297763"><ele>26.833333333333332</ele><time>2026-04-19T15:34:56Z</time></trkpt><trkpt lat="43.69174608086414" lon="10.837866101809718"><ele>26.666666666666664</ele><time>2026-04-19T15:34:56.999Z</time></trkpt><trkpt lat="43.691657511054956" lon="10.837892744595521"><ele>26.5</ele><time>2026-04-19T15:34:57.999Z</time></trkpt><trkpt lat="43.691568868149936" lon="10.837929174338516"><ele>26.333333333333332</ele><time>2026-04-19T15:34:58.999Z</time></trkpt><trkpt lat="43.691488513038095" lon="10.837984715455146"><ele>26.166666666666664</ele><time>2026-04-19T15:34:59.999Z</time></trkpt><trkpt lat="43.691408001151196" lon="10.838014066442941"><ele>26.0</ele><time>2026-04-19T15:35:00.999Z</time></trkpt><trkpt lat="43.6913403124602" lon="10.838041552451307"><ele>26.0</ele><time>2026-04-19T15:35:01.999Z</time></trkpt><trkpt lat="43.691229954465264" lon="10.838067832577021"><ele>26.0</ele><time>2026-04-19T15:35:03.999Z</time></trkpt><trkpt lat="43.69115125153849" lon="10.838100032069358"><ele>26.0</ele><time>2026-04-19T15:35:05.999Z</time></trkpt><trkpt lat="43.691089525086866" lon="10.838124498907556"><ele>26.0</ele><time>2026-04-19T15:35:32.999Z</time></trkpt><trkpt lat="43.691028757008375" lon="10.837810996779467"><ele>26.0</ele><time>2026-04-19T15:35:40.999Z</time></trkpt><trkpt lat="43.690975716045834" lon="10.837731718329241"><ele>26.0</ele><time>2026-04-19T15:35:43.999Z</time></trkpt><trkpt lat="43.69090439487537" lon="10.837765208432463"><ele>26.0</ele><time>2026-04-19T15:35:46.999Z</time></trkpt><trkpt lat="43.69082764985279" lon="10.837803595373598"><ele>26.0</ele><time>2026-04-19T15:35:58.998Z</time></trkpt><trkpt lat="43.69089169194688" lon="10.837781741886737"><ele>26.0</ele><time>2026-04-19T15:36:12.001Z</time></trkpt><trkpt lat="43.69089302133938" lon="10.837684318003605"><ele>26.0</ele><time>2026-04-19T15:39:02.999Z</time></trkpt><trkpt lat="43.69090184145178" lon="10.837586990759277"><ele>26.0</ele><time>2026-04-19T15:39:07.999Z</time></trkpt><trkpt lat="43.69088101656585" lon="10.837504391994527"><ele>26.0</ele><time>2026-04-19T15:39:14.999Z</time></trkpt><trkpt lat="43.69090926400893" lon="10.837719408371816"><ele>26.0</ele><time>2026-04-19T15:39:17.999Z</time></trkpt><trkpt lat="43.690864023099614" lon="10.837780287570583"><ele>26.0</ele><time>2026-04-19T15:40:36.03Z</time></trkpt></trkseg></trk></gpx>